<?xml version='1.0' encoding='UTF-8'?><gpx version="1.1" creator="JPX - https://github.com/jenetics/jpx" xmlns="http://www.topografix.com/GPX/1/1"><trk><trkseg><trkpt lat="45.0536783" lon="9.6502767"><ele>62.0</ele><time>2026-04-10T09:54:43.844Z</time></trkpt><trkpt lat="45.0536017" lon="9.650245"><ele>62.0</ele><time>2026-04-10T09:54:44.841Z</time></trkpt><trkpt lat="45.05351" lon="9.65021"><ele>62.0</ele><time>2026-04-10T09:54:45.842Z</time></trkpt><trkpt lat="45.0533983" lon="9.6501767"><ele>62.0</ele><time>2026-04-10T09:54:46.841Z</time></trkpt><trkpt lat="45.053275" lon="9.6501417"><ele>62.0</ele><time>2026-04-10T09:54:47.844Z</time></trkpt><trkpt lat="45.0531367" lon="9.6501"><ele>61.0</ele><time>2026-04-10T09:54:48.843Z</time></trkpt><trkpt lat="45.0529833" lon="9.6500583"><ele>60.0</ele><time>2026-04-10T09:54:49.842Z</time></trkpt><trkpt lat="45.05282" lon="9.6500133"><ele>59.0</ele><time>2026-04-10T09:54:50.843Z</time></trkpt><trkpt lat="45.052645" lon="9.6499667"><ele>59.0</ele><time>2026-04-10T09:54:51.842Z</time></trkpt><trkpt lat="45.0524717" lon="9.6499183"><ele>59.0</ele><time>2026-04-10T09:54:52.841Z</time></trkpt><trkpt lat="45.0523067" lon="9.649875"><ele>59.0</ele><time>2026-04-10T09:54:53.842Z</time></trkpt><trkpt lat="45.0521483" lon="9.6498317"><ele>59.0</ele><time>2026-04-10T09:54:54.842Z</time></trkpt><trkpt lat="45.0520167" lon="9.6497933"><ele>59.00000000000001</ele><time>2026-04-10T09:54:55.842Z</time></trkpt><trkpt lat="45.0519083" lon="9.649765"><ele>59.00000000000001</ele><time>2026-04-10T09:54:56.843Z</time></trkpt><trkpt lat="45.0518233" lon="9.6497317"><ele>59.0</ele><time>2026-04-10T09:54:57.841Z</time></trkpt><trkpt lat="45.0517567" lon="9.6496933"><ele>59.0</ele><time>2026-04-10T09:54:58.845Z</time></trkpt><trkpt lat="45.0517" lon="9.6496317"><ele>59.0</ele><time>2026-04-10T09:54:59.841Z</time></trkpt><trkpt lat="45.0516717" lon="9.6495383"><ele>59.00000000000001</ele><time>2026-04-10T09:55:00.846Z</time></trkpt><trkpt lat="45.0516617" lon="9.64943"><ele>59.00000000000001</ele><time>2026-04-10T09:55:01.842Z</time></trkpt><trkpt lat="45.051665" lon="9.6492933"><ele>59.0</ele><time>2026-04-10T09:55:02.842Z</time></trkpt><trkpt lat="45.0516783" lon="9.6491217"><ele>59.0</ele><time>2026-04-10T09:55:03.843Z</time></trkpt><trkpt lat="45.0516883" lon="9.648945"><ele>59.5</ele><time>2026-04-10T09:55:04.84Z</time></trkpt><trkpt lat="45.0517017" lon="9.6487567"><ele>60.0</ele><time>2026-04-10T09:55:05.841Z</time></trkpt><trkpt lat="45.051715" lon="9.6485667"><ele>60.5</ele><time>2026-04-10T09:55:06.842Z</time></trkpt><trkpt lat="45.05173" lon="9.6483683"><ele>61.0</ele><time>2026-04-10T09:55:07.842Z</time></trkpt><trkpt lat="45.0517467" lon="9.6481667"><ele>61.0</ele><time>2026-04-10T09:55:08.843Z</time></trkpt><trkpt lat="45.0517633" lon="9.647955"><ele>61.0</ele><time>2026-04-10T09:55:09.842Z</time></trkpt><trkpt lat="45.05178" lon="9.64774"><ele>61.0</ele><time>2026-04-10T09:55:10.842Z</time></trkpt><trkpt lat="45.0517983" lon="9.6475217"><ele>60.666666666666664</ele><time>2026-04-10T09:55:11.843Z</time></trkpt><trkpt lat="45.051815" lon="9.6473067"><ele>60.33333333333333</ele><time>2026-04-10T09:55:12.846Z</time></trkpt><trkpt lat="45.051835" lon="9.6470917"><ele>60.0</ele><time>2026-04-10T09:55:13.843Z</time></trkpt><trkpt lat="45.051855" lon="9.6468767"><ele>60.66666666666667</ele><time>2026-04-10T09:55:14.843Z</time></trkpt><trkpt lat="45.0518733" lon="9.6466517"><ele>61.333333333333336</ele><time>2026-04-10T09:55:15.842Z</time></trkpt><trkpt lat="45.0518917" lon="9.6464217"><ele>62.0</ele><time>2026-04-10T09:55:16.841Z</time></trkpt><trkpt lat="45.0519067" lon="9.6461867"><ele>61.333333333333336</ele><time>2026-04-10T09:55:17.849Z</time></trkpt><trkpt lat="45.0519217" lon="9.645965"><ele>60.66666666666667</ele><time>2026-04-10T09:55:18.844Z</time></trkpt><trkpt lat="45.051935" lon="9.6457533"><ele>60.0</ele><time>2026-04-10T09:55:19.844Z</time></trkpt><trkpt lat="45.051955" lon="9.64554"><ele>60.0</ele><time>2026-04-10T09:55:20.841Z</time></trkpt><trkpt lat="45.0519667" lon="9.6453317"><ele>60.0</ele><time>2026-04-10T09:55:21.843Z</time></trkpt><trkpt lat="45.0519683" lon="9.6451167"><ele>60.0</ele><time>2026-04-10T09:55:22.841Z</time></trkpt><trkpt lat="45.051965" lon="9.644895"><ele>59.0</ele><time>2026-04-10T09:55:23.844Z</time></trkpt><trkpt lat="45.05196" lon="9.6446767"><ele>58.0</ele><time>2026-04-10T09:55:24.843Z</time></trkpt><trkpt lat="45.05196" lon="9.64445"><ele>57.0</ele><time>2026-04-10T09:55:25.841Z</time></trkpt><trkpt lat="45.0519683" lon="9.6442083"><ele>57.0</ele><time>2026-04-10T09:55:26.842Z</time></trkpt><trkpt lat="45.051985" lon="9.643955"><ele>57.0</ele><time>2026-04-10T09:55:27.843Z</time></trkpt><trkpt lat="45.052005" lon="9.643695"><ele>57.0</ele><time>2026-04-10T09:55:28.841Z</time></trkpt><trkpt lat="45.052025" lon="9.6434333"><ele>57.0</ele><time>2026-04-10T09:55:29.842Z</time></trkpt><trkpt lat="45.052045" lon="9.643175"><ele>57.0</ele><time>2026-04-10T09:55:30.843Z</time></trkpt><trkpt lat="45.052065" lon="9.6429167"><ele>57.0</ele><time>2026-04-10T09:55:31.844Z</time></trkpt><trkpt lat="45.0520867" lon="9.6426533"><ele>57.0</ele><time>2026-04-10T09:55:32.843Z</time></trkpt><trkpt lat="45.052105" lon="9.642395"><ele>57.0</ele><time>2026-04-10T09:55:33.841Z</time></trkpt><trkpt lat="45.052125" lon="9.6421383"><ele>57.0</ele><time>2026-04-10T09:55:34.843Z</time></trkpt><trkpt lat="45.0521483" lon="9.6418817"><ele>57.33333333333333</ele><time>2026-04-10T09:55:35.842Z</time></trkpt><trkpt lat="45.0521717" lon="9.6416317"><ele>57.666666666666664</ele><time>2026-04-10T09:55:36.842Z</time></trkpt><trkpt lat="45.0522017" lon="9.64138"><ele>58.0</ele><time>2026-04-10T09:55:37.842Z</time></trkpt><trkpt lat="45.0522383" lon="9.6411317"><ele>57.0</ele><time>2026-04-10T09:55:38.848Z</time></trkpt><trkpt lat="45.0522917" lon="9.6408883"><ele>56.0</ele><time>2026-04-10T09:55:39.844Z</time></trkpt><trkpt lat="45.05236" lon="9.640655"><ele>55.0</ele><time>2026-04-10T09:55:40.842Z</time></trkpt><trkpt lat="45.052445" lon="9.640435"><ele>56.33333333333333</ele><time>2026-04-10T09:55:41.84Z</time></trkpt><trkpt lat="45.0525467" lon="9.6402333"><ele>57.66666666666667</ele><time>2026-04-10T09:55:42.842Z</time></trkpt><trkpt lat="45.0526667" lon="9.6400433"><ele>59.0</ele><time>2026-04-10T09:55:43.841Z</time></trkpt><trkpt lat="45.052805" lon="9.639865"><ele>59.0</ele><time>2026-04-10T09:55:44.844Z</time></trkpt><trkpt lat="45.0529533" lon="9.6397067"><ele>59.0</ele><time>2026-04-10T09:55:45.844Z</time></trkpt><trkpt lat="45.05312" lon="9.6395733"><ele>59.0</ele><time>2026-04-10T09:55:46.841Z</time></trkpt><trkpt lat="45.0532967" lon="9.639455"><ele>58.333333333333336</ele><time>2026-04-10T09:55:47.84Z</time></trkpt><trkpt lat="45.0534817" lon="9.6393467"><ele>57.66666666666667</ele><time>2026-04-10T09:55:48.84Z</time></trkpt><trkpt lat="45.05367" lon="9.6392467"><ele>57.0</ele><time>2026-04-10T09:55:49.844Z</time></trkpt><trkpt lat="45.0538533" lon="9.6391617"><ele>57.0</ele><time>2026-04-10T09:55:50.842Z</time></trkpt><trkpt lat="45.0540217" lon="9.63909"><ele>57.0</ele><time>2026-04-10T09:55:51.841Z</time></trkpt><trkpt lat="45.0541733" lon="9.6390283"><ele>57.0</ele><time>2026-04-10T09:55:52.841Z</time></trkpt><trkpt lat="45.05431" lon="9.638975"><ele>57.2</ele><time>2026-04-10T09:55:53.84Z</time></trkpt><trkpt lat="45.0544417" lon="9.6389283"><ele>57.400000000000006</ele><time>2026-04-10T09:55:54.841Z</time></trkpt><trkpt lat="45.05456" lon="9.6388917"><ele>57.599999999999994</ele><time>2026-04-10T09:55:55.84Z</time></trkpt><trkpt lat="45.0546533" lon="9.63884"><ele>57.8</ele><time>2026-04-10T09:55:56.841Z</time></trkpt><trkpt lat="45.0547217" lon="9.6388233"><ele>58.0</ele><time>2026-04-10T09:55:57.847Z</time></trkpt><trkpt lat="45.054785" lon="9.6387883"><ele>58.0</ele><time>2026-04-10T09:55:59.841Z</time></trkpt><trkpt lat="45.054725" lon="9.6386867"><ele>58.0</ele><time>2026-04-10T09:56:02.841Z</time></trkpt><trkpt lat="45.0545967" lon="9.6387433"><ele>58.0</ele><time>2026-04-10T09:56:04.847Z</time></trkpt><trkpt lat="45.05451" lon="9.638795"><ele>58.0</ele><time>2026-04-10T09:56:05.841Z</time></trkpt><trkpt lat="45.054405" lon="9.6388383"><ele>58.0</ele><time>2026-04-10T09:56:06.84Z</time></trkpt><trkpt lat="45.0542833" lon="9.638885"><ele>58.0</ele><time>2026-04-10T09:56:07.841Z</time></trkpt><trkpt lat="45.0541483" lon="9.638945"><ele>58.0</ele><time>2026-04-10T09:56:08.841Z</time></trkpt><trkpt lat="45.0539983" lon="9.6390067"><ele>58.0</ele><time>2026-04-10T09:56:09.841Z</time></trkpt><trkpt lat="45.0538433" lon="9.639065"><ele>57.666666666666664</ele><time>2026-04-10T09:56:10.84Z</time></trkpt><trkpt lat="45.05368" lon="9.6391283"><ele>57.33333333333333</ele><time>2026-04-10T09:56:11.84Z</time></trkpt><trkpt lat="45.0535083" lon="9.639185"><ele>57.0</ele><time>2026-04-10T09:56:12.842Z</time></trkpt><trkpt lat="45.0533367" lon="9.63925"><ele>57.66666666666667</ele><time>2026-04-10T09:56:13.84Z</time></trkpt><trkpt lat="45.0531817" lon="9.6392983"><ele>58.333333333333336</ele><time>2026-04-10T09:56:14.841Z</time></trkpt><trkpt lat="45.053035" lon="9.6393183"><ele>59.0</ele><time>2026-04-10T09:56:15.841Z</time></trkpt><trkpt lat="45.0528783" lon="9.6393117"><ele>59.0</ele><time>2026-04-10T09:56:16.841Z</time></trkpt><trkpt lat="45.05272" lon="9.6392717"><ele>59.0</ele><time>2026-04-10T09:56:17.84Z</time></trkpt><trkpt lat="45.052555" lon="9.6392"><ele>59.0</ele><time>2026-04-10T09:56:18.84Z</time></trkpt><trkpt lat="45.05237" lon="9.6391283"><ele>59.66666666666667</ele><time>2026-04-10T09:56:19.844Z</time></trkpt><trkpt lat="45.0521867" lon="9.6390667"><ele>60.33333333333333</ele><time>2026-04-10T09:56:20.84Z</time></trkpt><trkpt lat="45.0520033" lon="9.6390233"><ele>61.0</ele><time>2026-04-10T09:56:21.841Z</time></trkpt><trkpt lat="45.051815" lon="9.6390067"><ele>61.0</ele><time>2026-04-10T09:56:22.84Z</time></trkpt><trkpt lat="45.051625" lon="9.6389983"><ele>61.0</ele><time>2026-04-10T09:56:23.842Z</time></trkpt><trkpt lat="45.0514383" lon="9.6389833"><ele>61.0</ele><time>2026-04-10T09:56:24.841Z</time></trkpt><trkpt lat="45.05125" lon="9.6389717"><ele>60.0</ele><time>2026-04-10T09:56:25.842Z</time></trkpt><trkpt lat="45.0510667" lon="9.6389467"><ele>59.0</ele><time>2026-04-10T09:56:26.843Z</time></trkpt><trkpt lat="45.05089" lon="9.6388967"><ele>58.0</ele><time>2026-04-10T09:56:27.841Z</time></trkpt><trkpt lat="45.0507167" lon="9.63882"><ele>58.0</ele><time>2026-04-10T09:56:28.84Z</time></trkpt><trkpt lat="45.0505467" lon="9.6387167"><ele>58.0</ele><time>2026-04-10T09:56:29.841Z</time></trkpt><trkpt lat="45.050375" lon="9.6386283"><ele>58.0</ele><time>2026-04-10T09:56:30.84Z</time></trkpt><trkpt lat="45.0501983" lon="9.638575"><ele>57.33333333333333</ele><time>2026-04-10T09:56:31.841Z</time></trkpt><trkpt lat="45.05002" lon="9.63855"><ele>56.66666666666667</ele><time>2026-04-10T09:56:32.841Z</time></trkpt><trkpt lat="45.0498383" lon="9.638545"><ele>56.0</ele><time>2026-04-10T09:56:33.842Z</time></trkpt><trkpt lat="45.0496567" lon="9.6385517"><ele>56.0</ele><time>2026-04-10T09:56:34.845Z</time></trkpt><trkpt lat="45.049475" lon="9.6385783"><ele>56.0</ele><time>2026-04-10T09:56:35.84Z</time></trkpt><trkpt lat="45.0493" lon="9.63863"><ele>56.0</ele><time>2026-04-10T09:56:36.844Z</time></trkpt><trkpt lat="45.049115" lon="9.6387183"><ele>56.0</ele><time>2026-04-10T09:56:37.84Z</time></trkpt><trkpt lat="45.0489383" lon="9.63879"><ele>56.0</ele><time>2026-04-10T09:56:38.841Z</time></trkpt><trkpt lat="45.04876" lon="9.63885"><ele>56.0</ele><time>2026-04-10T09:56:39.844Z</time></trkpt><trkpt lat="45.04858" lon="9.6388833"><ele>56.0</ele><time>2026-04-10T09:56:40.843Z</time></trkpt><trkpt lat="45.0484033" lon="9.6388967"><ele>56.0</ele><time>2026-04-10T09:56:41.846Z</time></trkpt><trkpt lat="45.04823" lon="9.63887"><ele>56.0</ele><time>2026-04-10T09:56:42.85Z</time></trkpt><trkpt lat="45.04806" lon="9.638825"><ele>57.0</ele><time>2026-04-10T09:56:43.851Z</time></trkpt><trkpt lat="45.047895" lon="9.6387717"><ele>58.0</ele><time>2026-04-10T09:56:44.85Z</time></trkpt><trkpt lat="45.0477317" lon="9.6387233"><ele>59.0</ele><time>2026-04-10T09:56:45.846Z</time></trkpt><trkpt lat="45.0475667" lon="9.638665"><ele>59.0</ele><time>2026-04-10T09:56:46.842Z</time></trkpt><trkpt lat="45.0473983" lon="9.6386033"><ele>59.0</ele><time>2026-04-10T09:56:47.841Z</time></trkpt><trkpt lat="45.04723" lon="9.6385467"><ele>59.0</ele><time>2026-04-10T09:56:48.844Z</time></trkpt><trkpt lat="45.047065" lon="9.6384883"><ele>59.0</ele><time>2026-04-10T09:56:49.843Z</time></trkpt><trkpt lat="45.046905" lon="9.6384417"><ele>59.0</ele><time>2026-04-10T09:56:50.846Z</time></trkpt><trkpt lat="45.0467417" lon="9.63841"><ele>59.0</ele><time>2026-04-10T09:56:51.839Z</time></trkpt><trkpt lat="45.04658" lon="9.6383817"><ele>59.333333333333336</ele><time>2026-04-10T09:56:52.847Z</time></trkpt><trkpt lat="45.04642" lon="9.63835"><ele>59.66666666666667</ele><time>2026-04-10T09:56:53.839Z</time></trkpt><trkpt lat="45.046255" lon="9.63832"><ele>60.0</ele><time>2026-04-10T09:56:54.841Z</time></trkpt><trkpt lat="45.04609" lon="9.638295"><ele>60.0</ele><time>2026-04-10T09:56:55.843Z</time></trkpt><trkpt lat="45.045915" lon="9.63827"><ele>60.0</ele><time>2026-04-10T09:56:56.841Z</time></trkpt><trkpt lat="45.0457417" lon="9.6382483"><ele>60.0</ele><time>2026-04-10T09:56:57.849Z</time></trkpt><trkpt lat="45.0455667" lon="9.6382233"><ele>60.33333333333333</ele><time>2026-04-10T09:56:58.846Z</time></trkpt><trkpt lat="45.0453867" lon="9.6381933"><ele>60.666666666666664</ele><time>2026-04-10T09:56:59.844Z</time></trkpt><trkpt lat="45.0452117" lon="9.638155"><ele>61.0</ele><time>2026-04-10T09:57:00.846Z</time></trkpt><trkpt lat="45.04504" lon="9.63812"><ele>60.33333333333333</ele><time>2026-04-10T09:57:01.847Z</time></trkpt><trkpt lat="45.0448683" lon="9.6380833"><ele>59.66666666666667</ele><time>2026-04-10T09:57:02.848Z</time></trkpt><trkpt lat="45.044695" lon="9.6380483"><ele>59.0</ele><time>2026-04-10T09:57:03.847Z</time></trkpt><trkpt lat="45.0445133" lon="9.638015"><ele>59.0</ele><time>2026-04-10T09:57:04.847Z</time></trkpt><trkpt lat="45.044325" lon="9.6379767"><ele>59.0</ele><time>2026-04-10T09:57:05.841Z</time></trkpt><trkpt lat="45.0441367" lon="9.6379433"><ele>59.0</ele><time>2026-04-10T09:57:06.844Z</time></trkpt><trkpt lat="45.0439517" lon="9.6379"><ele>59.333333333333336</ele><time>2026-04-10T09:57:07.847Z</time></trkpt><trkpt lat="45.0437667" lon="9.6378517"><ele>59.66666666666667</ele><time>2026-04-10T09:57:08.847Z</time></trkpt><trkpt lat="45.0435833" lon="9.6378"><ele>60.0</ele><time>2026-04-10T09:57:09.844Z</time></trkpt><trkpt lat="45.0433983" lon="9.637735"><ele>60.33333333333333</ele><time>2026-04-10T09:57:10.843Z</time></trkpt><trkpt lat="45.043215" lon="9.6376583"><ele>60.666666666666664</ele><time>2026-04-10T09:57:11.845Z</time></trkpt><trkpt lat="45.0430333" lon="9.6375733"><ele>61.0</ele><time>2026-04-10T09:57:12.85Z</time></trkpt><trkpt lat="45.042855" lon="9.637475"><ele>61.0</ele><time>2026-04-10T09:57:13.848Z</time></trkpt><trkpt lat="45.0426867" lon="9.637355"><ele>61.0</ele><time>2026-04-10T09:57:14.849Z</time></trkpt><trkpt lat="45.0425233" lon="9.6372283"><ele>61.0</ele><time>2026-04-10T09:57:15.842Z</time></trkpt><trkpt lat="45.0423533" lon="9.6371167"><ele>61.0</ele><time>2026-04-10T09:57:16.849Z</time></trkpt><trkpt lat="45.0421717" lon="9.6370267"><ele>61.0</ele><time>2026-04-10T09:57:17.848Z</time></trkpt><trkpt lat="45.04199" lon="9.63694"><ele>61.0</ele><time>2026-04-10T09:57:18.845Z</time></trkpt><trkpt lat="45.0418067" lon="9.6368583"><ele>61.33333333333333</ele><time>2026-04-10T09:57:19.847Z</time></trkpt><trkpt lat="45.0416217" lon="9.636775"><ele>61.66666666666667</ele><time>2026-04-10T09:57:20.841Z</time></trkpt><trkpt lat="45.0414367" lon="9.6366867"><ele>62.0</ele><time>2026-04-10T09:57:21.844Z</time></trkpt><trkpt lat="45.041255" lon="9.6365967"><ele>62.0</ele><time>2026-04-10T09:57:22.846Z</time></trkpt><trkpt lat="45.0410667" lon="9.63651"><ele>62.0</ele><time>2026-04-10T09:57:23.853Z</time></trkpt><trkpt lat="45.0408783" lon="9.6364333"><ele>62.0</ele><time>2026-04-10T09:57:24.85Z</time></trkpt><trkpt lat="45.0406933" lon="9.63635"><ele>62.0</ele><time>2026-04-10T09:57:25.84Z</time></trkpt><trkpt lat="45.0405067" lon="9.6362667"><ele>62.0</ele><time>2026-04-10T09:57:26.852Z</time></trkpt><trkpt lat="45.0403283" lon="9.6361867"><ele>62.0</ele><time>2026-04-10T09:57:27.848Z</time></trkpt><trkpt lat="45.0401567" lon="9.63611"><ele>62.0</ele><time>2026-04-10T09:57:28.845Z</time></trkpt><trkpt lat="45.03998" lon="9.6360317"><ele>62.0</ele><time>2026-04-10T09:57:29.849Z</time></trkpt><trkpt lat="45.0397967" lon="9.6359517"><ele>62.0</ele><time>2026-04-10T09:57:30.846Z</time></trkpt><trkpt lat="45.0396117" lon="9.63587"><ele>62.0</ele><time>2026-04-10T09:57:31.84Z</time></trkpt><trkpt lat="45.039425" lon="9.6357867"><ele>62.0</ele><time>2026-04-10T09:57:32.839Z</time></trkpt><trkpt lat="45.03924" lon="9.635695"><ele>62.0</ele><time>2026-04-10T09:57:33.84Z</time></trkpt><trkpt lat="45.039075" lon="9.6356117"><ele>63.0</ele><time>2026-04-10T09:57:34.842Z</time></trkpt><trkpt lat="45.0387583" lon="9.635485"><ele>64.0</ele><time>2026-04-10T09:57:36.841Z</time></trkpt><trkpt lat="45.0386117" lon="9.6354233"><ele>64.0</ele><time>2026-04-10T09:57:37.843Z</time></trkpt><trkpt lat="45.0384383" lon="9.6353683"><ele>64.0</ele><time>2026-04-10T09:57:38.845Z</time></trkpt><trkpt lat="45.038275" lon="9.6352933"><ele>64.0</ele><time>2026-04-10T09:57:39.842Z</time></trkpt><trkpt lat="45.038125" lon="9.635225"><ele>63.5</ele><time>2026-04-10T09:57:40.841Z</time></trkpt><trkpt lat="45.03799" lon="9.63516"><ele>63.0</ele><time>2026-04-10T09:57:41.841Z</time></trkpt><trkpt lat="45.037875" lon="9.6350883"><ele>62.5</ele><time>2026-04-10T09:57:42.841Z</time></trkpt><trkpt lat="45.0377833" lon="9.6350033"><ele>62.0</ele><time>2026-04-10T09:57:43.841Z</time></trkpt><trkpt lat="45.037735" lon="9.6348833"><ele>62.0</ele><time>2026-04-10T09:57:44.843Z</time></trkpt><trkpt lat="45.0377217" lon="9.63472"><ele>62.0</ele><time>2026-04-10T09:57:45.847Z</time></trkpt><trkpt lat="45.0377167" lon="9.6345567"><ele>62.0</ele><time>2026-04-10T09:57:46.84Z</time></trkpt><trkpt lat="45.0376967" lon="9.634425"><ele>62.0</ele><time>2026-04-10T09:57:47.84Z</time></trkpt><trkpt lat="45.0376533" lon="9.6343367"><ele>62.0</ele><time>2026-04-10T09:57:48.842Z</time></trkpt><trkpt lat="45.0375583" lon="9.6343233"><ele>62.25</ele><time>2026-04-10T09:57:49.841Z</time></trkpt><trkpt lat="45.0374417" lon="9.6343317"><ele>62.5</ele><time>2026-04-10T09:57:50.841Z</time></trkpt><trkpt lat="45.0373033" lon="9.6343467"><ele>62.75</ele><time>2026-04-10T09:57:51.84Z</time></trkpt><trkpt lat="45.0371483" lon="9.6343667"><ele>63.0</ele><time>2026-04-10T09:57:52.841Z</time></trkpt><trkpt lat="45.0369783" lon="9.6343883"><ele>63.0</ele><time>2026-04-10T09:57:53.841Z</time></trkpt><trkpt lat="45.0368" lon="9.634415"><ele>63.0</ele><time>2026-04-10T09:57:54.841Z</time></trkpt><trkpt lat="45.0366133" lon="9.6344433"><ele>63.0</ele><time>2026-04-10T09:57:55.84Z</time></trkpt><trkpt lat="45.03642" lon="9.6344683"><ele>64.0</ele><time>2026-04-10T09:57:56.84Z</time></trkpt><trkpt lat="45.03622" lon="9.6344933"><ele>65.0</ele><time>2026-04-10T09:57:57.841Z</time></trkpt><trkpt lat="45.03602" lon="9.6345167"><ele>66.0</ele><time>2026-04-10T09:57:58.839Z</time></trkpt><trkpt lat="45.0358217" lon="9.634545"><ele>65.33333333333333</ele><time>2026-04-10T09:57:59.839Z</time></trkpt><trkpt lat="45.0356217" lon="9.6345733"><ele>64.66666666666666</ele><time>2026-04-10T09:58:00.844Z</time></trkpt><trkpt lat="45.0354283" lon="9.6345983"><ele>64.0</ele><time>2026-04-10T09:58:01.839Z</time></trkpt><trkpt lat="45.03525" lon="9.63462"><ele>64.0</ele><time>2026-04-10T09:58:02.84Z</time></trkpt><trkpt lat="45.0350833" lon="9.6346367"><ele>64.0</ele><time>2026-04-10T09:58:03.84Z</time></trkpt><trkpt lat="45.0349267" lon="9.6346533"><ele>64.0</ele><time>2026-04-10T09:58:04.839Z</time></trkpt><trkpt lat="45.03479" lon="9.6346717"><ele>64.4</ele><time>2026-04-10T09:58:05.84Z</time></trkpt><trkpt lat="45.0346833" lon="9.6346883"><ele>64.80000000000001</ele><time>2026-04-10T09:58:06.841Z</time></trkpt><trkpt lat="45.0346117" lon="9.634695"><ele>65.19999999999999</ele><time>2026-04-10T09:58:07.839Z</time></trkpt><trkpt lat="45.0345217" lon="9.6346667"><ele>65.6</ele><time>2026-04-10T09:58:09.84Z</time></trkpt><trkpt lat="45.0344483" lon="9.6345133"><ele>66.0</ele><time>2026-04-10T09:58:11.84Z</time></trkpt><trkpt lat="45.0344083" lon="9.6343917"><ele>66.0</ele><time>2026-04-10T09:58:12.84Z</time></trkpt><trkpt lat="45.034355" lon="9.6342383"><ele>66.0</ele><time>2026-04-10T09:58:13.84Z</time></trkpt><trkpt lat="45.0342967" lon="9.6340633"><ele>66.0</ele><time>2026-04-10T09:58:14.842Z</time></trkpt><trkpt lat="45.0342317" lon="9.6338683"><ele>66.0</ele><time>2026-04-10T09:58:15.841Z</time></trkpt><trkpt lat="45.03416" lon="9.633655"><ele>65.66666666666667</ele><time>2026-04-10T09:58:16.84Z</time></trkpt><trkpt lat="45.03408" lon="9.6334317"><ele>65.33333333333334</ele><time>2026-04-10T09:58:17.84Z</time></trkpt><trkpt lat="45.0339967" lon="9.6332033"><ele>65.0</ele><time>2026-04-10T09:58:18.84Z</time></trkpt><trkpt lat="45.0339083" lon="9.6329633"><ele>65.33333333333334</ele><time>2026-04-10T09:58:19.84Z</time></trkpt><trkpt lat="45.0338217" lon="9.6327167"><ele>65.66666666666667</ele><time>2026-04-10T09:58:20.84Z</time></trkpt><trkpt lat="45.033735" lon="9.632465"><ele>66.0</ele><time>2026-04-10T09:58:21.84Z</time></trkpt><trkpt lat="45.033645" lon="9.6322117"><ele>66.0</ele><time>2026-04-10T09:58:22.844Z</time></trkpt><trkpt lat="45.033555" lon="9.631955"><ele>66.0</ele><time>2026-04-10T09:58:23.846Z</time></trkpt><trkpt lat="45.0334617" lon="9.6316983"><ele>66.0</ele><time>2026-04-10T09:58:24.843Z</time></trkpt><trkpt lat="45.0333683" lon="9.6314417"><ele>66.0</ele><time>2026-04-10T09:58:25.84Z</time></trkpt><trkpt lat="45.0332767" lon="9.6311833"><ele>66.0</ele><time>2026-04-10T09:58:26.84Z</time></trkpt><trkpt lat="45.033185" lon="9.6309217"><ele>66.0</ele><time>2026-04-10T09:58:27.839Z</time></trkpt><trkpt lat="45.0330983" lon="9.6306617"><ele>66.0</ele><time>2026-04-10T09:58:28.84Z</time></trkpt><trkpt lat="45.0330117" lon="9.6304033"><ele>66.0</ele><time>2026-04-10T09:58:29.84Z</time></trkpt><trkpt lat="45.032925" lon="9.630145"><ele>66.0</ele><time>2026-04-10T09:58:30.844Z</time></trkpt><trkpt lat="45.032835" lon="9.629885"><ele>66.0</ele><time>2026-04-10T09:58:31.843Z</time></trkpt><trkpt lat="45.0327433" lon="9.6296317"><ele>66.0</ele><time>2026-04-10T09:58:32.842Z</time></trkpt><trkpt lat="45.03265" lon="9.629375"><ele>66.0</ele><time>2026-04-10T09:58:33.841Z</time></trkpt><trkpt lat="45.0325583" lon="9.6291183"><ele>66.33333333333333</ele><time>2026-04-10T09:58:34.84Z</time></trkpt><trkpt lat="45.0324683" lon="9.6288617"><ele>66.66666666666666</ele><time>2026-04-10T09:58:35.839Z</time></trkpt><trkpt lat="45.03238" lon="9.6286083"><ele>67.0</ele><time>2026-04-10T09:58:36.84Z</time></trkpt><trkpt lat="45.0322933" lon="9.628365"><ele>67.0</ele><time>2026-04-10T09:58:37.84Z</time></trkpt><trkpt lat="45.0322033" lon="9.6281267"><ele>67.0</ele><time>2026-04-10T09:58:38.841Z</time></trkpt><trkpt lat="45.0321217" lon="9.627895"><ele>67.0</ele><time>2026-04-10T09:58:39.846Z</time></trkpt><trkpt lat="45.0320517" lon="9.627675"><ele>67.0</ele><time>2026-04-10T09:58:40.839Z</time></trkpt><trkpt lat="45.032" lon="9.6274483"><ele>67.0</ele><time>2026-04-10T09:58:41.841Z</time></trkpt><trkpt lat="45.03196" lon="9.62722"><ele>67.0</ele><time>2026-04-10T09:58:42.841Z</time></trkpt><trkpt lat="45.0319283" lon="9.6270033"><ele>66.75</ele><time>2026-04-10T09:58:43.843Z</time></trkpt><trkpt lat="45.0319117" lon="9.6268"><ele>66.5</ele><time>2026-04-10T09:58:44.84Z</time></trkpt><trkpt lat="45.0319" lon="9.6266117"><ele>66.25</ele><time>2026-04-10T09:58:45.844Z</time></trkpt><trkpt lat="45.0318867" lon="9.6264483"><ele>66.0</ele><time>2026-04-10T09:58:46.845Z</time></trkpt><trkpt lat="45.0318583" lon="9.6263067"><ele>66.0</ele><time>2026-04-10T09:58:47.84Z</time></trkpt><trkpt lat="45.03181" lon="9.6261933"><ele>66.0</ele><time>2026-04-10T09:58:48.84Z</time></trkpt><trkpt lat="45.0317383" lon="9.626105"><ele>66.0</ele><time>2026-04-10T09:58:49.84Z</time></trkpt><trkpt lat="45.0316517" lon="9.62602"><ele>66.0</ele><time>2026-04-10T09:58:50.84Z</time></trkpt><trkpt lat="45.0315517" lon="9.62592"><ele>66.0</ele><time>2026-04-10T09:58:51.84Z</time></trkpt><trkpt lat="45.0314467" lon="9.625805"><ele>66.66666666666667</ele><time>2026-04-10T09:58:52.84Z</time></trkpt><trkpt lat="45.0313517" lon="9.625665"><ele>67.33333333333334</ele><time>2026-04-10T09:58:53.84Z</time></trkpt><trkpt lat="45.03127" lon="9.6254683"><ele>68.0</ele><time>2026-04-10T09:58:54.842Z</time></trkpt><trkpt lat="45.0311933" lon="9.6252483"><ele>68.0</ele><time>2026-04-10T09:58:55.839Z</time></trkpt><trkpt lat="45.0311183" lon="9.6250233"><ele>68.0</ele><time>2026-04-10T09:58:56.84Z</time></trkpt><trkpt lat="45.0310383" lon="9.62479"><ele>68.0</ele><time>2026-04-10T09:58:57.84Z</time></trkpt><trkpt lat="45.0309567" lon="9.62455"><ele>68.0</ele><time>2026-04-10T09:58:58.839Z</time></trkpt><trkpt lat="45.0308683" lon="9.6243033"><ele>68.0</ele><time>2026-04-10T09:58:59.841Z</time></trkpt><trkpt lat="45.03078" lon="9.6240517"><ele>68.0</ele><time>2026-04-10T09:59:00.84Z</time></trkpt><trkpt lat="45.030695" lon="9.6238133"><ele>68.0</ele><time>2026-04-10T09:59:01.843Z</time></trkpt><trkpt lat="45.0306183" lon="9.6236017"><ele>68.0</ele><time>2026-04-10T09:59:02.842Z</time></trkpt><trkpt lat="45.0305433" lon="9.6234283"><ele>68.0</ele><time>2026-04-10T09:59:03.84Z</time></trkpt><trkpt lat="45.030455" lon="9.6233"><ele>68.0</ele><time>2026-04-10T09:59:04.839Z</time></trkpt><trkpt lat="45.0303633" lon="9.6231883"><ele>68.0</ele><time>2026-04-10T09:59:05.842Z</time></trkpt><trkpt lat="45.0302833" lon="9.6230583"><ele>68.0</ele><time>2026-04-10T09:59:06.84Z</time></trkpt><trkpt lat="45.03022" lon="9.6228867"><ele>68.0</ele><time>2026-04-10T09:59:07.84Z</time></trkpt><trkpt lat="45.030155" lon="9.6227"><ele>68.0</ele><time>2026-04-10T09:59:08.85Z</time></trkpt><trkpt lat="45.0300867" lon="9.6225083"><ele>68.5</ele><time>2026-04-10T09:59:09.84Z</time></trkpt><trkpt lat="45.0300267" lon="9.622315"><ele>69.0</ele><time>2026-04-10T09:59:10.841Z</time></trkpt><trkpt lat="45.0299783" lon="9.6221233"><ele>69.5</ele><time>2026-04-10T09:59:11.84Z</time></trkpt><trkpt lat="45.0299267" lon="9.621925"><ele>70.0</ele><time>2026-04-10T09:59:12.839Z</time></trkpt><trkpt lat="45.029865" lon="9.6217233"><ele>70.0</ele><time>2026-04-10T09:59:13.842Z</time></trkpt><trkpt lat="45.0297983" lon="9.6215333"><ele>70.0</ele><time>2026-04-10T09:59:14.841Z</time></trkpt><trkpt lat="45.029735" lon="9.6213733"><ele>70.0</ele><time>2026-04-10T09:59:15.841Z</time></trkpt><trkpt lat="45.0296633" lon="9.6212417"><ele>70.0</ele><time>2026-04-10T09:59:16.839Z</time></trkpt><trkpt lat="45.0295683" lon="9.6211267"><ele>70.0</ele><time>2026-04-10T09:59:17.841Z</time></trkpt><trkpt lat="45.0294517" lon="9.6210217"><ele>70.0</ele><time>2026-04-10T09:59:18.842Z</time></trkpt><trkpt lat="45.0293167" lon="9.62093"><ele>70.0</ele><time>2026-04-10T09:59:19.839Z</time></trkpt><trkpt lat="45.0291733" lon="9.6208483"><ele>70.0</ele><time>2026-04-10T09:59:20.843Z</time></trkpt><trkpt lat="45.0290217" lon="9.6207667"><ele>70.0</ele><time>2026-04-10T09:59:21.841Z</time></trkpt><trkpt lat="45.028875" lon="9.6206917"><ele>70.0</ele><time>2026-04-10T09:59:22.84Z</time></trkpt><trkpt lat="45.028735" lon="9.6206317"><ele>70.0</ele><time>2026-04-10T09:59:23.841Z</time></trkpt><trkpt lat="45.0285967" lon="9.620585"><ele>70.0</ele><time>2026-04-10T09:59:24.839Z</time></trkpt><trkpt lat="45.0284483" lon="9.620545"><ele>71.0</ele><time>2026-04-10T09:59:25.841Z</time></trkpt><trkpt lat="45.02828" lon="9.6205133"><ele>72.0</ele><time>2026-04-10T09:59:26.843Z</time></trkpt><trkpt lat="45.0281033" lon="9.6204833"><ele>73.0</ele><time>2026-04-10T09:59:27.847Z</time></trkpt><trkpt lat="45.0279117" lon="9.6204483"><ele>73.0</ele><time>2026-04-10T09:59:28.84Z</time></trkpt><trkpt lat="45.0277183" lon="9.6204133"><ele>73.0</ele><time>2026-04-10T09:59:29.842Z</time></trkpt><trkpt lat="45.027525" lon="9.6203817"><ele>73.0</ele><time>2026-04-10T09:59:30.841Z</time></trkpt><trkpt lat="45.02733" lon="9.6203517"><ele>72.66666666666666</ele><time>2026-04-10T09:59:31.841Z</time></trkpt><trkpt lat="45.027135" lon="9.6203267"><ele>72.33333333333333</ele><time>2026-04-10T09:59:32.844Z</time></trkpt><trkpt lat="45.0269367" lon="9.6203083"><ele>72.0</ele><time>2026-04-10T09:59:33.841Z</time></trkpt><trkpt lat="45.0267383" lon="9.6203033"><ele>71.66666666666667</ele><time>2026-04-10T09:59:34.84Z</time></trkpt><trkpt lat="45.0265417" lon="9.62031"><ele>71.33333333333334</ele><time>2026-04-10T09:59:35.841Z</time></trkpt><trkpt lat="45.0263433" lon="9.6203167"><ele>71.0</ele><time>2026-04-10T09:59:36.841Z</time></trkpt><trkpt lat="45.02615" lon="9.62033"><ele>71.0</ele><time>2026-04-10T09:59:37.845Z</time></trkpt><trkpt lat="45.0259717" lon="9.620345"><ele>71.0</ele><time>2026-04-10T09:59:38.842Z</time></trkpt><trkpt lat="45.0258067" lon="9.6203533"><ele>71.0</ele><time>2026-04-10T09:59:39.842Z</time></trkpt><trkpt lat="45.0256483" lon="9.62033"><ele>70.66666666666667</ele><time>2026-04-10T09:59:40.84Z</time></trkpt><trkpt lat="45.0254883" lon="9.6202617"><ele>70.33333333333333</ele><time>2026-04-10T09:59:41.841Z</time></trkpt><trkpt lat="45.0253267" lon="9.62015"><ele>70.0</ele><time>2026-04-10T09:59:42.845Z</time></trkpt><trkpt lat="45.0251517" lon="9.62002"><ele>71.0</ele><time>2026-04-10T09:59:43.842Z</time></trkpt><trkpt lat="45.0249667" lon="9.6198933"><ele>72.0</ele><time>2026-04-10T09:59:44.841Z</time></trkpt><trkpt lat="45.02478" lon="9.6197717"><ele>73.0</ele><time>2026-04-10T09:59:45.844Z</time></trkpt><trkpt lat="45.0245917" lon="9.6196517"><ele>73.0</ele><time>2026-04-10T09:59:46.842Z</time></trkpt><trkpt lat="45.0244033" lon="9.619535"><ele>73.0</ele><time>2026-04-10T09:59:47.842Z</time></trkpt><trkpt lat="45.0242117" lon="9.6194183"><ele>73.0</ele><time>2026-04-10T09:59:48.841Z</time></trkpt><trkpt lat="45.0240183" lon="9.6193017"><ele>72.33333333333333</ele><time>2026-04-10T09:59:49.84Z</time></trkpt><trkpt lat="45.023825" lon="9.6191783"><ele>71.66666666666667</ele><time>2026-04-10T09:59:50.843Z</time></trkpt><trkpt lat="45.0236333" lon="9.6190517"><ele>71.0</ele><time>2026-04-10T09:59:51.84Z</time></trkpt><trkpt lat="45.02344" lon="9.6189233"><ele>72.0</ele><time>2026-04-10T09:59:52.84Z</time></trkpt><trkpt lat="45.02325" lon="9.618795"><ele>73.0</ele><time>2026-04-10T09:59:53.841Z</time></trkpt><trkpt lat="45.023065" lon="9.61867"><ele>74.0</ele><time>2026-04-10T09:59:54.841Z</time></trkpt><trkpt lat="45.0228867" lon="9.6185617"><ele>74.0</ele><time>2026-04-10T09:59:55.841Z</time></trkpt><trkpt lat="45.0227067" lon="9.6184817"><ele>74.0</ele><time>2026-04-10T09:59:56.844Z</time></trkpt><trkpt lat="45.0225183" lon="9.6184383"><ele>74.0</ele><time>2026-04-10T09:59:57.841Z</time></trkpt><trkpt lat="45.022325" lon="9.61842"><ele>74.0</ele><time>2026-04-10T09:59:58.84Z</time></trkpt><trkpt lat="45.0221267" lon="9.6184133"><ele>74.0</ele><time>2026-04-10T09:59:59.842Z</time></trkpt><trkpt lat="45.021925" lon="9.6184083"><ele>74.0</ele><time>2026-04-10T10:00:00.842Z</time></trkpt><trkpt lat="45.0217267" lon="9.6184"><ele>73.33333333333334</ele><time>2026-04-10T10:00:01.845Z</time></trkpt><trkpt lat="45.021535" lon="9.61839"><ele>72.66666666666667</ele><time>2026-04-10T10:00:02.842Z</time></trkpt><trkpt lat="45.02135" lon="9.61838"><ele>72.0</ele><time>2026-04-10T10:00:03.842Z</time></trkpt><trkpt lat="45.0211717" lon="9.6183717"><ele>72.0</ele><time>2026-04-10T10:00:04.841Z</time></trkpt><trkpt lat="45.021005" lon="9.618365"><ele>72.0</ele><time>2026-04-10T10:00:05.842Z</time></trkpt><trkpt lat="45.0208467" lon="9.6183567"><ele>72.0</ele><time>2026-04-10T10:00:06.842Z</time></trkpt><trkpt lat="45.0206917" lon="9.61835"><ele>73.33333333333333</ele><time>2026-04-10T10:00:07.843Z</time></trkpt><trkpt lat="45.0205367" lon="9.6183433"><ele>74.66666666666666</ele><time>2026-04-10T10:00:08.841Z</time></trkpt><trkpt lat="45.0203767" lon="9.61835"><ele>76.0</ele><time>2026-04-10T10:00:09.84Z</time></trkpt><trkpt lat="45.020215" lon="9.618375"><ele>76.0</ele><time>2026-04-10T10:00:10.844Z</time></trkpt><trkpt lat="45.0200533" lon="9.6184067"><ele>76.0</ele><time>2026-04-10T10:00:11.843Z</time></trkpt><trkpt lat="45.0198917" lon="9.6184217"><ele>76.0</ele><time>2026-04-10T10:00:12.846Z</time></trkpt><trkpt lat="45.0197267" lon="9.6183983"><ele>75.33333333333333</ele><time>2026-04-10T10:00:13.841Z</time></trkpt><trkpt lat="45.0195533" lon="9.6183483"><ele>74.66666666666667</ele><time>2026-04-10T10:00:14.841Z</time></trkpt><trkpt lat="45.0193667" lon="9.6182867"><ele>74.0</ele><time>2026-04-10T10:00:15.842Z</time></trkpt><trkpt lat="45.0191733" lon="9.618215"><ele>73.66666666666667</ele><time>2026-04-10T10:00:16.841Z</time></trkpt><trkpt lat="45.0189767" lon="9.6181333"><ele>73.33333333333333</ele><time>2026-04-10T10:00:17.845Z</time></trkpt><trkpt lat="45.01878" lon="9.61805"><ele>73.0</ele><time>2026-04-10T10:00:18.841Z</time></trkpt><trkpt lat="45.0185833" lon="9.6179717"><ele>73.0</ele><time>2026-04-10T10:00:19.84Z</time></trkpt><trkpt lat="45.0183817" lon="9.6178967"><ele>73.0</ele><time>2026-04-10T10:00:20.842Z</time></trkpt><trkpt lat="45.018185" lon="9.61782"><ele>73.0</ele><time>2026-04-10T10:00:21.842Z</time></trkpt><trkpt lat="45.01799" lon="9.617745"><ele>73.0</ele><time>2026-04-10T10:00:22.841Z</time></trkpt><trkpt lat="45.0177967" lon="9.6176717"><ele>73.0</ele><time>2026-04-10T10:00:23.841Z</time></trkpt><trkpt lat="45.017605" lon="9.6175983"><ele>73.0</ele><time>2026-04-10T10:00:24.842Z</time></trkpt><trkpt lat="45.017415" lon="9.6175217"><ele>73.66666666666666</ele><time>2026-04-10T10:00:25.842Z</time></trkpt><trkpt lat="45.017225" lon="9.6174417"><ele>74.33333333333333</ele><time>2026-04-10T10:00:26.842Z</time></trkpt><trkpt lat="45.017035" lon="9.6173633"><ele>75.0</ele><time>2026-04-10T10:00:27.841Z</time></trkpt><trkpt lat="45.016845" lon="9.6172867"><ele>75.0</ele><time>2026-04-10T10:00:28.842Z</time></trkpt><trkpt lat="45.0166533" lon="9.6172083"><ele>75.0</ele><time>2026-04-10T10:00:29.845Z</time></trkpt><trkpt lat="45.01646" lon="9.6171283"><ele>75.0</ele><time>2026-04-10T10:00:30.842Z</time></trkpt><trkpt lat="45.0162683" lon="9.6170483"><ele>75.0</ele><time>2026-04-10T10:00:31.84Z</time></trkpt><trkpt lat="45.0160733" lon="9.6169683"><ele>75.0</ele><time>2026-04-10T10:00:32.842Z</time></trkpt><trkpt lat="45.0158767" lon="9.6168883"><ele>75.0</ele><time>2026-04-10T10:00:33.841Z</time></trkpt><trkpt lat="45.0156783" lon="9.6168083"><ele>75.0</ele><time>2026-04-10T10:00:34.843Z</time></trkpt><trkpt lat="45.0154817" lon="9.6167267"><ele>75.0</ele><time>2026-04-10T10:00:35.841Z</time></trkpt><trkpt lat="45.015285" lon="9.6166467"><ele>75.0</ele><time>2026-04-10T10:00:36.842Z</time></trkpt><trkpt lat="45.0150883" lon="9.6165667"><ele>75.33333333333333</ele><time>2026-04-10T10:00:37.848Z</time></trkpt><trkpt lat="45.01489" lon="9.616485"><ele>75.66666666666666</ele><time>2026-04-10T10:00:38.842Z</time></trkpt><trkpt lat="45.0146933" lon="9.6164067"><ele>76.0</ele><time>2026-04-10T10:00:39.842Z</time></trkpt><trkpt lat="45.0145" lon="9.6163283"><ele>76.0</ele><time>2026-04-10T10:00:40.841Z</time></trkpt><trkpt lat="45.0143117" lon="9.6162517"><ele>76.0</ele><time>2026-04-10T10:00:41.841Z</time></trkpt><trkpt lat="45.0141233" lon="9.61618"><ele>76.0</ele><time>2026-04-10T10:00:42.849Z</time></trkpt><trkpt lat="45.013935" lon="9.616105"><ele>75.66666666666666</ele><time>2026-04-10T10:00:43.84Z</time></trkpt><trkpt lat="45.01375" lon="9.6160317"><ele>75.33333333333333</ele><time>2026-04-10T10:00:44.84Z</time></trkpt><trkpt lat="45.01357" lon="9.6159583"><ele>75.0</ele><time>2026-04-10T10:00:45.84Z</time></trkpt><trkpt lat="45.0133967" lon="9.6158867"><ele>75.0</ele><time>2026-04-10T10:00:46.841Z</time></trkpt><trkpt lat="45.0132183" lon="9.6158133"><ele>75.0</ele><time>2026-04-10T10:00:47.841Z</time></trkpt><trkpt lat="45.0130367" lon="9.6157383"><ele>75.0</ele><time>2026-04-10T10:00:48.845Z</time></trkpt><trkpt lat="45.012855" lon="9.6156633"><ele>75.0</ele><time>2026-04-10T10:00:49.841Z</time></trkpt><trkpt lat="45.01267" lon="9.61559"><ele>75.0</ele><time>2026-04-10T10:00:50.841Z</time></trkpt><trkpt lat="45.012485" lon="9.6155167"><ele>75.0</ele><time>2026-04-10T10:00:51.842Z</time></trkpt><trkpt lat="45.0123" lon="9.6154433"><ele>75.33333333333333</ele><time>2026-04-10T10:00:52.842Z</time></trkpt><trkpt lat="45.0121183" lon="9.6153683"><ele>75.66666666666666</ele><time>2026-04-10T10:00:53.841Z</time></trkpt><trkpt lat="45.0119383" lon="9.6152883"><ele>76.0</ele><time>2026-04-10T10:00:54.84Z</time></trkpt><trkpt lat="45.0117583" lon="9.6152083"><ele>76.66666666666666</ele><time>2026-04-10T10:00:55.842Z</time></trkpt><trkpt lat="45.0115783" lon="9.6151333"><ele>77.33333333333333</ele><time>2026-04-10T10:00:56.842Z</time></trkpt><trkpt lat="45.011395" lon="9.6150617"><ele>78.0</ele><time>2026-04-10T10:00:57.841Z</time></trkpt><trkpt lat="45.0112133" lon="9.6149917"><ele>78.0</ele><time>2026-04-10T10:00:58.841Z</time></trkpt><trkpt lat="45.01103" lon="9.61492"><ele>78.0</ele><time>2026-04-10T10:00:59.841Z</time></trkpt><trkpt lat="45.01085" lon="9.6148483"><ele>78.0</ele><time>2026-04-10T10:01:00.841Z</time></trkpt><trkpt lat="45.0106683" lon="9.6147733"><ele>78.0</ele><time>2026-04-10T10:01:01.842Z</time></trkpt><trkpt lat="45.010485" lon="9.6146983"><ele>78.0</ele><time>2026-04-10T10:01:02.842Z</time></trkpt><trkpt lat="45.0102983" lon="9.614625"><ele>78.0</ele><time>2026-04-10T10:01:03.841Z</time></trkpt><trkpt lat="45.0101267" lon="9.614555"><ele>78.33333333333333</ele><time>2026-04-10T10:01:04.841Z</time></trkpt><trkpt lat="45.009975" lon="9.614495"><ele>78.66666666666666</ele><time>2026-04-10T10:01:05.842Z</time></trkpt><trkpt lat="45.009825" lon="9.6144367"><ele>79.0</ele><time>2026-04-10T10:01:06.842Z</time></trkpt><trkpt lat="45.0096733" lon="9.6143783"><ele>79.66666666666666</ele><time>2026-04-10T10:01:07.842Z</time></trkpt><trkpt lat="45.0095167" lon="9.614315"><ele>80.33333333333333</ele><time>2026-04-10T10:01:08.841Z</time></trkpt><trkpt lat="45.0093517" lon="9.6142467"><ele>81.0</ele><time>2026-04-10T10:01:09.842Z</time></trkpt><trkpt lat="45.0091867" lon="9.6141783"><ele>81.25</ele><time>2026-04-10T10:01:10.84Z</time></trkpt><trkpt lat="45.00903" lon="9.61411"><ele>81.5</ele><time>2026-04-10T10:01:11.842Z</time></trkpt><trkpt lat="45.0088867" lon="9.614045"><ele>81.75</ele><time>2026-04-10T10:01:12.842Z</time></trkpt><trkpt lat="45.00876" lon="9.6139867"><ele>82.0</ele><time>2026-04-10T10:01:13.841Z</time></trkpt><trkpt lat="45.0086517" lon="9.6139467"><ele>82.0</ele><time>2026-04-10T10:01:14.841Z</time></trkpt><trkpt lat="45.0085617" lon="9.6139517"><ele>82.0</ele><time>2026-04-10T10:01:15.843Z</time></trkpt><trkpt lat="45.00849" lon="9.6139967"><ele>82.0</ele><time>2026-04-10T10:01:16.843Z</time></trkpt><trkpt lat="45.008455" lon="9.6141133"><ele>82.0</ele><time>2026-04-10T10:01:17.842Z</time></trkpt><trkpt lat="45.0084483" lon="9.61428"><ele>82.0</ele><time>2026-04-10T10:01:18.84Z</time></trkpt><trkpt lat="45.008445" lon="9.6144783"><ele>82.0</ele><time>2026-04-10T10:01:19.841Z</time></trkpt><trkpt lat="45.0084367" lon="9.6146967"><ele>82.0</ele><time>2026-04-10T10:01:20.842Z</time></trkpt><trkpt lat="45.008425" lon="9.6149083"><ele>82.0</ele><time>2026-04-10T10:01:21.84Z</time></trkpt><trkpt lat="45.0084133" lon="9.61508"><ele>82.0</ele><time>2026-04-10T10:01:22.842Z</time></trkpt><trkpt lat="45.0083883" lon="9.6151967"><ele>82.0</ele><time>2026-04-10T10:01:23.843Z</time></trkpt><trkpt lat="45.0083517" lon="9.6152817"><ele>82.0</ele><time>2026-04-10T10:01:24.84Z</time></trkpt><trkpt lat="45.008225" lon="9.6153367"><ele>82.0</ele><time>2026-04-10T10:01:26.843Z</time></trkpt><trkpt lat="45.008145" lon="9.61531"><ele>82.0</ele><time>2026-04-10T10:01:27.842Z</time></trkpt><trkpt lat="45.00804" lon="9.6152567"><ele>82.0</ele><time>2026-04-10T10:01:28.84Z</time></trkpt><trkpt lat="45.007885" lon="9.6151683"><ele>82.33333333333333</ele><time>2026-04-10T10:01:29.842Z</time></trkpt><trkpt lat="45.007735" lon="9.6151033"><ele>82.66666666666667</ele><time>2026-04-10T10:01:30.844Z</time></trkpt><trkpt lat="45.0075783" lon="9.6150533"><ele>83.0</ele><time>2026-04-10T10:01:31.842Z</time></trkpt><trkpt lat="45.007425" lon="9.6150117"><ele>81.66666666666667</ele><time>2026-04-10T10:01:32.843Z</time></trkpt><trkpt lat="45.007275" lon="9.61497"><ele>80.33333333333333</ele><time>2026-04-10T10:01:33.841Z</time></trkpt><trkpt lat="45.0071267" lon="9.6149267"><ele>79.0</ele><time>2026-04-10T10:01:34.841Z</time></trkpt><trkpt lat="45.0069833" lon="9.61489"><ele>79.0</ele><time>2026-04-10T10:01:35.842Z</time></trkpt><trkpt lat="45.00685" lon="9.6148617"><ele>79.0</ele><time>2026-04-10T10:01:36.842Z</time></trkpt><trkpt lat="45.0067317" lon="9.6148367"><ele>79.0</ele><time>2026-04-10T10:01:37.842Z</time></trkpt><trkpt lat="45.0066233" lon="9.614805"><ele>79.0</ele><time>2026-04-10T10:01:38.845Z</time></trkpt><trkpt lat="45.0065217" lon="9.6147733"><ele>79.80000000000001</ele><time>2026-04-10T10:01:39.841Z</time></trkpt><trkpt lat="45.0064283" lon="9.6147783"><ele>80.60000000000001</ele><time>2026-04-10T10:01:40.842Z</time></trkpt><trkpt lat="45.0063283" lon="9.614795"><ele>81.4</ele><time>2026-04-10T10:01:41.841Z</time></trkpt><trkpt lat="45.0062017" lon="9.6148217"><ele>82.2</ele><time>2026-04-10T10:01:42.841Z</time></trkpt><trkpt lat="45.00608" lon="9.61485"><ele>83.0</ele><time>2026-04-10T10:01:43.844Z</time></trkpt><trkpt lat="45.0059583" lon="9.614875"><ele>83.0</ele><time>2026-04-10T10:01:44.841Z</time></trkpt><trkpt lat="45.005845" lon="9.6148867"><ele>83.0</ele><time>2026-04-10T10:01:45.84Z</time></trkpt><trkpt lat="45.0057417" lon="9.6148767"><ele>83.0</ele><time>2026-04-10T10:01:46.84Z</time></trkpt><trkpt lat="45.0056333" lon="9.614845"><ele>83.0</ele><time>2026-04-10T10:01:47.841Z</time></trkpt><trkpt lat="45.0055267" lon="9.6147833"><ele>83.0</ele><time>2026-04-10T10:01:48.841Z</time></trkpt><trkpt lat="45.00541" lon="9.6147017"><ele>83.25</ele><time>2026-04-10T10:01:49.84Z</time></trkpt><trkpt lat="45.0052833" lon="9.6146283"><ele>83.5</ele><time>2026-04-10T10:01:50.842Z</time></trkpt><trkpt lat="45.0051383" lon="9.6145633"><ele>83.75</ele><time>2026-04-10T10:01:51.84Z</time></trkpt><trkpt lat="45.0049867" lon="9.6145033"><ele>84.0</ele><time>2026-04-10T10:01:52.84Z</time></trkpt><trkpt lat="45.0048333" lon="9.61444"><ele>84.66666666666667</ele><time>2026-04-10T10:01:53.841Z</time></trkpt><trkpt lat="45.0046767" lon="9.6143717"><ele>85.33333333333334</ele><time>2026-04-10T10:01:54.841Z</time></trkpt><trkpt lat="45.00453" lon="9.6143067"><ele>86.0</ele><time>2026-04-10T10:01:55.842Z</time></trkpt><trkpt lat="45.0043883" lon="9.6142517"><ele>86.0</ele><time>2026-04-10T10:01:56.843Z</time></trkpt><trkpt lat="45.0042483" lon="9.614195"><ele>86.0</ele><time>2026-04-10T10:01:57.842Z</time></trkpt><trkpt lat="45.00411" lon="9.6141467"><ele>86.0</ele><time>2026-04-10T10:01:58.839Z</time></trkpt><trkpt lat="45.0039717" lon="9.6141083"><ele>86.0</ele><time>2026-04-10T10:01:59.84Z</time></trkpt><trkpt lat="45.0038383" lon="9.6140883"><ele>85.75</ele><time>2026-04-10T10:02:00.841Z</time></trkpt><trkpt lat="45.0037017" lon="9.61408"><ele>85.5</ele><time>2026-04-10T10:02:01.841Z</time></trkpt><trkpt lat="45.0035633" lon="9.6140767"><ele>85.25</ele><time>2026-04-10T10:02:02.841Z</time></trkpt><trkpt lat="45.0034217" lon="9.6140733"><ele>85.0</ele><time>2026-04-10T10:02:03.84Z</time></trkpt><trkpt lat="45.0032783" lon="9.6140717"><ele>85.0</ele><time>2026-04-10T10:02:04.842Z</time></trkpt><trkpt lat="45.0031367" lon="9.614065"><ele>85.0</ele><time>2026-04-10T10:02:05.84Z</time></trkpt><trkpt lat="45.003" lon="9.6140483"><ele>85.0</ele><time>2026-04-10T10:02:06.841Z</time></trkpt><trkpt lat="45.0028667" lon="9.6140217"><ele>85.0</ele><time>2026-04-10T10:02:07.843Z</time></trkpt><trkpt lat="45.0027383" lon="9.61399"><ele>85.0</ele><time>2026-04-10T10:02:08.843Z</time></trkpt><trkpt lat="45.00261" lon="9.613955"><ele>85.0</ele><time>2026-04-10T10:02:09.839Z</time></trkpt><trkpt lat="45.0024833" lon="9.61391"><ele>85.0</ele><time>2026-04-10T10:02:10.845Z</time></trkpt><trkpt lat="45.002355" lon="9.613855"><ele>85.0</ele><time>2026-04-10T10:02:11.84Z</time></trkpt><trkpt lat="45.002215" lon="9.6137933"><ele>85.25</ele><time>2026-04-10T10:02:12.843Z</time></trkpt><trkpt lat="45.0020767" lon="9.613725"><ele>85.5</ele><time>2026-04-10T10:02:13.843Z</time></trkpt><trkpt lat="45.001945" lon="9.6136683"><ele>85.75</ele><time>2026-04-10T10:02:14.84Z</time></trkpt><trkpt lat="45.001815" lon="9.61364"><ele>86.0</ele><time>2026-04-10T10:02:15.84Z</time></trkpt><trkpt lat="45.0016867" lon="9.6136183"><ele>86.0</ele><time>2026-04-10T10:02:16.841Z</time></trkpt><trkpt lat="45.00156" lon="9.6135967"><ele>86.0</ele><time>2026-04-10T10:02:17.842Z</time></trkpt><trkpt lat="45.0014383" lon="9.613575"><ele>86.0</ele><time>2026-04-10T10:02:18.842Z</time></trkpt><trkpt lat="45.0013267" lon="9.6135533"><ele>86.0</ele><time>2026-04-10T10:02:19.84Z</time></trkpt><trkpt lat="45.0012217" lon="9.6135383"><ele>86.0</ele><time>2026-04-10T10:02:20.841Z</time></trkpt><trkpt lat="45.0011133" lon="9.6135233"><ele>86.0</ele><time>2026-04-10T10:02:21.841Z</time></trkpt><trkpt lat="45.0010017" lon="9.6135183"><ele>86.0</ele><time>2026-04-10T10:02:22.84Z</time></trkpt><trkpt lat="45.000885" lon="9.6135133"><ele>86.0</ele><time>2026-04-10T10:02:23.843Z</time></trkpt><trkpt lat="45.00076" lon="9.613515"><ele>86.25</ele><time>2026-04-10T10:02:24.842Z</time></trkpt><trkpt lat="45.0006367" lon="9.61352"><ele>86.5</ele><time>2026-04-10T10:02:25.84Z</time></trkpt><trkpt lat="45.0005167" lon="9.6135317"><ele>86.75</ele><time>2026-04-10T10:02:26.842Z</time></trkpt><trkpt lat="45.0004033" lon="9.6135433"><ele>87.0</ele><time>2026-04-10T10:02:27.844Z</time></trkpt><trkpt lat="45.000285" lon="9.6135667"><ele>87.0</ele><time>2026-04-10T10:02:28.839Z</time></trkpt><trkpt lat="45.0001733" lon="9.6136017"><ele>87.0</ele><time>2026-04-10T10:02:29.841Z</time></trkpt><trkpt lat="45.0000767" lon="9.6136483"><ele>87.0</ele><time>2026-04-10T10:02:30.843Z</time></trkpt><trkpt lat="44.9999833" lon="9.6136817"><ele>87.0</ele><time>2026-04-10T10:02:31.841Z</time></trkpt><trkpt lat="44.999895" lon="9.6136967"><ele>87.0</ele><time>2026-04-10T10:02:32.843Z</time></trkpt><trkpt lat="44.999805" lon="9.6136933"><ele>87.0</ele><time>2026-04-10T10:02:33.841Z</time></trkpt><trkpt lat="44.9997167" lon="9.61368"><ele>87.0</ele><time>2026-04-10T10:02:34.841Z</time></trkpt><trkpt lat="44.999615" lon="9.6136583"><ele>87.0</ele><time>2026-04-10T10:02:35.84Z</time></trkpt><trkpt lat="44.9995067" lon="9.6136233"><ele>87.0</ele><time>2026-04-10T10:02:36.839Z</time></trkpt><trkpt lat="44.999385" lon="9.6135633"><ele>87.0</ele><time>2026-04-10T10:02:37.841Z</time></trkpt><trkpt lat="44.9992533" lon="9.613495"><ele>87.25</ele><time>2026-04-10T10:02:38.841Z</time></trkpt><trkpt lat="44.99912" lon="9.6134283"><ele>87.5</ele><time>2026-04-10T10:02:39.841Z</time></trkpt><trkpt lat="44.9989983" lon="9.613355"><ele>87.75</ele><time>2026-04-10T10:02:40.839Z</time></trkpt><trkpt lat="44.9988817" lon="9.61328"><ele>88.0</ele><time>2026-04-10T10:02:41.843Z</time></trkpt><trkpt lat="44.9987633" lon="9.6132133"><ele>88.0</ele><time>2026-04-10T10:02:42.84Z</time></trkpt><trkpt lat="44.9986383" lon="9.6131483"><ele>88.0</ele><time>2026-04-10T10:02:43.839Z</time></trkpt><trkpt lat="44.99851" lon="9.6130717"><ele>88.0</ele><time>2026-04-10T10:02:44.841Z</time></trkpt><trkpt lat="44.99838" lon="9.6130017"><ele>88.0</ele><time>2026-04-10T10:02:45.84Z</time></trkpt><trkpt lat="44.9982433" lon="9.6129517"><ele>88.0</ele><time>2026-04-10T10:02:46.845Z</time></trkpt><trkpt lat="44.998095" lon="9.6129183"><ele>88.0</ele><time>2026-04-10T10:02:47.84Z</time></trkpt><trkpt lat="44.9979483" lon="9.61292"><ele>88.0</ele><time>2026-04-10T10:02:48.841Z</time></trkpt><trkpt lat="44.9978067" lon="9.6129567"><ele>88.0</ele><time>2026-04-10T10:02:49.842Z</time></trkpt><trkpt lat="44.9976717" lon="9.6130317"><ele>88.0</ele><time>2026-04-10T10:02:50.84Z</time></trkpt><trkpt lat="44.997545" lon="9.6131383"><ele>88.0</ele><time>2026-04-10T10:02:51.84Z</time></trkpt><trkpt lat="44.9974217" lon="9.613285"><ele>88.0</ele><time>2026-04-10T10:02:52.843Z</time></trkpt><trkpt lat="44.9973" lon="9.613455"><ele>88.33333333333333</ele><time>2026-04-10T10:02:53.841Z</time></trkpt><trkpt lat="44.9971767" lon="9.613615"><ele>88.66666666666667</ele><time>2026-04-10T10:02:54.842Z</time></trkpt><trkpt lat="44.99706" lon="9.6137533"><ele>89.0</ele><time>2026-04-10T10:02:55.84Z</time></trkpt><trkpt lat="44.9969567" lon="9.6138867"><ele>89.0</ele><time>2026-04-10T10:02:56.841Z</time></trkpt><trkpt lat="44.996865" lon="9.6140217"><ele>89.0</ele><time>2026-04-10T10:02:57.84Z</time></trkpt><trkpt lat="44.9967683" lon="9.61417"><ele>89.0</ele><time>2026-04-10T10:02:58.841Z</time></trkpt><trkpt lat="44.996665" lon="9.6143283"><ele>89.0</ele><time>2026-04-10T10:02:59.84Z</time></trkpt><trkpt lat="44.9965517" lon="9.614485"><ele>89.0</ele><time>2026-04-10T10:03:00.841Z</time></trkpt><trkpt lat="44.9964433" lon="9.614635"><ele>89.0</ele><time>2026-04-10T10:03:01.84Z</time></trkpt><trkpt lat="44.9963333" lon="9.6147783"><ele>89.0</ele><time>2026-04-10T10:03:02.84Z</time></trkpt><trkpt lat="44.996225" lon="9.61492"><ele>89.0</ele><time>2026-04-10T10:03:03.84Z</time></trkpt><trkpt lat="44.9961217" lon="9.61505"><ele>89.0</ele><time>2026-04-10T10:03:04.84Z</time></trkpt><trkpt lat="44.9960233" lon="9.615165"><ele>89.0</ele><time>2026-04-10T10:03:05.84Z</time></trkpt><trkpt lat="44.99593" lon="9.61526"><ele>89.0</ele><time>2026-04-10T10:03:06.841Z</time></trkpt><trkpt lat="44.9958383" lon="9.6153283"><ele>89.0</ele><time>2026-04-10T10:03:07.841Z</time></trkpt><trkpt lat="44.995755" lon="9.6153617"><ele>89.0</ele><time>2026-04-10T10:03:08.845Z</time></trkpt><trkpt lat="44.9956817" lon="9.6153533"><ele>88.80000000000001</ele><time>2026-04-10T10:03:09.839Z</time></trkpt><trkpt lat="44.9956217" lon="9.6153133"><ele>88.60000000000001</ele><time>2026-04-10T10:03:10.839Z</time></trkpt><trkpt lat="44.9955667" lon="9.6152683"><ele>88.4</ele><time>2026-04-10T10:03:11.84Z</time></trkpt><trkpt lat="44.9954717" lon="9.61517"><ele>88.2</ele><time>2026-04-10T10:03:13.841Z</time></trkpt><trkpt lat="44.9953817" lon="9.6150767"><ele>88.0</ele><time>2026-04-10T10:03:15.845Z</time></trkpt><trkpt lat="44.9952917" lon="9.6149783"><ele>88.0</ele><time>2026-04-10T10:03:17.84Z</time></trkpt><trkpt lat="44.995205" lon="9.6148883"><ele>88.0</ele><time>2026-04-10T10:03:19.84Z</time></trkpt><trkpt lat="44.9951083" lon="9.6147983"><ele>88.0</ele><time>2026-04-10T10:03:21.841Z</time></trkpt><trkpt lat="44.9950367" lon="9.61476"><ele>88.0</ele><time>2026-04-10T10:03:22.844Z</time></trkpt><trkpt lat="44.9949483" lon="9.61471"><ele>88.0</ele><time>2026-04-10T10:03:23.841Z</time></trkpt><trkpt lat="44.99485" lon="9.614645"><ele>87.83333333333333</ele><time>2026-04-10T10:03:24.843Z</time></trkpt><trkpt lat="44.994755" lon="9.6145783"><ele>87.66666666666666</ele><time>2026-04-10T10:03:25.841Z</time></trkpt><trkpt lat="44.9946717" lon="9.6145183"><ele>87.5</ele><time>2026-04-10T10:03:26.841Z</time></trkpt><trkpt lat="44.9945967" lon="9.6144617"><ele>87.33333333333333</ele><time>2026-04-10T10:03:27.841Z</time></trkpt><trkpt lat="44.99453" lon="9.61441"><ele>87.16666666666667</ele><time>2026-04-10T10:03:28.84Z</time></trkpt><trkpt lat="44.9944633" lon="9.6143783"><ele>87.0</ele><time>2026-04-10T10:03:29.84Z</time></trkpt><trkpt lat="44.9943917" lon="9.6143733"><ele>87.0</ele><time>2026-04-10T10:03:30.845Z</time></trkpt><trkpt lat="44.9943217" lon="9.6144117"><ele>87.0</ele><time>2026-04-10T10:03:31.842Z</time></trkpt><trkpt lat="44.9942683" lon="9.614485"><ele>87.0</ele><time>2026-04-10T10:03:32.843Z</time></trkpt><trkpt lat="44.9942283" lon="9.6146283"><ele>87.0</ele><time>2026-04-10T10:03:34.842Z</time></trkpt><trkpt lat="44.9942117" lon="9.614735"><ele>87.0</ele><time>2026-04-10T10:03:36.841Z</time></trkpt><trkpt lat="44.9942317" lon="9.6148283"><ele>87.0</ele><time>2026-04-10T10:03:38.841Z</time></trkpt><trkpt lat="44.9942683" lon="9.614915"><ele>86.83333333333333</ele><time>2026-04-10T10:03:41.84Z</time></trkpt><trkpt lat="44.9943317" lon="9.6149783"><ele>86.66666666666667</ele><time>2026-04-10T10:03:43.841Z</time></trkpt><trkpt lat="44.9943783" lon="9.6150417"><ele>86.5</ele><time>2026-04-10T10:03:45.842Z</time></trkpt><trkpt lat="44.9944317" lon="9.6150967"><ele>86.33333333333334</ele><time>2026-04-10T10:22:59.842Z</time></trkpt><trkpt lat="44.9943933" lon="9.6150233"><ele>86.16666666666667</ele><time>2026-04-10T10:23:03.842Z</time></trkpt><trkpt lat="44.99431" lon="9.61496"><ele>86.0</ele><time>2026-04-10T10:23:05.839Z</time></trkpt><trkpt lat="44.99424" lon="9.6148383"><ele>86.0</ele><time>2026-04-10T10:23:07.839Z</time></trkpt><trkpt lat="44.9942283" lon="9.6147367"><ele>86.0</ele><time>2026-04-10T10:23:08.84Z</time></trkpt><trkpt lat="44.9942467" lon="9.61463"><ele>86.0</ele><time>2026-04-10T10:23:09.838Z</time></trkpt><trkpt lat="44.9942967" lon="9.6145217"><ele>86.0</ele><time>2026-04-10T10:23:10.84Z</time></trkpt><trkpt lat="44.99436" lon="9.614425"><ele>86.0</ele><time>2026-04-10T10:23:11.842Z</time></trkpt><trkpt lat="44.9944033" lon="9.6143433"><ele>86.0</ele><time>2026-04-10T10:23:12.84Z</time></trkpt><trkpt lat="44.9944017" lon="9.6141983"><ele>86.16666666666667</ele><time>2026-04-10T10:23:14.841Z</time></trkpt><trkpt lat="44.994325" lon="9.6141333"><ele>86.33333333333334</ele><time>2026-04-10T10:23:16.839Z</time></trkpt><trkpt lat="44.9942717" lon="9.6140817"><ele>86.5</ele><time>2026-04-10T10:23:18.84Z</time></trkpt><trkpt lat="44.994215" lon="9.613995"><ele>86.66666666666667</ele><time>2026-04-10T10:23:20.839Z</time></trkpt><trkpt lat="44.994175" lon="9.6139133"><ele>86.83333333333333</ele><time>2026-04-10T10:23:21.839Z</time></trkpt><trkpt lat="44.99411" lon="9.6138067"><ele>87.0</ele><time>2026-04-10T10:23:22.84Z</time></trkpt><trkpt lat="44.9940133" lon="9.6136833"><ele>87.33333333333333</ele><time>2026-04-10T10:23:23.84Z</time></trkpt><trkpt lat="44.9939033" lon="9.613565"><ele>87.66666666666666</ele><time>2026-04-10T10:23:24.84Z</time></trkpt><trkpt lat="44.993775" lon="9.61344"><ele>88.0</ele><time>2026-04-10T10:23:25.838Z</time></trkpt><trkpt lat="44.9936467" lon="9.6133133"><ele>88.0</ele><time>2026-04-10T10:23:26.842Z</time></trkpt><trkpt lat="44.9935117" lon="9.6131867"><ele>88.0</ele><time>2026-04-10T10:23:27.839Z</time></trkpt><trkpt lat="44.993375" lon="9.6130583"><ele>88.0</ele><time>2026-04-10T10:23:28.843Z</time></trkpt><trkpt lat="44.9932317" lon="9.6129317"><ele>89.0</ele><time>2026-04-10T10:23:29.838Z</time></trkpt><trkpt lat="44.9930883" lon="9.612805"><ele>90.0</ele><time>2026-04-10T10:23:30.839Z</time></trkpt><trkpt lat="44.992945" lon="9.61268"><ele>91.0</ele><time>2026-04-10T10:23:31.842Z</time></trkpt><trkpt lat="44.9928017" lon="9.6125567"><ele>91.0</ele><time>2026-04-10T10:23:32.839Z</time></trkpt><trkpt lat="44.99266" lon="9.6124317"><ele>91.0</ele><time>2026-04-10T10:23:33.841Z</time></trkpt><trkpt lat="44.9925167" lon="9.6123083"><ele>91.0</ele><time>2026-04-10T10:23:34.838Z</time></trkpt><trkpt lat="44.9923733" lon="9.612185"><ele>90.66666666666666</ele><time>2026-04-10T10:23:35.84Z</time></trkpt><trkpt lat="44.9922317" lon="9.612065"><ele>90.33333333333333</ele><time>2026-04-10T10:23:36.838Z</time></trkpt><trkpt lat="44.9920917" lon="9.6119417"><ele>90.0</ele><time>2026-04-10T10:23:37.839Z</time></trkpt><trkpt lat="44.9919483" lon="9.6118133"><ele>90.0</ele><time>2026-04-10T10:23:38.84Z</time></trkpt><trkpt lat="44.9918067" lon="9.61169"><ele>90.0</ele><time>2026-04-10T10:23:39.838Z</time></trkpt><trkpt lat="44.991675" lon="9.6115717"><ele>90.0</ele><time>2026-04-10T10:23:40.841Z</time></trkpt><trkpt lat="44.991545" lon="9.6114583"><ele>90.25</ele><time>2026-04-10T10:23:41.839Z</time></trkpt><trkpt lat="44.9914217" lon="9.61135"><ele>90.5</ele><time>2026-04-10T10:23:42.844Z</time></trkpt><trkpt lat="44.9913117" lon="9.6112583"><ele>90.75</ele><time>2026-04-10T10:23:43.84Z</time></trkpt><trkpt lat="44.9912083" lon="9.61117"><ele>91.0</ele><time>2026-04-10T10:23:44.84Z</time></trkpt><trkpt lat="44.9911133" lon="9.6110883"><ele>91.0</ele><time>2026-04-10T10:23:45.838Z</time></trkpt><trkpt lat="44.9910167" lon="9.6110067"><ele>91.0</ele><time>2026-04-10T10:23:46.841Z</time></trkpt><trkpt lat="44.9909167" lon="9.6109183"><ele>91.0</ele><time>2026-04-10T10:23:47.841Z</time></trkpt><trkpt lat="44.9908067" lon="9.6108233"><ele>91.0</ele><time>2026-04-10T10:23:48.841Z</time></trkpt><trkpt lat="44.99069" lon="9.61072"><ele>91.33333333333333</ele><time>2026-04-10T10:23:49.844Z</time></trkpt><trkpt lat="44.9905667" lon="9.6106133"><ele>91.66666666666667</ele><time>2026-04-10T10:23:50.841Z</time></trkpt><trkpt lat="44.9904333" lon="9.6104983"><ele>92.0</ele><time>2026-04-10T10:23:51.841Z</time></trkpt><trkpt lat="44.9902917" lon="9.6103733"><ele>91.66666666666667</ele><time>2026-04-10T10:23:52.84Z</time></trkpt><trkpt lat="44.99014" lon="9.6102367"><ele>91.33333333333333</ele><time>2026-04-10T10:23:53.84Z</time></trkpt><trkpt lat="44.9899817" lon="9.6100917"><ele>91.0</ele><time>2026-04-10T10:23:54.841Z</time></trkpt><trkpt lat="44.989815" lon="9.6099367"><ele>91.0</ele><time>2026-04-10T10:23:55.841Z</time></trkpt><trkpt lat="44.9896383" lon="9.609775"><ele>91.0</ele><time>2026-04-10T10:23:56.842Z</time></trkpt><trkpt lat="44.989455" lon="9.6096133"><ele>91.0</ele><time>2026-04-10T10:23:57.841Z</time></trkpt><trkpt lat="44.9892717" lon="9.6094467"><ele>91.0</ele><time>2026-04-10T10:23:58.841Z</time></trkpt><trkpt lat="44.989085" lon="9.6092783"><ele>91.0</ele><time>2026-04-10T10:23:59.841Z</time></trkpt><trkpt lat="44.9889" lon="9.6091117"><ele>91.0</ele><time>2026-04-10T10:24:00.84Z</time></trkpt><trkpt lat="44.98872" lon="9.608945"><ele>91.0</ele><time>2026-04-10T10:24:01.84Z</time></trkpt><trkpt lat="44.9885383" lon="9.6087883"><ele>91.0</ele><time>2026-04-10T10:24:02.846Z</time></trkpt><trkpt lat="44.9883633" lon="9.6086283"><ele>91.0</ele><time>2026-04-10T10:24:03.842Z</time></trkpt><trkpt lat="44.9881983" lon="9.6084767"><ele>92.0</ele><time>2026-04-10T10:24:04.84Z</time></trkpt><trkpt lat="44.9880317" lon="9.6083267"><ele>93.0</ele><time>2026-04-10T10:24:05.841Z</time></trkpt><trkpt lat="44.9878617" lon="9.6081833"><ele>94.0</ele><time>2026-04-10T10:24:06.842Z</time></trkpt><trkpt lat="44.9876967" lon="9.6080517"><ele>94.0</ele><time>2026-04-10T10:24:07.841Z</time></trkpt><trkpt lat="44.987545" lon="9.607935"><ele>94.0</ele><time>2026-04-10T10:24:08.841Z</time></trkpt><trkpt lat="44.9874133" lon="9.6078333"><ele>94.0</ele><time>2026-04-10T10:24:09.841Z</time></trkpt><trkpt lat="44.9873117" lon="9.6077467"><ele>94.0</ele><time>2026-04-10T10:24:10.84Z</time></trkpt><trkpt lat="44.98724" lon="9.60768"><ele>93.80000000000001</ele><time>2026-04-10T10:24:11.84Z</time></trkpt><trkpt lat="44.987185" lon="9.6076317"><ele>93.60000000000001</ele><time>2026-04-10T10:24:14.843Z</time></trkpt><trkpt lat="44.9870967" lon="9.607585"><ele>93.4</ele><time>2026-04-10T10:24:48.846Z</time></trkpt><trkpt lat="44.9869983" lon="9.6075467"><ele>93.2</ele><time>2026-04-10T10:24:50.919Z</time></trkpt><trkpt lat="44.98692" lon="9.607515"><ele>93.0</ele><time>2026-04-10T10:24:51.844Z</time></trkpt><trkpt lat="44.986815" lon="9.6074633"><ele>93.0</ele><time>2026-04-10T10:24:52.845Z</time></trkpt><trkpt lat="44.986695" lon="9.6074017"><ele>93.0</ele><time>2026-04-10T10:24:53.84Z</time></trkpt><trkpt lat="44.9865583" lon="9.6073383"><ele>93.0</ele><time>2026-04-10T10:24:54.84Z</time></trkpt><trkpt lat="44.986415" lon="9.6072767"><ele>93.0</ele><time>2026-04-10T10:24:55.84Z</time></trkpt><trkpt lat="44.9862483" lon="9.6072133"><ele>93.0</ele><time>2026-04-10T10:24:56.839Z</time></trkpt><trkpt lat="44.986075" lon="9.60715"><ele>93.0</ele><time>2026-04-10T10:24:57.839Z</time></trkpt><trkpt lat="44.9858933" lon="9.6070833"><ele>93.0</ele><time>2026-04-10T10:24:58.842Z</time></trkpt><trkpt lat="44.9857083" lon="9.607025"><ele>93.0</ele><time>2026-04-10T10:24:59.841Z</time></trkpt><trkpt lat="44.9855217" lon="9.6069817"><ele>93.0</ele><time>2026-04-10T10:25:00.838Z</time></trkpt><trkpt lat="44.9853317" lon="9.606955"><ele>93.0</ele><time>2026-04-10T10:25:01.84Z</time></trkpt><trkpt lat="44.985145" lon="9.6069367"><ele>93.33333333333333</ele><time>2026-04-10T10:25:02.84Z</time></trkpt><trkpt lat="44.9849567" lon="9.606925"><ele>93.66666666666666</ele><time>2026-04-10T10:25:03.84Z</time></trkpt><trkpt lat="44.9847683" lon="9.6069183"><ele>94.0</ele><time>2026-04-10T10:25:04.841Z</time></trkpt><trkpt lat="44.98458" lon="9.6069117"><ele>94.0</ele><time>2026-04-10T10:25:05.84Z</time></trkpt><trkpt lat="44.9843967" lon="9.6069067"><ele>94.0</ele><time>2026-04-10T10:25:06.839Z</time></trkpt><trkpt lat="44.9842217" lon="9.6069083"><ele>94.0</ele><time>2026-04-10T10:25:07.84Z</time></trkpt><trkpt lat="44.9840533" lon="9.6069117"><ele>94.33333333333333</ele><time>2026-04-10T10:25:08.841Z</time></trkpt><trkpt lat="44.9838833" lon="9.6069167"><ele>94.66666666666667</ele><time>2026-04-10T10:25:09.839Z</time></trkpt><trkpt lat="44.98371" lon="9.60692"><ele>95.0</ele><time>2026-04-10T10:25:10.841Z</time></trkpt><trkpt lat="44.9835367" lon="9.6069217"><ele>95.0</ele><time>2026-04-10T10:25:11.839Z</time></trkpt><trkpt lat="44.9833617" lon="9.6069233"><ele>95.0</ele><time>2026-04-10T10:25:12.84Z</time></trkpt><trkpt lat="44.983185" lon="9.606925"><ele>95.0</ele><time>2026-04-10T10:25:13.839Z</time></trkpt><trkpt lat="44.9830117" lon="9.6069283"><ele>95.0</ele><time>2026-04-10T10:25:14.84Z</time></trkpt><trkpt lat="44.9828367" lon="9.606935"><ele>95.0</ele><time>2026-04-10T10:25:15.845Z</time></trkpt><trkpt lat="44.98267" lon="9.606935"><ele>95.0</ele><time>2026-04-10T10:25:16.84Z</time></trkpt><trkpt lat="44.982515" lon="9.60693"><ele>95.0</ele><time>2026-04-10T10:25:17.841Z</time></trkpt><trkpt lat="44.9823567" lon="9.6069267"><ele>95.0</ele><time>2026-04-10T10:25:18.84Z</time></trkpt><trkpt lat="44.98219" lon="9.6069367"><ele>95.0</ele><time>2026-04-10T10:25:19.841Z</time></trkpt><trkpt lat="44.9820083" lon="9.6069533"><ele>95.0</ele><time>2026-04-10T10:25:20.841Z</time></trkpt><trkpt lat="44.9818183" lon="9.6069583"><ele>95.0</ele><time>2026-04-10T10:25:21.84Z</time></trkpt><trkpt lat="44.9816217" lon="9.606965"><ele>95.0</ele><time>2026-04-10T10:25:22.839Z</time></trkpt><trkpt lat="44.9814233" lon="9.606975"><ele>95.33333333333334</ele><time>2026-04-10T10:25:23.841Z</time></trkpt><trkpt lat="44.9812217" lon="9.6069817"><ele>95.66666666666667</ele><time>2026-04-10T10:25:24.843Z</time></trkpt><trkpt lat="44.9810233" lon="9.6069867"><ele>96.0</ele><time>2026-04-10T10:25:25.84Z</time></trkpt><trkpt lat="44.9808183" lon="9.60699"><ele>96.0</ele><time>2026-04-10T10:25:26.843Z</time></trkpt><trkpt lat="44.980615" lon="9.6069833"><ele>96.0</ele><time>2026-04-10T10:25:27.839Z</time></trkpt><trkpt lat="44.9804133" lon="9.6069667"><ele>96.0</ele><time>2026-04-10T10:25:28.84Z</time></trkpt><trkpt lat="44.980215" lon="9.60694"><ele>96.0</ele><time>2026-04-10T10:25:29.841Z</time></trkpt><trkpt lat="44.9800167" lon="9.6069083"><ele>96.0</ele><time>2026-04-10T10:25:30.842Z</time></trkpt><trkpt lat="44.9798217" lon="9.60687"><ele>96.0</ele><time>2026-04-10T10:25:31.841Z</time></trkpt><trkpt lat="44.9796267" lon="9.6068283"><ele>96.33333333333334</ele><time>2026-04-10T10:25:32.842Z</time></trkpt><trkpt lat="44.979435" lon="9.6067867"><ele>96.66666666666667</ele><time>2026-04-10T10:25:33.841Z</time></trkpt><trkpt lat="44.9792433" lon="9.60674"><ele>97.0</ele><time>2026-04-10T10:25:34.84Z</time></trkpt><trkpt lat="44.9790533" lon="9.6066933"><ele>96.33333333333334</ele><time>2026-04-10T10:25:35.841Z</time></trkpt><trkpt lat="44.9788617" lon="9.6066467"><ele>95.66666666666667</ele><time>2026-04-10T10:25:36.84Z</time></trkpt><trkpt lat="44.9786667" lon="9.6066017"><ele>95.0</ele><time>2026-04-10T10:25:37.841Z</time></trkpt><trkpt lat="44.9784733" lon="9.60656"><ele>96.33333333333334</ele><time>2026-04-10T10:25:38.84Z</time></trkpt><trkpt lat="44.9782817" lon="9.6065183"><ele>97.66666666666667</ele><time>2026-04-10T10:25:39.841Z</time></trkpt><trkpt lat="44.97809" lon="9.6064767"><ele>99.0</ele><time>2026-04-10T10:25:40.843Z</time></trkpt><trkpt lat="44.977895" lon="9.6064333"><ele>99.0</ele><time>2026-04-10T10:25:41.842Z</time></trkpt><trkpt lat="44.9777" lon="9.6063883"><ele>99.0</ele><time>2026-04-10T10:25:42.842Z</time></trkpt><trkpt lat="44.9775033" lon="9.6063383"><ele>99.0</ele><time>2026-04-10T10:25:43.845Z</time></trkpt><trkpt lat="44.9773033" lon="9.606285"><ele>98.66666666666666</ele><time>2026-04-10T10:25:44.841Z</time></trkpt><trkpt lat="44.9771083" lon="9.6062367"><ele>98.33333333333333</ele><time>2026-04-10T10:25:45.839Z</time></trkpt><trkpt lat="44.9769117" lon="9.6061917"><ele>98.0</ele><time>2026-04-10T10:25:46.84Z</time></trkpt><trkpt lat="44.9767133" lon="9.606145"><ele>98.0</ele><time>2026-04-10T10:25:47.839Z</time></trkpt><trkpt lat="44.976515" lon="9.6060983"><ele>98.0</ele><time>2026-04-10T10:25:48.841Z</time></trkpt><trkpt lat="44.9763167" lon="9.6060467"><ele>98.0</ele><time>2026-04-10T10:25:49.84Z</time></trkpt><trkpt lat="44.9761233" lon="9.6059967"><ele>98.0</ele><time>2026-04-10T10:25:50.841Z</time></trkpt><trkpt lat="44.9759267" lon="9.6059483"><ele>98.0</ele><time>2026-04-10T10:25:51.839Z</time></trkpt><trkpt lat="44.97573" lon="9.6059"><ele>98.0</ele><time>2026-04-10T10:25:52.841Z</time></trkpt><trkpt lat="44.9755317" lon="9.6058517"><ele>97.66666666666666</ele><time>2026-04-10T10:25:53.843Z</time></trkpt><trkpt lat="44.9753333" lon="9.6058067"><ele>97.33333333333334</ele><time>2026-04-10T10:25:54.841Z</time></trkpt><trkpt lat="44.9751333" lon="9.60577"><ele>97.0</ele><time>2026-04-10T10:25:55.842Z</time></trkpt><trkpt lat="44.9749283" lon="9.6057383"><ele>98.33333333333334</ele><time>2026-04-10T10:25:56.841Z</time></trkpt><trkpt lat="44.9747217" lon="9.605715"><ele>99.66666666666666</ele><time>2026-04-10T10:25:57.839Z</time></trkpt><trkpt lat="44.974515" lon="9.6057033"><ele>101.0</ele><time>2026-04-10T10:25:58.841Z</time></trkpt><trkpt lat="44.9743083" lon="9.6056933"><ele>101.0</ele><time>2026-04-10T10:25:59.84Z</time></trkpt><trkpt lat="44.9740983" lon="9.6056833"><ele>101.0</ele><time>2026-04-10T10:26:00.839Z</time></trkpt><trkpt lat="44.9738883" lon="9.605675"><ele>101.0</ele><time>2026-04-10T10:26:01.84Z</time></trkpt><trkpt lat="44.9736783" lon="9.6056633"><ele>101.0</ele><time>2026-04-10T10:26:02.841Z</time></trkpt><trkpt lat="44.9734683" lon="9.6056517"><ele>101.0</ele><time>2026-04-10T10:26:03.841Z</time></trkpt><trkpt lat="44.973255" lon="9.605645"><ele>101.0</ele><time>2026-04-10T10:26:04.839Z</time></trkpt><trkpt lat="44.9730417" lon="9.605635"><ele>100.66666666666666</ele><time>2026-04-10T10:26:05.841Z</time></trkpt><trkpt lat="44.9728317" lon="9.60562"><ele>100.33333333333334</ele><time>2026-04-10T10:26:06.843Z</time></trkpt><trkpt lat="44.9726217" lon="9.6055933"><ele>100.0</ele><time>2026-04-10T10:26:07.838Z</time></trkpt><trkpt lat="44.9724167" lon="9.6055583"><ele>99.66666666666667</ele><time>2026-04-10T10:26:08.84Z</time></trkpt><trkpt lat="44.9722117" lon="9.6055117"><ele>99.33333333333334</ele><time>2026-04-10T10:26:09.841Z</time></trkpt><trkpt lat="44.9720067" lon="9.6054667"><ele>99.0</ele><time>2026-04-10T10:26:10.84Z</time></trkpt><trkpt lat="44.9718" lon="9.6054283"><ele>100.0</ele><time>2026-04-10T10:26:11.838Z</time></trkpt><trkpt lat="44.97159" lon="9.6053867"><ele>101.0</ele><time>2026-04-10T10:26:12.84Z</time></trkpt><trkpt lat="44.97138" lon="9.605355"><ele>102.0</ele><time>2026-04-10T10:26:13.84Z</time></trkpt><trkpt lat="44.9711817" lon="9.6053417"><ele>102.0</ele><time>2026-04-10T10:26:14.842Z</time></trkpt><trkpt lat="44.9710017" lon="9.605365"><ele>102.0</ele><time>2026-04-10T10:26:15.838Z</time></trkpt><trkpt lat="44.97084" lon="9.6054283"><ele>102.0</ele><time>2026-04-10T10:26:16.84Z</time></trkpt><trkpt lat="44.9707017" lon="9.6055167"><ele>101.75</ele><time>2026-04-10T10:26:17.84Z</time></trkpt><trkpt lat="44.9705683" lon="9.6055983"><ele>101.5</ele><time>2026-04-10T10:26:18.844Z</time></trkpt><trkpt lat="44.9704383" lon="9.6056317"><ele>101.25</ele><time>2026-04-10T10:26:19.839Z</time></trkpt><trkpt lat="44.97032" lon="9.6055983"><ele>101.0</ele><time>2026-04-10T10:26:20.839Z</time></trkpt><trkpt lat="44.9701967" lon="9.6055217"><ele>101.0</ele><time>2026-04-10T10:26:21.84Z</time></trkpt><trkpt lat="44.9700717" lon="9.6054133"><ele>101.0</ele><time>2026-04-10T10:26:22.84Z</time></trkpt><trkpt lat="44.9699517" lon="9.6052733"><ele>101.0</ele><time>2026-04-10T10:26:23.841Z</time></trkpt><trkpt lat="44.969835" lon="9.6051117"><ele>102.0</ele><time>2026-04-10T10:26:24.839Z</time></trkpt><trkpt lat="44.9697083" lon="9.6049383"><ele>103.0</ele><time>2026-04-10T10:26:25.841Z</time></trkpt><trkpt lat="44.9695733" lon="9.60477"><ele>104.0</ele><time>2026-04-10T10:26:26.844Z</time></trkpt><trkpt lat="44.969435" lon="9.6046117"><ele>104.33333333333333</ele><time>2026-04-10T10:26:27.839Z</time></trkpt><trkpt lat="44.9692917" lon="9.6044617"><ele>104.66666666666666</ele><time>2026-04-10T10:26:28.841Z</time></trkpt><trkpt lat="44.96914" lon="9.6043183"><ele>105.0</ele><time>2026-04-10T10:26:29.839Z</time></trkpt><trkpt lat="44.9689817" lon="9.6041867"><ele>105.33333333333334</ele><time>2026-04-10T10:26:30.843Z</time></trkpt><trkpt lat="44.9688133" lon="9.604065"><ele>105.66666666666667</ele><time>2026-04-10T10:26:31.841Z</time></trkpt><trkpt lat="44.9686483" lon="9.603955"><ele>106.0</ele><time>2026-04-10T10:26:32.84Z</time></trkpt><trkpt lat="44.968475" lon="9.603855"><ele>105.33333333333334</ele><time>2026-04-10T10:26:33.841Z</time></trkpt><trkpt lat="44.968295" lon="9.6037667"><ele>104.66666666666666</ele><time>2026-04-10T10:26:34.843Z</time></trkpt><trkpt lat="44.9681117" lon="9.6036933"><ele>104.0</ele><time>2026-04-10T10:26:35.84Z</time></trkpt><trkpt lat="44.9679233" lon="9.6036317"><ele>103.66666666666666</ele><time>2026-04-10T10:26:36.84Z</time></trkpt><trkpt lat="44.9677283" lon="9.6035833"><ele>103.33333333333334</ele><time>2026-04-10T10:26:37.84Z</time></trkpt><trkpt lat="44.96753" lon="9.6035517"><ele>103.0</ele><time>2026-04-10T10:26:38.841Z</time></trkpt><trkpt lat="44.9673267" lon="9.60354"><ele>103.66666666666667</ele><time>2026-04-10T10:26:39.84Z</time></trkpt><trkpt lat="44.967125" lon="9.603545"><ele>104.33333333333334</ele><time>2026-04-10T10:26:40.84Z</time></trkpt><trkpt lat="44.9669233" lon="9.6035567"><ele>105.0</ele><time>2026-04-10T10:26:41.839Z</time></trkpt><trkpt lat="44.9667217" lon="9.603575"><ele>105.33333333333334</ele><time>2026-04-10T10:26:42.842Z</time></trkpt><trkpt lat="44.9665217" lon="9.6036017"><ele>105.66666666666667</ele><time>2026-04-10T10:26:43.84Z</time></trkpt><trkpt lat="44.9663233" lon="9.6036317"><ele>106.0</ele><time>2026-04-10T10:26:44.84Z</time></trkpt><trkpt lat="44.9661233" lon="9.6036567"><ele>105.66666666666667</ele><time>2026-04-10T10:26:45.839Z</time></trkpt><trkpt lat="44.965925" lon="9.6036783"><ele>105.33333333333334</ele><time>2026-04-10T10:26:46.843Z</time></trkpt><trkpt lat="44.965725" lon="9.6036933"><ele>105.0</ele><time>2026-04-10T10:26:47.839Z</time></trkpt><trkpt lat="44.9655233" lon="9.6037"><ele>105.0</ele><time>2026-04-10T10:26:48.839Z</time></trkpt><trkpt lat="44.965325" lon="9.6036867"><ele>105.0</ele><time>2026-04-10T10:26:49.84Z</time></trkpt><trkpt lat="44.965125" lon="9.6036517"><ele>105.0</ele><time>2026-04-10T10:26:50.843Z</time></trkpt><trkpt lat="44.9649267" lon="9.6035917"><ele>105.0</ele><time>2026-04-10T10:26:51.84Z</time></trkpt><trkpt lat="44.9647383" lon="9.6034983"><ele>105.0</ele><time>2026-04-10T10:26:52.841Z</time></trkpt><trkpt lat="44.96456" lon="9.60337"><ele>105.0</ele><time>2026-04-10T10:26:53.842Z</time></trkpt><trkpt lat="44.9643867" lon="9.603225"><ele>105.0</ele><time>2026-04-10T10:26:54.839Z</time></trkpt><trkpt lat="44.9642233" lon="9.6030533"><ele>105.0</ele><time>2026-04-10T10:26:55.839Z</time></trkpt><trkpt lat="44.9640833" lon="9.6028467"><ele>105.0</ele><time>2026-04-10T10:26:56.841Z</time></trkpt><trkpt lat="44.963965" lon="9.6026033"><ele>105.0</ele><time>2026-04-10T10:26:57.841Z</time></trkpt><trkpt lat="44.9638533" lon="9.6023583"><ele>105.0</ele><time>2026-04-10T10:26:58.841Z</time></trkpt><trkpt lat="44.963755" lon="9.6021017"><ele>105.0</ele><time>2026-04-10T10:26:59.841Z</time></trkpt><trkpt lat="44.9636833" lon="9.6018267"><ele>104.66666666666666</ele><time>2026-04-10T10:27:00.843Z</time></trkpt><trkpt lat="44.96364" lon="9.601545"><ele>104.33333333333333</ele><time>2026-04-10T10:27:01.841Z</time></trkpt><trkpt lat="44.9636167" lon="9.6012583"><ele>104.0</ele><time>2026-04-10T10:27:02.842Z</time></trkpt><trkpt lat="44.9636067" lon="9.6009733"><ele>104.0</ele><time>2026-04-10T10:27:03.841Z</time></trkpt><trkpt lat="44.9636033" lon="9.60069"><ele>104.0</ele><time>2026-04-10T10:27:04.841Z</time></trkpt><trkpt lat="44.96361" lon="9.6004083"><ele>104.0</ele><time>2026-04-10T10:27:05.841Z</time></trkpt><trkpt lat="44.963625" lon="9.6001283"><ele>104.0</ele><time>2026-04-10T10:27:06.842Z</time></trkpt><trkpt lat="44.96364" lon="9.5998483"><ele>104.0</ele><time>2026-04-10T10:27:07.84Z</time></trkpt><trkpt lat="44.9636583" lon="9.5995667"><ele>104.0</ele><time>2026-04-10T10:27:08.84Z</time></trkpt><trkpt lat="44.9636767" lon="9.5992833"><ele>104.33333333333333</ele><time>2026-04-10T10:27:09.84Z</time></trkpt><trkpt lat="44.9636933" lon="9.5990017"><ele>104.66666666666666</ele><time>2026-04-10T10:27:10.839Z</time></trkpt><trkpt lat="44.96371" lon="9.59872"><ele>105.0</ele><time>2026-04-10T10:27:11.839Z</time></trkpt><trkpt lat="44.9637283" lon="9.59844"><ele>104.33333333333334</ele><time>2026-04-10T10:27:12.84Z</time></trkpt><trkpt lat="44.9637483" lon="9.598155"><ele>103.66666666666667</ele><time>2026-04-10T10:27:13.841Z</time></trkpt><trkpt lat="44.9637683" lon="9.59787"><ele>103.0</ele><time>2026-04-10T10:27:14.842Z</time></trkpt><trkpt lat="44.963785" lon="9.59758"><ele>102.33333333333334</ele><time>2026-04-10T10:27:15.842Z</time></trkpt><trkpt lat="44.9638033" lon="9.59729"><ele>101.66666666666666</ele><time>2026-04-10T10:27:16.84Z</time></trkpt><trkpt lat="44.963825" lon="9.5970033"><ele>101.0</ele><time>2026-04-10T10:27:17.842Z</time></trkpt><trkpt lat="44.9638433" lon="9.596715"><ele>101.0</ele><time>2026-04-10T10:27:18.841Z</time></trkpt><trkpt lat="44.96386" lon="9.5964217"><ele>101.0</ele><time>2026-04-10T10:27:19.841Z</time></trkpt><trkpt lat="44.9638783" lon="9.5961283"><ele>101.0</ele><time>2026-04-10T10:27:20.842Z</time></trkpt><trkpt lat="44.9638967" lon="9.595835"><ele>100.66666666666666</ele><time>2026-04-10T10:27:21.842Z</time></trkpt><trkpt lat="44.963915" lon="9.5955417"><ele>100.33333333333334</ele><time>2026-04-10T10:27:22.847Z</time></trkpt><trkpt lat="44.963935" lon="9.595245"><ele>100.0</ele><time>2026-04-10T10:27:23.84Z</time></trkpt><trkpt lat="44.9639567" lon="9.5949467"><ele>100.0</ele><time>2026-04-10T10:27:24.842Z</time></trkpt><trkpt lat="44.9639783" lon="9.5946467"><ele>100.0</ele><time>2026-04-10T10:27:25.841Z</time></trkpt><trkpt lat="44.964" lon="9.5943383"><ele>100.0</ele><time>2026-04-10T10:27:26.84Z</time></trkpt><trkpt lat="44.96402" lon="9.5940333"><ele>100.0</ele><time>2026-04-10T10:27:27.84Z</time></trkpt><trkpt lat="44.96404" lon="9.5937283"><ele>100.0</ele><time>2026-04-10T10:27:28.842Z</time></trkpt><trkpt lat="44.9640583" lon="9.5934233"><ele>100.0</ele><time>2026-04-10T10:27:29.846Z</time></trkpt><trkpt lat="44.9640783" lon="9.5931217"><ele>100.0</ele><time>2026-04-10T10:27:30.841Z</time></trkpt><trkpt lat="44.964095" lon="9.5928183"><ele>100.0</ele><time>2026-04-10T10:27:31.839Z</time></trkpt><trkpt lat="44.964115" lon="9.59252"><ele>100.0</ele><time>2026-04-10T10:27:32.84Z</time></trkpt><trkpt lat="44.9641367" lon="9.59222"><ele>100.33333333333334</ele><time>2026-04-10T10:27:33.84Z</time></trkpt><trkpt lat="44.9641567" lon="9.5919217"><ele>100.66666666666666</ele><time>2026-04-10T10:27:34.843Z</time></trkpt><trkpt lat="44.9641733" lon="9.5916217"><ele>101.0</ele><time>2026-04-10T10:27:35.84Z</time></trkpt><trkpt lat="44.9641917" lon="9.591325"><ele>101.33333333333333</ele><time>2026-04-10T10:27:36.84Z</time></trkpt><trkpt lat="44.96421" lon="9.5910233"><ele>101.66666666666666</ele><time>2026-04-10T10:27:37.841Z</time></trkpt><trkpt lat="44.96423" lon="9.5907233"><ele>102.0</ele><time>2026-04-10T10:27:38.839Z</time></trkpt><trkpt lat="44.9642483" lon="9.590425"><ele>102.0</ele><time>2026-04-10T10:27:39.841Z</time></trkpt><trkpt lat="44.964265" lon="9.5901267"><ele>102.0</ele><time>2026-04-10T10:27:40.839Z</time></trkpt><trkpt lat="44.9642817" lon="9.58983"><ele>102.0</ele><time>2026-04-10T10:27:41.844Z</time></trkpt><trkpt lat="44.9643017" lon="9.5895383"><ele>102.66666666666666</ele><time>2026-04-10T10:27:42.84Z</time></trkpt><trkpt lat="44.9643233" lon="9.5892417"><ele>103.33333333333333</ele><time>2026-04-10T10:27:43.84Z</time></trkpt><trkpt lat="44.964345" lon="9.58895"><ele>104.0</ele><time>2026-04-10T10:27:44.841Z</time></trkpt><trkpt lat="44.9643667" lon="9.5886583"><ele>104.66666666666666</ele><time>2026-04-10T10:27:45.84Z</time></trkpt><trkpt lat="44.9643833" lon="9.5883667"><ele>105.33333333333334</ele><time>2026-04-10T10:27:46.84Z</time></trkpt><trkpt lat="44.9644" lon="9.58808"><ele>106.0</ele><time>2026-04-10T10:27:47.842Z</time></trkpt><trkpt lat="44.9644183" lon="9.5877967"><ele>106.66666666666667</ele><time>2026-04-10T10:27:48.841Z</time></trkpt><trkpt lat="44.9644367" lon="9.5875283"><ele>107.33333333333334</ele><time>2026-04-10T10:27:49.844Z</time></trkpt><trkpt lat="44.964455" lon="9.5872717"><ele>108.0</ele><time>2026-04-10T10:27:50.841Z</time></trkpt><trkpt lat="44.96447" lon="9.5870283"><ele>109.0</ele><time>2026-04-10T10:27:51.84Z</time></trkpt><trkpt lat="44.964485" lon="9.5868033"><ele>110.0</ele><time>2026-04-10T10:27:52.84Z</time></trkpt><trkpt lat="44.9645" lon="9.5866017"><ele>111.0</ele><time>2026-04-10T10:27:53.84Z</time></trkpt><trkpt lat="44.9645167" lon="9.5864167"><ele>112.0</ele><time>2026-04-10T10:27:54.846Z</time></trkpt><trkpt lat="44.9645333" lon="9.5862483"><ele>112.0</ele><time>2026-04-10T10:27:55.841Z</time></trkpt><trkpt lat="44.9645517" lon="9.5860983"><ele>111.99999999999999</ele><time>2026-04-10T10:27:56.841Z</time></trkpt><trkpt lat="44.9645667" lon="9.5859683"><ele>111.99999999999999</ele><time>2026-04-10T10:27:57.841Z</time></trkpt><trkpt lat="44.9645733" lon="9.5858633"><ele>112.0</ele><time>2026-04-10T10:27:58.84Z</time></trkpt><trkpt lat="44.9645483" lon="9.58573"><ele>112.0</ele><time>2026-04-10T10:28:00.841Z</time></trkpt><trkpt lat="44.9644367" lon="9.585705"><ele>112.0</ele><time>2026-04-10T10:28:02.842Z</time></trkpt><trkpt lat="44.9643467" lon="9.5857283"><ele>112.0</ele><time>2026-04-10T10:28:03.839Z</time></trkpt><trkpt lat="44.9642183" lon="9.5857717"><ele>112.0</ele><time>2026-04-10T10:28:04.84Z</time></trkpt><trkpt lat="44.9640767" lon="9.58582"><ele>112.0</ele><time>2026-04-10T10:28:05.839Z</time></trkpt><trkpt lat="44.963915" lon="9.585875"><ele>113.0</ele><time>2026-04-10T10:28:06.84Z</time></trkpt><trkpt lat="44.9637483" lon="9.5859333"><ele>114.0</ele><time>2026-04-10T10:28:07.842Z</time></trkpt><trkpt lat="44.9635733" lon="9.5859933"><ele>115.0</ele><time>2026-04-10T10:28:08.84Z</time></trkpt><trkpt lat="44.9633917" lon="9.58605"><ele>115.33333333333334</ele><time>2026-04-10T10:28:09.841Z</time></trkpt><trkpt lat="44.96321" lon="9.5861033"><ele>115.66666666666666</ele><time>2026-04-10T10:28:10.84Z</time></trkpt><trkpt lat="44.9630233" lon="9.58615"><ele>116.0</ele><time>2026-04-10T10:28:11.839Z</time></trkpt><trkpt lat="44.9628333" lon="9.5861967"><ele>116.0</ele><time>2026-04-10T10:28:12.845Z</time></trkpt><trkpt lat="44.96264" lon="9.5862483"><ele>116.0</ele><time>2026-04-10T10:28:13.839Z</time></trkpt><trkpt lat="44.9624483" lon="9.5863"><ele>116.0</ele><time>2026-04-10T10:28:14.841Z</time></trkpt><trkpt lat="44.9622617" lon="9.586355"><ele>117.33333333333333</ele><time>2026-04-10T10:28:15.841Z</time></trkpt><trkpt lat="44.9620783" lon="9.58641"><ele>118.66666666666666</ele><time>2026-04-10T10:28:16.839Z</time></trkpt><trkpt lat="44.961895" lon="9.5864633"><ele>120.0</ele><time>2026-04-10T10:28:17.841Z</time></trkpt><trkpt lat="44.9617117" lon="9.586515"><ele>120.66666666666666</ele><time>2026-04-10T10:28:18.839Z</time></trkpt><trkpt lat="44.96153" lon="9.5865667"><ele>121.33333333333333</ele><time>2026-04-10T10:28:19.843Z</time></trkpt><trkpt lat="44.9613483" lon="9.5866217"><ele>122.0</ele><time>2026-04-10T10:28:20.841Z</time></trkpt><trkpt lat="44.9611683" lon="9.5866783"><ele>122.0</ele><time>2026-04-10T10:28:21.844Z</time></trkpt><trkpt lat="44.960985" lon="9.586735"><ele>122.0</ele><time>2026-04-10T10:28:22.839Z</time></trkpt><trkpt lat="44.9607983" lon="9.5867917"><ele>122.0</ele><time>2026-04-10T10:28:23.84Z</time></trkpt><trkpt lat="44.9606117" lon="9.5868483"><ele>121.66666666666666</ele><time>2026-04-10T10:28:24.842Z</time></trkpt><trkpt lat="44.9604243" lon="9.5869057"><ele>121.33333333333334</ele><time>2026-04-10T10:28:25.841Z</time></trkpt><trkpt lat="44.9602351" lon="9.5869642"><ele>121.0</ele><time>2026-04-10T10:28:26.847Z</time></trkpt><trkpt lat="44.9600446" lon="9.5870214"><ele>121.66666666666667</ele><time>2026-04-10T10:28:27.841Z</time></trkpt><trkpt lat="44.959853" lon="9.5870843"><ele>122.33333333333334</ele><time>2026-04-10T10:28:28.841Z</time></trkpt><trkpt lat="44.9596622" lon="9.5871551"><ele>123.0</ele><time>2026-04-10T10:28:29.84Z</time></trkpt><trkpt lat="44.9594683" lon="9.5872326"><ele>123.0</ele><time>2026-04-10T10:28:30.84Z</time></trkpt><trkpt lat="44.9592716" lon="9.587313"><ele>123.0</ele><time>2026-04-10T10:28:31.841Z</time></trkpt><trkpt lat="44.9590738" lon="9.5873954"><ele>123.0</ele><time>2026-04-10T10:28:32.842Z</time></trkpt><trkpt lat="44.9588749" lon="9.5874777"><ele>123.33333333333334</ele><time>2026-04-10T10:28:33.84Z</time></trkpt><trkpt lat="44.9586799" lon="9.5875608"><ele>123.66666666666667</ele><time>2026-04-10T10:28:34.84Z</time></trkpt><trkpt lat="44.9584899" lon="9.5876385"><ele>124.0</ele><time>2026-04-10T10:28:35.841Z</time></trkpt><trkpt lat="44.9583016" lon="9.5876981"><ele>124.66666666666667</ele><time>2026-04-10T10:28:36.846Z</time></trkpt><trkpt lat="44.9581084" lon="9.5877271"><ele>125.33333333333334</ele><time>2026-04-10T10:28:37.84Z</time></trkpt><trkpt lat="44.9579065" lon="9.5877101"><ele>126.0</ele><time>2026-04-10T10:28:38.843Z</time></trkpt><trkpt lat="44.9577017" lon="9.5876645"><ele>126.0</ele><time>2026-04-10T10:28:39.84Z</time></trkpt><trkpt lat="44.9574984" lon="9.5876025"><ele>126.0</ele><time>2026-04-10T10:28:40.842Z</time></trkpt><trkpt lat="44.9572985" lon="9.587545"><ele>126.0</ele><time>2026-04-10T10:28:41.84Z</time></trkpt><trkpt lat="44.957101" lon="9.5874976"><ele>126.0</ele><time>2026-04-10T10:28:42.839Z</time></trkpt><trkpt lat="44.9569063" lon="9.5874536"><ele>126.0</ele><time>2026-04-10T10:28:43.84Z</time></trkpt><trkpt lat="44.9567118" lon="9.5874293"><ele>126.0</ele><time>2026-04-10T10:28:44.844Z</time></trkpt><trkpt lat="44.9565147" lon="9.5874435"><ele>126.66666666666666</ele><time>2026-04-10T10:28:45.84Z</time></trkpt><trkpt lat="44.9563183" lon="9.5874937"><ele>127.33333333333333</ele><time>2026-04-10T10:28:46.839Z</time></trkpt><trkpt lat="44.9561217" lon="9.5875546"><ele>128.0</ele><time>2026-04-10T10:28:47.841Z</time></trkpt><trkpt lat="44.9559268" lon="9.587612"><ele>128.0</ele><time>2026-04-10T10:28:48.841Z</time></trkpt><trkpt lat="44.9557328" lon="9.587664"><ele>128.0</ele><time>2026-04-10T10:28:49.841Z</time></trkpt><trkpt lat="44.9555367" lon="9.5877015"><ele>128.0</ele><time>2026-04-10T10:28:50.841Z</time></trkpt><trkpt lat="44.9553427" lon="9.5877151"><ele>128.0</ele><time>2026-04-10T10:28:51.84Z</time></trkpt><trkpt lat="44.9551479" lon="9.5876979"><ele>128.0</ele><time>2026-04-10T10:28:52.841Z</time></trkpt><trkpt lat="44.9549534" lon="9.5876561"><ele>128.0</ele><time>2026-04-10T10:28:53.84Z</time></trkpt><trkpt lat="44.9547641" lon="9.587591"><ele>128.66666666666666</ele><time>2026-04-10T10:28:54.84Z</time></trkpt><trkpt lat="44.9545776" lon="9.5875111"><ele>129.33333333333334</ele><time>2026-04-10T10:28:55.84Z</time></trkpt><trkpt lat="44.9543925" lon="9.5874222"><ele>130.0</ele><time>2026-04-10T10:28:56.846Z</time></trkpt><trkpt lat="44.9542108" lon="9.5873409"><ele>130.0</ele><time>2026-04-10T10:28:57.84Z</time></trkpt><trkpt lat="44.9540264" lon="9.5872616"><ele>130.0</ele><time>2026-04-10T10:28:58.841Z</time></trkpt><trkpt lat="44.9538437" lon="9.5871796"><ele>130.0</ele><time>2026-04-10T10:28:59.841Z</time></trkpt><trkpt lat="44.9536596" lon="9.5870991"><ele>130.0</ele><time>2026-04-10T10:29:00.841Z</time></trkpt><trkpt lat="44.9534762" lon="9.5870285"><ele>130.0</ele><time>2026-04-10T10:29:01.843Z</time></trkpt><trkpt lat="44.9532908" lon="9.5869863"><ele>130.0</ele><time>2026-04-10T10:29:02.842Z</time></trkpt><trkpt lat="44.953114" lon="9.5869856"><ele>130.0</ele><time>2026-04-10T10:29:03.84Z</time></trkpt><trkpt lat="44.9529523" lon="9.5870283"><ele>130.0</ele><time>2026-04-10T10:29:04.84Z</time></trkpt><trkpt lat="44.9528046" lon="9.5870979"><ele>130.0</ele><time>2026-04-10T10:29:05.839Z</time></trkpt><trkpt lat="44.95267" lon="9.587174"><ele>130.0</ele><time>2026-04-10T10:29:06.839Z</time></trkpt><trkpt lat="44.9525595" lon="9.5872319"><ele>130.0</ele><time>2026-04-10T10:29:07.838Z</time></trkpt><trkpt lat="44.9524597" lon="9.587259"><ele>130.0</ele><time>2026-04-10T10:29:08.841Z</time></trkpt><trkpt lat="44.9523596" lon="9.5872346"><ele>130.0</ele><time>2026-04-10T10:29:09.839Z</time></trkpt><trkpt lat="44.9522674" lon="9.58716"><ele>130.0</ele><time>2026-04-10T10:29:10.84Z</time></trkpt><trkpt lat="44.9522106" lon="9.5870343"><ele>131.5</ele><time>2026-04-10T10:29:11.841Z</time></trkpt><trkpt lat="44.952202" lon="9.5868748"><ele>133.0</ele><time>2026-04-10T10:29:12.839Z</time></trkpt><trkpt lat="44.9522229" lon="9.5866727"><ele>134.5</ele><time>2026-04-10T10:29:13.839Z</time></trkpt><trkpt lat="44.9522413" lon="9.5864582"><ele>136.0</ele><time>2026-04-10T10:29:14.84Z</time></trkpt><trkpt lat="44.9522597" lon="9.5862357"><ele>136.33333333333334</ele><time>2026-04-10T10:29:15.839Z</time></trkpt><trkpt lat="44.9522739" lon="9.5859997"><ele>136.66666666666666</ele><time>2026-04-10T10:29:16.839Z</time></trkpt><trkpt lat="44.9522852" lon="9.5857585"><ele>137.0</ele><time>2026-04-10T10:29:17.838Z</time></trkpt><trkpt lat="44.9522939" lon="9.5855145"><ele>137.66666666666666</ele><time>2026-04-10T10:29:18.84Z</time></trkpt><trkpt lat="44.9522992" lon="9.5852681"><ele>138.33333333333334</ele><time>2026-04-10T10:29:19.84Z</time></trkpt><trkpt lat="44.9523094" lon="9.5850221"><ele>139.0</ele><time>2026-04-10T10:29:20.839Z</time></trkpt><trkpt lat="44.9523275" lon="9.5847777"><ele>139.0</ele><time>2026-04-10T10:29:21.843Z</time></trkpt><trkpt lat="44.9523627" lon="9.5845307"><ele>139.0</ele><time>2026-04-10T10:29:22.839Z</time></trkpt><trkpt lat="44.9524137" lon="9.5842838"><ele>139.0</ele><time>2026-04-10T10:29:23.839Z</time></trkpt><trkpt lat="44.9524771" lon="9.5840417"><ele>138.66666666666669</ele><time>2026-04-10T10:29:24.84Z</time></trkpt><trkpt lat="44.9525435" lon="9.5838103"><ele>138.33333333333334</ele><time>2026-04-10T10:29:25.841Z</time></trkpt><trkpt lat="44.9526065" lon="9.5835915"><ele>138.0</ele><time>2026-04-10T10:29:26.839Z</time></trkpt><trkpt lat="44.9526599" lon="9.5833897"><ele>138.25</ele><time>2026-04-10T10:29:27.839Z</time></trkpt><trkpt lat="44.9527051" lon="9.5831982"><ele>138.5</ele><time>2026-04-10T10:29:28.839Z</time></trkpt><trkpt lat="44.9527409" lon="9.5830065"><ele>138.75</ele><time>2026-04-10T10:29:29.838Z</time></trkpt><trkpt lat="44.9527636" lon="9.5828056"><ele>139.0</ele><time>2026-04-10T10:29:30.839Z</time></trkpt><trkpt lat="44.952775" lon="9.5825941"><ele>139.0</ele><time>2026-04-10T10:29:31.839Z</time></trkpt><trkpt lat="44.9527825" lon="9.5823755"><ele>139.0</ele><time>2026-04-10T10:29:32.838Z</time></trkpt><trkpt lat="44.9527902" lon="9.58215"><ele>139.0</ele><time>2026-04-10T10:29:33.844Z</time></trkpt><trkpt lat="44.9527991" lon="9.5819173"><ele>137.66666666666669</ele><time>2026-04-10T10:29:34.839Z</time></trkpt><trkpt lat="44.9528091" lon="9.5816731"><ele>136.33333333333334</ele><time>2026-04-10T10:29:35.84Z</time></trkpt><trkpt lat="44.9528203" lon="9.5814242"><ele>135.0</ele><time>2026-04-10T10:29:36.838Z</time></trkpt><trkpt lat="44.9528342" lon="9.5811732"><ele>134.66666666666666</ele><time>2026-04-10T10:29:37.839Z</time></trkpt><trkpt lat="44.9528509" lon="9.5809185"><ele>134.33333333333331</ele><time>2026-04-10T10:29:38.839Z</time></trkpt><trkpt lat="44.9528641" lon="9.5806683"><ele>134.0</ele><time>2026-04-10T10:29:39.84Z</time></trkpt><trkpt lat="44.9528814" lon="9.5804219"><ele>135.66666666666666</ele><time>2026-04-10T10:29:40.843Z</time></trkpt><trkpt lat="44.9529056" lon="9.5801801"><ele>137.33333333333334</ele><time>2026-04-10T10:29:41.838Z</time></trkpt><trkpt lat="44.9529368" lon="9.5799407"><ele>139.0</ele><time>2026-04-10T10:29:42.838Z</time></trkpt><trkpt lat="44.952972" lon="9.5797067"><ele>139.33333333333334</ele><time>2026-04-10T10:29:43.839Z</time></trkpt><trkpt lat="44.9530093" lon="9.5794723"><ele>139.66666666666666</ele><time>2026-04-10T10:29:44.84Z</time></trkpt><trkpt lat="44.9530468" lon="9.5792446"><ele>140.0</ele><time>2026-04-10T10:29:45.839Z</time></trkpt><trkpt lat="44.9530851" lon="9.5790298"><ele>140.0</ele><time>2026-04-10T10:29:46.838Z</time></trkpt><trkpt lat="44.9531228" lon="9.5788322"><ele>140.0</ele><time>2026-04-10T10:29:47.84Z</time></trkpt><trkpt lat="44.9531539" lon="9.5786547"><ele>140.0</ele><time>2026-04-10T10:29:48.84Z</time></trkpt><trkpt lat="44.9531734" lon="9.5785038"><ele>140.0</ele><time>2026-04-10T10:29:49.841Z</time></trkpt><trkpt lat="44.9531693" lon="9.5783895"><ele>139.8</ele><time>2026-04-10T10:29:50.842Z</time></trkpt><trkpt lat="44.9531471" lon="9.5783"><ele>139.6</ele><time>2026-04-10T10:29:51.843Z</time></trkpt><trkpt lat="44.9530466" lon="9.5782089"><ele>139.4</ele><time>2026-04-10T10:29:53.84Z</time></trkpt><trkpt lat="44.952945" lon="9.5782183"><ele>139.2</ele><time>2026-04-10T10:29:54.84Z</time></trkpt><trkpt lat="44.9528333" lon="9.5782083"><ele>139.0</ele><time>2026-04-10T10:29:55.84Z</time></trkpt><trkpt lat="44.9527017" lon="9.5781967"><ele>139.0</ele><time>2026-04-10T10:29:56.842Z</time></trkpt><trkpt lat="44.95255" lon="9.5781867"><ele>139.0</ele><time>2026-04-10T10:29:57.839Z</time></trkpt><trkpt lat="44.952385" lon="9.578175"><ele>139.0</ele><time>2026-04-10T10:29:58.841Z</time></trkpt><trkpt lat="44.9522133" lon="9.5781567"><ele>140.0</ele><time>2026-04-10T10:29:59.841Z</time></trkpt><trkpt lat="44.952035" lon="9.5781417"><ele>141.0</ele><time>2026-04-10T10:30:00.84Z</time></trkpt><trkpt lat="44.95185" lon="9.5781517"><ele>142.0</ele><time>2026-04-10T10:30:01.845Z</time></trkpt><trkpt lat="44.9516783" lon="9.5782033"><ele>143.66666666666669</ele><time>2026-04-10T10:30:02.844Z</time></trkpt><trkpt lat="44.9515183" lon="9.5782883"><ele>145.33333333333334</ele><time>2026-04-10T10:30:03.843Z</time></trkpt><trkpt lat="44.951365" lon="9.5783817"><ele>147.0</ele><time>2026-04-10T10:30:04.841Z</time></trkpt><trkpt lat="44.9512083" lon="9.578475"><ele>147.0</ele><time>2026-04-10T10:30:05.84Z</time></trkpt><trkpt lat="44.9510467" lon="9.5785733"><ele>147.0</ele><time>2026-04-10T10:30:06.844Z</time></trkpt><trkpt lat="44.950885" lon="9.5786733"><ele>147.0</ele><time>2026-04-10T10:30:07.841Z</time></trkpt><trkpt lat="44.9507217" lon="9.5787683"><ele>148.0</ele><time>2026-04-10T10:30:08.841Z</time></trkpt><trkpt lat="44.9505583" lon="9.5788567"><ele>149.0</ele><time>2026-04-10T10:30:09.84Z</time></trkpt><trkpt lat="44.9503867" lon="9.5789283"><ele>150.0</ele><time>2026-04-10T10:30:10.844Z</time></trkpt><trkpt lat="44.9502083" lon="9.5789733"><ele>151.0</ele><time>2026-04-10T10:30:11.838Z</time></trkpt><trkpt lat="44.9500267" lon="9.57899"><ele>152.0</ele><time>2026-04-10T10:30:12.839Z</time></trkpt><trkpt lat="44.9498417" lon="9.5789883"><ele>153.0</ele><time>2026-04-10T10:30:13.84Z</time></trkpt><trkpt lat="44.9496567" lon="9.57898"><ele>153.0</ele><time>2026-04-10T10:30:14.84Z</time></trkpt><trkpt lat="44.94947" lon="9.5789683"><ele>153.0</ele><time>2026-04-10T10:30:15.842Z</time></trkpt><trkpt lat="44.9492833" lon="9.5789583"><ele>153.0</ele><time>2026-04-10T10:30:16.839Z</time></trkpt><trkpt lat="44.9490967" lon="9.5789533"><ele>154.33333333333334</ele><time>2026-04-10T10:30:17.838Z</time></trkpt><trkpt lat="44.9489117" lon="9.5789617"><ele>155.66666666666669</ele><time>2026-04-10T10:30:18.84Z</time></trkpt><trkpt lat="44.948725" lon="9.57897"><ele>157.0</ele><time>2026-04-10T10:30:19.841Z</time></trkpt><trkpt lat="44.9485367" lon="9.578965"><ele>156.0</ele><time>2026-04-10T10:30:20.839Z</time></trkpt><trkpt lat="44.94835" lon="9.5789517"><ele>155.0</ele><time>2026-04-10T10:30:21.843Z</time></trkpt><trkpt lat="44.9481667" lon="9.5789233"><ele>154.0</ele><time>2026-04-10T10:30:22.838Z</time></trkpt><trkpt lat="44.9479883" lon="9.57886"><ele>154.0</ele><time>2026-04-10T10:30:23.839Z</time></trkpt><trkpt lat="44.947815" lon="9.5787667"><ele>154.0</ele><time>2026-04-10T10:30:24.843Z</time></trkpt><trkpt lat="44.9476467" lon="9.5786583"><ele>154.0</ele><time>2026-04-10T10:30:25.839Z</time></trkpt><trkpt lat="44.9474783" lon="9.5785433"><ele>155.66666666666669</ele><time>2026-04-10T10:30:26.845Z</time></trkpt><trkpt lat="44.9473117" lon="9.57843"><ele>157.33333333333334</ele><time>2026-04-10T10:30:27.838Z</time></trkpt><trkpt lat="44.9471433" lon="9.578315"><ele>159.0</ele><time>2026-04-10T10:30:28.839Z</time></trkpt><trkpt lat="44.94697" lon="9.5782067"><ele>159.0</ele><time>2026-04-10T10:30:29.838Z</time></trkpt><trkpt lat="44.9468017" lon="9.5781117"><ele>159.0</ele><time>2026-04-10T10:30:30.84Z</time></trkpt><trkpt lat="44.94664" lon="9.578035"><ele>159.0</ele><time>2026-04-10T10:30:31.839Z</time></trkpt><trkpt lat="44.9464883" lon="9.5779717"><ele>159.66666666666666</ele><time>2026-04-10T10:30:32.84Z</time></trkpt><trkpt lat="44.9463367" lon="9.5779183"><ele>160.33333333333331</ele><time>2026-04-10T10:30:33.839Z</time></trkpt><trkpt lat="44.9461833" lon="9.5778633"><ele>161.0</ele><time>2026-04-10T10:30:34.839Z</time></trkpt><trkpt lat="44.9460283" lon="9.5778067"><ele>163.33333333333331</ele><time>2026-04-10T10:30:35.84Z</time></trkpt><trkpt lat="44.9458683" lon="9.57774"><ele>165.66666666666666</ele><time>2026-04-10T10:30:36.843Z</time></trkpt><trkpt lat="44.9457067" lon="9.5776717"><ele>168.0</ele><time>2026-04-10T10:30:37.841Z</time></trkpt><trkpt lat="44.9455467" lon="9.5776067"><ele>168.0</ele><time>2026-04-10T10:30:38.841Z</time></trkpt><trkpt lat="44.9453833" lon="9.577545"><ele>168.0</ele><time>2026-04-10T10:30:39.84Z</time></trkpt><trkpt lat="44.9452183" lon="9.5774783"><ele>168.0</ele><time>2026-04-10T10:30:40.84Z</time></trkpt><trkpt lat="44.94505" lon="9.577415"><ele>169.0</ele><time>2026-04-10T10:30:41.839Z</time></trkpt><trkpt lat="44.944875" lon="9.5773583"><ele>170.0</ele><time>2026-04-10T10:30:42.838Z</time></trkpt><trkpt lat="44.9446967" lon="9.5773067"><ele>171.0</ele><time>2026-04-10T10:30:43.84Z</time></trkpt><trkpt lat="44.94451" lon="9.57726"><ele>171.0</ele><time>2026-04-10T10:30:44.841Z</time></trkpt><trkpt lat="44.944325" lon="9.5771983"><ele>171.0</ele><time>2026-04-10T10:30:45.84Z</time></trkpt><trkpt lat="44.94414" lon="9.5771367"><ele>171.0</ele><time>2026-04-10T10:30:46.84Z</time></trkpt><trkpt lat="44.9439533" lon="9.57708"><ele>171.0</ele><time>2026-04-10T10:30:47.842Z</time></trkpt><trkpt lat="44.9437667" lon="9.577025"><ele>171.0</ele><time>2026-04-10T10:30:48.841Z</time></trkpt><trkpt lat="44.943585" lon="9.576975"><ele>171.0</ele><time>2026-04-10T10:30:49.839Z</time></trkpt><trkpt lat="44.943405" lon="9.5769267"><ele>172.0</ele><time>2026-04-10T10:30:50.841Z</time></trkpt><trkpt lat="44.9432267" lon="9.5768733"><ele>173.0</ele><time>2026-04-10T10:30:51.839Z</time></trkpt><trkpt lat="44.9430483" lon="9.57682"><ele>174.0</ele><time>2026-04-10T10:30:52.84Z</time></trkpt><trkpt lat="44.9428717" lon="9.5767617"><ele>174.0</ele><time>2026-04-10T10:30:53.839Z</time></trkpt><trkpt lat="44.9426967" lon="9.5766933"><ele>174.0</ele><time>2026-04-10T10:30:54.842Z</time></trkpt><trkpt lat="44.942525" lon="9.5766183"><ele>174.0</ele><time>2026-04-10T10:30:55.839Z</time></trkpt><trkpt lat="44.9423533" lon="9.5765433"><ele>174.33333333333334</ele><time>2026-04-10T10:30:56.841Z</time></trkpt><trkpt lat="44.9421817" lon="9.5764733"><ele>174.66666666666669</ele><time>2026-04-10T10:30:57.839Z</time></trkpt><trkpt lat="44.9420133" lon="9.5764083"><ele>175.0</ele><time>2026-04-10T10:30:58.84Z</time></trkpt><trkpt lat="44.9418467" lon="9.57635"><ele>175.66666666666669</ele><time>2026-04-10T10:30:59.843Z</time></trkpt><trkpt lat="44.9416767" lon="9.5763067"><ele>176.33333333333334</ele><time>2026-04-10T10:31:00.84Z</time></trkpt><trkpt lat="44.9414967" lon="9.5762883"><ele>177.0</ele><time>2026-04-10T10:31:01.84Z</time></trkpt><trkpt lat="44.9413133" lon="9.5762967"><ele>177.0</ele><time>2026-04-10T10:31:02.841Z</time></trkpt><trkpt lat="44.941125" lon="9.57632"><ele>177.0</ele><time>2026-04-10T10:31:03.839Z</time></trkpt><trkpt lat="44.9409333" lon="9.576345"><ele>177.0</ele><time>2026-04-10T10:31:04.839Z</time></trkpt><trkpt lat="44.94074" lon="9.5763733"><ele>177.33333333333334</ele><time>2026-04-10T10:31:05.839Z</time></trkpt><trkpt lat="44.9405483" lon="9.5764017"><ele>177.66666666666669</ele><time>2026-04-10T10:31:06.84Z</time></trkpt><trkpt lat="44.940365" lon="9.57643"><ele>178.0</ele><time>2026-04-10T10:31:07.84Z</time></trkpt><trkpt lat="44.940185" lon="9.57646"><ele>179.0</ele><time>2026-04-10T10:31:08.845Z</time></trkpt><trkpt lat="44.9400067" lon="9.5764917"><ele>180.0</ele><time>2026-04-10T10:31:09.842Z</time></trkpt><trkpt lat="44.939825" lon="9.5765233"><ele>181.0</ele><time>2026-04-10T10:31:10.84Z</time></trkpt><trkpt lat="44.9396417" lon="9.5765567"><ele>181.0</ele><time>2026-04-10T10:31:11.839Z</time></trkpt><trkpt lat="44.9394583" lon="9.5765867"><ele>181.0</ele><time>2026-04-10T10:31:12.839Z</time></trkpt><trkpt lat="44.9392733" lon="9.576615"><ele>181.0</ele><time>2026-04-10T10:31:13.841Z</time></trkpt><trkpt lat="44.9390867" lon="9.576645"><ele>182.0</ele><time>2026-04-10T10:31:14.84Z</time></trkpt><trkpt lat="44.9389" lon="9.5766733"><ele>183.0</ele><time>2026-04-10T10:31:15.839Z</time></trkpt><trkpt lat="44.9387183" lon="9.57671"><ele>184.0</ele><time>2026-04-10T10:31:16.838Z</time></trkpt><trkpt lat="44.938545" lon="9.5767417"><ele>185.33333333333334</ele><time>2026-04-10T10:31:17.84Z</time></trkpt><trkpt lat="44.9383833" lon="9.5767567"><ele>186.66666666666666</ele><time>2026-04-10T10:31:18.839Z</time></trkpt><trkpt lat="44.93822" lon="9.5767333"><ele>188.0</ele><time>2026-04-10T10:31:19.841Z</time></trkpt><trkpt lat="44.9380517" lon="9.5766783"><ele>188.0</ele><time>2026-04-10T10:31:20.84Z</time></trkpt><trkpt lat="44.9378783" lon="9.5766083"><ele>188.0</ele><time>2026-04-10T10:31:21.839Z</time></trkpt><trkpt lat="44.9377" lon="9.5765333"><ele>188.0</ele><time>2026-04-10T10:31:22.842Z</time></trkpt><trkpt lat="44.9375183" lon="9.5764583"><ele>188.66666666666666</ele><time>2026-04-10T10:31:23.839Z</time></trkpt><trkpt lat="44.937335" lon="9.5763833"><ele>189.33333333333334</ele><time>2026-04-10T10:31:24.841Z</time></trkpt><trkpt lat="44.9371533" lon="9.57632"><ele>190.0</ele><time>2026-04-10T10:31:25.839Z</time></trkpt><trkpt lat="44.9369683" lon="9.5762733"><ele>190.0</ele><time>2026-04-10T10:31:26.84Z</time></trkpt><trkpt lat="44.93678" lon="9.5762433"><ele>190.0</ele><time>2026-04-10T10:31:27.838Z</time></trkpt><trkpt lat="44.9365933" lon="9.5762233"><ele>190.0</ele><time>2026-04-10T10:31:28.841Z</time></trkpt><trkpt lat="44.9364067" lon="9.5762017"><ele>190.0</ele><time>2026-04-10T10:31:29.841Z</time></trkpt><trkpt lat="44.9362183" lon="9.5761833"><ele>190.0</ele><time>2026-04-10T10:31:30.841Z</time></trkpt><trkpt lat="44.9360283" lon="9.576155"><ele>190.0</ele><time>2026-04-10T10:31:31.842Z</time></trkpt><trkpt lat="44.9358383" lon="9.5761333"><ele>191.33333333333334</ele><time>2026-04-10T10:31:32.842Z</time></trkpt><trkpt lat="44.93565" lon="9.5761117"><ele>192.66666666666669</ele><time>2026-04-10T10:31:33.842Z</time></trkpt><trkpt lat="44.9354617" lon="9.57609"><ele>194.0</ele><time>2026-04-10T10:31:34.841Z</time></trkpt><trkpt lat="44.935275" lon="9.5760667"><ele>194.0</ele><time>2026-04-10T10:31:35.847Z</time></trkpt><trkpt lat="44.9350883" lon="9.57604"><ele>194.0</ele><time>2026-04-10T10:31:36.84Z</time></trkpt><trkpt lat="44.9348983" lon="9.576015"><ele>194.0</ele><time>2026-04-10T10:31:37.839Z</time></trkpt><trkpt lat="44.9347067" lon="9.57599"><ele>194.33333333333334</ele><time>2026-04-10T10:31:38.839Z</time></trkpt><trkpt lat="44.9345167" lon="9.5759633"><ele>194.66666666666669</ele><time>2026-04-10T10:31:39.84Z</time></trkpt><trkpt lat="44.9343217" lon="9.57594"><ele>195.0</ele><time>2026-04-10T10:31:40.839Z</time></trkpt><trkpt lat="44.9341283" lon="9.5759183"><ele>195.66666666666669</ele><time>2026-04-10T10:31:41.84Z</time></trkpt><trkpt lat="44.9339367" lon="9.575885"><ele>196.33333333333334</ele><time>2026-04-10T10:31:42.842Z</time></trkpt><trkpt lat="44.9337433" lon="9.5758417"><ele>197.0</ele><time>2026-04-10T10:31:43.839Z</time></trkpt><trkpt lat="44.93355" lon="9.5758"><ele>197.33333333333334</ele><time>2026-04-10T10:31:44.839Z</time></trkpt><trkpt lat="44.9333567" lon="9.5757633"><ele>197.66666666666669</ele><time>2026-04-10T10:31:45.839Z</time></trkpt><trkpt lat="44.9331617" lon="9.5757283"><ele>198.0</ele><time>2026-04-10T10:31:46.838Z</time></trkpt><trkpt lat="44.9329683" lon="9.5756917"><ele>198.0</ele><time>2026-04-10T10:31:47.844Z</time></trkpt><trkpt lat="44.9327717" lon="9.5756517"><ele>198.0</ele><time>2026-04-10T10:31:48.84Z</time></trkpt><trkpt lat="44.9325767" lon="9.57561"><ele>198.0</ele><time>2026-04-10T10:31:49.839Z</time></trkpt><trkpt lat="44.9323833" lon="9.5755683"><ele>199.0</ele><time>2026-04-10T10:31:50.84Z</time></trkpt><trkpt lat="44.9321917" lon="9.5755283"><ele>200.0</ele><time>2026-04-10T10:31:51.839Z</time></trkpt><trkpt lat="44.9320033" lon="9.57549"><ele>201.0</ele><time>2026-04-10T10:31:52.842Z</time></trkpt><trkpt lat="44.931815" lon="9.5754533"><ele>201.66666666666669</ele><time>2026-04-10T10:31:53.839Z</time></trkpt><trkpt lat="44.931625" lon="9.5754183"><ele>202.33333333333334</ele><time>2026-04-10T10:31:54.838Z</time></trkpt><trkpt lat="44.9314317" lon="9.57538"><ele>203.0</ele><time>2026-04-10T10:31:55.839Z</time></trkpt><trkpt lat="44.9312367" lon="9.575345"><ele>203.33333333333334</ele><time>2026-04-10T10:31:56.841Z</time></trkpt><trkpt lat="44.9310433" lon="9.5753067"><ele>203.66666666666669</ele><time>2026-04-10T10:31:57.839Z</time></trkpt><trkpt lat="44.9308517" lon="9.5752633"><ele>204.0</ele><time>2026-04-10T10:31:58.84Z</time></trkpt><trkpt lat="44.9306633" lon="9.5752117"><ele>205.0</ele><time>2026-04-10T10:31:59.84Z</time></trkpt><trkpt lat="44.9304733" lon="9.5751317"><ele>206.0</ele><time>2026-04-10T10:32:00.839Z</time></trkpt><trkpt lat="44.9302917" lon="9.57504"><ele>207.0</ele><time>2026-04-10T10:32:01.839Z</time></trkpt><trkpt lat="44.9301133" lon="9.574945"><ele>208.0</ele><time>2026-04-10T10:32:02.841Z</time></trkpt><trkpt lat="44.92994" lon="9.5748467"><ele>209.0</ele><time>2026-04-10T10:32:03.841Z</time></trkpt><trkpt lat="44.9297667" lon="9.5747467"><ele>210.0</ele><time>2026-04-10T10:32:04.839Z</time></trkpt><trkpt lat="44.9296017" lon="9.5746533"><ele>210.0</ele><time>2026-04-10T10:32:05.839Z</time></trkpt><trkpt lat="44.9294333" lon="9.57456"><ele>210.0</ele><time>2026-04-10T10:32:06.84Z</time></trkpt><trkpt lat="44.929255" lon="9.57446"><ele>210.0</ele><time>2026-04-10T10:32:07.838Z</time></trkpt><trkpt lat="44.9290767" lon="9.5743583"><ele>211.0</ele><time>2026-04-10T10:32:08.84Z</time></trkpt><trkpt lat="44.9289067" lon="9.5742633"><ele>212.0</ele><time>2026-04-10T10:32:09.839Z</time></trkpt><trkpt lat="44.9287433" lon="9.5741717"><ele>213.0</ele><time>2026-04-10T10:32:10.84Z</time></trkpt><trkpt lat="44.928575" lon="9.5740717"><ele>213.0</ele><time>2026-04-10T10:32:11.84Z</time></trkpt><trkpt lat="44.9284117" lon="9.5739833"><ele>213.0</ele><time>2026-04-10T10:32:12.838Z</time></trkpt><trkpt lat="44.92826" lon="9.573905"><ele>213.0</ele><time>2026-04-10T10:32:13.839Z</time></trkpt><trkpt lat="44.9281233" lon="9.57383"><ele>213.2</ele><time>2026-04-10T10:32:14.841Z</time></trkpt><trkpt lat="44.9279983" lon="9.5737617"><ele>213.4</ele><time>2026-04-10T10:32:15.84Z</time></trkpt><trkpt lat="44.927895" lon="9.5737"><ele>213.59999999999997</ele><time>2026-04-10T10:32:16.839Z</time></trkpt><trkpt lat="44.9278183" lon="9.5736167"><ele>213.79999999999998</ele><time>2026-04-10T10:32:17.838Z</time></trkpt><trkpt lat="44.9277717" lon="9.5735083"><ele>214.0</ele><time>2026-04-10T10:32:18.841Z</time></trkpt><trkpt lat="44.9277567" lon="9.5733817"><ele>214.0</ele><time>2026-04-10T10:32:19.838Z</time></trkpt><trkpt lat="44.9277633" lon="9.5732367"><ele>214.0</ele><time>2026-04-10T10:32:20.841Z</time></trkpt><trkpt lat="44.9277867" lon="9.573065"><ele>214.0</ele><time>2026-04-10T10:32:21.839Z</time></trkpt><trkpt lat="44.927815" lon="9.5728717"><ele>214.0</ele><time>2026-04-10T10:32:22.839Z</time></trkpt><trkpt lat="44.9278367" lon="9.572665"><ele>214.66666666666666</ele><time>2026-04-10T10:32:23.84Z</time></trkpt><trkpt lat="44.9278582" lon="9.5724477"><ele>215.33333333333331</ele><time>2026-04-10T10:32:24.838Z</time></trkpt><trkpt lat="44.9278824" lon="9.5722213"><ele>216.0</ele><time>2026-04-10T10:32:25.838Z</time></trkpt><trkpt lat="44.9279102" lon="9.5719957"><ele>216.5</ele><time>2026-04-10T10:32:26.846Z</time></trkpt><trkpt lat="44.9279338" lon="9.5717841"><ele>217.0</ele><time>2026-04-10T10:32:27.84Z</time></trkpt><trkpt lat="44.9279535" lon="9.5715876"><ele>217.5</ele><time>2026-04-10T10:32:28.843Z</time></trkpt><trkpt lat="44.9279708" lon="9.5714033"><ele>218.0</ele><time>2026-04-10T10:32:29.842Z</time></trkpt><trkpt lat="44.9279749" lon="9.5712551"><ele>218.0</ele><time>2026-04-10T10:32:30.84Z</time></trkpt><trkpt lat="44.9279598" lon="9.5711337"><ele>218.0</ele><time>2026-04-10T10:32:31.84Z</time></trkpt><trkpt lat="44.9279115" lon="9.5710244"><ele>218.0</ele><time>2026-04-10T10:32:32.841Z</time></trkpt><trkpt lat="44.9278306" lon="9.5709207"><ele>218.0</ele><time>2026-04-10T10:32:33.841Z</time></trkpt><trkpt lat="44.9277313" lon="9.5708039"><ele>218.0</ele><time>2026-04-10T10:32:34.84Z</time></trkpt><trkpt lat="44.9276207" lon="9.5706574"><ele>218.33333333333334</ele><time>2026-04-10T10:32:35.841Z</time></trkpt><trkpt lat="44.9275088" lon="9.5704839"><ele>218.66666666666669</ele><time>2026-04-10T10:32:36.839Z</time></trkpt><trkpt lat="44.9274001" lon="9.5702903"><ele>219.0</ele><time>2026-04-10T10:32:37.842Z</time></trkpt><trkpt lat="44.9272918" lon="9.5700823"><ele>219.66666666666669</ele><time>2026-04-10T10:32:38.841Z</time></trkpt><trkpt lat="44.9271835" lon="9.5698685"><ele>220.33333333333334</ele><time>2026-04-10T10:32:39.84Z</time></trkpt><trkpt lat="44.9270746" lon="9.5696634"><ele>221.0</ele><time>2026-04-10T10:32:40.839Z</time></trkpt><trkpt lat="44.9269699" lon="9.5694773"><ele>221.25</ele><time>2026-04-10T10:32:41.843Z</time></trkpt><trkpt lat="44.9268684" lon="9.5693143"><ele>221.5</ele><time>2026-04-10T10:32:42.84Z</time></trkpt><trkpt lat="44.9267822" lon="9.5691615"><ele>221.75</ele><time>2026-04-10T10:32:43.838Z</time></trkpt><trkpt lat="44.9267222" lon="9.5689931"><ele>222.0</ele><time>2026-04-10T10:32:44.839Z</time></trkpt><trkpt lat="44.9266817" lon="9.5687968"><ele>222.33333333333331</ele><time>2026-04-10T10:32:45.842Z</time></trkpt><trkpt lat="44.9266598" lon="9.5685764"><ele>222.66666666666666</ele><time>2026-04-10T10:32:46.844Z</time></trkpt><trkpt lat="44.9266513" lon="9.568342"><ele>223.0</ele><time>2026-04-10T10:32:47.839Z</time></trkpt><trkpt lat="44.9266494" lon="9.5680956"><ele>224.0</ele><time>2026-04-10T10:32:48.843Z</time></trkpt><trkpt lat="44.9266487" lon="9.5678414"><ele>225.0</ele><time>2026-04-10T10:32:49.841Z</time></trkpt><trkpt lat="44.9266421" lon="9.5675905"><ele>226.0</ele><time>2026-04-10T10:32:50.84Z</time></trkpt><trkpt lat="44.9266368" lon="9.5673657"><ele>226.0</ele><time>2026-04-10T10:32:51.839Z</time></trkpt><trkpt lat="44.9266297" lon="9.567164"><ele>226.0</ele><time>2026-04-10T10:32:52.839Z</time></trkpt><trkpt lat="44.926623" lon="9.5669792"><ele>226.0</ele><time>2026-04-10T10:32:53.847Z</time></trkpt><trkpt lat="44.926614" lon="9.5667961"><ele>226.0</ele><time>2026-04-10T10:32:54.84Z</time></trkpt><trkpt lat="44.9266042" lon="9.5666125"><ele>226.49999999999997</ele><time>2026-04-10T10:32:55.839Z</time></trkpt><trkpt lat="44.9265975" lon="9.5664561"><ele>227.0</ele><time>2026-04-10T10:32:56.84Z</time></trkpt><trkpt lat="44.9265931" lon="9.5663456"><ele>227.5</ele><time>2026-04-10T10:32:57.84Z</time></trkpt><trkpt lat="44.9265862" lon="9.5662254"><ele>228.0</ele><time>2026-04-10T10:32:59.841Z</time></trkpt><trkpt lat="44.9265033" lon="9.5662428"><ele>228.49999999999997</ele><time>2026-04-10T10:33:03.84Z</time></trkpt><trkpt lat="44.9264489" lon="9.5663135"><ele>229.0</ele><time>2026-04-10T10:33:04.839Z</time></trkpt><trkpt lat="44.9263819" lon="9.5663828"><ele>229.0</ele><time>2026-04-10T10:33:05.84Z</time></trkpt><trkpt lat="44.9262914" lon="9.5664387"><ele>228.99999999999997</ele><time>2026-04-10T10:33:06.845Z</time></trkpt><trkpt lat="44.9261794" lon="9.5664846"><ele>228.99999999999997</ele><time>2026-04-10T10:33:07.84Z</time></trkpt><trkpt lat="44.9260624" lon="9.5665226"><ele>229.0</ele><time>2026-04-10T10:33:08.841Z</time></trkpt><trkpt lat="44.9259594" lon="9.5665574"><ele>229.0</ele><time>2026-04-10T10:33:09.841Z</time></trkpt><trkpt lat="44.9258762" lon="9.5665849"><ele>229.16666666666666</ele><time>2026-04-10T10:33:10.84Z</time></trkpt><trkpt lat="44.9258084" lon="9.5666011"><ele>229.33333333333331</ele><time>2026-04-10T10:33:11.84Z</time></trkpt><trkpt lat="44.9257342" lon="9.5665812"><ele>229.5</ele><time>2026-04-10T10:33:13.841Z</time></trkpt><trkpt lat="44.9257014" lon="9.566463"><ele>229.66666666666669</ele><time>2026-04-10T10:33:15.84Z</time></trkpt><trkpt lat="44.925698" lon="9.5663652"><ele>229.83333333333334</ele><time>2026-04-10T10:33:16.839Z</time></trkpt><trkpt lat="44.9256988" lon="9.5662566"><ele>230.0</ele><time>2026-04-10T10:33:17.842Z</time></trkpt><trkpt lat="44.9257034" lon="9.5661297"><ele>230.0</ele><time>2026-04-10T10:33:18.841Z</time></trkpt><trkpt lat="44.9257044" lon="9.56599"><ele>230.0</ele><time>2026-04-10T10:33:19.84Z</time></trkpt><trkpt lat="44.9256958" lon="9.5658413"><ele>230.0</ele><time>2026-04-10T10:33:20.841Z</time></trkpt><trkpt lat="44.9256775" lon="9.5656947"><ele>230.0</ele><time>2026-04-10T10:33:21.839Z</time></trkpt><trkpt lat="44.9256533" lon="9.5655602"><ele>230.0</ele><time>2026-04-10T10:33:22.839Z</time></trkpt><trkpt lat="44.9256209" lon="9.5654379"><ele>228.4</ele><time>2026-04-10T10:33:23.84Z</time></trkpt><trkpt lat="44.9255802" lon="9.5653288"><ele>226.8</ele><time>2026-04-10T10:33:24.84Z</time></trkpt><trkpt lat="44.9255175" lon="9.5652168"><ele>225.2</ele><time>2026-04-10T10:33:25.84Z</time></trkpt><trkpt lat="44.9254364" lon="9.5651033"><ele>223.6</ele><time>2026-04-10T10:33:26.839Z</time></trkpt><trkpt lat="44.925353" lon="9.5649846"><ele>222.0</ele><time>2026-04-10T10:33:27.84Z</time></trkpt><trkpt lat="44.9252632" lon="9.5648827"><ele>222.0</ele><time>2026-04-10T10:33:28.839Z</time></trkpt><trkpt lat="44.9251653" lon="9.5647939"><ele>222.0</ele><time>2026-04-10T10:33:29.844Z</time></trkpt><trkpt lat="44.9250516" lon="9.5647111"><ele>222.0</ele><time>2026-04-10T10:33:30.84Z</time></trkpt><trkpt lat="44.9249411" lon="9.5646355"><ele>222.0</ele><time>2026-04-10T10:33:31.839Z</time></trkpt><trkpt lat="44.9248408" lon="9.56457"><ele>220.8</ele><time>2026-04-10T10:33:32.84Z</time></trkpt><trkpt lat="44.9247467" lon="9.564502"><ele>219.6</ele><time>2026-04-10T10:33:33.839Z</time></trkpt><trkpt lat="44.9246744" lon="9.5644178"><ele>218.40000000000003</ele><time>2026-04-10T10:33:34.84Z</time></trkpt><trkpt lat="44.9246228" lon="9.5643332"><ele>217.20000000000002</ele><time>2026-04-10T10:33:35.84Z</time></trkpt><trkpt lat="44.9245798" lon="9.5642344"><ele>216.0</ele><time>2026-04-10T10:33:36.842Z</time></trkpt><trkpt lat="44.9245447" lon="9.5641186"><ele>216.0</ele><time>2026-04-10T10:33:37.841Z</time></trkpt><trkpt lat="44.9245149" lon="9.5639803"><ele>216.0</ele><time>2026-04-10T10:33:38.839Z</time></trkpt><trkpt lat="44.9244841" lon="9.5638629"><ele>216.0</ele><time>2026-04-10T10:33:39.839Z</time></trkpt><trkpt lat="44.9244442" lon="9.5637624"><ele>216.0</ele><time>2026-04-10T10:33:40.838Z</time></trkpt><trkpt lat="44.9243923" lon="9.5636828"><ele>216.0</ele><time>2026-04-10T10:33:41.84Z</time></trkpt><trkpt lat="44.9243217" lon="9.5636194"><ele>216.0</ele><time>2026-04-10T10:33:42.839Z</time></trkpt><trkpt lat="44.9242442" lon="9.5635781"><ele>217.20000000000002</ele><time>2026-04-10T10:33:43.838Z</time></trkpt><trkpt lat="44.9241762" lon="9.5635466"><ele>218.40000000000003</ele><time>2026-04-10T10:33:44.84Z</time></trkpt><trkpt lat="44.9241168" lon="9.5634579"><ele>219.6</ele><time>2026-04-10T10:33:46.839Z</time></trkpt><trkpt lat="44.9241445" lon="9.5632952"><ele>220.8</ele><time>2026-04-10T10:33:48.84Z</time></trkpt><trkpt lat="44.924172" lon="9.5631769"><ele>222.0</ele><time>2026-04-10T10:33:49.84Z</time></trkpt><trkpt lat="44.9242035" lon="9.5630282"><ele>221.5</ele><time>2026-04-10T10:33:50.841Z</time></trkpt><trkpt lat="44.9242353" lon="9.5628593"><ele>221.0</ele><time>2026-04-10T10:33:51.841Z</time></trkpt><trkpt lat="44.9242718" lon="9.5626818"><ele>220.5</ele><time>2026-04-10T10:33:52.838Z</time></trkpt><trkpt lat="44.9243056" lon="9.562517"><ele>220.0</ele><time>2026-04-10T10:33:53.843Z</time></trkpt><trkpt lat="44.9243375" lon="9.5623639"><ele>220.0</ele><time>2026-04-10T10:33:54.84Z</time></trkpt><trkpt lat="44.9243708" lon="9.5622069"><ele>220.0</ele><time>2026-04-10T10:33:55.84Z</time></trkpt><trkpt lat="44.9244044" lon="9.562061"><ele>220.0</ele><time>2026-04-10T10:33:56.842Z</time></trkpt><trkpt lat="44.924432" lon="9.5619379"><ele>220.0</ele><time>2026-04-10T10:33:57.84Z</time></trkpt><trkpt lat="44.9244501" lon="9.561836"><ele>220.0</ele><time>2026-04-10T10:33:58.841Z</time></trkpt><trkpt lat="44.9244522" lon="9.5616834"><ele>220.49999999999997</ele><time>2026-04-10T10:34:00.84Z</time></trkpt><trkpt lat="44.9244767" lon="9.5615767"><ele>221.0</ele><time>2026-04-10T10:34:03.846Z</time></trkpt><trkpt lat="44.9245317" lon="9.5615067"><ele>221.5</ele><time>2026-04-10T10:34:05.839Z</time></trkpt><trkpt lat="44.9245383" lon="9.5613733"><ele>222.0</ele><time>2026-04-10T10:34:16.84Z</time></trkpt><trkpt lat="44.924485" lon="9.5612433"><ele>222.49999999999997</ele><time>2026-04-10T10:34:18.84Z</time></trkpt><trkpt lat="44.92443" lon="9.5611767"><ele>223.0</ele><time>2026-04-10T10:34:19.846Z</time></trkpt><trkpt lat="44.9243517" lon="9.56111"><ele>224.2</ele><time>2026-04-10T10:34:20.84Z</time></trkpt><trkpt lat="44.9242483" lon="9.5610283"><ele>225.4</ele><time>2026-04-10T10:34:21.839Z</time></trkpt><trkpt lat="44.9241533" lon="9.5609533"><ele>226.59999999999997</ele><time>2026-04-10T10:34:22.839Z</time></trkpt><trkpt lat="44.924075" lon="9.5609017"><ele>227.79999999999998</ele><time>2026-04-10T10:34:23.921Z</time></trkpt><trkpt lat="44.924005" lon="9.5608683"><ele>229.0</ele><time>2026-04-10T10:34:24.84Z</time></trkpt><trkpt lat="44.9239317" lon="9.56085"><ele>228.99999999999997</ele><time>2026-04-10T10:34:25.84Z</time></trkpt><trkpt lat="44.9238567" lon="9.5608433"><ele>229.0</ele><time>2026-04-10T10:34:26.841Z</time></trkpt><trkpt lat="44.92378" lon="9.5608367"><ele>229.0</ele><time>2026-04-10T10:34:27.84Z</time></trkpt><trkpt lat="44.9237167" lon="9.5608183"><ele>229.0</ele><time>2026-04-10T10:34:28.84Z</time></trkpt><trkpt lat="44.9236017" lon="9.560745"><ele>228.99999999999997</ele><time>2026-04-10T10:34:30.84Z</time></trkpt><trkpt lat="44.923545" lon="9.5606817"><ele>229.0</ele><time>2026-04-10T10:34:31.845Z</time></trkpt><trkpt lat="44.923485" lon="9.560595"><ele>228.99999999999997</ele><time>2026-04-10T10:34:32.84Z</time></trkpt><trkpt lat="44.9234217" lon="9.5604983"><ele>229.0</ele><time>2026-04-10T10:34:33.842Z</time></trkpt><trkpt lat="44.92336" lon="9.5604067"><ele>229.0</ele><time>2026-04-10T10:34:34.84Z</time></trkpt><trkpt lat="44.9233033" lon="9.5603217"><ele>229.0</ele><time>2026-04-10T10:34:35.84Z</time></trkpt><trkpt lat="44.9232483" lon="9.5602333"><ele>228.99999999999997</ele><time>2026-04-10T10:34:36.84Z</time></trkpt><trkpt lat="44.9231983" lon="9.5601617"><ele>229.0</ele><time>2026-04-10T10:34:37.84Z</time></trkpt><trkpt lat="44.9231483" lon="9.5600967"><ele>230.33333333333331</ele><time>2026-04-10T10:34:38.839Z</time></trkpt><trkpt lat="44.923055" lon="9.5599717"><ele>231.66666666666666</ele><time>2026-04-10T10:34:40.84Z</time></trkpt><trkpt lat="44.9230117" lon="9.5599"><ele>233.0</ele><time>2026-04-10T10:34:41.84Z</time></trkpt><trkpt lat="44.922975" lon="9.5598217"><ele>234.33333333333331</ele><time>2026-04-10T10:34:42.845Z</time></trkpt><trkpt lat="44.9229433" lon="9.5597383"><ele>235.66666666666666</ele><time>2026-04-10T10:34:43.84Z</time></trkpt><trkpt lat="44.92291" lon="9.5595767"><ele>237.0</ele><time>2026-04-10T10:34:45.839Z</time></trkpt><trkpt lat="44.9228983" lon="9.5594883"><ele>237.83333333333334</ele><time>2026-04-10T10:34:46.845Z</time></trkpt><trkpt lat="44.9228817" lon="9.55939"><ele>238.66666666666669</ele><time>2026-04-10T10:34:47.839Z</time></trkpt><trkpt lat="44.9228717" lon="9.5592833"><ele>239.5</ele><time>2026-04-10T10:34:48.842Z</time></trkpt><trkpt lat="44.92286" lon="9.5591783"><ele>240.33333333333334</ele><time>2026-04-10T10:34:49.84Z</time></trkpt><trkpt lat="44.9228483" lon="9.559085"><ele>241.16666666666669</ele><time>2026-04-10T10:34:50.84Z</time></trkpt><trkpt lat="44.9228383" lon="9.5589433"><ele>242.0</ele><time>2026-04-10T10:34:52.84Z</time></trkpt><trkpt lat="44.9228633" lon="9.5588233"><ele>242.83333333333334</ele><time>2026-04-10T10:34:54.84Z</time></trkpt><trkpt lat="44.9229117" lon="9.5586917"><ele>243.66666666666669</ele><time>2026-04-10T10:34:56.84Z</time></trkpt><trkpt lat="44.922925" lon="9.5586033"><ele>244.5</ele><time>2026-04-10T10:34:58.84Z</time></trkpt><trkpt lat="44.9229267" lon="9.5585117"><ele>245.33333333333331</ele><time>2026-04-10T10:35:00.845Z</time></trkpt><trkpt lat="44.9229683" lon="9.5584233"><ele>246.16666666666666</ele><time>2026-04-10T10:35:02.839Z</time></trkpt><trkpt lat="44.923085" lon="9.5583383"><ele>247.0</ele><time>2026-04-10T10:35:04.84Z</time></trkpt><trkpt lat="44.92316" lon="9.55829"><ele>246.99999999999997</ele><time>2026-04-10T10:35:05.841Z</time></trkpt><trkpt lat="44.92324" lon="9.5582367"><ele>247.0</ele><time>2026-04-10T10:35:06.84Z</time></trkpt><trkpt lat="44.9233117" lon="9.5581733"><ele>247.0</ele><time>2026-04-10T10:35:07.84Z</time></trkpt><trkpt lat="44.9233733" lon="9.5580917"><ele>247.0</ele><time>2026-04-10T10:35:08.842Z</time></trkpt><trkpt lat="44.92342" lon="9.557995"><ele>246.99999999999997</ele><time>2026-04-10T10:35:09.839Z</time></trkpt><trkpt lat="44.9234467" lon="9.5578917"><ele>247.0</ele><time>2026-04-10T10:35:10.84Z</time></trkpt><trkpt lat="44.9234567" lon="9.557785"><ele>248.2</ele><time>2026-04-10T10:35:11.842Z</time></trkpt><trkpt lat="44.9234217" lon="9.55767"><ele>249.39999999999998</ele><time>2026-04-10T10:35:12.84Z</time></trkpt><trkpt lat="44.92336" lon="9.5575567"><ele>250.60000000000002</ele><time>2026-04-10T10:35:13.919Z</time></trkpt><trkpt lat="44.9232833" lon="9.55744"><ele>251.8</ele><time>2026-04-10T10:35:14.84Z</time></trkpt><trkpt lat="44.9232033" lon="9.5573117"><ele>253.0</ele><time>2026-04-10T10:35:15.84Z</time></trkpt><trkpt lat="44.9231317" lon="9.5571833"><ele>252.99999999999997</ele><time>2026-04-10T10:35:16.84Z</time></trkpt><trkpt lat="44.9230767" lon="9.5570733"><ele>253.0</ele><time>2026-04-10T10:35:17.842Z</time></trkpt><trkpt lat="44.923035" lon="9.5569683"><ele>253.0</ele><time>2026-04-10T10:35:18.843Z</time></trkpt><trkpt lat="44.9230133" lon="9.55685"><ele>253.0</ele><time>2026-04-10T10:35:19.845Z</time></trkpt><trkpt lat="44.923005" lon="9.5567283"><ele>252.99999999999997</ele><time>2026-04-10T10:35:20.843Z</time></trkpt><trkpt lat="44.9230267" lon="9.55661"><ele>253.0</ele><time>2026-04-10T10:35:21.841Z</time></trkpt><trkpt lat="44.9230783" lon="9.5564783"><ele>254.16666666666666</ele><time>2026-04-10T10:35:22.841Z</time></trkpt><trkpt lat="44.9231217" lon="9.5563517"><ele>255.33333333333331</ele><time>2026-04-10T10:35:23.84Z</time></trkpt><trkpt lat="44.92316" lon="9.556235"><ele>256.5</ele><time>2026-04-10T10:35:24.839Z</time></trkpt><trkpt lat="44.9232" lon="9.5561233"><ele>257.6666666666667</ele><time>2026-04-10T10:35:25.839Z</time></trkpt><trkpt lat="44.9232367" lon="9.556015"><ele>258.83333333333337</ele><time>2026-04-10T10:35:26.84Z</time></trkpt><trkpt lat="44.9232633" lon="9.5559083"><ele>260.0</ele><time>2026-04-10T10:35:27.84Z</time></trkpt><trkpt lat="44.9232717" lon="9.555805"><ele>260.5</ele><time>2026-04-10T10:35:28.839Z</time></trkpt><trkpt lat="44.92327" lon="9.5557"><ele>261.0</ele><time>2026-04-10T10:35:29.843Z</time></trkpt><trkpt lat="44.92325" lon="9.5555967"><ele>261.5</ele><time>2026-04-10T10:35:30.84Z</time></trkpt><trkpt lat="44.9232083" lon="9.5554983"><ele>262.0</ele><time>2026-04-10T10:35:31.84Z</time></trkpt><trkpt lat="44.9231517" lon="9.5554067"><ele>262.5</ele><time>2026-04-10T10:35:32.842Z</time></trkpt><trkpt lat="44.9230733" lon="9.5553117"><ele>263.0</ele><time>2026-04-10T10:35:33.838Z</time></trkpt><trkpt lat="44.9229883" lon="9.5552133"><ele>263.0</ele><time>2026-04-10T10:35:34.84Z</time></trkpt><trkpt lat="44.922895" lon="9.555105"><ele>263.0</ele><time>2026-04-10T10:35:35.845Z</time></trkpt><trkpt lat="44.9227867" lon="9.5549917"><ele>263.0</ele><time>2026-04-10T10:35:36.841Z</time></trkpt><trkpt lat="44.9226733" lon="9.5548667"><ele>263.0</ele><time>2026-04-10T10:35:37.839Z</time></trkpt><trkpt lat="44.9225617" lon="9.55474"><ele>267.5</ele><time>2026-04-10T10:35:38.84Z</time></trkpt><trkpt lat="44.9224567" lon="9.5546233"><ele>272.0</ele><time>2026-04-10T10:35:39.84Z</time></trkpt><trkpt lat="44.9223583" lon="9.5545083"><ele>276.5</ele><time>2026-04-10T10:35:40.92Z</time></trkpt><trkpt lat="44.92226" lon="9.5543917"><ele>281.0</ele><time>2026-04-10T10:35:41.839Z</time></trkpt><trkpt lat="44.9221683" lon="9.5542767"><ele>281.0</ele><time>2026-04-10T10:35:42.84Z</time></trkpt><trkpt lat="44.9220767" lon="9.5541683"><ele>281.0</ele><time>2026-04-10T10:35:43.84Z</time></trkpt><trkpt lat="44.921985" lon="9.5540633"><ele>281.0</ele><time>2026-04-10T10:35:44.841Z</time></trkpt><trkpt lat="44.9219017" lon="9.553965"><ele>281.0</ele><time>2026-04-10T10:35:45.84Z</time></trkpt><trkpt lat="44.9218233" lon="9.5538617"><ele>281.0</ele><time>2026-04-10T10:35:46.839Z</time></trkpt><trkpt lat="44.921745" lon="9.553765"><ele>281.0</ele><time>2026-04-10T10:35:47.844Z</time></trkpt><trkpt lat="44.921655" lon="9.55369"><ele>281.0</ele><time>2026-04-10T10:35:48.842Z</time></trkpt><trkpt lat="44.921555" lon="9.5536183"><ele>281.0</ele><time>2026-04-10T10:35:49.842Z</time></trkpt><trkpt lat="44.921445" lon="9.553545"><ele>281.0</ele><time>2026-04-10T10:35:50.843Z</time></trkpt><trkpt lat="44.92133" lon="9.5534667"><ele>284.8</ele><time>2026-04-10T10:35:51.842Z</time></trkpt><trkpt lat="44.921215" lon="9.5533883"><ele>288.6</ele><time>2026-04-10T10:35:52.839Z</time></trkpt><trkpt lat="44.9211133" lon="9.5533133"><ele>292.4</ele><time>2026-04-10T10:35:53.839Z</time></trkpt><trkpt lat="44.9210233" lon="9.5532417"><ele>296.2</ele><time>2026-04-10T10:35:54.839Z</time></trkpt><trkpt lat="44.9209367" lon="9.5531783"><ele>300.0</ele><time>2026-04-10T10:35:55.84Z</time></trkpt><trkpt lat="44.920865" lon="9.5531267"><ele>301.71428571428567</ele><time>2026-04-10T10:35:56.842Z</time></trkpt><trkpt lat="44.9208" lon="9.5530783"><ele>303.42857142857144</ele><time>2026-04-10T10:35:57.842Z</time></trkpt><trkpt lat="44.9207433" lon="9.5530333"><ele>305.1428571428571</ele><time>2026-04-10T10:35:58.84Z</time></trkpt><trkpt lat="44.9206833" lon="9.5530017"><ele>306.85714285714283</ele><time>2026-04-10T10:35:59.839Z</time></trkpt><trkpt lat="44.9206183" lon="9.5529833"><ele>308.57142857142856</ele><time>2026-04-10T10:36:00.839Z</time></trkpt><trkpt lat="44.9205483" lon="9.5529717"><ele>310.2857142857143</ele><time>2026-04-10T10:36:01.839Z</time></trkpt><trkpt lat="44.9204683" lon="9.552955"><ele>312.0</ele><time>2026-04-10T10:36:02.843Z</time></trkpt><trkpt lat="44.920385" lon="9.552935"><ele>312.0</ele><time>2026-04-10T10:36:03.84Z</time></trkpt><trkpt lat="44.9203" lon="9.552905"><ele>312.0</ele><time>2026-04-10T10:36:04.84Z</time></trkpt><trkpt lat="44.9202167" lon="9.5528683"><ele>312.0</ele><time>2026-04-10T10:36:05.84Z</time></trkpt><trkpt lat="44.92014" lon="9.55283"><ele>312.0</ele><time>2026-04-10T10:36:06.839Z</time></trkpt><trkpt lat="44.92007" lon="9.5527933"><ele>312.0</ele><time>2026-04-10T10:36:07.841Z</time></trkpt><trkpt lat="44.9199983" lon="9.552765"><ele>312.0</ele><time>2026-04-10T10:36:08.84Z</time></trkpt><trkpt lat="44.9199333" lon="9.55276"><ele>313.0</ele><time>2026-04-10T10:36:09.84Z</time></trkpt><trkpt lat="44.9198483" lon="9.5527833"><ele>314.0</ele><time>2026-04-10T10:36:10.839Z</time></trkpt><trkpt lat="44.91974" lon="9.55283"><ele>315.0</ele><time>2026-04-10T10:36:11.842Z</time></trkpt><trkpt lat="44.9196183" lon="9.5528817"><ele>316.0</ele><time>2026-04-10T10:36:12.839Z</time></trkpt><trkpt lat="44.919485" lon="9.5529317"><ele>316.0</ele><time>2026-04-10T10:36:13.839Z</time></trkpt><trkpt lat="44.9193417" lon="9.552985"><ele>316.0</ele><time>2026-04-10T10:36:14.842Z</time></trkpt><trkpt lat="44.9191917" lon="9.5530383"><ele>316.0</ele><time>2026-04-10T10:36:15.839Z</time></trkpt><trkpt lat="44.9190383" lon="9.553085"><ele>316.25</ele><time>2026-04-10T10:36:16.845Z</time></trkpt><trkpt lat="44.9188933" lon="9.553105"><ele>316.5</ele><time>2026-04-10T10:36:17.841Z</time></trkpt><trkpt lat="44.9187467" lon="9.5530983"><ele>316.75</ele><time>2026-04-10T10:36:18.841Z</time></trkpt><trkpt lat="44.9185917" lon="9.5530817"><ele>317.0</ele><time>2026-04-10T10:36:19.842Z</time></trkpt><trkpt lat="44.9184267" lon="9.553075"><ele>317.33333333333337</ele><time>2026-04-10T10:36:20.842Z</time></trkpt><trkpt lat="44.9182633" lon="9.5530883"><ele>317.6666666666667</ele><time>2026-04-10T10:36:21.841Z</time></trkpt><trkpt lat="44.9181117" lon="9.55311"><ele>318.0</ele><time>2026-04-10T10:36:22.841Z</time></trkpt><trkpt lat="44.9179633" lon="9.553135"><ele>318.0</ele><time>2026-04-10T10:36:23.845Z</time></trkpt><trkpt lat="44.9178183" lon="9.5531633"><ele>318.0</ele><time>2026-04-10T10:36:24.841Z</time></trkpt><trkpt lat="44.9176817" lon="9.55319"><ele>318.0</ele><time>2026-04-10T10:36:25.84Z</time></trkpt><trkpt lat="44.91755" lon="9.5532317"><ele>318.0</ele><time>2026-04-10T10:36:26.842Z</time></trkpt><trkpt lat="44.91742" lon="9.55329"><ele>318.5</ele><time>2026-04-10T10:36:27.841Z</time></trkpt><trkpt lat="44.917295" lon="9.5533617"><ele>319.0</ele><time>2026-04-10T10:36:28.839Z</time></trkpt><trkpt lat="44.9171733" lon="9.5534367"><ele>319.5</ele><time>2026-04-10T10:36:29.84Z</time></trkpt><trkpt lat="44.9170633" lon="9.55351"><ele>320.0</ele><time>2026-04-10T10:36:30.84Z</time></trkpt><trkpt lat="44.9169767" lon="9.55359"><ele>320.0</ele><time>2026-04-10T10:36:31.84Z</time></trkpt><trkpt lat="44.9169167" lon="9.553695"><ele>320.0</ele><time>2026-04-10T10:36:32.84Z</time></trkpt><trkpt lat="44.916895" lon="9.553825"><ele>320.0</ele><time>2026-04-10T10:36:33.839Z</time></trkpt><trkpt lat="44.9169217" lon="9.5539833"><ele>320.0</ele><time>2026-04-10T10:36:34.839Z</time></trkpt><trkpt lat="44.9170017" lon="9.5541417"><ele>320.0</ele><time>2026-04-10T10:36:35.84Z</time></trkpt><trkpt lat="44.9171083" lon="9.5542933"><ele>318.75</ele><time>2026-04-10T10:36:36.841Z</time></trkpt><trkpt lat="44.9172233" lon="9.5544317"><ele>317.5</ele><time>2026-04-10T10:36:37.841Z</time></trkpt><trkpt lat="44.9173117" lon="9.55457"><ele>316.25</ele><time>2026-04-10T10:36:38.84Z</time></trkpt><trkpt lat="44.917365" lon="9.5547267"><ele>315.0</ele><time>2026-04-10T10:36:39.84Z</time></trkpt><trkpt lat="44.9173867" lon="9.554905"><ele>315.0</ele><time>2026-04-10T10:36:40.839Z</time></trkpt><trkpt lat="44.917385" lon="9.5551017"><ele>315.0</ele><time>2026-04-10T10:36:41.841Z</time></trkpt><trkpt lat="44.9173767" lon="9.5553133"><ele>315.0</ele><time>2026-04-10T10:36:42.841Z</time></trkpt><trkpt lat="44.9173617" lon="9.55551"><ele>315.0</ele><time>2026-04-10T10:36:43.839Z</time></trkpt><trkpt lat="44.9173383" lon="9.5556783"><ele>315.25</ele><time>2026-04-10T10:36:44.841Z</time></trkpt><trkpt lat="44.9173033" lon="9.5558417"><ele>315.5</ele><time>2026-04-10T10:36:45.841Z</time></trkpt><trkpt lat="44.9172567" lon="9.55601"><ele>315.75</ele><time>2026-04-10T10:36:46.84Z</time></trkpt><trkpt lat="44.9172" lon="9.5561883"><ele>316.0</ele><time>2026-04-10T10:36:47.842Z</time></trkpt><trkpt lat="44.917135" lon="9.556375"><ele>316.0</ele><time>2026-04-10T10:36:48.841Z</time></trkpt><trkpt lat="44.9170633" lon="9.5565683"><ele>316.0</ele><time>2026-04-10T10:36:49.842Z</time></trkpt><trkpt lat="44.9169917" lon="9.5567683"><ele>316.0</ele><time>2026-04-10T10:36:50.841Z</time></trkpt><trkpt lat="44.9169167" lon="9.55698"><ele>314.66666666666663</ele><time>2026-04-10T10:36:51.841Z</time></trkpt><trkpt lat="44.916835" lon="9.5572"><ele>313.3333333333333</ele><time>2026-04-10T10:36:52.839Z</time></trkpt><trkpt lat="44.916755" lon="9.557425"><ele>312.0</ele><time>2026-04-10T10:36:53.84Z</time></trkpt><trkpt lat="44.916675" lon="9.5576517"><ele>314.6666666666667</ele><time>2026-04-10T10:36:54.839Z</time></trkpt><trkpt lat="44.9166017" lon="9.5578683"><ele>317.33333333333337</ele><time>2026-04-10T10:36:55.84Z</time></trkpt><trkpt lat="44.9165317" lon="9.5580767"><ele>320.0</ele><time>2026-04-10T10:36:56.841Z</time></trkpt><trkpt lat="44.9164617" lon="9.5582883"><ele>320.0</ele><time>2026-04-10T10:36:57.839Z</time></trkpt><trkpt lat="44.91639" lon="9.5584867"><ele>320.0</ele><time>2026-04-10T10:36:58.842Z</time></trkpt><trkpt lat="44.9163217" lon="9.5586717"><ele>320.0</ele><time>2026-04-10T10:36:59.841Z</time></trkpt><trkpt lat="44.9162633" lon="9.5588533"><ele>320.0</ele><time>2026-04-10T10:37:00.843Z</time></trkpt><trkpt lat="44.9162233" lon="9.559045"><ele>320.0</ele><time>2026-04-10T10:37:01.841Z</time></trkpt><trkpt lat="44.91619" lon="9.55924"><ele>320.0</ele><time>2026-04-10T10:37:02.844Z</time></trkpt><trkpt lat="44.9161467" lon="9.5594267"><ele>320.0</ele><time>2026-04-10T10:37:03.841Z</time></trkpt><trkpt lat="44.916075" lon="9.5595967"><ele>320.0</ele><time>2026-04-10T10:37:04.841Z</time></trkpt><trkpt lat="44.9159833" lon="9.55975"><ele>319.75</ele><time>2026-04-10T10:37:05.842Z</time></trkpt><trkpt lat="44.9158817" lon="9.5598817"><ele>319.5</ele><time>2026-04-10T10:37:06.842Z</time></trkpt><trkpt lat="44.9157733" lon="9.5599967"><ele>319.25</ele><time>2026-04-10T10:37:07.843Z</time></trkpt><trkpt lat="44.9156567" lon="9.560115"><ele>319.0</ele><time>2026-04-10T10:37:08.843Z</time></trkpt><trkpt lat="44.91553" lon="9.560245"><ele>317.0</ele><time>2026-04-10T10:37:09.924Z</time></trkpt><trkpt lat="44.9153983" lon="9.560385"><ele>315.0</ele><time>2026-04-10T10:37:10.841Z</time></trkpt><trkpt lat="44.915255" lon="9.5605367"><ele>313.0</ele><time>2026-04-10T10:37:11.841Z</time></trkpt><trkpt lat="44.9151017" lon="9.560695"><ele>315.0</ele><time>2026-04-10T10:37:12.842Z</time></trkpt><trkpt lat="44.91495" lon="9.5608567"><ele>317.0</ele><time>2026-04-10T10:37:13.841Z</time></trkpt><trkpt lat="44.9148" lon="9.5610183"><ele>319.0</ele><time>2026-04-10T10:37:14.841Z</time></trkpt><trkpt lat="44.91466" lon="9.5611667"><ele>316.66666666666663</ele><time>2026-04-10T10:37:15.841Z</time></trkpt><trkpt lat="44.914525" lon="9.5613033"><ele>314.3333333333333</ele><time>2026-04-10T10:37:16.839Z</time></trkpt><trkpt lat="44.9143917" lon="9.5614383"><ele>312.0</ele><time>2026-04-10T10:37:17.841Z</time></trkpt><trkpt lat="44.9142633" lon="9.5615717"><ele>312.75</ele><time>2026-04-10T10:37:18.84Z</time></trkpt><trkpt lat="44.91414" lon="9.5616983"><ele>313.5</ele><time>2026-04-10T10:37:19.84Z</time></trkpt><trkpt lat="44.9140217" lon="9.5618267"><ele>314.25</ele><time>2026-04-10T10:37:20.841Z</time></trkpt><trkpt lat="44.9139133" lon="9.5619683"><ele>315.0</ele><time>2026-04-10T10:37:21.84Z</time></trkpt><trkpt lat="44.91382" lon="9.5621367"><ele>315.0</ele><time>2026-04-10T10:37:22.839Z</time></trkpt><trkpt lat="44.9137417" lon="9.5623267"><ele>315.0</ele><time>2026-04-10T10:37:23.84Z</time></trkpt><trkpt lat="44.91368" lon="9.56253"><ele>315.0</ele><time>2026-04-10T10:37:24.841Z</time></trkpt><trkpt lat="44.9136367" lon="9.562745"><ele>314.3333333333333</ele><time>2026-04-10T10:37:25.843Z</time></trkpt><trkpt lat="44.913605" lon="9.5629667"><ele>313.66666666666663</ele><time>2026-04-10T10:37:26.84Z</time></trkpt><trkpt lat="44.913585" lon="9.5631983"><ele>313.0</ele><time>2026-04-10T10:37:27.84Z</time></trkpt><trkpt lat="44.91357" lon="9.5634267"><ele>313.0</ele><time>2026-04-10T10:37:28.84Z</time></trkpt><trkpt lat="44.9135533" lon="9.56364"><ele>313.0</ele><time>2026-04-10T10:37:29.839Z</time></trkpt><trkpt lat="44.9135267" lon="9.5638317"><ele>313.0</ele><time>2026-04-10T10:37:30.84Z</time></trkpt><trkpt lat="44.9135" lon="9.5639967"><ele>313.0</ele><time>2026-04-10T10:37:31.84Z</time></trkpt><trkpt lat="44.913485" lon="9.564135"><ele>313.0</ele><time>2026-04-10T10:37:32.841Z</time></trkpt><trkpt lat="44.91347" lon="9.56424"><ele>313.0</ele><time>2026-04-10T10:37:33.841Z</time></trkpt><trkpt lat="44.913415" lon="9.5643267"><ele>313.0</ele><time>2026-04-10T10:37:35.841Z</time></trkpt><trkpt lat="44.9133467" lon="9.5642867"><ele>313.0</ele><time>2026-04-10T10:37:37.84Z</time></trkpt><trkpt lat="44.913255" lon="9.564155"><ele>313.0</ele><time>2026-04-10T10:37:39.84Z</time></trkpt><trkpt lat="44.9132" lon="9.56406"><ele>314.6</ele><time>2026-04-10T10:37:40.845Z</time></trkpt><trkpt lat="44.9131333" lon="9.5639583"><ele>316.20000000000005</ele><time>2026-04-10T10:37:41.84Z</time></trkpt><trkpt lat="44.913065" lon="9.563845"><ele>317.8</ele><time>2026-04-10T10:37:42.84Z</time></trkpt><trkpt lat="44.9129933" lon="9.5637333"><ele>319.40000000000003</ele><time>2026-04-10T10:37:43.84Z</time></trkpt><trkpt lat="44.9129267" lon="9.563615"><ele>321.0</ele><time>2026-04-10T10:37:44.84Z</time></trkpt><trkpt lat="44.91287" lon="9.563495"><ele>321.8</ele><time>2026-04-10T10:37:45.839Z</time></trkpt><trkpt lat="44.9128317" lon="9.563365"><ele>322.6</ele><time>2026-04-10T10:37:46.842Z</time></trkpt><trkpt lat="44.9128067" lon="9.56323"><ele>323.4</ele><time>2026-04-10T10:37:47.842Z</time></trkpt><trkpt lat="44.91279" lon="9.5630833"><ele>324.2</ele><time>2026-04-10T10:37:48.84Z</time></trkpt><trkpt lat="44.91277" lon="9.562935"><ele>325.0</ele><time>2026-04-10T10:37:49.845Z</time></trkpt><trkpt lat="44.9127533" lon="9.5627783"><ele>325.2</ele><time>2026-04-10T10:37:50.84Z</time></trkpt><trkpt lat="44.9127367" lon="9.562615"><ele>325.4</ele><time>2026-04-10T10:37:51.84Z</time></trkpt><trkpt lat="44.9127183" lon="9.5624533"><ele>325.6</ele><time>2026-04-10T10:37:52.839Z</time></trkpt><trkpt lat="44.9126967" lon="9.562305"><ele>325.8</ele><time>2026-04-10T10:37:53.841Z</time></trkpt><trkpt lat="44.9126633" lon="9.5621733"><ele>326.0</ele><time>2026-04-10T10:37:54.842Z</time></trkpt><trkpt lat="44.91262" lon="9.5620567"><ele>326.1666666666667</ele><time>2026-04-10T10:37:55.84Z</time></trkpt><trkpt lat="44.912575" lon="9.5619583"><ele>326.33333333333337</ele><time>2026-04-10T10:37:56.841Z</time></trkpt><trkpt lat="44.9125317" lon="9.5618633"><ele>326.5</ele><time>2026-04-10T10:37:57.84Z</time></trkpt><trkpt lat="44.9124867" lon="9.5617733"><ele>326.6666666666667</ele><time>2026-04-10T10:37:58.839Z</time></trkpt><trkpt lat="44.91244" lon="9.5616967"><ele>326.8333333333333</ele><time>2026-04-10T10:37:59.842Z</time></trkpt><trkpt lat="44.9123917" lon="9.561625"><ele>327.0</ele><time>2026-04-10T10:38:00.84Z</time></trkpt><trkpt lat="44.9123383" lon="9.56156"><ele>328.8333333333333</ele><time>2026-04-10T10:38:01.839Z</time></trkpt><trkpt lat="44.912285" lon="9.5615017"><ele>330.6666666666667</ele><time>2026-04-10T10:38:02.841Z</time></trkpt><trkpt lat="44.9121767" lon="9.5614617"><ele>332.5</ele><time>2026-04-10T10:38:04.84Z</time></trkpt><trkpt lat="44.912115" lon="9.5615017"><ele>334.33333333333337</ele><time>2026-04-10T10:38:05.845Z</time></trkpt><trkpt lat="44.9120417" lon="9.5615417"><ele>336.1666666666667</ele><time>2026-04-10T10:38:06.841Z</time></trkpt><trkpt lat="44.9119633" lon="9.5615633"><ele>338.0</ele><time>2026-04-10T10:38:07.84Z</time></trkpt><trkpt lat="44.9118783" lon="9.5615783"><ele>338.0</ele><time>2026-04-10T10:38:08.84Z</time></trkpt><trkpt lat="44.9117967" lon="9.5615883"><ele>338.0</ele><time>2026-04-10T10:38:09.843Z</time></trkpt><trkpt lat="44.9117283" lon="9.5615983"><ele>338.0</ele><time>2026-04-10T10:38:10.842Z</time></trkpt><trkpt lat="44.91163" lon="9.5616317"><ele>338.0</ele><time>2026-04-10T10:38:12.841Z</time></trkpt><trkpt lat="44.9115633" lon="9.561655"><ele>338.0</ele><time>2026-04-10T10:38:14.841Z</time></trkpt><trkpt lat="44.91157" lon="9.5615617"><ele>338.0</ele><time>2026-04-10T10:38:17.84Z</time></trkpt><trkpt lat="44.9117383" lon="9.5614283"><ele>338.0</ele><time>2026-04-10T10:38:20.841Z</time></trkpt><trkpt lat="44.911795" lon="9.5613767"><ele>338.0</ele><time>2026-04-10T10:38:21.84Z</time></trkpt><trkpt lat="44.91184" lon="9.5613067"><ele>338.0</ele><time>2026-04-10T10:38:22.84Z</time></trkpt><trkpt lat="44.9118817" lon="9.5612217"><ele>338.0</ele><time>2026-04-10T10:38:23.844Z</time></trkpt><trkpt lat="44.9119017" lon="9.5610667"><ele>338.0</ele><time>2026-04-10T10:38:25.843Z</time></trkpt><trkpt lat="44.9118617" lon="9.5609333"><ele>338.0</ele><time>2026-04-10T10:38:27.839Z</time></trkpt><trkpt lat="44.9118183" lon="9.5608617"><ele>338.83333333333337</ele><time>2026-04-10T10:38:28.84Z</time></trkpt><trkpt lat="44.9117617" lon="9.5607883"><ele>339.6666666666667</ele><time>2026-04-10T10:38:29.841Z</time></trkpt><trkpt lat="44.9116967" lon="9.560695"><ele>340.5</ele><time>2026-04-10T10:38:30.842Z</time></trkpt><trkpt lat="44.91163" lon="9.56059"><ele>341.3333333333333</ele><time>2026-04-10T10:38:31.84Z</time></trkpt><trkpt lat="44.9115781" lon="9.5604891"><ele>342.16666666666663</ele><time>2026-04-10T10:38:32.84Z</time></trkpt><trkpt lat="44.9115473" lon="9.5603949"><ele>343.0</ele><time>2026-04-10T10:38:33.841Z</time></trkpt><trkpt lat="44.9115279" lon="9.5602959"><ele>346.0</ele><time>2026-04-10T10:38:34.841Z</time></trkpt><trkpt lat="44.9115179" lon="9.5601896"><ele>349.0</ele><time>2026-04-10T10:38:35.841Z</time></trkpt><trkpt lat="44.9115136" lon="9.5600662"><ele>352.0</ele><time>2026-04-10T10:38:36.84Z</time></trkpt><trkpt lat="44.9115163" lon="9.5599123"><ele>355.0</ele><time>2026-04-10T10:38:37.842Z</time></trkpt><trkpt lat="44.9115173" lon="9.5597455"><ele>358.0</ele><time>2026-04-10T10:38:38.84Z</time></trkpt><trkpt lat="44.9115093" lon="9.5595728"><ele>359.5</ele><time>2026-04-10T10:38:39.841Z</time></trkpt><trkpt lat="44.9114958" lon="9.5593918"><ele>361.0</ele><time>2026-04-10T10:38:40.84Z</time></trkpt><trkpt lat="44.9114768" lon="9.559205"><ele>362.5</ele><time>2026-04-10T10:38:41.84Z</time></trkpt><trkpt lat="44.9114541" lon="9.5590211"><ele>364.0</ele><time>2026-04-10T10:38:42.84Z</time></trkpt><trkpt lat="44.9114347" lon="9.5588431"><ele>365.5</ele><time>2026-04-10T10:38:43.841Z</time></trkpt><trkpt lat="44.911415" lon="9.5586674"><ele>367.0</ele><time>2026-04-10T10:38:44.842Z</time></trkpt><trkpt lat="44.9113968" lon="9.5584892"><ele>368.5</ele><time>2026-04-10T10:38:45.843Z</time></trkpt><trkpt lat="44.9113845" lon="9.5583121"><ele>370.0</ele><time>2026-04-10T10:38:46.84Z</time></trkpt><trkpt lat="44.9113762" lon="9.5581372"><ele>370.0</ele><time>2026-04-10T10:38:47.841Z</time></trkpt><trkpt lat="44.9113666" lon="9.5579734"><ele>370.0</ele><time>2026-04-10T10:38:48.841Z</time></trkpt><trkpt lat="44.9113621" lon="9.5578221"><ele>370.0</ele><time>2026-04-10T10:38:49.842Z</time></trkpt><trkpt lat="44.9113738" lon="9.5576837"><ele>370.0</ele><time>2026-04-10T10:38:50.841Z</time></trkpt><trkpt lat="44.9113986" lon="9.5575631"><ele>370.0</ele><time>2026-04-10T10:38:51.841Z</time></trkpt><trkpt lat="44.911429" lon="9.5574679"><ele>371.16666666666663</ele><time>2026-04-10T10:38:52.84Z</time></trkpt><trkpt lat="44.9114829" lon="9.55733"><ele>372.3333333333333</ele><time>2026-04-10T10:38:54.839Z</time></trkpt><trkpt lat="44.9115005" lon="9.5571826"><ele>373.5</ele><time>2026-04-10T10:38:56.84Z</time></trkpt><trkpt lat="44.9114955" lon="9.5570899"><ele>374.6666666666667</ele><time>2026-04-10T10:38:57.84Z</time></trkpt><trkpt lat="44.9114888" lon="9.5569841"><ele>375.83333333333337</ele><time>2026-04-10T10:38:58.838Z</time></trkpt><trkpt lat="44.9114793" lon="9.5568636"><ele>377.0</ele><time>2026-04-10T10:38:59.84Z</time></trkpt><trkpt lat="44.9114672" lon="9.5567472"><ele>378.6</ele><time>2026-04-10T10:39:00.838Z</time></trkpt><trkpt lat="44.9114632" lon="9.5566461"><ele>380.20000000000005</ele><time>2026-04-10T10:39:01.84Z</time></trkpt><trkpt lat="44.9114523" lon="9.5564924"><ele>381.8</ele><time>2026-04-10T10:39:03.838Z</time></trkpt><trkpt lat="44.9114297" lon="9.5563887"><ele>383.4</ele><time>2026-04-10T10:39:05.838Z</time></trkpt><trkpt lat="44.9113256" lon="9.5563201"><ele>385.0</ele><time>2026-04-10T10:39:07.839Z</time></trkpt><trkpt lat="44.9112351" lon="9.5563051"><ele>385.0</ele><time>2026-04-10T10:39:08.839Z</time></trkpt><trkpt lat="44.9111208" lon="9.5562984"><ele>385.0</ele><time>2026-04-10T10:39:09.839Z</time></trkpt><trkpt lat="44.9109768" lon="9.556299"><ele>385.0</ele><time>2026-04-10T10:39:10.841Z</time></trkpt><trkpt lat="44.9108259" lon="9.5562954"><ele>385.0</ele><time>2026-04-10T10:39:11.84Z</time></trkpt><trkpt lat="44.9106793" lon="9.5562883"><ele>384.5</ele><time>2026-04-10T10:39:12.84Z</time></trkpt><trkpt lat="44.910542" lon="9.5562851"><ele>384.0</ele><time>2026-04-10T10:39:13.839Z</time></trkpt><trkpt lat="44.9104194" lon="9.5562796"><ele>383.5</ele><time>2026-04-10T10:39:14.839Z</time></trkpt><trkpt lat="44.9103072" lon="9.5562704"><ele>383.0</ele><time>2026-04-10T10:39:15.84Z</time></trkpt><trkpt lat="44.9102067" lon="9.5562567"><ele>383.0</ele><time>2026-04-10T10:39:16.84Z</time></trkpt><trkpt lat="44.9101133" lon="9.556245"><ele>383.0</ele><time>2026-04-10T10:39:17.84Z</time></trkpt><trkpt lat="44.9100367" lon="9.556235"><ele>383.0</ele><time>2026-04-10T10:39:18.84Z</time></trkpt><trkpt lat="44.9099733" lon="9.5562317"><ele>383.0</ele><time>2026-04-10T10:39:19.845Z</time></trkpt><trkpt lat="44.9098667" lon="9.556235"><ele>383.0</ele><time>2026-04-10T10:39:21.842Z</time></trkpt><trkpt lat="44.9098" lon="9.5562017"><ele>383.0</ele><time>2026-04-10T10:39:23.841Z</time></trkpt><trkpt lat="44.9097683" lon="9.5561"><ele>384.79999999999995</ele><time>2026-04-10T10:39:26.84Z</time></trkpt><trkpt lat="44.9097217" lon="9.55596"><ele>386.6</ele><time>2026-04-10T10:39:28.84Z</time></trkpt><trkpt lat="44.90966" lon="9.5558467"><ele>388.4</ele><time>2026-04-10T10:39:30.839Z</time></trkpt><trkpt lat="44.90959" lon="9.5557833"><ele>390.20000000000005</ele><time>2026-04-10T10:39:32.839Z</time></trkpt><trkpt lat="44.9094683" lon="9.5557283"><ele>392.0</ele><time>2026-04-10T10:39:34.84Z</time></trkpt><trkpt lat="44.9093917" lon="9.5557083"><ele>392.0</ele><time>2026-04-10T10:39:35.839Z</time></trkpt><trkpt lat="44.9093233" lon="9.55569"><ele>392.0</ele><time>2026-04-10T10:39:36.841Z</time></trkpt><trkpt lat="44.9092667" lon="9.55563"><ele>392.0</ele><time>2026-04-10T10:39:38.84Z</time></trkpt><trkpt lat="44.90932" lon="9.5557033"><ele>392.0</ele><time>2026-04-10T10:39:51.841Z</time></trkpt><trkpt lat="44.909405" lon="9.5557517"><ele>392.0</ele><time>2026-04-10T10:39:53.842Z</time></trkpt><trkpt lat="44.9094733" lon="9.55577"><ele>392.0</ele><time>2026-04-10T10:39:54.842Z</time></trkpt><trkpt lat="44.909545" lon="9.5557717"><ele>392.0</ele><time>2026-04-10T10:39:55.842Z</time></trkpt><trkpt lat="44.9096617" lon="9.5557283"><ele>391.99999999999994</ele><time>2026-04-10T10:39:57.84Z</time></trkpt><trkpt lat="44.9097517" lon="9.55572"><ele>392.0</ele><time>2026-04-10T10:39:59.839Z</time></trkpt><trkpt lat="44.9097967" lon="9.5558067"><ele>392.0</ele><time>2026-04-10T10:40:01.841Z</time></trkpt><trkpt lat="44.9098433" lon="9.5559333"><ele>392.0</ele><time>2026-04-10T10:40:03.84Z</time></trkpt><trkpt lat="44.90988" lon="9.5560467"><ele>391.99999999999994</ele><time>2026-04-10T10:40:05.839Z</time></trkpt><trkpt lat="44.9099133" lon="9.556125"><ele>392.0</ele><time>2026-04-10T10:40:07.839Z</time></trkpt><trkpt lat="44.90999" lon="9.5561583"><ele>390.20000000000005</ele><time>2026-04-10T10:40:10.839Z</time></trkpt><trkpt lat="44.9100767" lon="9.5562117"><ele>388.4</ele><time>2026-04-10T10:40:13.839Z</time></trkpt><trkpt lat="44.9101917" lon="9.5562467"><ele>386.6</ele><time>2026-04-10T10:40:15.84Z</time></trkpt><trkpt lat="44.9102867" lon="9.5562617"><ele>384.79999999999995</ele><time>2026-04-10T10:40:16.84Z</time></trkpt><trkpt lat="44.9104017" lon="9.55628"><ele>383.0</ele><time>2026-04-10T10:40:17.839Z</time></trkpt><trkpt lat="44.910525" lon="9.5562917"><ele>383.0</ele><time>2026-04-10T10:40:18.84Z</time></trkpt><trkpt lat="44.9106517" lon="9.5563"><ele>383.0</ele><time>2026-04-10T10:40:19.841Z</time></trkpt><trkpt lat="44.9107717" lon="9.5563067"><ele>383.0</ele><time>2026-04-10T10:40:20.841Z</time></trkpt><trkpt lat="44.9108817" lon="9.5563133"><ele>383.0</ele><time>2026-04-10T10:40:21.84Z</time></trkpt><trkpt lat="44.910985" lon="9.5563233"><ele>383.33333333333337</ele><time>2026-04-10T10:40:22.839Z</time></trkpt><trkpt lat="44.911085" lon="9.5563417"><ele>383.6666666666667</ele><time>2026-04-10T10:40:23.84Z</time></trkpt><trkpt lat="44.91118" lon="9.5563583"><ele>384.0</ele><time>2026-04-10T10:40:24.84Z</time></trkpt><trkpt lat="44.9112633" lon="9.5563633"><ele>384.33333333333337</ele><time>2026-04-10T10:40:25.84Z</time></trkpt><trkpt lat="44.9113383" lon="9.55636"><ele>384.6666666666667</ele><time>2026-04-10T10:40:26.845Z</time></trkpt><trkpt lat="44.9114033" lon="9.5563417"><ele>385.0</ele><time>2026-04-10T10:40:27.841Z</time></trkpt><trkpt lat="44.9114817" lon="9.55625"><ele>386.4</ele><time>2026-04-10T10:40:29.839Z</time></trkpt><trkpt lat="44.91149" lon="9.55611"><ele>387.8</ele><time>2026-04-10T10:40:31.84Z</time></trkpt><trkpt lat="44.9114433" lon="9.55593"><ele>389.20000000000005</ele><time>2026-04-10T10:40:33.84Z</time></trkpt><trkpt lat="44.911415" lon="9.55581"><ele>390.6</ele><time>2026-04-10T10:40:34.84Z</time></trkpt><trkpt lat="44.9113933" lon="9.5556783"><ele>392.0</ele><time>2026-04-10T10:40:35.843Z</time></trkpt><trkpt lat="44.9113733" lon="9.555545"><ele>392.0</ele><time>2026-04-10T10:40:36.839Z</time></trkpt><trkpt lat="44.91135" lon="9.5554083"><ele>392.0</ele><time>2026-04-10T10:40:37.839Z</time></trkpt><trkpt lat="44.9113217" lon="9.5552633"><ele>392.0</ele><time>2026-04-10T10:40:38.84Z</time></trkpt><trkpt lat="44.9112933" lon="9.5551083"><ele>392.0</ele><time>2026-04-10T10:40:39.839Z</time></trkpt><trkpt lat="44.911265" lon="9.5549567"><ele>392.0</ele><time>2026-04-10T10:40:40.842Z</time></trkpt><trkpt lat="44.9112383" lon="9.5548217"><ele>392.20000000000005</ele><time>2026-04-10T10:40:41.839Z</time></trkpt><trkpt lat="44.9112117" lon="9.55471"><ele>392.4</ele><time>2026-04-10T10:40:42.841Z</time></trkpt><trkpt lat="44.9111483" lon="9.55457"><ele>392.6</ele><time>2026-04-10T10:40:44.841Z</time></trkpt><trkpt lat="44.9110367" lon="9.5544983"><ele>392.79999999999995</ele><time>2026-04-10T10:40:46.839Z</time></trkpt><trkpt lat="44.9109717" lon="9.5544717"><ele>393.0</ele><time>2026-04-10T10:40:47.84Z</time></trkpt><trkpt lat="44.9109033" lon="9.5544367"><ele>394.8333333333333</ele><time>2026-04-10T10:40:48.842Z</time></trkpt><trkpt lat="44.910835" lon="9.5543917"><ele>396.66666666666663</ele><time>2026-04-10T10:40:49.841Z</time></trkpt><trkpt lat="44.91077" lon="9.5543417"><ele>398.5</ele><time>2026-04-10T10:40:50.852Z</time></trkpt><trkpt lat="44.9107033" lon="9.5542817"><ele>400.3333333333333</ele><time>2026-04-10T10:40:51.841Z</time></trkpt><trkpt lat="44.9106217" lon="9.55422"><ele>402.16666666666663</ele><time>2026-04-10T10:40:52.839Z</time></trkpt><trkpt lat="44.9105383" lon="9.5541533"><ele>404.0</ele><time>2026-04-10T10:40:53.841Z</time></trkpt><trkpt lat="44.9104517" lon="9.5540783"><ele>404.0</ele><time>2026-04-10T10:40:54.842Z</time></trkpt><trkpt lat="44.91036" lon="9.554"><ele>404.0</ele><time>2026-04-10T10:40:55.84Z</time></trkpt><trkpt lat="44.9102633" lon="9.5539167"><ele>404.0</ele><time>2026-04-10T10:40:56.841Z</time></trkpt><trkpt lat="44.9101617" lon="9.55383"><ele>404.0</ele><time>2026-04-10T10:40:57.84Z</time></trkpt><trkpt lat="44.9100633" lon="9.5537433"><ele>406.6</ele><time>2026-04-10T10:40:58.842Z</time></trkpt><trkpt lat="44.909975" lon="9.5536667"><ele>409.2</ele><time>2026-04-10T10:40:59.84Z</time></trkpt><trkpt lat="44.9098883" lon="9.5536017"><ele>411.8</ele><time>2026-04-10T10:41:00.839Z</time></trkpt><trkpt lat="44.9098033" lon="9.5535383"><ele>414.40000000000003</ele><time>2026-04-10T10:41:01.839Z</time></trkpt><trkpt lat="44.9097183" lon="9.55348"><ele>417.0</ele><time>2026-04-10T10:41:02.841Z</time></trkpt><trkpt lat="44.9096283" lon="9.5534283"><ele>417.0</ele><time>2026-04-10T10:41:03.839Z</time></trkpt><trkpt lat="44.9095383" lon="9.5533633"><ele>417.0</ele><time>2026-04-10T10:41:04.84Z</time></trkpt><trkpt lat="44.9094517" lon="9.553305"><ele>417.0</ele><time>2026-04-10T10:41:05.841Z</time></trkpt><trkpt lat="44.90937" lon="9.5532533"><ele>417.0</ele><time>2026-04-10T10:41:06.839Z</time></trkpt><trkpt lat="44.9092917" lon="9.5532117"><ele>417.0</ele><time>2026-04-10T10:41:07.839Z</time></trkpt><trkpt lat="44.9092233" lon="9.5531783"><ele>417.0</ele><time>2026-04-10T10:41:08.839Z</time></trkpt><trkpt lat="44.90916" lon="9.55316"><ele>418.8333333333333</ele><time>2026-04-10T10:41:09.84Z</time></trkpt><trkpt lat="44.90909" lon="9.553165"><ele>420.66666666666663</ele><time>2026-04-10T10:41:10.843Z</time></trkpt><trkpt lat="44.9090167" lon="9.5531717"><ele>422.5</ele><time>2026-04-10T10:41:11.84Z</time></trkpt><trkpt lat="44.9089417" lon="9.55317"><ele>424.3333333333333</ele><time>2026-04-10T10:41:12.84Z</time></trkpt><trkpt lat="44.9088533" lon="9.5531567"><ele>426.16666666666663</ele><time>2026-04-10T10:41:13.84Z</time></trkpt><trkpt lat="44.9087417" lon="9.5531267"><ele>428.0</ele><time>2026-04-10T10:41:14.841Z</time></trkpt><trkpt lat="44.9086233" lon="9.5531033"><ele>428.0</ele><time>2026-04-10T10:41:15.842Z</time></trkpt><trkpt lat="44.908495" lon="9.5530867"><ele>427.99999999999994</ele><time>2026-04-10T10:41:16.841Z</time></trkpt><trkpt lat="44.9083818" lon="9.5530792"><ele>427.99999999999994</ele><time>2026-04-10T10:41:17.839Z</time></trkpt><trkpt lat="44.9082883" lon="9.5531"><ele>428.0</ele><time>2026-04-10T10:41:18.84Z</time></trkpt><trkpt lat="44.9082096" lon="9.5531385"><ele>428.0</ele><time>2026-04-10T10:41:19.845Z</time></trkpt><trkpt lat="44.9081382" lon="9.5531727"><ele>429.66666666666663</ele><time>2026-04-10T10:41:20.839Z</time></trkpt><trkpt lat="44.9080657" lon="9.5532026"><ele>431.3333333333333</ele><time>2026-04-10T10:41:21.84Z</time></trkpt><trkpt lat="44.9079899" lon="9.553225"><ele>433.0</ele><time>2026-04-10T10:41:22.84Z</time></trkpt><trkpt lat="44.9079106" lon="9.5532277"><ele>434.66666666666663</ele><time>2026-04-10T10:41:23.84Z</time></trkpt><trkpt lat="44.9078306" lon="9.5532033"><ele>436.3333333333333</ele><time>2026-04-10T10:41:24.84Z</time></trkpt><trkpt lat="44.9077579" lon="9.5531644"><ele>438.0</ele><time>2026-04-10T10:41:25.839Z</time></trkpt><trkpt lat="44.9076922" lon="9.5531371"><ele>438.0</ele><time>2026-04-10T10:41:26.84Z</time></trkpt><trkpt lat="44.9075975" lon="9.5531243"><ele>437.99999999999994</ele><time>2026-04-10T10:41:28.84Z</time></trkpt><trkpt lat="44.9074662" lon="9.5531167"><ele>437.99999999999994</ele><time>2026-04-10T10:41:30.84Z</time></trkpt><trkpt lat="44.9073764" lon="9.5531146"><ele>438.0</ele><time>2026-04-10T10:41:31.84Z</time></trkpt><trkpt lat="44.9072699" lon="9.5531102"><ele>438.0</ele><time>2026-04-10T10:41:32.845Z</time></trkpt><trkpt lat="44.9071524" lon="9.5531045"><ele>439.59999999999997</ele><time>2026-04-10T10:41:33.839Z</time></trkpt><trkpt lat="44.9070392" lon="9.5531038"><ele>441.19999999999993</ele><time>2026-04-10T10:41:34.839Z</time></trkpt><trkpt lat="44.906941" lon="9.5531089"><ele>442.8</ele><time>2026-04-10T10:41:35.841Z</time></trkpt><trkpt lat="44.9068618" lon="9.5531181"><ele>444.4</ele><time>2026-04-10T10:41:36.839Z</time></trkpt><trkpt lat="44.906835" lon="9.5530226"><ele>446.0</ele><time>2026-04-10T10:41:39.838Z</time></trkpt><trkpt lat="44.9069206" lon="9.5528965"><ele>448.4</ele><time>2026-04-10T10:41:41.84Z</time></trkpt><trkpt lat="44.9069912" lon="9.5528212"><ele>450.8</ele><time>2026-04-10T10:41:42.838Z</time></trkpt><trkpt lat="44.9070816" lon="9.5527547"><ele>453.19999999999993</ele><time>2026-04-10T10:41:43.839Z</time></trkpt><trkpt lat="44.9071798" lon="9.5526855"><ele>455.59999999999997</ele><time>2026-04-10T10:41:44.841Z</time></trkpt><trkpt lat="44.9072749" lon="9.5525896"><ele>458.0</ele><time>2026-04-10T10:41:45.839Z</time></trkpt><trkpt lat="44.9073642" lon="9.5524639"><ele>458.0</ele><time>2026-04-10T10:41:46.839Z</time></trkpt><trkpt lat="44.9074546" lon="9.5523474"><ele>457.99999999999994</ele><time>2026-04-10T10:41:47.841Z</time></trkpt><trkpt lat="44.9075405" lon="9.5522661"><ele>457.99999999999994</ele><time>2026-04-10T10:41:48.841Z</time></trkpt><trkpt lat="44.9076287" lon="9.5522054"><ele>458.0</ele><time>2026-04-10T10:41:49.841Z</time></trkpt><trkpt lat="44.9077177" lon="9.5521557"><ele>458.0</ele><time>2026-04-10T10:41:50.842Z</time></trkpt><trkpt lat="44.9077966" lon="9.552107"><ele>456.66666666666663</ele><time>2026-04-10T10:41:51.842Z</time></trkpt><trkpt lat="44.9078661" lon="9.5520621"><ele>455.3333333333333</ele><time>2026-04-10T10:41:52.839Z</time></trkpt><trkpt lat="44.9079314" lon="9.5520093"><ele>454.0</ele><time>2026-04-10T10:41:53.84Z</time></trkpt><trkpt lat="44.9079916" lon="9.5519458"><ele>452.66666666666663</ele><time>2026-04-10T10:41:54.843Z</time></trkpt><trkpt lat="44.9080308" lon="9.5518409"><ele>451.3333333333333</ele><time>2026-04-10T10:41:55.84Z</time></trkpt><trkpt lat="44.9080619" lon="9.5516865"><ele>450.0</ele><time>2026-04-10T10:41:56.842Z</time></trkpt><trkpt lat="44.9080911" lon="9.5514942"><ele>450.0</ele><time>2026-04-10T10:41:57.838Z</time></trkpt><trkpt lat="44.90812" lon="9.5512978"><ele>450.0</ele><time>2026-04-10T10:41:58.838Z</time></trkpt><trkpt lat="44.908143" lon="9.551094"><ele>450.0</ele><time>2026-04-10T10:41:59.839Z</time></trkpt><trkpt lat="44.9081567" lon="9.5508967"><ele>450.0</ele><time>2026-04-10T10:42:00.84Z</time></trkpt><trkpt lat="44.9081783" lon="9.5507217"><ele>451.5</ele><time>2026-04-10T10:42:01.839Z</time></trkpt><trkpt lat="44.908215" lon="9.550555"><ele>453.0</ele><time>2026-04-10T10:42:02.839Z</time></trkpt><trkpt lat="44.9082683" lon="9.5504017"><ele>454.5</ele><time>2026-04-10T10:42:03.841Z</time></trkpt><trkpt lat="44.9083317" lon="9.5502367"><ele>456.0</ele><time>2026-04-10T10:42:04.838Z</time></trkpt><trkpt lat="44.9084067" lon="9.55007"><ele>455.25</ele><time>2026-04-10T10:42:05.84Z</time></trkpt><trkpt lat="44.908485" lon="9.5499083"><ele>454.5</ele><time>2026-04-10T10:42:06.84Z</time></trkpt><trkpt lat="44.9085583" lon="9.5497583"><ele>453.75</ele><time>2026-04-10T10:42:07.841Z</time></trkpt><trkpt lat="44.9086317" lon="9.549615"><ele>453.0</ele><time>2026-04-10T10:42:08.844Z</time></trkpt><trkpt lat="44.9087" lon="9.549465"><ele>453.0</ele><time>2026-04-10T10:42:09.838Z</time></trkpt><trkpt lat="44.908755" lon="9.549325"><ele>452.99999999999994</ele><time>2026-04-10T10:42:10.841Z</time></trkpt><trkpt lat="44.9088033" lon="9.5491867"><ele>452.99999999999994</ele><time>2026-04-10T10:42:11.845Z</time></trkpt><trkpt lat="44.9088433" lon="9.5490467"><ele>453.0</ele><time>2026-04-10T10:42:12.84Z</time></trkpt><trkpt lat="44.9088683" lon="9.5489067"><ele>453.0</ele><time>2026-04-10T10:42:13.84Z</time></trkpt><trkpt lat="44.9088817" lon="9.5487683"><ele>454.59999999999997</ele><time>2026-04-10T10:42:14.84Z</time></trkpt><trkpt lat="44.9088883" lon="9.5486233"><ele>456.19999999999993</ele><time>2026-04-10T10:42:15.839Z</time></trkpt><trkpt lat="44.9088883" lon="9.54847"><ele>457.8</ele><time>2026-04-10T10:42:16.841Z</time></trkpt><trkpt lat="44.9088783" lon="9.54832"><ele>459.4</ele><time>2026-04-10T10:42:17.84Z</time></trkpt><trkpt lat="44.9088567" lon="9.5481533"><ele>461.0</ele><time>2026-04-10T10:42:18.839Z</time></trkpt><trkpt lat="44.9088333" lon="9.5479817"><ele>461.75</ele><time>2026-04-10T10:42:19.839Z</time></trkpt><trkpt lat="44.9088217" lon="9.5478083"><ele>462.5</ele><time>2026-04-10T10:42:20.841Z</time></trkpt><trkpt lat="44.9088183" lon="9.5476333"><ele>463.25</ele><time>2026-04-10T10:42:21.84Z</time></trkpt><trkpt lat="44.9088133" lon="9.5474683"><ele>464.0</ele><time>2026-04-10T10:42:22.843Z</time></trkpt><trkpt lat="44.9088083" lon="9.5473083"><ele>464.0</ele><time>2026-04-10T10:42:23.841Z</time></trkpt><trkpt lat="44.9088083" lon="9.5471617"><ele>464.0</ele><time>2026-04-10T10:42:24.84Z</time></trkpt><trkpt lat="44.908815" lon="9.5470283"><ele>464.0</ele><time>2026-04-10T10:42:25.84Z</time></trkpt><trkpt lat="44.90884" lon="9.54689"><ele>464.0</ele><time>2026-04-10T10:42:26.839Z</time></trkpt><trkpt lat="44.9088733" lon="9.546755"><ele>464.0</ele><time>2026-04-10T10:42:27.843Z</time></trkpt><trkpt lat="44.9089067" lon="9.5466133"><ele>464.6</ele><time>2026-04-10T10:42:28.839Z</time></trkpt><trkpt lat="44.9089417" lon="9.5464717"><ele>465.2</ele><time>2026-04-10T10:42:29.839Z</time></trkpt><trkpt lat="44.9089767" lon="9.54631"><ele>465.80000000000007</ele><time>2026-04-10T10:42:30.839Z</time></trkpt><trkpt lat="44.9090083" lon="9.5461617"><ele>466.40000000000003</ele><time>2026-04-10T10:42:31.84Z</time></trkpt><trkpt lat="44.9090433" lon="9.5460183"><ele>467.0</ele><time>2026-04-10T10:42:32.841Z</time></trkpt><trkpt lat="44.9090817" lon="9.5458717"><ele>467.49999999999994</ele><time>2026-04-10T10:42:33.84Z</time></trkpt><trkpt lat="44.9091217" lon="9.5457267"><ele>468.0</ele><time>2026-04-10T10:42:34.842Z</time></trkpt><trkpt lat="44.9091667" lon="9.5455967"><ele>468.5</ele><time>2026-04-10T10:42:35.84Z</time></trkpt><trkpt lat="44.9092183" lon="9.5454967"><ele>469.0</ele><time>2026-04-10T10:42:36.839Z</time></trkpt><trkpt lat="44.9092717" lon="9.54542"><ele>469.49999999999994</ele><time>2026-04-10T10:42:37.839Z</time></trkpt><trkpt lat="44.9093183" lon="9.5453417"><ele>470.0</ele><time>2026-04-10T10:42:38.841Z</time></trkpt><trkpt lat="44.9093467" lon="9.545245"><ele>470.0</ele><time>2026-04-10T10:42:39.839Z</time></trkpt><trkpt lat="44.9093633" lon="9.5451317"><ele>470.0</ele><time>2026-04-10T10:42:40.839Z</time></trkpt><trkpt lat="44.90937" lon="9.5449967"><ele>470.0</ele><time>2026-04-10T10:42:41.841Z</time></trkpt><trkpt lat="44.909385" lon="9.5448633"><ele>470.0</ele><time>2026-04-10T10:42:42.84Z</time></trkpt><trkpt lat="44.909405" lon="9.544725"><ele>470.0</ele><time>2026-04-10T10:42:43.841Z</time></trkpt><trkpt lat="44.909425" lon="9.5445917"><ele>470.8</ele><time>2026-04-10T10:42:44.839Z</time></trkpt><trkpt lat="44.90945" lon="9.5444633"><ele>471.6</ele><time>2026-04-10T10:42:45.839Z</time></trkpt><trkpt lat="44.909485" lon="9.54434"><ele>472.4</ele><time>2026-04-10T10:42:46.84Z</time></trkpt><trkpt lat="44.90952" lon="9.54421"><ele>473.2</ele><time>2026-04-10T10:42:47.843Z</time></trkpt><trkpt lat="44.9095567" lon="9.5440817"><ele>474.0</ele><time>2026-04-10T10:42:48.838Z</time></trkpt><trkpt lat="44.9096" lon="9.5439533"><ele>474.0</ele><time>2026-04-10T10:42:49.839Z</time></trkpt><trkpt lat="44.9096533" lon="9.5438283"><ele>474.0</ele><time>2026-04-10T10:42:50.84Z</time></trkpt><trkpt lat="44.909715" lon="9.54371"><ele>474.0</ele><time>2026-04-10T10:42:51.839Z</time></trkpt><trkpt lat="44.9097767" lon="9.5435917"><ele>474.0</ele><time>2026-04-10T10:42:52.84Z</time></trkpt><trkpt lat="44.9098283" lon="9.5434683"><ele>474.0</ele><time>2026-04-10T10:42:53.843Z</time></trkpt><trkpt lat="44.9098733" lon="9.543345"><ele>474.4</ele><time>2026-04-10T10:42:54.839Z</time></trkpt><trkpt lat="44.90992" lon="9.5432317"><ele>474.79999999999995</ele><time>2026-04-10T10:42:55.839Z</time></trkpt><trkpt lat="44.90997" lon="9.5431133"><ele>475.20000000000005</ele><time>2026-04-10T10:42:56.84Z</time></trkpt><trkpt lat="44.9100167" lon="9.5429933"><ele>475.6</ele><time>2026-04-10T10:42:57.839Z</time></trkpt><trkpt lat="44.910055" lon="9.5428717"><ele>476.0</ele><time>2026-04-10T10:42:58.84Z</time></trkpt><trkpt lat="44.9100867" lon="9.542735"><ele>476.6</ele><time>2026-04-10T10:42:59.838Z</time></trkpt><trkpt lat="44.9101217" lon="9.5425917"><ele>477.20000000000005</ele><time>2026-04-10T10:43:00.84Z</time></trkpt><trkpt lat="44.9101517" lon="9.5424467"><ele>477.79999999999995</ele><time>2026-04-10T10:43:01.839Z</time></trkpt><trkpt lat="44.910185" lon="9.5423067"><ele>478.4</ele><time>2026-04-10T10:43:02.84Z</time></trkpt><trkpt lat="44.9102167" lon="9.54217"><ele>479.0</ele><time>2026-04-10T10:43:03.841Z</time></trkpt><trkpt lat="44.91024" lon="9.5420317"><ele>480.79999999999995</ele><time>2026-04-10T10:43:04.839Z</time></trkpt><trkpt lat="44.91026" lon="9.5418933"><ele>482.59999999999997</ele><time>2026-04-10T10:43:05.838Z</time></trkpt><trkpt lat="44.910285" lon="9.5417567"><ele>484.4</ele><time>2026-04-10T10:43:06.84Z</time></trkpt><trkpt lat="44.910315" lon="9.541625"><ele>486.2</ele><time>2026-04-10T10:43:07.84Z</time></trkpt><trkpt lat="44.91035" lon="9.5414917"><ele>488.0</ele><time>2026-04-10T10:43:08.839Z</time></trkpt><trkpt lat="44.9103817" lon="9.5413517"><ele>489.59999999999997</ele><time>2026-04-10T10:43:09.84Z</time></trkpt><trkpt lat="44.9104133" lon="9.5412083"><ele>491.19999999999993</ele><time>2026-04-10T10:43:10.839Z</time></trkpt><trkpt lat="44.9104433" lon="9.5410617"><ele>492.8</ele><time>2026-04-10T10:43:11.84Z</time></trkpt><trkpt lat="44.91047" lon="9.54093"><ele>494.4</ele><time>2026-04-10T10:43:12.84Z</time></trkpt><trkpt lat="44.9105017" lon="9.54082"><ele>496.0</ele><time>2026-04-10T10:43:13.84Z</time></trkpt><trkpt lat="44.9105333" lon="9.5407333"><ele>496.0</ele><time>2026-04-10T10:43:14.843Z</time></trkpt><trkpt lat="44.910575" lon="9.5405967"><ele>496.0</ele><time>2026-04-10T10:43:16.84Z</time></trkpt><trkpt lat="44.910585" lon="9.5404367"><ele>496.0</ele><time>2026-04-10T10:43:18.841Z</time></trkpt><trkpt lat="44.9105867" lon="9.5403083"><ele>496.0</ele><time>2026-04-10T10:43:20.849Z</time></trkpt><trkpt lat="44.9105083" lon="9.540235"><ele>496.0</ele><time>2026-04-10T10:43:23.839Z</time></trkpt><trkpt lat="44.910395" lon="9.5401833"><ele>495.50000000000006</ele><time>2026-04-10T10:43:25.839Z</time></trkpt><trkpt lat="44.9103317" lon="9.54014"><ele>495.0</ele><time>2026-04-10T10:43:26.84Z</time></trkpt><trkpt lat="44.9102633" lon="9.5400917"><ele>494.5</ele><time>2026-04-10T10:43:27.84Z</time></trkpt><trkpt lat="44.9101933" lon="9.5400367"><ele>494.0</ele><time>2026-04-10T10:43:28.842Z</time></trkpt><trkpt lat="44.9101183" lon="9.5399733"><ele>493.50000000000006</ele><time>2026-04-10T10:43:29.84Z</time></trkpt><trkpt lat="44.9100533" lon="9.5399017"><ele>493.0</ele><time>2026-04-10T10:43:30.842Z</time></trkpt><trkpt lat="44.91" lon="9.5398367"><ele>494.1428571428571</ele><time>2026-04-10T10:43:31.84Z</time></trkpt><trkpt lat="44.9099017" lon="9.5397767"><ele>495.28571428571433</ele><time>2026-04-10T10:43:33.839Z</time></trkpt><trkpt lat="44.9098383" lon="9.5397833"><ele>496.42857142857144</ele><time>2026-04-10T10:43:34.84Z</time></trkpt><trkpt lat="44.9097733" lon="9.5397967"><ele>497.57142857142856</ele><time>2026-04-10T10:43:35.842Z</time></trkpt><trkpt lat="44.9097033" lon="9.5398067"><ele>498.71428571428567</ele><time>2026-04-10T10:43:36.84Z</time></trkpt><trkpt lat="44.9096383" lon="9.53981"><ele>499.8571428571429</ele><time>2026-04-10T10:43:37.841Z</time></trkpt><trkpt lat="44.90957" lon="9.5398067"><ele>501.0</ele><time>2026-04-10T10:43:38.845Z</time></trkpt><trkpt lat="44.9094967" lon="9.539795"><ele>501.0</ele><time>2026-04-10T10:43:39.839Z</time></trkpt><trkpt lat="44.9094283" lon="9.539775"><ele>501.0</ele><time>2026-04-10T10:43:40.841Z</time></trkpt><trkpt lat="44.909355" lon="9.539755"><ele>501.0</ele><time>2026-04-10T10:43:41.839Z</time></trkpt><trkpt lat="44.9092833" lon="9.53975"><ele>501.0</ele><time>2026-04-10T10:43:42.841Z</time></trkpt><trkpt lat="44.9092117" lon="9.5397567"><ele>501.0</ele><time>2026-04-10T10:43:43.842Z</time></trkpt><trkpt lat="44.9091417" lon="9.5397733"><ele>501.0</ele><time>2026-04-10T10:43:44.845Z</time></trkpt><trkpt lat="44.9090683" lon="9.5397933"><ele>501.0</ele><time>2026-04-10T10:43:45.841Z</time></trkpt><trkpt lat="44.9089867" lon="9.5398133"><ele>503.1666666666667</ele><time>2026-04-10T10:43:46.842Z</time></trkpt><trkpt lat="44.908905" lon="9.5398317"><ele>505.33333333333337</ele><time>2026-04-10T10:43:47.842Z</time></trkpt><trkpt lat="44.908825" lon="9.53985"><ele>507.5</ele><time>2026-04-10T10:43:48.842Z</time></trkpt><trkpt lat="44.9087433" lon="9.53986"><ele>509.6666666666667</ele><time>2026-04-10T10:43:49.839Z</time></trkpt><trkpt lat="44.9086567" lon="9.539865"><ele>511.83333333333337</ele><time>2026-04-10T10:43:50.841Z</time></trkpt><trkpt lat="44.9085583" lon="9.5398683"><ele>514.0</ele><time>2026-04-10T10:43:51.844Z</time></trkpt><trkpt lat="44.90846" lon="9.5398733"><ele>516.0</ele><time>2026-04-10T10:43:52.841Z</time></trkpt><trkpt lat="44.9083767" lon="9.539875"><ele>518.0</ele><time>2026-04-10T10:43:53.841Z</time></trkpt><trkpt lat="44.90831" lon="9.53988"><ele>520.0</ele><time>2026-04-10T10:43:54.839Z</time></trkpt><trkpt lat="44.908225" lon="9.5399283"><ele>522.0</ele><time>2026-04-10T10:43:56.847Z</time></trkpt><trkpt lat="44.90817" lon="9.5400133"><ele>524.0</ele><time>2026-04-10T10:43:58.839Z</time></trkpt><trkpt lat="44.9081217" lon="9.5400917"><ele>526.0</ele><time>2026-04-10T10:44:00.842Z</time></trkpt><trkpt lat="44.908065" lon="9.540195"><ele>526.0</ele><time>2026-04-10T10:44:02.84Z</time></trkpt><trkpt lat="44.9079917" lon="9.54032"><ele>526.0</ele><time>2026-04-10T10:44:04.84Z</time></trkpt><trkpt lat="44.9079217" lon="9.540445"><ele>526.0</ele><time>2026-04-10T10:44:06.841Z</time></trkpt><trkpt lat="44.9078619" lon="9.540566"><ele>526.0</ele><time>2026-04-10T10:44:08.841Z</time></trkpt><trkpt lat="44.9077888" lon="9.5406714"><ele>526.0</ele><time>2026-04-10T10:44:10.84Z</time></trkpt><trkpt lat="44.9077043" lon="9.5407641"><ele>525.2</ele><time>2026-04-10T10:44:12.84Z</time></trkpt><trkpt lat="44.9076223" lon="9.5408537"><ele>524.4000000000001</ele><time>2026-04-10T10:44:14.84Z</time></trkpt><trkpt lat="44.9075393" lon="9.5409182"><ele>523.6</ele><time>2026-04-10T10:44:16.839Z</time></trkpt><trkpt lat="44.9074378" lon="9.5410094"><ele>522.8000000000001</ele><time>2026-04-10T10:44:18.841Z</time></trkpt><trkpt lat="44.9073825" lon="9.5410705"><ele>522.0</ele><time>2026-04-10T10:44:19.838Z</time></trkpt><trkpt lat="44.9073278" lon="9.5411367"><ele>523.6666666666666</ele><time>2026-04-10T10:44:20.846Z</time></trkpt><trkpt lat="44.9072756" lon="9.5412089"><ele>525.3333333333334</ele><time>2026-04-10T10:44:21.839Z</time></trkpt><trkpt lat="44.907224" lon="9.5412794"><ele>527.0</ele><time>2026-04-10T10:44:22.839Z</time></trkpt><trkpt lat="44.9071723" lon="9.5413421"><ele>528.6666666666667</ele><time>2026-04-10T10:44:23.842Z</time></trkpt><trkpt lat="44.9070841" lon="9.5414489"><ele>530.3333333333334</ele><time>2026-04-10T10:44:25.84Z</time></trkpt><trkpt lat="44.9069848" lon="9.5415345"><ele>532.0</ele><time>2026-04-10T10:44:27.839Z</time></trkpt><trkpt lat="44.9068837" lon="9.541578"><ele>532.0</ele><time>2026-04-10T10:44:29.84Z</time></trkpt><trkpt lat="44.9067695" lon="9.5415684"><ele>532.0</ele><time>2026-04-10T10:44:31.842Z</time></trkpt><trkpt lat="44.9066968" lon="9.5415349"><ele>532.0</ele><time>2026-04-10T10:44:33.841Z</time></trkpt><trkpt lat="44.9066639" lon="9.5414172"><ele>532.0</ele><time>2026-04-10T10:44:36.841Z</time></trkpt><trkpt lat="44.9066942" lon="9.5412442"><ele>532.0</ele><time>2026-04-10T10:44:38.841Z</time></trkpt><trkpt lat="44.9066988" lon="9.5411201"><ele>535.8000000000001</ele><time>2026-04-10T10:44:39.839Z</time></trkpt><trkpt lat="44.9066826" lon="9.5409841"><ele>539.6</ele><time>2026-04-10T10:44:40.84Z</time></trkpt><trkpt lat="44.9066567" lon="9.5408432"><ele>543.4000000000001</ele><time>2026-04-10T10:44:41.84Z</time></trkpt><trkpt lat="44.9066297" lon="9.5407056"><ele>547.2</ele><time>2026-04-10T10:44:42.845Z</time></trkpt><trkpt lat="44.9066089" lon="9.5405891"><ele>551.0</ele><time>2026-04-10T10:44:43.84Z</time></trkpt><trkpt lat="44.9065925" lon="9.5404909"><ele>551.0</ele><time>2026-04-10T10:44:44.84Z</time></trkpt><trkpt lat="44.9065766" lon="9.5404032"><ele>551.0</ele><time>2026-04-10T10:44:45.839Z</time></trkpt><trkpt lat="44.9065476" lon="9.5402377"><ele>551.0</ele><time>2026-04-10T10:44:47.839Z</time></trkpt><trkpt lat="44.9065214" lon="9.5401303"><ele>551.0</ele><time>2026-04-10T10:44:49.841Z</time></trkpt><trkpt lat="44.9064795" lon="9.5400161"><ele>551.0</ele><time>2026-04-10T10:44:53.841Z</time></trkpt><trkpt lat="44.9064191" lon="9.5398875"><ele>552.1666666666666</ele><time>2026-04-10T10:44:55.84Z</time></trkpt><trkpt lat="44.9063904" lon="9.5397991"><ele>553.3333333333333</ele><time>2026-04-10T10:44:56.846Z</time></trkpt><trkpt lat="44.9063676" lon="9.5397097"><ele>554.5</ele><time>2026-04-10T10:44:57.84Z</time></trkpt><trkpt lat="44.9063446" lon="9.5396234"><ele>555.6666666666666</ele><time>2026-04-10T10:44:58.839Z</time></trkpt><trkpt lat="44.9062866" lon="9.5394665"><ele>556.8333333333334</ele><time>2026-04-10T10:45:00.84Z</time></trkpt><trkpt lat="44.9062307" lon="9.5393129"><ele>558.0</ele><time>2026-04-10T10:45:02.842Z</time></trkpt><trkpt lat="44.9061706" lon="9.5391562"><ele>558.0</ele><time>2026-04-10T10:45:04.843Z</time></trkpt><trkpt lat="44.9061204" lon="9.5390186"><ele>558.0</ele><time>2026-04-10T10:45:06.842Z</time></trkpt><trkpt lat="44.9060822" lon="9.5389242"><ele>558.0</ele><time>2026-04-10T10:45:08.842Z</time></trkpt><trkpt lat="44.9060101" lon="9.5387363"><ele>558.0</ele><time>2026-04-10T10:45:10.842Z</time></trkpt><trkpt lat="44.9059502" lon="9.5385867"><ele>557.0</ele><time>2026-04-10T10:45:11.84Z</time></trkpt><trkpt lat="44.9058831" lon="9.5384124"><ele>556.0</ele><time>2026-04-10T10:45:12.839Z</time></trkpt><trkpt lat="44.9058131" lon="9.538223"><ele>555.0</ele><time>2026-04-10T10:45:13.84Z</time></trkpt><trkpt lat="44.9057406" lon="9.5380183"><ele>554.6666666666666</ele><time>2026-04-10T10:45:14.84Z</time></trkpt><trkpt lat="44.9056697" lon="9.5378013"><ele>554.3333333333333</ele><time>2026-04-10T10:45:15.839Z</time></trkpt><trkpt lat="44.9056063" lon="9.5375805"><ele>554.0</ele><time>2026-04-10T10:45:16.841Z</time></trkpt><trkpt lat="44.9055525" lon="9.5373536"><ele>554.0</ele><time>2026-04-10T10:45:17.841Z</time></trkpt><trkpt lat="44.9055091" lon="9.53714"><ele>554.0</ele><time>2026-04-10T10:45:18.84Z</time></trkpt><trkpt lat="44.905467" lon="9.536948"><ele>554.0</ele><time>2026-04-10T10:45:19.84Z</time></trkpt><trkpt lat="44.9054143" lon="9.536777"><ele>554.0</ele><time>2026-04-10T10:45:20.841Z</time></trkpt><trkpt lat="44.9053524" lon="9.5366048"><ele>553.5</ele><time>2026-04-10T10:45:21.842Z</time></trkpt><trkpt lat="44.9052799" lon="9.5364354"><ele>553.0</ele><time>2026-04-10T10:45:22.841Z</time></trkpt><trkpt lat="44.9052016" lon="9.5362631"><ele>552.5</ele><time>2026-04-10T10:45:23.839Z</time></trkpt><trkpt lat="44.9051181" lon="9.5360812"><ele>552.0</ele><time>2026-04-10T10:45:24.839Z</time></trkpt><trkpt lat="44.9050341" lon="9.5358936"><ele>552.0</ele><time>2026-04-10T10:45:25.841Z</time></trkpt><trkpt lat="44.9049576" lon="9.535709"><ele>552.0</ele><time>2026-04-10T10:45:26.84Z</time></trkpt><trkpt lat="44.9048957" lon="9.5355184"><ele>552.0</ele><time>2026-04-10T10:45:27.84Z</time></trkpt><trkpt lat="44.9048509" lon="9.5353156"><ele>552.0</ele><time>2026-04-10T10:45:28.841Z</time></trkpt><trkpt lat="44.9048241" lon="9.5351118"><ele>552.0</ele><time>2026-04-10T10:45:29.843Z</time></trkpt><trkpt lat="44.9048078" lon="9.5349182"><ele>552.0</ele><time>2026-04-10T10:45:30.839Z</time></trkpt><trkpt lat="44.9047882" lon="9.5347287"><ele>552.0</ele><time>2026-04-10T10:45:31.84Z</time></trkpt><trkpt lat="44.9047578" lon="9.5345369"><ele>552.0</ele><time>2026-04-10T10:45:32.841Z</time></trkpt><trkpt lat="44.9047133" lon="9.5343373"><ele>552.0</ele><time>2026-04-10T10:45:33.839Z</time></trkpt><trkpt lat="44.9046611" lon="9.5341359"><ele>552.0</ele><time>2026-04-10T10:45:34.841Z</time></trkpt><trkpt lat="44.9046071" lon="9.5339416"><ele>552.0</ele><time>2026-04-10T10:45:35.84Z</time></trkpt><trkpt lat="44.9045519" lon="9.5337583"><ele>550.0</ele><time>2026-04-10T10:45:36.844Z</time></trkpt><trkpt lat="44.9044925" lon="9.5335852"><ele>548.0</ele><time>2026-04-10T10:45:37.839Z</time></trkpt><trkpt lat="44.9044359" lon="9.5334128"><ele>546.0</ele><time>2026-04-10T10:45:38.84Z</time></trkpt><trkpt lat="44.9043894" lon="9.533233"><ele>544.0</ele><time>2026-04-10T10:45:39.84Z</time></trkpt><trkpt lat="44.9043519" lon="9.5330398"><ele>543.75</ele><time>2026-04-10T10:45:40.839Z</time></trkpt><trkpt lat="44.9043075" lon="9.5328469"><ele>543.5</ele><time>2026-04-10T10:45:41.842Z</time></trkpt><trkpt lat="44.9042499" lon="9.5326606"><ele>543.25</ele><time>2026-04-10T10:45:42.84Z</time></trkpt><trkpt lat="44.9041842" lon="9.5324756"><ele>543.0</ele><time>2026-04-10T10:45:43.841Z</time></trkpt><trkpt lat="44.9041154" lon="9.5322907"><ele>543.0</ele><time>2026-04-10T10:45:44.84Z</time></trkpt><trkpt lat="44.9040514" lon="9.5321018"><ele>543.0</ele><time>2026-04-10T10:45:45.841Z</time></trkpt><trkpt lat="44.9039924" lon="9.5319076"><ele>543.0</ele><time>2026-04-10T10:45:46.841Z</time></trkpt><trkpt lat="44.9039297" lon="9.5317015"><ele>541.0</ele><time>2026-04-10T10:45:47.84Z</time></trkpt><trkpt lat="44.9038714" lon="9.5314969"><ele>539.0</ele><time>2026-04-10T10:45:48.839Z</time></trkpt><trkpt lat="44.9038137" lon="9.5313079"><ele>537.0</ele><time>2026-04-10T10:45:49.84Z</time></trkpt><trkpt lat="44.9037558" lon="9.5311357"><ele>535.0</ele><time>2026-04-10T10:45:50.842Z</time></trkpt><trkpt lat="44.9037081" lon="9.5309724"><ele>533.5</ele><time>2026-04-10T10:45:51.839Z</time></trkpt><trkpt lat="44.9036808" lon="9.5308046"><ele>532.0</ele><time>2026-04-10T10:45:52.84Z</time></trkpt><trkpt lat="44.9036659" lon="9.5306324"><ele>530.5</ele><time>2026-04-10T10:45:53.844Z</time></trkpt><trkpt lat="44.9036613" lon="9.530463"><ele>529.0</ele><time>2026-04-10T10:45:54.84Z</time></trkpt><trkpt lat="44.9036789" lon="9.5303078"><ele>529.0</ele><time>2026-04-10T10:45:55.842Z</time></trkpt><trkpt lat="44.9037193" lon="9.5301711"><ele>529.0</ele><time>2026-04-10T10:45:56.841Z</time></trkpt><trkpt lat="44.9037763" lon="9.5300549"><ele>529.0</ele><time>2026-04-10T10:45:57.842Z</time></trkpt><trkpt lat="44.903838" lon="9.529959"><ele>529.0</ele><time>2026-04-10T10:45:58.84Z</time></trkpt><trkpt lat="44.9038883" lon="9.5298705"><ele>529.0</ele><time>2026-04-10T10:45:59.842Z</time></trkpt><trkpt lat="44.9039207" lon="9.5297756"><ele>529.0</ele><time>2026-04-10T10:46:00.843Z</time></trkpt><trkpt lat="44.903938" lon="9.5296762"><ele>529.0</ele><time>2026-04-10T10:46:01.841Z</time></trkpt><trkpt lat="44.9039499" lon="9.5295717"><ele>529.0</ele><time>2026-04-10T10:46:02.841Z</time></trkpt><trkpt lat="44.9039605" lon="9.5294566"><ele>529.0</ele><time>2026-04-10T10:46:03.841Z</time></trkpt><trkpt lat="44.9039675" lon="9.5293292"><ele>529.0</ele><time>2026-04-10T10:46:04.842Z</time></trkpt><trkpt lat="44.903965" lon="9.5291967"><ele>529.0</ele><time>2026-04-10T10:46:05.839Z</time></trkpt><trkpt lat="44.9039528" lon="9.5290708"><ele>529.5</ele><time>2026-04-10T10:46:06.84Z</time></trkpt><trkpt lat="44.903934" lon="9.5289534"><ele>530.0</ele><time>2026-04-10T10:46:07.839Z</time></trkpt><trkpt lat="44.9039093" lon="9.5288427"><ele>530.5</ele><time>2026-04-10T10:46:08.839Z</time></trkpt><trkpt lat="44.9038826" lon="9.5287334"><ele>531.0</ele><time>2026-04-10T10:46:09.839Z</time></trkpt><trkpt lat="44.9038487" lon="9.5286226"><ele>531.5</ele><time>2026-04-10T10:46:10.843Z</time></trkpt><trkpt lat="44.9038064" lon="9.5285136"><ele>532.0</ele><time>2026-04-10T10:46:11.84Z</time></trkpt><trkpt lat="44.9037564" lon="9.5284118"><ele>532.0</ele><time>2026-04-10T10:46:12.841Z</time></trkpt><trkpt lat="44.9036981" lon="9.5283258"><ele>532.0</ele><time>2026-04-10T10:46:13.84Z</time></trkpt><trkpt lat="44.9036345" lon="9.5282516"><ele>532.0</ele><time>2026-04-10T10:46:14.843Z</time></trkpt><trkpt lat="44.9035659" lon="9.528187"><ele>532.0</ele><time>2026-04-10T10:46:15.841Z</time></trkpt><trkpt lat="44.9034919" lon="9.5281318"><ele>532.0</ele><time>2026-04-10T10:46:16.843Z</time></trkpt><trkpt lat="44.903415" lon="9.5280767"><ele>532.0</ele><time>2026-04-10T10:46:17.841Z</time></trkpt><trkpt lat="44.9033417" lon="9.52801"><ele>530.8333333333334</ele><time>2026-04-10T10:46:18.839Z</time></trkpt><trkpt lat="44.9032767" lon="9.5279367"><ele>529.6666666666667</ele><time>2026-04-10T10:46:19.839Z</time></trkpt><trkpt lat="44.903215" lon="9.527855"><ele>528.5</ele><time>2026-04-10T10:46:20.839Z</time></trkpt><trkpt lat="44.9031583" lon="9.5277633"><ele>527.3333333333334</ele><time>2026-04-10T10:46:21.84Z</time></trkpt><trkpt lat="44.903105" lon="9.527665"><ele>526.1666666666666</ele><time>2026-04-10T10:46:22.839Z</time></trkpt><trkpt lat="44.903055" lon="9.52756"><ele>525.0</ele><time>2026-04-10T10:46:23.84Z</time></trkpt><trkpt lat="44.9030067" lon="9.5274533"><ele>524.3333333333334</ele><time>2026-04-10T10:46:24.84Z</time></trkpt><trkpt lat="44.9029583" lon="9.5273417"><ele>523.6666666666666</ele><time>2026-04-10T10:46:25.84Z</time></trkpt><trkpt lat="44.90291" lon="9.527225"><ele>523.0</ele><time>2026-04-10T10:46:26.841Z</time></trkpt><trkpt lat="44.9028617" lon="9.5271183"><ele>522.3333333333333</ele><time>2026-04-10T10:46:27.839Z</time></trkpt><trkpt lat="44.90281" lon="9.52702"><ele>521.6666666666666</ele><time>2026-04-10T10:46:28.839Z</time></trkpt><trkpt lat="44.9027667" lon="9.5269267"><ele>521.0</ele><time>2026-04-10T10:46:29.843Z</time></trkpt><trkpt lat="44.90273" lon="9.52684"><ele>520.2857142857142</ele><time>2026-04-10T10:46:30.841Z</time></trkpt><trkpt lat="44.902705" lon="9.52675"><ele>519.5714285714286</ele><time>2026-04-10T10:46:31.839Z</time></trkpt><trkpt lat="44.902685" lon="9.5266583"><ele>518.8571428571429</ele><time>2026-04-10T10:46:32.845Z</time></trkpt><trkpt lat="44.90267" lon="9.5265667"><ele>518.1428571428571</ele><time>2026-04-10T10:46:33.84Z</time></trkpt><trkpt lat="44.9026583" lon="9.5264733"><ele>517.4285714285714</ele><time>2026-04-10T10:46:34.841Z</time></trkpt><trkpt lat="44.9026483" lon="9.526385"><ele>516.7142857142857</ele><time>2026-04-10T10:46:35.839Z</time></trkpt><trkpt lat="44.9026283" lon="9.52623"><ele>516.0</ele><time>2026-04-10T10:46:37.839Z</time></trkpt><trkpt lat="44.90261" lon="9.5260667"><ele>515.5</ele><time>2026-04-10T10:46:39.84Z</time></trkpt><trkpt lat="44.9026" lon="9.5259417"><ele>515.0</ele><time>2026-04-10T10:46:41.841Z</time></trkpt><trkpt lat="44.9025567" lon="9.525875"><ele>514.5</ele><time>2026-04-10T10:46:43.842Z</time></trkpt><trkpt lat="44.9024933" lon="9.52586"><ele>514.0</ele><time>2026-04-10T10:46:45.841Z</time></trkpt><trkpt lat="44.9024217" lon="9.5258017"><ele>513.5</ele><time>2026-04-10T10:46:47.842Z</time></trkpt><trkpt lat="44.90232" lon="9.5257033"><ele>513.0</ele><time>2026-04-10T10:46:49.841Z</time></trkpt><trkpt lat="44.9022533" lon="9.525635"><ele>515.6666666666666</ele><time>2026-04-10T10:46:50.842Z</time></trkpt><trkpt lat="44.9021867" lon="9.5255717"><ele>518.3333333333334</ele><time>2026-04-10T10:46:51.842Z</time></trkpt><trkpt lat="44.9021133" lon="9.5255233"><ele>521.0</ele><time>2026-04-10T10:46:52.841Z</time></trkpt><trkpt lat="44.9020417" lon="9.5254633"><ele>523.6666666666667</ele><time>2026-04-10T10:46:53.842Z</time></trkpt><trkpt lat="44.90197" lon="9.5254083"><ele>526.3333333333334</ele><time>2026-04-10T10:46:54.842Z</time></trkpt><trkpt lat="44.9019083" lon="9.525335"><ele>529.0</ele><time>2026-04-10T10:46:55.843Z</time></trkpt><trkpt lat="44.901865" lon="9.5252583"><ele>528.4285714285714</ele><time>2026-04-10T10:46:56.842Z</time></trkpt><trkpt lat="44.9018267" lon="9.525185"><ele>527.8571428571429</ele><time>2026-04-10T10:46:57.842Z</time></trkpt><trkpt lat="44.901785" lon="9.525115"><ele>527.2857142857142</ele><time>2026-04-10T10:46:58.84Z</time></trkpt><trkpt lat="44.9017383" lon="9.525035"><ele>526.7142857142858</ele><time>2026-04-10T10:46:59.842Z</time></trkpt><trkpt lat="44.9016967" lon="9.52495"><ele>526.1428571428571</ele><time>2026-04-10T10:47:00.839Z</time></trkpt><trkpt lat="44.9016667" lon="9.524845"><ele>525.5714285714286</ele><time>2026-04-10T10:47:01.841Z</time></trkpt><trkpt lat="44.901645" lon="9.524725"><ele>525.0</ele><time>2026-04-10T10:47:02.847Z</time></trkpt><trkpt lat="44.9016167" lon="9.5245883"><ele>525.25</ele><time>2026-04-10T10:47:03.841Z</time></trkpt><trkpt lat="44.9015667" lon="9.52443"><ele>525.5</ele><time>2026-04-10T10:47:04.84Z</time></trkpt><trkpt lat="44.9014983" lon="9.5242683"><ele>525.75</ele><time>2026-04-10T10:47:05.841Z</time></trkpt><trkpt lat="44.9014267" lon="9.5241267"><ele>526.0</ele><time>2026-04-10T10:47:06.84Z</time></trkpt><trkpt lat="44.9013783" lon="9.5240217"><ele>526.0</ele><time>2026-04-10T10:47:07.84Z</time></trkpt><trkpt lat="44.901345" lon="9.523875"><ele>526.0</ele><time>2026-04-10T10:47:09.84Z</time></trkpt><trkpt lat="44.90142" lon="9.5238133"><ele>526.0</ele><time>2026-04-10T10:47:12.841Z</time></trkpt><trkpt lat="44.9015067" lon="9.5238583"><ele>526.0</ele><time>2026-04-10T10:47:14.84Z</time></trkpt><trkpt lat="44.90162" lon="9.52393"><ele>526.0</ele><time>2026-04-10T10:47:16.839Z</time></trkpt><trkpt lat="44.9016833" lon="9.5239333"><ele>528.5</ele><time>2026-04-10T10:47:17.84Z</time></trkpt><trkpt lat="44.9017533" lon="9.5239067"><ele>531.0</ele><time>2026-04-10T10:47:18.842Z</time></trkpt><trkpt lat="44.9018183" lon="9.5238467"><ele>533.5</ele><time>2026-04-10T10:47:19.842Z</time></trkpt><trkpt lat="44.90188" lon="9.523765"><ele>536.0</ele><time>2026-04-10T10:47:20.84Z</time></trkpt><trkpt lat="44.9019117" lon="9.523635"><ele>538.5</ele><time>2026-04-10T10:47:21.839Z</time></trkpt><trkpt lat="44.901935" lon="9.523495"><ele>541.0</ele><time>2026-04-10T10:47:22.84Z</time></trkpt><trkpt lat="44.9019533" lon="9.52335"><ele>541.0</ele><time>2026-04-10T10:47:23.841Z</time></trkpt><trkpt lat="44.9019683" lon="9.5232167"><ele>541.0</ele><time>2026-04-10T10:47:24.84Z</time></trkpt><trkpt lat="44.901985" lon="9.523105"><ele>541.0</ele><time>2026-04-10T10:47:25.839Z</time></trkpt><trkpt lat="44.90201" lon="9.52301"><ele>541.0</ele><time>2026-04-10T10:47:26.841Z</time></trkpt><trkpt lat="44.9020533" lon="9.5229117"><ele>541.0</ele><time>2026-04-10T10:47:27.842Z</time></trkpt><trkpt lat="44.9021" lon="9.52282"><ele>541.0</ele><time>2026-04-10T10:47:28.839Z</time></trkpt><trkpt lat="44.902145" lon="9.5227317"><ele>540.0</ele><time>2026-04-10T10:47:29.842Z</time></trkpt><trkpt lat="44.9021883" lon="9.5226633"><ele>539.0</ele><time>2026-04-10T10:47:30.841Z</time></trkpt><trkpt lat="44.9022667" lon="9.5225933"><ele>538.0</ele><time>2026-04-10T10:47:32.841Z</time></trkpt><trkpt lat="44.9023783" lon="9.5225617"><ele>537.0</ele><time>2026-04-10T10:47:34.841Z</time></trkpt><trkpt lat="44.9024383" lon="9.5225183"><ele>536.0</ele><time>2026-04-10T10:47:35.841Z</time></trkpt><trkpt lat="44.902495" lon="9.522445"><ele>535.0</ele><time>2026-04-10T10:47:36.849Z</time></trkpt><trkpt lat="44.9025583" lon="9.5223383"><ele>536.2</ele><time>2026-04-10T10:47:37.84Z</time></trkpt><trkpt lat="44.9026083" lon="9.52222"><ele>537.4</ele><time>2026-04-10T10:47:38.839Z</time></trkpt><trkpt lat="44.90265" lon="9.5221017"><ele>538.6</ele><time>2026-04-10T10:47:39.84Z</time></trkpt><trkpt lat="44.902675" lon="9.521965"><ele>539.8</ele><time>2026-04-10T10:47:40.84Z</time></trkpt><trkpt lat="44.9027067" lon="9.5218383"><ele>541.0</ele><time>2026-04-10T10:47:41.84Z</time></trkpt><trkpt lat="44.9027417" lon="9.52171"><ele>541.0</ele><time>2026-04-10T10:47:42.839Z</time></trkpt><trkpt lat="44.902765" lon="9.5215867"><ele>541.0</ele><time>2026-04-10T10:47:43.841Z</time></trkpt><trkpt lat="44.9027783" lon="9.5214617"><ele>541.0</ele><time>2026-04-10T10:47:44.84Z</time></trkpt><trkpt lat="44.902795" lon="9.5213517"><ele>541.0</ele><time>2026-04-10T10:47:45.838Z</time></trkpt><trkpt lat="44.90284" lon="9.5211883"><ele>541.0</ele><time>2026-04-10T10:47:47.839Z</time></trkpt><trkpt lat="44.9028633" lon="9.521095"><ele>540.6666666666667</ele><time>2026-04-10T10:47:48.839Z</time></trkpt><trkpt lat="44.9028883" lon="9.520985"><ele>540.3333333333334</ele><time>2026-04-10T10:47:49.842Z</time></trkpt><trkpt lat="44.902905" lon="9.5208767"><ele>540.0</ele><time>2026-04-10T10:47:50.84Z</time></trkpt><trkpt lat="44.9029133" lon="9.5207883"><ele>539.6666666666666</ele><time>2026-04-10T10:47:51.84Z</time></trkpt><trkpt lat="44.902955" lon="9.5206933"><ele>539.3333333333333</ele><time>2026-04-10T10:47:53.84Z</time></trkpt><trkpt lat="44.9030117" lon="9.5206383"><ele>539.0</ele><time>2026-04-10T10:47:55.842Z</time></trkpt><trkpt lat="44.90307" lon="9.520505"><ele>538.75</ele><time>2026-04-10T10:47:57.844Z</time></trkpt><trkpt lat="44.903125" lon="9.5203383"><ele>538.5</ele><time>2026-04-10T10:47:59.84Z</time></trkpt><trkpt lat="44.9031417" lon="9.5202117"><ele>538.25</ele><time>2026-04-10T10:48:00.839Z</time></trkpt><trkpt lat="44.9031533" lon="9.5200583"><ele>538.0</ele><time>2026-04-10T10:48:01.84Z</time></trkpt><trkpt lat="44.90316" lon="9.51989"><ele>538.0</ele><time>2026-04-10T10:48:02.841Z</time></trkpt><trkpt lat="44.90316" lon="9.5197017"><ele>538.0</ele><time>2026-04-10T10:48:03.839Z</time></trkpt><trkpt lat="44.9031533" lon="9.5195117"><ele>538.0</ele><time>2026-04-10T10:48:04.84Z</time></trkpt><trkpt lat="44.9031517" lon="9.519335"><ele>538.0</ele><time>2026-04-10T10:48:05.839Z</time></trkpt><trkpt lat="44.9031583" lon="9.5191833"><ele>537.6666666666667</ele><time>2026-04-10T10:48:06.841Z</time></trkpt><trkpt lat="44.9031633" lon="9.5190417"><ele>537.3333333333334</ele><time>2026-04-10T10:48:07.84Z</time></trkpt><trkpt lat="44.9031617" lon="9.5189183"><ele>537.0</ele><time>2026-04-10T10:48:08.839Z</time></trkpt><trkpt lat="44.9031567" lon="9.51881"><ele>536.6666666666666</ele><time>2026-04-10T10:48:09.842Z</time></trkpt><trkpt lat="44.903145" lon="9.518705"><ele>536.3333333333333</ele><time>2026-04-10T10:48:10.84Z</time></trkpt><trkpt lat="44.9031283" lon="9.5186033"><ele>536.0</ele><time>2026-04-10T10:48:11.839Z</time></trkpt><trkpt lat="44.9031117" lon="9.5185017"><ele>534.0</ele><time>2026-04-10T10:48:12.838Z</time></trkpt><trkpt lat="44.9031" lon="9.518335"><ele>532.0</ele><time>2026-04-10T10:48:14.842Z</time></trkpt><trkpt lat="44.9030667" lon="9.5181767"><ele>530.0</ele><time>2026-04-10T10:48:16.844Z</time></trkpt><trkpt lat="44.9030017" lon="9.5180417"><ele>528.0</ele><time>2026-04-10T10:48:18.841Z</time></trkpt><trkpt lat="44.9029617" lon="9.5179683"><ele>526.0</ele><time>2026-04-10T10:48:19.842Z</time></trkpt><trkpt lat="44.9029217" lon="9.5178967"><ele>524.6</ele><time>2026-04-10T10:48:20.841Z</time></trkpt><trkpt lat="44.9028717" lon="9.5178283"><ele>523.2</ele><time>2026-04-10T10:48:21.842Z</time></trkpt><trkpt lat="44.9028033" lon="9.517755"><ele>521.8</ele><time>2026-04-10T10:48:22.841Z</time></trkpt><trkpt lat="44.9027117" lon="9.5176817"><ele>520.4</ele><time>2026-04-10T10:48:23.844Z</time></trkpt><trkpt lat="44.90261" lon="9.5175933"><ele>519.0</ele><time>2026-04-10T10:48:24.841Z</time></trkpt><trkpt lat="44.902505" lon="9.5174833"><ele>523.0</ele><time>2026-04-10T10:48:25.841Z</time></trkpt><trkpt lat="44.9024" lon="9.5173517"><ele>527.0</ele><time>2026-04-10T10:48:26.84Z</time></trkpt><trkpt lat="44.902285" lon="9.517215"><ele>531.0</ele><time>2026-04-10T10:48:27.841Z</time></trkpt><trkpt lat="44.9021617" lon="9.5170833"><ele>535.0</ele><time>2026-04-10T10:48:28.842Z</time></trkpt><trkpt lat="44.9020433" lon="9.5169667"><ele>535.2</ele><time>2026-04-10T10:48:29.841Z</time></trkpt><trkpt lat="44.90194" lon="9.516875"><ele>535.4</ele><time>2026-04-10T10:48:30.841Z</time></trkpt><trkpt lat="44.9018383" lon="9.516805"><ele>535.6</ele><time>2026-04-10T10:48:31.842Z</time></trkpt><trkpt lat="44.9017367" lon="9.5167783"><ele>535.8</ele><time>2026-04-10T10:48:32.844Z</time></trkpt><trkpt lat="44.9016383" lon="9.5167717"><ele>536.0</ele><time>2026-04-10T10:48:33.84Z</time></trkpt><trkpt lat="44.9015433" lon="9.5167817"><ele>537.6</ele><time>2026-04-10T10:48:34.84Z</time></trkpt><trkpt lat="44.9014383" lon="9.5167833"><ele>539.2</ele><time>2026-04-10T10:48:35.838Z</time></trkpt><trkpt lat="44.9013317" lon="9.5167617"><ele>540.8</ele><time>2026-04-10T10:48:36.839Z</time></trkpt><trkpt lat="44.9012183" lon="9.5167317"><ele>542.4</ele><time>2026-04-10T10:48:37.843Z</time></trkpt><trkpt lat="44.90111" lon="9.5167117"><ele>544.0</ele><time>2026-04-10T10:48:38.84Z</time></trkpt><trkpt lat="44.9010117" lon="9.5167133"><ele>544.0</ele><time>2026-04-10T10:48:39.838Z</time></trkpt><trkpt lat="44.9009283" lon="9.5167433"><ele>544.0</ele><time>2026-04-10T10:48:40.839Z</time></trkpt><trkpt lat="44.900845" lon="9.5167933"><ele>544.0</ele><time>2026-04-10T10:48:41.839Z</time></trkpt><trkpt lat="44.9007633" lon="9.5168383"><ele>544.0</ele><time>2026-04-10T10:48:42.84Z</time></trkpt><trkpt lat="44.900695" lon="9.5168633"><ele>544.0</ele><time>2026-04-10T10:48:43.84Z</time></trkpt><trkpt lat="44.9005883" lon="9.516895"><ele>544.0</ele><time>2026-04-10T10:48:45.838Z</time></trkpt><trkpt lat="44.9005133" lon="9.516935"><ele>544.4</ele><time>2026-04-10T10:48:46.838Z</time></trkpt><trkpt lat="44.9004283" lon="9.5169833"><ele>544.8</ele><time>2026-04-10T10:48:47.84Z</time></trkpt><trkpt lat="44.900335" lon="9.51702"><ele>545.2</ele><time>2026-04-10T10:48:48.84Z</time></trkpt><trkpt lat="44.90024" lon="9.51703"><ele>545.6</ele><time>2026-04-10T10:48:49.84Z</time></trkpt><trkpt lat="44.9001483" lon="9.5170133"><ele>546.0</ele><time>2026-04-10T10:48:50.84Z</time></trkpt><trkpt lat="44.9000533" lon="9.516965"><ele>546.0</ele><time>2026-04-10T10:48:51.841Z</time></trkpt><trkpt lat="44.89995" lon="9.5168783"><ele>546.0</ele><time>2026-04-10T10:48:52.839Z</time></trkpt><trkpt lat="44.8998367" lon="9.5167717"><ele>546.0</ele><time>2026-04-10T10:48:53.839Z</time></trkpt><trkpt lat="44.8997067" lon="9.5166683"><ele>546.0</ele><time>2026-04-10T10:48:54.84Z</time></trkpt><trkpt lat="44.8995767" lon="9.5165733"><ele>546.0</ele><time>2026-04-10T10:48:55.845Z</time></trkpt><trkpt lat="44.8994467" lon="9.516485"><ele>546.0</ele><time>2026-04-10T10:48:56.84Z</time></trkpt><trkpt lat="44.8993333" lon="9.516395"><ele>546.0</ele><time>2026-04-10T10:48:57.845Z</time></trkpt><trkpt lat="44.8992283" lon="9.5163117"><ele>546.0</ele><time>2026-04-10T10:48:58.843Z</time></trkpt><trkpt lat="44.8991267" lon="9.516235"><ele>543.6</ele><time>2026-04-10T10:48:59.839Z</time></trkpt><trkpt lat="44.8990367" lon="9.5161583"><ele>541.2</ele><time>2026-04-10T10:49:00.84Z</time></trkpt><trkpt lat="44.8989483" lon="9.516085"><ele>538.8</ele><time>2026-04-10T10:49:01.839Z</time></trkpt><trkpt lat="44.8988567" lon="9.51603"><ele>536.4</ele><time>2026-04-10T10:49:02.842Z</time></trkpt><trkpt lat="44.8987717" lon="9.5160017"><ele>534.0</ele><time>2026-04-10T10:49:03.842Z</time></trkpt><trkpt lat="44.8987033" lon="9.51597"><ele>534.0</ele><time>2026-04-10T10:49:04.839Z</time></trkpt><trkpt lat="44.8986483" lon="9.5159133"><ele>534.0</ele><time>2026-04-10T10:49:05.838Z</time></trkpt><trkpt lat="44.8986" lon="9.51575"><ele>534.0</ele><time>2026-04-10T10:49:07.839Z</time></trkpt><trkpt lat="44.8986017" lon="9.515625"><ele>534.0</ele><time>2026-04-10T10:49:08.839Z</time></trkpt><trkpt lat="44.8986017" lon="9.5154683"><ele>534.0</ele><time>2026-04-10T10:49:09.845Z</time></trkpt><trkpt lat="44.8985983" lon="9.5152917"><ele>532.4</ele><time>2026-04-10T10:49:10.839Z</time></trkpt><trkpt lat="44.898595" lon="9.515125"><ele>530.8</ele><time>2026-04-10T10:49:11.839Z</time></trkpt><trkpt lat="44.898585" lon="9.5149783"><ele>529.2</ele><time>2026-04-10T10:49:12.84Z</time></trkpt><trkpt lat="44.89857" lon="9.51484"><ele>527.6</ele><time>2026-04-10T10:49:13.841Z</time></trkpt><trkpt lat="44.8985533" lon="9.514715"><ele>526.0</ele><time>2026-04-10T10:49:14.839Z</time></trkpt><trkpt lat="44.8985267" lon="9.514605"><ele>525.5</ele><time>2026-04-10T10:49:15.844Z</time></trkpt><trkpt lat="44.8984933" lon="9.5145083"><ele>525.0</ele><time>2026-04-10T10:49:16.841Z</time></trkpt><trkpt lat="44.898455" lon="9.5144317"><ele>524.5</ele><time>2026-04-10T10:49:17.839Z</time></trkpt><trkpt lat="44.8984067" lon="9.5143167"><ele>524.0</ele><time>2026-04-10T10:49:19.84Z</time></trkpt><trkpt lat="44.8983833" lon="9.5142333"><ele>523.5</ele><time>2026-04-10T10:51:20.841Z</time></trkpt><trkpt lat="44.8983217" lon="9.5140717"><ele>523.0</ele><time>2026-04-10T10:51:22.844Z</time></trkpt><trkpt lat="44.89827" lon="9.5139417"><ele>523.0</ele><time>2026-04-10T10:51:23.84Z</time></trkpt><trkpt lat="44.898205" lon="9.51382"><ele>523.0</ele><time>2026-04-10T10:51:24.841Z</time></trkpt><trkpt lat="44.8981383" lon="9.513715"><ele>523.0</ele><time>2026-04-10T10:51:25.84Z</time></trkpt><trkpt lat="44.8980533" lon="9.513595"><ele>523.0</ele><time>2026-04-10T10:51:26.841Z</time></trkpt><trkpt lat="44.8979717" lon="9.513485"><ele>523.0</ele><time>2026-04-10T10:51:27.842Z</time></trkpt><trkpt lat="44.89788" lon="9.5133817"><ele>520.4</ele><time>2026-04-10T10:51:28.842Z</time></trkpt><trkpt lat="44.8978" lon="9.513285"><ele>517.8</ele><time>2026-04-10T10:51:29.841Z</time></trkpt><trkpt lat="44.89772" lon="9.5131817"><ele>515.2</ele><time>2026-04-10T10:51:30.842Z</time></trkpt><trkpt lat="44.89766" lon="9.5130833"><ele>512.6</ele><time>2026-04-10T10:51:31.839Z</time></trkpt><trkpt lat="44.8976183" lon="9.512985"><ele>510.0</ele><time>2026-04-10T10:51:32.842Z</time></trkpt><trkpt lat="44.8975817" lon="9.512845"><ele>507.25</ele><time>2026-04-10T10:51:33.84Z</time></trkpt><trkpt lat="44.8975617" lon="9.5126967"><ele>504.5</ele><time>2026-04-10T10:51:34.841Z</time></trkpt><trkpt lat="44.8975567" lon="9.5125317"><ele>501.75</ele><time>2026-04-10T10:51:35.84Z</time></trkpt><trkpt lat="44.8975667" lon="9.512335"><ele>499.0</ele><time>2026-04-10T10:51:36.84Z</time></trkpt><trkpt lat="44.8975683" lon="9.5121783"><ele>497.1666666666667</ele><time>2026-04-10T10:51:37.841Z</time></trkpt><trkpt lat="44.8975883" lon="9.5120583"><ele>495.33333333333337</ele><time>2026-04-10T10:51:38.84Z</time></trkpt><trkpt lat="44.8976117" lon="9.5119667"><ele>493.5</ele><time>2026-04-10T10:51:39.847Z</time></trkpt><trkpt lat="44.8976333" lon="9.5118683"><ele>491.66666666666663</ele><time>2026-04-10T10:51:40.84Z</time></trkpt><trkpt lat="44.897645" lon="9.5117733"><ele>489.8333333333333</ele><time>2026-04-10T10:51:41.839Z</time></trkpt><trkpt lat="44.8976617" lon="9.511675"><ele>488.0</ele><time>2026-04-10T10:51:42.84Z</time></trkpt><trkpt lat="44.897675" lon="9.511555"><ele>487.99999999999994</ele><time>2026-04-10T10:51:43.842Z</time></trkpt><trkpt lat="44.8977" lon="9.5114383"><ele>488.0</ele><time>2026-04-10T10:51:44.84Z</time></trkpt><trkpt lat="44.897725" lon="9.5113517"><ele>488.0</ele><time>2026-04-10T10:51:45.84Z</time></trkpt><trkpt lat="44.897735" lon="9.51121"><ele>488.0</ele><time>2026-04-10T10:51:47.839Z</time></trkpt><trkpt lat="44.8976967" lon="9.5111267"><ele>487.99999999999994</ele><time>2026-04-10T10:51:49.842Z</time></trkpt><trkpt lat="44.8976317" lon="9.511115"><ele>488.0</ele><time>2026-04-10T10:51:51.84Z</time></trkpt><trkpt lat="44.8975467" lon="9.5111483"><ele>488.49999999999994</ele><time>2026-04-10T10:51:53.843Z</time></trkpt><trkpt lat="44.8974433" lon="9.5111883"><ele>489.0</ele><time>2026-04-10T10:51:55.842Z</time></trkpt><trkpt lat="44.89737" lon="9.5112017"><ele>489.5</ele><time>2026-04-10T10:51:56.844Z</time></trkpt><trkpt lat="44.8972967" lon="9.51122"><ele>490.0</ele><time>2026-04-10T10:51:57.841Z</time></trkpt><trkpt lat="44.8972283" lon="9.5112517"><ele>490.49999999999994</ele><time>2026-04-10T10:51:58.84Z</time></trkpt><trkpt lat="44.8971517" lon="9.5113083"><ele>491.0</ele><time>2026-04-10T10:51:59.84Z</time></trkpt><trkpt lat="44.897065" lon="9.5113983"><ele>491.0</ele><time>2026-04-10T10:52:00.841Z</time></trkpt><trkpt lat="44.89697" lon="9.51152"><ele>491.0</ele><time>2026-04-10T10:52:01.839Z</time></trkpt><trkpt lat="44.896885" lon="9.511625"><ele>491.0</ele><time>2026-04-10T10:52:02.841Z</time></trkpt><trkpt lat="44.8968083" lon="9.5116967"><ele>491.0</ele><time>2026-04-10T10:52:03.839Z</time></trkpt><trkpt lat="44.896715" lon="9.5117417"><ele>491.0</ele><time>2026-04-10T10:52:04.839Z</time></trkpt><trkpt lat="44.8966033" lon="9.5117767"><ele>491.0</ele><time>2026-04-10T10:52:05.841Z</time></trkpt><trkpt lat="44.8964917" lon="9.5118133"><ele>491.0</ele><time>2026-04-10T10:52:06.841Z</time></trkpt><trkpt lat="44.89639" lon="9.511855"><ele>491.0</ele><time>2026-04-10T10:52:07.839Z</time></trkpt><trkpt lat="44.8962967" lon="9.5119167"><ele>491.0</ele><time>2026-04-10T10:52:08.839Z</time></trkpt><trkpt lat="44.8962017" lon="9.5120183"><ele>491.0</ele><time>2026-04-10T10:52:09.839Z</time></trkpt><trkpt lat="44.8961017" lon="9.51214"><ele>491.0</ele><time>2026-04-10T10:52:10.84Z</time></trkpt><trkpt lat="44.895995" lon="9.5122667"><ele>491.0</ele><time>2026-04-10T10:52:11.844Z</time></trkpt><trkpt lat="44.895885" lon="9.5124067"><ele>491.0</ele><time>2026-04-10T10:52:12.839Z</time></trkpt><trkpt lat="44.8957683" lon="9.51255"><ele>491.0</ele><time>2026-04-10T10:52:13.84Z</time></trkpt><trkpt lat="44.8956533" lon="9.5126783"><ele>490.6</ele><time>2026-04-10T10:52:14.841Z</time></trkpt><trkpt lat="44.8955483" lon="9.5127933"><ele>490.20000000000005</ele><time>2026-04-10T10:52:15.84Z</time></trkpt><trkpt lat="44.895455" lon="9.5128933"><ele>489.79999999999995</ele><time>2026-04-10T10:52:16.84Z</time></trkpt><trkpt lat="44.8953733" lon="9.5129733"><ele>489.4</ele><time>2026-04-10T10:52:17.839Z</time></trkpt><trkpt lat="44.8953033" lon="9.513015"><ele>489.0</ele><time>2026-04-10T10:52:18.841Z</time></trkpt><trkpt lat="44.895225" lon="9.5130267"><ele>489.0</ele><time>2026-04-10T10:52:19.842Z</time></trkpt><trkpt lat="44.8951433" lon="9.5129967"><ele>489.0</ele><time>2026-04-10T10:52:20.847Z</time></trkpt><trkpt lat="44.895055" lon="9.5129417"><ele>489.0</ele><time>2026-04-10T10:52:21.841Z</time></trkpt><trkpt lat="44.89495" lon="9.5128883"><ele>489.0</ele><time>2026-04-10T10:52:22.84Z</time></trkpt><trkpt lat="44.89483" lon="9.512825"><ele>489.0</ele><time>2026-04-10T10:52:23.842Z</time></trkpt><trkpt lat="44.8947067" lon="9.51276"><ele>487.6</ele><time>2026-04-10T10:52:24.842Z</time></trkpt><trkpt lat="44.8946017" lon="9.5127067"><ele>486.2</ele><time>2026-04-10T10:52:25.843Z</time></trkpt><trkpt lat="44.8945133" lon="9.5126567"><ele>484.80000000000007</ele><time>2026-04-10T10:52:26.842Z</time></trkpt><trkpt lat="44.89443" lon="9.512625"><ele>483.40000000000003</ele><time>2026-04-10T10:52:27.841Z</time></trkpt><trkpt lat="44.8943383" lon="9.512625"><ele>482.0</ele><time>2026-04-10T10:52:28.842Z</time></trkpt><trkpt lat="44.8942433" lon="9.51266"><ele>482.0</ele><time>2026-04-10T10:52:29.84Z</time></trkpt><trkpt lat="44.894155" lon="9.5127"><ele>482.00000000000006</ele><time>2026-04-10T10:52:30.839Z</time></trkpt><trkpt lat="44.8940783" lon="9.5127233"><ele>482.00000000000006</ele><time>2026-04-10T10:52:31.839Z</time></trkpt><trkpt lat="44.894005" lon="9.5127167"><ele>482.0</ele><time>2026-04-10T10:52:32.919Z</time></trkpt><trkpt lat="44.89393" lon="9.51264"><ele>482.0</ele><time>2026-04-10T10:52:33.839Z</time></trkpt><trkpt lat="44.8938367" lon="9.5125333"><ele>482.0</ele><time>2026-04-10T10:52:34.844Z</time></trkpt><trkpt lat="44.8937383" lon="9.5124183"><ele>482.00000000000006</ele><time>2026-04-10T10:52:35.839Z</time></trkpt><trkpt lat="44.8936433" lon="9.5123117"><ele>482.00000000000006</ele><time>2026-04-10T10:52:36.84Z</time></trkpt><trkpt lat="44.8935617" lon="9.512235"><ele>482.0</ele><time>2026-04-10T10:52:37.841Z</time></trkpt><trkpt lat="44.893475" lon="9.512185"><ele>482.0</ele><time>2026-04-10T10:52:38.841Z</time></trkpt><trkpt lat="44.8933717" lon="9.5121733"><ele>482.75</ele><time>2026-04-10T10:52:39.842Z</time></trkpt><trkpt lat="44.8932517" lon="9.5121733"><ele>483.5</ele><time>2026-04-10T10:52:40.84Z</time></trkpt><trkpt lat="44.89312" lon="9.5121817"><ele>484.25</ele><time>2026-04-10T10:52:41.84Z</time></trkpt><trkpt lat="44.8929783" lon="9.5121883"><ele>485.0</ele><time>2026-04-10T10:52:42.839Z</time></trkpt><trkpt lat="44.892845" lon="9.5121933"><ele>485.0</ele><time>2026-04-10T10:52:43.84Z</time></trkpt><trkpt lat="44.8927317" lon="9.5122033"><ele>485.0</ele><time>2026-04-10T10:52:44.84Z</time></trkpt><trkpt lat="44.8926433" lon="9.512235"><ele>485.0</ele><time>2026-04-10T10:52:45.84Z</time></trkpt><trkpt lat="44.8925683" lon="9.512285"><ele>485.0</ele><time>2026-04-10T10:52:46.84Z</time></trkpt><trkpt lat="44.89249" lon="9.51234"><ele>485.0</ele><time>2026-04-10T10:52:47.84Z</time></trkpt><trkpt lat="44.8923883" lon="9.5123917"><ele>483.75</ele><time>2026-04-10T10:52:48.843Z</time></trkpt><trkpt lat="44.8922617" lon="9.5124483"><ele>482.5</ele><time>2026-04-10T10:52:49.842Z</time></trkpt><trkpt lat="44.8921317" lon="9.5125133"><ele>481.25</ele><time>2026-04-10T10:52:50.841Z</time></trkpt><trkpt lat="44.892015" lon="9.5125783"><ele>480.0</ele><time>2026-04-10T10:52:51.84Z</time></trkpt><trkpt lat="44.8919167" lon="9.51262"><ele>480.0</ele><time>2026-04-10T10:52:52.839Z</time></trkpt><trkpt lat="44.8918233" lon="9.512635"><ele>480.0</ele><time>2026-04-10T10:52:53.84Z</time></trkpt><trkpt lat="44.8917183" lon="9.512605"><ele>480.0</ele><time>2026-04-10T10:52:54.841Z</time></trkpt><trkpt lat="44.8916033" lon="9.5125683"><ele>480.0</ele><time>2026-04-10T10:52:55.841Z</time></trkpt><trkpt lat="44.8914783" lon="9.51254"><ele>480.0</ele><time>2026-04-10T10:52:56.842Z</time></trkpt><trkpt lat="44.8913489" lon="9.5125158"><ele>479.75</ele><time>2026-04-10T10:52:57.841Z</time></trkpt><trkpt lat="44.8912082" lon="9.5124966"><ele>479.5</ele><time>2026-04-10T10:52:58.841Z</time></trkpt><trkpt lat="44.8910657" lon="9.5124874"><ele>479.25</ele><time>2026-04-10T10:52:59.844Z</time></trkpt><trkpt lat="44.8909472" lon="9.51248"><ele>479.0</ele><time>2026-04-10T10:53:00.841Z</time></trkpt><trkpt lat="44.8908578" lon="9.512464"><ele>479.0</ele><time>2026-04-10T10:53:01.84Z</time></trkpt><trkpt lat="44.8907859" lon="9.5124306"><ele>479.0</ele><time>2026-04-10T10:53:02.839Z</time></trkpt><trkpt lat="44.8907318" lon="9.5123802"><ele>479.0</ele><time>2026-04-10T10:53:03.841Z</time></trkpt><trkpt lat="44.8907151" lon="9.5121929"><ele>479.0</ele><time>2026-04-10T10:53:05.84Z</time></trkpt><trkpt lat="44.8907205" lon="9.5120689"><ele>479.0</ele><time>2026-04-10T10:53:06.841Z</time></trkpt><trkpt lat="44.8907107" lon="9.5119348"><ele>477.0</ele><time>2026-04-10T10:53:07.841Z</time></trkpt><trkpt lat="44.8906651" lon="9.5118"><ele>475.0</ele><time>2026-04-10T10:53:08.843Z</time></trkpt><trkpt lat="44.8905968" lon="9.5116771"><ele>473.0</ele><time>2026-04-10T10:53:09.839Z</time></trkpt><trkpt lat="44.8905171" lon="9.5115558"><ele>471.0</ele><time>2026-04-10T10:53:10.841Z</time></trkpt><trkpt lat="44.8904519" lon="9.5114376"><ele>469.0</ele><time>2026-04-10T10:53:11.841Z</time></trkpt><trkpt lat="44.8904143" lon="9.5113278"><ele>468.83333333333337</ele><time>2026-04-10T10:53:12.84Z</time></trkpt><trkpt lat="44.8903988" lon="9.5112349"><ele>468.6666666666667</ele><time>2026-04-10T10:53:13.842Z</time></trkpt><trkpt lat="44.8904299" lon="9.511142"><ele>468.5</ele><time>2026-04-10T10:53:14.84Z</time></trkpt><trkpt lat="44.8904877" lon="9.5110592"><ele>468.33333333333337</ele><time>2026-04-10T10:53:15.843Z</time></trkpt><trkpt lat="44.8905664" lon="9.5109859"><ele>468.1666666666667</ele><time>2026-04-10T10:53:16.842Z</time></trkpt><trkpt lat="44.890644" lon="9.5109297"><ele>468.0</ele><time>2026-04-10T10:53:17.842Z</time></trkpt><trkpt lat="44.890715" lon="9.510869"><ele>468.0</ele><time>2026-04-10T10:53:18.841Z</time></trkpt><trkpt lat="44.8907762" lon="9.5107881"><ele>467.99999999999994</ele><time>2026-04-10T10:53:19.841Z</time></trkpt><trkpt lat="44.8908204" lon="9.5106882"><ele>467.99999999999994</ele><time>2026-04-10T10:53:20.842Z</time></trkpt><trkpt lat="44.8908212" lon="9.5105476"><ele>468.0</ele><time>2026-04-10T10:53:21.842Z</time></trkpt><trkpt lat="44.8908017" lon="9.5103809"><ele>468.0</ele><time>2026-04-10T10:53:22.841Z</time></trkpt><trkpt lat="44.8907841" lon="9.5101958"><ele>468.0</ele><time>2026-04-10T10:53:23.844Z</time></trkpt><trkpt lat="44.8907746" lon="9.5100131"><ele>468.0</ele><time>2026-04-10T10:53:24.842Z</time></trkpt><trkpt lat="44.8907808" lon="9.5098343"><ele>468.0</ele><time>2026-04-10T10:53:25.842Z</time></trkpt><trkpt lat="44.8907956" lon="9.5096588"><ele>468.0</ele><time>2026-04-10T10:53:26.841Z</time></trkpt><trkpt lat="44.8908079" lon="9.5094919"><ele>466.25</ele><time>2026-04-10T10:53:27.842Z</time></trkpt><trkpt lat="44.89081" lon="9.5093361"><ele>464.5</ele><time>2026-04-10T10:53:28.839Z</time></trkpt><trkpt lat="44.8907983" lon="9.5091832"><ele>462.75</ele><time>2026-04-10T10:53:29.842Z</time></trkpt><trkpt lat="44.890769" lon="9.509025"><ele>461.0</ele><time>2026-04-10T10:53:30.84Z</time></trkpt><trkpt lat="44.8907303" lon="9.5088598"><ele>460.0</ele><time>2026-04-10T10:53:31.84Z</time></trkpt><trkpt lat="44.890693" lon="9.508679"><ele>459.0</ele><time>2026-04-10T10:53:32.841Z</time></trkpt><trkpt lat="44.890665" lon="9.5084788"><ele>458.0</ele><time>2026-04-10T10:53:33.839Z</time></trkpt><trkpt lat="44.8906421" lon="9.5082689"><ele>457.0</ele><time>2026-04-10T10:53:34.839Z</time></trkpt><trkpt lat="44.8906205" lon="9.5080623"><ele>456.6</ele><time>2026-04-10T10:53:35.84Z</time></trkpt><trkpt lat="44.8906034" lon="9.5078894"><ele>456.20000000000005</ele><time>2026-04-10T10:53:36.839Z</time></trkpt><trkpt lat="44.8905843" lon="9.5077474"><ele>455.8</ele><time>2026-04-10T10:53:37.841Z</time></trkpt><trkpt lat="44.8905482" lon="9.5076088"><ele>455.4</ele><time>2026-04-10T10:53:38.84Z</time></trkpt><trkpt lat="44.890502" lon="9.5074701"><ele>455.0</ele><time>2026-04-10T10:53:39.842Z</time></trkpt><trkpt lat="44.8904679" lon="9.507339"><ele>455.0</ele><time>2026-04-10T10:53:40.841Z</time></trkpt><trkpt lat="44.890462" lon="9.5072049"><ele>455.0</ele><time>2026-04-10T10:53:41.84Z</time></trkpt><trkpt lat="44.8904803" lon="9.5070647"><ele>455.0</ele><time>2026-04-10T10:53:42.84Z</time></trkpt><trkpt lat="44.8904944" lon="9.5069314"><ele>455.0</ele><time>2026-04-10T10:53:43.841Z</time></trkpt><trkpt lat="44.89051" lon="9.5068011"><ele>455.0</ele><time>2026-04-10T10:53:44.841Z</time></trkpt><trkpt lat="44.8905117" lon="9.5066812"><ele>455.0</ele><time>2026-04-10T10:53:45.841Z</time></trkpt><trkpt lat="44.8905041" lon="9.5065779"><ele>455.0</ele><time>2026-04-10T10:53:46.841Z</time></trkpt><trkpt lat="44.8904837" lon="9.5064706"><ele>455.0</ele><time>2026-04-10T10:53:48.84Z</time></trkpt><trkpt lat="44.8903863" lon="9.506526"><ele>455.0</ele><time>2026-04-10T10:53:52.84Z</time></trkpt><trkpt lat="44.8902666" lon="9.5065548"><ele>455.0</ele><time>2026-04-10T10:53:54.841Z</time></trkpt><trkpt lat="44.8901941" lon="9.5065381"><ele>454.99999999999994</ele><time>2026-04-10T10:53:55.841Z</time></trkpt><trkpt lat="44.8901204" lon="9.5065111"><ele>455.0</ele><time>2026-04-10T10:53:56.841Z</time></trkpt><trkpt lat="44.890053" lon="9.5064581"><ele>455.0</ele><time>2026-04-10T10:53:57.84Z</time></trkpt><trkpt lat="44.8900047" lon="9.5063685"><ele>455.0</ele><time>2026-04-10T10:53:58.84Z</time></trkpt><trkpt lat="44.8900088" lon="9.5062263"><ele>454.99999999999994</ele><time>2026-04-10T10:54:00.839Z</time></trkpt><trkpt lat="44.8900995" lon="9.5062024"><ele>455.0</ele><time>2026-04-10T10:54:02.84Z</time></trkpt><trkpt lat="44.8901717" lon="9.5062322"><ele>454.99999999999994</ele><time>2026-04-10T10:54:03.838Z</time></trkpt><trkpt lat="44.890249" lon="9.506254"><ele>455.0</ele><time>2026-04-10T10:54:04.839Z</time></trkpt><trkpt lat="44.8903162" lon="9.5062374"><ele>455.0</ele><time>2026-04-10T10:54:05.84Z</time></trkpt><trkpt lat="44.8903683" lon="9.5061785"><ele>455.0</ele><time>2026-04-10T10:54:06.845Z</time></trkpt><trkpt lat="44.8904049" lon="9.506089"><ele>454.99999999999994</ele><time>2026-04-10T10:54:07.839Z</time></trkpt><trkpt lat="44.8904275" lon="9.5059851"><ele>455.0</ele><time>2026-04-10T10:54:08.84Z</time></trkpt><trkpt lat="44.890452" lon="9.5058674"><ele>454.8333333333333</ele><time>2026-04-10T10:54:09.84Z</time></trkpt><trkpt lat="44.8904817" lon="9.5057504"><ele>454.66666666666663</ele><time>2026-04-10T10:54:10.841Z</time></trkpt><trkpt lat="44.8905143" lon="9.505644"><ele>454.5</ele><time>2026-04-10T10:54:11.839Z</time></trkpt><trkpt lat="44.8905496" lon="9.5055542"><ele>454.33333333333337</ele><time>2026-04-10T10:54:12.839Z</time></trkpt><trkpt lat="44.8905891" lon="9.5054735"><ele>454.1666666666667</ele><time>2026-04-10T10:54:13.842Z</time></trkpt><trkpt lat="44.8906293" lon="9.5054044"><ele>454.0</ele><time>2026-04-10T10:54:14.84Z</time></trkpt><trkpt lat="44.8907165" lon="9.5052787"><ele>451.83333333333337</ele><time>2026-04-10T10:54:16.839Z</time></trkpt><trkpt lat="44.8907641" lon="9.5052196"><ele>449.6666666666667</ele><time>2026-04-10T10:54:17.84Z</time></trkpt><trkpt lat="44.8908327" lon="9.505165"><ele>447.5</ele><time>2026-04-10T10:54:18.843Z</time></trkpt><trkpt lat="44.8909115" lon="9.5051181"><ele>445.33333333333337</ele><time>2026-04-10T10:54:19.839Z</time></trkpt><trkpt lat="44.8909868" lon="9.5050765"><ele>443.1666666666667</ele><time>2026-04-10T10:54:20.841Z</time></trkpt><trkpt lat="44.8910605" lon="9.5050334"><ele>441.0</ele><time>2026-04-10T10:54:21.84Z</time></trkpt><trkpt lat="44.8911296" lon="9.5049937"><ele>438.3333333333333</ele><time>2026-04-10T10:54:22.84Z</time></trkpt><trkpt lat="44.8911952" lon="9.5049586"><ele>435.66666666666663</ele><time>2026-04-10T10:54:23.843Z</time></trkpt><trkpt lat="44.8913206" lon="9.5049582"><ele>433.0</ele><time>2026-04-10T10:54:25.839Z</time></trkpt><trkpt lat="44.8913789" lon="9.5049981"><ele>430.3333333333333</ele><time>2026-04-10T10:54:26.84Z</time></trkpt><trkpt lat="44.8914286" lon="9.5050722"><ele>427.66666666666663</ele><time>2026-04-10T10:54:27.841Z</time></trkpt><trkpt lat="44.891474" lon="9.5051661"><ele>425.0</ele><time>2026-04-10T10:54:28.84Z</time></trkpt><trkpt lat="44.8915182" lon="9.5052618"><ele>424.99999999999994</ele><time>2026-04-10T10:54:29.839Z</time></trkpt><trkpt lat="44.8915519" lon="9.5053526"><ele>425.0</ele><time>2026-04-10T10:54:30.84Z</time></trkpt><trkpt lat="44.891581" lon="9.505436"><ele>425.0</ele><time>2026-04-10T10:54:31.84Z</time></trkpt><trkpt lat="44.8916381" lon="9.505563"><ele>425.0</ele><time>2026-04-10T10:54:33.839Z</time></trkpt><trkpt lat="44.89174" lon="9.5054956"><ele>424.99999999999994</ele><time>2026-04-10T10:54:36.839Z</time></trkpt><trkpt lat="44.891793" lon="9.5053931"><ele>425.0</ele><time>2026-04-10T10:54:37.839Z</time></trkpt><trkpt lat="44.8918486" lon="9.5052991"><ele>421.3333333333333</ele><time>2026-04-10T10:54:38.841Z</time></trkpt><trkpt lat="44.8918989" lon="9.5052145"><ele>417.66666666666663</ele><time>2026-04-10T10:54:39.839Z</time></trkpt><trkpt lat="44.8919362" lon="9.5051313"><ele>414.0</ele><time>2026-04-10T10:54:40.839Z</time></trkpt><trkpt lat="44.8919658" lon="9.5050436"><ele>410.33333333333337</ele><time>2026-04-10T10:54:41.84Z</time></trkpt><trkpt lat="44.8919966" lon="9.5049591"><ele>406.6666666666667</ele><time>2026-04-10T10:54:42.84Z</time></trkpt><trkpt lat="44.8920823" lon="9.5048561"><ele>403.0</ele><time>2026-04-10T10:54:44.84Z</time></trkpt><trkpt lat="44.8921768" lon="9.5047577"><ele>403.0</ele><time>2026-04-10T10:54:46.838Z</time></trkpt><trkpt lat="44.8922458" lon="9.5046401"><ele>403.0</ele><time>2026-04-10T10:54:48.838Z</time></trkpt><trkpt lat="44.8923056" lon="9.5045076"><ele>403.0</ele><time>2026-04-10T10:54:50.839Z</time></trkpt><trkpt lat="44.8923647" lon="9.5043448"><ele>403.0</ele><time>2026-04-10T10:54:52.841Z</time></trkpt><trkpt lat="44.8923948" lon="9.5042535"><ele>403.0</ele><time>2026-04-10T10:54:53.838Z</time></trkpt><trkpt lat="44.8924237" lon="9.5041667"><ele>401.79999999999995</ele><time>2026-04-10T10:54:54.838Z</time></trkpt><trkpt lat="44.8924515" lon="9.504086"><ele>400.6</ele><time>2026-04-10T10:54:55.84Z</time></trkpt><trkpt lat="44.8925082" lon="9.5039314"><ele>399.4</ele><time>2026-04-10T10:54:57.838Z</time></trkpt><trkpt lat="44.8925897" lon="9.5038015"><ele>398.20000000000005</ele><time>2026-04-10T10:54:59.839Z</time></trkpt><trkpt lat="44.8926517" lon="9.5037432"><ele>397.0</ele><time>2026-04-10T10:55:00.839Z</time></trkpt><trkpt lat="44.8927153" lon="9.5036786"><ele>392.6666666666667</ele><time>2026-04-10T10:55:01.841Z</time></trkpt><trkpt lat="44.892768" lon="9.5036115"><ele>388.33333333333337</ele><time>2026-04-10T10:55:02.839Z</time></trkpt><trkpt lat="44.8928137" lon="9.5035233"><ele>384.0</ele><time>2026-04-10T10:55:03.842Z</time></trkpt><trkpt lat="44.892851" lon="9.5034137"><ele>379.6666666666667</ele><time>2026-04-10T10:55:04.839Z</time></trkpt><trkpt lat="44.8928939" lon="9.5032862"><ele>375.33333333333337</ele><time>2026-04-10T10:55:05.839Z</time></trkpt><trkpt lat="44.8929377" lon="9.5031636"><ele>371.0</ele><time>2026-04-10T10:55:06.839Z</time></trkpt><trkpt lat="44.8929873" lon="9.5030502"><ele>371.0</ele><time>2026-04-10T10:55:07.841Z</time></trkpt><trkpt lat="44.8930462" lon="9.5029449"><ele>371.0</ele><time>2026-04-10T10:55:08.839Z</time></trkpt><trkpt lat="44.8931085" lon="9.5028444"><ele>371.0</ele><time>2026-04-10T10:55:09.838Z</time></trkpt><trkpt lat="44.893165" lon="9.5027424"><ele>371.0</ele><time>2026-04-10T10:55:10.84Z</time></trkpt><trkpt lat="44.8932122" lon="9.502635"><ele>371.0</ele><time>2026-04-10T10:55:11.838Z</time></trkpt><trkpt lat="44.8932456" lon="9.5025206"><ele>370.1666666666667</ele><time>2026-04-10T10:55:12.839Z</time></trkpt><trkpt lat="44.893269" lon="9.5024043"><ele>369.33333333333337</ele><time>2026-04-10T10:55:13.839Z</time></trkpt><trkpt lat="44.893287" lon="9.5022879"><ele>368.5</ele><time>2026-04-10T10:55:14.842Z</time></trkpt><trkpt lat="44.8933006" lon="9.5021763"><ele>367.6666666666667</ele><time>2026-04-10T10:55:15.84Z</time></trkpt><trkpt lat="44.8933173" lon="9.5020654"><ele>366.8333333333333</ele><time>2026-04-10T10:55:16.838Z</time></trkpt><trkpt lat="44.8933443" lon="9.5019471"><ele>366.0</ele><time>2026-04-10T10:55:17.84Z</time></trkpt><trkpt lat="44.8933802" lon="9.5018263"><ele>363.8333333333333</ele><time>2026-04-10T10:55:18.84Z</time></trkpt><trkpt lat="44.8934043" lon="9.5017251"><ele>361.6666666666667</ele><time>2026-04-10T10:55:19.838Z</time></trkpt><trkpt lat="44.8934204" lon="9.5016226"><ele>359.5</ele><time>2026-04-10T10:55:20.839Z</time></trkpt><trkpt lat="44.893422" lon="9.5015215"><ele>357.33333333333337</ele><time>2026-04-10T10:55:21.839Z</time></trkpt><trkpt lat="44.8934146" lon="9.5014234"><ele>355.1666666666667</ele><time>2026-04-10T10:55:22.838Z</time></trkpt><trkpt lat="44.8934379" lon="9.5012203"><ele>353.0</ele><time>2026-04-10T10:55:24.839Z</time></trkpt><trkpt lat="44.893467" lon="9.5010832"><ele>349.59999999999997</ele><time>2026-04-10T10:55:25.839Z</time></trkpt><trkpt lat="44.8934944" lon="9.5009487"><ele>346.2</ele><time>2026-04-10T10:55:26.841Z</time></trkpt><trkpt lat="44.8935118" lon="9.5008062"><ele>342.8</ele><time>2026-04-10T10:55:27.839Z</time></trkpt><trkpt lat="44.8935116" lon="9.5006478"><ele>339.4</ele><time>2026-04-10T10:55:28.839Z</time></trkpt><trkpt lat="44.8935041" lon="9.5005001"><ele>336.0</ele><time>2026-04-10T10:55:29.841Z</time></trkpt><trkpt lat="44.893492" lon="9.500367"><ele>334.5</ele><time>2026-04-10T10:55:30.84Z</time></trkpt><trkpt lat="44.8934775" lon="9.5002282"><ele>333.0</ele><time>2026-04-10T10:55:31.84Z</time></trkpt><trkpt lat="44.8934814" lon="9.5000806"><ele>331.5</ele><time>2026-04-10T10:55:32.84Z</time></trkpt><trkpt lat="44.8935315" lon="9.4999193"><ele>330.0</ele><time>2026-04-10T10:55:33.84Z</time></trkpt><trkpt lat="44.8935858" lon="9.4997634"><ele>330.0</ele><time>2026-04-10T10:55:34.839Z</time></trkpt><trkpt lat="44.8936386" lon="9.4996296"><ele>330.0</ele><time>2026-04-10T10:55:35.838Z</time></trkpt><trkpt lat="44.8936845" lon="9.4995127"><ele>330.0</ele><time>2026-04-10T10:55:36.84Z</time></trkpt><trkpt lat="44.8937268" lon="9.4993967"><ele>330.0</ele><time>2026-04-10T10:55:37.839Z</time></trkpt><trkpt lat="44.893769" lon="9.4992808"><ele>330.0</ele><time>2026-04-10T10:55:38.842Z</time></trkpt><trkpt lat="44.893807" lon="9.4991642"><ele>329.0</ele><time>2026-04-10T10:55:39.838Z</time></trkpt><trkpt lat="44.8938353" lon="9.4990476"><ele>328.0</ele><time>2026-04-10T10:55:40.839Z</time></trkpt><trkpt lat="44.8938506" lon="9.4989332"><ele>327.0</ele><time>2026-04-10T10:55:41.842Z</time></trkpt><trkpt lat="44.8938668" lon="9.4988227"><ele>326.0</ele><time>2026-04-10T10:55:42.838Z</time></trkpt><trkpt lat="44.8938961" lon="9.4987179"><ele>325.0</ele><time>2026-04-10T10:55:43.84Z</time></trkpt><trkpt lat="44.8939299" lon="9.4986175"><ele>324.0</ele><time>2026-04-10T10:55:44.84Z</time></trkpt><trkpt lat="44.8939583" lon="9.4985096"><ele>323.0</ele><time>2026-04-10T10:55:45.839Z</time></trkpt><trkpt lat="44.8939765" lon="9.4984053"><ele>322.0</ele><time>2026-04-10T10:55:46.838Z</time></trkpt><trkpt lat="44.893995" lon="9.4983124"><ele>321.0</ele><time>2026-04-10T10:55:47.839Z</time></trkpt><trkpt lat="44.8940506" lon="9.4981628"><ele>320.0</ele><time>2026-04-10T10:55:49.839Z</time></trkpt><trkpt lat="44.89411" lon="9.4979983"><ele>319.0</ele><time>2026-04-10T10:55:51.838Z</time></trkpt><trkpt lat="44.8941417" lon="9.4979083"><ele>318.59999999999997</ele><time>2026-04-10T10:55:52.841Z</time></trkpt><trkpt lat="44.8941733" lon="9.4978117"><ele>318.2</ele><time>2026-04-10T10:55:53.839Z</time></trkpt><trkpt lat="44.8942033" lon="9.4977317"><ele>317.79999999999995</ele><time>2026-04-10T10:55:54.84Z</time></trkpt><trkpt lat="44.8942083" lon="9.4975633"><ele>317.4</ele><time>2026-04-10T10:55:56.84Z</time></trkpt><trkpt lat="44.8941617" lon="9.4974333"><ele>317.0</ele><time>2026-04-10T10:55:58.84Z</time></trkpt><trkpt lat="44.894065" lon="9.4973117"><ele>317.0</ele><time>2026-04-10T10:56:00.839Z</time></trkpt><trkpt lat="44.8940067" lon="9.4972533"><ele>317.0</ele><time>2026-04-10T10:56:01.841Z</time></trkpt><trkpt lat="44.8939517" lon="9.4972017"><ele>317.0</ele><time>2026-04-10T10:56:02.841Z</time></trkpt><trkpt lat="44.8939" lon="9.4971467"><ele>317.0</ele><time>2026-04-10T10:56:03.84Z</time></trkpt><trkpt lat="44.89385" lon="9.4970767"><ele>317.0</ele><time>2026-04-10T10:56:04.84Z</time></trkpt><trkpt lat="44.8938083" lon="9.4969883"><ele>317.0</ele><time>2026-04-10T10:56:05.839Z</time></trkpt><trkpt lat="44.8937967" lon="9.4968883"><ele>317.0</ele><time>2026-04-10T10:56:06.84Z</time></trkpt><trkpt lat="44.8937817" lon="9.4967867"><ele>316.4</ele><time>2026-04-10T10:56:07.841Z</time></trkpt><trkpt lat="44.8937933" lon="9.496655"><ele>315.79999999999995</ele><time>2026-04-10T10:56:08.84Z</time></trkpt><trkpt lat="44.8938483" lon="9.4964983"><ele>315.2</ele><time>2026-04-10T10:56:09.84Z</time></trkpt><trkpt lat="44.8938967" lon="9.49635"><ele>314.59999999999997</ele><time>2026-04-10T10:56:10.84Z</time></trkpt><trkpt lat="44.8939417" lon="9.4962"><ele>314.0</ele><time>2026-04-10T10:56:11.842Z</time></trkpt><trkpt lat="44.8939783" lon="9.4960617"><ele>313.0</ele><time>2026-04-10T10:56:12.84Z</time></trkpt><trkpt lat="44.8940067" lon="9.4959317"><ele>312.0</ele><time>2026-04-10T10:56:13.839Z</time></trkpt><trkpt lat="44.8940317" lon="9.4957933"><ele>311.0</ele><time>2026-04-10T10:56:14.841Z</time></trkpt><trkpt lat="44.8940433" lon="9.49565"><ele>310.0</ele><time>2026-04-10T10:56:15.839Z</time></trkpt><trkpt lat="44.8940483" lon="9.495515"><ele>309.0</ele><time>2026-04-10T10:56:16.84Z</time></trkpt><trkpt lat="44.89405" lon="9.4953967"><ele>308.0</ele><time>2026-04-10T10:56:17.838Z</time></trkpt><trkpt lat="44.8940417" lon="9.49528"><ele>307.0</ele><time>2026-04-10T10:56:18.839Z</time></trkpt><trkpt lat="44.8940317" lon="9.4951683"><ele>306.0</ele><time>2026-04-10T10:56:19.844Z</time></trkpt><trkpt lat="44.8940183" lon="9.4950733"><ele>305.0</ele><time>2026-04-10T10:56:20.839Z</time></trkpt><trkpt lat="44.8939817" lon="9.4949067"><ele>304.0</ele><time>2026-04-10T10:56:22.84Z</time></trkpt><trkpt lat="44.89394" lon="9.494745"><ele>304.0</ele><time>2026-04-10T10:56:24.845Z</time></trkpt><trkpt lat="44.89391" lon="9.4946667"><ele>304.0</ele><time>2026-04-10T10:56:25.84Z</time></trkpt><trkpt lat="44.8938767" lon="9.4945783"><ele>304.0</ele><time>2026-04-10T10:56:26.841Z</time></trkpt><trkpt lat="44.8938383" lon="9.4944817"><ele>304.0</ele><time>2026-04-10T10:56:27.84Z</time></trkpt><trkpt lat="44.893795" lon="9.4943817"><ele>304.0</ele><time>2026-04-10T10:56:28.839Z</time></trkpt><trkpt lat="44.8937533" lon="9.4942867"><ele>304.0</ele><time>2026-04-10T10:56:29.845Z</time></trkpt><trkpt lat="44.89371" lon="9.4942"><ele>303.16666666666663</ele><time>2026-04-10T10:56:30.839Z</time></trkpt><trkpt lat="44.8936783" lon="9.4941117"><ele>302.3333333333333</ele><time>2026-04-10T10:56:31.84Z</time></trkpt><trkpt lat="44.8936533" lon="9.49403"><ele>301.5</ele><time>2026-04-10T10:56:32.84Z</time></trkpt><trkpt lat="44.893635" lon="9.4938767"><ele>300.6666666666667</ele><time>2026-04-10T10:56:34.842Z</time></trkpt><trkpt lat="44.8936517" lon="9.493765"><ele>299.83333333333337</ele><time>2026-04-10T10:56:36.84Z</time></trkpt><trkpt lat="44.8936933" lon="9.4936967"><ele>299.0</ele><time>2026-04-10T10:56:38.842Z</time></trkpt><trkpt lat="44.893775" lon="9.4936133"><ele>301.1666666666667</ele><time>2026-04-10T10:56:41.839Z</time></trkpt><trkpt lat="44.8938933" lon="9.4935567"><ele>303.33333333333337</ele><time>2026-04-10T10:56:43.839Z</time></trkpt><trkpt lat="44.8939717" lon="9.4935133"><ele>305.5</ele><time>2026-04-10T10:56:44.843Z</time></trkpt><trkpt lat="44.894045" lon="9.4934717"><ele>307.6666666666667</ele><time>2026-04-10T10:56:45.839Z</time></trkpt><trkpt lat="44.894115" lon="9.4934467"><ele>309.8333333333333</ele><time>2026-04-10T10:56:46.84Z</time></trkpt><trkpt lat="44.89418" lon="9.4934583"><ele>312.0</ele><time>2026-04-10T10:56:47.839Z</time></trkpt><trkpt lat="44.89425" lon="9.493505"><ele>313.0</ele><time>2026-04-10T10:56:48.839Z</time></trkpt><trkpt lat="44.894335" lon="9.4935667"><ele>314.0</ele><time>2026-04-10T10:56:49.838Z</time></trkpt><trkpt lat="44.89443" lon="9.493625"><ele>315.0</ele><time>2026-04-10T10:56:50.84Z</time></trkpt><trkpt lat="44.8945283" lon="9.49367"><ele>316.0</ele><time>2026-04-10T10:56:51.841Z</time></trkpt><trkpt lat="44.894625" lon="9.4936967"><ele>317.0</ele><time>2026-04-10T10:56:52.84Z</time></trkpt><trkpt lat="44.8947233" lon="9.493715"><ele>317.0</ele><time>2026-04-10T10:56:53.84Z</time></trkpt><trkpt lat="44.8948233" lon="9.493725"><ele>317.0</ele><time>2026-04-10T10:56:54.843Z</time></trkpt><trkpt lat="44.894925" lon="9.4937283"><ele>317.0</ele><time>2026-04-10T10:56:55.842Z</time></trkpt><trkpt lat="44.89503" lon="9.49373"><ele>317.0</ele><time>2026-04-10T10:56:56.843Z</time></trkpt><trkpt lat="44.8951367" lon="9.4937317"><ele>317.0</ele><time>2026-04-10T10:56:57.841Z</time></trkpt><trkpt lat="44.895245" lon="9.4937383"><ele>317.0</ele><time>2026-04-10T10:56:58.84Z</time></trkpt><trkpt lat="44.89536" lon="9.49374"><ele>317.0</ele><time>2026-04-10T10:56:59.84Z</time></trkpt><trkpt lat="44.8954717" lon="9.4937383"><ele>317.0</ele><time>2026-04-10T10:57:00.839Z</time></trkpt><trkpt lat="44.8955817" lon="9.49374"><ele>317.0</ele><time>2026-04-10T10:57:01.841Z</time></trkpt><trkpt lat="44.8956883" lon="9.4937433"><ele>317.0</ele><time>2026-04-10T10:57:02.841Z</time></trkpt><trkpt lat="44.8957967" lon="9.4937567"><ele>315.2</ele><time>2026-04-10T10:57:03.84Z</time></trkpt><trkpt lat="44.8959033" lon="9.4937667"><ele>313.4</ele><time>2026-04-10T10:57:04.839Z</time></trkpt><trkpt lat="44.8960133" lon="9.4937683"><ele>311.6</ele><time>2026-04-10T10:57:05.842Z</time></trkpt><trkpt lat="44.89612" lon="9.4937617"><ele>309.8</ele><time>2026-04-10T10:57:06.84Z</time></trkpt><trkpt lat="44.8962283" lon="9.4937283"><ele>308.0</ele><time>2026-04-10T10:57:07.845Z</time></trkpt><trkpt lat="44.8963417" lon="9.4936917"><ele>308.0</ele><time>2026-04-10T10:57:08.84Z</time></trkpt><trkpt lat="44.8964567" lon="9.493665"><ele>308.0</ele><time>2026-04-10T10:57:09.84Z</time></trkpt><trkpt lat="44.896575" lon="9.4936583"><ele>308.0</ele><time>2026-04-10T10:57:10.844Z</time></trkpt><trkpt lat="44.8966933" lon="9.4936667"><ele>308.0</ele><time>2026-04-10T10:57:11.84Z</time></trkpt><trkpt lat="44.8968067" lon="9.4936917"><ele>306.8</ele><time>2026-04-10T10:57:12.839Z</time></trkpt><trkpt lat="44.89692" lon="9.4937083"><ele>305.6</ele><time>2026-04-10T10:57:13.841Z</time></trkpt><trkpt lat="44.8970333" lon="9.4937167"><ele>304.4</ele><time>2026-04-10T10:57:14.842Z</time></trkpt><trkpt lat="44.8971383" lon="9.4936917"><ele>303.2</ele><time>2026-04-10T10:57:15.84Z</time></trkpt><trkpt lat="44.8972483" lon="9.4936517"><ele>302.0</ele><time>2026-04-10T10:57:16.839Z</time></trkpt><trkpt lat="44.8973617" lon="9.4936133"><ele>302.0</ele><time>2026-04-10T10:57:17.84Z</time></trkpt><trkpt lat="44.89748" lon="9.49358"><ele>302.0</ele><time>2026-04-10T10:57:18.839Z</time></trkpt><trkpt lat="44.8976" lon="9.49355"><ele>302.0</ele><time>2026-04-10T10:57:19.84Z</time></trkpt><trkpt lat="44.8977317" lon="9.493515"><ele>302.0</ele><time>2026-04-10T10:57:20.839Z</time></trkpt><trkpt lat="44.897875" lon="9.4934767"><ele>300.0</ele><time>2026-04-10T10:57:21.84Z</time></trkpt><trkpt lat="44.89802" lon="9.49343"><ele>298.0</ele><time>2026-04-10T10:57:22.839Z</time></trkpt><trkpt lat="44.8981617" lon="9.493385"><ele>296.0</ele><time>2026-04-10T10:57:23.84Z</time></trkpt><trkpt lat="44.8982933" lon="9.4933483"><ele>294.0</ele><time>2026-04-10T10:57:24.84Z</time></trkpt><trkpt lat="44.8984217" lon="9.4933133"><ele>293.25</ele><time>2026-04-10T10:57:25.839Z</time></trkpt><trkpt lat="44.89854" lon="9.4932633"><ele>292.5</ele><time>2026-04-10T10:57:26.842Z</time></trkpt><trkpt lat="44.8986517" lon="9.49321"><ele>291.75</ele><time>2026-04-10T10:57:27.839Z</time></trkpt><trkpt lat="44.89876" lon="9.493145"><ele>291.0</ele><time>2026-04-10T10:57:28.843Z</time></trkpt><trkpt lat="44.8988667" lon="9.4930667"><ele>291.0</ele><time>2026-04-10T10:57:29.84Z</time></trkpt><trkpt lat="44.8989717" lon="9.4929783"><ele>291.0</ele><time>2026-04-10T10:57:30.84Z</time></trkpt><trkpt lat="44.8990667" lon="9.4928817"><ele>291.0</ele><time>2026-04-10T10:57:31.839Z</time></trkpt><trkpt lat="44.8991567" lon="9.492775"><ele>291.0</ele><time>2026-04-10T10:57:32.839Z</time></trkpt><trkpt lat="44.8992417" lon="9.4926517"><ele>290.5</ele><time>2026-04-10T10:57:33.841Z</time></trkpt><trkpt lat="44.8993267" lon="9.4925183"><ele>290.0</ele><time>2026-04-10T10:57:34.84Z</time></trkpt><trkpt lat="44.899415" lon="9.4923867"><ele>289.5</ele><time>2026-04-10T10:57:35.84Z</time></trkpt><trkpt lat="44.8995033" lon="9.4922683"><ele>289.0</ele><time>2026-04-10T10:57:36.839Z</time></trkpt><trkpt lat="44.8995817" lon="9.492165"><ele>291.59999999999997</ele><time>2026-04-10T10:57:37.843Z</time></trkpt><trkpt lat="44.8996483" lon="9.4920533"><ele>294.2</ele><time>2026-04-10T10:57:38.84Z</time></trkpt><trkpt lat="44.8997017" lon="9.4919267"><ele>296.79999999999995</ele><time>2026-04-10T10:57:39.843Z</time></trkpt><trkpt lat="44.8997467" lon="9.4917883"><ele>299.4</ele><time>2026-04-10T10:57:40.84Z</time></trkpt><trkpt lat="44.89978" lon="9.4916533"><ele>302.0</ele><time>2026-04-10T10:57:41.84Z</time></trkpt><trkpt lat="44.8998183" lon="9.491535"><ele>302.0</ele><time>2026-04-10T10:57:42.839Z</time></trkpt><trkpt lat="44.8998617" lon="9.4914317"><ele>302.0</ele><time>2026-04-10T10:57:43.839Z</time></trkpt><trkpt lat="44.89991" lon="9.4913567"><ele>302.0</ele><time>2026-04-10T10:57:44.84Z</time></trkpt><trkpt lat="44.8999683" lon="9.4913033"><ele>302.0</ele><time>2026-04-10T10:57:45.842Z</time></trkpt><trkpt lat="44.9000333" lon="9.491275"><ele>302.0</ele><time>2026-04-10T10:57:46.841Z</time></trkpt><trkpt lat="44.900135" lon="9.4912567"><ele>302.0</ele><time>2026-04-10T10:57:48.84Z</time></trkpt><trkpt lat="44.9002" lon="9.49125"><ele>302.33333333333337</ele><time>2026-04-10T10:57:51.841Z</time></trkpt><trkpt lat="44.9001367" lon="9.49118"><ele>302.6666666666667</ele><time>2026-04-10T10:57:59.839Z</time></trkpt><trkpt lat="44.9000733" lon="9.4911633"><ele>303.0</ele><time>2026-04-10T10:58:00.842Z</time></trkpt><trkpt lat="44.9000033" lon="9.491145"><ele>303.3333333333333</ele><time>2026-04-10T10:58:01.841Z</time></trkpt><trkpt lat="44.8999167" lon="9.4911567"><ele>303.66666666666663</ele><time>2026-04-10T10:58:02.843Z</time></trkpt><trkpt lat="44.8998267" lon="9.4911817"><ele>304.0</ele><time>2026-04-10T10:58:03.839Z</time></trkpt><trkpt lat="44.8997367" lon="9.491235"><ele>303.59999999999997</ele><time>2026-04-10T10:58:04.84Z</time></trkpt><trkpt lat="44.8996517" lon="9.4913167"><ele>303.2</ele><time>2026-04-10T10:58:05.839Z</time></trkpt><trkpt lat="44.8995667" lon="9.4914217"><ele>302.79999999999995</ele><time>2026-04-10T10:58:06.839Z</time></trkpt><trkpt lat="44.89949" lon="9.4915333"><ele>302.4</ele><time>2026-04-10T10:58:07.843Z</time></trkpt><trkpt lat="44.8994233" lon="9.4916367"><ele>302.0</ele><time>2026-04-10T10:58:08.84Z</time></trkpt><trkpt lat="44.8993617" lon="9.4917117"><ele>302.0</ele><time>2026-04-10T10:58:09.841Z</time></trkpt><trkpt lat="44.8992933" lon="9.4917617"><ele>302.0</ele><time>2026-04-10T10:58:10.839Z</time></trkpt><trkpt lat="44.8992167" lon="9.4917817"><ele>302.0</ele><time>2026-04-10T10:58:11.839Z</time></trkpt><trkpt lat="44.8991367" lon="9.4917833"><ele>302.0</ele><time>2026-04-10T10:58:12.84Z</time></trkpt><trkpt lat="44.899055" lon="9.4917467"><ele>302.0</ele><time>2026-04-10T10:58:13.839Z</time></trkpt><trkpt lat="44.8989533" lon="9.491655"><ele>302.0</ele><time>2026-04-10T10:58:14.841Z</time></trkpt><trkpt lat="44.8988383" lon="9.4916167"><ele>304.75</ele><time>2026-04-10T10:58:15.841Z</time></trkpt><trkpt lat="44.89872" lon="9.4916"><ele>307.5</ele><time>2026-04-10T10:58:16.838Z</time></trkpt><trkpt lat="44.8985883" lon="9.491575"><ele>310.25</ele><time>2026-04-10T10:58:17.842Z</time></trkpt><trkpt lat="44.898455" lon="9.49156"><ele>313.0</ele><time>2026-04-10T10:58:18.84Z</time></trkpt><trkpt lat="44.8983217" lon="9.4915617"><ele>316.0</ele><time>2026-04-10T10:58:19.84Z</time></trkpt><trkpt lat="44.8981967" lon="9.491595"><ele>319.0</ele><time>2026-04-10T10:58:20.841Z</time></trkpt><trkpt lat="44.898085" lon="9.4916683"><ele>322.0</ele><time>2026-04-10T10:58:21.84Z</time></trkpt><trkpt lat="44.89799" lon="9.4917683"><ele>325.0</ele><time>2026-04-10T10:58:22.841Z</time></trkpt><trkpt lat="44.8979067" lon="9.491905"><ele>325.0</ele><time>2026-04-10T10:58:23.841Z</time></trkpt><trkpt lat="44.8978333" lon="9.4920567"><ele>325.0</ele><time>2026-04-10T10:58:24.84Z</time></trkpt><trkpt lat="44.8977733" lon="9.4922033"><ele>325.0</ele><time>2026-04-10T10:58:25.84Z</time></trkpt><trkpt lat="44.89771" lon="9.4923117"><ele>325.0</ele><time>2026-04-10T10:58:26.842Z</time></trkpt><trkpt lat="44.897625" lon="9.4923783"><ele>325.0</ele><time>2026-04-10T10:58:27.841Z</time></trkpt><trkpt lat="44.89752" lon="9.492415"><ele>326.5</ele><time>2026-04-10T10:58:28.839Z</time></trkpt><trkpt lat="44.897405" lon="9.492435"><ele>328.0</ele><time>2026-04-10T10:58:29.84Z</time></trkpt><trkpt lat="44.897285" lon="9.492445"><ele>329.5</ele><time>2026-04-10T10:58:30.84Z</time></trkpt><trkpt lat="44.897165" lon="9.4924317"><ele>331.0</ele><time>2026-04-10T10:58:31.839Z</time></trkpt><trkpt lat="44.8970417" lon="9.4923933"><ele>331.0</ele><time>2026-04-10T10:58:32.84Z</time></trkpt><trkpt lat="44.8969233" lon="9.4923683"><ele>331.0</ele><time>2026-04-10T10:58:33.841Z</time></trkpt><trkpt lat="44.8968067" lon="9.4923817"><ele>331.0</ele><time>2026-04-10T10:58:34.839Z</time></trkpt><trkpt lat="44.8966967" lon="9.4924383"><ele>331.0</ele><time>2026-04-10T10:58:35.84Z</time></trkpt><trkpt lat="44.8965933" lon="9.49252"><ele>334.25</ele><time>2026-04-10T10:58:36.84Z</time></trkpt><trkpt lat="44.896485" lon="9.49259"><ele>337.5</ele><time>2026-04-10T10:58:37.845Z</time></trkpt><trkpt lat="44.8963667" lon="9.4926367"><ele>340.75</ele><time>2026-04-10T10:58:38.84Z</time></trkpt><trkpt lat="44.896235" lon="9.4926467"><ele>344.0</ele><time>2026-04-10T10:58:39.839Z</time></trkpt><trkpt lat="44.8960933" lon="9.4926367"><ele>344.0</ele><time>2026-04-10T10:58:40.839Z</time></trkpt><trkpt lat="44.89594" lon="9.4926217"><ele>344.0</ele><time>2026-04-10T10:58:41.84Z</time></trkpt><trkpt lat="44.8957783" lon="9.4925933"><ele>344.0</ele><time>2026-04-10T10:58:42.842Z</time></trkpt><trkpt lat="44.8956183" lon="9.4925817"><ele>347.33333333333337</ele><time>2026-04-10T10:58:43.84Z</time></trkpt><trkpt lat="44.895445" lon="9.4926033"><ele>350.6666666666667</ele><time>2026-04-10T10:58:44.84Z</time></trkpt><trkpt lat="44.895265" lon="9.492655"><ele>354.0</ele><time>2026-04-10T10:58:45.839Z</time></trkpt><trkpt lat="44.8951017" lon="9.4927067"><ele>356.25</ele><time>2026-04-10T10:58:46.84Z</time></trkpt><trkpt lat="44.8949483" lon="9.4927583"><ele>358.5</ele><time>2026-04-10T10:58:47.841Z</time></trkpt><trkpt lat="44.8948133" lon="9.4927967"><ele>360.75</ele><time>2026-04-10T10:58:48.841Z</time></trkpt><trkpt lat="44.894695" lon="9.4928133"><ele>363.0</ele><time>2026-04-10T10:58:49.841Z</time></trkpt><trkpt lat="44.8945883" lon="9.4928017"><ele>363.0</ele><time>2026-04-10T10:58:50.842Z</time></trkpt><trkpt lat="44.8944967" lon="9.49277"><ele>363.0</ele><time>2026-04-10T10:58:51.841Z</time></trkpt><trkpt lat="44.8944067" lon="9.4927083"><ele>363.0</ele><time>2026-04-10T10:58:52.84Z</time></trkpt><trkpt lat="44.8943317" lon="9.492605"><ele>363.0</ele><time>2026-04-10T10:58:53.841Z</time></trkpt><trkpt lat="44.8942683" lon="9.492495"><ele>363.0</ele><time>2026-04-10T10:58:54.839Z</time></trkpt><trkpt lat="44.8942267" lon="9.4923917"><ele>366.59999999999997</ele><time>2026-04-10T10:58:55.839Z</time></trkpt><trkpt lat="44.894215" lon="9.49228"><ele>370.2</ele><time>2026-04-10T10:58:56.84Z</time></trkpt><trkpt lat="44.8942283" lon="9.492165"><ele>373.8</ele><time>2026-04-10T10:58:57.84Z</time></trkpt><trkpt lat="44.8942633" lon="9.4920317"><ele>377.4</ele><time>2026-04-10T10:58:58.839Z</time></trkpt><trkpt lat="44.8942917" lon="9.4918967"><ele>381.0</ele><time>2026-04-10T10:58:59.842Z</time></trkpt><trkpt lat="44.894285" lon="9.4917483"><ele>375.6</ele><time>2026-04-10T10:59:00.84Z</time></trkpt><trkpt lat="44.8942433" lon="9.4916017"><ele>370.20000000000005</ele><time>2026-04-10T10:59:01.84Z</time></trkpt><trkpt lat="44.89419" lon="9.491475"><ele>364.79999999999995</ele><time>2026-04-10T10:59:02.84Z</time></trkpt><trkpt lat="44.8941583" lon="9.4913617"><ele>359.4</ele><time>2026-04-10T10:59:03.841Z</time></trkpt><trkpt lat="44.89415" lon="9.491245"><ele>354.0</ele><time>2026-04-10T10:59:04.84Z</time></trkpt><trkpt lat="44.8941567" lon="9.4911133"><ele>353.5</ele><time>2026-04-10T10:59:05.841Z</time></trkpt><trkpt lat="44.8941867" lon="9.49096"><ele>353.0</ele><time>2026-04-10T10:59:06.842Z</time></trkpt><trkpt lat="44.8942183" lon="9.4907883"><ele>352.5</ele><time>2026-04-10T10:59:07.84Z</time></trkpt><trkpt lat="44.89425" lon="9.4906183"><ele>352.0</ele><time>2026-04-10T10:59:08.839Z</time></trkpt><trkpt lat="44.8942883" lon="9.4904467"><ele>357.0</ele><time>2026-04-10T10:59:09.841Z</time></trkpt><trkpt lat="44.8943283" lon="9.49028"><ele>362.0</ele><time>2026-04-10T10:59:10.839Z</time></trkpt><trkpt lat="44.8943683" lon="9.4901133"><ele>367.0</ele><time>2026-04-10T10:59:11.841Z</time></trkpt><trkpt lat="44.8943917" lon="9.4899367"><ele>372.0</ele><time>2026-04-10T10:59:12.84Z</time></trkpt><trkpt lat="44.8943967" lon="9.4897367"><ele>373.6666666666667</ele><time>2026-04-10T10:59:13.839Z</time></trkpt><trkpt lat="44.8943817" lon="9.489525"><ele>375.33333333333337</ele><time>2026-04-10T10:59:14.841Z</time></trkpt><trkpt lat="44.89435" lon="9.4893"><ele>377.0</ele><time>2026-04-10T10:59:15.841Z</time></trkpt><trkpt lat="44.8943" lon="9.489065"><ele>370.33333333333337</ele><time>2026-04-10T10:59:16.84Z</time></trkpt><trkpt lat="44.89423" lon="9.4888367"><ele>363.6666666666667</ele><time>2026-04-10T10:59:17.841Z</time></trkpt><trkpt lat="44.89415" lon="9.4886467"><ele>357.0</ele><time>2026-04-10T10:59:18.841Z</time></trkpt><trkpt lat="44.8940833" lon="9.4884867"><ele>357.0</ele><time>2026-04-10T10:59:19.844Z</time></trkpt><trkpt lat="44.89403" lon="9.48834"><ele>357.0</ele><time>2026-04-10T10:59:20.842Z</time></trkpt><trkpt lat="44.8939917" lon="9.48819"><ele>357.0</ele><time>2026-04-10T10:59:21.841Z</time></trkpt><trkpt lat="44.8939783" lon="9.4880417"><ele>357.0</ele><time>2026-04-10T10:59:22.841Z</time></trkpt><trkpt lat="44.893985" lon="9.487895"><ele>357.0</ele><time>2026-04-10T10:59:23.841Z</time></trkpt><trkpt lat="44.894" lon="9.487765"><ele>357.8</ele><time>2026-04-10T10:59:24.844Z</time></trkpt><trkpt lat="44.8940133" lon="9.4876467"><ele>358.6</ele><time>2026-04-10T10:59:25.839Z</time></trkpt><trkpt lat="44.8940117" lon="9.4875433"><ele>359.40000000000003</ele><time>2026-04-10T10:59:26.842Z</time></trkpt><trkpt lat="44.893905" lon="9.48747"><ele>360.20000000000005</ele><time>2026-04-10T10:59:28.841Z</time></trkpt><trkpt lat="44.8938217" lon="9.4874833"><ele>361.0</ele><time>2026-04-10T10:59:29.839Z</time></trkpt><trkpt lat="44.893725" lon="9.4875567"><ele>361.0</ele><time>2026-04-10T10:59:30.839Z</time></trkpt><trkpt lat="44.8936283" lon="9.4876383"><ele>361.0</ele><time>2026-04-10T10:59:31.845Z</time></trkpt><trkpt lat="44.8935383" lon="9.4877233"><ele>361.0</ele><time>2026-04-10T10:59:32.841Z</time></trkpt><trkpt lat="44.893465" lon="9.48783"><ele>361.0</ele><time>2026-04-10T10:59:33.841Z</time></trkpt><trkpt lat="44.8934067" lon="9.4879483"><ele>361.0</ele><time>2026-04-10T10:59:34.841Z</time></trkpt><trkpt lat="44.8933467" lon="9.4880583"><ele>359.20000000000005</ele><time>2026-04-10T10:59:35.84Z</time></trkpt><trkpt lat="44.8932833" lon="9.48815"><ele>357.40000000000003</ele><time>2026-04-10T10:59:36.842Z</time></trkpt><trkpt lat="44.8932" lon="9.4882217"><ele>355.6</ele><time>2026-04-10T10:59:37.841Z</time></trkpt><trkpt lat="44.8930983" lon="9.488305"><ele>353.8</ele><time>2026-04-10T10:59:38.842Z</time></trkpt><trkpt lat="44.8930017" lon="9.4884017"><ele>352.0</ele><time>2026-04-10T10:59:39.841Z</time></trkpt><trkpt lat="44.8929317" lon="9.4884767"><ele>352.0</ele><time>2026-04-10T10:59:40.84Z</time></trkpt><trkpt lat="44.8928617" lon="9.4885367"><ele>352.0</ele><time>2026-04-10T10:59:41.842Z</time></trkpt><trkpt lat="44.892795" lon="9.48856"><ele>352.0</ele><time>2026-04-10T10:59:42.839Z</time></trkpt><trkpt lat="44.8926567" lon="9.4884417"><ele>352.0</ele><time>2026-04-10T10:59:44.84Z</time></trkpt><trkpt lat="44.8925733" lon="9.4883267"><ele>352.0</ele><time>2026-04-10T10:59:45.839Z</time></trkpt><trkpt lat="44.892485" lon="9.4881867"><ele>352.6</ele><time>2026-04-10T10:59:46.844Z</time></trkpt><trkpt lat="44.892406" lon="9.4880398"><ele>353.20000000000005</ele><time>2026-04-10T10:59:47.84Z</time></trkpt><trkpt lat="44.8923361" lon="9.4879087"><ele>353.8</ele><time>2026-04-10T10:59:48.841Z</time></trkpt><trkpt lat="44.8922763" lon="9.4878059"><ele>354.4</ele><time>2026-04-10T10:59:49.84Z</time></trkpt><trkpt lat="44.8922182" lon="9.4877315"><ele>355.0</ele><time>2026-04-10T10:59:50.841Z</time></trkpt><trkpt lat="44.8921572" lon="9.4876859"><ele>356.5</ele><time>2026-04-10T10:59:51.84Z</time></trkpt><trkpt lat="44.8920816" lon="9.4877046"><ele>358.0</ele><time>2026-04-10T10:59:52.84Z</time></trkpt><trkpt lat="44.8919956" lon="9.4877489"><ele>359.5</ele><time>2026-04-10T10:59:53.839Z</time></trkpt><trkpt lat="44.8919099" lon="9.4877848"><ele>361.0</ele><time>2026-04-10T10:59:54.839Z</time></trkpt><trkpt lat="44.8918317" lon="9.4878014"><ele>362.5</ele><time>2026-04-10T10:59:55.843Z</time></trkpt><trkpt lat="44.8917574" lon="9.4877877"><ele>364.0</ele><time>2026-04-10T10:59:56.84Z</time></trkpt><trkpt lat="44.8916775" lon="9.4877447"><ele>364.0</ele><time>2026-04-10T10:59:57.841Z</time></trkpt><trkpt lat="44.8915865" lon="9.487683"><ele>364.0</ele><time>2026-04-10T10:59:58.84Z</time></trkpt><trkpt lat="44.8914875" lon="9.4876295"><ele>364.0</ele><time>2026-04-10T10:59:59.84Z</time></trkpt><trkpt lat="44.8913931" lon="9.4875892"><ele>364.0</ele><time>2026-04-10T11:00:00.839Z</time></trkpt><trkpt lat="44.8913012" lon="9.4875374"><ele>364.0</ele><time>2026-04-10T11:00:01.84Z</time></trkpt><trkpt lat="44.8912062" lon="9.4874483"><ele>364.0</ele><time>2026-04-10T11:00:02.841Z</time></trkpt><trkpt lat="44.8911025" lon="9.4873383"><ele>364.0</ele><time>2026-04-10T11:00:03.84Z</time></trkpt><trkpt lat="44.8909982" lon="9.4872207"><ele>364.0</ele><time>2026-04-10T11:00:04.842Z</time></trkpt><trkpt lat="44.8908841" lon="9.4871082"><ele>364.0</ele><time>2026-04-10T11:00:05.84Z</time></trkpt><trkpt lat="44.8907569" lon="9.4870228"><ele>367.0</ele><time>2026-04-10T11:00:06.842Z</time></trkpt><trkpt lat="44.8906259" lon="9.4869679"><ele>370.0</ele><time>2026-04-10T11:00:07.84Z</time></trkpt><trkpt lat="44.8905015" lon="9.486935"><ele>373.0</ele><time>2026-04-10T11:00:08.841Z</time></trkpt><trkpt lat="44.8903991" lon="9.4869158"><ele>376.0</ele><time>2026-04-10T11:00:09.841Z</time></trkpt><trkpt lat="44.8903186" lon="9.4868977"><ele>379.0</ele><time>2026-04-10T11:00:10.84Z</time></trkpt><trkpt lat="44.8902537" lon="9.4868549"><ele>379.0</ele><time>2026-04-10T11:00:11.841Z</time></trkpt><trkpt lat="44.8901948" lon="9.4867817"><ele>379.0</ele><time>2026-04-10T11:00:12.838Z</time></trkpt><trkpt lat="44.8901361" lon="9.4866847"><ele>379.0</ele><time>2026-04-10T11:00:13.839Z</time></trkpt><trkpt lat="44.8900678" lon="9.4865657"><ele>379.0</ele><time>2026-04-10T11:00:14.838Z</time></trkpt><trkpt lat="44.8899857" lon="9.4864371"><ele>379.0</ele><time>2026-04-10T11:00:15.839Z</time></trkpt><trkpt lat="44.8898872" lon="9.4863009"><ele>380.25</ele><time>2026-04-10T11:00:16.838Z</time></trkpt><trkpt lat="44.8897794" lon="9.486176"><ele>381.5</ele><time>2026-04-10T11:00:17.843Z</time></trkpt><trkpt lat="44.8896723" lon="9.4860728"><ele>382.75</ele><time>2026-04-10T11:00:18.84Z</time></trkpt><trkpt lat="44.8895705" lon="9.4860055"><ele>384.0</ele><time>2026-04-10T11:00:19.84Z</time></trkpt><trkpt lat="44.8894699" lon="9.4859758"><ele>384.0</ele><time>2026-04-10T11:00:20.841Z</time></trkpt><trkpt lat="44.8893746" lon="9.48596"><ele>384.0</ele><time>2026-04-10T11:00:21.84Z</time></trkpt><trkpt lat="44.8892908" lon="9.4859341"><ele>384.0</ele><time>2026-04-10T11:00:22.839Z</time></trkpt><trkpt lat="44.8892069" lon="9.4858837"><ele>384.0</ele><time>2026-04-10T11:00:23.841Z</time></trkpt><trkpt lat="44.8891328" lon="9.4857942"><ele>384.0</ele><time>2026-04-10T11:00:24.84Z</time></trkpt><trkpt lat="44.8890663" lon="9.485682"><ele>381.6</ele><time>2026-04-10T11:00:25.839Z</time></trkpt><trkpt lat="44.8890073" lon="9.4855518"><ele>379.2</ele><time>2026-04-10T11:00:26.839Z</time></trkpt><trkpt lat="44.8889478" lon="9.4854231"><ele>376.8</ele><time>2026-04-10T11:00:27.84Z</time></trkpt><trkpt lat="44.8888852" lon="9.485323"><ele>374.40000000000003</ele><time>2026-04-10T11:00:28.841Z</time></trkpt><trkpt lat="44.8888141" lon="9.4852638"><ele>372.0</ele><time>2026-04-10T11:00:29.841Z</time></trkpt><trkpt lat="44.8887323" lon="9.4852346"><ele>372.0</ele><time>2026-04-10T11:00:30.841Z</time></trkpt><trkpt lat="44.8886434" lon="9.4852203"><ele>372.0</ele><time>2026-04-10T11:00:31.841Z</time></trkpt><trkpt lat="44.8885534" lon="9.4852049"><ele>372.0</ele><time>2026-04-10T11:00:32.84Z</time></trkpt><trkpt lat="44.8884617" lon="9.4851797"><ele>372.0</ele><time>2026-04-10T11:00:33.842Z</time></trkpt><trkpt lat="44.8883727" lon="9.4851321"><ele>372.0</ele><time>2026-04-10T11:00:34.84Z</time></trkpt><trkpt lat="44.8882817" lon="9.4850467"><ele>367.75</ele><time>2026-04-10T11:00:35.841Z</time></trkpt><trkpt lat="44.8881967" lon="9.48494"><ele>363.5</ele><time>2026-04-10T11:00:36.839Z</time></trkpt><trkpt lat="44.8880967" lon="9.4848483"><ele>359.25</ele><time>2026-04-10T11:00:37.842Z</time></trkpt><trkpt lat="44.8879783" lon="9.4847667"><ele>355.0</ele><time>2026-04-10T11:00:38.841Z</time></trkpt><trkpt lat="44.8878533" lon="9.4847"><ele>355.0</ele><time>2026-04-10T11:00:39.839Z</time></trkpt><trkpt lat="44.887735" lon="9.484625"><ele>355.0</ele><time>2026-04-10T11:00:40.839Z</time></trkpt><trkpt lat="44.88762" lon="9.4845433"><ele>355.0</ele><time>2026-04-10T11:00:41.841Z</time></trkpt><trkpt lat="44.88751" lon="9.484455"><ele>355.0</ele><time>2026-04-10T11:00:42.84Z</time></trkpt><trkpt lat="44.8874117" lon="9.4843617"><ele>355.8333333333333</ele><time>2026-04-10T11:00:43.84Z</time></trkpt><trkpt lat="44.8873367" lon="9.48429"><ele>356.66666666666663</ele><time>2026-04-10T11:00:44.842Z</time></trkpt><trkpt lat="44.8872717" lon="9.484235"><ele>357.5</ele><time>2026-04-10T11:00:45.839Z</time></trkpt><trkpt lat="44.887195" lon="9.48411"><ele>358.3333333333333</ele><time>2026-04-10T11:00:47.841Z</time></trkpt><trkpt lat="44.8871567" lon="9.4840233"><ele>359.1666666666667</ele><time>2026-04-10T11:00:48.839Z</time></trkpt><trkpt lat="44.887125" lon="9.4839217"><ele>360.0</ele><time>2026-04-10T11:00:49.839Z</time></trkpt><trkpt lat="44.8870867" lon="9.4838117"><ele>362.5</ele><time>2026-04-10T11:00:50.84Z</time></trkpt><trkpt lat="44.8870467" lon="9.4836967"><ele>365.0</ele><time>2026-04-10T11:00:51.839Z</time></trkpt><trkpt lat="44.887" lon="9.4835933"><ele>367.5</ele><time>2026-04-10T11:00:52.839Z</time></trkpt><trkpt lat="44.8869517" lon="9.483505"><ele>370.0</ele><time>2026-04-10T11:00:53.839Z</time></trkpt><trkpt lat="44.8868983" lon="9.4834267"><ele>372.5</ele><time>2026-04-10T11:00:54.839Z</time></trkpt><trkpt lat="44.8868383" lon="9.4833533"><ele>375.0</ele><time>2026-04-10T11:00:55.838Z</time></trkpt><trkpt lat="44.88677" lon="9.483275"><ele>373.0</ele><time>2026-04-10T11:00:56.839Z</time></trkpt><trkpt lat="44.8866967" lon="9.4832"><ele>371.0</ele><time>2026-04-10T11:00:57.839Z</time></trkpt><trkpt lat="44.8866183" lon="9.48312"><ele>369.0</ele><time>2026-04-10T11:00:58.84Z</time></trkpt><trkpt lat="44.886535" lon="9.4830383"><ele>367.0</ele><time>2026-04-10T11:00:59.84Z</time></trkpt><trkpt lat="44.8864467" lon="9.48296"><ele>365.0</ele><time>2026-04-10T11:01:00.839Z</time></trkpt><trkpt lat="44.8863583" lon="9.482885"><ele>365.0</ele><time>2026-04-10T11:01:01.839Z</time></trkpt><trkpt lat="44.8862683" lon="9.4828117"><ele>365.0</ele><time>2026-04-10T11:01:02.84Z</time></trkpt><trkpt lat="44.8861783" lon="9.4827383"><ele>365.0</ele><time>2026-04-10T11:01:03.842Z</time></trkpt><trkpt lat="44.8861033" lon="9.4826583"><ele>365.0</ele><time>2026-04-10T11:01:04.839Z</time></trkpt><trkpt lat="44.8860483" lon="9.48257"><ele>365.0</ele><time>2026-04-10T11:01:05.839Z</time></trkpt><trkpt lat="44.8860117" lon="9.4824733"><ele>365.0</ele><time>2026-04-10T11:01:06.839Z</time></trkpt><trkpt lat="44.8859917" lon="9.48238"><ele>365.0</ele><time>2026-04-10T11:01:07.838Z</time></trkpt><trkpt lat="44.88599" lon="9.4822667"><ele>365.0</ele><time>2026-04-10T11:01:08.839Z</time></trkpt><trkpt lat="44.8859983" lon="9.4821483"><ele>365.0</ele><time>2026-04-10T11:01:09.843Z</time></trkpt><trkpt lat="44.8859933" lon="9.4820383"><ele>365.0</ele><time>2026-04-10T11:01:10.839Z</time></trkpt><trkpt lat="44.88598" lon="9.48195"><ele>365.0</ele><time>2026-04-10T11:01:11.84Z</time></trkpt><trkpt lat="44.8859033" lon="9.481845"><ele>363.5</ele><time>2026-04-10T11:01:13.839Z</time></trkpt><trkpt lat="44.885755" lon="9.4818933"><ele>362.0</ele><time>2026-04-10T11:01:15.838Z</time></trkpt><trkpt lat="44.88564" lon="9.4819633"><ele>360.5</ele><time>2026-04-10T11:01:16.84Z</time></trkpt><trkpt lat="44.8855317" lon="9.4820217"><ele>359.0</ele><time>2026-04-10T11:01:17.84Z</time></trkpt><trkpt lat="44.8854433" lon="9.4820583"><ele>359.0</ele><time>2026-04-10T11:01:18.841Z</time></trkpt><trkpt lat="44.8853667" lon="9.482075"><ele>359.0</ele><time>2026-04-10T11:01:19.843Z</time></trkpt><trkpt lat="44.88529" lon="9.4820717"><ele>359.0</ele><time>2026-04-10T11:01:20.842Z</time></trkpt><trkpt lat="44.88521" lon="9.48205"><ele>359.0</ele><time>2026-04-10T11:01:21.839Z</time></trkpt><trkpt lat="44.8851267" lon="9.482"><ele>359.0</ele><time>2026-04-10T11:01:22.84Z</time></trkpt><trkpt lat="44.8850367" lon="9.4819083"><ele>359.0</ele><time>2026-04-10T11:01:23.84Z</time></trkpt><trkpt lat="44.884935" lon="9.481785"><ele>358.75</ele><time>2026-04-10T11:01:24.841Z</time></trkpt><trkpt lat="44.884825" lon="9.48164"><ele>358.5</ele><time>2026-04-10T11:01:25.839Z</time></trkpt><trkpt lat="44.8847133" lon="9.48149"><ele>358.25</ele><time>2026-04-10T11:01:26.844Z</time></trkpt><trkpt lat="44.884615" lon="9.4813533"><ele>358.0</ele><time>2026-04-10T11:01:27.839Z</time></trkpt><trkpt lat="44.8845333" lon="9.48123"><ele>358.0</ele><time>2026-04-10T11:01:28.84Z</time></trkpt><trkpt lat="44.8844583" lon="9.4811067"><ele>358.0</ele><time>2026-04-10T11:01:29.84Z</time></trkpt><trkpt lat="44.88439" lon="9.4809683"><ele>358.0</ele><time>2026-04-10T11:01:30.842Z</time></trkpt><trkpt lat="44.884325" lon="9.4808067"><ele>358.0</ele><time>2026-04-10T11:01:31.844Z</time></trkpt><trkpt lat="44.8842567" lon="9.4806333"><ele>358.0</ele><time>2026-04-10T11:01:32.84Z</time></trkpt><trkpt lat="44.8841867" lon="9.48045"><ele>358.0</ele><time>2026-04-10T11:01:33.841Z</time></trkpt><trkpt lat="44.8841183" lon="9.48027"><ele>358.0</ele><time>2026-04-10T11:01:34.841Z</time></trkpt><trkpt lat="44.884055" lon="9.4801"><ele>358.0</ele><time>2026-04-10T11:01:35.841Z</time></trkpt><trkpt lat="44.883995" lon="9.4799533"><ele>358.0</ele><time>2026-04-10T11:01:36.84Z</time></trkpt><trkpt lat="44.8839333" lon="9.479835"><ele>358.0</ele><time>2026-04-10T11:01:37.841Z</time></trkpt><trkpt lat="44.8838617" lon="9.479745"><ele>358.0</ele><time>2026-04-10T11:01:38.84Z</time></trkpt><trkpt lat="44.8837733" lon="9.47969"><ele>358.0</ele><time>2026-04-10T11:01:39.842Z</time></trkpt><trkpt lat="44.88367" lon="9.4796517"><ele>358.0</ele><time>2026-04-10T11:01:40.842Z</time></trkpt><trkpt lat="44.8835583" lon="9.4796183"><ele>363.0</ele><time>2026-04-10T11:01:41.842Z</time></trkpt><trkpt lat="44.883445" lon="9.4795783"><ele>368.0</ele><time>2026-04-10T11:01:42.842Z</time></trkpt><trkpt lat="44.8833317" lon="9.4795333"><ele>373.0</ele><time>2026-04-10T11:01:43.843Z</time></trkpt><trkpt lat="44.883225" lon="9.4794617"><ele>378.0</ele><time>2026-04-10T11:01:44.843Z</time></trkpt><trkpt lat="44.883125" lon="9.4793867"><ele>378.0</ele><time>2026-04-10T11:01:45.842Z</time></trkpt><trkpt lat="44.8830167" lon="9.479335"><ele>378.0</ele><time>2026-04-10T11:01:46.839Z</time></trkpt><trkpt lat="44.8829067" lon="9.4793"><ele>378.0</ele><time>2026-04-10T11:01:47.84Z</time></trkpt><trkpt lat="44.8827983" lon="9.4792717"><ele>378.0</ele><time>2026-04-10T11:01:48.838Z</time></trkpt><trkpt lat="44.8826883" lon="9.4792233"><ele>377.75</ele><time>2026-04-10T11:01:49.84Z</time></trkpt><trkpt lat="44.8825733" lon="9.4791733"><ele>377.5</ele><time>2026-04-10T11:01:50.839Z</time></trkpt><trkpt lat="44.88247" lon="9.4791033"><ele>377.25</ele><time>2026-04-10T11:01:51.844Z</time></trkpt><trkpt lat="44.882365" lon="9.4790517"><ele>377.0</ele><time>2026-04-10T11:01:52.84Z</time></trkpt><trkpt lat="44.8822567" lon="9.4790383"><ele>377.0</ele><time>2026-04-10T11:01:53.84Z</time></trkpt><trkpt lat="44.88216" lon="9.479025"><ele>377.0</ele><time>2026-04-10T11:01:54.84Z</time></trkpt><trkpt lat="44.8820767" lon="9.47901"><ele>377.0</ele><time>2026-04-10T11:01:55.841Z</time></trkpt><trkpt lat="44.8819933" lon="9.478975"><ele>377.0</ele><time>2026-04-10T11:01:56.842Z</time></trkpt><trkpt lat="44.8819117" lon="9.478895"><ele>377.0</ele><time>2026-04-10T11:01:57.842Z</time></trkpt><trkpt lat="44.8818083" lon="9.4788117"><ele>381.75</ele><time>2026-04-10T11:01:58.841Z</time></trkpt><trkpt lat="44.88169" lon="9.478735"><ele>386.5</ele><time>2026-04-10T11:01:59.84Z</time></trkpt><trkpt lat="44.8815667" lon="9.4786767"><ele>391.25</ele><time>2026-04-10T11:02:00.841Z</time></trkpt><trkpt lat="44.881455" lon="9.4786317"><ele>396.0</ele><time>2026-04-10T11:02:01.841Z</time></trkpt><trkpt lat="44.8813583" lon="9.478605"><ele>396.0</ele><time>2026-04-10T11:02:02.844Z</time></trkpt><trkpt lat="44.8812767" lon="9.478565"><ele>396.0</ele><time>2026-04-10T11:02:03.841Z</time></trkpt><trkpt lat="44.88121" lon="9.4785067"><ele>396.0</ele><time>2026-04-10T11:02:04.839Z</time></trkpt><trkpt lat="44.8811417" lon="9.478435"><ele>396.0</ele><time>2026-04-10T11:02:05.844Z</time></trkpt><trkpt lat="44.8810717" lon="9.478355"><ele>396.0</ele><time>2026-04-10T11:02:06.842Z</time></trkpt><trkpt lat="44.8810067" lon="9.4782917"><ele>396.0</ele><time>2026-04-10T11:02:07.841Z</time></trkpt><trkpt lat="44.8809417" lon="9.4782283"><ele>393.5</ele><time>2026-04-10T11:02:08.841Z</time></trkpt><trkpt lat="44.8808817" lon="9.47815"><ele>391.0</ele><time>2026-04-10T11:02:09.84Z</time></trkpt><trkpt lat="44.8808283" lon="9.4780617"><ele>388.5</ele><time>2026-04-10T11:02:10.842Z</time></trkpt><trkpt lat="44.8807617" lon="9.4779833"><ele>386.0</ele><time>2026-04-10T11:02:11.84Z</time></trkpt><trkpt lat="44.8806867" lon="9.477925"><ele>383.5</ele><time>2026-04-10T11:02:12.842Z</time></trkpt><trkpt lat="44.8805933" lon="9.4778833"><ele>381.0</ele><time>2026-04-10T11:02:13.843Z</time></trkpt><trkpt lat="44.8804717" lon="9.4778633"><ele>387.5</ele><time>2026-04-10T11:02:14.841Z</time></trkpt><trkpt lat="44.8803407" lon="9.4778569"><ele>394.0</ele><time>2026-04-10T11:02:15.839Z</time></trkpt><trkpt lat="44.8802114" lon="9.4778649"><ele>400.5</ele><time>2026-04-10T11:02:16.84Z</time></trkpt><trkpt lat="44.8800991" lon="9.4778817"><ele>407.0</ele><time>2026-04-10T11:02:17.84Z</time></trkpt><trkpt lat="44.8800061" lon="9.4778944"><ele>407.0</ele><time>2026-04-10T11:02:18.841Z</time></trkpt><trkpt lat="44.8799273" lon="9.4778866"><ele>407.0</ele><time>2026-04-10T11:02:19.84Z</time></trkpt><trkpt lat="44.879856" lon="9.4778497"><ele>407.0</ele><time>2026-04-10T11:02:20.84Z</time></trkpt><trkpt lat="44.8797874" lon="9.4777836"><ele>407.0</ele><time>2026-04-10T11:02:21.839Z</time></trkpt><trkpt lat="44.8797168" lon="9.4776809"><ele>407.0</ele><time>2026-04-10T11:02:22.838Z</time></trkpt><trkpt lat="44.8796386" lon="9.4775498"><ele>407.0</ele><time>2026-04-10T11:02:23.839Z</time></trkpt><trkpt lat="44.8795556" lon="9.4774091"><ele>407.0</ele><time>2026-04-10T11:02:24.84Z</time></trkpt><trkpt lat="44.8794689" lon="9.4772749"><ele>407.0</ele><time>2026-04-10T11:02:25.842Z</time></trkpt><trkpt lat="44.8793885" lon="9.477157"><ele>407.0</ele><time>2026-04-10T11:02:26.839Z</time></trkpt><trkpt lat="44.8793279" lon="9.477038"><ele>406.40000000000003</ele><time>2026-04-10T11:02:27.839Z</time></trkpt><trkpt lat="44.8792795" lon="9.4769081"><ele>405.8</ele><time>2026-04-10T11:02:28.846Z</time></trkpt><trkpt lat="44.8792391" lon="9.4767885"><ele>405.2</ele><time>2026-04-10T11:02:29.84Z</time></trkpt><trkpt lat="44.8791914" lon="9.4766888"><ele>404.6</ele><time>2026-04-10T11:02:30.84Z</time></trkpt><trkpt lat="44.8791294" lon="9.4766172"><ele>404.0</ele><time>2026-04-10T11:02:31.839Z</time></trkpt><trkpt lat="44.8790506" lon="9.4765616"><ele>404.0</ele><time>2026-04-10T11:02:32.84Z</time></trkpt><trkpt lat="44.878971" lon="9.4765029"><ele>404.0</ele><time>2026-04-10T11:02:33.842Z</time></trkpt><trkpt lat="44.8789008" lon="9.476421"><ele>404.0</ele><time>2026-04-10T11:02:34.839Z</time></trkpt><trkpt lat="44.8788466" lon="9.4763113"><ele>404.0</ele><time>2026-04-10T11:02:35.84Z</time></trkpt><trkpt lat="44.8788114" lon="9.4761856"><ele>404.0</ele><time>2026-04-10T11:02:36.841Z</time></trkpt><trkpt lat="44.8787898" lon="9.4760559"><ele>406.6</ele><time>2026-04-10T11:02:37.841Z</time></trkpt><trkpt lat="44.8787862" lon="9.4759274"><ele>409.2</ele><time>2026-04-10T11:02:38.842Z</time></trkpt><trkpt lat="44.878806" lon="9.4757896"><ele>411.8</ele><time>2026-04-10T11:02:39.839Z</time></trkpt><trkpt lat="44.8788304" lon="9.4756393"><ele>414.40000000000003</ele><time>2026-04-10T11:02:40.84Z</time></trkpt><trkpt lat="44.8788365" lon="9.4754786"><ele>417.0</ele><time>2026-04-10T11:02:41.84Z</time></trkpt><trkpt lat="44.8788185" lon="9.4753197"><ele>418.20000000000005</ele><time>2026-04-10T11:02:42.84Z</time></trkpt><trkpt lat="44.878786" lon="9.4751675"><ele>419.4</ele><time>2026-04-10T11:02:43.84Z</time></trkpt><trkpt lat="44.8787412" lon="9.475031"><ele>420.6</ele><time>2026-04-10T11:02:44.841Z</time></trkpt><trkpt lat="44.8786857" lon="9.4749131"><ele>421.79999999999995</ele><time>2026-04-10T11:02:45.843Z</time></trkpt><trkpt lat="44.8786166" lon="9.4748077"><ele>423.0</ele><time>2026-04-10T11:02:46.839Z</time></trkpt><trkpt lat="44.8785449" lon="9.4747123"><ele>423.0</ele><time>2026-04-10T11:02:47.841Z</time></trkpt><trkpt lat="44.8784847" lon="9.4746223"><ele>423.0</ele><time>2026-04-10T11:02:48.839Z</time></trkpt><trkpt lat="44.8784393" lon="9.4745322"><ele>423.0</ele><time>2026-04-10T11:02:49.841Z</time></trkpt><trkpt lat="44.8784088" lon="9.474436"><ele>423.0</ele><time>2026-04-10T11:02:50.841Z</time></trkpt><trkpt lat="44.8783957" lon="9.4743152"><ele>423.0</ele><time>2026-04-10T11:02:51.839Z</time></trkpt><trkpt lat="44.8784119" lon="9.474169"><ele>423.0</ele><time>2026-04-10T11:02:52.841Z</time></trkpt><trkpt lat="44.8784408" lon="9.4740067"><ele>425.25</ele><time>2026-04-10T11:02:53.84Z</time></trkpt><trkpt lat="44.878474" lon="9.4738381"><ele>427.5</ele><time>2026-04-10T11:02:54.84Z</time></trkpt><trkpt lat="44.878511" lon="9.4736784"><ele>429.75</ele><time>2026-04-10T11:02:55.839Z</time></trkpt><trkpt lat="44.8785361" lon="9.4735266"><ele>432.0</ele><time>2026-04-10T11:02:56.842Z</time></trkpt><trkpt lat="44.87853" lon="9.4733874"><ele>433.6666666666667</ele><time>2026-04-10T11:02:57.842Z</time></trkpt><trkpt lat="44.8785097" lon="9.4732698"><ele>435.33333333333337</ele><time>2026-04-10T11:02:58.84Z</time></trkpt><trkpt lat="44.8784945" lon="9.4731639"><ele>437.0</ele><time>2026-04-10T11:02:59.843Z</time></trkpt><trkpt lat="44.8784901" lon="9.4730688"><ele>438.6666666666667</ele><time>2026-04-10T11:03:00.84Z</time></trkpt><trkpt lat="44.8785036" lon="9.4729745"><ele>440.33333333333337</ele><time>2026-04-10T11:03:01.842Z</time></trkpt><trkpt lat="44.8785311" lon="9.4728808"><ele>442.0</ele><time>2026-04-10T11:03:02.841Z</time></trkpt><trkpt lat="44.8785847" lon="9.4727871"><ele>442.8</ele><time>2026-04-10T11:03:03.842Z</time></trkpt><trkpt lat="44.8786554" lon="9.472682"><ele>443.6</ele><time>2026-04-10T11:03:04.841Z</time></trkpt><trkpt lat="44.8787157" lon="9.4725701"><ele>444.40000000000003</ele><time>2026-04-10T11:03:05.84Z</time></trkpt><trkpt lat="44.8787522" lon="9.4724564"><ele>445.20000000000005</ele><time>2026-04-10T11:03:06.842Z</time></trkpt><trkpt lat="44.8787631" lon="9.4723413"><ele>446.0</ele><time>2026-04-10T11:03:07.841Z</time></trkpt><trkpt lat="44.878751" lon="9.4722217"><ele>449.0</ele><time>2026-04-10T11:03:08.844Z</time></trkpt><trkpt lat="44.8787161" lon="9.4721001"><ele>452.0</ele><time>2026-04-10T11:03:09.841Z</time></trkpt><trkpt lat="44.8786449" lon="9.4719812"><ele>455.0</ele><time>2026-04-10T11:03:10.84Z</time></trkpt><trkpt lat="44.8785764" lon="9.471851"><ele>458.0</ele><time>2026-04-10T11:03:11.839Z</time></trkpt><trkpt lat="44.8785211" lon="9.4717045"><ele>461.0</ele><time>2026-04-10T11:03:12.84Z</time></trkpt><trkpt lat="44.8784727" lon="9.4715498"><ele>453.25</ele><time>2026-04-10T11:03:13.845Z</time></trkpt><trkpt lat="44.8784304" lon="9.47139"><ele>445.5</ele><time>2026-04-10T11:03:14.841Z</time></trkpt><trkpt lat="44.8783906" lon="9.4712228"><ele>437.75</ele><time>2026-04-10T11:03:15.84Z</time></trkpt><trkpt lat="44.8783524" lon="9.4710476"><ele>430.0</ele><time>2026-04-10T11:03:16.84Z</time></trkpt><trkpt lat="44.8783163" lon="9.4708676"><ele>430.0</ele><time>2026-04-10T11:03:17.84Z</time></trkpt><trkpt lat="44.878279" lon="9.470685"><ele>430.0</ele><time>2026-04-10T11:03:18.841Z</time></trkpt><trkpt lat="44.8782484" lon="9.4705069"><ele>430.0</ele><time>2026-04-10T11:03:19.841Z</time></trkpt><trkpt lat="44.8782242" lon="9.470337"><ele>430.0</ele><time>2026-04-10T11:03:20.846Z</time></trkpt><trkpt lat="44.8782018" lon="9.4701808"><ele>430.6666666666667</ele><time>2026-04-10T11:03:21.843Z</time></trkpt><trkpt lat="44.878185" lon="9.4700386"><ele>431.33333333333337</ele><time>2026-04-10T11:03:22.84Z</time></trkpt><trkpt lat="44.8781774" lon="9.4699164"><ele>432.0</ele><time>2026-04-10T11:03:23.841Z</time></trkpt><trkpt lat="44.8781853" lon="9.4698121"><ele>432.66666666666663</ele><time>2026-04-10T11:03:24.842Z</time></trkpt><trkpt lat="44.8782068" lon="9.4697186"><ele>433.3333333333333</ele><time>2026-04-10T11:03:25.843Z</time></trkpt><trkpt lat="44.8782462" lon="9.4696384"><ele>434.0</ele><time>2026-04-10T11:03:26.841Z</time></trkpt><trkpt lat="44.8783207" lon="9.4695522"><ele>433.99999999999994</ele><time>2026-04-10T11:03:27.842Z</time></trkpt><trkpt lat="44.8784049" lon="9.4694717"><ele>434.0</ele><time>2026-04-10T11:03:28.841Z</time></trkpt><trkpt lat="44.8784779" lon="9.4693921"><ele>434.0</ele><time>2026-04-10T11:03:29.843Z</time></trkpt><trkpt lat="44.8785234" lon="9.4693058"><ele>434.0</ele><time>2026-04-10T11:03:30.84Z</time></trkpt><trkpt lat="44.8785426" lon="9.4692064"><ele>433.99999999999994</ele><time>2026-04-10T11:03:31.842Z</time></trkpt><trkpt lat="44.8785392" lon="9.4691041"><ele>434.0</ele><time>2026-04-10T11:03:32.841Z</time></trkpt><trkpt lat="44.878512" lon="9.4689939"><ele>435.75</ele><time>2026-04-10T11:03:33.843Z</time></trkpt><trkpt lat="44.8784709" lon="9.4688659"><ele>437.5</ele><time>2026-04-10T11:03:34.841Z</time></trkpt><trkpt lat="44.8784335" lon="9.4687064"><ele>439.25</ele><time>2026-04-10T11:03:35.84Z</time></trkpt><trkpt lat="44.8784093" lon="9.4685325"><ele>441.0</ele><time>2026-04-10T11:03:36.841Z</time></trkpt><trkpt lat="44.8783909" lon="9.4683589"><ele>441.0</ele><time>2026-04-10T11:03:37.841Z</time></trkpt><trkpt lat="44.8783737" lon="9.4681884"><ele>441.0</ele><time>2026-04-10T11:03:38.848Z</time></trkpt><trkpt lat="44.8783628" lon="9.46804"><ele>441.0</ele><time>2026-04-10T11:03:39.839Z</time></trkpt><trkpt lat="44.8783625" lon="9.4679222"><ele>441.0</ele><time>2026-04-10T11:03:40.839Z</time></trkpt><trkpt lat="44.8783743" lon="9.4678283"><ele>441.0</ele><time>2026-04-10T11:03:41.84Z</time></trkpt><trkpt lat="44.8784315" lon="9.4677016"><ele>445.20000000000005</ele><time>2026-04-10T11:03:43.842Z</time></trkpt><trkpt lat="44.8785105" lon="9.4676879"><ele>449.40000000000003</ele><time>2026-04-10T11:03:45.839Z</time></trkpt><trkpt lat="44.8785687" lon="9.4677919"><ele>453.6</ele><time>2026-04-10T11:03:47.84Z</time></trkpt><trkpt lat="44.8786144" lon="9.4679634"><ele>457.8</ele><time>2026-04-10T11:03:49.844Z</time></trkpt><trkpt lat="44.8786527" lon="9.4680692"><ele>462.0</ele><time>2026-04-10T11:03:50.842Z</time></trkpt><trkpt lat="44.8787104" lon="9.4681804"><ele>462.0</ele><time>2026-04-10T11:03:51.842Z</time></trkpt><trkpt lat="44.8787848" lon="9.4682797"><ele>462.00000000000006</ele><time>2026-04-10T11:03:52.841Z</time></trkpt><trkpt lat="44.8788745" lon="9.4683668"><ele>462.00000000000006</ele><time>2026-04-10T11:03:53.841Z</time></trkpt><trkpt lat="44.8789668" lon="9.4684329"><ele>462.0</ele><time>2026-04-10T11:03:54.841Z</time></trkpt><trkpt lat="44.8790432" lon="9.4684727"><ele>462.0</ele><time>2026-04-10T11:03:55.841Z</time></trkpt><trkpt lat="44.8791504" lon="9.4684612"><ele>462.0</ele><time>2026-04-10T11:03:57.842Z</time></trkpt><trkpt lat="44.8791858" lon="9.4683352"><ele>462.00000000000006</ele><time>2026-04-10T11:03:59.841Z</time></trkpt><trkpt lat="44.87919" lon="9.4682209"><ele>462.00000000000006</ele><time>2026-04-10T11:04:00.839Z</time></trkpt><trkpt lat="44.8792011" lon="9.4680757"><ele>462.0</ele><time>2026-04-10T11:04:01.845Z</time></trkpt><trkpt lat="44.8792112" lon="9.467932"><ele>462.0</ele><time>2026-04-10T11:04:02.841Z</time></trkpt><trkpt lat="44.8792032" lon="9.4678098"><ele>462.3333333333333</ele><time>2026-04-10T11:04:03.839Z</time></trkpt><trkpt lat="44.8791827" lon="9.4676987"><ele>462.66666666666663</ele><time>2026-04-10T11:04:04.839Z</time></trkpt><trkpt lat="44.8791467" lon="9.4676061"><ele>463.0</ele><time>2026-04-10T11:04:05.84Z</time></trkpt><trkpt lat="44.879109" lon="9.4675292"><ele>463.3333333333333</ele><time>2026-04-10T11:04:06.851Z</time></trkpt><trkpt lat="44.8791113" lon="9.4673722"><ele>463.66666666666663</ele><time>2026-04-10T11:04:08.841Z</time></trkpt><trkpt lat="44.8791547" lon="9.4672812"><ele>464.0</ele><time>2026-04-10T11:04:09.841Z</time></trkpt><trkpt lat="44.8792173" lon="9.4671828"><ele>468.2</ele><time>2026-04-10T11:04:10.839Z</time></trkpt><trkpt lat="44.8792991" lon="9.4670862"><ele>472.4</ele><time>2026-04-10T11:04:11.841Z</time></trkpt><trkpt lat="44.8793881" lon="9.4670159"><ele>476.6</ele><time>2026-04-10T11:04:12.839Z</time></trkpt><trkpt lat="44.8794738" lon="9.4669783"><ele>480.8</ele><time>2026-04-10T11:04:13.84Z</time></trkpt><trkpt lat="44.8795517" lon="9.466967"><ele>485.0</ele><time>2026-04-10T11:04:14.84Z</time></trkpt><trkpt lat="44.8796196" lon="9.4670298"><ele>485.6</ele><time>2026-04-10T11:04:16.84Z</time></trkpt><trkpt lat="44.8795874" lon="9.4672119"><ele>486.2</ele><time>2026-04-10T11:04:18.84Z</time></trkpt><trkpt lat="44.8795735" lon="9.4673174"><ele>486.79999999999995</ele><time>2026-04-10T11:04:19.842Z</time></trkpt><trkpt lat="44.8795798" lon="9.4674262"><ele>487.4</ele><time>2026-04-10T11:04:20.841Z</time></trkpt><trkpt lat="44.8796176" lon="9.4675382"><ele>488.0</ele><time>2026-04-10T11:04:21.84Z</time></trkpt><trkpt lat="44.8796761" lon="9.4676574"><ele>488.0</ele><time>2026-04-10T11:04:22.841Z</time></trkpt><trkpt lat="44.8797401" lon="9.4677855"><ele>487.99999999999994</ele><time>2026-04-10T11:04:23.84Z</time></trkpt><trkpt lat="44.8797969" lon="9.4679051"><ele>487.99999999999994</ele><time>2026-04-10T11:04:24.84Z</time></trkpt><trkpt lat="44.8798445" lon="9.4679978"><ele>488.0</ele><time>2026-04-10T11:04:25.839Z</time></trkpt><trkpt lat="44.8799196" lon="9.4680316"><ele>488.0</ele><time>2026-04-10T11:04:27.84Z</time></trkpt><trkpt lat="44.8799597" lon="9.4679354"><ele>488.0</ele><time>2026-04-10T11:04:29.84Z</time></trkpt><trkpt lat="44.8799376" lon="9.467785"><ele>487.99999999999994</ele><time>2026-04-10T11:04:31.839Z</time></trkpt><trkpt lat="44.8799146" lon="9.4676873"><ele>487.99999999999994</ele><time>2026-04-10T11:04:32.841Z</time></trkpt><trkpt lat="44.8799024" lon="9.4675479"><ele>488.0</ele><time>2026-04-10T11:04:34.84Z</time></trkpt><trkpt lat="44.879974" lon="9.4675467"><ele>488.0</ele><time>2026-04-10T11:04:37.84Z</time></trkpt><trkpt lat="44.8800412" lon="9.4676778"><ele>488.0</ele><time>2026-04-10T11:04:39.843Z</time></trkpt><trkpt lat="44.8800984" lon="9.4677565"><ele>487.99999999999994</ele><time>2026-04-10T11:04:40.84Z</time></trkpt><trkpt lat="44.8801799" lon="9.467848"><ele>487.99999999999994</ele><time>2026-04-10T11:04:41.84Z</time></trkpt><trkpt lat="44.8802583" lon="9.4679475"><ele>488.0</ele><time>2026-04-10T11:04:42.84Z</time></trkpt><trkpt lat="44.8803179" lon="9.468058"><ele>488.0</ele><time>2026-04-10T11:04:43.84Z</time></trkpt><trkpt lat="44.8803562" lon="9.468181"><ele>494.4</ele><time>2026-04-10T11:04:44.839Z</time></trkpt><trkpt lat="44.8803708" lon="9.4683158"><ele>500.79999999999995</ele><time>2026-04-10T11:04:45.84Z</time></trkpt><trkpt lat="44.8803586" lon="9.4684566"><ele>507.2</ele><time>2026-04-10T11:04:46.839Z</time></trkpt><trkpt lat="44.8803229" lon="9.4685965"><ele>513.6</ele><time>2026-04-10T11:04:47.843Z</time></trkpt><trkpt lat="44.8802717" lon="9.4687366"><ele>520.0</ele><time>2026-04-10T11:04:48.842Z</time></trkpt><trkpt lat="44.8802195" lon="9.468862"><ele>520.0</ele><time>2026-04-10T11:04:49.841Z</time></trkpt><trkpt lat="44.8801907" lon="9.4689492"><ele>520.0</ele><time>2026-04-10T11:04:50.842Z</time></trkpt><trkpt lat="44.8801966" lon="9.4690529"><ele>520.0</ele><time>2026-04-10T11:04:52.841Z</time></trkpt><trkpt lat="44.8803046" lon="9.4689694"><ele>520.0</ele><time>2026-04-10T11:04:55.841Z</time></trkpt><trkpt lat="44.8803716" lon="9.4688662"><ele>520.0</ele><time>2026-04-10T11:04:56.841Z</time></trkpt><trkpt lat="44.8804404" lon="9.4687458"><ele>520.0</ele><time>2026-04-10T11:04:57.842Z</time></trkpt><trkpt lat="44.8804995" lon="9.4686038"><ele>520.0</ele><time>2026-04-10T11:04:58.841Z</time></trkpt><trkpt lat="44.8805461" lon="9.4684391"><ele>520.0</ele><time>2026-04-10T11:04:59.841Z</time></trkpt><trkpt lat="44.8805875" lon="9.4682569"><ele>520.0</ele><time>2026-04-10T11:05:00.841Z</time></trkpt><trkpt lat="44.8806311" lon="9.4680617"><ele>518.6</ele><time>2026-04-10T11:05:01.842Z</time></trkpt><trkpt lat="44.8806733" lon="9.4678709"><ele>517.2</ele><time>2026-04-10T11:05:02.842Z</time></trkpt><trkpt lat="44.8807099" lon="9.4677262"><ele>515.8</ele><time>2026-04-10T11:05:03.846Z</time></trkpt><trkpt lat="44.8807448" lon="9.4676159"><ele>514.4</ele><time>2026-04-10T11:05:04.84Z</time></trkpt><trkpt lat="44.8807802" lon="9.4675262"><ele>513.0</ele><time>2026-04-10T11:05:05.84Z</time></trkpt><trkpt lat="44.8808211" lon="9.4674583"><ele>513.0</ele><time>2026-04-10T11:05:06.841Z</time></trkpt><trkpt lat="44.8808985" lon="9.4673917"><ele>513.0</ele><time>2026-04-10T11:05:08.842Z</time></trkpt><trkpt lat="44.8809548" lon="9.4675026"><ele>513.0</ele><time>2026-04-10T11:05:11.842Z</time></trkpt><trkpt lat="44.880923" lon="9.4676848"><ele>513.0</ele><time>2026-04-10T11:05:13.84Z</time></trkpt><trkpt lat="44.8809011" lon="9.4677957"><ele>513.0</ele><time>2026-04-10T11:05:14.842Z</time></trkpt><trkpt lat="44.8808805" lon="9.4679213"><ele>514.75</ele><time>2026-04-10T11:05:15.84Z</time></trkpt><trkpt lat="44.880871" lon="9.4680621"><ele>516.5</ele><time>2026-04-10T11:05:16.839Z</time></trkpt><trkpt lat="44.880895" lon="9.4682197"><ele>518.25</ele><time>2026-04-10T11:05:17.842Z</time></trkpt><trkpt lat="44.8809313" lon="9.4683844"><ele>520.0</ele><time>2026-04-10T11:05:18.842Z</time></trkpt><trkpt lat="44.8809647" lon="9.468545"><ele>523.3333333333334</ele><time>2026-04-10T11:05:19.841Z</time></trkpt><trkpt lat="44.8809903" lon="9.4686943"><ele>526.6666666666667</ele><time>2026-04-10T11:05:20.843Z</time></trkpt><trkpt lat="44.881015" lon="9.4688263"><ele>530.0</ele><time>2026-04-10T11:05:21.843Z</time></trkpt><trkpt lat="44.8810365" lon="9.4689363"><ele>533.3333333333334</ele><time>2026-04-10T11:05:22.84Z</time></trkpt><trkpt lat="44.8810667" lon="9.4690213"><ele>536.6666666666666</ele><time>2026-04-10T11:05:23.841Z</time></trkpt><trkpt lat="44.8811429" lon="9.4690375"><ele>540.0</ele><time>2026-04-10T11:05:25.841Z</time></trkpt><trkpt lat="44.8811983" lon="9.4689476"><ele>540.0</ele><time>2026-04-10T11:05:27.843Z</time></trkpt><trkpt lat="44.8812347" lon="9.468809"><ele>540.0</ele><time>2026-04-10T11:05:29.842Z</time></trkpt><trkpt lat="44.8812606" lon="9.4686595"><ele>540.0</ele><time>2026-04-10T11:05:31.839Z</time></trkpt><trkpt lat="44.8813005" lon="9.4685225"><ele>540.0</ele><time>2026-04-10T11:05:33.843Z</time></trkpt><trkpt lat="44.8813588" lon="9.4684296"><ele>540.0</ele><time>2026-04-10T11:05:35.841Z</time></trkpt><trkpt lat="44.8814411" lon="9.4684089"><ele>540.0</ele><time>2026-04-10T11:05:37.842Z</time></trkpt><trkpt lat="44.8815395" lon="9.4684555"><ele>540.0</ele><time>2026-04-10T11:05:39.842Z</time></trkpt><trkpt lat="44.8816495" lon="9.4685064"><ele>540.0</ele><time>2026-04-10T11:05:41.843Z</time></trkpt><trkpt lat="44.8817154" lon="9.4685275"><ele>540.0</ele><time>2026-04-10T11:05:42.841Z</time></trkpt><trkpt lat="44.8817821" lon="9.4685363"><ele>540.0</ele><time>2026-04-10T11:05:43.842Z</time></trkpt><trkpt lat="44.8818468" lon="9.4684591"><ele>540.0</ele><time>2026-04-10T11:05:45.841Z</time></trkpt><trkpt lat="44.8818487" lon="9.4682736"><ele>541.6</ele><time>2026-04-10T11:05:47.844Z</time></trkpt><trkpt lat="44.8818579" lon="9.4681448"><ele>543.2</ele><time>2026-04-10T11:05:48.84Z</time></trkpt><trkpt lat="44.8818857" lon="9.4680105"><ele>544.8</ele><time>2026-04-10T11:05:49.84Z</time></trkpt><trkpt lat="44.8819405" lon="9.4678735"><ele>546.4</ele><time>2026-04-10T11:05:50.842Z</time></trkpt><trkpt lat="44.8820179" lon="9.4677334"><ele>548.0</ele><time>2026-04-10T11:05:51.84Z</time></trkpt><trkpt lat="44.882108" lon="9.4675851"><ele>548.0</ele><time>2026-04-10T11:05:52.842Z</time></trkpt><trkpt lat="44.8822002" lon="9.467423"><ele>548.0</ele><time>2026-04-10T11:05:53.841Z</time></trkpt><trkpt lat="44.8822843" lon="9.4672659"><ele>548.0</ele><time>2026-04-10T11:05:54.841Z</time></trkpt><trkpt lat="44.8823583" lon="9.4671367"><ele>548.0</ele><time>2026-04-10T11:05:55.842Z</time></trkpt><trkpt lat="44.8824483" lon="9.4670267"><ele>545.5</ele><time>2026-04-10T11:05:56.842Z</time></trkpt><trkpt lat="44.8825517" lon="9.4669217"><ele>543.0</ele><time>2026-04-10T11:05:57.841Z</time></trkpt><trkpt lat="44.8826633" lon="9.4668"><ele>540.5</ele><time>2026-04-10T11:05:58.841Z</time></trkpt><trkpt lat="44.88276" lon="9.4666483"><ele>538.0</ele><time>2026-04-10T11:05:59.842Z</time></trkpt><trkpt lat="44.8828333" lon="9.4664767"><ele>542.25</ele><time>2026-04-10T11:06:00.841Z</time></trkpt><trkpt lat="44.8828783" lon="9.4663083"><ele>546.5</ele><time>2026-04-10T11:06:01.842Z</time></trkpt><trkpt lat="44.8829083" lon="9.4661317"><ele>550.75</ele><time>2026-04-10T11:06:02.841Z</time></trkpt><trkpt lat="44.8829367" lon="9.4659583"><ele>555.0</ele><time>2026-04-10T11:06:03.843Z</time></trkpt><trkpt lat="44.8829783" lon="9.46579"><ele>555.0</ele><time>2026-04-10T11:06:04.843Z</time></trkpt><trkpt lat="44.8830183" lon="9.4656317"><ele>555.0</ele><time>2026-04-10T11:06:05.84Z</time></trkpt><trkpt lat="44.8830383" lon="9.46548"><ele>555.0</ele><time>2026-04-10T11:06:06.842Z</time></trkpt><trkpt lat="44.8830467" lon="9.465335"><ele>555.0</ele><time>2026-04-10T11:06:07.842Z</time></trkpt><trkpt lat="44.8830483" lon="9.4651983"><ele>555.0</ele><time>2026-04-10T11:06:08.841Z</time></trkpt><trkpt lat="44.88298" lon="9.4650517"><ele>554.75</ele><time>2026-04-10T11:06:09.844Z</time></trkpt><trkpt lat="44.8829217" lon="9.4648967"><ele>554.5</ele><time>2026-04-10T11:06:10.84Z</time></trkpt><trkpt lat="44.8829017" lon="9.46474"><ele>554.25</ele><time>2026-04-10T11:06:11.842Z</time></trkpt><trkpt lat="44.88291" lon="9.4645833"><ele>554.0</ele><time>2026-04-10T11:06:12.841Z</time></trkpt><trkpt lat="44.882935" lon="9.464415"><ele>554.0</ele><time>2026-04-10T11:06:13.842Z</time></trkpt><trkpt lat="44.8829633" lon="9.4642367"><ele>554.0</ele><time>2026-04-10T11:06:14.842Z</time></trkpt><trkpt lat="44.883" lon="9.464045"><ele>554.0</ele><time>2026-04-10T11:06:15.841Z</time></trkpt><trkpt lat="44.8830383" lon="9.4638467"><ele>554.0</ele><time>2026-04-10T11:06:16.84Z</time></trkpt><trkpt lat="44.883085" lon="9.4636383"><ele>554.3333333333333</ele><time>2026-04-10T11:06:17.841Z</time></trkpt><trkpt lat="44.8831367" lon="9.4634333"><ele>554.6666666666666</ele><time>2026-04-10T11:06:18.84Z</time></trkpt><trkpt lat="44.8831983" lon="9.463235"><ele>555.0</ele><time>2026-04-10T11:06:19.84Z</time></trkpt><trkpt lat="44.8832717" lon="9.4630417"><ele>554.0</ele><time>2026-04-10T11:06:20.841Z</time></trkpt><trkpt lat="44.8833483" lon="9.4628567"><ele>553.0</ele><time>2026-04-10T11:06:21.84Z</time></trkpt><trkpt lat="44.88343" lon="9.4626783"><ele>552.0</ele><time>2026-04-10T11:06:22.84Z</time></trkpt><trkpt lat="44.8835183" lon="9.4625"><ele>558.5</ele><time>2026-04-10T11:06:23.84Z</time></trkpt><trkpt lat="44.8836067" lon="9.4623417"><ele>565.0</ele><time>2026-04-10T11:06:24.843Z</time></trkpt><trkpt lat="44.883695" lon="9.4621833"><ele>571.5</ele><time>2026-04-10T11:06:25.84Z</time></trkpt><trkpt lat="44.8837733" lon="9.4620033"><ele>578.0</ele><time>2026-04-10T11:06:26.841Z</time></trkpt><trkpt lat="44.8838367" lon="9.461805"><ele>578.0</ele><time>2026-04-10T11:06:27.841Z</time></trkpt><trkpt lat="44.8838917" lon="9.461595"><ele>578.0</ele><time>2026-04-10T11:06:28.841Z</time></trkpt><trkpt lat="44.8839283" lon="9.4613883"><ele>578.0</ele><time>2026-04-10T11:06:29.842Z</time></trkpt><trkpt lat="44.883955" lon="9.461205"><ele>578.0</ele><time>2026-04-10T11:06:30.841Z</time></trkpt><trkpt lat="44.8839833" lon="9.46105"><ele>578.6</ele><time>2026-04-10T11:06:31.845Z</time></trkpt><trkpt lat="44.8840167" lon="9.4609333"><ele>579.1999999999999</ele><time>2026-04-10T11:06:32.842Z</time></trkpt><trkpt lat="44.8840683" lon="9.4608367"><ele>579.8</ele><time>2026-04-10T11:06:33.841Z</time></trkpt><trkpt lat="44.8841383" lon="9.4607567"><ele>580.4</ele><time>2026-04-10T11:06:34.841Z</time></trkpt><trkpt lat="44.884205" lon="9.4606683"><ele>581.0</ele><time>2026-04-10T11:06:35.84Z</time></trkpt><trkpt lat="44.8842617" lon="9.4605517"><ele>585.2</ele><time>2026-04-10T11:06:36.846Z</time></trkpt><trkpt lat="44.88429" lon="9.46041"><ele>589.4000000000001</ele><time>2026-04-10T11:06:37.841Z</time></trkpt><trkpt lat="44.8842967" lon="9.46027"><ele>593.6</ele><time>2026-04-10T11:06:38.842Z</time></trkpt><trkpt lat="44.8842983" lon="9.4601433"><ele>597.8000000000001</ele><time>2026-04-10T11:06:39.84Z</time></trkpt><trkpt lat="44.88431" lon="9.4600433"><ele>602.0</ele><time>2026-04-10T11:06:40.84Z</time></trkpt><trkpt lat="44.884395" lon="9.4600367"><ele>602.0</ele><time>2026-04-10T11:06:42.842Z</time></trkpt><trkpt lat="44.88443" lon="9.4601167"><ele>602.0</ele><time>2026-04-10T11:06:43.842Z</time></trkpt><trkpt lat="44.884445" lon="9.46024"><ele>602.0</ele><time>2026-04-10T11:06:44.84Z</time></trkpt><trkpt lat="44.8844517" lon="9.4603833"><ele>602.0</ele><time>2026-04-10T11:06:45.839Z</time></trkpt><trkpt lat="44.8844417" lon="9.460565"><ele>602.0</ele><time>2026-04-10T11:06:46.839Z</time></trkpt><trkpt lat="44.884425" lon="9.4607617"><ele>603.75</ele><time>2026-04-10T11:06:47.841Z</time></trkpt><trkpt lat="44.8844017" lon="9.4609683"><ele>605.5</ele><time>2026-04-10T11:06:48.839Z</time></trkpt><trkpt lat="44.8843817" lon="9.46115"><ele>607.25</ele><time>2026-04-10T11:06:49.84Z</time></trkpt><trkpt lat="44.88438" lon="9.461305"><ele>609.0</ele><time>2026-04-10T11:06:50.839Z</time></trkpt><trkpt lat="44.8844067" lon="9.4614367"><ele>609.0</ele><time>2026-04-10T11:06:51.839Z</time></trkpt><trkpt lat="44.88446" lon="9.4615283"><ele>609.0</ele><time>2026-04-10T11:06:52.838Z</time></trkpt><trkpt lat="44.88458" lon="9.4615067"><ele>609.0</ele><time>2026-04-10T11:06:54.839Z</time></trkpt><trkpt lat="44.8846417" lon="9.4614217"><ele>609.0</ele><time>2026-04-10T11:06:55.843Z</time></trkpt><trkpt lat="44.8847033" lon="9.4613"><ele>609.0</ele><time>2026-04-10T11:06:56.84Z</time></trkpt><trkpt lat="44.884765" lon="9.4611633"><ele>609.0</ele><time>2026-04-10T11:06:57.839Z</time></trkpt><trkpt lat="44.8848267" lon="9.4610183"><ele>609.0</ele><time>2026-04-10T11:06:58.84Z</time></trkpt><trkpt lat="44.884895" lon="9.460865"><ele>609.0</ele><time>2026-04-10T11:06:59.839Z</time></trkpt><trkpt lat="44.88496" lon="9.4606967"><ele>609.0</ele><time>2026-04-10T11:07:00.845Z</time></trkpt><trkpt lat="44.8850267" lon="9.4605183"><ele>607.25</ele><time>2026-04-10T11:07:01.84Z</time></trkpt><trkpt lat="44.885095" lon="9.4603333"><ele>605.5</ele><time>2026-04-10T11:07:02.841Z</time></trkpt><trkpt lat="44.88517" lon="9.4601517"><ele>603.75</ele><time>2026-04-10T11:07:03.842Z</time></trkpt><trkpt lat="44.885255" lon="9.4599883"><ele>602.0</ele><time>2026-04-10T11:07:04.839Z</time></trkpt><trkpt lat="44.8853533" lon="9.45985"><ele>608.6666666666666</ele><time>2026-04-10T11:07:05.848Z</time></trkpt><trkpt lat="44.8854683" lon="9.459725"><ele>615.3333333333334</ele><time>2026-04-10T11:07:06.84Z</time></trkpt><trkpt lat="44.8856" lon="9.4596133"><ele>622.0</ele><time>2026-04-10T11:07:07.839Z</time></trkpt><trkpt lat="44.88574" lon="9.45952"><ele>622.0</ele><time>2026-04-10T11:07:08.84Z</time></trkpt><trkpt lat="44.8858783" lon="9.4594367"><ele>622.0</ele><time>2026-04-10T11:07:09.84Z</time></trkpt><trkpt lat="44.886005" lon="9.4593633"><ele>622.0</ele><time>2026-04-10T11:07:10.839Z</time></trkpt><trkpt lat="44.8861033" lon="9.4592833"><ele>622.0</ele><time>2026-04-10T11:07:11.839Z</time></trkpt><trkpt lat="44.8861733" lon="9.4591967"><ele>624.3333333333334</ele><time>2026-04-10T11:07:12.842Z</time></trkpt><trkpt lat="44.88622" lon="9.4591033"><ele>626.6666666666667</ele><time>2026-04-10T11:07:13.841Z</time></trkpt><trkpt lat="44.8862533" lon="9.459005"><ele>629.0</ele><time>2026-04-10T11:07:14.841Z</time></trkpt><trkpt lat="44.8862767" lon="9.458915"><ele>631.3333333333334</ele><time>2026-04-10T11:07:15.841Z</time></trkpt><trkpt lat="44.8863083" lon="9.45876"><ele>633.6666666666666</ele><time>2026-04-10T11:07:17.84Z</time></trkpt><trkpt lat="44.886315" lon="9.458655"><ele>636.0</ele><time>2026-04-10T11:07:19.841Z</time></trkpt><trkpt lat="44.8862917" lon="9.4585217"><ele>636.0</ele><time>2026-04-10T11:07:22.84Z</time></trkpt><trkpt lat="44.8862467" lon="9.458355"><ele>636.0</ele><time>2026-04-10T11:07:24.841Z</time></trkpt><trkpt lat="44.8862033" lon="9.4582317"><ele>636.0</ele><time>2026-04-10T11:07:25.838Z</time></trkpt><trkpt lat="44.8861483" lon="9.4580983"><ele>636.0</ele><time>2026-04-10T11:07:26.84Z</time></trkpt><trkpt lat="44.886095" lon="9.4579667"><ele>636.0</ele><time>2026-04-10T11:07:27.84Z</time></trkpt><trkpt lat="44.8860467" lon="9.4578383"><ele>634.6</ele><time>2026-04-10T11:07:28.839Z</time></trkpt><trkpt lat="44.886005" lon="9.4577117"><ele>633.2</ele><time>2026-04-10T11:07:29.84Z</time></trkpt><trkpt lat="44.8859717" lon="9.4575867"><ele>631.8</ele><time>2026-04-10T11:07:30.842Z</time></trkpt><trkpt lat="44.8859433" lon="9.4574583"><ele>630.4</ele><time>2026-04-10T11:07:31.841Z</time></trkpt><trkpt lat="44.8859233" lon="9.4573183"><ele>629.0</ele><time>2026-04-10T11:07:32.841Z</time></trkpt><trkpt lat="44.8859133" lon="9.4571667"><ele>626.4</ele><time>2026-04-10T11:07:33.843Z</time></trkpt><trkpt lat="44.8859117" lon="9.4570117"><ele>623.8</ele><time>2026-04-10T11:07:34.839Z</time></trkpt><trkpt lat="44.885915" lon="9.45686"><ele>621.2</ele><time>2026-04-10T11:07:35.841Z</time></trkpt><trkpt lat="44.8859283" lon="9.4567183"><ele>618.6</ele><time>2026-04-10T11:07:36.84Z</time></trkpt><trkpt lat="44.8859583" lon="9.456585"><ele>616.0</ele><time>2026-04-10T11:07:37.841Z</time></trkpt><trkpt lat="44.8859917" lon="9.456455"><ele>616.0</ele><time>2026-04-10T11:07:38.841Z</time></trkpt><trkpt lat="44.8860133" lon="9.456325"><ele>616.0</ele><time>2026-04-10T11:07:39.84Z</time></trkpt><trkpt lat="44.8860083" lon="9.4561967"><ele>616.0</ele><time>2026-04-10T11:07:40.842Z</time></trkpt><trkpt lat="44.88598" lon="9.4560633"><ele>616.0</ele><time>2026-04-10T11:07:41.84Z</time></trkpt><trkpt lat="44.88594" lon="9.4559283"><ele>616.0</ele><time>2026-04-10T11:07:42.84Z</time></trkpt><trkpt lat="44.8858917" lon="9.4557933"><ele>613.4</ele><time>2026-04-10T11:07:43.839Z</time></trkpt><trkpt lat="44.8858417" lon="9.455655"><ele>610.8</ele><time>2026-04-10T11:07:44.841Z</time></trkpt><trkpt lat="44.8857917" lon="9.4555117"><ele>608.1999999999999</ele><time>2026-04-10T11:07:45.84Z</time></trkpt><trkpt lat="44.88574" lon="9.455375"><ele>605.6</ele><time>2026-04-10T11:07:46.84Z</time></trkpt><trkpt lat="44.88569" lon="9.4552317"><ele>603.0</ele><time>2026-04-10T11:07:47.839Z</time></trkpt><trkpt lat="44.88564" lon="9.455095"><ele>601.6</ele><time>2026-04-10T11:07:48.839Z</time></trkpt><trkpt lat="44.8855883" lon="9.4549583"><ele>600.1999999999999</ele><time>2026-04-10T11:07:49.839Z</time></trkpt><trkpt lat="44.8855383" lon="9.4548267"><ele>598.8</ele><time>2026-04-10T11:07:50.839Z</time></trkpt><trkpt lat="44.88549" lon="9.4546983"><ele>597.4</ele><time>2026-04-10T11:07:51.838Z</time></trkpt><trkpt lat="44.8854417" lon="9.45457"><ele>596.0</ele><time>2026-04-10T11:07:52.84Z</time></trkpt><trkpt lat="44.8853917" lon="9.454435"><ele>594.6</ele><time>2026-04-10T11:07:53.84Z</time></trkpt><trkpt lat="44.88534" lon="9.4542967"><ele>593.2</ele><time>2026-04-10T11:07:54.839Z</time></trkpt><trkpt lat="44.8852833" lon="9.4541567"><ele>591.8</ele><time>2026-04-10T11:07:55.839Z</time></trkpt><trkpt lat="44.8852267" lon="9.45402"><ele>590.4</ele><time>2026-04-10T11:07:56.843Z</time></trkpt><trkpt lat="44.8851683" lon="9.453885"><ele>589.0</ele><time>2026-04-10T11:07:57.839Z</time></trkpt><trkpt lat="44.88511" lon="9.453745"><ele>588.75</ele><time>2026-04-10T11:07:58.84Z</time></trkpt><trkpt lat="44.8850517" lon="9.4536067"><ele>588.5</ele><time>2026-04-10T11:07:59.84Z</time></trkpt><trkpt lat="44.885" lon="9.4534667"><ele>588.25</ele><time>2026-04-10T11:08:00.84Z</time></trkpt><trkpt lat="44.8849467" lon="9.4533233"><ele>588.0</ele><time>2026-04-10T11:08:01.839Z</time></trkpt><trkpt lat="44.8848917" lon="9.4531833"><ele>588.0</ele><time>2026-04-10T11:08:02.839Z</time></trkpt><trkpt lat="44.8848333" lon="9.45305"><ele>588.0</ele><time>2026-04-10T11:08:03.839Z</time></trkpt><trkpt lat="44.8847733" lon="9.452915"><ele>588.0</ele><time>2026-04-10T11:08:04.841Z</time></trkpt><trkpt lat="44.884715" lon="9.4527733"><ele>588.0</ele><time>2026-04-10T11:08:05.84Z</time></trkpt><trkpt lat="44.8846633" lon="9.4526133"><ele>586.75</ele><time>2026-04-10T11:08:06.839Z</time></trkpt><trkpt lat="44.8846167" lon="9.4524433"><ele>585.5</ele><time>2026-04-10T11:08:07.84Z</time></trkpt><trkpt lat="44.8845717" lon="9.4522517"><ele>584.25</ele><time>2026-04-10T11:08:08.841Z</time></trkpt><trkpt lat="44.8845283" lon="9.452055"><ele>583.0</ele><time>2026-04-10T11:08:09.844Z</time></trkpt><trkpt lat="44.8844817" lon="9.45188"><ele>582.8</ele><time>2026-04-10T11:08:10.84Z</time></trkpt><trkpt lat="44.8844383" lon="9.4517283"><ele>582.5999999999999</ele><time>2026-04-10T11:08:11.839Z</time></trkpt><trkpt lat="44.8844" lon="9.4515933"><ele>582.4000000000001</ele><time>2026-04-10T11:08:12.839Z</time></trkpt><trkpt lat="44.8843633" lon="9.4514617"><ele>582.2</ele><time>2026-04-10T11:08:13.84Z</time></trkpt><trkpt lat="44.8843317" lon="9.45132"><ele>582.0</ele><time>2026-04-10T11:08:14.84Z</time></trkpt><trkpt lat="44.884305" lon="9.451175"><ele>582.0</ele><time>2026-04-10T11:08:15.841Z</time></trkpt><trkpt lat="44.8842783" lon="9.4510433"><ele>582.0</ele><time>2026-04-10T11:08:16.84Z</time></trkpt><trkpt lat="44.88425" lon="9.450925"><ele>582.0</ele><time>2026-04-10T11:08:17.839Z</time></trkpt><trkpt lat="44.8842233" lon="9.4508167"><ele>582.0</ele><time>2026-04-10T11:08:18.839Z</time></trkpt><trkpt lat="44.8842033" lon="9.4507117"><ele>582.0</ele><time>2026-04-10T11:08:19.841Z</time></trkpt><trkpt lat="44.8841983" lon="9.4506033"><ele>582.0</ele><time>2026-04-10T11:08:20.844Z</time></trkpt><trkpt lat="44.8842033" lon="9.4504867"><ele>585.4</ele><time>2026-04-10T11:08:21.839Z</time></trkpt><trkpt lat="44.8842033" lon="9.4503683"><ele>588.8000000000001</ele><time>2026-04-10T11:08:22.839Z</time></trkpt><trkpt lat="44.8841917" lon="9.45025"><ele>592.2</ele><time>2026-04-10T11:08:23.84Z</time></trkpt><trkpt lat="44.88418" lon="9.4501283"><ele>595.6</ele><time>2026-04-10T11:08:24.84Z</time></trkpt><trkpt lat="44.8841667" lon="9.4499983"><ele>599.0</ele><time>2026-04-10T11:08:25.838Z</time></trkpt><trkpt lat="44.8841617" lon="9.4498533"><ele>599.0</ele><time>2026-04-10T11:08:26.842Z</time></trkpt><trkpt lat="44.88416" lon="9.449715"><ele>599.0</ele><time>2026-04-10T11:08:27.84Z</time></trkpt><trkpt lat="44.8841417" lon="9.4495683"><ele>599.0</ele><time>2026-04-10T11:08:28.839Z</time></trkpt><trkpt lat="44.8841117" lon="9.4494183"><ele>599.0</ele><time>2026-04-10T11:08:29.839Z</time></trkpt><trkpt lat="44.8840767" lon="9.4492633"><ele>599.0</ele><time>2026-04-10T11:08:30.839Z</time></trkpt><trkpt lat="44.88404" lon="9.449105"><ele>600.4</ele><time>2026-04-10T11:08:31.84Z</time></trkpt><trkpt lat="44.884005" lon="9.448955"><ele>601.8</ele><time>2026-04-10T11:08:32.839Z</time></trkpt><trkpt lat="44.8839867" lon="9.4488083"><ele>603.2</ele><time>2026-04-10T11:08:33.839Z</time></trkpt><trkpt lat="44.8839883" lon="9.4486617"><ele>604.6</ele><time>2026-04-10T11:08:34.84Z</time></trkpt><trkpt lat="44.8839933" lon="9.4485167"><ele>606.0</ele><time>2026-04-10T11:08:35.84Z</time></trkpt><trkpt lat="44.88399" lon="9.4483733"><ele>608.6</ele><time>2026-04-10T11:08:36.842Z</time></trkpt><trkpt lat="44.8839783" lon="9.448235"><ele>611.2</ele><time>2026-04-10T11:08:37.841Z</time></trkpt><trkpt lat="44.8839583" lon="9.4481"><ele>613.8</ele><time>2026-04-10T11:08:38.84Z</time></trkpt><trkpt lat="44.883935" lon="9.4479833"><ele>616.4</ele><time>2026-04-10T11:08:39.84Z</time></trkpt><trkpt lat="44.8838967" lon="9.447875"><ele>619.0</ele><time>2026-04-10T11:08:40.839Z</time></trkpt><trkpt lat="44.88385" lon="9.44775"><ele>621.5</ele><time>2026-04-10T11:08:41.84Z</time></trkpt><trkpt lat="44.883805" lon="9.44761"><ele>624.0</ele><time>2026-04-10T11:08:42.839Z</time></trkpt><trkpt lat="44.8837717" lon="9.4474533"><ele>626.5</ele><time>2026-04-10T11:08:43.843Z</time></trkpt><trkpt lat="44.883735" lon="9.4472867"><ele>629.0</ele><time>2026-04-10T11:08:44.839Z</time></trkpt><trkpt lat="44.8837033" lon="9.447115"><ele>630.0</ele><time>2026-04-10T11:08:45.842Z</time></trkpt><trkpt lat="44.8836433" lon="9.4469733"><ele>631.0</ele><time>2026-04-10T11:08:46.84Z</time></trkpt><trkpt lat="44.8835683" lon="9.4468317"><ele>632.0</ele><time>2026-04-10T11:08:47.839Z</time></trkpt><trkpt lat="44.883495" lon="9.4467083"><ele>633.0</ele><time>2026-04-10T11:08:48.838Z</time></trkpt><trkpt lat="44.88345" lon="9.4466133"><ele>634.0</ele><time>2026-04-10T11:08:49.839Z</time></trkpt><trkpt lat="44.883415" lon="9.4465133"><ele>632.2</ele><time>2026-04-10T11:08:50.843Z</time></trkpt><trkpt lat="44.8833833" lon="9.4463883"><ele>630.4</ele><time>2026-04-10T11:08:51.84Z</time></trkpt><trkpt lat="44.8833417" lon="9.446265"><ele>628.6</ele><time>2026-04-10T11:08:52.84Z</time></trkpt><trkpt lat="44.8832917" lon="9.4461517"><ele>626.8</ele><time>2026-04-10T11:08:53.84Z</time></trkpt><trkpt lat="44.8832417" lon="9.4460483"><ele>625.0</ele><time>2026-04-10T11:08:54.84Z</time></trkpt><trkpt lat="44.88319" lon="9.445945"><ele>625.0</ele><time>2026-04-10T11:08:55.844Z</time></trkpt><trkpt lat="44.8831433" lon="9.4457917"><ele>625.0</ele><time>2026-04-10T11:08:56.84Z</time></trkpt><trkpt lat="44.8830983" lon="9.44563"><ele>625.0</ele><time>2026-04-10T11:08:57.839Z</time></trkpt><trkpt lat="44.8830567" lon="9.4454667"><ele>625.0</ele><time>2026-04-10T11:08:58.84Z</time></trkpt><trkpt lat="44.88302" lon="9.445315"><ele>625.8</ele><time>2026-04-10T11:08:59.839Z</time></trkpt><trkpt lat="44.8829933" lon="9.44518"><ele>626.6</ele><time>2026-04-10T11:09:00.841Z</time></trkpt><trkpt lat="44.8829833" lon="9.4450367"><ele>627.4</ele><time>2026-04-10T11:09:01.841Z</time></trkpt><trkpt lat="44.8829767" lon="9.4448917"><ele>628.2</ele><time>2026-04-10T11:09:02.842Z</time></trkpt><trkpt lat="44.8829517" lon="9.4447633"><ele>629.0</ele><time>2026-04-10T11:09:03.839Z</time></trkpt><trkpt lat="44.882915" lon="9.4446567"><ele>629.8</ele><time>2026-04-10T11:09:04.84Z</time></trkpt><trkpt lat="44.8828617" lon="9.444575"><ele>630.5999999999999</ele><time>2026-04-10T11:09:05.84Z</time></trkpt><trkpt lat="44.8827767" lon="9.4445183"><ele>631.4</ele><time>2026-04-10T11:09:06.841Z</time></trkpt><trkpt lat="44.8826667" lon="9.4444717"><ele>632.1999999999999</ele><time>2026-04-10T11:09:07.84Z</time></trkpt><trkpt lat="44.8825333" lon="9.4444433"><ele>633.0</ele><time>2026-04-10T11:09:08.841Z</time></trkpt><trkpt lat="44.8824083" lon="9.4444217"><ele>633.6</ele><time>2026-04-10T11:09:09.84Z</time></trkpt><trkpt lat="44.882295" lon="9.4444017"><ele>634.1999999999999</ele><time>2026-04-10T11:09:10.84Z</time></trkpt><trkpt lat="44.8821947" lon="9.4443871"><ele>634.8</ele><time>2026-04-10T11:09:11.843Z</time></trkpt><trkpt lat="44.8820968" lon="9.4443989"><ele>635.4</ele><time>2026-04-10T11:09:12.841Z</time></trkpt><trkpt lat="44.8819971" lon="9.444431"><ele>636.0</ele><time>2026-04-10T11:09:13.84Z</time></trkpt><trkpt lat="44.8818929" lon="9.4444703"><ele>636.0</ele><time>2026-04-10T11:09:14.841Z</time></trkpt><trkpt lat="44.881784" lon="9.4445108"><ele>636.0</ele><time>2026-04-10T11:09:15.839Z</time></trkpt><trkpt lat="44.8816682" lon="9.4445497"><ele>636.0</ele><time>2026-04-10T11:09:16.84Z</time></trkpt><trkpt lat="44.8815533" lon="9.4445869"><ele>636.0</ele><time>2026-04-10T11:09:17.84Z</time></trkpt><trkpt lat="44.8814537" lon="9.4446227"><ele>634.5</ele><time>2026-04-10T11:09:18.839Z</time></trkpt><trkpt lat="44.8813665" lon="9.4446488"><ele>633.0</ele><time>2026-04-10T11:09:19.84Z</time></trkpt><trkpt lat="44.881287" lon="9.444644"><ele>631.5</ele><time>2026-04-10T11:09:20.843Z</time></trkpt><trkpt lat="44.8812016" lon="9.4446117"><ele>630.0</ele><time>2026-04-10T11:09:21.84Z</time></trkpt><trkpt lat="44.8811106" lon="9.4445659"><ele>628.5</ele><time>2026-04-10T11:09:22.841Z</time></trkpt><trkpt lat="44.8810264" lon="9.4445223"><ele>627.0</ele><time>2026-04-10T11:09:23.841Z</time></trkpt><trkpt lat="44.8809509" lon="9.4444757"><ele>630.6666666666666</ele><time>2026-04-10T11:09:24.842Z</time></trkpt><trkpt lat="44.8808848" lon="9.4444188"><ele>634.3333333333334</ele><time>2026-04-10T11:09:25.841Z</time></trkpt><trkpt lat="44.8808197" lon="9.4443497"><ele>638.0</ele><time>2026-04-10T11:09:26.842Z</time></trkpt><trkpt lat="44.8807498" lon="9.444281"><ele>641.6666666666667</ele><time>2026-04-10T11:09:27.842Z</time></trkpt><trkpt lat="44.8806767" lon="9.4442097"><ele>645.3333333333334</ele><time>2026-04-10T11:09:28.84Z</time></trkpt><trkpt lat="44.8805926" lon="9.444143"><ele>649.0</ele><time>2026-04-10T11:09:29.841Z</time></trkpt><trkpt lat="44.8804997" lon="9.4440733"><ele>649.0</ele><time>2026-04-10T11:09:30.841Z</time></trkpt><trkpt lat="44.8803985" lon="9.4440103"><ele>649.0</ele><time>2026-04-10T11:09:31.842Z</time></trkpt><trkpt lat="44.8802958" lon="9.4439702"><ele>649.0</ele><time>2026-04-10T11:09:32.841Z</time></trkpt><trkpt lat="44.8802125" lon="9.4439257"><ele>649.0</ele><time>2026-04-10T11:09:33.839Z</time></trkpt><trkpt lat="44.8801461" lon="9.4438622"><ele>649.0</ele><time>2026-04-10T11:09:34.84Z</time></trkpt><trkpt lat="44.8800917" lon="9.4437776"><ele>650.0</ele><time>2026-04-10T11:09:35.84Z</time></trkpt><trkpt lat="44.8800448" lon="9.4436643"><ele>651.0</ele><time>2026-04-10T11:09:36.841Z</time></trkpt><trkpt lat="44.8800021" lon="9.4435341"><ele>652.0</ele><time>2026-04-10T11:09:37.846Z</time></trkpt><trkpt lat="44.8799566" lon="9.4434014"><ele>653.0</ele><time>2026-04-10T11:09:38.84Z</time></trkpt><trkpt lat="44.8799144" lon="9.4432569"><ele>654.0</ele><time>2026-04-10T11:09:39.844Z</time></trkpt><trkpt lat="44.8798814" lon="9.4431179"><ele>654.0</ele><time>2026-04-10T11:09:40.84Z</time></trkpt><trkpt lat="44.8798642" lon="9.4429815"><ele>654.0</ele><time>2026-04-10T11:09:41.841Z</time></trkpt><trkpt lat="44.8798634" lon="9.4428311"><ele>654.0</ele><time>2026-04-10T11:09:42.842Z</time></trkpt><trkpt lat="44.8798738" lon="9.4426613"><ele>654.0</ele><time>2026-04-10T11:09:43.842Z</time></trkpt><trkpt lat="44.879886" lon="9.4424857"><ele>654.75</ele><time>2026-04-10T11:09:44.84Z</time></trkpt><trkpt lat="44.879895" lon="9.4423101"><ele>655.5</ele><time>2026-04-10T11:09:45.839Z</time></trkpt><trkpt lat="44.8798996" lon="9.4421351"><ele>656.25</ele><time>2026-04-10T11:09:46.839Z</time></trkpt><trkpt lat="44.8799164" lon="9.4419813"><ele>657.0</ele><time>2026-04-10T11:09:47.84Z</time></trkpt><trkpt lat="44.8799494" lon="9.4418407"><ele>655.4000000000001</ele><time>2026-04-10T11:09:48.839Z</time></trkpt><trkpt lat="44.8799987" lon="9.4417112"><ele>653.8000000000001</ele><time>2026-04-10T11:09:49.844Z</time></trkpt><trkpt lat="44.8800506" lon="9.4415785"><ele>652.2</ele><time>2026-04-10T11:09:50.841Z</time></trkpt><trkpt lat="44.8800902" lon="9.4414416"><ele>650.6</ele><time>2026-04-10T11:09:51.841Z</time></trkpt><trkpt lat="44.8801162" lon="9.4413087"><ele>649.0</ele><time>2026-04-10T11:09:52.84Z</time></trkpt><trkpt lat="44.8801443" lon="9.4411797"><ele>653.1666666666667</ele><time>2026-04-10T11:09:53.839Z</time></trkpt><trkpt lat="44.8801763" lon="9.4410651"><ele>657.3333333333334</ele><time>2026-04-10T11:09:54.842Z</time></trkpt><trkpt lat="44.8802035" lon="9.4409596"><ele>661.5</ele><time>2026-04-10T11:09:55.841Z</time></trkpt><trkpt lat="44.8802283" lon="9.4408564"><ele>665.6666666666666</ele><time>2026-04-10T11:09:56.841Z</time></trkpt><trkpt lat="44.8802539" lon="9.4407616"><ele>669.8333333333333</ele><time>2026-04-10T11:09:57.842Z</time></trkpt><trkpt lat="44.8802834" lon="9.4406735"><ele>674.0</ele><time>2026-04-10T11:09:58.841Z</time></trkpt><trkpt lat="44.8803182" lon="9.4405947"><ele>672.8000000000001</ele><time>2026-04-10T11:09:59.841Z</time></trkpt><trkpt lat="44.8804048" lon="9.4404651"><ele>671.6</ele><time>2026-04-10T11:10:01.841Z</time></trkpt><trkpt lat="44.8804596" lon="9.4403906"><ele>670.4</ele><time>2026-04-10T11:10:02.842Z</time></trkpt><trkpt lat="44.8805141" lon="9.4403056"><ele>669.2</ele><time>2026-04-10T11:10:03.842Z</time></trkpt><trkpt lat="44.880565" lon="9.4402106"><ele>668.0</ele><time>2026-04-10T11:10:04.839Z</time></trkpt><trkpt lat="44.8806005" lon="9.4401004"><ele>668.0</ele><time>2026-04-10T11:10:05.841Z</time></trkpt><trkpt lat="44.8806248" lon="9.4399788"><ele>668.0</ele><time>2026-04-10T11:10:06.842Z</time></trkpt><trkpt lat="44.8806424" lon="9.4398539"><ele>668.0</ele><time>2026-04-10T11:10:07.841Z</time></trkpt><trkpt lat="44.8806554" lon="9.4397263"><ele>668.0</ele><time>2026-04-10T11:10:08.842Z</time></trkpt><trkpt lat="44.8806633" lon="9.4396024"><ele>668.0</ele><time>2026-04-10T11:10:09.84Z</time></trkpt><trkpt lat="44.880669" lon="9.4394794"><ele>668.0</ele><time>2026-04-10T11:10:10.84Z</time></trkpt><trkpt lat="44.8806681" lon="9.4393598"><ele>667.6666666666666</ele><time>2026-04-10T11:10:11.839Z</time></trkpt><trkpt lat="44.8806543" lon="9.4392401"><ele>667.3333333333333</ele><time>2026-04-10T11:10:12.839Z</time></trkpt><trkpt lat="44.8806358" lon="9.4391188"><ele>667.0</ele><time>2026-04-10T11:10:13.841Z</time></trkpt><trkpt lat="44.8806102" lon="9.438998"><ele>666.6666666666666</ele><time>2026-04-10T11:10:14.841Z</time></trkpt><trkpt lat="44.8805747" lon="9.4388819"><ele>666.3333333333334</ele><time>2026-04-10T11:10:15.84Z</time></trkpt><trkpt lat="44.8805298" lon="9.4387677"><ele>666.0</ele><time>2026-04-10T11:10:16.846Z</time></trkpt><trkpt lat="44.8804815" lon="9.4386594"><ele>667.0</ele><time>2026-04-10T11:10:17.84Z</time></trkpt><trkpt lat="44.8804298" lon="9.4385544"><ele>668.0</ele><time>2026-04-10T11:10:18.839Z</time></trkpt><trkpt lat="44.8803829" lon="9.4384463"><ele>669.0</ele><time>2026-04-10T11:10:19.84Z</time></trkpt><trkpt lat="44.8803461" lon="9.4383244"><ele>670.0</ele><time>2026-04-10T11:10:20.842Z</time></trkpt><trkpt lat="44.8803204" lon="9.4381863"><ele>671.0</ele><time>2026-04-10T11:10:21.841Z</time></trkpt><trkpt lat="44.880305" lon="9.4380377"><ele>671.0</ele><time>2026-04-10T11:10:22.839Z</time></trkpt><trkpt lat="44.8802906" lon="9.4378943"><ele>671.0</ele><time>2026-04-10T11:10:23.841Z</time></trkpt><trkpt lat="44.8802705" lon="9.4377739"><ele>671.0</ele><time>2026-04-10T11:10:24.841Z</time></trkpt><trkpt lat="44.8802403" lon="9.4376715"><ele>671.0</ele><time>2026-04-10T11:10:25.84Z</time></trkpt><trkpt lat="44.8802056" lon="9.4375831"><ele>671.0</ele><time>2026-04-10T11:10:26.841Z</time></trkpt><trkpt lat="44.8801524" lon="9.4374426"><ele>671.0</ele><time>2026-04-10T11:10:28.844Z</time></trkpt><trkpt lat="44.8801376" lon="9.4373558"><ele>671.0</ele><time>2026-04-10T11:10:30.841Z</time></trkpt><trkpt lat="44.8801301" lon="9.4372653"><ele>671.0</ele><time>2026-04-10T11:10:33.841Z</time></trkpt><trkpt lat="44.8800683" lon="9.4371767"><ele>671.0</ele><time>2026-04-10T11:10:38.841Z</time></trkpt><trkpt lat="44.8800588" lon="9.4372816"><ele>671.0</ele><time>2026-04-10T11:10:42.887Z</time></trkpt><trkpt lat="44.8801449" lon="9.4372147"><ele>671.0</ele><time>2026-04-10T11:11:51.842Z</time></trkpt><trkpt lat="44.8800812" lon="9.4371564"><ele>670.5999999999999</ele><time>2026-04-10T11:11:56.841Z</time></trkpt><trkpt lat="44.8799887" lon="9.4371959"><ele>670.2</ele><time>2026-04-10T11:11:57.84Z</time></trkpt><trkpt lat="44.8798787" lon="9.4372261"><ele>669.8</ele><time>2026-04-10T11:11:58.839Z</time></trkpt><trkpt lat="44.8797692" lon="9.4372263"><ele>669.4000000000001</ele><time>2026-04-10T11:11:59.839Z</time></trkpt><trkpt lat="44.87967" lon="9.437186"><ele>669.0</ele><time>2026-04-10T11:12:00.84Z</time></trkpt><trkpt lat="44.8795787" lon="9.437109"><ele>669.0</ele><time>2026-04-10T11:12:01.84Z</time></trkpt><trkpt lat="44.8794928" lon="9.4369915"><ele>669.0</ele><time>2026-04-10T11:12:02.84Z</time></trkpt><trkpt lat="44.8794091" lon="9.4368586"><ele>669.0</ele><time>2026-04-10T11:12:03.839Z</time></trkpt><trkpt lat="44.8793104" lon="9.4367534"><ele>669.0</ele><time>2026-04-10T11:12:04.84Z</time></trkpt><trkpt lat="44.8791995" lon="9.4367013"><ele>670.25</ele><time>2026-04-10T11:12:05.84Z</time></trkpt><trkpt lat="44.8790838" lon="9.4367015"><ele>671.5</ele><time>2026-04-10T11:12:06.84Z</time></trkpt><trkpt lat="44.8789643" lon="9.4367491"><ele>672.75</ele><time>2026-04-10T11:12:07.84Z</time></trkpt><trkpt lat="44.878834" lon="9.4368218"><ele>674.0</ele><time>2026-04-10T11:12:08.84Z</time></trkpt><trkpt lat="44.8786863" lon="9.4368863"><ele>674.0</ele><time>2026-04-10T11:12:09.839Z</time></trkpt><trkpt lat="44.8785217" lon="9.4369317"><ele>674.0</ele><time>2026-04-10T11:12:10.839Z</time></trkpt><trkpt lat="44.8783517" lon="9.4369717"><ele>674.0</ele><time>2026-04-10T11:12:11.839Z</time></trkpt><trkpt lat="44.8781733" lon="9.437"><ele>675.6666666666666</ele><time>2026-04-10T11:12:12.841Z</time></trkpt><trkpt lat="44.8779917" lon="9.43702"><ele>677.3333333333334</ele><time>2026-04-10T11:12:13.84Z</time></trkpt><trkpt lat="44.877815" lon="9.4370483"><ele>679.0</ele><time>2026-04-10T11:12:14.844Z</time></trkpt><trkpt lat="44.8776467" lon="9.4371067"><ele>679.0</ele><time>2026-04-10T11:12:15.839Z</time></trkpt><trkpt lat="44.8774917" lon="9.4371867"><ele>679.0</ele><time>2026-04-10T11:12:16.842Z</time></trkpt><trkpt lat="44.877355" lon="9.437265"><ele>679.0</ele><time>2026-04-10T11:12:17.84Z</time></trkpt><trkpt lat="44.87723" lon="9.43733"><ele>679.0</ele><time>2026-04-10T11:12:18.841Z</time></trkpt><trkpt lat="44.8771167" lon="9.4373783"><ele>679.0</ele><time>2026-04-10T11:12:19.841Z</time></trkpt><trkpt lat="44.877005" lon="9.437395"><ele>679.0</ele><time>2026-04-10T11:12:20.843Z</time></trkpt><trkpt lat="44.8769067" lon="9.4373767"><ele>679.0</ele><time>2026-04-10T11:12:21.843Z</time></trkpt><trkpt lat="44.8768317" lon="9.4373033"><ele>679.0</ele><time>2026-04-10T11:12:22.84Z</time></trkpt><trkpt lat="44.87678" lon="9.437175"><ele>679.0</ele><time>2026-04-10T11:12:23.841Z</time></trkpt><trkpt lat="44.8767317" lon="9.43703"><ele>679.5</ele><time>2026-04-10T11:12:24.841Z</time></trkpt><trkpt lat="44.8766733" lon="9.4368767"><ele>680.0</ele><time>2026-04-10T11:12:25.843Z</time></trkpt><trkpt lat="44.876605" lon="9.4367083"><ele>680.5</ele><time>2026-04-10T11:12:26.842Z</time></trkpt><trkpt lat="44.8765067" lon="9.4365367"><ele>681.0</ele><time>2026-04-10T11:12:27.84Z</time></trkpt><trkpt lat="44.8764" lon="9.43639"><ele>680.4</ele><time>2026-04-10T11:12:28.84Z</time></trkpt><trkpt lat="44.8763067" lon="9.4362517"><ele>679.8</ele><time>2026-04-10T11:12:29.842Z</time></trkpt><trkpt lat="44.8762417" lon="9.4361133"><ele>679.1999999999999</ele><time>2026-04-10T11:12:30.841Z</time></trkpt><trkpt lat="44.8761933" lon="9.4359883"><ele>678.5999999999999</ele><time>2026-04-10T11:12:31.841Z</time></trkpt><trkpt lat="44.876155" lon="9.4358883"><ele>678.0</ele><time>2026-04-10T11:12:32.841Z</time></trkpt><trkpt lat="44.8761267" lon="9.4357983"><ele>678.0</ele><time>2026-04-10T11:12:33.842Z</time></trkpt><trkpt lat="44.8761133" lon="9.4356117"><ele>678.0</ele><time>2026-04-10T11:12:35.84Z</time></trkpt><trkpt lat="44.8761083" lon="9.4355033"><ele>678.0</ele><time>2026-04-10T11:12:36.841Z</time></trkpt><trkpt lat="44.876095" lon="9.4353983"><ele>678.0</ele><time>2026-04-10T11:12:37.841Z</time></trkpt><trkpt lat="44.8760817" lon="9.4352917"><ele>678.0</ele><time>2026-04-10T11:12:38.84Z</time></trkpt><trkpt lat="44.8760567" lon="9.435195"><ele>678.0</ele><time>2026-04-10T11:12:39.84Z</time></trkpt><trkpt lat="44.8760267" lon="9.4351"><ele>677.5</ele><time>2026-04-10T11:12:40.839Z</time></trkpt><trkpt lat="44.8759833" lon="9.4350017"><ele>677.0</ele><time>2026-04-10T11:12:41.84Z</time></trkpt><trkpt lat="44.8759333" lon="9.4348983"><ele>676.5</ele><time>2026-04-10T11:12:42.84Z</time></trkpt><trkpt lat="44.8758717" lon="9.4348067"><ele>676.0</ele><time>2026-04-10T11:12:43.84Z</time></trkpt><trkpt lat="44.8758033" lon="9.4347233"><ele>675.5</ele><time>2026-04-10T11:12:44.842Z</time></trkpt><trkpt lat="44.8757333" lon="9.4346417"><ele>675.0</ele><time>2026-04-10T11:12:45.84Z</time></trkpt><trkpt lat="44.8756567" lon="9.4345767"><ele>677.6</ele><time>2026-04-10T11:12:46.839Z</time></trkpt><trkpt lat="44.8755583" lon="9.434585"><ele>680.2</ele><time>2026-04-10T11:12:47.839Z</time></trkpt><trkpt lat="44.8754617" lon="9.4345717"><ele>682.8</ele><time>2026-04-10T11:12:48.84Z</time></trkpt><trkpt lat="44.87537" lon="9.4345717"><ele>685.4</ele><time>2026-04-10T11:12:49.841Z</time></trkpt><trkpt lat="44.8752833" lon="9.4345883"><ele>688.0</ele><time>2026-04-10T11:12:50.84Z</time></trkpt><trkpt lat="44.8751917" lon="9.4346083"><ele>691.5999999999999</ele><time>2026-04-10T11:12:51.84Z</time></trkpt><trkpt lat="44.875095" lon="9.4346583"><ele>695.1999999999999</ele><time>2026-04-10T11:12:52.84Z</time></trkpt><trkpt lat="44.874995" lon="9.4347183"><ele>698.8</ele><time>2026-04-10T11:12:53.841Z</time></trkpt><trkpt lat="44.874885" lon="9.4347683"><ele>702.4</ele><time>2026-04-10T11:12:54.84Z</time></trkpt><trkpt lat="44.87478" lon="9.434815"><ele>706.0</ele><time>2026-04-10T11:12:55.839Z</time></trkpt><trkpt lat="44.8746833" lon="9.434865"><ele>706.0</ele><time>2026-04-10T11:12:56.84Z</time></trkpt><trkpt lat="44.8745967" lon="9.4349133"><ele>706.0</ele><time>2026-04-10T11:12:57.84Z</time></trkpt><trkpt lat="44.874515" lon="9.4349417"><ele>706.0</ele><time>2026-04-10T11:12:58.838Z</time></trkpt><trkpt lat="44.8744467" lon="9.434935"><ele>706.0</ele><time>2026-04-10T11:12:59.841Z</time></trkpt><trkpt lat="44.8743767" lon="9.4349167"><ele>706.0</ele><time>2026-04-10T11:13:00.84Z</time></trkpt><trkpt lat="44.8743" lon="9.43484"><ele>706.0</ele><time>2026-04-10T11:13:02.84Z</time></trkpt><trkpt lat="44.8742533" lon="9.4347583"><ele>704.1999999999999</ele><time>2026-04-10T11:15:00.838Z</time></trkpt><trkpt lat="44.87416" lon="9.4346583"><ele>702.4</ele><time>2026-04-10T11:15:02.841Z</time></trkpt><trkpt lat="44.8740867" lon="9.4345933"><ele>700.6</ele><time>2026-04-10T11:15:03.842Z</time></trkpt><trkpt lat="44.8739967" lon="9.4345017"><ele>698.8</ele><time>2026-04-10T11:15:04.839Z</time></trkpt><trkpt lat="44.8738783" lon="9.43442"><ele>697.0</ele><time>2026-04-10T11:15:05.839Z</time></trkpt><trkpt lat="44.8737433" lon="9.43436"><ele>698.0</ele><time>2026-04-10T11:15:06.84Z</time></trkpt><trkpt lat="44.873595" lon="9.434335"><ele>699.0</ele><time>2026-04-10T11:15:07.84Z</time></trkpt><trkpt lat="44.87344" lon="9.4343467"><ele>700.0</ele><time>2026-04-10T11:15:08.841Z</time></trkpt><trkpt lat="44.8732783" lon="9.4343833"><ele>700.0</ele><time>2026-04-10T11:15:09.842Z</time></trkpt><trkpt lat="44.873115" lon="9.43443"><ele>700.0</ele><time>2026-04-10T11:15:10.839Z</time></trkpt><trkpt lat="44.8729617" lon="9.4344717"><ele>700.0</ele><time>2026-04-10T11:15:11.839Z</time></trkpt><trkpt lat="44.87282" lon="9.43452"><ele>700.0</ele><time>2026-04-10T11:15:12.84Z</time></trkpt><trkpt lat="44.872695" lon="9.4346017"><ele>700.0</ele><time>2026-04-10T11:15:13.84Z</time></trkpt><trkpt lat="44.8725883" lon="9.4347333"><ele>700.0</ele><time>2026-04-10T11:15:14.841Z</time></trkpt><trkpt lat="44.872495" lon="9.434905"><ele>700.0</ele><time>2026-04-10T11:15:15.841Z</time></trkpt><trkpt lat="44.87241" lon="9.4350967"><ele>700.25</ele><time>2026-04-10T11:15:16.84Z</time></trkpt><trkpt lat="44.8723183" lon="9.43529"><ele>700.5</ele><time>2026-04-10T11:15:17.84Z</time></trkpt><trkpt lat="44.8722283" lon="9.4354683"><ele>700.75</ele><time>2026-04-10T11:15:18.841Z</time></trkpt><trkpt lat="44.87215" lon="9.4356133"><ele>701.0</ele><time>2026-04-10T11:15:19.841Z</time></trkpt><trkpt lat="44.8720833" lon="9.435725"><ele>701.0</ele><time>2026-04-10T11:15:20.843Z</time></trkpt><trkpt lat="44.87202" lon="9.4358067"><ele>701.0</ele><time>2026-04-10T11:15:21.839Z</time></trkpt><trkpt lat="44.8719483" lon="9.4358617"><ele>701.0</ele><time>2026-04-10T11:15:22.839Z</time></trkpt><trkpt lat="44.8718717" lon="9.435895"><ele>701.0</ele><time>2026-04-10T11:15:23.84Z</time></trkpt><trkpt lat="44.8717817" lon="9.43587"><ele>701.0</ele><time>2026-04-10T11:15:24.841Z</time></trkpt><trkpt lat="44.8716783" lon="9.4357917"><ele>701.75</ele><time>2026-04-10T11:15:25.839Z</time></trkpt><trkpt lat="44.871565" lon="9.4357033"><ele>702.5</ele><time>2026-04-10T11:15:26.84Z</time></trkpt><trkpt lat="44.8714467" lon="9.4356083"><ele>703.25</ele><time>2026-04-10T11:15:27.84Z</time></trkpt><trkpt lat="44.87132" lon="9.43551"><ele>704.0</ele><time>2026-04-10T11:15:28.843Z</time></trkpt><trkpt lat="44.87119" lon="9.4354083"><ele>707.0</ele><time>2026-04-10T11:15:29.839Z</time></trkpt><trkpt lat="44.8710533" lon="9.4352883"><ele>710.0</ele><time>2026-04-10T11:15:30.84Z</time></trkpt><trkpt lat="44.87092" lon="9.4351883"><ele>713.0</ele><time>2026-04-10T11:15:31.84Z</time></trkpt><trkpt lat="44.8707983" lon="9.4351183"><ele>716.0</ele><time>2026-04-10T11:15:32.842Z</time></trkpt><trkpt lat="44.87069" lon="9.4350467"><ele>716.0</ele><time>2026-04-10T11:15:33.838Z</time></trkpt><trkpt lat="44.8705983" lon="9.4349583"><ele>716.0</ele><time>2026-04-10T11:15:34.843Z</time></trkpt><trkpt lat="44.8705267" lon="9.43485"><ele>716.0</ele><time>2026-04-10T11:15:35.84Z</time></trkpt><trkpt lat="44.8704733" lon="9.43473"><ele>716.0</ele><time>2026-04-10T11:15:36.841Z</time></trkpt><trkpt lat="44.8704367" lon="9.4345917"><ele>716.0</ele><time>2026-04-10T11:15:37.839Z</time></trkpt><trkpt lat="44.8704017" lon="9.4344533"><ele>716.0</ele><time>2026-04-10T11:15:38.839Z</time></trkpt><trkpt lat="44.870345" lon="9.4343333"><ele>716.0</ele><time>2026-04-10T11:15:39.84Z</time></trkpt><trkpt lat="44.8702617" lon="9.4342483"><ele>716.0</ele><time>2026-04-10T11:15:40.839Z</time></trkpt><trkpt lat="44.870155" lon="9.4342167"><ele>716.0</ele><time>2026-04-10T11:15:41.846Z</time></trkpt><trkpt lat="44.8700317" lon="9.434215"><ele>716.0</ele><time>2026-04-10T11:15:42.841Z</time></trkpt><trkpt lat="44.8699" lon="9.4341917"><ele>716.0</ele><time>2026-04-10T11:15:43.84Z</time></trkpt><trkpt lat="44.8697733" lon="9.4341317"><ele>716.0</ele><time>2026-04-10T11:15:44.839Z</time></trkpt><trkpt lat="44.869665" lon="9.4340383"><ele>716.0</ele><time>2026-04-10T11:15:45.84Z</time></trkpt><trkpt lat="44.8695667" lon="9.4338983"><ele>716.0</ele><time>2026-04-10T11:15:46.839Z</time></trkpt><trkpt lat="44.8694833" lon="9.4337283"><ele>716.6666666666666</ele><time>2026-04-10T11:15:47.841Z</time></trkpt><trkpt lat="44.8694" lon="9.43355"><ele>717.3333333333334</ele><time>2026-04-10T11:15:48.839Z</time></trkpt><trkpt lat="44.869315" lon="9.4333717"><ele>718.0</ele><time>2026-04-10T11:15:49.842Z</time></trkpt><trkpt lat="44.8692317" lon="9.4331867"><ele>718.0</ele><time>2026-04-10T11:15:50.841Z</time></trkpt><trkpt lat="44.8691617" lon="9.43299"><ele>718.0</ele><time>2026-04-10T11:15:51.924Z</time></trkpt><trkpt lat="44.8690917" lon="9.4327983"><ele>718.0</ele><time>2026-04-10T11:15:52.84Z</time></trkpt><trkpt lat="44.8689983" lon="9.4326217"><ele>722.0</ele><time>2026-04-10T11:15:53.84Z</time></trkpt><trkpt lat="44.8688783" lon="9.43247"><ele>726.0</ele><time>2026-04-10T11:15:54.84Z</time></trkpt><trkpt lat="44.8687433" lon="9.43235"><ele>730.0</ele><time>2026-04-10T11:15:55.841Z</time></trkpt><trkpt lat="44.8685917" lon="9.43226"><ele>729.6666666666667</ele><time>2026-04-10T11:15:56.84Z</time></trkpt><trkpt lat="44.86843" lon="9.432195"><ele>729.3333333333334</ele><time>2026-04-10T11:15:57.84Z</time></trkpt><trkpt lat="44.8682667" lon="9.43215"><ele>729.0</ele><time>2026-04-10T11:15:58.841Z</time></trkpt><trkpt lat="44.868105" lon="9.4321183"><ele>729.0</ele><time>2026-04-10T11:15:59.842Z</time></trkpt><trkpt lat="44.867955" lon="9.43209"><ele>729.0</ele><time>2026-04-10T11:16:00.839Z</time></trkpt><trkpt lat="44.8678017" lon="9.432035"><ele>729.0</ele><time>2026-04-10T11:16:01.84Z</time></trkpt><trkpt lat="44.8676533" lon="9.4319417"><ele>727.0</ele><time>2026-04-10T11:16:02.84Z</time></trkpt><trkpt lat="44.86751" lon="9.4318267"><ele>725.0</ele><time>2026-04-10T11:16:03.839Z</time></trkpt><trkpt lat="44.8673683" lon="9.431705"><ele>723.0</ele><time>2026-04-10T11:16:04.839Z</time></trkpt><trkpt lat="44.8672233" lon="9.43159"><ele>723.0</ele><time>2026-04-10T11:16:05.841Z</time></trkpt><trkpt lat="44.8670767" lon="9.43149"><ele>723.0</ele><time>2026-04-10T11:16:06.839Z</time></trkpt><trkpt lat="44.8669317" lon="9.4314117"><ele>723.0</ele><time>2026-04-10T11:16:07.839Z</time></trkpt><trkpt lat="44.8667817" lon="9.4313617"><ele>722.0</ele><time>2026-04-10T11:16:08.841Z</time></trkpt><trkpt lat="44.86663" lon="9.4313517"><ele>721.0</ele><time>2026-04-10T11:16:09.84Z</time></trkpt><trkpt lat="44.866475" lon="9.4313767"><ele>720.0</ele><time>2026-04-10T11:16:10.848Z</time></trkpt><trkpt lat="44.86632" lon="9.431425"><ele>720.0</ele><time>2026-04-10T11:16:11.841Z</time></trkpt><trkpt lat="44.8661667" lon="9.4314883"><ele>720.0</ele><time>2026-04-10T11:16:12.839Z</time></trkpt><trkpt lat="44.8660117" lon="9.4315617"><ele>720.0</ele><time>2026-04-10T11:16:13.841Z</time></trkpt><trkpt lat="44.8658567" lon="9.4316383"><ele>722.3333333333334</ele><time>2026-04-10T11:16:14.84Z</time></trkpt><trkpt lat="44.8657" lon="9.43171"><ele>724.6666666666667</ele><time>2026-04-10T11:16:15.84Z</time></trkpt><trkpt lat="44.8655383" lon="9.4317683"><ele>727.0</ele><time>2026-04-10T11:16:16.84Z</time></trkpt><trkpt lat="44.8653733" lon="9.4318167"><ele>727.0</ele><time>2026-04-10T11:16:17.839Z</time></trkpt><trkpt lat="44.8652117" lon="9.431875"><ele>727.0</ele><time>2026-04-10T11:16:18.84Z</time></trkpt><trkpt lat="44.8650567" lon="9.4319583"><ele>727.0</ele><time>2026-04-10T11:16:19.84Z</time></trkpt><trkpt lat="44.8649083" lon="9.4320633"><ele>727.3333333333334</ele><time>2026-04-10T11:16:20.842Z</time></trkpt><trkpt lat="44.8647617" lon="9.4321833"><ele>727.6666666666666</ele><time>2026-04-10T11:16:21.843Z</time></trkpt><trkpt lat="44.86462" lon="9.432315"><ele>728.0</ele><time>2026-04-10T11:16:22.84Z</time></trkpt><trkpt lat="44.8644833" lon="9.4324633"><ele>728.0</ele><time>2026-04-10T11:16:23.84Z</time></trkpt><trkpt lat="44.8643567" lon="9.4326233"><ele>728.0</ele><time>2026-04-10T11:16:24.841Z</time></trkpt><trkpt lat="44.864235" lon="9.4327917"><ele>728.0</ele><time>2026-04-10T11:16:25.841Z</time></trkpt><trkpt lat="44.8641183" lon="9.432955"><ele>730.25</ele><time>2026-04-10T11:16:26.847Z</time></trkpt><trkpt lat="44.8640067" lon="9.4330983"><ele>732.5</ele><time>2026-04-10T11:16:27.841Z</time></trkpt><trkpt lat="44.8638917" lon="9.433215"><ele>734.75</ele><time>2026-04-10T11:16:28.841Z</time></trkpt><trkpt lat="44.8637667" lon="9.43329"><ele>737.0</ele><time>2026-04-10T11:16:29.84Z</time></trkpt><trkpt lat="44.8636267" lon="9.433325"><ele>737.0</ele><time>2026-04-10T11:16:30.839Z</time></trkpt><trkpt lat="44.8634817" lon="9.43332"><ele>737.0</ele><time>2026-04-10T11:16:31.84Z</time></trkpt><trkpt lat="44.8633367" lon="9.4333117"><ele>737.0</ele><time>2026-04-10T11:16:32.84Z</time></trkpt><trkpt lat="44.8631967" lon="9.43334"><ele>737.0</ele><time>2026-04-10T11:16:33.839Z</time></trkpt><trkpt lat="44.8630717" lon="9.4334233"><ele>737.0</ele><time>2026-04-10T11:16:34.841Z</time></trkpt><trkpt lat="44.862975" lon="9.4335517"><ele>737.0</ele><time>2026-04-10T11:16:35.845Z</time></trkpt><trkpt lat="44.8629183" lon="9.4337017"><ele>737.0</ele><time>2026-04-10T11:16:36.84Z</time></trkpt><trkpt lat="44.8628833" lon="9.4338633"><ele>737.0</ele><time>2026-04-10T11:16:37.84Z</time></trkpt><trkpt lat="44.8628417" lon="9.4340117"><ele>737.0</ele><time>2026-04-10T11:16:38.841Z</time></trkpt><trkpt lat="44.86277" lon="9.4341217"><ele>737.0</ele><time>2026-04-10T11:16:39.841Z</time></trkpt><trkpt lat="44.8626783" lon="9.43419"><ele>737.0</ele><time>2026-04-10T11:16:40.839Z</time></trkpt><trkpt lat="44.8625717" lon="9.434215"><ele>737.0</ele><time>2026-04-10T11:16:41.841Z</time></trkpt><trkpt lat="44.8624383" lon="9.4341683"><ele>740.0</ele><time>2026-04-10T11:16:42.843Z</time></trkpt><trkpt lat="44.862295" lon="9.43412"><ele>743.0</ele><time>2026-04-10T11:16:43.841Z</time></trkpt><trkpt lat="44.8621567" lon="9.4341267"><ele>746.0</ele><time>2026-04-10T11:16:44.842Z</time></trkpt><trkpt lat="44.8620283" lon="9.43421"><ele>749.0</ele><time>2026-04-10T11:16:45.839Z</time></trkpt><trkpt lat="44.8619017" lon="9.4343333"><ele>752.3333333333333</ele><time>2026-04-10T11:16:46.841Z</time></trkpt><trkpt lat="44.8617633" lon="9.4344417"><ele>755.6666666666666</ele><time>2026-04-10T11:16:47.84Z</time></trkpt><trkpt lat="44.861615" lon="9.4345267"><ele>759.0</ele><time>2026-04-10T11:16:48.841Z</time></trkpt><trkpt lat="44.8614667" lon="9.434605"><ele>753.3333333333334</ele><time>2026-04-10T11:16:49.844Z</time></trkpt><trkpt lat="44.8613183" lon="9.4346917"><ele>747.6666666666667</ele><time>2026-04-10T11:16:50.844Z</time></trkpt><trkpt lat="44.8611733" lon="9.4347683"><ele>742.0</ele><time>2026-04-10T11:16:51.841Z</time></trkpt><trkpt lat="44.8610283" lon="9.43482"><ele>744.25</ele><time>2026-04-10T11:16:52.841Z</time></trkpt><trkpt lat="44.8608833" lon="9.43487"><ele>746.5</ele><time>2026-04-10T11:16:53.841Z</time></trkpt><trkpt lat="44.8607517" lon="9.4349417"><ele>748.75</ele><time>2026-04-10T11:16:54.841Z</time></trkpt><trkpt lat="44.8606333" lon="9.4350117"><ele>751.0</ele><time>2026-04-10T11:16:55.84Z</time></trkpt><trkpt lat="44.8605067" lon="9.4350383"><ele>751.0</ele><time>2026-04-10T11:16:56.841Z</time></trkpt><trkpt lat="44.860375" lon="9.43502"><ele>751.0</ele><time>2026-04-10T11:16:57.839Z</time></trkpt><trkpt lat="44.860245" lon="9.4349617"><ele>751.0</ele><time>2026-04-10T11:16:58.84Z</time></trkpt><trkpt lat="44.8601133" lon="9.4348767"><ele>751.0</ele><time>2026-04-10T11:16:59.839Z</time></trkpt><trkpt lat="44.859975" lon="9.4347817"><ele>751.3333333333334</ele><time>2026-04-10T11:17:00.842Z</time></trkpt><trkpt lat="44.8598367" lon="9.434695"><ele>751.6666666666666</ele><time>2026-04-10T11:17:01.848Z</time></trkpt><trkpt lat="44.8596933" lon="9.4346283"><ele>752.0</ele><time>2026-04-10T11:17:02.841Z</time></trkpt><trkpt lat="44.8595433" lon="9.4345967"><ele>753.25</ele><time>2026-04-10T11:17:03.839Z</time></trkpt><trkpt lat="44.8594033" lon="9.434615"><ele>754.5</ele><time>2026-04-10T11:17:04.839Z</time></trkpt><trkpt lat="44.8592733" lon="9.4346867"><ele>755.75</ele><time>2026-04-10T11:17:05.84Z</time></trkpt><trkpt lat="44.859155" lon="9.4348067"><ele>757.0</ele><time>2026-04-10T11:17:06.839Z</time></trkpt><trkpt lat="44.85905" lon="9.434955"><ele>757.0</ele><time>2026-04-10T11:17:07.842Z</time></trkpt><trkpt lat="44.8589467" lon="9.4351183"><ele>757.0</ele><time>2026-04-10T11:17:08.839Z</time></trkpt><trkpt lat="44.85884" lon="9.435285"><ele>757.0</ele><time>2026-04-10T11:17:09.839Z</time></trkpt><trkpt lat="44.858735" lon="9.4354567"><ele>759.3333333333334</ele><time>2026-04-10T11:17:10.84Z</time></trkpt><trkpt lat="44.8586333" lon="9.4356333"><ele>761.6666666666666</ele><time>2026-04-10T11:17:11.841Z</time></trkpt><trkpt lat="44.8585333" lon="9.43581"><ele>764.0</ele><time>2026-04-10T11:17:12.84Z</time></trkpt><trkpt lat="44.8584317" lon="9.435985"><ele>764.0</ele><time>2026-04-10T11:17:13.846Z</time></trkpt><trkpt lat="44.858325" lon="9.436165"><ele>764.0</ele><time>2026-04-10T11:17:14.841Z</time></trkpt><trkpt lat="44.8582183" lon="9.4363417"><ele>764.0</ele><time>2026-04-10T11:17:15.839Z</time></trkpt><trkpt lat="44.858115" lon="9.4365067"><ele>760.75</ele><time>2026-04-10T11:17:16.84Z</time></trkpt><trkpt lat="44.85802" lon="9.4366583"><ele>757.5</ele><time>2026-04-10T11:17:17.841Z</time></trkpt><trkpt lat="44.8579267" lon="9.4368"><ele>754.25</ele><time>2026-04-10T11:17:18.842Z</time></trkpt><trkpt lat="44.85785" lon="9.4369383"><ele>751.0</ele><time>2026-04-10T11:17:19.84Z</time></trkpt><trkpt lat="44.8578017" lon="9.4370933"><ele>750.75</ele><time>2026-04-10T11:17:20.842Z</time></trkpt><trkpt lat="44.8577983" lon="9.4372633"><ele>750.5</ele><time>2026-04-10T11:17:21.841Z</time></trkpt><trkpt lat="44.8578283" lon="9.4374317"><ele>750.25</ele><time>2026-04-10T11:17:22.841Z</time></trkpt><trkpt lat="44.8578683" lon="9.4375983"><ele>750.0</ele><time>2026-04-10T11:17:23.842Z</time></trkpt><trkpt lat="44.85789" lon="9.4377583"><ele>750.0</ele><time>2026-04-10T11:17:24.841Z</time></trkpt><trkpt lat="44.857885" lon="9.4379017"><ele>750.0</ele><time>2026-04-10T11:17:25.839Z</time></trkpt><trkpt lat="44.857845" lon="9.4380183"><ele>750.0</ele><time>2026-04-10T11:17:26.84Z</time></trkpt><trkpt lat="44.8577617" lon="9.4381083"><ele>750.0</ele><time>2026-04-10T11:17:27.841Z</time></trkpt><trkpt lat="44.857635" lon="9.43815"><ele>750.0</ele><time>2026-04-10T11:17:28.84Z</time></trkpt><trkpt lat="44.8574917" lon="9.43816"><ele>752.0</ele><time>2026-04-10T11:17:29.84Z</time></trkpt><trkpt lat="44.8573283" lon="9.438165"><ele>754.0</ele><time>2026-04-10T11:17:30.84Z</time></trkpt><trkpt lat="44.85716" lon="9.4381933"><ele>756.0</ele><time>2026-04-10T11:17:31.841Z</time></trkpt><trkpt lat="44.8569967" lon="9.438245"><ele>756.0</ele><time>2026-04-10T11:17:32.843Z</time></trkpt><trkpt lat="44.856845" lon="9.4383283"><ele>756.0</ele><time>2026-04-10T11:17:33.84Z</time></trkpt><trkpt lat="44.85672" lon="9.4384533"><ele>756.0</ele><time>2026-04-10T11:17:34.839Z</time></trkpt><trkpt lat="44.8566183" lon="9.4386217"><ele>756.3333333333334</ele><time>2026-04-10T11:17:35.84Z</time></trkpt><trkpt lat="44.8565383" lon="9.4388133"><ele>756.6666666666667</ele><time>2026-04-10T11:17:36.84Z</time></trkpt><trkpt lat="44.85648" lon="9.4390233"><ele>757.0</ele><time>2026-04-10T11:17:37.84Z</time></trkpt><trkpt lat="44.85644" lon="9.4392483"><ele>757.0</ele><time>2026-04-10T11:17:38.841Z</time></trkpt><trkpt lat="44.8564217" lon="9.4394817"><ele>757.0</ele><time>2026-04-10T11:17:39.84Z</time></trkpt><trkpt lat="44.856405" lon="9.4397183"><ele>757.0</ele><time>2026-04-10T11:17:40.84Z</time></trkpt><trkpt lat="44.8563817" lon="9.43994"><ele>754.5</ele><time>2026-04-10T11:17:41.84Z</time></trkpt><trkpt lat="44.8563417" lon="9.4401433"><ele>752.0</ele><time>2026-04-10T11:17:42.841Z</time></trkpt><trkpt lat="44.85629" lon="9.4403217"><ele>749.5</ele><time>2026-04-10T11:17:43.841Z</time></trkpt><trkpt lat="44.8562233" lon="9.4404667"><ele>747.0</ele><time>2026-04-10T11:17:44.847Z</time></trkpt><trkpt lat="44.8561367" lon="9.4405767"><ele>744.75</ele><time>2026-04-10T11:17:45.84Z</time></trkpt><trkpt lat="44.8560317" lon="9.4406633"><ele>742.5</ele><time>2026-04-10T11:17:46.84Z</time></trkpt><trkpt lat="44.8559233" lon="9.440745"><ele>740.25</ele><time>2026-04-10T11:17:47.841Z</time></trkpt><trkpt lat="44.8558417" lon="9.4408433"><ele>738.0</ele><time>2026-04-10T11:17:48.841Z</time></trkpt><trkpt lat="44.8557967" lon="9.44099"><ele>741.25</ele><time>2026-04-10T11:17:49.841Z</time></trkpt><trkpt lat="44.8558" lon="9.4411567"><ele>744.5</ele><time>2026-04-10T11:17:50.841Z</time></trkpt><trkpt lat="44.8558283" lon="9.4413433"><ele>747.75</ele><time>2026-04-10T11:17:51.841Z</time></trkpt><trkpt lat="44.8558717" lon="9.4415333"><ele>751.0</ele><time>2026-04-10T11:17:52.84Z</time></trkpt><trkpt lat="44.8559267" lon="9.4417167"><ele>746.5</ele><time>2026-04-10T11:17:53.841Z</time></trkpt><trkpt lat="44.8559733" lon="9.4418983"><ele>742.0</ele><time>2026-04-10T11:17:54.84Z</time></trkpt><trkpt lat="44.8559967" lon="9.4420917"><ele>737.5</ele><time>2026-04-10T11:17:55.842Z</time></trkpt><trkpt lat="44.8559933" lon="9.4423"><ele>733.0</ele><time>2026-04-10T11:17:56.841Z</time></trkpt><trkpt lat="44.8559767" lon="9.4425167"><ele>733.0</ele><time>2026-04-10T11:17:57.84Z</time></trkpt><trkpt lat="44.855955" lon="9.442735"><ele>733.0</ele><time>2026-04-10T11:17:58.839Z</time></trkpt><trkpt lat="44.8559117" lon="9.4429467"><ele>733.0</ele><time>2026-04-10T11:17:59.84Z</time></trkpt><trkpt lat="44.855845" lon="9.4431333"><ele>736.5</ele><time>2026-04-10T11:18:00.841Z</time></trkpt><trkpt lat="44.8557583" lon="9.4432867"><ele>740.0</ele><time>2026-04-10T11:18:01.84Z</time></trkpt><trkpt lat="44.8556517" lon="9.4434133"><ele>743.5</ele><time>2026-04-10T11:18:02.917Z</time></trkpt><trkpt lat="44.855535" lon="9.443525"><ele>747.0</ele><time>2026-04-10T11:18:03.844Z</time></trkpt><trkpt lat="44.85542" lon="9.4436267"><ele>747.0</ele><time>2026-04-10T11:18:04.843Z</time></trkpt><trkpt lat="44.8553217" lon="9.4437167"><ele>747.0</ele><time>2026-04-10T11:18:05.839Z</time></trkpt><trkpt lat="44.8552517" lon="9.4438067"><ele>747.0</ele><time>2026-04-10T11:18:06.84Z</time></trkpt><trkpt lat="44.8552083" lon="9.4439033"><ele>747.0</ele><time>2026-04-10T11:18:07.839Z</time></trkpt><trkpt lat="44.85519" lon="9.4440183"><ele>747.0</ele><time>2026-04-10T11:18:08.84Z</time></trkpt><trkpt lat="44.8551933" lon="9.44415"><ele>745.2</ele><time>2026-04-10T11:18:09.843Z</time></trkpt><trkpt lat="44.8551967" lon="9.444295"><ele>743.4000000000001</ele><time>2026-04-10T11:18:10.84Z</time></trkpt><trkpt lat="44.8551933" lon="9.4444483"><ele>741.5999999999999</ele><time>2026-04-10T11:18:11.845Z</time></trkpt><trkpt lat="44.8551817" lon="9.4446067"><ele>739.8</ele><time>2026-04-10T11:18:12.839Z</time></trkpt><trkpt lat="44.855165" lon="9.4447733"><ele>738.0</ele><time>2026-04-10T11:18:13.84Z</time></trkpt><trkpt lat="44.8551417" lon="9.4449483"><ele>737.25</ele><time>2026-04-10T11:18:14.842Z</time></trkpt><trkpt lat="44.8551167" lon="9.4451333"><ele>736.5</ele><time>2026-04-10T11:18:15.841Z</time></trkpt><trkpt lat="44.8551017" lon="9.4453267"><ele>735.75</ele><time>2026-04-10T11:18:16.842Z</time></trkpt><trkpt lat="44.8551033" lon="9.4455217"><ele>735.0</ele><time>2026-04-10T11:18:17.84Z</time></trkpt><trkpt lat="44.8551383" lon="9.4456983"><ele>735.0</ele><time>2026-04-10T11:18:18.839Z</time></trkpt><trkpt lat="44.8552033" lon="9.4458633"><ele>735.0</ele><time>2026-04-10T11:18:19.839Z</time></trkpt><trkpt lat="44.855275" lon="9.4460283"><ele>735.0</ele><time>2026-04-10T11:18:20.841Z</time></trkpt><trkpt lat="44.8553317" lon="9.4461967"><ele>735.0</ele><time>2026-04-10T11:18:21.839Z</time></trkpt><trkpt lat="44.8553683" lon="9.4463683"><ele>734.0</ele><time>2026-04-10T11:18:22.84Z</time></trkpt><trkpt lat="44.85538" lon="9.4465467"><ele>733.0</ele><time>2026-04-10T11:18:23.839Z</time></trkpt><trkpt lat="44.8553683" lon="9.4467317"><ele>732.0</ele><time>2026-04-10T11:18:24.84Z</time></trkpt><trkpt lat="44.855325" lon="9.4469083"><ele>731.0</ele><time>2026-04-10T11:18:25.838Z</time></trkpt><trkpt lat="44.8552633" lon="9.44706"><ele>732.75</ele><time>2026-04-10T11:18:26.838Z</time></trkpt><trkpt lat="44.8552117" lon="9.4472033"><ele>734.5</ele><time>2026-04-10T11:18:27.84Z</time></trkpt><trkpt lat="44.855185" lon="9.4473617"><ele>736.25</ele><time>2026-04-10T11:18:28.844Z</time></trkpt><trkpt lat="44.8551983" lon="9.4475433"><ele>738.0</ele><time>2026-04-10T11:18:29.84Z</time></trkpt><trkpt lat="44.8552367" lon="9.44773"><ele>738.0</ele><time>2026-04-10T11:18:30.838Z</time></trkpt><trkpt lat="44.8552933" lon="9.4479017"><ele>738.0</ele><time>2026-04-10T11:18:31.839Z</time></trkpt><trkpt lat="44.8553283" lon="9.4480667"><ele>738.0</ele><time>2026-04-10T11:18:32.838Z</time></trkpt><trkpt lat="44.8553267" lon="9.4482283"><ele>738.0</ele><time>2026-04-10T11:18:33.839Z</time></trkpt><trkpt lat="44.855295" lon="9.448375"><ele>737.25</ele><time>2026-04-10T11:18:34.839Z</time></trkpt><trkpt lat="44.8552033" lon="9.4484983"><ele>736.5</ele><time>2026-04-10T11:18:35.84Z</time></trkpt><trkpt lat="44.8550933" lon="9.44864"><ele>735.75</ele><time>2026-04-10T11:18:36.839Z</time></trkpt><trkpt lat="44.8549733" lon="9.4487683"><ele>735.0</ele><time>2026-04-10T11:18:37.84Z</time></trkpt><trkpt lat="44.854835" lon="9.4488583"><ele>737.5</ele><time>2026-04-10T11:18:38.84Z</time></trkpt><trkpt lat="44.8546917" lon="9.44891"><ele>740.0</ele><time>2026-04-10T11:18:39.839Z</time></trkpt><trkpt lat="44.8545667" lon="9.4489467"><ele>742.5</ele><time>2026-04-10T11:18:40.841Z</time></trkpt><trkpt lat="44.854475" lon="9.4490167"><ele>745.0</ele><time>2026-04-10T11:18:41.839Z</time></trkpt><trkpt lat="44.85442" lon="9.4491267"><ele>745.0</ele><time>2026-04-10T11:18:42.839Z</time></trkpt><trkpt lat="44.8543933" lon="9.449275"><ele>745.0</ele><time>2026-04-10T11:18:43.839Z</time></trkpt><trkpt lat="44.8543733" lon="9.44944"><ele>745.0</ele><time>2026-04-10T11:18:44.84Z</time></trkpt><trkpt lat="44.8543583" lon="9.44962"><ele>745.0</ele><time>2026-04-10T11:18:45.84Z</time></trkpt><trkpt lat="44.854345" lon="9.4497983"><ele>746.75</ele><time>2026-04-10T11:18:46.838Z</time></trkpt><trkpt lat="44.8543433" lon="9.4499717"><ele>748.5</ele><time>2026-04-10T11:18:47.84Z</time></trkpt><trkpt lat="44.8543633" lon="9.4501283"><ele>750.25</ele><time>2026-04-10T11:18:48.847Z</time></trkpt><trkpt lat="44.8543983" lon="9.4502867"><ele>752.0</ele><time>2026-04-10T11:18:49.839Z</time></trkpt><trkpt lat="44.8544283" lon="9.4504633"><ele>752.0</ele><time>2026-04-10T11:18:50.839Z</time></trkpt><trkpt lat="44.854445" lon="9.4506667"><ele>752.0</ele><time>2026-04-10T11:18:51.838Z</time></trkpt><trkpt lat="44.8544633" lon="9.450885"><ele>752.0</ele><time>2026-04-10T11:18:52.839Z</time></trkpt><trkpt lat="44.85449" lon="9.4511"><ele>751.25</ele><time>2026-04-10T11:18:53.841Z</time></trkpt><trkpt lat="44.8545233" lon="9.4513017"><ele>750.5</ele><time>2026-04-10T11:18:54.839Z</time></trkpt><trkpt lat="44.8545533" lon="9.4514933"><ele>749.75</ele><time>2026-04-10T11:18:55.839Z</time></trkpt><trkpt lat="44.8545717" lon="9.45168"><ele>749.0</ele><time>2026-04-10T11:18:56.839Z</time></trkpt><trkpt lat="44.8545817" lon="9.4518717"><ele>749.0</ele><time>2026-04-10T11:18:57.839Z</time></trkpt><trkpt lat="44.8545683" lon="9.45207"><ele>749.0</ele><time>2026-04-10T11:18:58.841Z</time></trkpt><trkpt lat="44.854555" lon="9.4522617"><ele>749.0</ele><time>2026-04-10T11:18:59.839Z</time></trkpt><trkpt lat="44.8545583" lon="9.4524517"><ele>749.0</ele><time>2026-04-10T11:19:00.842Z</time></trkpt><trkpt lat="44.854575" lon="9.45264"><ele>746.5</ele><time>2026-04-10T11:19:01.84Z</time></trkpt><trkpt lat="44.8545717" lon="9.4528267"><ele>744.0</ele><time>2026-04-10T11:19:02.84Z</time></trkpt><trkpt lat="44.8545283" lon="9.452985"><ele>741.5</ele><time>2026-04-10T11:19:03.84Z</time></trkpt><trkpt lat="44.8544567" lon="9.4530933"><ele>739.0</ele><time>2026-04-10T11:19:04.84Z</time></trkpt><trkpt lat="44.8543533" lon="9.45313"><ele>732.25</ele><time>2026-04-10T11:19:05.843Z</time></trkpt><trkpt lat="44.8542383" lon="9.4531067"><ele>725.5</ele><time>2026-04-10T11:19:06.839Z</time></trkpt><trkpt lat="44.8541133" lon="9.45307"><ele>718.75</ele><time>2026-04-10T11:19:07.838Z</time></trkpt><trkpt lat="44.85398" lon="9.453065"><ele>712.0</ele><time>2026-04-10T11:19:08.84Z</time></trkpt><trkpt lat="44.8538433" lon="9.4531167"><ele>712.0</ele><time>2026-04-10T11:19:09.839Z</time></trkpt><trkpt lat="44.8537117" lon="9.4532067"><ele>712.0</ele><time>2026-04-10T11:19:10.838Z</time></trkpt><trkpt lat="44.85359" lon="9.45332"><ele>712.0</ele><time>2026-04-10T11:19:11.842Z</time></trkpt><trkpt lat="44.8534967" lon="9.4534483"><ele>712.0</ele><time>2026-04-10T11:19:12.841Z</time></trkpt><trkpt lat="44.8534333" lon="9.453585"><ele>710.5</ele><time>2026-04-10T11:19:13.84Z</time></trkpt><trkpt lat="44.8534167" lon="9.45372"><ele>709.0</ele><time>2026-04-10T11:19:14.839Z</time></trkpt><trkpt lat="44.8534333" lon="9.4538783"><ele>707.5</ele><time>2026-04-10T11:19:15.84Z</time></trkpt><trkpt lat="44.853435" lon="9.45406"><ele>706.0</ele><time>2026-04-10T11:19:16.84Z</time></trkpt><trkpt lat="44.8534183" lon="9.4542383"><ele>706.0</ele><time>2026-04-10T11:19:17.839Z</time></trkpt><trkpt lat="44.85337" lon="9.4544167"><ele>706.0</ele><time>2026-04-10T11:19:18.843Z</time></trkpt><trkpt lat="44.85329" lon="9.4545833"><ele>706.0</ele><time>2026-04-10T11:19:19.839Z</time></trkpt><trkpt lat="44.8531883" lon="9.45475"><ele>706.0</ele><time>2026-04-10T11:19:20.84Z</time></trkpt><trkpt lat="44.8530867" lon="9.454915"><ele>707.0</ele><time>2026-04-10T11:19:21.839Z</time></trkpt><trkpt lat="44.8529833" lon="9.4550567"><ele>708.0</ele><time>2026-04-10T11:19:22.839Z</time></trkpt><trkpt lat="44.8528633" lon="9.455155"><ele>709.0</ele><time>2026-04-10T11:19:23.841Z</time></trkpt><trkpt lat="44.852725" lon="9.4552117"><ele>710.0</ele><time>2026-04-10T11:19:24.839Z</time></trkpt><trkpt lat="44.85257" lon="9.4552417"><ele>704.6666666666666</ele><time>2026-04-10T11:19:25.838Z</time></trkpt><trkpt lat="44.8524083" lon="9.4552667"><ele>699.3333333333334</ele><time>2026-04-10T11:19:26.841Z</time></trkpt><trkpt lat="44.8522583" lon="9.4552917"><ele>694.0</ele><time>2026-04-10T11:19:27.842Z</time></trkpt><trkpt lat="44.8521117" lon="9.4553133"><ele>694.0</ele><time>2026-04-10T11:19:28.842Z</time></trkpt><trkpt lat="44.85197" lon="9.4553417"><ele>694.0</ele><time>2026-04-10T11:19:29.84Z</time></trkpt><trkpt lat="44.85183" lon="9.4553867"><ele>694.0</ele><time>2026-04-10T11:19:30.841Z</time></trkpt><trkpt lat="44.851695" lon="9.455445"><ele>694.0</ele><time>2026-04-10T11:19:31.839Z</time></trkpt><trkpt lat="44.8515583" lon="9.4555017"><ele>692.5</ele><time>2026-04-10T11:19:32.839Z</time></trkpt><trkpt lat="44.8514183" lon="9.4555467"><ele>691.0</ele><time>2026-04-10T11:19:33.84Z</time></trkpt><trkpt lat="44.8512767" lon="9.4555933"><ele>689.5</ele><time>2026-04-10T11:19:34.841Z</time></trkpt><trkpt lat="44.85113" lon="9.45565"><ele>688.0</ele><time>2026-04-10T11:19:35.841Z</time></trkpt><trkpt lat="44.8509833" lon="9.4557133"><ele>685.0</ele><time>2026-04-10T11:19:36.84Z</time></trkpt><trkpt lat="44.8508367" lon="9.455795"><ele>682.0</ele><time>2026-04-10T11:19:37.84Z</time></trkpt><trkpt lat="44.850705" lon="9.4559033"><ele>679.0</ele><time>2026-04-10T11:19:38.84Z</time></trkpt><trkpt lat="44.8505867" lon="9.4560367"><ele>679.0</ele><time>2026-04-10T11:19:39.839Z</time></trkpt><trkpt lat="44.8504783" lon="9.4561833"><ele>679.0</ele><time>2026-04-10T11:19:40.839Z</time></trkpt><trkpt lat="44.8503733" lon="9.4563317"><ele>679.0</ele><time>2026-04-10T11:19:41.839Z</time></trkpt><trkpt lat="44.8502667" lon="9.45648"><ele>679.0</ele><time>2026-04-10T11:19:42.841Z</time></trkpt><trkpt lat="44.8501633" lon="9.45663"><ele>677.5</ele><time>2026-04-10T11:19:43.839Z</time></trkpt><trkpt lat="44.8500633" lon="9.4567833"><ele>676.0</ele><time>2026-04-10T11:19:44.839Z</time></trkpt><trkpt lat="44.8499717" lon="9.4569333"><ele>674.5</ele><time>2026-04-10T11:19:45.839Z</time></trkpt><trkpt lat="44.8498867" lon="9.4570933"><ele>673.0</ele><time>2026-04-10T11:19:46.84Z</time></trkpt><trkpt lat="44.84981" lon="9.4572583"><ele>673.0</ele><time>2026-04-10T11:19:47.838Z</time></trkpt><trkpt lat="44.849745" lon="9.4574333"><ele>673.0</ele><time>2026-04-10T11:19:48.84Z</time></trkpt><trkpt lat="44.8496917" lon="9.4576117"><ele>673.0</ele><time>2026-04-10T11:19:49.841Z</time></trkpt><trkpt lat="44.8496517" lon="9.4577867"><ele>673.0</ele><time>2026-04-10T11:19:50.842Z</time></trkpt><trkpt lat="44.8496083" lon="9.457965"><ele>672.25</ele><time>2026-04-10T11:19:51.84Z</time></trkpt><trkpt lat="44.84955" lon="9.458135"><ele>671.5</ele><time>2026-04-10T11:19:52.839Z</time></trkpt><trkpt lat="44.84947" lon="9.45829"><ele>670.75</ele><time>2026-04-10T11:19:53.84Z</time></trkpt><trkpt lat="44.8493733" lon="9.4584483"><ele>670.0</ele><time>2026-04-10T11:19:54.841Z</time></trkpt><trkpt lat="44.84927" lon="9.4586133"><ele>669.0</ele><time>2026-04-10T11:19:55.84Z</time></trkpt><trkpt lat="44.8491667" lon="9.458785"><ele>668.0</ele><time>2026-04-10T11:19:56.841Z</time></trkpt><trkpt lat="44.8490667" lon="9.45896"><ele>667.0</ele><time>2026-04-10T11:19:57.84Z</time></trkpt><trkpt lat="44.8489783" lon="9.4591367"><ele>667.0</ele><time>2026-04-10T11:19:58.846Z</time></trkpt><trkpt lat="44.8489033" lon="9.459315"><ele>667.0</ele><time>2026-04-10T11:19:59.84Z</time></trkpt><trkpt lat="44.8488383" lon="9.4595017"><ele>667.0</ele><time>2026-04-10T11:20:00.839Z</time></trkpt><trkpt lat="44.8487983" lon="9.4597"><ele>667.0</ele><time>2026-04-10T11:20:01.838Z</time></trkpt><trkpt lat="44.8487833" lon="9.4599083"><ele>666.0</ele><time>2026-04-10T11:20:02.842Z</time></trkpt><trkpt lat="44.8487817" lon="9.4601133"><ele>665.0</ele><time>2026-04-10T11:20:03.841Z</time></trkpt><trkpt lat="44.8487683" lon="9.4603133"><ele>664.0</ele><time>2026-04-10T11:20:04.84Z</time></trkpt><trkpt lat="44.8487383" lon="9.4605183"><ele>663.0</ele><time>2026-04-10T11:20:05.84Z</time></trkpt><trkpt lat="44.8487033" lon="9.4607267"><ele>661.3333333333334</ele><time>2026-04-10T11:20:06.84Z</time></trkpt><trkpt lat="44.8486683" lon="9.4609383"><ele>659.6666666666667</ele><time>2026-04-10T11:20:07.845Z</time></trkpt><trkpt lat="44.8486333" lon="9.4611483"><ele>658.0</ele><time>2026-04-10T11:20:08.841Z</time></trkpt><trkpt lat="44.8486" lon="9.461355"><ele>657.3333333333334</ele><time>2026-04-10T11:20:09.839Z</time></trkpt><trkpt lat="44.8485633" lon="9.461565"><ele>656.6666666666666</ele><time>2026-04-10T11:20:10.839Z</time></trkpt><trkpt lat="44.8485267" lon="9.46178"><ele>656.0</ele><time>2026-04-10T11:20:11.84Z</time></trkpt><trkpt lat="44.8484933" lon="9.461995"><ele>655.3333333333333</ele><time>2026-04-10T11:20:12.84Z</time></trkpt><trkpt lat="44.84846" lon="9.462205"><ele>654.6666666666666</ele><time>2026-04-10T11:20:13.839Z</time></trkpt><trkpt lat="44.8484333" lon="9.4624117"><ele>654.0</ele><time>2026-04-10T11:20:14.841Z</time></trkpt><trkpt lat="44.8484083" lon="9.4626183"><ele>656.0</ele><time>2026-04-10T11:20:15.839Z</time></trkpt><trkpt lat="44.8483767" lon="9.4628283"><ele>658.0</ele><time>2026-04-10T11:20:16.838Z</time></trkpt><trkpt lat="44.84833" lon="9.463025"><ele>660.0</ele><time>2026-04-10T11:20:17.839Z</time></trkpt><trkpt lat="44.848265" lon="9.4632017"><ele>662.0</ele><time>2026-04-10T11:20:18.84Z</time></trkpt><trkpt lat="44.8481867" lon="9.4633733"><ele>662.6666666666666</ele><time>2026-04-10T11:20:19.841Z</time></trkpt><trkpt lat="44.8481" lon="9.463545"><ele>663.3333333333334</ele><time>2026-04-10T11:20:20.84Z</time></trkpt><trkpt lat="44.8480117" lon="9.46372"><ele>664.0</ele><time>2026-04-10T11:20:21.843Z</time></trkpt><trkpt lat="44.8479267" lon="9.4639"><ele>661.6666666666667</ele><time>2026-04-10T11:20:22.842Z</time></trkpt><trkpt lat="44.8478483" lon="9.4640933"><ele>659.3333333333334</ele><time>2026-04-10T11:20:23.841Z</time></trkpt><trkpt lat="44.8477767" lon="9.46429"><ele>657.0</ele><time>2026-04-10T11:20:24.841Z</time></trkpt><trkpt lat="44.8477067" lon="9.4644817"><ele>656.0</ele><time>2026-04-10T11:20:25.84Z</time></trkpt><trkpt lat="44.8476433" lon="9.4646667"><ele>655.0</ele><time>2026-04-10T11:20:26.84Z</time></trkpt><trkpt lat="44.847585" lon="9.4648617"><ele>654.0</ele><time>2026-04-10T11:20:27.842Z</time></trkpt><trkpt lat="44.8475317" lon="9.46506"><ele>653.0</ele><time>2026-04-10T11:20:28.84Z</time></trkpt><trkpt lat="44.8474817" lon="9.465265"><ele>658.3333333333333</ele><time>2026-04-10T11:20:29.842Z</time></trkpt><trkpt lat="44.8474467" lon="9.46548"><ele>663.6666666666666</ele><time>2026-04-10T11:20:30.839Z</time></trkpt><trkpt lat="44.8474217" lon="9.4657"><ele>669.0</ele><time>2026-04-10T11:20:31.839Z</time></trkpt><trkpt lat="44.8474117" lon="9.4659233"><ele>669.0</ele><time>2026-04-10T11:20:32.841Z</time></trkpt><trkpt lat="44.8474117" lon="9.46614"><ele>669.0</ele><time>2026-04-10T11:20:33.84Z</time></trkpt><trkpt lat="44.8474083" lon="9.466345"><ele>669.0</ele><time>2026-04-10T11:20:34.838Z</time></trkpt><trkpt lat="44.847395" lon="9.4665367"><ele>669.0</ele><time>2026-04-10T11:20:35.84Z</time></trkpt><trkpt lat="44.8473633" lon="9.4667167"><ele>669.75</ele><time>2026-04-10T11:20:36.843Z</time></trkpt><trkpt lat="44.8473117" lon="9.466895"><ele>670.5</ele><time>2026-04-10T11:20:37.84Z</time></trkpt><trkpt lat="44.8472667" lon="9.4670833"><ele>671.25</ele><time>2026-04-10T11:20:38.841Z</time></trkpt><trkpt lat="44.847245" lon="9.4672883"><ele>672.0</ele><time>2026-04-10T11:20:39.922Z</time></trkpt><trkpt lat="44.8472583" lon="9.4675017"><ele>672.0</ele><time>2026-04-10T11:20:40.839Z</time></trkpt><trkpt lat="44.847295" lon="9.4677133"><ele>672.0</ele><time>2026-04-10T11:20:41.84Z</time></trkpt><trkpt lat="44.8473367" lon="9.4679317"><ele>672.0</ele><time>2026-04-10T11:20:42.84Z</time></trkpt><trkpt lat="44.8473867" lon="9.4681517"><ele>672.6666666666666</ele><time>2026-04-10T11:20:43.845Z</time></trkpt><trkpt lat="44.84744" lon="9.46837"><ele>673.3333333333333</ele><time>2026-04-10T11:20:44.841Z</time></trkpt><trkpt lat="44.8474933" lon="9.4685883"><ele>674.0</ele><time>2026-04-10T11:20:45.84Z</time></trkpt><trkpt lat="44.8475483" lon="9.468805"><ele>676.6666666666666</ele><time>2026-04-10T11:20:46.84Z</time></trkpt><trkpt lat="44.8476117" lon="9.469025"><ele>679.3333333333334</ele><time>2026-04-10T11:20:47.841Z</time></trkpt><trkpt lat="44.84768" lon="9.4692417"><ele>682.0</ele><time>2026-04-10T11:20:48.838Z</time></trkpt><trkpt lat="44.8477517" lon="9.469455"><ele>678.3333333333334</ele><time>2026-04-10T11:20:49.842Z</time></trkpt><trkpt lat="44.84782" lon="9.4696633"><ele>674.6666666666666</ele><time>2026-04-10T11:20:50.841Z</time></trkpt><trkpt lat="44.8478883" lon="9.46986"><ele>671.0</ele><time>2026-04-10T11:20:51.839Z</time></trkpt><trkpt lat="44.847965" lon="9.470025"><ele>671.0</ele><time>2026-04-10T11:20:52.841Z</time></trkpt><trkpt lat="44.8480633" lon="9.4701567"><ele>671.0</ele><time>2026-04-10T11:20:53.84Z</time></trkpt><trkpt lat="44.8481717" lon="9.47027"><ele>671.0</ele><time>2026-04-10T11:20:54.84Z</time></trkpt><trkpt lat="44.8482783" lon="9.470395"><ele>671.0</ele><time>2026-04-10T11:20:55.842Z</time></trkpt><trkpt lat="44.84838" lon="9.47054"><ele>669.25</ele><time>2026-04-10T11:20:56.84Z</time></trkpt><trkpt lat="44.8484717" lon="9.470695"><ele>667.5</ele><time>2026-04-10T11:20:57.84Z</time></trkpt><trkpt lat="44.848545" lon="9.47084"><ele>665.75</ele><time>2026-04-10T11:20:58.84Z</time></trkpt><trkpt lat="44.8485983" lon="9.4709817"><ele>664.0</ele><time>2026-04-10T11:20:59.84Z</time></trkpt><trkpt lat="44.8486283" lon="9.4711317"><ele>664.25</ele><time>2026-04-10T11:21:00.839Z</time></trkpt><trkpt lat="44.8486417" lon="9.4712917"><ele>664.5</ele><time>2026-04-10T11:21:01.917Z</time></trkpt><trkpt lat="44.8486417" lon="9.471465"><ele>664.75</ele><time>2026-04-10T11:21:02.842Z</time></trkpt><trkpt lat="44.8486383" lon="9.471655"><ele>665.0</ele><time>2026-04-10T11:21:03.84Z</time></trkpt><trkpt lat="44.8486283" lon="9.471855"><ele>665.0</ele><time>2026-04-10T11:21:04.84Z</time></trkpt><trkpt lat="44.848615" lon="9.472045"><ele>665.0</ele><time>2026-04-10T11:21:05.84Z</time></trkpt><trkpt lat="44.8486167" lon="9.4722367"><ele>665.0</ele><time>2026-04-10T11:21:06.84Z</time></trkpt><trkpt lat="44.84864" lon="9.4724317"><ele>665.0</ele><time>2026-04-10T11:21:07.841Z</time></trkpt><trkpt lat="44.84867" lon="9.472625"><ele>664.4</ele><time>2026-04-10T11:21:08.84Z</time></trkpt><trkpt lat="44.8486983" lon="9.4728017"><ele>663.8</ele><time>2026-04-10T11:21:09.841Z</time></trkpt><trkpt lat="44.848735" lon="9.4729567"><ele>663.2</ele><time>2026-04-10T11:21:10.84Z</time></trkpt><trkpt lat="44.8487817" lon="9.4730767"><ele>662.6</ele><time>2026-04-10T11:21:11.839Z</time></trkpt><trkpt lat="44.8488517" lon="9.473175"><ele>662.0</ele><time>2026-04-10T11:21:12.84Z</time></trkpt><trkpt lat="44.8489433" lon="9.4732517"><ele>661.25</ele><time>2026-04-10T11:21:13.841Z</time></trkpt><trkpt lat="44.849055" lon="9.47331"><ele>660.5</ele><time>2026-04-10T11:21:14.839Z</time></trkpt><trkpt lat="44.84918" lon="9.4733533"><ele>659.75</ele><time>2026-04-10T11:21:15.839Z</time></trkpt><trkpt lat="44.84931" lon="9.4733933"><ele>659.0</ele><time>2026-04-10T11:21:16.84Z</time></trkpt><trkpt lat="44.8494233" lon="9.4734367"><ele>656.4000000000001</ele><time>2026-04-10T11:21:17.839Z</time></trkpt><trkpt lat="44.849525" lon="9.4734983"><ele>653.8</ele><time>2026-04-10T11:21:18.842Z</time></trkpt><trkpt lat="44.8496067" lon="9.4735917"><ele>651.2</ele><time>2026-04-10T11:21:19.841Z</time></trkpt><trkpt lat="44.84967" lon="9.473705"><ele>648.5999999999999</ele><time>2026-04-10T11:21:20.84Z</time></trkpt><trkpt lat="44.8497017" lon="9.4738267"><ele>646.0</ele><time>2026-04-10T11:21:21.842Z</time></trkpt><trkpt lat="44.8497" lon="9.473955"><ele>646.0</ele><time>2026-04-10T11:21:22.84Z</time></trkpt><trkpt lat="44.8496833" lon="9.47408"><ele>646.0</ele><time>2026-04-10T11:21:23.84Z</time></trkpt><trkpt lat="44.84967" lon="9.4742033"><ele>646.0</ele><time>2026-04-10T11:21:24.839Z</time></trkpt><trkpt lat="44.8496917" lon="9.4743033"><ele>646.0</ele><time>2026-04-10T11:21:25.841Z</time></trkpt><trkpt lat="44.8497717" lon="9.4743217"><ele>646.0</ele><time>2026-04-10T11:21:26.85Z</time></trkpt><trkpt lat="44.8498467" lon="9.47429"><ele>646.0</ele><time>2026-04-10T11:21:27.839Z</time></trkpt><trkpt lat="44.8499033" lon="9.47423"><ele>646.0</ele><time>2026-04-10T11:21:28.84Z</time></trkpt><trkpt lat="44.849955" lon="9.4741233"><ele>646.0</ele><time>2026-04-10T11:21:29.839Z</time></trkpt><trkpt lat="44.85001" lon="9.4740317"><ele>646.0</ele><time>2026-04-10T11:21:30.839Z</time></trkpt><trkpt lat="44.85009" lon="9.47399"><ele>646.0</ele><time>2026-04-10T11:21:31.84Z</time></trkpt><trkpt lat="44.8501667" lon="9.4739983"><ele>646.0</ele><time>2026-04-10T11:21:32.839Z</time></trkpt><trkpt lat="44.8502133" lon="9.4740867"><ele>646.0</ele><time>2026-04-10T11:21:33.839Z</time></trkpt><trkpt lat="44.85023" lon="9.474185"><ele>646.0</ele><time>2026-04-10T11:21:34.843Z</time></trkpt><trkpt lat="44.850195" lon="9.4742883"><ele>646.0</ele><time>2026-04-10T11:21:35.84Z</time></trkpt><trkpt lat="44.8501267" lon="9.4743833"><ele>646.0</ele><time>2026-04-10T11:21:36.84Z</time></trkpt><trkpt lat="44.8500433" lon="9.4744683"><ele>646.0</ele><time>2026-04-10T11:21:37.842Z</time></trkpt><trkpt lat="44.8499033" lon="9.47457"><ele>646.0</ele><time>2026-04-10T11:21:38.841Z</time></trkpt><trkpt lat="44.8497783" lon="9.4746767"><ele>640.0</ele><time>2026-04-10T11:21:39.839Z</time></trkpt><trkpt lat="44.84965" lon="9.4747767"><ele>634.0</ele><time>2026-04-10T11:21:40.84Z</time></trkpt><trkpt lat="44.8495083" lon="9.4748517"><ele>628.0</ele><time>2026-04-10T11:21:41.839Z</time></trkpt><trkpt lat="44.8493583" lon="9.4749"><ele>631.3333333333334</ele><time>2026-04-10T11:21:42.839Z</time></trkpt><trkpt lat="44.8492083" lon="9.4749217"><ele>634.6666666666666</ele><time>2026-04-10T11:21:43.839Z</time></trkpt><trkpt lat="44.849055" lon="9.4749533"><ele>638.0</ele><time>2026-04-10T11:21:44.84Z</time></trkpt><trkpt lat="44.848915" lon="9.47504"><ele>638.0</ele><time>2026-04-10T11:21:45.84Z</time></trkpt><trkpt lat="44.8487917" lon="9.4751667"><ele>638.0</ele><time>2026-04-10T11:21:46.841Z</time></trkpt><trkpt lat="44.848675" lon="9.4752883"><ele>638.0</ele><time>2026-04-10T11:21:47.838Z</time></trkpt><trkpt lat="44.8485567" lon="9.4753917"><ele>638.0</ele><time>2026-04-10T11:21:48.839Z</time></trkpt><trkpt lat="44.8484517" lon="9.4754917"><ele>635.5</ele><time>2026-04-10T11:21:49.84Z</time></trkpt><trkpt lat="44.84836" lon="9.4756283"><ele>633.0</ele><time>2026-04-10T11:21:50.839Z</time></trkpt><trkpt lat="44.8482783" lon="9.4757983"><ele>630.5</ele><time>2026-04-10T11:21:51.839Z</time></trkpt><trkpt lat="44.8482" lon="9.4759733"><ele>628.0</ele><time>2026-04-10T11:21:52.839Z</time></trkpt><trkpt lat="44.848125" lon="9.47614"><ele>625.5</ele><time>2026-04-10T11:21:53.842Z</time></trkpt><trkpt lat="44.848065" lon="9.4763083"><ele>623.0</ele><time>2026-04-10T11:21:54.84Z</time></trkpt><trkpt lat="44.8480267" lon="9.4765"><ele>620.5</ele><time>2026-04-10T11:21:55.841Z</time></trkpt><trkpt lat="44.8480017" lon="9.4767017"><ele>618.0</ele><time>2026-04-10T11:21:56.84Z</time></trkpt><trkpt lat="44.8479667" lon="9.476895"><ele>618.0</ele><time>2026-04-10T11:21:57.84Z</time></trkpt><trkpt lat="44.847925" lon="9.47708"><ele>618.0</ele><time>2026-04-10T11:21:58.839Z</time></trkpt><trkpt lat="44.8478917" lon="9.4772617"><ele>618.0</ele><time>2026-04-10T11:21:59.839Z</time></trkpt><trkpt lat="44.8478767" lon="9.4774517"><ele>618.0</ele><time>2026-04-10T11:22:00.839Z</time></trkpt><trkpt lat="44.8478967" lon="9.4776533"><ele>616.25</ele><time>2026-04-10T11:22:01.839Z</time></trkpt><trkpt lat="44.847935" lon="9.4778567"><ele>614.5</ele><time>2026-04-10T11:22:02.84Z</time></trkpt><trkpt lat="44.847975" lon="9.47805"><ele>612.75</ele><time>2026-04-10T11:22:03.838Z</time></trkpt><trkpt lat="44.84801" lon="9.47824"><ele>611.0</ele><time>2026-04-10T11:22:04.841Z</time></trkpt><trkpt lat="44.848045" lon="9.4784233"><ele>610.25</ele><time>2026-04-10T11:22:05.839Z</time></trkpt><trkpt lat="44.8480817" lon="9.4786133"><ele>609.5</ele><time>2026-04-10T11:22:06.844Z</time></trkpt><trkpt lat="44.8481183" lon="9.47881"><ele>608.75</ele><time>2026-04-10T11:22:07.838Z</time></trkpt><trkpt lat="44.8481533" lon="9.479005"><ele>608.0</ele><time>2026-04-10T11:22:08.841Z</time></trkpt><trkpt lat="44.848185" lon="9.4791967"><ele>607.5</ele><time>2026-04-10T11:22:09.84Z</time></trkpt><trkpt lat="44.8482033" lon="9.47937"><ele>607.0</ele><time>2026-04-10T11:22:10.842Z</time></trkpt><trkpt lat="44.848195" lon="9.4795017"><ele>606.5</ele><time>2026-04-10T11:22:11.841Z</time></trkpt><trkpt lat="44.8481817" lon="9.4795933"><ele>606.0</ele><time>2026-04-10T11:22:12.841Z</time></trkpt><trkpt lat="44.8481833" lon="9.4797067"><ele>605.5</ele><time>2026-04-10T11:22:15.84Z</time></trkpt><trkpt lat="44.8481633" lon="9.4798117"><ele>605.0</ele><time>2026-04-10T11:22:19.84Z</time></trkpt><trkpt lat="44.8480917" lon="9.4798833"><ele>603.5</ele><time>2026-04-10T11:22:24.842Z</time></trkpt><trkpt lat="44.8481317" lon="9.4798033"><ele>602.0</ele><time>2026-04-10T11:22:33.84Z</time></trkpt><trkpt lat="44.8480617" lon="9.4798217"><ele>600.5</ele><time>2026-04-10T11:22:37.84Z</time></trkpt><trkpt lat="44.8479733" lon="9.4799517"><ele>599.0</ele><time>2026-04-10T11:22:39.839Z</time></trkpt><trkpt lat="44.8479217" lon="9.48005"><ele>597.5</ele><time>2026-04-10T11:22:40.845Z</time></trkpt><trkpt lat="44.8478933" lon="9.48016"><ele>596.0</ele><time>2026-04-10T11:22:41.839Z</time></trkpt><trkpt lat="44.8478983" lon="9.480275"><ele>596.0</ele><time>2026-04-10T11:22:42.839Z</time></trkpt><trkpt lat="44.8479567" lon="9.4803333"><ele>596.0</ele><time>2026-04-10T11:22:43.84Z</time></trkpt><trkpt lat="44.8480233" lon="9.4803633"><ele>596.0</ele><time>2026-04-10T11:22:44.84Z</time></trkpt><trkpt lat="44.8480967" lon="9.48036"><ele>596.0</ele><time>2026-04-10T11:22:45.842Z</time></trkpt><trkpt lat="44.848175" lon="9.4803367"><ele>596.0</ele><time>2026-04-10T11:22:46.839Z</time></trkpt><trkpt lat="44.84825" lon="9.4802967"><ele>596.0</ele><time>2026-04-10T11:22:47.843Z</time></trkpt><trkpt lat="44.8483167" lon="9.4802433"><ele>596.0</ele><time>2026-04-10T11:22:48.842Z</time></trkpt><trkpt lat="44.8483833" lon="9.4801833"><ele>596.0</ele><time>2026-04-10T11:22:49.842Z</time></trkpt><trkpt lat="44.8484567" lon="9.4801167"><ele>596.0</ele><time>2026-04-10T11:22:50.842Z</time></trkpt><trkpt lat="44.8485367" lon="9.4800383"><ele>596.0</ele><time>2026-04-10T11:22:51.843Z</time></trkpt><trkpt lat="44.84862" lon="9.479945"><ele>596.0</ele><time>2026-04-10T11:22:52.842Z</time></trkpt><trkpt lat="44.8487033" lon="9.4798383"><ele>594.0</ele><time>2026-04-10T11:22:53.844Z</time></trkpt><trkpt lat="44.8487867" lon="9.4797217"><ele>592.0</ele><time>2026-04-10T11:22:54.84Z</time></trkpt><trkpt lat="44.8488733" lon="9.4795967"><ele>590.0</ele><time>2026-04-10T11:22:55.841Z</time></trkpt><trkpt lat="44.8489567" lon="9.4794617"><ele>588.0</ele><time>2026-04-10T11:22:56.841Z</time></trkpt><trkpt lat="44.8490417" lon="9.4793183"><ele>588.0</ele><time>2026-04-10T11:22:57.839Z</time></trkpt><trkpt lat="44.8491317" lon="9.4791667"><ele>588.0</ele><time>2026-04-10T11:22:58.839Z</time></trkpt><trkpt lat="44.84922" lon="9.479025"><ele>588.0</ele><time>2026-04-10T11:22:59.84Z</time></trkpt><trkpt lat="44.8493" lon="9.4788817"><ele>588.0</ele><time>2026-04-10T11:23:00.841Z</time></trkpt><trkpt lat="44.849365" lon="9.4787267"><ele>584.5</ele><time>2026-04-10T11:23:01.841Z</time></trkpt><trkpt lat="44.8494133" lon="9.4785583"><ele>581.0</ele><time>2026-04-10T11:23:02.841Z</time></trkpt><trkpt lat="44.849455" lon="9.4783833"><ele>577.5</ele><time>2026-04-10T11:23:03.841Z</time></trkpt><trkpt lat="44.8494967" lon="9.4782217"><ele>574.0</ele><time>2026-04-10T11:23:04.84Z</time></trkpt><trkpt lat="44.8495567" lon="9.4780933"><ele>574.0</ele><time>2026-04-10T11:23:05.839Z</time></trkpt><trkpt lat="44.8496267" lon="9.47801"><ele>574.0</ele><time>2026-04-10T11:23:06.84Z</time></trkpt><trkpt lat="44.8497033" lon="9.4779567"><ele>574.0</ele><time>2026-04-10T11:23:07.844Z</time></trkpt><trkpt lat="44.8497767" lon="9.4779983"><ele>574.0</ele><time>2026-04-10T11:23:08.841Z</time></trkpt><trkpt lat="44.849835" lon="9.4781183"><ele>574.0</ele><time>2026-04-10T11:23:09.84Z</time></trkpt><trkpt lat="44.8498817" lon="9.478265"><ele>574.0</ele><time>2026-04-10T11:23:10.841Z</time></trkpt><trkpt lat="44.8499167" lon="9.47845"><ele>574.0</ele><time>2026-04-10T11:23:11.84Z</time></trkpt><trkpt lat="44.84995" lon="9.47865"><ele>574.0</ele><time>2026-04-10T11:23:12.839Z</time></trkpt><trkpt lat="44.8499817" lon="9.4788483"><ele>574.0</ele><time>2026-04-10T11:23:13.845Z</time></trkpt><trkpt lat="44.8499983" lon="9.4790417"><ele>573.5</ele><time>2026-04-10T11:23:14.841Z</time></trkpt><trkpt lat="44.8499783" lon="9.4792117"><ele>573.0</ele><time>2026-04-10T11:23:15.842Z</time></trkpt><trkpt lat="44.8499267" lon="9.4793683"><ele>572.5</ele><time>2026-04-10T11:23:16.84Z</time></trkpt><trkpt lat="44.8498583" lon="9.47951"><ele>572.0</ele><time>2026-04-10T11:23:17.842Z</time></trkpt><trkpt lat="44.8498067" lon="9.47964"><ele>569.8333333333333</ele><time>2026-04-10T11:23:18.844Z</time></trkpt><trkpt lat="44.8497767" lon="9.47977"><ele>567.6666666666666</ele><time>2026-04-10T11:23:19.84Z</time></trkpt><trkpt lat="44.8497833" lon="9.47989"><ele>565.5</ele><time>2026-04-10T11:23:20.841Z</time></trkpt><trkpt lat="44.84981" lon="9.4799883"><ele>563.3333333333334</ele><time>2026-04-10T11:23:21.842Z</time></trkpt><trkpt lat="44.8498517" lon="9.4801117"><ele>561.1666666666667</ele><time>2026-04-10T11:23:23.841Z</time></trkpt><trkpt lat="44.849845" lon="9.4802017"><ele>559.0</ele><time>2026-04-10T11:23:25.84Z</time></trkpt><trkpt lat="44.8497617" lon="9.4803583"><ele>556.4</ele><time>2026-04-10T11:23:27.84Z</time></trkpt><trkpt lat="44.8497067" lon="9.4804717"><ele>553.8</ele><time>2026-04-10T11:23:28.84Z</time></trkpt><trkpt lat="44.8496517" lon="9.48058"><ele>551.2</ele><time>2026-04-10T11:23:29.84Z</time></trkpt><trkpt lat="44.8495983" lon="9.4806767"><ele>548.6</ele><time>2026-04-10T11:23:30.84Z</time></trkpt><trkpt lat="44.849545" lon="9.4807467"><ele>546.0</ele><time>2026-04-10T11:23:31.839Z</time></trkpt><trkpt lat="44.849445" lon="9.4807883"><ele>546.0</ele><time>2026-04-10T11:23:33.842Z</time></trkpt><trkpt lat="44.8493767" lon="9.480805"><ele>546.0</ele><time>2026-04-10T11:23:34.84Z</time></trkpt><trkpt lat="44.8493017" lon="9.4808333"><ele>546.0</ele><time>2026-04-10T11:23:35.841Z</time></trkpt><trkpt lat="44.8492333" lon="9.4808783"><ele>546.0</ele><time>2026-04-10T11:23:36.84Z</time></trkpt><trkpt lat="44.8491817" lon="9.4809417"><ele>546.0</ele><time>2026-04-10T11:23:37.84Z</time></trkpt><trkpt lat="44.8491417" lon="9.4810267"><ele>546.0</ele><time>2026-04-10T11:23:38.842Z</time></trkpt><trkpt lat="44.8491067" lon="9.4811133"><ele>546.0</ele><time>2026-04-10T11:23:39.84Z</time></trkpt><trkpt lat="44.8490617" lon="9.4812033"><ele>547.0</ele><time>2026-04-10T11:23:40.842Z</time></trkpt><trkpt lat="44.849" lon="9.4812983"><ele>548.0</ele><time>2026-04-10T11:23:41.839Z</time></trkpt><trkpt lat="44.8489367" lon="9.4814033"><ele>549.0</ele><time>2026-04-10T11:23:42.84Z</time></trkpt><trkpt lat="44.8488817" lon="9.4815167"><ele>550.0</ele><time>2026-04-10T11:23:43.84Z</time></trkpt><trkpt lat="44.8488417" lon="9.4816367"><ele>551.0</ele><time>2026-04-10T11:23:44.841Z</time></trkpt><trkpt lat="44.8488083" lon="9.481765"><ele>551.0</ele><time>2026-04-10T11:23:45.84Z</time></trkpt><trkpt lat="44.8487845" lon="9.4818988"><ele>551.0</ele><time>2026-04-10T11:23:46.846Z</time></trkpt><trkpt lat="44.8487742" lon="9.4820277"><ele>551.0</ele><time>2026-04-10T11:23:47.841Z</time></trkpt><trkpt lat="44.8487759" lon="9.4821564"><ele>551.0</ele><time>2026-04-10T11:23:48.841Z</time></trkpt><trkpt lat="44.8487745" lon="9.482287"><ele>551.0</ele><time>2026-04-10T11:23:49.841Z</time></trkpt><trkpt lat="44.8487616" lon="9.482424"><ele>549.0</ele><time>2026-04-10T11:23:50.842Z</time></trkpt><trkpt lat="44.8487464" lon="9.482572"><ele>547.0</ele><time>2026-04-10T11:23:51.84Z</time></trkpt><trkpt lat="44.848728" lon="9.4827201"><ele>545.0</ele><time>2026-04-10T11:23:52.841Z</time></trkpt><trkpt lat="44.8487083" lon="9.4828618"><ele>543.0</ele><time>2026-04-10T11:23:53.84Z</time></trkpt><trkpt lat="44.8486841" lon="9.4830051"><ele>541.0</ele><time>2026-04-10T11:23:54.841Z</time></trkpt><trkpt lat="44.8486602" lon="9.4831528"><ele>540.6</ele><time>2026-04-10T11:23:55.84Z</time></trkpt><trkpt lat="44.8486379" lon="9.4833067"><ele>540.2</ele><time>2026-04-10T11:23:56.84Z</time></trkpt><trkpt lat="44.8486172" lon="9.4834512"><ele>539.8</ele><time>2026-04-10T11:23:57.841Z</time></trkpt><trkpt lat="44.8486038" lon="9.4835821"><ele>539.4</ele><time>2026-04-10T11:23:58.84Z</time></trkpt><trkpt lat="44.8486101" lon="9.4837147"><ele>539.0</ele><time>2026-04-10T11:23:59.841Z</time></trkpt><trkpt lat="44.8486394" lon="9.4838337"><ele>539.0</ele><time>2026-04-10T11:24:00.841Z</time></trkpt><trkpt lat="44.8486767" lon="9.4839285"><ele>539.0</ele><time>2026-04-10T11:24:01.84Z</time></trkpt><trkpt lat="44.8487108" lon="9.4840147"><ele>539.0</ele><time>2026-04-10T11:24:02.84Z</time></trkpt><trkpt lat="44.8487339" lon="9.4841014"><ele>539.0</ele><time>2026-04-10T11:24:03.84Z</time></trkpt><trkpt lat="44.848747" lon="9.4842014"><ele>539.0</ele><time>2026-04-10T11:24:04.842Z</time></trkpt><trkpt lat="44.8487683" lon="9.4843077"><ele>539.0</ele><time>2026-04-10T11:24:05.84Z</time></trkpt><trkpt lat="44.8487961" lon="9.4844246"><ele>539.0</ele><time>2026-04-10T11:24:06.84Z</time></trkpt><trkpt lat="44.8488356" lon="9.4845577"><ele>539.0</ele><time>2026-04-10T11:24:07.843Z</time></trkpt><trkpt lat="44.8488789" lon="9.4847112"><ele>539.0</ele><time>2026-04-10T11:24:08.842Z</time></trkpt><trkpt lat="44.848914" lon="9.4848693"><ele>539.0</ele><time>2026-04-10T11:24:09.839Z</time></trkpt><trkpt lat="44.8489467" lon="9.4850375"><ele>538.5</ele><time>2026-04-10T11:24:10.841Z</time></trkpt><trkpt lat="44.8489836" lon="9.4852159"><ele>538.0</ele><time>2026-04-10T11:24:11.84Z</time></trkpt><trkpt lat="44.8490236" lon="9.4853779"><ele>537.5</ele><time>2026-04-10T11:24:12.841Z</time></trkpt><trkpt lat="44.8490757" lon="9.485513"><ele>537.0</ele><time>2026-04-10T11:24:13.84Z</time></trkpt><trkpt lat="44.8491368" lon="9.4856216"><ele>537.0</ele><time>2026-04-10T11:24:14.842Z</time></trkpt><trkpt lat="44.8491839" lon="9.4857157"><ele>537.0</ele><time>2026-04-10T11:24:15.84Z</time></trkpt><trkpt lat="44.8492157" lon="9.4858058"><ele>537.0</ele><time>2026-04-10T11:24:16.84Z</time></trkpt><trkpt lat="44.8492415" lon="9.4859041"><ele>537.0</ele><time>2026-04-10T11:24:17.844Z</time></trkpt><trkpt lat="44.8492741" lon="9.4860141"><ele>537.0</ele><time>2026-04-10T11:24:18.841Z</time></trkpt><trkpt lat="44.8493195" lon="9.4861248"><ele>537.0</ele><time>2026-04-10T11:24:19.843Z</time></trkpt><trkpt lat="44.8493655" lon="9.4862216"><ele>535.6666666666666</ele><time>2026-04-10T11:24:20.843Z</time></trkpt><trkpt lat="44.849413" lon="9.4862979"><ele>534.3333333333334</ele><time>2026-04-10T11:24:21.842Z</time></trkpt><trkpt lat="44.8494787" lon="9.4864085"><ele>533.0</ele><time>2026-04-10T11:24:23.841Z</time></trkpt><trkpt lat="44.8494741" lon="9.4865152"><ele>531.6666666666667</ele><time>2026-04-10T11:24:25.84Z</time></trkpt><trkpt lat="44.8494983" lon="9.48661"><ele>530.3333333333334</ele><time>2026-04-10T11:24:27.839Z</time></trkpt><trkpt lat="44.8495987" lon="9.4867206"><ele>529.0</ele><time>2026-04-10T11:24:29.841Z</time></trkpt><trkpt lat="44.8496834" lon="9.486783"><ele>529.0</ele><time>2026-04-10T11:24:30.841Z</time></trkpt><trkpt lat="44.8497828" lon="9.4868477"><ele>529.0</ele><time>2026-04-10T11:24:31.843Z</time></trkpt><trkpt lat="44.8498806" lon="9.486897"><ele>529.0</ele><time>2026-04-10T11:24:32.84Z</time></trkpt><trkpt lat="44.8499739" lon="9.4869288"><ele>529.0</ele><time>2026-04-10T11:24:33.842Z</time></trkpt><trkpt lat="44.8500577" lon="9.4869411"><ele>529.0</ele><time>2026-04-10T11:24:34.839Z</time></trkpt><trkpt lat="44.8501278" lon="9.4869365"><ele>526.6</ele><time>2026-04-10T11:24:35.841Z</time></trkpt><trkpt lat="44.8501957" lon="9.4869284"><ele>524.2</ele><time>2026-04-10T11:24:36.844Z</time></trkpt><trkpt lat="44.8502597" lon="9.486922"><ele>521.8000000000001</ele><time>2026-04-10T11:24:37.84Z</time></trkpt><trkpt lat="44.850368" lon="9.4869122"><ele>519.4</ele><time>2026-04-10T11:24:39.841Z</time></trkpt><trkpt lat="44.8504609" lon="9.4868722"><ele>517.0</ele><time>2026-04-10T11:24:41.842Z</time></trkpt><trkpt lat="44.8505633" lon="9.4867751"><ele>517.0</ele><time>2026-04-10T11:24:43.84Z</time></trkpt><trkpt lat="44.8506479" lon="9.486699"><ele>517.0</ele><time>2026-04-10T11:24:45.838Z</time></trkpt><trkpt lat="44.8507082" lon="9.4867344"><ele>517.0</ele><time>2026-04-10T11:24:47.84Z</time></trkpt><trkpt lat="44.8507572" lon="9.4868701"><ele>517.0</ele><time>2026-04-10T11:24:49.841Z</time></trkpt><trkpt lat="44.85079" lon="9.4869817"><ele>517.0</ele><time>2026-04-10T11:24:50.842Z</time></trkpt><trkpt lat="44.8508317" lon="9.4870983"><ele>516.0</ele><time>2026-04-10T11:24:51.841Z</time></trkpt><trkpt lat="44.8508883" lon="9.4872483"><ele>515.0</ele><time>2026-04-10T11:24:52.841Z</time></trkpt><trkpt lat="44.8509533" lon="9.4874"><ele>514.0</ele><time>2026-04-10T11:24:53.841Z</time></trkpt><trkpt lat="44.8510167" lon="9.48755"><ele>513.0</ele><time>2026-04-10T11:24:54.841Z</time></trkpt><trkpt lat="44.8510717" lon="9.4876767"><ele>512.5</ele><time>2026-04-10T11:24:55.841Z</time></trkpt><trkpt lat="44.85112" lon="9.4877833"><ele>512.0</ele><time>2026-04-10T11:24:56.84Z</time></trkpt><trkpt lat="44.851165" lon="9.4878683"><ele>511.5</ele><time>2026-04-10T11:24:57.839Z</time></trkpt><trkpt lat="44.8512067" lon="9.4879383"><ele>511.0</ele><time>2026-04-10T11:24:58.84Z</time></trkpt><trkpt lat="44.8512633" lon="9.4880533"><ele>510.5</ele><time>2026-04-10T11:25:00.84Z</time></trkpt><trkpt lat="44.85128" lon="9.4881483"><ele>510.0</ele><time>2026-04-10T11:25:02.847Z</time></trkpt><trkpt lat="44.8512917" lon="9.4882733"><ele>510.0</ele><time>2026-04-10T11:25:05.839Z</time></trkpt><trkpt lat="44.8512683" lon="9.4881833"><ele>510.0</ele><time>2026-04-10T11:25:14.841Z</time></trkpt><trkpt lat="44.8511933" lon="9.48811"><ele>510.0</ele><time>2026-04-10T11:25:18.844Z</time></trkpt><trkpt lat="44.8510717" lon="9.48801"><ele>510.0</ele><time>2026-04-10T11:25:20.841Z</time></trkpt><trkpt lat="44.8509917" lon="9.4879467"><ele>510.0</ele><time>2026-04-10T11:25:21.844Z</time></trkpt><trkpt lat="44.8509017" lon="9.4878817"><ele>510.5</ele><time>2026-04-10T11:25:22.84Z</time></trkpt><trkpt lat="44.85081" lon="9.4878217"><ele>511.0</ele><time>2026-04-10T11:25:23.842Z</time></trkpt><trkpt lat="44.8507233" lon="9.4877667"><ele>511.5</ele><time>2026-04-10T11:25:24.84Z</time></trkpt><trkpt lat="44.8506383" lon="9.4877217"><ele>512.0</ele><time>2026-04-10T11:25:25.84Z</time></trkpt><trkpt lat="44.8505583" lon="9.487695"><ele>512.5</ele><time>2026-04-10T11:25:26.839Z</time></trkpt><trkpt lat="44.850485" lon="9.4876767"><ele>513.0</ele><time>2026-04-10T11:25:27.84Z</time></trkpt><trkpt lat="44.850415" lon="9.4876733"><ele>513.0</ele><time>2026-04-10T11:25:28.839Z</time></trkpt><trkpt lat="44.8503167" lon="9.4876917"><ele>513.0</ele><time>2026-04-10T11:25:30.84Z</time></trkpt><trkpt lat="44.8502083" lon="9.487705"><ele>513.0</ele><time>2026-04-10T11:25:32.84Z</time></trkpt><trkpt lat="44.850095" lon="9.48771"><ele>513.0</ele><time>2026-04-10T11:25:34.844Z</time></trkpt><trkpt lat="44.8500033" lon="9.4877117"><ele>513.0</ele><time>2026-04-10T11:25:36.839Z</time></trkpt><trkpt lat="44.8499333" lon="9.48772"><ele>513.4</ele><time>2026-04-10T11:25:38.839Z</time></trkpt><trkpt lat="44.8498533" lon="9.4877983"><ele>513.8</ele><time>2026-04-10T11:25:41.839Z</time></trkpt><trkpt lat="44.8497967" lon="9.48786"><ele>514.2</ele><time>2026-04-10T11:25:43.842Z</time></trkpt><trkpt lat="44.84972" lon="9.487885"><ele>514.6</ele><time>2026-04-10T11:25:45.838Z</time></trkpt><trkpt lat="44.8496033" lon="9.487875"><ele>515.0</ele><time>2026-04-10T11:25:47.842Z</time></trkpt><trkpt lat="44.84948" lon="9.4878367"><ele>515.0</ele><time>2026-04-10T11:25:49.842Z</time></trkpt><trkpt lat="44.8493767" lon="9.48783"><ele>515.0</ele><time>2026-04-10T11:25:51.84Z</time></trkpt><trkpt lat="44.8492683" lon="9.487815"><ele>515.0</ele><time>2026-04-10T11:25:53.84Z</time></trkpt><trkpt lat="44.8492017" lon="9.4877833"><ele>515.0</ele><time>2026-04-10T11:25:54.839Z</time></trkpt><trkpt lat="44.84913" lon="9.4877417"><ele>515.0</ele><time>2026-04-10T11:25:55.841Z</time></trkpt><trkpt lat="44.8490517" lon="9.4876933"><ele>515.0</ele><time>2026-04-10T11:25:56.84Z</time></trkpt><trkpt lat="44.848965" lon="9.4876417"><ele>513.6</ele><time>2026-04-10T11:25:57.839Z</time></trkpt><trkpt lat="44.8488783" lon="9.4875917"><ele>512.2</ele><time>2026-04-10T11:25:58.839Z</time></trkpt><trkpt lat="44.84879" lon="9.48756"><ele>510.79999999999995</ele><time>2026-04-10T11:25:59.84Z</time></trkpt><trkpt lat="44.8487" lon="9.4875433"><ele>509.4</ele><time>2026-04-10T11:26:00.839Z</time></trkpt><trkpt lat="44.8486067" lon="9.48754"><ele>508.0</ele><time>2026-04-10T11:26:01.838Z</time></trkpt><trkpt lat="44.8485133" lon="9.48754"><ele>508.00000000000006</ele><time>2026-04-10T11:26:02.844Z</time></trkpt><trkpt lat="44.8484133" lon="9.487535"><ele>508.0</ele><time>2026-04-10T11:26:03.84Z</time></trkpt><trkpt lat="44.8483167" lon="9.4875217"><ele>508.0</ele><time>2026-04-10T11:26:04.839Z</time></trkpt><trkpt lat="44.8482233" lon="9.4875117"><ele>508.0</ele><time>2026-04-10T11:26:05.839Z</time></trkpt><trkpt lat="44.848145" lon="9.4875033"><ele>508.00000000000006</ele><time>2026-04-10T11:26:06.841Z</time></trkpt><trkpt lat="44.8480817" lon="9.4874883"><ele>508.0</ele><time>2026-04-10T11:26:07.841Z</time></trkpt><trkpt lat="44.848005" lon="9.48741"><ele>508.0</ele><time>2026-04-10T11:26:09.84Z</time></trkpt><trkpt lat="44.8479717" lon="9.4873133"><ele>507.99999999999994</ele><time>2026-04-10T11:26:11.84Z</time></trkpt><trkpt lat="44.8478967" lon="9.4873233"><ele>507.99999999999994</ele><time>2026-04-10T11:26:14.84Z</time></trkpt><trkpt lat="44.8478467" lon="9.4874233"><ele>508.0</ele><time>2026-04-10T11:26:16.839Z</time></trkpt><trkpt lat="44.847785" lon="9.4875333"><ele>508.0</ele><time>2026-04-10T11:26:18.84Z</time></trkpt><trkpt lat="44.8476983" lon="9.487665"><ele>508.00000000000006</ele><time>2026-04-10T11:26:20.843Z</time></trkpt><trkpt lat="44.8476467" lon="9.4877417"><ele>508.0</ele><time>2026-04-10T11:26:21.842Z</time></trkpt><trkpt lat="44.8475983" lon="9.48781"><ele>508.0</ele><time>2026-04-10T11:26:22.84Z</time></trkpt><trkpt lat="44.8475383" lon="9.4879383"><ele>508.0</ele><time>2026-04-10T11:26:24.84Z</time></trkpt><trkpt lat="44.847555" lon="9.488085"><ele>508.00000000000006</ele><time>2026-04-10T11:26:26.841Z</time></trkpt><trkpt lat="44.8475867" lon="9.4881683"><ele>508.0</ele><time>2026-04-10T11:26:27.84Z</time></trkpt><trkpt lat="44.8476267" lon="9.4882567"><ele>506.1666666666667</ele><time>2026-04-10T11:26:28.841Z</time></trkpt><trkpt lat="44.8476567" lon="9.48835"><ele>504.33333333333337</ele><time>2026-04-10T11:26:29.839Z</time></trkpt><trkpt lat="44.8476758" lon="9.4884405"><ele>502.5</ele><time>2026-04-10T11:26:30.84Z</time></trkpt><trkpt lat="44.8476901" lon="9.488603"><ele>500.66666666666663</ele><time>2026-04-10T11:26:32.839Z</time></trkpt><trkpt lat="44.847709" lon="9.4887182"><ele>498.8333333333333</ele><time>2026-04-10T11:26:34.839Z</time></trkpt><trkpt lat="44.8477351" lon="9.4888141"><ele>497.0</ele><time>2026-04-10T11:26:36.839Z</time></trkpt><trkpt lat="44.8478117" lon="9.4888702"><ele>496.99999999999994</ele><time>2026-04-10T11:26:39.842Z</time></trkpt><trkpt lat="44.8478738" lon="9.4888129"><ele>497.0</ele><time>2026-04-10T11:26:41.842Z</time></trkpt><trkpt lat="44.8479222" lon="9.4886825"><ele>497.0</ele><time>2026-04-10T11:26:43.839Z</time></trkpt><trkpt lat="44.8479508" lon="9.4885967"><ele>497.0</ele><time>2026-04-10T11:26:44.841Z</time></trkpt><trkpt lat="44.8479872" lon="9.4885103"><ele>496.99999999999994</ele><time>2026-04-10T11:26:45.839Z</time></trkpt><trkpt lat="44.8480418" lon="9.4884401"><ele>497.0</ele><time>2026-04-10T11:26:46.84Z</time></trkpt><trkpt lat="44.8481048" lon="9.488383"><ele>496.99999999999994</ele><time>2026-04-10T11:26:47.84Z</time></trkpt><trkpt lat="44.8481647" lon="9.4883464"><ele>497.0</ele><time>2026-04-10T11:26:48.839Z</time></trkpt><trkpt lat="44.8482275" lon="9.4883396"><ele>497.0</ele><time>2026-04-10T11:26:49.839Z</time></trkpt><trkpt lat="44.8482926" lon="9.4883661"><ele>497.0</ele><time>2026-04-10T11:26:50.841Z</time></trkpt><trkpt lat="44.8483651" lon="9.4884216"><ele>496.99999999999994</ele><time>2026-04-10T11:26:51.843Z</time></trkpt><trkpt lat="44.8484391" lon="9.4884887"><ele>497.0</ele><time>2026-04-10T11:26:52.839Z</time></trkpt><trkpt lat="44.8485184" lon="9.4885609"><ele>495.8</ele><time>2026-04-10T11:26:53.84Z</time></trkpt><trkpt lat="44.8486044" lon="9.4886397"><ele>494.6</ele><time>2026-04-10T11:26:54.839Z</time></trkpt><trkpt lat="44.848696" lon="9.4887244"><ele>493.40000000000003</ele><time>2026-04-10T11:26:55.838Z</time></trkpt><trkpt lat="44.848793" lon="9.4888123"><ele>492.20000000000005</ele><time>2026-04-10T11:26:56.847Z</time></trkpt><trkpt lat="44.848891" lon="9.4888966"><ele>491.0</ele><time>2026-04-10T11:26:57.839Z</time></trkpt><trkpt lat="44.8489915" lon="9.4889739"><ele>489.4</ele><time>2026-04-10T11:26:58.841Z</time></trkpt><trkpt lat="44.8490941" lon="9.4890432"><ele>487.8</ele><time>2026-04-10T11:26:59.842Z</time></trkpt><trkpt lat="44.849194" lon="9.489108"><ele>486.19999999999993</ele><time>2026-04-10T11:27:00.841Z</time></trkpt><trkpt lat="44.8492852" lon="9.489164"><ele>484.59999999999997</ele><time>2026-04-10T11:27:01.841Z</time></trkpt><trkpt lat="44.8493671" lon="9.4892166"><ele>483.0</ele><time>2026-04-10T11:27:02.841Z</time></trkpt><trkpt lat="44.8494434" lon="9.4892712"><ele>483.0</ele><time>2026-04-10T11:27:03.846Z</time></trkpt><trkpt lat="44.849509" lon="9.4893188"><ele>483.0</ele><time>2026-04-10T11:27:04.841Z</time></trkpt><trkpt lat="44.8495754" lon="9.4894236"><ele>483.0</ele><time>2026-04-10T11:27:06.842Z</time></trkpt><trkpt lat="44.84955" lon="9.4895372"><ele>483.0</ele><time>2026-04-10T11:27:08.842Z</time></trkpt><trkpt lat="44.8494534" lon="9.4896212"><ele>483.0</ele><time>2026-04-10T11:27:10.842Z</time></trkpt><trkpt lat="44.8493893" lon="9.4896634"><ele>483.0</ele><time>2026-04-10T11:27:11.842Z</time></trkpt><trkpt lat="44.849334" lon="9.4897168"><ele>480.79999999999995</ele><time>2026-04-10T11:27:12.846Z</time></trkpt><trkpt lat="44.849284" lon="9.48985"><ele>478.59999999999997</ele><time>2026-04-10T11:27:14.843Z</time></trkpt><trkpt lat="44.84933" lon="9.4899778"><ele>476.40000000000003</ele><time>2026-04-10T11:27:16.838Z</time></trkpt><trkpt lat="44.8494094" lon="9.4900665"><ele>474.20000000000005</ele><time>2026-04-10T11:27:18.841Z</time></trkpt><trkpt lat="44.8495036" lon="9.4901269"><ele>472.0</ele><time>2026-04-10T11:27:55.843Z</time></trkpt><trkpt lat="44.8495944" lon="9.490179"><ele>471.1428571428571</ele><time>2026-04-10T11:27:57.841Z</time></trkpt><trkpt lat="44.8496531" lon="9.490213"><ele>470.28571428571433</ele><time>2026-04-10T11:27:58.84Z</time></trkpt><trkpt lat="44.8497236" lon="9.4902323"><ele>469.42857142857144</ele><time>2026-04-10T11:27:59.842Z</time></trkpt><trkpt lat="44.8497987" lon="9.490241"><ele>468.57142857142856</ele><time>2026-04-10T11:28:00.84Z</time></trkpt><trkpt lat="44.8498694" lon="9.4902499"><ele>467.71428571428567</ele><time>2026-04-10T11:28:01.838Z</time></trkpt><trkpt lat="44.8499416" lon="9.4902624"><ele>466.8571428571429</ele><time>2026-04-10T11:28:02.844Z</time></trkpt><trkpt lat="44.8500228" lon="9.4902676"><ele>466.0</ele><time>2026-04-10T11:28:03.839Z</time></trkpt><trkpt lat="44.8501108" lon="9.4902725"><ele>466.6</ele><time>2026-04-10T11:28:04.84Z</time></trkpt><trkpt lat="44.8502019" lon="9.4902846"><ele>467.20000000000005</ele><time>2026-04-10T11:28:05.839Z</time></trkpt><trkpt lat="44.8502938" lon="9.4903013"><ele>467.79999999999995</ele><time>2026-04-10T11:28:06.84Z</time></trkpt><trkpt lat="44.8503819" lon="9.490321"><ele>468.4</ele><time>2026-04-10T11:28:07.841Z</time></trkpt><trkpt lat="44.8504757" lon="9.490341"><ele>469.0</ele><time>2026-04-10T11:28:08.84Z</time></trkpt><trkpt lat="44.8505671" lon="9.4903621"><ele>469.00000000000006</ele><time>2026-04-10T11:28:09.842Z</time></trkpt><trkpt lat="44.8506572" lon="9.490384"><ele>469.0</ele><time>2026-04-10T11:28:10.839Z</time></trkpt><trkpt lat="44.8507438" lon="9.4904075"><ele>469.0</ele><time>2026-04-10T11:28:11.842Z</time></trkpt><trkpt lat="44.8508291" lon="9.4904409"><ele>469.0</ele><time>2026-04-10T11:28:12.842Z</time></trkpt><trkpt lat="44.8509057" lon="9.4904926"><ele>469.00000000000006</ele><time>2026-04-10T11:28:13.843Z</time></trkpt><trkpt lat="44.8509768" lon="9.4905556"><ele>469.0</ele><time>2026-04-10T11:28:14.841Z</time></trkpt><trkpt lat="44.8510445" lon="9.4906171"><ele>464.1666666666667</ele><time>2026-04-10T11:28:15.841Z</time></trkpt><trkpt lat="44.851116" lon="9.4906832"><ele>459.33333333333337</ele><time>2026-04-10T11:28:16.84Z</time></trkpt><trkpt lat="44.8511911" lon="9.4907666"><ele>454.5</ele><time>2026-04-10T11:28:17.84Z</time></trkpt><trkpt lat="44.8512708" lon="9.4908559"><ele>449.66666666666663</ele><time>2026-04-10T11:28:18.84Z</time></trkpt><trkpt lat="44.8513378" lon="9.4909348"><ele>444.8333333333333</ele><time>2026-04-10T11:28:19.839Z</time></trkpt><trkpt lat="44.8513919" lon="9.4909988"><ele>440.0</ele><time>2026-04-10T11:28:20.84Z</time></trkpt><trkpt lat="44.8514966" lon="9.4910957"><ele>439.99999999999994</ele><time>2026-04-10T11:28:22.839Z</time></trkpt><trkpt lat="44.8515558" lon="9.4911349"><ele>440.0</ele><time>2026-04-10T11:28:23.842Z</time></trkpt><trkpt lat="44.8516176" lon="9.4911752"><ele>440.0</ele><time>2026-04-10T11:28:24.842Z</time></trkpt><trkpt lat="44.8516774" lon="9.49123"><ele>440.0</ele><time>2026-04-10T11:28:25.846Z</time></trkpt><trkpt lat="44.851738" lon="9.4912951"><ele>440.0</ele><time>2026-04-10T11:28:26.841Z</time></trkpt><trkpt lat="44.8517983" lon="9.4913711"><ele>439.99999999999994</ele><time>2026-04-10T11:28:27.841Z</time></trkpt><trkpt lat="44.8518581" lon="9.4914444"><ele>440.0</ele><time>2026-04-10T11:28:28.839Z</time></trkpt><trkpt lat="44.8519161" lon="9.491516"><ele>437.4</ele><time>2026-04-10T11:28:29.84Z</time></trkpt><trkpt lat="44.8519784" lon="9.4915917"><ele>434.8</ele><time>2026-04-10T11:28:30.84Z</time></trkpt><trkpt lat="44.8520528" lon="9.4916676"><ele>432.20000000000005</ele><time>2026-04-10T11:28:31.84Z</time></trkpt><trkpt lat="44.8521363" lon="9.4917365"><ele>429.6</ele><time>2026-04-10T11:28:32.841Z</time></trkpt><trkpt lat="44.8522249" lon="9.4917999"><ele>427.0</ele><time>2026-04-10T11:28:33.84Z</time></trkpt><trkpt lat="44.8523132" lon="9.4918661"><ele>427.0</ele><time>2026-04-10T11:28:34.841Z</time></trkpt><trkpt lat="44.852399" lon="9.4919369"><ele>427.00000000000006</ele><time>2026-04-10T11:28:35.839Z</time></trkpt><trkpt lat="44.8524807" lon="9.492009"><ele>427.00000000000006</ele><time>2026-04-10T11:28:36.839Z</time></trkpt><trkpt lat="44.8525579" lon="9.4920869"><ele>427.0</ele><time>2026-04-10T11:28:37.84Z</time></trkpt><trkpt lat="44.8526259" lon="9.4921692"><ele>427.0</ele><time>2026-04-10T11:28:38.84Z</time></trkpt><trkpt lat="44.8526939" lon="9.4922528"><ele>424.00000000000006</ele><time>2026-04-10T11:28:39.839Z</time></trkpt><trkpt lat="44.852762" lon="9.4923298"><ele>421.0</ele><time>2026-04-10T11:28:40.839Z</time></trkpt><trkpt lat="44.8528247" lon="9.4924066"><ele>418.0</ele><time>2026-04-10T11:28:41.841Z</time></trkpt><trkpt lat="44.8528696" lon="9.4924921"><ele>415.0</ele><time>2026-04-10T11:28:42.842Z</time></trkpt><trkpt lat="44.8529015" lon="9.4925806"><ele>412.00000000000006</ele><time>2026-04-10T11:28:43.84Z</time></trkpt><trkpt lat="44.8529117" lon="9.492682"><ele>409.0</ele><time>2026-04-10T11:28:44.841Z</time></trkpt><trkpt lat="44.8528942" lon="9.4927963"><ele>409.0</ele><time>2026-04-10T11:28:45.839Z</time></trkpt><trkpt lat="44.8528545" lon="9.4929223"><ele>409.0</ele><time>2026-04-10T11:28:46.841Z</time></trkpt><trkpt lat="44.8528115" lon="9.4930527"><ele>409.0</ele><time>2026-04-10T11:28:47.842Z</time></trkpt><trkpt lat="44.8527812" lon="9.4931825"><ele>409.0</ele><time>2026-04-10T11:28:48.841Z</time></trkpt><trkpt lat="44.8527731" lon="9.4933208"><ele>409.0</ele><time>2026-04-10T11:28:49.84Z</time></trkpt><trkpt lat="44.8527797" lon="9.4934796"><ele>405.75</ele><time>2026-04-10T11:28:50.842Z</time></trkpt><trkpt lat="44.8527889" lon="9.4936606"><ele>402.5</ele><time>2026-04-10T11:28:51.84Z</time></trkpt><trkpt lat="44.8528015" lon="9.4938532"><ele>399.25</ele><time>2026-04-10T11:28:52.842Z</time></trkpt><trkpt lat="44.8528257" lon="9.49404"><ele>396.0</ele><time>2026-04-10T11:28:53.841Z</time></trkpt><trkpt lat="44.8528655" lon="9.4942109"><ele>395.0</ele><time>2026-04-10T11:28:54.841Z</time></trkpt><trkpt lat="44.8529118" lon="9.4943601"><ele>394.0</ele><time>2026-04-10T11:28:55.84Z</time></trkpt><trkpt lat="44.8529614" lon="9.4944965"><ele>393.0</ele><time>2026-04-10T11:28:56.841Z</time></trkpt><trkpt lat="44.853009" lon="9.4946262"><ele>392.0</ele><time>2026-04-10T11:28:57.841Z</time></trkpt><trkpt lat="44.8530514" lon="9.4947481"><ele>391.0</ele><time>2026-04-10T11:28:58.84Z</time></trkpt><trkpt lat="44.8530935" lon="9.494859"><ele>390.83333333333337</ele><time>2026-04-10T11:28:59.841Z</time></trkpt><trkpt lat="44.8531375" lon="9.494958"><ele>390.6666666666667</ele><time>2026-04-10T11:29:00.84Z</time></trkpt><trkpt lat="44.8531852" lon="9.4950456"><ele>390.5</ele><time>2026-04-10T11:29:01.84Z</time></trkpt><trkpt lat="44.8532381" lon="9.4951247"><ele>390.33333333333337</ele><time>2026-04-10T11:29:02.841Z</time></trkpt><trkpt lat="44.8532971" lon="9.4951886"><ele>390.1666666666667</ele><time>2026-04-10T11:29:03.84Z</time></trkpt><trkpt lat="44.8533671" lon="9.4952463"><ele>390.0</ele><time>2026-04-10T11:29:04.839Z</time></trkpt><trkpt lat="44.8534416" lon="9.4953084"><ele>387.8333333333333</ele><time>2026-04-10T11:29:05.844Z</time></trkpt><trkpt lat="44.8535146" lon="9.4953778"><ele>385.6666666666667</ele><time>2026-04-10T11:29:06.843Z</time></trkpt><trkpt lat="44.8535825" lon="9.4954493"><ele>383.5</ele><time>2026-04-10T11:29:07.841Z</time></trkpt><trkpt lat="44.8536524" lon="9.4955269"><ele>381.33333333333337</ele><time>2026-04-10T11:29:08.841Z</time></trkpt><trkpt lat="44.8537302" lon="9.4956041"><ele>379.1666666666667</ele><time>2026-04-10T11:29:09.84Z</time></trkpt><trkpt lat="44.8538016" lon="9.495672"><ele>377.0</ele><time>2026-04-10T11:29:10.841Z</time></trkpt><trkpt lat="44.8538766" lon="9.4957353"><ele>377.0</ele><time>2026-04-10T11:29:11.841Z</time></trkpt><trkpt lat="44.8539615" lon="9.4957848"><ele>377.0</ele><time>2026-04-10T11:29:12.839Z</time></trkpt><trkpt lat="44.8540613" lon="9.4958201"><ele>377.0</ele><time>2026-04-10T11:29:13.841Z</time></trkpt><trkpt lat="44.8541615" lon="9.4958543"><ele>377.0</ele><time>2026-04-10T11:29:14.84Z</time></trkpt><trkpt lat="44.8542582" lon="9.4958903"><ele>377.0</ele><time>2026-04-10T11:29:15.84Z</time></trkpt><trkpt lat="44.8543491" lon="9.4959311"><ele>375.0</ele><time>2026-04-10T11:29:16.839Z</time></trkpt><trkpt lat="44.8544318" lon="9.4959754"><ele>373.0</ele><time>2026-04-10T11:29:17.841Z</time></trkpt><trkpt lat="44.8545003" lon="9.4960224"><ele>371.0</ele><time>2026-04-10T11:29:18.842Z</time></trkpt><trkpt lat="44.8545573" lon="9.496077"><ele>369.0</ele><time>2026-04-10T11:29:19.839Z</time></trkpt><trkpt lat="44.8546045" lon="9.4961551"><ele>367.0</ele><time>2026-04-10T11:29:20.845Z</time></trkpt><trkpt lat="44.8546371" lon="9.4962665"><ele>365.0</ele><time>2026-04-10T11:29:21.841Z</time></trkpt><trkpt lat="44.8546553" lon="9.4963946"><ele>363.75</ele><time>2026-04-10T11:29:22.84Z</time></trkpt><trkpt lat="44.8546557" lon="9.4965327"><ele>362.5</ele><time>2026-04-10T11:29:23.84Z</time></trkpt><trkpt lat="44.8546384" lon="9.4966916"><ele>361.25</ele><time>2026-04-10T11:29:24.841Z</time></trkpt><trkpt lat="44.8546117" lon="9.4968609"><ele>360.0</ele><time>2026-04-10T11:29:25.839Z</time></trkpt><trkpt lat="44.8545882" lon="9.497022"><ele>359.5</ele><time>2026-04-10T11:29:26.84Z</time></trkpt><trkpt lat="44.8545869" lon="9.4971731"><ele>359.0</ele><time>2026-04-10T11:29:27.839Z</time></trkpt><trkpt lat="44.8546116" lon="9.4973329"><ele>358.5</ele><time>2026-04-10T11:29:28.842Z</time></trkpt><trkpt lat="44.8546497" lon="9.4974988"><ele>358.0</ele><time>2026-04-10T11:29:29.843Z</time></trkpt><trkpt lat="44.8546888" lon="9.4976638"><ele>358.0</ele><time>2026-04-10T11:29:30.84Z</time></trkpt><trkpt lat="44.8547311" lon="9.4978185"><ele>358.0</ele><time>2026-04-10T11:29:31.841Z</time></trkpt><trkpt lat="44.8547707" lon="9.4979522"><ele>358.0</ele><time>2026-04-10T11:29:32.84Z</time></trkpt><trkpt lat="44.8548195" lon="9.4980742"><ele>358.0</ele><time>2026-04-10T11:29:33.839Z</time></trkpt><trkpt lat="44.8548757" lon="9.4981978"><ele>358.0</ele><time>2026-04-10T11:29:34.843Z</time></trkpt><trkpt lat="44.8549289" lon="9.4983317"><ele>356.4</ele><time>2026-04-10T11:29:35.84Z</time></trkpt><trkpt lat="44.8549687" lon="9.498484"><ele>354.79999999999995</ele><time>2026-04-10T11:29:36.84Z</time></trkpt><trkpt lat="44.8549948" lon="9.4986416"><ele>353.2</ele><time>2026-04-10T11:29:37.841Z</time></trkpt><trkpt lat="44.8550069" lon="9.4987689"><ele>351.6</ele><time>2026-04-10T11:29:38.84Z</time></trkpt><trkpt lat="44.8550084" lon="9.4988676"><ele>350.0</ele><time>2026-04-10T11:29:39.84Z</time></trkpt><trkpt lat="44.8549848" lon="9.4989518"><ele>348.6</ele><time>2026-04-10T11:29:40.84Z</time></trkpt><trkpt lat="44.8549256" lon="9.4990239"><ele>347.2</ele><time>2026-04-10T11:29:41.843Z</time></trkpt><trkpt lat="44.8548503" lon="9.4990851"><ele>345.79999999999995</ele><time>2026-04-10T11:29:42.839Z</time></trkpt><trkpt lat="44.8547295" lon="9.4991073"><ele>344.4</ele><time>2026-04-10T11:29:43.839Z</time></trkpt><trkpt lat="44.8545997" lon="9.4991187"><ele>343.0</ele><time>2026-04-10T11:29:44.842Z</time></trkpt><trkpt lat="44.8544738" lon="9.4991175"><ele>343.0</ele><time>2026-04-10T11:29:45.84Z</time></trkpt><trkpt lat="44.8543573" lon="9.4991004"><ele>343.0</ele><time>2026-04-10T11:29:46.841Z</time></trkpt><trkpt lat="44.854246" lon="9.4990642"><ele>343.0</ele><time>2026-04-10T11:29:47.841Z</time></trkpt><trkpt lat="44.8541263" lon="9.4990126"><ele>343.0</ele><time>2026-04-10T11:29:48.841Z</time></trkpt><trkpt lat="44.8540027" lon="9.4989539"><ele>343.25</ele><time>2026-04-10T11:29:49.841Z</time></trkpt><trkpt lat="44.8538829" lon="9.498893"><ele>343.5</ele><time>2026-04-10T11:29:50.842Z</time></trkpt><trkpt lat="44.8537744" lon="9.4988344"><ele>343.75</ele><time>2026-04-10T11:29:51.843Z</time></trkpt><trkpt lat="44.8536766" lon="9.4987678"><ele>344.0</ele><time>2026-04-10T11:29:52.84Z</time></trkpt><trkpt lat="44.853585" lon="9.4986986"><ele>343.75</ele><time>2026-04-10T11:29:53.841Z</time></trkpt><trkpt lat="44.8534909" lon="9.4986279"><ele>343.5</ele><time>2026-04-10T11:29:54.84Z</time></trkpt><trkpt lat="44.8533864" lon="9.4985481"><ele>343.25</ele><time>2026-04-10T11:29:55.842Z</time></trkpt><trkpt lat="44.8532816" lon="9.4984728"><ele>343.0</ele><time>2026-04-10T11:29:56.84Z</time></trkpt><trkpt lat="44.853168" lon="9.4984107"><ele>343.0</ele><time>2026-04-10T11:29:57.84Z</time></trkpt><trkpt lat="44.8530438" lon="9.4983716"><ele>343.0</ele><time>2026-04-10T11:29:58.842Z</time></trkpt><trkpt lat="44.8529103" lon="9.4983481"><ele>343.0</ele><time>2026-04-10T11:29:59.841Z</time></trkpt><trkpt lat="44.8527816" lon="9.4983437"><ele>343.0</ele><time>2026-04-10T11:30:00.843Z</time></trkpt><trkpt lat="44.8526626" lon="9.4983682"><ele>342.0</ele><time>2026-04-10T11:30:01.841Z</time></trkpt><trkpt lat="44.8525538" lon="9.4984263"><ele>341.0</ele><time>2026-04-10T11:30:02.84Z</time></trkpt><trkpt lat="44.8524535" lon="9.4985116"><ele>340.0</ele><time>2026-04-10T11:30:03.841Z</time></trkpt><trkpt lat="44.8523589" lon="9.4986094"><ele>339.0</ele><time>2026-04-10T11:30:04.84Z</time></trkpt><trkpt lat="44.8522597" lon="9.498706"><ele>337.0</ele><time>2026-04-10T11:30:05.841Z</time></trkpt><trkpt lat="44.8521574" lon="9.4988004"><ele>335.0</ele><time>2026-04-10T11:30:06.841Z</time></trkpt><trkpt lat="44.8520577" lon="9.4989019"><ele>333.0</ele><time>2026-04-10T11:30:07.845Z</time></trkpt><trkpt lat="44.8519656" lon="9.4990092"><ele>331.0</ele><time>2026-04-10T11:30:08.839Z</time></trkpt><trkpt lat="44.8518856" lon="9.4991204"><ele>331.0</ele><time>2026-04-10T11:30:09.84Z</time></trkpt><trkpt lat="44.8518149" lon="9.4992346"><ele>331.0</ele><time>2026-04-10T11:30:10.839Z</time></trkpt><trkpt lat="44.8517581" lon="9.4993579"><ele>331.0</ele><time>2026-04-10T11:30:11.839Z</time></trkpt><trkpt lat="44.851724" lon="9.4994902"><ele>331.0</ele><time>2026-04-10T11:30:12.84Z</time></trkpt><trkpt lat="44.8517189" lon="9.4996375"><ele>331.0</ele><time>2026-04-10T11:30:13.839Z</time></trkpt><trkpt lat="44.8517271" lon="9.4998038"><ele>331.5</ele><time>2026-04-10T11:30:14.839Z</time></trkpt><trkpt lat="44.8517254" lon="9.4999795"><ele>332.0</ele><time>2026-04-10T11:30:15.838Z</time></trkpt><trkpt lat="44.8517198" lon="9.5001554"><ele>332.5</ele><time>2026-04-10T11:30:16.839Z</time></trkpt><trkpt lat="44.8517122" lon="9.5003296"><ele>333.0</ele><time>2026-04-10T11:30:17.841Z</time></trkpt><trkpt lat="44.8517003" lon="9.5004988"><ele>333.0</ele><time>2026-04-10T11:30:18.838Z</time></trkpt><trkpt lat="44.8516784" lon="9.5006685"><ele>333.0</ele><time>2026-04-10T11:30:19.842Z</time></trkpt><trkpt lat="44.8516509" lon="9.5008425"><ele>333.0</ele><time>2026-04-10T11:30:20.84Z</time></trkpt><trkpt lat="44.8516228" lon="9.5010187"><ele>333.0</ele><time>2026-04-10T11:30:21.839Z</time></trkpt><trkpt lat="44.8516063" lon="9.5011928"><ele>333.59999999999997</ele><time>2026-04-10T11:30:22.839Z</time></trkpt><trkpt lat="44.851608" lon="9.5013636"><ele>334.2</ele><time>2026-04-10T11:30:23.84Z</time></trkpt><trkpt lat="44.8516157" lon="9.5015264"><ele>334.8</ele><time>2026-04-10T11:30:24.84Z</time></trkpt><trkpt lat="44.8516205" lon="9.501673"><ele>335.4</ele><time>2026-04-10T11:30:25.838Z</time></trkpt><trkpt lat="44.8516429" lon="9.5018019"><ele>336.0</ele><time>2026-04-10T11:30:26.839Z</time></trkpt><trkpt lat="44.8516847" lon="9.5019178"><ele>336.0</ele><time>2026-04-10T11:30:27.839Z</time></trkpt><trkpt lat="44.8517309" lon="9.5020413"><ele>336.0</ele><time>2026-04-10T11:30:28.84Z</time></trkpt><trkpt lat="44.8517689" lon="9.5021773"><ele>336.0</ele><time>2026-04-10T11:30:29.839Z</time></trkpt><trkpt lat="44.8518022" lon="9.50232"><ele>336.0</ele><time>2026-04-10T11:30:30.846Z</time></trkpt><trkpt lat="44.851831" lon="9.5024501"><ele>336.0</ele><time>2026-04-10T11:30:31.84Z</time></trkpt><trkpt lat="44.8518488" lon="9.5025687"><ele>335.0</ele><time>2026-04-10T11:30:32.842Z</time></trkpt><trkpt lat="44.851851" lon="9.502683"><ele>334.0</ele><time>2026-04-10T11:30:33.84Z</time></trkpt><trkpt lat="44.8518423" lon="9.5027947"><ele>333.0</ele><time>2026-04-10T11:30:34.839Z</time></trkpt><trkpt lat="44.8518253" lon="9.5029029"><ele>332.0</ele><time>2026-04-10T11:30:35.839Z</time></trkpt><trkpt lat="44.8517989" lon="9.5030093"><ele>331.0</ele><time>2026-04-10T11:30:36.84Z</time></trkpt><trkpt lat="44.8517678" lon="9.5031177"><ele>330.0</ele><time>2026-04-10T11:30:37.841Z</time></trkpt><trkpt lat="44.8517347" lon="9.5032277"><ele>331.6666666666667</ele><time>2026-04-10T11:30:38.84Z</time></trkpt><trkpt lat="44.8516996" lon="9.5033392"><ele>333.3333333333333</ele><time>2026-04-10T11:30:39.841Z</time></trkpt><trkpt lat="44.8516638" lon="9.5034448"><ele>335.0</ele><time>2026-04-10T11:30:40.84Z</time></trkpt><trkpt lat="44.8516272" lon="9.5035423"><ele>336.66666666666663</ele><time>2026-04-10T11:30:41.839Z</time></trkpt><trkpt lat="44.8515922" lon="9.5036426"><ele>338.3333333333333</ele><time>2026-04-10T11:30:42.843Z</time></trkpt><trkpt lat="44.8515617" lon="9.5037494"><ele>340.0</ele><time>2026-04-10T11:30:43.838Z</time></trkpt><trkpt lat="44.8515344" lon="9.5038593"><ele>340.0</ele><time>2026-04-10T11:30:44.84Z</time></trkpt><trkpt lat="44.851508" lon="9.5039638"><ele>340.0</ele><time>2026-04-10T11:30:45.84Z</time></trkpt><trkpt lat="44.8514804" lon="9.5040615"><ele>340.0</ele><time>2026-04-10T11:30:46.839Z</time></trkpt><trkpt lat="44.8514454" lon="9.5041417"><ele>340.0</ele><time>2026-04-10T11:30:47.841Z</time></trkpt><trkpt lat="44.8513295" lon="9.5042261"><ele>340.0</ele><time>2026-04-10T11:30:49.841Z</time></trkpt><trkpt lat="44.8512399" lon="9.5042408"><ele>340.0</ele><time>2026-04-10T11:30:50.84Z</time></trkpt><trkpt lat="44.8511399" lon="9.5042677"><ele>340.0</ele><time>2026-04-10T11:30:51.841Z</time></trkpt><trkpt lat="44.8510307" lon="9.5043215"><ele>340.0</ele><time>2026-04-10T11:30:52.84Z</time></trkpt><trkpt lat="44.8509204" lon="9.5043973"><ele>340.0</ele><time>2026-04-10T11:30:53.844Z</time></trkpt><trkpt lat="44.8508221" lon="9.5044869"><ele>340.0</ele><time>2026-04-10T11:30:54.84Z</time></trkpt><trkpt lat="44.8507395" lon="9.5045855"><ele>339.4</ele><time>2026-04-10T11:30:55.839Z</time></trkpt><trkpt lat="44.8506604" lon="9.5046896"><ele>338.8</ele><time>2026-04-10T11:30:56.84Z</time></trkpt><trkpt lat="44.8505826" lon="9.5047917"><ele>338.20000000000005</ele><time>2026-04-10T11:30:57.842Z</time></trkpt><trkpt lat="44.8505048" lon="9.5048979"><ele>337.6</ele><time>2026-04-10T11:30:58.844Z</time></trkpt><trkpt lat="44.8504242" lon="9.5050075"><ele>337.0</ele><time>2026-04-10T11:30:59.841Z</time></trkpt><trkpt lat="44.8503435" lon="9.5051138"><ele>337.0</ele><time>2026-04-10T11:31:00.841Z</time></trkpt><trkpt lat="44.850259" lon="9.5052144"><ele>337.0</ele><time>2026-04-10T11:31:01.841Z</time></trkpt><trkpt lat="44.8501695" lon="9.5053098"><ele>337.0</ele><time>2026-04-10T11:31:02.841Z</time></trkpt><trkpt lat="44.850075" lon="9.505406"><ele>337.0</ele><time>2026-04-10T11:31:03.842Z</time></trkpt><trkpt lat="44.8499765" lon="9.5055068"><ele>340.75</ele><time>2026-04-10T11:31:04.841Z</time></trkpt><trkpt lat="44.8498775" lon="9.5056129"><ele>344.5</ele><time>2026-04-10T11:31:05.841Z</time></trkpt><trkpt lat="44.84978" lon="9.505713"><ele>348.25</ele><time>2026-04-10T11:31:06.84Z</time></trkpt><trkpt lat="44.8496905" lon="9.5058024"><ele>352.0</ele><time>2026-04-10T11:31:07.839Z</time></trkpt><trkpt lat="44.849611" lon="9.505897"><ele>352.0</ele><time>2026-04-10T11:31:08.84Z</time></trkpt><trkpt lat="44.8495437" lon="9.5060039"><ele>352.0</ele><time>2026-04-10T11:31:09.84Z</time></trkpt><trkpt lat="44.8494909" lon="9.5061253"><ele>352.0</ele><time>2026-04-10T11:31:10.841Z</time></trkpt><trkpt lat="44.8494468" lon="9.5062588"><ele>352.0</ele><time>2026-04-10T11:31:11.84Z</time></trkpt><trkpt lat="44.8493983" lon="9.5063993"><ele>352.0</ele><time>2026-04-10T11:31:12.841Z</time></trkpt><trkpt lat="44.849335" lon="9.5065403"><ele>355.6</ele><time>2026-04-10T11:31:13.841Z</time></trkpt><trkpt lat="44.8492641" lon="9.5066669"><ele>359.20000000000005</ele><time>2026-04-10T11:31:14.84Z</time></trkpt><trkpt lat="44.8491969" lon="9.5067676"><ele>362.8</ele><time>2026-04-10T11:31:15.842Z</time></trkpt><trkpt lat="44.8491408" lon="9.5068377"><ele>366.4</ele><time>2026-04-10T11:31:16.84Z</time></trkpt><trkpt lat="44.8490612" lon="9.5069197"><ele>370.0</ele><time>2026-04-10T11:31:18.84Z</time></trkpt><trkpt lat="44.8490143" lon="9.5069848"><ele>370.0</ele><time>2026-04-10T11:31:21.782Z</time></trkpt><trkpt lat="44.8490612" lon="9.5070706"><ele>370.0</ele><time>2026-04-10T11:31:23.841Z</time></trkpt><trkpt lat="44.8491046" lon="9.5071355"><ele>370.0</ele><time>2026-04-10T11:31:25.84Z</time></trkpt><trkpt lat="44.849186" lon="9.5071605"><ele>370.0</ele><time>2026-04-10T11:31:27.838Z</time></trkpt><trkpt lat="44.8493056" lon="9.5071845"><ele>370.0</ele><time>2026-04-10T11:31:29.84Z</time></trkpt><trkpt lat="44.8493705" lon="9.5072023"><ele>370.0</ele><time>2026-04-10T11:31:30.84Z</time></trkpt><trkpt lat="44.8494343" lon="9.5072254"><ele>370.5</ele><time>2026-04-10T11:31:31.844Z</time></trkpt><trkpt lat="44.8495525" lon="9.5072686"><ele>371.0</ele><time>2026-04-10T11:31:33.844Z</time></trkpt><trkpt lat="44.8496595" lon="9.5073272"><ele>371.5</ele><time>2026-04-10T11:31:35.839Z</time></trkpt><trkpt lat="44.8497622" lon="9.507409"><ele>372.0</ele><time>2026-04-10T11:31:37.92Z</time></trkpt><trkpt lat="44.849845" lon="9.5075063"><ele>372.0</ele><time>2026-04-10T11:31:39.839Z</time></trkpt><trkpt lat="44.8498744" lon="9.5076141"><ele>372.0</ele><time>2026-04-10T11:31:41.839Z</time></trkpt><trkpt lat="44.8498613" lon="9.5078054"><ele>372.0</ele><time>2026-04-10T11:32:00.84Z</time></trkpt><trkpt lat="44.8498295" lon="9.5079716"><ele>372.0</ele><time>2026-04-10T11:32:02.841Z</time></trkpt><trkpt lat="44.849814" lon="9.5081468"><ele>374.0</ele><time>2026-04-10T11:32:04.84Z</time></trkpt><trkpt lat="44.849812" lon="9.5082989"><ele>376.0</ele><time>2026-04-10T11:32:06.839Z</time></trkpt><trkpt lat="44.8497895" lon="9.508424"><ele>378.0</ele><time>2026-04-10T11:32:08.841Z</time></trkpt><trkpt lat="44.8497224" lon="9.5085357"><ele>380.0</ele><time>2026-04-10T11:32:10.839Z</time></trkpt><trkpt lat="44.849672" lon="9.5085901"><ele>382.0</ele><time>2026-04-10T11:32:11.84Z</time></trkpt><trkpt lat="44.8496201" lon="9.5086481"><ele>384.0</ele><time>2026-04-10T11:32:12.84Z</time></trkpt><trkpt lat="44.8495701" lon="9.5087108"><ele>382.8333333333333</ele><time>2026-04-10T11:32:13.84Z</time></trkpt><trkpt lat="44.8495239" lon="9.5087784"><ele>381.6666666666667</ele><time>2026-04-10T11:32:14.841Z</time></trkpt><trkpt lat="44.8494787" lon="9.508851"><ele>380.5</ele><time>2026-04-10T11:32:15.84Z</time></trkpt><trkpt lat="44.8494299" lon="9.5089263"><ele>379.33333333333337</ele><time>2026-04-10T11:32:16.839Z</time></trkpt><trkpt lat="44.8493865" lon="9.5090018"><ele>378.1666666666667</ele><time>2026-04-10T11:32:17.841Z</time></trkpt><trkpt lat="44.8493139" lon="9.5091337"><ele>377.0</ele><time>2026-04-10T11:32:19.839Z</time></trkpt><trkpt lat="44.8492296" lon="9.5092314"><ele>379.83333333333337</ele><time>2026-04-10T11:32:21.842Z</time></trkpt><trkpt lat="44.8491209" lon="9.5092983"><ele>382.6666666666667</ele><time>2026-04-10T11:32:23.839Z</time></trkpt><trkpt lat="44.8490617" lon="9.5093399"><ele>385.5</ele><time>2026-04-10T11:32:24.839Z</time></trkpt><trkpt lat="44.8489987" lon="9.5093834"><ele>388.33333333333337</ele><time>2026-04-10T11:32:25.84Z</time></trkpt><trkpt lat="44.8489406" lon="9.5094359"><ele>391.1666666666667</ele><time>2026-04-10T11:32:26.843Z</time></trkpt><trkpt lat="44.8488843" lon="9.5095049"><ele>394.0</ele><time>2026-04-10T11:32:27.84Z</time></trkpt><trkpt lat="44.8488305" lon="9.509594"><ele>394.0</ele><time>2026-04-10T11:32:28.841Z</time></trkpt><trkpt lat="44.8487706" lon="9.5096968"><ele>394.0</ele><time>2026-04-10T11:32:29.841Z</time></trkpt><trkpt lat="44.8487021" lon="9.5098011"><ele>394.0</ele><time>2026-04-10T11:32:30.84Z</time></trkpt><trkpt lat="44.8486353" lon="9.509901"><ele>394.0</ele><time>2026-04-10T11:32:31.84Z</time></trkpt><trkpt lat="44.8485847" lon="9.5099822"><ele>394.0</ele><time>2026-04-10T11:32:32.841Z</time></trkpt><trkpt lat="44.8485333" lon="9.5100971"><ele>394.0</ele><time>2026-04-10T11:32:34.84Z</time></trkpt><trkpt lat="44.8485004" lon="9.5101973"><ele>394.0</ele><time>2026-04-10T11:32:37.842Z</time></trkpt><trkpt lat="44.8484269" lon="9.5103107"><ele>394.0</ele><time>2026-04-10T11:32:40.842Z</time></trkpt><trkpt lat="44.8483524" lon="9.5104382"><ele>394.0</ele><time>2026-04-10T11:32:42.842Z</time></trkpt><trkpt lat="44.8482909" lon="9.5105826"><ele>394.0</ele><time>2026-04-10T11:32:44.84Z</time></trkpt><trkpt lat="44.8482239" lon="9.5107168"><ele>397.6</ele><time>2026-04-10T11:32:46.84Z</time></trkpt><trkpt lat="44.8481498" lon="9.5108599"><ele>401.2</ele><time>2026-04-10T11:32:48.84Z</time></trkpt><trkpt lat="44.8481121" lon="9.5109317"><ele>404.8</ele><time>2026-04-10T11:32:49.84Z</time></trkpt><trkpt lat="44.8480647" lon="9.5110825"><ele>408.40000000000003</ele><time>2026-04-10T11:32:51.839Z</time></trkpt><trkpt lat="44.848035" lon="9.51117"><ele>412.0</ele><time>2026-04-10T11:32:52.839Z</time></trkpt><trkpt lat="44.8480017" lon="9.511265"><ele>412.00000000000006</ele><time>2026-04-10T11:32:53.839Z</time></trkpt><trkpt lat="44.84796" lon="9.511375"><ele>412.0</ele><time>2026-04-10T11:32:54.839Z</time></trkpt><trkpt lat="44.8479217" lon="9.511485"><ele>412.0</ele><time>2026-04-10T11:32:55.841Z</time></trkpt><trkpt lat="44.84789" lon="9.51159"><ele>412.0</ele><time>2026-04-10T11:32:56.843Z</time></trkpt><trkpt lat="44.8478667" lon="9.51174"><ele>412.00000000000006</ele><time>2026-04-10T11:32:58.841Z</time></trkpt><trkpt lat="44.8478533" lon="9.5118567"><ele>412.0</ele><time>2026-04-10T11:33:00.839Z</time></trkpt><trkpt lat="44.8478083" lon="9.5119767"><ele>410.83333333333337</ele><time>2026-04-10T11:33:02.84Z</time></trkpt><trkpt lat="44.8477433" lon="9.5121017"><ele>409.6666666666667</ele><time>2026-04-10T11:33:04.84Z</time></trkpt><trkpt lat="44.84769" lon="9.5121583"><ele>408.5</ele><time>2026-04-10T11:33:05.838Z</time></trkpt><trkpt lat="44.84764" lon="9.5122167"><ele>407.33333333333337</ele><time>2026-04-10T11:33:06.84Z</time></trkpt><trkpt lat="44.8475967" lon="9.5122817"><ele>406.1666666666667</ele><time>2026-04-10T11:33:07.843Z</time></trkpt><trkpt lat="44.84753" lon="9.5124217"><ele>405.0</ele><time>2026-04-10T11:33:09.84Z</time></trkpt><trkpt lat="44.847495" lon="9.5124967"><ele>406.5</ele><time>2026-04-10T11:33:10.839Z</time></trkpt><trkpt lat="44.8474483" lon="9.512575"><ele>408.0</ele><time>2026-04-10T11:33:11.84Z</time></trkpt><trkpt lat="44.8474033" lon="9.5126433"><ele>409.5</ele><time>2026-04-10T11:33:12.843Z</time></trkpt><trkpt lat="44.84736" lon="9.5127083"><ele>411.0</ele><time>2026-04-10T11:33:13.842Z</time></trkpt><trkpt lat="44.8472783" lon="9.5128267"><ele>412.5</ele><time>2026-04-10T11:33:15.839Z</time></trkpt><trkpt lat="44.84722" lon="9.5129167"><ele>414.0</ele><time>2026-04-10T11:33:17.839Z</time></trkpt><trkpt lat="44.8471583" lon="9.512965"><ele>414.0</ele><time>2026-04-10T11:33:19.841Z</time></trkpt><trkpt lat="44.8470917" lon="9.5130267"><ele>414.0</ele><time>2026-04-10T11:33:21.841Z</time></trkpt><trkpt lat="44.847025" lon="9.5130933"><ele>414.0</ele><time>2026-04-10T11:33:24.839Z</time></trkpt><trkpt lat="44.8469467" lon="9.5131633"><ele>414.0</ele><time>2026-04-10T11:33:27.839Z</time></trkpt><trkpt lat="44.8468733" lon="9.5131967"><ele>414.0</ele><time>2026-04-10T11:33:31.84Z</time></trkpt><trkpt lat="44.8467933" lon="9.5132233"><ele>414.0</ele><time>2026-04-10T11:33:35.84Z</time></trkpt><trkpt lat="44.84672" lon="9.5133033"><ele>414.2</ele><time>2026-04-10T11:33:37.839Z</time></trkpt><trkpt lat="44.8466683" lon="9.5133667"><ele>414.4</ele><time>2026-04-10T11:33:38.841Z</time></trkpt><trkpt lat="44.84662" lon="9.5134283"><ele>414.6</ele><time>2026-04-10T11:33:39.84Z</time></trkpt><trkpt lat="44.8465283" lon="9.51352"><ele>414.8</ele><time>2026-04-10T11:33:41.84Z</time></trkpt><trkpt lat="44.8464133" lon="9.5136317"><ele>415.0</ele><time>2026-04-10T11:33:43.84Z</time></trkpt><trkpt lat="44.8463517" lon="9.513685"><ele>412.50000000000006</ele><time>2026-04-10T11:33:44.844Z</time></trkpt><trkpt lat="44.8462533" lon="9.5137483"><ele>410.0</ele><time>2026-04-10T11:33:46.84Z</time></trkpt><trkpt lat="44.846175" lon="9.513775"><ele>407.5</ele><time>2026-04-10T11:33:48.838Z</time></trkpt><trkpt lat="44.8461" lon="9.513805"><ele>405.0</ele><time>2026-04-10T11:33:50.84Z</time></trkpt><trkpt lat="44.8460267" lon="9.5138333"><ele>402.50000000000006</ele><time>2026-04-10T11:33:53.841Z</time></trkpt><trkpt lat="44.8459783" lon="9.5139017"><ele>400.0</ele><time>2026-04-10T11:33:56.842Z</time></trkpt><trkpt lat="44.845915" lon="9.5139633"><ele>399.0</ele><time>2026-04-10T11:33:58.84Z</time></trkpt><trkpt lat="44.8458383" lon="9.51401"><ele>398.0</ele><time>2026-04-10T11:34:00.84Z</time></trkpt><trkpt lat="44.84576" lon="9.5140767"><ele>397.0</ele><time>2026-04-10T11:34:02.841Z</time></trkpt><trkpt lat="44.84569" lon="9.51413"><ele>396.0</ele><time>2026-04-10T11:34:04.839Z</time></trkpt><trkpt lat="44.84559" lon="9.5141583"><ele>395.0</ele><time>2026-04-10T11:34:06.839Z</time></trkpt><trkpt lat="44.8454667" lon="9.5142033"><ele>394.99999999999994</ele><time>2026-04-10T11:34:08.846Z</time></trkpt><trkpt lat="44.8454017" lon="9.5142333"><ele>395.0</ele><time>2026-04-10T11:34:09.84Z</time></trkpt><trkpt lat="44.84534" lon="9.514265"><ele>395.0</ele><time>2026-04-10T11:34:10.839Z</time></trkpt><trkpt lat="44.8452567" lon="9.5142883"><ele>395.0</ele><time>2026-04-10T11:34:12.839Z</time></trkpt><trkpt lat="44.84518" lon="9.5142883"><ele>394.99999999999994</ele><time>2026-04-10T11:34:14.844Z</time></trkpt><trkpt lat="44.8451183" lon="9.5142667"><ele>395.0</ele><time>2026-04-10T11:34:16.841Z</time></trkpt><trkpt lat="44.84504" lon="9.514195"><ele>392.99999999999994</ele><time>2026-04-10T11:34:19.84Z</time></trkpt><trkpt lat="44.8449683" lon="9.5141033"><ele>391.0</ele><time>2026-04-10T11:34:22.84Z</time></trkpt><trkpt lat="44.8449033" lon="9.5140167"><ele>389.0</ele><time>2026-04-10T11:34:24.846Z</time></trkpt><trkpt lat="44.84484" lon="9.5139333"><ele>387.0</ele><time>2026-04-10T11:34:26.842Z</time></trkpt><trkpt lat="44.844775" lon="9.513855"><ele>385.0</ele><time>2026-04-10T11:34:28.839Z</time></trkpt><trkpt lat="44.8447117" lon="9.513775"><ele>383.0</ele><time>2026-04-10T11:34:30.841Z</time></trkpt><trkpt lat="44.844655" lon="9.5136783"><ele>381.33333333333337</ele><time>2026-04-10T11:34:32.841Z</time></trkpt><trkpt lat="44.8446167" lon="9.5135817"><ele>379.6666666666667</ele><time>2026-04-10T11:34:35.84Z</time></trkpt><trkpt lat="44.8445733" lon="9.5134933"><ele>378.0</ele><time>2026-04-10T11:34:37.839Z</time></trkpt><trkpt lat="44.8445167" lon="9.5134067"><ele>376.3333333333333</ele><time>2026-04-10T11:34:39.839Z</time></trkpt><trkpt lat="44.844445" lon="9.5133183"><ele>374.66666666666663</ele><time>2026-04-10T11:34:41.84Z</time></trkpt><trkpt lat="44.8443617" lon="9.5132417"><ele>373.0</ele><time>2026-04-10T11:34:43.839Z</time></trkpt><trkpt lat="44.84428" lon="9.513185"><ele>367.79999999999995</ele><time>2026-04-10T11:34:45.84Z</time></trkpt><trkpt lat="44.8441983" lon="9.51309"><ele>362.6</ele><time>2026-04-10T11:34:47.84Z</time></trkpt><trkpt lat="44.844105" lon="9.5129967"><ele>357.4</ele><time>2026-04-10T11:34:49.84Z</time></trkpt><trkpt lat="44.8440367" lon="9.5129483"><ele>352.20000000000005</ele><time>2026-04-10T11:34:51.841Z</time></trkpt><trkpt lat="44.843975" lon="9.5129683"><ele>347.0</ele><time>2026-04-10T11:34:53.84Z</time></trkpt><trkpt lat="44.8438883" lon="9.5131033"><ele>347.0</ele><time>2026-04-10T11:34:55.84Z</time></trkpt><trkpt lat="44.8438383" lon="9.5131783"><ele>347.0</ele><time>2026-04-10T11:34:56.841Z</time></trkpt><trkpt lat="44.84379" lon="9.51324"><ele>347.0</ele><time>2026-04-10T11:34:57.84Z</time></trkpt><trkpt lat="44.8437" lon="9.51335"><ele>347.0</ele><time>2026-04-10T11:34:59.839Z</time></trkpt><trkpt lat="44.84361" lon="9.51346"><ele>347.0</ele><time>2026-04-10T11:35:01.839Z</time></trkpt><trkpt lat="44.8435233" lon="9.5135633"><ele>344.5</ele><time>2026-04-10T11:35:03.841Z</time></trkpt><trkpt lat="44.843455" lon="9.5136383"><ele>342.0</ele><time>2026-04-10T11:35:05.84Z</time></trkpt><trkpt lat="44.8434067" lon="9.5137017"><ele>339.5</ele><time>2026-04-10T11:35:31.843Z</time></trkpt><trkpt lat="44.843355" lon="9.513755"><ele>337.0</ele><time>2026-04-10T11:35:33.841Z</time></trkpt><trkpt lat="44.84326" lon="9.5138317"><ele>334.5</ele><time>2026-04-10T11:35:35.842Z</time></trkpt><trkpt lat="44.8431983" lon="9.5138867"><ele>332.0</ele><time>2026-04-10T11:35:36.841Z</time></trkpt><trkpt lat="44.8431367" lon="9.51395"><ele>332.0</ele><time>2026-04-10T11:35:37.841Z</time></trkpt><trkpt lat="44.843075" lon="9.5140233"><ele>332.0</ele><time>2026-04-10T11:35:38.841Z</time></trkpt><trkpt lat="44.84303" lon="9.5140917"><ele>332.0</ele><time>2026-04-10T11:35:39.839Z</time></trkpt><trkpt lat="44.842975" lon="9.5141917"><ele>332.0</ele><time>2026-04-10T11:35:41.842Z</time></trkpt><trkpt lat="44.842925" lon="9.51428"><ele>332.0</ele><time>2026-04-10T11:35:43.841Z</time></trkpt><trkpt lat="44.8428767" lon="9.5144183"><ele>332.0</ele><time>2026-04-10T11:35:45.84Z</time></trkpt><trkpt lat="44.8428383" lon="9.5145183"><ele>332.20000000000005</ele><time>2026-04-10T11:35:46.842Z</time></trkpt><trkpt lat="44.8427917" lon="9.5146367"><ele>332.4</ele><time>2026-04-10T11:35:47.841Z</time></trkpt><trkpt lat="44.8427433" lon="9.5147583"><ele>332.6</ele><time>2026-04-10T11:35:48.84Z</time></trkpt><trkpt lat="44.8426967" lon="9.5148783"><ele>332.79999999999995</ele><time>2026-04-10T11:35:49.841Z</time></trkpt><trkpt lat="44.8426517" lon="9.5149867"><ele>333.0</ele><time>2026-04-10T11:35:50.84Z</time></trkpt><trkpt lat="44.842605" lon="9.51509"><ele>330.3333333333333</ele><time>2026-04-10T11:35:51.842Z</time></trkpt><trkpt lat="44.8425717" lon="9.515185"><ele>327.6666666666667</ele><time>2026-04-10T11:35:52.84Z</time></trkpt><trkpt lat="44.8425733" lon="9.515295"><ele>325.0</ele><time>2026-04-10T11:35:53.841Z</time></trkpt><trkpt lat="44.8426" lon="9.5154133"><ele>322.33333333333337</ele><time>2026-04-10T11:35:54.841Z</time></trkpt><trkpt lat="44.84264" lon="9.5155433"><ele>319.6666666666667</ele><time>2026-04-10T11:35:55.841Z</time></trkpt><trkpt lat="44.8426817" lon="9.5156633"><ele>317.0</ele><time>2026-04-10T11:35:56.845Z</time></trkpt><trkpt lat="44.8427117" lon="9.5157633"><ele>317.0</ele><time>2026-04-10T11:35:57.84Z</time></trkpt><trkpt lat="44.84275" lon="9.515895"><ele>317.0</ele><time>2026-04-10T11:35:59.84Z</time></trkpt><trkpt lat="44.8428017" lon="9.5159983"><ele>317.0</ele><time>2026-04-10T11:36:55.842Z</time></trkpt><trkpt lat="44.8428633" lon="9.516125"><ele>317.0</ele><time>2026-04-10T11:36:58.84Z</time></trkpt><trkpt lat="44.8429467" lon="9.5162483"><ele>317.0</ele><time>2026-04-10T11:37:00.841Z</time></trkpt><trkpt lat="44.8429967" lon="9.5163117"><ele>312.6666666666667</ele><time>2026-04-10T11:37:01.84Z</time></trkpt><trkpt lat="44.8430567" lon="9.5163683"><ele>308.33333333333337</ele><time>2026-04-10T11:37:02.841Z</time></trkpt><trkpt lat="44.84312" lon="9.516425"><ele>304.0</ele><time>2026-04-10T11:37:03.841Z</time></trkpt><trkpt lat="44.8431833" lon="9.5164833"><ele>299.6666666666667</ele><time>2026-04-10T11:37:04.839Z</time></trkpt><trkpt lat="44.8432767" lon="9.51657"><ele>295.3333333333333</ele><time>2026-04-10T11:37:06.84Z</time></trkpt><trkpt lat="44.8433517" lon="9.5166233"><ele>291.0</ele><time>2026-04-10T11:37:08.842Z</time></trkpt><trkpt lat="44.84343" lon="9.51667"><ele>292.8</ele><time>2026-04-10T11:37:10.842Z</time></trkpt><trkpt lat="44.843525" lon="9.5167383"><ele>294.6</ele><time>2026-04-10T11:37:12.84Z</time></trkpt><trkpt lat="44.84358" lon="9.5167883"><ele>296.4</ele><time>2026-04-10T11:37:13.84Z</time></trkpt><trkpt lat="44.8436483" lon="9.5168633"><ele>298.2</ele><time>2026-04-10T11:37:14.84Z</time></trkpt><trkpt lat="44.8437283" lon="9.5169517"><ele>300.0</ele><time>2026-04-10T11:37:15.838Z</time></trkpt><trkpt lat="44.843815" lon="9.5170417"><ele>297.8333333333333</ele><time>2026-04-10T11:37:16.84Z</time></trkpt><trkpt lat="44.8438967" lon="9.5171317"><ele>295.6666666666667</ele><time>2026-04-10T11:37:17.84Z</time></trkpt><trkpt lat="44.8439583" lon="9.5172367"><ele>293.5</ele><time>2026-04-10T11:37:18.839Z</time></trkpt><trkpt lat="44.844015" lon="9.5173483"><ele>291.33333333333337</ele><time>2026-04-10T11:37:19.845Z</time></trkpt><trkpt lat="44.84407" lon="9.5174383"><ele>289.1666666666667</ele><time>2026-04-10T11:37:20.842Z</time></trkpt><trkpt lat="44.8441217" lon="9.517495"><ele>287.0</ele><time>2026-04-10T11:37:21.839Z</time></trkpt><trkpt lat="44.844225" lon="9.5175217"><ele>287.0</ele><time>2026-04-10T11:37:23.84Z</time></trkpt><trkpt lat="44.8442917" lon="9.5175183"><ele>287.0</ele><time>2026-04-10T11:37:24.839Z</time></trkpt><trkpt lat="44.8443683" lon="9.5175033"><ele>287.0</ele><time>2026-04-10T11:37:25.842Z</time></trkpt><trkpt lat="44.8444533" lon="9.5174867"><ele>287.0</ele><time>2026-04-10T11:37:26.842Z</time></trkpt><trkpt lat="44.8445633" lon="9.5174617"><ele>287.0</ele><time>2026-04-10T11:37:27.841Z</time></trkpt><trkpt lat="44.844675" lon="9.5174367"><ele>287.5</ele><time>2026-04-10T11:37:28.84Z</time></trkpt><trkpt lat="44.844785" lon="9.5174317"><ele>288.0</ele><time>2026-04-10T11:37:29.84Z</time></trkpt><trkpt lat="44.8448867" lon="9.5174633"><ele>288.5</ele><time>2026-04-10T11:37:30.84Z</time></trkpt><trkpt lat="44.8450033" lon="9.5175267"><ele>289.0</ele><time>2026-04-10T11:37:31.839Z</time></trkpt><trkpt lat="44.8451233" lon="9.5176067"><ele>294.25</ele><time>2026-04-10T11:37:32.842Z</time></trkpt><trkpt lat="44.8452433" lon="9.5176733"><ele>299.5</ele><time>2026-04-10T11:37:33.839Z</time></trkpt><trkpt lat="44.8453583" lon="9.517735"><ele>304.75</ele><time>2026-04-10T11:37:34.842Z</time></trkpt><trkpt lat="44.8454683" lon="9.5177983"><ele>310.0</ele><time>2026-04-10T11:37:35.84Z</time></trkpt><trkpt lat="44.8455683" lon="9.51786"><ele>306.8</ele><time>2026-04-10T11:37:36.842Z</time></trkpt><trkpt lat="44.8456683" lon="9.5179233"><ele>303.6</ele><time>2026-04-10T11:37:37.841Z</time></trkpt><trkpt lat="44.8457633" lon="9.517995"><ele>300.4</ele><time>2026-04-10T11:37:38.842Z</time></trkpt><trkpt lat="44.845855" lon="9.5180583"><ele>297.2</ele><time>2026-04-10T11:37:39.84Z</time></trkpt><trkpt lat="44.845945" lon="9.5181183"><ele>294.0</ele><time>2026-04-10T11:37:40.839Z</time></trkpt><trkpt lat="44.8460367" lon="9.518185"><ele>294.0</ele><time>2026-04-10T11:37:41.842Z</time></trkpt><trkpt lat="44.8461333" lon="9.518255"><ele>294.0</ele><time>2026-04-10T11:37:42.839Z</time></trkpt><trkpt lat="44.8462383" lon="9.518325"><ele>294.0</ele><time>2026-04-10T11:37:43.839Z</time></trkpt><trkpt lat="44.8463517" lon="9.518395"><ele>294.0</ele><time>2026-04-10T11:37:44.84Z</time></trkpt><trkpt lat="44.8464667" lon="9.5184667"><ele>294.0</ele><time>2026-04-10T11:37:45.839Z</time></trkpt><trkpt lat="44.846575" lon="9.51854"><ele>294.0</ele><time>2026-04-10T11:37:46.841Z</time></trkpt><trkpt lat="44.8466767" lon="9.5185933"><ele>294.0</ele><time>2026-04-10T11:37:47.838Z</time></trkpt><trkpt lat="44.8467817" lon="9.5186183"><ele>294.0</ele><time>2026-04-10T11:37:48.842Z</time></trkpt><trkpt lat="44.8468917" lon="9.5186133"><ele>294.0</ele><time>2026-04-10T11:37:49.839Z</time></trkpt><trkpt lat="44.847" lon="9.51858"><ele>293.59999999999997</ele><time>2026-04-10T11:37:50.842Z</time></trkpt><trkpt lat="44.8471017" lon="9.518545"><ele>293.2</ele><time>2026-04-10T11:37:51.839Z</time></trkpt><trkpt lat="44.8472" lon="9.51853"><ele>292.79999999999995</ele><time>2026-04-10T11:37:52.839Z</time></trkpt><trkpt lat="44.8472983" lon="9.5185467"><ele>292.4</ele><time>2026-04-10T11:37:53.842Z</time></trkpt><trkpt lat="44.8473933" lon="9.5186183"><ele>292.0</ele><time>2026-04-10T11:37:54.839Z</time></trkpt><trkpt lat="44.84748" lon="9.51871"><ele>288.0</ele><time>2026-04-10T11:37:55.84Z</time></trkpt><trkpt lat="44.847565" lon="9.5187867"><ele>284.0</ele><time>2026-04-10T11:37:56.841Z</time></trkpt><trkpt lat="44.8476633" lon="9.5188383"><ele>280.0</ele><time>2026-04-10T11:37:57.839Z</time></trkpt><trkpt lat="44.84777" lon="9.5188567"><ele>276.0</ele><time>2026-04-10T11:37:58.844Z</time></trkpt><trkpt lat="44.84787" lon="9.5188833"><ele>272.0</ele><time>2026-04-10T11:37:59.839Z</time></trkpt><trkpt lat="44.8479517" lon="9.518945"><ele>272.0</ele><time>2026-04-10T11:38:00.839Z</time></trkpt><trkpt lat="44.84801" lon="9.5190517"><ele>272.0</ele><time>2026-04-10T11:38:01.841Z</time></trkpt><trkpt lat="44.848045" lon="9.5191917"><ele>272.0</ele><time>2026-04-10T11:38:02.841Z</time></trkpt><trkpt lat="44.8480683" lon="9.5193633"><ele>272.0</ele><time>2026-04-10T11:38:03.843Z</time></trkpt><trkpt lat="44.8481083" lon="9.519545"><ele>267.6666666666667</ele><time>2026-04-10T11:38:04.84Z</time></trkpt><trkpt lat="44.84817" lon="9.5197333"><ele>263.3333333333333</ele><time>2026-04-10T11:38:05.839Z</time></trkpt><trkpt lat="44.84825" lon="9.5199367"><ele>259.0</ele><time>2026-04-10T11:38:06.84Z</time></trkpt><trkpt lat="44.8483383" lon="9.520145"><ele>259.0</ele><time>2026-04-10T11:38:07.84Z</time></trkpt><trkpt lat="44.848415" lon="9.5203567"><ele>259.0</ele><time>2026-04-10T11:38:08.846Z</time></trkpt><trkpt lat="44.8484767" lon="9.520545"><ele>259.0</ele><time>2026-04-10T11:38:09.84Z</time></trkpt><trkpt lat="44.8485133" lon="9.520715"><ele>259.0</ele><time>2026-04-10T11:38:10.839Z</time></trkpt><trkpt lat="44.8485233" lon="9.5208917"><ele>259.5</ele><time>2026-04-10T11:38:11.839Z</time></trkpt><trkpt lat="44.8485183" lon="9.52107"><ele>260.0</ele><time>2026-04-10T11:38:12.839Z</time></trkpt><trkpt lat="44.8484917" lon="9.521245"><ele>260.5</ele><time>2026-04-10T11:38:13.839Z</time></trkpt><trkpt lat="44.8484733" lon="9.5214033"><ele>261.0</ele><time>2026-04-10T11:38:14.84Z</time></trkpt><trkpt lat="44.8484617" lon="9.52155"><ele>261.0</ele><time>2026-04-10T11:38:15.843Z</time></trkpt><trkpt lat="44.8484667" lon="9.5216933"><ele>261.0</ele><time>2026-04-10T11:38:16.839Z</time></trkpt><trkpt lat="44.8484917" lon="9.5218433"><ele>261.0</ele><time>2026-04-10T11:38:17.839Z</time></trkpt><trkpt lat="44.8485317" lon="9.521995"><ele>261.0</ele><time>2026-04-10T11:38:18.84Z</time></trkpt><trkpt lat="44.84857" lon="9.5221333"><ele>261.0</ele><time>2026-04-10T11:38:19.84Z</time></trkpt><trkpt lat="44.848605" lon="9.52226"><ele>259.2</ele><time>2026-04-10T11:38:20.84Z</time></trkpt><trkpt lat="44.8486467" lon="9.522385"><ele>257.40000000000003</ele><time>2026-04-10T11:38:21.839Z</time></trkpt><trkpt lat="44.8486917" lon="9.5225117"><ele>255.6</ele><time>2026-04-10T11:38:22.843Z</time></trkpt><trkpt lat="44.8487333" lon="9.522645"><ele>253.8</ele><time>2026-04-10T11:38:23.839Z</time></trkpt><trkpt lat="44.8487667" lon="9.52278"><ele>252.0</ele><time>2026-04-10T11:38:24.845Z</time></trkpt><trkpt lat="44.8487967" lon="9.5229217"><ele>249.33333333333334</ele><time>2026-04-10T11:38:25.843Z</time></trkpt><trkpt lat="44.84883" lon="9.5230633"><ele>246.66666666666669</ele><time>2026-04-10T11:38:26.84Z</time></trkpt><trkpt lat="44.848875" lon="9.5231867"><ele>244.0</ele><time>2026-04-10T11:38:27.841Z</time></trkpt><trkpt lat="44.8489283" lon="9.5232767"><ele>241.33333333333334</ele><time>2026-04-10T11:38:28.84Z</time></trkpt><trkpt lat="44.848975" lon="9.5233517"><ele>238.66666666666669</ele><time>2026-04-10T11:38:29.84Z</time></trkpt><trkpt lat="44.84896" lon="9.5234517"><ele>236.0</ele><time>2026-04-10T11:38:31.84Z</time></trkpt><trkpt lat="44.8488517" lon="9.523405"><ele>236.0</ele><time>2026-04-10T11:38:33.841Z</time></trkpt><trkpt lat="44.8487733" lon="9.5233433"><ele>236.00000000000003</ele><time>2026-04-10T11:38:34.843Z</time></trkpt><trkpt lat="44.8486833" lon="9.52325"><ele>236.00000000000003</ele><time>2026-04-10T11:38:35.84Z</time></trkpt><trkpt lat="44.8485733" lon="9.5231533"><ele>236.0</ele><time>2026-04-10T11:38:36.841Z</time></trkpt><trkpt lat="44.848475" lon="9.5230783"><ele>236.0</ele><time>2026-04-10T11:38:37.84Z</time></trkpt><trkpt lat="44.8483983" lon="9.5230183"><ele>232.4</ele><time>2026-04-10T11:38:38.84Z</time></trkpt><trkpt lat="44.8483283" lon="9.5229817"><ele>228.8</ele><time>2026-04-10T11:38:39.841Z</time></trkpt><trkpt lat="44.8482317" lon="9.523035"><ele>225.20000000000002</ele><time>2026-04-10T11:38:41.841Z</time></trkpt><trkpt lat="44.8482633" lon="9.5231683"><ele>221.60000000000002</ele><time>2026-04-10T11:38:43.839Z</time></trkpt><trkpt lat="44.8483567" lon="9.523265"><ele>218.0</ele><time>2026-04-10T11:38:44.842Z</time></trkpt><trkpt lat="44.8484467" lon="9.52338"><ele>217.25</ele><time>2026-04-10T11:38:45.84Z</time></trkpt><trkpt lat="44.848545" lon="9.523525"><ele>216.5</ele><time>2026-04-10T11:38:46.842Z</time></trkpt><trkpt lat="44.848635" lon="9.5236867"><ele>215.75</ele><time>2026-04-10T11:38:47.84Z</time></trkpt><trkpt lat="44.8487217" lon="9.5238367"><ele>215.0</ele><time>2026-04-10T11:38:48.839Z</time></trkpt><trkpt lat="44.8488083" lon="9.5239733"><ele>215.0</ele><time>2026-04-10T11:38:49.84Z</time></trkpt><trkpt lat="44.8489033" lon="9.5240917"><ele>215.0</ele><time>2026-04-10T11:38:50.84Z</time></trkpt><trkpt lat="44.8489967" lon="9.52418"><ele>215.0</ele><time>2026-04-10T11:38:51.839Z</time></trkpt><trkpt lat="44.8490967" lon="9.5242467"><ele>215.0</ele><time>2026-04-10T11:38:52.84Z</time></trkpt><trkpt lat="44.8492133" lon="9.524295"><ele>212.0</ele><time>2026-04-10T11:38:53.839Z</time></trkpt><trkpt lat="44.84934" lon="9.5243433"><ele>209.0</ele><time>2026-04-10T11:38:54.839Z</time></trkpt><trkpt lat="44.8494767" lon="9.524405"><ele>206.0</ele><time>2026-04-10T11:38:55.843Z</time></trkpt><trkpt lat="44.84961" lon="9.5244783"><ele>203.0</ele><time>2026-04-10T11:38:56.84Z</time></trkpt><trkpt lat="44.84973" lon="9.52455"><ele>200.60000000000002</ele><time>2026-04-10T11:38:57.839Z</time></trkpt><trkpt lat="44.84983" lon="9.5246283"><ele>198.20000000000002</ele><time>2026-04-10T11:38:58.839Z</time></trkpt><trkpt lat="44.8499167" lon="9.524715"><ele>195.8</ele><time>2026-04-10T11:38:59.839Z</time></trkpt><trkpt lat="44.8499817" lon="9.5248117"><ele>193.4</ele><time>2026-04-10T11:39:00.844Z</time></trkpt><trkpt lat="44.850015" lon="9.5249233"><ele>191.0</ele><time>2026-04-10T11:39:01.84Z</time></trkpt><trkpt lat="44.850015" lon="9.5250517"><ele>191.0</ele><time>2026-04-10T11:39:02.84Z</time></trkpt><trkpt lat="44.8499933" lon="9.5252"><ele>191.0</ele><time>2026-04-10T11:39:03.84Z</time></trkpt><trkpt lat="44.8499633" lon="9.52537"><ele>191.0</ele><time>2026-04-10T11:39:04.839Z</time></trkpt><trkpt lat="44.849925" lon="9.5255517"><ele>191.0</ele><time>2026-04-10T11:39:05.84Z</time></trkpt><trkpt lat="44.84988" lon="9.5257483"><ele>190.0</ele><time>2026-04-10T11:39:06.84Z</time></trkpt><trkpt lat="44.8498383" lon="9.525925"><ele>189.0</ele><time>2026-04-10T11:39:07.84Z</time></trkpt><trkpt lat="44.8498033" lon="9.5260833"><ele>188.0</ele><time>2026-04-10T11:39:08.841Z</time></trkpt><trkpt lat="44.8497717" lon="9.5262367"><ele>187.0</ele><time>2026-04-10T11:39:09.84Z</time></trkpt><trkpt lat="44.8497517" lon="9.526385"><ele>186.66666666666669</ele><time>2026-04-10T11:39:10.84Z</time></trkpt><trkpt lat="44.849745" lon="9.5265217"><ele>186.33333333333334</ele><time>2026-04-10T11:39:11.839Z</time></trkpt><trkpt lat="44.849745" lon="9.52665"><ele>186.0</ele><time>2026-04-10T11:39:12.839Z</time></trkpt><trkpt lat="44.8497517" lon="9.5267733"><ele>185.66666666666666</ele><time>2026-04-10T11:39:13.843Z</time></trkpt><trkpt lat="44.8497583" lon="9.526895"><ele>185.33333333333331</ele><time>2026-04-10T11:39:14.841Z</time></trkpt><trkpt lat="44.84976" lon="9.5270133"><ele>185.0</ele><time>2026-04-10T11:39:15.839Z</time></trkpt><trkpt lat="44.8497583" lon="9.5271267"><ele>184.8</ele><time>2026-04-10T11:39:16.841Z</time></trkpt><trkpt lat="44.8497533" lon="9.527235"><ele>184.6</ele><time>2026-04-10T11:39:17.84Z</time></trkpt><trkpt lat="44.849745" lon="9.527345"><ele>184.39999999999998</ele><time>2026-04-10T11:39:18.841Z</time></trkpt><trkpt lat="44.8497367" lon="9.5274817"><ele>184.2</ele><time>2026-04-10T11:39:19.839Z</time></trkpt><trkpt lat="44.8497317" lon="9.5276417"><ele>184.0</ele><time>2026-04-10T11:39:20.841Z</time></trkpt><trkpt lat="44.8497267" lon="9.5278167"><ele>183.66666666666669</ele><time>2026-04-10T11:39:21.84Z</time></trkpt><trkpt lat="44.8497283" lon="9.5280183"><ele>183.33333333333334</ele><time>2026-04-10T11:39:22.84Z</time></trkpt><trkpt lat="44.8497383" lon="9.5282333"><ele>183.0</ele><time>2026-04-10T11:39:23.847Z</time></trkpt><trkpt lat="44.84975" lon="9.5284517"><ele>183.0</ele><time>2026-04-10T11:39:24.842Z</time></trkpt><trkpt lat="44.8497683" lon="9.5286617"><ele>183.0</ele><time>2026-04-10T11:39:25.839Z</time></trkpt><trkpt lat="44.8497917" lon="9.5288517"><ele>183.0</ele><time>2026-04-10T11:39:26.843Z</time></trkpt><trkpt lat="44.849835" lon="9.5290283"><ele>183.0</ele><time>2026-04-10T11:39:27.84Z</time></trkpt><trkpt lat="44.8498883" lon="9.5292117"><ele>182.25</ele><time>2026-04-10T11:39:28.843Z</time></trkpt><trkpt lat="44.8499467" lon="9.5293933"><ele>181.5</ele><time>2026-04-10T11:39:29.841Z</time></trkpt><trkpt lat="44.8500083" lon="9.52957"><ele>180.75</ele><time>2026-04-10T11:39:30.842Z</time></trkpt><trkpt lat="44.8500683" lon="9.5297467"><ele>180.0</ele><time>2026-04-10T11:39:31.841Z</time></trkpt><trkpt lat="44.850125" lon="9.5299233"><ele>179.25</ele><time>2026-04-10T11:39:32.841Z</time></trkpt><trkpt lat="44.8501783" lon="9.53009"><ele>178.5</ele><time>2026-04-10T11:39:33.84Z</time></trkpt><trkpt lat="44.85023" lon="9.530245"><ele>177.75</ele><time>2026-04-10T11:39:34.84Z</time></trkpt><trkpt lat="44.850285" lon="9.5303783"><ele>177.0</ele><time>2026-04-10T11:39:35.84Z</time></trkpt><trkpt lat="44.8503583" lon="9.530475"><ele>176.6</ele><time>2026-04-10T11:39:36.84Z</time></trkpt><trkpt lat="44.8504483" lon="9.5305233"><ele>176.2</ele><time>2026-04-10T11:39:37.839Z</time></trkpt><trkpt lat="44.850545" lon="9.53054"><ele>175.8</ele><time>2026-04-10T11:39:38.839Z</time></trkpt><trkpt lat="44.8506333" lon="9.5305467"><ele>175.4</ele><time>2026-04-10T11:39:39.843Z</time></trkpt><trkpt lat="44.8507217" lon="9.530555"><ele>175.0</ele><time>2026-04-10T11:39:40.84Z</time></trkpt><trkpt lat="44.8508033" lon="9.5305633"><ele>175.0</ele><time>2026-04-10T11:39:41.84Z</time></trkpt><trkpt lat="44.8508817" lon="9.5305717"><ele>175.0</ele><time>2026-04-10T11:39:42.841Z</time></trkpt><trkpt lat="44.8509533" lon="9.5305867"><ele>175.0</ele><time>2026-04-10T11:39:43.84Z</time></trkpt><trkpt lat="44.8510217" lon="9.53061"><ele>175.0</ele><time>2026-04-10T11:39:44.844Z</time></trkpt><trkpt lat="44.851085" lon="9.5306383"><ele>175.0</ele><time>2026-04-10T11:39:45.839Z</time></trkpt><trkpt lat="44.8511467" lon="9.53067"><ele>175.0</ele><time>2026-04-10T11:39:46.839Z</time></trkpt><trkpt lat="44.851205" lon="9.5307133"><ele>175.0</ele><time>2026-04-10T11:39:47.839Z</time></trkpt><trkpt lat="44.85126" lon="9.5307717"><ele>175.14285714285714</ele><time>2026-04-10T11:39:48.839Z</time></trkpt><trkpt lat="44.851295" lon="9.5308467"><ele>175.28571428571428</ele><time>2026-04-10T11:39:49.841Z</time></trkpt><trkpt lat="44.851305" lon="9.5309383"><ele>175.42857142857144</ele><time>2026-04-10T11:39:50.84Z</time></trkpt><trkpt lat="44.851305" lon="9.531035"><ele>175.57142857142856</ele><time>2026-04-10T11:39:51.841Z</time></trkpt><trkpt lat="44.8513033" lon="9.53113"><ele>175.71428571428572</ele><time>2026-04-10T11:39:52.839Z</time></trkpt><trkpt lat="44.8513017" lon="9.53124"><ele>175.85714285714286</ele><time>2026-04-10T11:39:53.845Z</time></trkpt><trkpt lat="44.8513" lon="9.531365"><ele>176.0</ele><time>2026-04-10T11:39:54.841Z</time></trkpt><trkpt lat="44.8512967" lon="9.531525"><ele>175.5</ele><time>2026-04-10T11:39:55.839Z</time></trkpt><trkpt lat="44.8512883" lon="9.5316983"><ele>175.0</ele><time>2026-04-10T11:39:56.841Z</time></trkpt><trkpt lat="44.851285" lon="9.5318883"><ele>174.5</ele><time>2026-04-10T11:39:57.839Z</time></trkpt><trkpt lat="44.851285" lon="9.532075"><ele>174.0</ele><time>2026-04-10T11:39:58.844Z</time></trkpt><trkpt lat="44.8512867" lon="9.5322333"><ele>173.79999999999998</ele><time>2026-04-10T11:39:59.84Z</time></trkpt><trkpt lat="44.85129" lon="9.53238"><ele>173.6</ele><time>2026-04-10T11:40:00.841Z</time></trkpt><trkpt lat="44.8512933" lon="9.53253"><ele>173.4</ele><time>2026-04-10T11:40:01.84Z</time></trkpt><trkpt lat="44.85131" lon="9.5326717"><ele>173.2</ele><time>2026-04-10T11:40:02.841Z</time></trkpt><trkpt lat="44.8513683" lon="9.532795"><ele>173.0</ele><time>2026-04-10T11:40:03.839Z</time></trkpt><trkpt lat="44.8514567" lon="9.5328817"><ele>172.5</ele><time>2026-04-10T11:40:04.84Z</time></trkpt><trkpt lat="44.8515617" lon="9.5329233"><ele>172.0</ele><time>2026-04-10T11:40:05.839Z</time></trkpt><trkpt lat="44.8516833" lon="9.5329367"><ele>171.5</ele><time>2026-04-10T11:40:06.839Z</time></trkpt><trkpt lat="44.851815" lon="9.53295"><ele>171.0</ele><time>2026-04-10T11:40:07.841Z</time></trkpt><trkpt lat="44.8519533" lon="9.532975"><ele>171.0</ele><time>2026-04-10T11:40:08.842Z</time></trkpt><trkpt lat="44.8520967" lon="9.5330117"><ele>171.0</ele><time>2026-04-10T11:40:09.845Z</time></trkpt><trkpt lat="44.852235" lon="9.5330567"><ele>171.0</ele><time>2026-04-10T11:40:10.841Z</time></trkpt><trkpt lat="44.852375" lon="9.5330917"><ele>171.0</ele><time>2026-04-10T11:40:11.84Z</time></trkpt><trkpt lat="44.852515" lon="9.5331333"><ele>171.66666666666666</ele><time>2026-04-10T11:40:12.839Z</time></trkpt><trkpt lat="44.8526533" lon="9.5332"><ele>172.33333333333331</ele><time>2026-04-10T11:40:13.84Z</time></trkpt><trkpt lat="44.8527933" lon="9.5332867"><ele>173.0</ele><time>2026-04-10T11:40:14.84Z</time></trkpt><trkpt lat="44.8529383" lon="9.5333667"><ele>173.0</ele><time>2026-04-10T11:40:15.846Z</time></trkpt><trkpt lat="44.853085" lon="9.53342"><ele>173.0</ele><time>2026-04-10T11:40:16.841Z</time></trkpt><trkpt lat="44.85324" lon="9.53346"><ele>173.0</ele><time>2026-04-10T11:40:17.839Z</time></trkpt><trkpt lat="44.85339" lon="9.5335"><ele>172.75</ele><time>2026-04-10T11:40:18.839Z</time></trkpt><trkpt lat="44.8535317" lon="9.5335417"><ele>172.5</ele><time>2026-04-10T11:40:19.841Z</time></trkpt><trkpt lat="44.8536683" lon="9.5335783"><ele>172.25</ele><time>2026-04-10T11:40:20.841Z</time></trkpt><trkpt lat="44.8538033" lon="9.5336117"><ele>172.0</ele><time>2026-04-10T11:40:21.839Z</time></trkpt><trkpt lat="44.8539333" lon="9.5336517"><ele>172.0</ele><time>2026-04-10T11:40:22.845Z</time></trkpt><trkpt lat="44.8540533" lon="9.533695"><ele>172.0</ele><time>2026-04-10T11:40:23.84Z</time></trkpt><trkpt lat="44.8541733" lon="9.5337417"><ele>172.0</ele><time>2026-04-10T11:40:24.846Z</time></trkpt><trkpt lat="44.85429" lon="9.5337767"><ele>172.0</ele><time>2026-04-10T11:40:25.839Z</time></trkpt><trkpt lat="44.8544117" lon="9.5337917"><ele>172.75</ele><time>2026-04-10T11:40:26.84Z</time></trkpt><trkpt lat="44.8545367" lon="9.5337917"><ele>173.5</ele><time>2026-04-10T11:40:27.84Z</time></trkpt><trkpt lat="44.854665" lon="9.533775"><ele>174.25</ele><time>2026-04-10T11:40:28.839Z</time></trkpt><trkpt lat="44.8547933" lon="9.5337267"><ele>175.0</ele><time>2026-04-10T11:40:29.84Z</time></trkpt><trkpt lat="44.8549217" lon="9.5336533"><ele>175.0</ele><time>2026-04-10T11:40:30.84Z</time></trkpt><trkpt lat="44.8550467" lon="9.5335733"><ele>175.0</ele><time>2026-04-10T11:40:31.844Z</time></trkpt><trkpt lat="44.8551717" lon="9.5335033"><ele>175.0</ele><time>2026-04-10T11:40:32.84Z</time></trkpt><trkpt lat="44.8553017" lon="9.5334617"><ele>175.0</ele><time>2026-04-10T11:40:33.84Z</time></trkpt><trkpt lat="44.8554333" lon="9.5334417"><ele>177.25</ele><time>2026-04-10T11:40:34.841Z</time></trkpt><trkpt lat="44.85557" lon="9.5334317"><ele>179.5</ele><time>2026-04-10T11:40:35.841Z</time></trkpt><trkpt lat="44.8556967" lon="9.5334333"><ele>181.75</ele><time>2026-04-10T11:40:36.843Z</time></trkpt><trkpt lat="44.8558133" lon="9.5334683"><ele>184.0</ele><time>2026-04-10T11:40:37.84Z</time></trkpt><trkpt lat="44.855925" lon="9.5335367"><ele>182.25</ele><time>2026-04-10T11:40:38.84Z</time></trkpt><trkpt lat="44.856045" lon="9.5335933"><ele>180.5</ele><time>2026-04-10T11:40:39.841Z</time></trkpt><trkpt lat="44.8561717" lon="9.5336467"><ele>178.75</ele><time>2026-04-10T11:40:40.84Z</time></trkpt><trkpt lat="44.856305" lon="9.5337133"><ele>177.0</ele><time>2026-04-10T11:40:41.841Z</time></trkpt><trkpt lat="44.85645" lon="9.5338067"><ele>177.0</ele><time>2026-04-10T11:40:42.84Z</time></trkpt><trkpt lat="44.8566083" lon="9.53391"><ele>177.0</ele><time>2026-04-10T11:40:43.844Z</time></trkpt><trkpt lat="44.8567667" lon="9.5340233"><ele>177.0</ele><time>2026-04-10T11:40:44.842Z</time></trkpt><trkpt lat="44.8569183" lon="9.53414"><ele>178.0</ele><time>2026-04-10T11:40:45.84Z</time></trkpt><trkpt lat="44.8570633" lon="9.534275"><ele>179.0</ele><time>2026-04-10T11:40:46.84Z</time></trkpt><trkpt lat="44.8571983" lon="9.5344217"><ele>180.0</ele><time>2026-04-10T11:40:47.841Z</time></trkpt><trkpt lat="44.85732" lon="9.5345717"><ele>180.0</ele><time>2026-04-10T11:40:48.84Z</time></trkpt><trkpt lat="44.8574283" lon="9.5347233"><ele>180.0</ele><time>2026-04-10T11:40:49.841Z</time></trkpt><trkpt lat="44.8575233" lon="9.5348683"><ele>180.0</ele><time>2026-04-10T11:40:50.843Z</time></trkpt><trkpt lat="44.8576033" lon="9.5350033"><ele>180.0</ele><time>2026-04-10T11:40:51.84Z</time></trkpt><trkpt lat="44.8577" lon="9.5351283"><ele>179.25</ele><time>2026-04-10T11:40:52.842Z</time></trkpt><trkpt lat="44.8578117" lon="9.5352317"><ele>178.5</ele><time>2026-04-10T11:40:53.841Z</time></trkpt><trkpt lat="44.8579333" lon="9.53532"><ele>177.75</ele><time>2026-04-10T11:40:54.84Z</time></trkpt><trkpt lat="44.8580467" lon="9.535405"><ele>177.0</ele><time>2026-04-10T11:40:55.842Z</time></trkpt><trkpt lat="44.8581567" lon="9.53549"><ele>177.0</ele><time>2026-04-10T11:40:56.844Z</time></trkpt><trkpt lat="44.8582567" lon="9.53559"><ele>177.0</ele><time>2026-04-10T11:40:57.841Z</time></trkpt><trkpt lat="44.8583433" lon="9.5357183"><ele>177.0</ele><time>2026-04-10T11:40:58.84Z</time></trkpt><trkpt lat="44.8584233" lon="9.5358433"><ele>177.0</ele><time>2026-04-10T11:40:59.841Z</time></trkpt><trkpt lat="44.85852" lon="9.53594"><ele>180.75</ele><time>2026-04-10T11:41:00.84Z</time></trkpt><trkpt lat="44.8586333" lon="9.53601"><ele>184.5</ele><time>2026-04-10T11:41:01.841Z</time></trkpt><trkpt lat="44.8587567" lon="9.536075"><ele>188.25</ele><time>2026-04-10T11:41:02.844Z</time></trkpt><trkpt lat="44.8588867" lon="9.53614"><ele>192.0</ele><time>2026-04-10T11:41:03.84Z</time></trkpt><trkpt lat="44.859015" lon="9.53619"><ele>192.0</ele><time>2026-04-10T11:41:04.839Z</time></trkpt><trkpt lat="44.8591417" lon="9.53621"><ele>192.0</ele><time>2026-04-10T11:41:05.841Z</time></trkpt><trkpt lat="44.8592733" lon="9.5362033"><ele>192.0</ele><time>2026-04-10T11:41:06.842Z</time></trkpt><trkpt lat="44.8594117" lon="9.5362017"><ele>192.0</ele><time>2026-04-10T11:41:07.843Z</time></trkpt><trkpt lat="44.8595617" lon="9.5362167"><ele>192.0</ele><time>2026-04-10T11:41:08.841Z</time></trkpt><trkpt lat="44.85972" lon="9.53625"><ele>192.0</ele><time>2026-04-10T11:41:09.844Z</time></trkpt><trkpt lat="44.8598683" lon="9.5363083"><ele>192.0</ele><time>2026-04-10T11:41:10.839Z</time></trkpt><trkpt lat="44.8599917" lon="9.536395"><ele>192.0</ele><time>2026-04-10T11:41:11.841Z</time></trkpt><trkpt lat="44.8600683" lon="9.5365267"><ele>192.0</ele><time>2026-04-10T11:41:12.84Z</time></trkpt><trkpt lat="44.860105" lon="9.53666"><ele>192.0</ele><time>2026-04-10T11:41:13.84Z</time></trkpt><trkpt lat="44.860125" lon="9.5367733"><ele>192.0</ele><time>2026-04-10T11:41:14.839Z</time></trkpt><trkpt lat="44.8601467" lon="9.53688"><ele>192.0</ele><time>2026-04-10T11:41:15.84Z</time></trkpt><trkpt lat="44.8601617" lon="9.5370017"><ele>195.0</ele><time>2026-04-10T11:41:16.84Z</time></trkpt><trkpt lat="44.860175" lon="9.5371483"><ele>198.0</ele><time>2026-04-10T11:41:17.841Z</time></trkpt><trkpt lat="44.8601967" lon="9.5373183"><ele>201.0</ele><time>2026-04-10T11:41:18.842Z</time></trkpt><trkpt lat="44.8602283" lon="9.5375017"><ele>204.0</ele><time>2026-04-10T11:41:19.84Z</time></trkpt><trkpt lat="44.8602667" lon="9.5376933"><ele>203.75</ele><time>2026-04-10T11:41:20.844Z</time></trkpt><trkpt lat="44.8603083" lon="9.5378917"><ele>203.5</ele><time>2026-04-10T11:41:21.845Z</time></trkpt><trkpt lat="44.8603483" lon="9.5380883"><ele>203.25</ele><time>2026-04-10T11:41:22.84Z</time></trkpt><trkpt lat="44.8603867" lon="9.5382783"><ele>203.0</ele><time>2026-04-10T11:41:23.84Z</time></trkpt><trkpt lat="44.8604167" lon="9.538455"><ele>203.0</ele><time>2026-04-10T11:41:24.84Z</time></trkpt><trkpt lat="44.8604483" lon="9.5386233"><ele>203.0</ele><time>2026-04-10T11:41:25.839Z</time></trkpt><trkpt lat="44.860485" lon="9.53878"><ele>203.0</ele><time>2026-04-10T11:41:26.842Z</time></trkpt><trkpt lat="44.8605333" lon="9.53891"><ele>203.0</ele><time>2026-04-10T11:41:27.84Z</time></trkpt><trkpt lat="44.860585" lon="9.53903"><ele>203.0</ele><time>2026-04-10T11:41:28.841Z</time></trkpt><trkpt lat="44.860635" lon="9.53915"><ele>202.4</ele><time>2026-04-10T11:41:29.841Z</time></trkpt><trkpt lat="44.8606733" lon="9.5392783"><ele>201.8</ele><time>2026-04-10T11:41:30.84Z</time></trkpt><trkpt lat="44.8606833" lon="9.539415"><ele>201.2</ele><time>2026-04-10T11:41:31.841Z</time></trkpt><trkpt lat="44.860665" lon="9.53955"><ele>200.6</ele><time>2026-04-10T11:41:32.839Z</time></trkpt><trkpt lat="44.86063" lon="9.5396833"><ele>200.0</ele><time>2026-04-10T11:41:33.84Z</time></trkpt><trkpt lat="44.8605933" lon="9.5398217"><ele>199.6</ele><time>2026-04-10T11:41:34.838Z</time></trkpt><trkpt lat="44.86057" lon="9.5399617"><ele>199.2</ele><time>2026-04-10T11:41:35.839Z</time></trkpt><trkpt lat="44.86057" lon="9.5401067"><ele>198.8</ele><time>2026-04-10T11:41:36.838Z</time></trkpt><trkpt lat="44.860595" lon="9.54025"><ele>198.4</ele><time>2026-04-10T11:41:37.841Z</time></trkpt><trkpt lat="44.86064" lon="9.540385"><ele>198.0</ele><time>2026-04-10T11:41:38.842Z</time></trkpt><trkpt lat="44.8607" lon="9.5405117"><ele>196.75</ele><time>2026-04-10T11:41:39.842Z</time></trkpt><trkpt lat="44.8607667" lon="9.5406383"><ele>195.5</ele><time>2026-04-10T11:41:40.841Z</time></trkpt><trkpt lat="44.86084" lon="9.540765"><ele>194.25</ele><time>2026-04-10T11:41:41.841Z</time></trkpt><trkpt lat="44.8609117" lon="9.5408883"><ele>193.0</ele><time>2026-04-10T11:41:42.841Z</time></trkpt><trkpt lat="44.8609817" lon="9.54101"><ele>193.0</ele><time>2026-04-10T11:41:43.841Z</time></trkpt><trkpt lat="44.8610517" lon="9.5411267"><ele>193.0</ele><time>2026-04-10T11:41:44.843Z</time></trkpt><trkpt lat="44.86112" lon="9.5412267"><ele>193.0</ele><time>2026-04-10T11:41:45.84Z</time></trkpt><trkpt lat="44.8611933" lon="9.5413217"><ele>193.0</ele><time>2026-04-10T11:41:46.839Z</time></trkpt><trkpt lat="44.8612617" lon="9.5414183"><ele>193.0</ele><time>2026-04-10T11:41:47.839Z</time></trkpt><trkpt lat="44.8613267" lon="9.541515"><ele>191.99999999999997</ele><time>2026-04-10T11:41:48.84Z</time></trkpt><trkpt lat="44.8613883" lon="9.5416133"><ele>191.0</ele><time>2026-04-10T11:41:49.84Z</time></trkpt><trkpt lat="44.86145" lon="9.541705"><ele>190.0</ele><time>2026-04-10T11:41:50.841Z</time></trkpt><trkpt lat="44.8615117" lon="9.5417917"><ele>189.0</ele><time>2026-04-10T11:41:51.842Z</time></trkpt><trkpt lat="44.86157" lon="9.541885"><ele>188.0</ele><time>2026-04-10T11:41:52.839Z</time></trkpt><trkpt lat="44.86163" lon="9.5419717"><ele>187.0</ele><time>2026-04-10T11:41:53.839Z</time></trkpt><trkpt lat="44.86168" lon="9.5420633"><ele>186.5</ele><time>2026-04-10T11:41:54.838Z</time></trkpt><trkpt lat="44.8617167" lon="9.542185"><ele>186.0</ele><time>2026-04-10T11:41:55.84Z</time></trkpt><trkpt lat="44.86174" lon="9.542315"><ele>185.5</ele><time>2026-04-10T11:41:56.839Z</time></trkpt><trkpt lat="44.86177" lon="9.5424333"><ele>185.0</ele><time>2026-04-10T11:41:57.84Z</time></trkpt><trkpt lat="44.8618083" lon="9.542545"><ele>184.5</ele><time>2026-04-10T11:41:58.839Z</time></trkpt><trkpt lat="44.8618433" lon="9.5426467"><ele>184.0</ele><time>2026-04-10T11:41:59.84Z</time></trkpt><trkpt lat="44.8618567" lon="9.5427517"><ele>183.83333333333334</ele><time>2026-04-10T11:42:00.84Z</time></trkpt><trkpt lat="44.86185" lon="9.5428567"><ele>183.66666666666669</ele><time>2026-04-10T11:42:01.841Z</time></trkpt><trkpt lat="44.8618267" lon="9.5429533"><ele>183.5</ele><time>2026-04-10T11:42:02.842Z</time></trkpt><trkpt lat="44.8617917" lon="9.5430383"><ele>183.33333333333334</ele><time>2026-04-10T11:42:03.844Z</time></trkpt><trkpt lat="44.8617233" lon="9.5431617"><ele>183.16666666666666</ele><time>2026-04-10T11:42:05.842Z</time></trkpt><trkpt lat="44.861665" lon="9.5432517"><ele>183.0</ele><time>2026-04-10T11:42:09.84Z</time></trkpt><trkpt lat="44.86163" lon="9.5433533"><ele>182.4</ele><time>2026-04-10T11:42:12.841Z</time></trkpt><trkpt lat="44.86169" lon="9.5432983"><ele>181.8</ele><time>2026-04-10T11:49:43.84Z</time></trkpt><trkpt lat="44.86176" lon="9.543265"><ele>181.2</ele><time>2026-04-10T11:50:24.839Z</time></trkpt><trkpt lat="44.8616617" lon="9.5434117"><ele>180.6</ele><time>2026-04-10T11:50:31.845Z</time></trkpt><trkpt lat="44.8616033" lon="9.54352"><ele>180.0</ele><time>2026-04-10T11:50:32.839Z</time></trkpt><trkpt lat="44.8615517" lon="9.5436217"><ele>179.16666666666666</ele><time>2026-04-10T11:50:33.841Z</time></trkpt><trkpt lat="44.8614767" lon="9.54373"><ele>178.33333333333334</ele><time>2026-04-10T11:50:34.84Z</time></trkpt><trkpt lat="44.8614417" lon="9.543805"><ele>177.5</ele><time>2026-04-10T11:50:35.84Z</time></trkpt><trkpt lat="44.861485" lon="9.5439483"><ele>176.66666666666669</ele><time>2026-04-10T11:50:37.84Z</time></trkpt><trkpt lat="44.861545" lon="9.54402"><ele>175.83333333333334</ele><time>2026-04-10T11:50:38.841Z</time></trkpt><trkpt lat="44.8616" lon="9.544095"><ele>175.0</ele><time>2026-04-10T11:50:39.84Z</time></trkpt><trkpt lat="44.8616617" lon="9.5441717"><ele>175.0</ele><time>2026-04-10T11:50:40.84Z</time></trkpt><trkpt lat="44.8617267" lon="9.5442383"><ele>175.0</ele><time>2026-04-10T11:50:41.838Z</time></trkpt><trkpt lat="44.8617933" lon="9.54431"><ele>175.0</ele><time>2026-04-10T11:50:42.842Z</time></trkpt><trkpt lat="44.861865" lon="9.54439"><ele>175.0</ele><time>2026-04-10T11:50:43.839Z</time></trkpt><trkpt lat="44.8619483" lon="9.544475"><ele>175.0</ele><time>2026-04-10T11:50:44.839Z</time></trkpt><trkpt lat="44.8620433" lon="9.5445667"><ele>175.25</ele><time>2026-04-10T11:50:45.84Z</time></trkpt><trkpt lat="44.8621383" lon="9.544665"><ele>175.5</ele><time>2026-04-10T11:50:46.841Z</time></trkpt><trkpt lat="44.8622367" lon="9.544765"><ele>175.75</ele><time>2026-04-10T11:50:47.839Z</time></trkpt><trkpt lat="44.8623367" lon="9.544865"><ele>176.0</ele><time>2026-04-10T11:50:48.841Z</time></trkpt><trkpt lat="44.8624367" lon="9.54497"><ele>176.0</ele><time>2026-04-10T11:50:49.84Z</time></trkpt><trkpt lat="44.8625367" lon="9.5450767"><ele>176.0</ele><time>2026-04-10T11:50:50.842Z</time></trkpt><trkpt lat="44.86264" lon="9.545175"><ele>176.0</ele><time>2026-04-10T11:50:51.84Z</time></trkpt><trkpt lat="44.862745" lon="9.5452683"><ele>176.0</ele><time>2026-04-10T11:50:52.84Z</time></trkpt><trkpt lat="44.8628517" lon="9.5453583"><ele>175.5</ele><time>2026-04-10T11:50:53.84Z</time></trkpt><trkpt lat="44.862965" lon="9.5454467"><ele>175.0</ele><time>2026-04-10T11:50:54.84Z</time></trkpt><trkpt lat="44.863085" lon="9.5455267"><ele>174.5</ele><time>2026-04-10T11:50:55.84Z</time></trkpt><trkpt lat="44.86321" lon="9.5455983"><ele>174.0</ele><time>2026-04-10T11:50:56.841Z</time></trkpt><trkpt lat="44.8633383" lon="9.545675"><ele>174.25</ele><time>2026-04-10T11:50:57.842Z</time></trkpt><trkpt lat="44.86347" lon="9.5457583"><ele>174.5</ele><time>2026-04-10T11:50:58.84Z</time></trkpt><trkpt lat="44.8636067" lon="9.5458467"><ele>174.75</ele><time>2026-04-10T11:50:59.839Z</time></trkpt><trkpt lat="44.8637483" lon="9.5459167"><ele>175.0</ele><time>2026-04-10T11:51:00.839Z</time></trkpt><trkpt lat="44.8638917" lon="9.5459683"><ele>175.0</ele><time>2026-04-10T11:51:01.838Z</time></trkpt><trkpt lat="44.864025" lon="9.54601"><ele>175.0</ele><time>2026-04-10T11:51:02.84Z</time></trkpt><trkpt lat="44.8641567" lon="9.54605"><ele>175.0</ele><time>2026-04-10T11:51:03.839Z</time></trkpt><trkpt lat="44.8642917" lon="9.546085"><ele>175.0</ele><time>2026-04-10T11:51:04.839Z</time></trkpt><trkpt lat="44.86443" lon="9.5461167"><ele>175.0</ele><time>2026-04-10T11:51:05.843Z</time></trkpt><trkpt lat="44.8645683" lon="9.5461517"><ele>175.0</ele><time>2026-04-10T11:51:06.838Z</time></trkpt><trkpt lat="44.8647067" lon="9.546185"><ele>175.0</ele><time>2026-04-10T11:51:07.838Z</time></trkpt><trkpt lat="44.864845" lon="9.54622"><ele>175.0</ele><time>2026-04-10T11:51:08.839Z</time></trkpt><trkpt lat="44.8649817" lon="9.546255"><ele>174.5</ele><time>2026-04-10T11:51:09.839Z</time></trkpt><trkpt lat="44.8651183" lon="9.5462883"><ele>174.0</ele><time>2026-04-10T11:51:10.84Z</time></trkpt><trkpt lat="44.865255" lon="9.5463217"><ele>173.5</ele><time>2026-04-10T11:51:11.839Z</time></trkpt><trkpt lat="44.86539" lon="9.5463483"><ele>173.0</ele><time>2026-04-10T11:51:12.841Z</time></trkpt><trkpt lat="44.8655267" lon="9.546375"><ele>173.0</ele><time>2026-04-10T11:51:13.84Z</time></trkpt><trkpt lat="44.865665" lon="9.546405"><ele>173.0</ele><time>2026-04-10T11:51:14.84Z</time></trkpt><trkpt lat="44.8658017" lon="9.5464333"><ele>173.0</ele><time>2026-04-10T11:51:15.841Z</time></trkpt><trkpt lat="44.8659283" lon="9.546465"><ele>173.0</ele><time>2026-04-10T11:51:16.84Z</time></trkpt><trkpt lat="44.8660583" lon="9.5465133"><ele>173.0</ele><time>2026-04-10T11:51:17.84Z</time></trkpt><trkpt lat="44.8661917" lon="9.5465667"><ele>173.0</ele><time>2026-04-10T11:51:18.841Z</time></trkpt><trkpt lat="44.8663283" lon="9.546615"><ele>173.0</ele><time>2026-04-10T11:51:19.842Z</time></trkpt><trkpt lat="44.8664617" lon="9.5466667"><ele>173.0</ele><time>2026-04-10T11:51:20.841Z</time></trkpt><trkpt lat="44.866595" lon="9.5467167"><ele>173.0</ele><time>2026-04-10T11:51:21.841Z</time></trkpt><trkpt lat="44.8667283" lon="9.5467683"><ele>173.0</ele><time>2026-04-10T11:51:22.84Z</time></trkpt><trkpt lat="44.86686" lon="9.5468183"><ele>173.0</ele><time>2026-04-10T11:51:23.841Z</time></trkpt><trkpt lat="44.8669917" lon="9.54687"><ele>173.0</ele><time>2026-04-10T11:51:24.84Z</time></trkpt><trkpt lat="44.86712" lon="9.5469267"><ele>173.0</ele><time>2026-04-10T11:51:25.84Z</time></trkpt><trkpt lat="44.867245" lon="9.546995"><ele>173.0</ele><time>2026-04-10T11:51:26.839Z</time></trkpt><trkpt lat="44.8673683" lon="9.5470817"><ele>173.0</ele><time>2026-04-10T11:51:27.842Z</time></trkpt><trkpt lat="44.8674867" lon="9.547175"><ele>173.0</ele><time>2026-04-10T11:51:28.839Z</time></trkpt><trkpt lat="44.867605" lon="9.54727"><ele>172.25</ele><time>2026-04-10T11:51:29.841Z</time></trkpt><trkpt lat="44.8677283" lon="9.5473517"><ele>171.5</ele><time>2026-04-10T11:51:30.84Z</time></trkpt><trkpt lat="44.8678533" lon="9.5474233"><ele>170.75</ele><time>2026-04-10T11:51:31.843Z</time></trkpt><trkpt lat="44.8679833" lon="9.5474917"><ele>170.0</ele><time>2026-04-10T11:51:32.84Z</time></trkpt><trkpt lat="44.8681117" lon="9.5475567"><ele>170.0</ele><time>2026-04-10T11:51:33.84Z</time></trkpt><trkpt lat="44.8682383" lon="9.5476133"><ele>170.0</ele><time>2026-04-10T11:51:34.839Z</time></trkpt><trkpt lat="44.8683617" lon="9.5476633"><ele>170.0</ele><time>2026-04-10T11:51:35.84Z</time></trkpt><trkpt lat="44.868485" lon="9.5477183"><ele>170.0</ele><time>2026-04-10T11:51:36.84Z</time></trkpt><trkpt lat="44.8686133" lon="9.5477667"><ele>170.25</ele><time>2026-04-10T11:51:37.84Z</time></trkpt><trkpt lat="44.8687517" lon="9.5478167"><ele>170.5</ele><time>2026-04-10T11:51:38.841Z</time></trkpt><trkpt lat="44.8688867" lon="9.5478733"><ele>170.75</ele><time>2026-04-10T11:51:39.84Z</time></trkpt><trkpt lat="44.8690217" lon="9.5479333"><ele>171.0</ele><time>2026-04-10T11:51:40.839Z</time></trkpt><trkpt lat="44.8691567" lon="9.5479917"><ele>171.0</ele><time>2026-04-10T11:51:41.84Z</time></trkpt><trkpt lat="44.869305" lon="9.5480583"><ele>171.0</ele><time>2026-04-10T11:51:42.843Z</time></trkpt><trkpt lat="44.86946" lon="9.5481333"><ele>171.0</ele><time>2026-04-10T11:51:43.841Z</time></trkpt><trkpt lat="44.8696183" lon="9.5482133"><ele>171.0</ele><time>2026-04-10T11:51:44.841Z</time></trkpt><trkpt lat="44.8697833" lon="9.54829"><ele>171.0</ele><time>2026-04-10T11:51:45.84Z</time></trkpt><trkpt lat="44.8699517" lon="9.5483633"><ele>171.0</ele><time>2026-04-10T11:51:46.84Z</time></trkpt><trkpt lat="44.8701217" lon="9.54843"><ele>170.66666666666666</ele><time>2026-04-10T11:51:47.84Z</time></trkpt><trkpt lat="44.8702917" lon="9.5484967"><ele>170.33333333333331</ele><time>2026-04-10T11:51:48.84Z</time></trkpt><trkpt lat="44.8704648" lon="9.5485592"><ele>170.0</ele><time>2026-04-10T11:51:49.842Z</time></trkpt><trkpt lat="44.870637" lon="9.548613"><ele>170.0</ele><time>2026-04-10T11:51:50.841Z</time></trkpt><trkpt lat="44.8708102" lon="9.5486639"><ele>170.0</ele><time>2026-04-10T11:51:51.841Z</time></trkpt><trkpt lat="44.8709853" lon="9.5487095"><ele>170.0</ele><time>2026-04-10T11:51:52.842Z</time></trkpt><trkpt lat="44.8711613" lon="9.548751"><ele>170.0</ele><time>2026-04-10T11:51:53.84Z</time></trkpt><trkpt lat="44.8713339" lon="9.5487876"><ele>170.0</ele><time>2026-04-10T11:51:54.84Z</time></trkpt><trkpt lat="44.871504" lon="9.5488122"><ele>170.0</ele><time>2026-04-10T11:51:55.839Z</time></trkpt><trkpt lat="44.8716688" lon="9.5488145"><ele>170.0</ele><time>2026-04-10T11:51:56.839Z</time></trkpt><trkpt lat="44.8718339" lon="9.5487953"><ele>170.0</ele><time>2026-04-10T11:51:57.85Z</time></trkpt><trkpt lat="44.8719979" lon="9.5487684"><ele>170.0</ele><time>2026-04-10T11:51:58.841Z</time></trkpt><trkpt lat="44.8721618" lon="9.5487435"><ele>170.0</ele><time>2026-04-10T11:51:59.841Z</time></trkpt><trkpt lat="44.8723208" lon="9.5487139"><ele>170.0</ele><time>2026-04-10T11:52:00.84Z</time></trkpt><trkpt lat="44.8724674" lon="9.5486722"><ele>170.0</ele><time>2026-04-10T11:52:01.84Z</time></trkpt><trkpt lat="44.8726064" lon="9.5486181"><ele>169.75</ele><time>2026-04-10T11:52:02.841Z</time></trkpt><trkpt lat="44.8727351" lon="9.5485296"><ele>169.5</ele><time>2026-04-10T11:52:03.84Z</time></trkpt><trkpt lat="44.8728526" lon="9.54841"><ele>169.25</ele><time>2026-04-10T11:52:04.843Z</time></trkpt><trkpt lat="44.8729507" lon="9.5482728"><ele>169.0</ele><time>2026-04-10T11:52:05.842Z</time></trkpt><trkpt lat="44.8730326" lon="9.5481396"><ele>169.0</ele><time>2026-04-10T11:52:06.839Z</time></trkpt><trkpt lat="44.873107" lon="9.548023"><ele>169.0</ele><time>2026-04-10T11:52:07.84Z</time></trkpt><trkpt lat="44.8731873" lon="9.5479456"><ele>169.0</ele><time>2026-04-10T11:52:08.839Z</time></trkpt><trkpt lat="44.873284" lon="9.5479058"><ele>169.0</ele><time>2026-04-10T11:52:09.84Z</time></trkpt><trkpt lat="44.8733902" lon="9.5478933"><ele>169.0</ele><time>2026-04-10T11:52:10.839Z</time></trkpt><trkpt lat="44.8734922" lon="9.54791"><ele>173.5</ele><time>2026-04-10T11:52:11.844Z</time></trkpt><trkpt lat="44.8735715" lon="9.5479832"><ele>178.0</ele><time>2026-04-10T11:52:12.839Z</time></trkpt><trkpt lat="44.8736185" lon="9.5481266"><ele>182.5</ele><time>2026-04-10T11:52:13.841Z</time></trkpt><trkpt lat="44.8736378" lon="9.5483079"><ele>187.0</ele><time>2026-04-10T11:52:14.841Z</time></trkpt><trkpt lat="44.8736371" lon="9.5485033"><ele>187.0</ele><time>2026-04-10T11:52:15.84Z</time></trkpt><trkpt lat="44.873637" lon="9.548693"><ele>187.0</ele><time>2026-04-10T11:52:16.84Z</time></trkpt><trkpt lat="44.8736526" lon="9.5488629"><ele>187.0</ele><time>2026-04-10T11:52:17.847Z</time></trkpt><trkpt lat="44.8736886" lon="9.5490234"><ele>187.0</ele><time>2026-04-10T11:52:18.839Z</time></trkpt><trkpt lat="44.8737498" lon="9.5491859"><ele>184.25</ele><time>2026-04-10T11:52:19.842Z</time></trkpt><trkpt lat="44.8738375" lon="9.5493358"><ele>181.5</ele><time>2026-04-10T11:52:20.84Z</time></trkpt><trkpt lat="44.8739519" lon="9.5494709"><ele>178.75</ele><time>2026-04-10T11:52:21.839Z</time></trkpt><trkpt lat="44.874087" lon="9.5495864"><ele>176.0</ele><time>2026-04-10T11:52:22.84Z</time></trkpt><trkpt lat="44.8742303" lon="9.5496803"><ele>173.33333333333331</ele><time>2026-04-10T11:52:23.839Z</time></trkpt><trkpt lat="44.8743817" lon="9.5497478"><ele>170.66666666666666</ele><time>2026-04-10T11:52:24.841Z</time></trkpt><trkpt lat="44.8745322" lon="9.5498005"><ele>168.0</ele><time>2026-04-10T11:52:25.84Z</time></trkpt><trkpt lat="44.8746765" lon="9.5498595"><ele>168.0</ele><time>2026-04-10T11:52:26.84Z</time></trkpt><trkpt lat="44.8748149" lon="9.5499213"><ele>168.0</ele><time>2026-04-10T11:52:27.84Z</time></trkpt><trkpt lat="44.8749441" lon="9.5499666"><ele>168.0</ele><time>2026-04-10T11:52:28.84Z</time></trkpt><trkpt lat="44.875064" lon="9.5499692"><ele>168.0</ele><time>2026-04-10T11:52:29.839Z</time></trkpt><trkpt lat="44.8751656" lon="9.5499088"><ele>168.75</ele><time>2026-04-10T11:52:30.84Z</time></trkpt><trkpt lat="44.8752404" lon="9.5497831"><ele>169.5</ele><time>2026-04-10T11:52:31.839Z</time></trkpt><trkpt lat="44.875279" lon="9.5496155"><ele>170.25</ele><time>2026-04-10T11:52:32.84Z</time></trkpt><trkpt lat="44.8753024" lon="9.5494512"><ele>171.0</ele><time>2026-04-10T11:52:33.842Z</time></trkpt><trkpt lat="44.8753429" lon="9.5493378"><ele>171.25</ele><time>2026-04-10T11:52:34.841Z</time></trkpt><trkpt lat="44.8754136" lon="9.5492838"><ele>171.5</ele><time>2026-04-10T11:52:35.839Z</time></trkpt><trkpt lat="44.875515" lon="9.5492872"><ele>171.75</ele><time>2026-04-10T11:52:36.84Z</time></trkpt><trkpt lat="44.8756467" lon="9.5493583"><ele>172.0</ele><time>2026-04-10T11:52:37.839Z</time></trkpt><trkpt lat="44.8757733" lon="9.54943"><ele>172.0</ele><time>2026-04-10T11:52:38.845Z</time></trkpt><trkpt lat="44.87588" lon="9.5494833"><ele>172.0</ele><time>2026-04-10T11:52:39.84Z</time></trkpt><trkpt lat="44.8759483" lon="9.5494883"><ele>172.0</ele><time>2026-04-10T11:52:40.841Z</time></trkpt><trkpt lat="44.8760183" lon="9.5494133"><ele>172.0</ele><time>2026-04-10T11:52:42.839Z</time></trkpt><trkpt lat="44.876065" lon="9.5492267"><ele>172.0</ele><time>2026-04-10T11:52:44.841Z</time></trkpt><trkpt lat="44.8760983" lon="9.5490833"><ele>177.25</ele><time>2026-04-10T11:52:45.84Z</time></trkpt><trkpt lat="44.876135" lon="9.5489417"><ele>182.5</ele><time>2026-04-10T11:52:46.841Z</time></trkpt><trkpt lat="44.8761617" lon="9.548785"><ele>187.75</ele><time>2026-04-10T11:52:47.84Z</time></trkpt><trkpt lat="44.8761767" lon="9.5486217"><ele>193.0</ele><time>2026-04-10T11:52:48.842Z</time></trkpt><trkpt lat="44.87619" lon="9.5484633"><ele>193.0</ele><time>2026-04-10T11:52:49.84Z</time></trkpt><trkpt lat="44.8762067" lon="9.5483117"><ele>193.0</ele><time>2026-04-10T11:52:50.841Z</time></trkpt><trkpt lat="44.876235" lon="9.5481517"><ele>193.0</ele><time>2026-04-10T11:52:51.839Z</time></trkpt><trkpt lat="44.8762633" lon="9.5479967"><ele>193.0</ele><time>2026-04-10T11:52:52.839Z</time></trkpt><trkpt lat="44.8763" lon="9.5478433"><ele>193.2</ele><time>2026-04-10T11:52:53.841Z</time></trkpt><trkpt lat="44.8763433" lon="9.5477033"><ele>193.4</ele><time>2026-04-10T11:52:54.842Z</time></trkpt><trkpt lat="44.876395" lon="9.5475733"><ele>193.6</ele><time>2026-04-10T11:52:55.841Z</time></trkpt><trkpt lat="44.87646" lon="9.5474517"><ele>193.79999999999998</ele><time>2026-04-10T11:52:56.842Z</time></trkpt><trkpt lat="44.8765333" lon="9.5473317"><ele>194.0</ele><time>2026-04-10T11:52:57.84Z</time></trkpt><trkpt lat="44.8766033" lon="9.5472167"><ele>194.0</ele><time>2026-04-10T11:52:58.84Z</time></trkpt><trkpt lat="44.8766633" lon="9.547085"><ele>194.0</ele><time>2026-04-10T11:52:59.84Z</time></trkpt><trkpt lat="44.87671" lon="9.5469383"><ele>194.0</ele><time>2026-04-10T11:53:00.84Z</time></trkpt><trkpt lat="44.8767467" lon="9.5467783"><ele>194.0</ele><time>2026-04-10T11:53:01.841Z</time></trkpt><trkpt lat="44.8767767" lon="9.5466167"><ele>198.25</ele><time>2026-04-10T11:53:02.84Z</time></trkpt><trkpt lat="44.8768" lon="9.5464483"><ele>202.5</ele><time>2026-04-10T11:53:03.839Z</time></trkpt><trkpt lat="44.876825" lon="9.54627"><ele>206.75</ele><time>2026-04-10T11:53:04.841Z</time></trkpt><trkpt lat="44.8768433" lon="9.54609"><ele>211.0</ele><time>2026-04-10T11:53:05.84Z</time></trkpt><trkpt lat="44.8768467" lon="9.5459067"><ele>211.0</ele><time>2026-04-10T11:53:06.841Z</time></trkpt><trkpt lat="44.8768383" lon="9.5457283"><ele>211.0</ele><time>2026-04-10T11:53:07.841Z</time></trkpt><trkpt lat="44.8768283" lon="9.5455783"><ele>211.0</ele><time>2026-04-10T11:53:08.841Z</time></trkpt><trkpt lat="44.8768283" lon="9.5454517"><ele>211.0</ele><time>2026-04-10T11:53:09.846Z</time></trkpt><trkpt lat="44.8768417" lon="9.5453267"><ele>211.0</ele><time>2026-04-10T11:53:10.841Z</time></trkpt><trkpt lat="44.8768817" lon="9.545215"><ele>210.20000000000002</ele><time>2026-04-10T11:53:11.841Z</time></trkpt><trkpt lat="44.8769483" lon="9.5451033"><ele>209.4</ele><time>2026-04-10T11:53:12.84Z</time></trkpt><trkpt lat="44.877025" lon="9.5449967"><ele>208.6</ele><time>2026-04-10T11:53:13.842Z</time></trkpt><trkpt lat="44.8771" lon="9.5449067"><ele>207.8</ele><time>2026-04-10T11:53:14.842Z</time></trkpt><trkpt lat="44.87717" lon="9.5448417"><ele>207.0</ele><time>2026-04-10T11:53:15.84Z</time></trkpt><trkpt lat="44.8772417" lon="9.5448"><ele>207.0</ele><time>2026-04-10T11:53:16.841Z</time></trkpt><trkpt lat="44.8773817" lon="9.5447683"><ele>207.0</ele><time>2026-04-10T11:53:18.84Z</time></trkpt><trkpt lat="44.8774502" lon="9.5447395"><ele>207.0</ele><time>2026-04-10T11:53:19.841Z</time></trkpt><trkpt lat="44.8775156" lon="9.5446973"><ele>207.0</ele><time>2026-04-10T11:53:20.84Z</time></trkpt><trkpt lat="44.8775771" lon="9.5446272"><ele>207.0</ele><time>2026-04-10T11:53:21.841Z</time></trkpt><trkpt lat="44.8776405" lon="9.5445344"><ele>209.25</ele><time>2026-04-10T11:53:22.839Z</time></trkpt><trkpt lat="44.877713" lon="9.5444001"><ele>211.5</ele><time>2026-04-10T11:53:23.841Z</time></trkpt><trkpt lat="44.8778145" lon="9.5442199"><ele>213.75</ele><time>2026-04-10T11:53:24.84Z</time></trkpt><trkpt lat="44.8779195" lon="9.5440375"><ele>216.0</ele><time>2026-04-10T11:53:25.841Z</time></trkpt><trkpt lat="44.878023" lon="9.5438598"><ele>213.0</ele><time>2026-04-10T11:53:26.841Z</time></trkpt><trkpt lat="44.8781239" lon="9.5436942"><ele>210.0</ele><time>2026-04-10T11:53:27.846Z</time></trkpt><trkpt lat="44.8782198" lon="9.5435436"><ele>207.0</ele><time>2026-04-10T11:53:28.841Z</time></trkpt><trkpt lat="44.8783125" lon="9.5433934"><ele>204.0</ele><time>2026-04-10T11:53:29.839Z</time></trkpt><trkpt lat="44.8783943" lon="9.5432411"><ele>205.5</ele><time>2026-04-10T11:53:30.839Z</time></trkpt><trkpt lat="44.8784666" lon="9.543101"><ele>207.0</ele><time>2026-04-10T11:53:31.84Z</time></trkpt><trkpt lat="44.8785373" lon="9.5429846"><ele>208.5</ele><time>2026-04-10T11:53:32.841Z</time></trkpt><trkpt lat="44.8786157" lon="9.5428815"><ele>210.0</ele><time>2026-04-10T11:53:33.841Z</time></trkpt><trkpt lat="44.8787085" lon="9.5427772"><ele>210.0</ele><time>2026-04-10T11:53:34.841Z</time></trkpt><trkpt lat="44.8788156" lon="9.542665"><ele>210.0</ele><time>2026-04-10T11:53:35.839Z</time></trkpt><trkpt lat="44.8789328" lon="9.5425496"><ele>210.0</ele><time>2026-04-10T11:53:36.84Z</time></trkpt><trkpt lat="44.879056" lon="9.542438"><ele>210.0</ele><time>2026-04-10T11:53:37.84Z</time></trkpt><trkpt lat="44.8791763" lon="9.5423375"><ele>211.6</ele><time>2026-04-10T11:53:38.842Z</time></trkpt><trkpt lat="44.8792832" lon="9.542246"><ele>213.2</ele><time>2026-04-10T11:53:39.84Z</time></trkpt><trkpt lat="44.8793722" lon="9.5421783"><ele>214.8</ele><time>2026-04-10T11:53:40.842Z</time></trkpt><trkpt lat="44.8794519" lon="9.5421233"><ele>216.4</ele><time>2026-04-10T11:53:41.841Z</time></trkpt><trkpt lat="44.8795175" lon="9.5420922"><ele>218.0</ele><time>2026-04-10T11:53:42.841Z</time></trkpt><trkpt lat="44.8796024" lon="9.5421308"><ele>218.00000000000003</ele><time>2026-04-10T11:53:44.84Z</time></trkpt><trkpt lat="44.8796614" lon="9.5422021"><ele>218.0</ele><time>2026-04-10T11:53:45.84Z</time></trkpt><trkpt lat="44.8797284" lon="9.5422581"><ele>218.0</ele><time>2026-04-10T11:53:46.84Z</time></trkpt><trkpt lat="44.8797954" lon="9.5422805"><ele>218.0</ele><time>2026-04-10T11:53:47.841Z</time></trkpt><trkpt lat="44.8798621" lon="9.5422598"><ele>218.00000000000003</ele><time>2026-04-10T11:53:48.84Z</time></trkpt><trkpt lat="44.8799365" lon="9.5421921"><ele>218.0</ele><time>2026-04-10T11:53:49.84Z</time></trkpt><trkpt lat="44.8800378" lon="9.5420581"><ele>219.0</ele><time>2026-04-10T11:53:50.842Z</time></trkpt><trkpt lat="44.8801456" lon="9.5419147"><ele>220.0</ele><time>2026-04-10T11:53:51.84Z</time></trkpt><trkpt lat="44.8802545" lon="9.5417889"><ele>221.0</ele><time>2026-04-10T11:53:52.84Z</time></trkpt><trkpt lat="44.8803618" lon="9.5416874"><ele>222.0</ele><time>2026-04-10T11:53:53.84Z</time></trkpt><trkpt lat="44.8804714" lon="9.5416047"><ele>222.0</ele><time>2026-04-10T11:53:54.842Z</time></trkpt><trkpt lat="44.8805838" lon="9.5415339"><ele>222.0</ele><time>2026-04-10T11:53:55.845Z</time></trkpt><trkpt lat="44.8806961" lon="9.5414694"><ele>222.0</ele><time>2026-04-10T11:53:56.842Z</time></trkpt><trkpt lat="44.8808094" lon="9.5413982"><ele>222.0</ele><time>2026-04-10T11:53:57.84Z</time></trkpt><trkpt lat="44.8809287" lon="9.5412985"><ele>224.75</ele><time>2026-04-10T11:53:58.84Z</time></trkpt><trkpt lat="44.8810438" lon="9.5411779"><ele>227.5</ele><time>2026-04-10T11:53:59.84Z</time></trkpt><trkpt lat="44.881156" lon="9.5410385"><ele>230.25</ele><time>2026-04-10T11:54:00.84Z</time></trkpt><trkpt lat="44.8812611" lon="9.5408887"><ele>233.0</ele><time>2026-04-10T11:54:01.841Z</time></trkpt><trkpt lat="44.881366" lon="9.5407294"><ele>233.0</ele><time>2026-04-10T11:54:02.844Z</time></trkpt><trkpt lat="44.8814607" lon="9.5405699"><ele>233.0</ele><time>2026-04-10T11:54:03.839Z</time></trkpt><trkpt lat="44.8815466" lon="9.5404115"><ele>233.0</ele><time>2026-04-10T11:54:04.841Z</time></trkpt><trkpt lat="44.8816276" lon="9.5402554"><ele>233.0</ele><time>2026-04-10T11:54:05.84Z</time></trkpt><trkpt lat="44.8817069" lon="9.5401047"><ele>235.75</ele><time>2026-04-10T11:54:06.843Z</time></trkpt><trkpt lat="44.8817787" lon="9.5399591"><ele>238.5</ele><time>2026-04-10T11:54:07.84Z</time></trkpt><trkpt lat="44.8818542" lon="9.5398237"><ele>241.25</ele><time>2026-04-10T11:54:08.844Z</time></trkpt><trkpt lat="44.8819398" lon="9.5397112"><ele>244.0</ele><time>2026-04-10T11:54:09.84Z</time></trkpt><trkpt lat="44.8820389" lon="9.539612"><ele>240.75</ele><time>2026-04-10T11:54:10.841Z</time></trkpt><trkpt lat="44.8821436" lon="9.5395199"><ele>237.5</ele><time>2026-04-10T11:54:11.841Z</time></trkpt><trkpt lat="44.882251" lon="9.5394403"><ele>234.25</ele><time>2026-04-10T11:54:12.841Z</time></trkpt><trkpt lat="44.8823656" lon="9.5393756"><ele>231.0</ele><time>2026-04-10T11:54:13.847Z</time></trkpt><trkpt lat="44.8824899" lon="9.5393242"><ele>231.5</ele><time>2026-04-10T11:54:14.841Z</time></trkpt><trkpt lat="44.8826244" lon="9.5392697"><ele>232.0</ele><time>2026-04-10T11:54:15.841Z</time></trkpt><trkpt lat="44.8827597" lon="9.5392131"><ele>232.5</ele><time>2026-04-10T11:54:16.84Z</time></trkpt><trkpt lat="44.8828895" lon="9.5391602"><ele>233.0</ele><time>2026-04-10T11:54:17.839Z</time></trkpt><trkpt lat="44.8830211" lon="9.5391003"><ele>233.0</ele><time>2026-04-10T11:54:18.844Z</time></trkpt><trkpt lat="44.8831492" lon="9.5390449"><ele>233.0</ele><time>2026-04-10T11:54:19.841Z</time></trkpt><trkpt lat="44.8832698" lon="9.5390068"><ele>233.0</ele><time>2026-04-10T11:54:20.84Z</time></trkpt><trkpt lat="44.8833936" lon="9.5389802"><ele>233.0</ele><time>2026-04-10T11:54:21.839Z</time></trkpt><trkpt lat="44.8835208" lon="9.5389481"><ele>233.75</ele><time>2026-04-10T11:54:22.839Z</time></trkpt><trkpt lat="44.8836498" lon="9.5389042"><ele>234.5</ele><time>2026-04-10T11:54:23.839Z</time></trkpt><trkpt lat="44.8837844" lon="9.5388456"><ele>235.25</ele><time>2026-04-10T11:54:24.841Z</time></trkpt><trkpt lat="44.8839214" lon="9.5387724"><ele>236.0</ele><time>2026-04-10T11:54:25.839Z</time></trkpt><trkpt lat="44.8840635" lon="9.5386889"><ele>236.0</ele><time>2026-04-10T11:54:26.84Z</time></trkpt><trkpt lat="44.8842072" lon="9.538605"><ele>236.0</ele><time>2026-04-10T11:54:27.839Z</time></trkpt><trkpt lat="44.8843554" lon="9.5385203"><ele>236.0</ele><time>2026-04-10T11:54:28.839Z</time></trkpt><trkpt lat="44.8845017" lon="9.5384341"><ele>238.0</ele><time>2026-04-10T11:54:29.839Z</time></trkpt><trkpt lat="44.8846459" lon="9.5383465"><ele>240.0</ele><time>2026-04-10T11:54:30.839Z</time></trkpt><trkpt lat="44.8847906" lon="9.5382605"><ele>242.0</ele><time>2026-04-10T11:54:31.839Z</time></trkpt><trkpt lat="44.8849355" lon="9.5381752"><ele>242.0</ele><time>2026-04-10T11:54:32.84Z</time></trkpt><trkpt lat="44.885075" lon="9.5380924"><ele>242.0</ele><time>2026-04-10T11:54:33.84Z</time></trkpt><trkpt lat="44.8851996" lon="9.538027"><ele>242.0</ele><time>2026-04-10T11:54:34.839Z</time></trkpt><trkpt lat="44.8853074" lon="9.5379881"><ele>242.0</ele><time>2026-04-10T11:54:35.841Z</time></trkpt><trkpt lat="44.8853987" lon="9.5379683"><ele>241.8</ele><time>2026-04-10T11:54:36.838Z</time></trkpt><trkpt lat="44.8854855" lon="9.5379605"><ele>241.6</ele><time>2026-04-10T11:54:37.838Z</time></trkpt><trkpt lat="44.885578" lon="9.5379518"><ele>241.40000000000003</ele><time>2026-04-10T11:54:38.84Z</time></trkpt><trkpt lat="44.885686" lon="9.5379295"><ele>241.20000000000002</ele><time>2026-04-10T11:54:39.845Z</time></trkpt><trkpt lat="44.8857965" lon="9.537902"><ele>241.0</ele><time>2026-04-10T11:54:40.838Z</time></trkpt><trkpt lat="44.8859114" lon="9.5378768"><ele>241.8</ele><time>2026-04-10T11:54:41.839Z</time></trkpt><trkpt lat="44.8860279" lon="9.5378575"><ele>242.60000000000002</ele><time>2026-04-10T11:54:42.839Z</time></trkpt><trkpt lat="44.8861386" lon="9.5378336"><ele>243.4</ele><time>2026-04-10T11:54:43.84Z</time></trkpt><trkpt lat="44.886235" lon="9.5378104"><ele>244.2</ele><time>2026-04-10T11:54:44.843Z</time></trkpt><trkpt lat="44.8863112" lon="9.5377681"><ele>245.0</ele><time>2026-04-10T11:54:45.839Z</time></trkpt><trkpt lat="44.8863794" lon="9.5377054"><ele>245.0</ele><time>2026-04-10T11:54:46.839Z</time></trkpt><trkpt lat="44.886443" lon="9.5376165"><ele>245.0</ele><time>2026-04-10T11:54:47.84Z</time></trkpt><trkpt lat="44.8865134" lon="9.5375133"><ele>245.0</ele><time>2026-04-10T11:54:48.839Z</time></trkpt><trkpt lat="44.8865981" lon="9.5374141"><ele>245.0</ele><time>2026-04-10T11:54:49.841Z</time></trkpt><trkpt lat="44.886693" lon="9.5373301"><ele>245.0</ele><time>2026-04-10T11:54:50.842Z</time></trkpt><trkpt lat="44.8867892" lon="9.5372541"><ele>245.6</ele><time>2026-04-10T11:54:51.838Z</time></trkpt><trkpt lat="44.8868823" lon="9.5371903"><ele>246.2</ele><time>2026-04-10T11:54:52.838Z</time></trkpt><trkpt lat="44.8869771" lon="9.5371504"><ele>246.8</ele><time>2026-04-10T11:54:53.839Z</time></trkpt><trkpt lat="44.8870724" lon="9.5371443"><ele>247.4</ele><time>2026-04-10T11:54:54.839Z</time></trkpt><trkpt lat="44.887162" lon="9.5371653"><ele>248.0</ele><time>2026-04-10T11:54:55.84Z</time></trkpt><trkpt lat="44.8872435" lon="9.5372165"><ele>248.0</ele><time>2026-04-10T11:54:56.84Z</time></trkpt><trkpt lat="44.8873117" lon="9.5373083"><ele>248.0</ele><time>2026-04-10T11:54:57.838Z</time></trkpt><trkpt lat="44.8873867" lon="9.5374233"><ele>248.0</ele><time>2026-04-10T11:54:58.838Z</time></trkpt><trkpt lat="44.8874683" lon="9.5375483"><ele>248.0</ele><time>2026-04-10T11:54:59.839Z</time></trkpt><trkpt lat="44.887555" lon="9.53768"><ele>251.2</ele><time>2026-04-10T11:55:00.838Z</time></trkpt><trkpt lat="44.8876433" lon="9.5378217"><ele>254.4</ele><time>2026-04-10T11:55:01.838Z</time></trkpt><trkpt lat="44.887715" lon="9.5379533"><ele>257.59999999999997</ele><time>2026-04-10T11:55:02.839Z</time></trkpt><trkpt lat="44.8877783" lon="9.5380683"><ele>260.8</ele><time>2026-04-10T11:55:03.84Z</time></trkpt><trkpt lat="44.8878367" lon="9.5381733"><ele>264.0</ele><time>2026-04-10T11:55:04.84Z</time></trkpt><trkpt lat="44.8878883" lon="9.5382783"><ele>264.5</ele><time>2026-04-10T11:55:05.839Z</time></trkpt><trkpt lat="44.8879433" lon="9.538385"><ele>265.0</ele><time>2026-04-10T11:55:06.841Z</time></trkpt><trkpt lat="44.88801" lon="9.5384717"><ele>265.5</ele><time>2026-04-10T11:55:07.841Z</time></trkpt><trkpt lat="44.8880817" lon="9.5385367"><ele>266.0</ele><time>2026-04-10T11:55:08.841Z</time></trkpt><trkpt lat="44.88815" lon="9.538575"><ele>266.5</ele><time>2026-04-10T11:55:09.841Z</time></trkpt><trkpt lat="44.8882217" lon="9.5385867"><ele>267.0</ele><time>2026-04-10T11:55:10.84Z</time></trkpt><trkpt lat="44.8883" lon="9.5385333"><ele>267.0</ele><time>2026-04-10T11:55:11.84Z</time></trkpt><trkpt lat="44.888375" lon="9.5385117"><ele>267.0</ele><time>2026-04-10T11:55:12.841Z</time></trkpt><trkpt lat="44.88845" lon="9.5384367"><ele>267.0</ele><time>2026-04-10T11:55:13.84Z</time></trkpt><trkpt lat="44.8885283" lon="9.5383617"><ele>267.0</ele><time>2026-04-10T11:55:14.84Z</time></trkpt><trkpt lat="44.8886417" lon="9.5382383"><ele>267.0</ele><time>2026-04-10T11:55:15.841Z</time></trkpt><trkpt lat="44.8887083" lon="9.538105"><ele>270.5</ele><time>2026-04-10T11:55:16.84Z</time></trkpt><trkpt lat="44.8887483" lon="9.5379633"><ele>274.0</ele><time>2026-04-10T11:55:17.839Z</time></trkpt><trkpt lat="44.888775" lon="9.5378"><ele>277.5</ele><time>2026-04-10T11:55:18.84Z</time></trkpt><trkpt lat="44.888805" lon="9.5376283"><ele>281.0</ele><time>2026-04-10T11:55:19.839Z</time></trkpt><trkpt lat="44.8888333" lon="9.53747"><ele>281.0</ele><time>2026-04-10T11:55:20.841Z</time></trkpt><trkpt lat="44.888865" lon="9.53733"><ele>281.0</ele><time>2026-04-10T11:55:21.841Z</time></trkpt><trkpt lat="44.888905" lon="9.537225"><ele>281.0</ele><time>2026-04-10T11:55:22.839Z</time></trkpt><trkpt lat="44.8889467" lon="9.5371367"><ele>281.0</ele><time>2026-04-10T11:55:23.841Z</time></trkpt><trkpt lat="44.8890033" lon="9.5370567"><ele>281.0</ele><time>2026-04-10T11:55:24.841Z</time></trkpt><trkpt lat="44.8890867" lon="9.537025"><ele>281.0</ele><time>2026-04-10T11:55:25.84Z</time></trkpt><trkpt lat="44.889165" lon="9.5369983"><ele>280.25</ele><time>2026-04-10T11:55:26.84Z</time></trkpt><trkpt lat="44.8892567" lon="9.5370183"><ele>279.5</ele><time>2026-04-10T11:55:27.84Z</time></trkpt><trkpt lat="44.8893817" lon="9.5370417"><ele>278.75</ele><time>2026-04-10T11:55:28.839Z</time></trkpt><trkpt lat="44.88951" lon="9.5370367"><ele>278.0</ele><time>2026-04-10T11:55:29.84Z</time></trkpt><trkpt lat="44.88965" lon="9.53701"><ele>279.4</ele><time>2026-04-10T11:55:30.839Z</time></trkpt><trkpt lat="44.889755" lon="9.5369683"><ele>280.8</ele><time>2026-04-10T11:55:31.839Z</time></trkpt><trkpt lat="44.8898517" lon="9.5368933"><ele>282.2</ele><time>2026-04-10T11:55:32.84Z</time></trkpt><trkpt lat="44.88994" lon="9.5368117"><ele>283.6</ele><time>2026-04-10T11:55:33.839Z</time></trkpt><trkpt lat="44.890035" lon="9.536745"><ele>285.0</ele><time>2026-04-10T11:55:34.84Z</time></trkpt><trkpt lat="44.890135" lon="9.5367233"><ele>287.0</ele><time>2026-04-10T11:55:35.839Z</time></trkpt><trkpt lat="44.8902133" lon="9.536745"><ele>289.0</ele><time>2026-04-10T11:55:36.839Z</time></trkpt><trkpt lat="44.8902717" lon="9.536825"><ele>291.0</ele><time>2026-04-10T11:55:37.838Z</time></trkpt><trkpt lat="44.890315" lon="9.536925"><ele>293.0</ele><time>2026-04-10T11:55:38.841Z</time></trkpt><trkpt lat="44.8903467" lon="9.53704"><ele>295.0</ele><time>2026-04-10T11:55:39.842Z</time></trkpt><trkpt lat="44.8903683" lon="9.537165"><ele>297.0</ele><time>2026-04-10T11:55:40.838Z</time></trkpt><trkpt lat="44.8904017" lon="9.537275"><ele>299.0</ele><time>2026-04-10T11:55:41.838Z</time></trkpt><trkpt lat="44.8904383" lon="9.5373717"><ele>301.0</ele><time>2026-04-10T11:55:42.84Z</time></trkpt><trkpt lat="44.8904933" lon="9.537425"><ele>303.0</ele><time>2026-04-10T11:55:43.84Z</time></trkpt><trkpt lat="44.890615" lon="9.5373833"><ele>305.0</ele><time>2026-04-10T11:55:45.838Z</time></trkpt><trkpt lat="44.8906867" lon="9.5372883"><ele>307.0</ele><time>2026-04-10T11:55:46.838Z</time></trkpt><trkpt lat="44.8907567" lon="9.53718"><ele>307.0</ele><time>2026-04-10T11:55:47.839Z</time></trkpt><trkpt lat="44.89083" lon="9.53708"><ele>307.0</ele><time>2026-04-10T11:55:48.838Z</time></trkpt><trkpt lat="44.8908983" lon="9.5370017"><ele>307.0</ele><time>2026-04-10T11:55:49.842Z</time></trkpt><trkpt lat="44.8909617" lon="9.5369483"><ele>307.0</ele><time>2026-04-10T11:55:50.84Z</time></trkpt><trkpt lat="44.8910233" lon="9.536925"><ele>307.0</ele><time>2026-04-10T11:55:51.841Z</time></trkpt><trkpt lat="44.89109" lon="9.536935"><ele>307.0</ele><time>2026-04-10T11:55:52.842Z</time></trkpt><trkpt lat="44.8911683" lon="9.5369783"><ele>307.2</ele><time>2026-04-10T11:55:53.838Z</time></trkpt><trkpt lat="44.8912633" lon="9.5370417"><ele>307.4</ele><time>2026-04-10T11:55:54.844Z</time></trkpt><trkpt lat="44.8913583" lon="9.537075"><ele>307.6</ele><time>2026-04-10T11:55:55.84Z</time></trkpt><trkpt lat="44.89145" lon="9.5370717"><ele>307.8</ele><time>2026-04-10T11:55:56.84Z</time></trkpt><trkpt lat="44.89153" lon="9.537035"><ele>308.0</ele><time>2026-04-10T11:55:57.84Z</time></trkpt><trkpt lat="44.8916083" lon="9.5369733"><ele>308.0</ele><time>2026-04-10T11:55:58.84Z</time></trkpt><trkpt lat="44.89168" lon="9.53688"><ele>308.0</ele><time>2026-04-10T11:55:59.841Z</time></trkpt><trkpt lat="44.8917183" lon="9.5367533"><ele>308.0</ele><time>2026-04-10T11:56:00.842Z</time></trkpt><trkpt lat="44.89176" lon="9.536655"><ele>308.0</ele><time>2026-04-10T11:56:01.842Z</time></trkpt><trkpt lat="44.89181" lon="9.536585"><ele>308.0</ele><time>2026-04-10T11:56:02.842Z</time></trkpt><trkpt lat="44.8919133" lon="9.53656"><ele>310.2</ele><time>2026-04-10T11:56:04.84Z</time></trkpt><trkpt lat="44.8920167" lon="9.5366383"><ele>312.4</ele><time>2026-04-10T11:56:06.843Z</time></trkpt><trkpt lat="44.8920583" lon="9.5367333"><ele>314.59999999999997</ele><time>2026-04-10T11:56:07.841Z</time></trkpt><trkpt lat="44.8921133" lon="9.5368483"><ele>316.8</ele><time>2026-04-10T11:56:08.845Z</time></trkpt><trkpt lat="44.8921667" lon="9.536955"><ele>319.0</ele><time>2026-04-10T11:56:09.839Z</time></trkpt><trkpt lat="44.8922267" lon="9.53704"><ele>319.0</ele><time>2026-04-10T11:56:10.841Z</time></trkpt><trkpt lat="44.8922933" lon="9.5371083"><ele>319.0</ele><time>2026-04-10T11:56:11.841Z</time></trkpt><trkpt lat="44.8923833" lon="9.5370983"><ele>319.0</ele><time>2026-04-10T11:56:12.841Z</time></trkpt><trkpt lat="44.8924733" lon="9.5370733"><ele>319.0</ele><time>2026-04-10T11:56:13.84Z</time></trkpt><trkpt lat="44.8925583" lon="9.5370333"><ele>319.0</ele><time>2026-04-10T11:56:14.84Z</time></trkpt><trkpt lat="44.8926367" lon="9.5369867"><ele>319.0</ele><time>2026-04-10T11:56:15.84Z</time></trkpt><trkpt lat="44.8926933" lon="9.5368883"><ele>322.2</ele><time>2026-04-10T11:56:16.844Z</time></trkpt><trkpt lat="44.8927333" lon="9.53677"><ele>325.4</ele><time>2026-04-10T11:56:17.841Z</time></trkpt><trkpt lat="44.8927367" lon="9.5366267"><ele>328.6</ele><time>2026-04-10T11:56:18.839Z</time></trkpt><trkpt lat="44.8927167" lon="9.53648"><ele>331.8</ele><time>2026-04-10T11:56:19.839Z</time></trkpt><trkpt lat="44.892675" lon="9.536325"><ele>335.0</ele><time>2026-04-10T11:56:20.84Z</time></trkpt><trkpt lat="44.892615" lon="9.5361633"><ele>332.2</ele><time>2026-04-10T11:56:21.839Z</time></trkpt><trkpt lat="44.8925633" lon="9.5360133"><ele>329.4</ele><time>2026-04-10T11:56:22.839Z</time></trkpt><trkpt lat="44.892535" lon="9.5358783"><ele>326.6</ele><time>2026-04-10T11:56:23.84Z</time></trkpt><trkpt lat="44.8925267" lon="9.5357417"><ele>323.8</ele><time>2026-04-10T11:56:24.84Z</time></trkpt><trkpt lat="44.8925333" lon="9.5355967"><ele>321.0</ele><time>2026-04-10T11:56:25.839Z</time></trkpt><trkpt lat="44.89255" lon="9.5354483"><ele>322.6</ele><time>2026-04-10T11:56:26.84Z</time></trkpt><trkpt lat="44.8925633" lon="9.535305"><ele>324.20000000000005</ele><time>2026-04-10T11:56:27.84Z</time></trkpt><trkpt lat="44.8925733" lon="9.5351633"><ele>325.79999999999995</ele><time>2026-04-10T11:56:28.84Z</time></trkpt><trkpt lat="44.892595" lon="9.53502"><ele>327.4</ele><time>2026-04-10T11:56:29.839Z</time></trkpt><trkpt lat="44.89263" lon="9.53489"><ele>329.0</ele><time>2026-04-10T11:56:30.84Z</time></trkpt><trkpt lat="44.8926717" lon="9.5347667"><ele>333.79999999999995</ele><time>2026-04-10T11:56:31.844Z</time></trkpt><trkpt lat="44.892725" lon="9.5346483"><ele>338.59999999999997</ele><time>2026-04-10T11:56:32.84Z</time></trkpt><trkpt lat="44.89279" lon="9.534525"><ele>343.4</ele><time>2026-04-10T11:56:33.841Z</time></trkpt><trkpt lat="44.892855" lon="9.5343867"><ele>348.2</ele><time>2026-04-10T11:56:34.838Z</time></trkpt><trkpt lat="44.8929233" lon="9.534245"><ele>353.0</ele><time>2026-04-10T11:56:35.839Z</time></trkpt><trkpt lat="44.8929871" lon="9.5340974"><ele>353.0</ele><time>2026-04-10T11:56:36.84Z</time></trkpt><trkpt lat="44.8930445" lon="9.5339379"><ele>353.0</ele><time>2026-04-10T11:56:37.84Z</time></trkpt><trkpt lat="44.8930984" lon="9.5337717"><ele>353.0</ele><time>2026-04-10T11:56:38.843Z</time></trkpt><trkpt lat="44.8931453" lon="9.5336108"><ele>353.0</ele><time>2026-04-10T11:56:39.84Z</time></trkpt><trkpt lat="44.8931885" lon="9.5334588"><ele>352.4</ele><time>2026-04-10T11:56:40.838Z</time></trkpt><trkpt lat="44.8932194" lon="9.5333228"><ele>351.79999999999995</ele><time>2026-04-10T11:56:41.839Z</time></trkpt><trkpt lat="44.8932434" lon="9.5332034"><ele>351.2</ele><time>2026-04-10T11:56:42.84Z</time></trkpt><trkpt lat="44.8932706" lon="9.5331023"><ele>350.6</ele><time>2026-04-10T11:56:43.839Z</time></trkpt><trkpt lat="44.8933526" lon="9.5330208"><ele>350.0</ele><time>2026-04-10T11:56:45.841Z</time></trkpt><trkpt lat="44.8934422" lon="9.5330767"><ele>353.83333333333337</ele><time>2026-04-10T11:56:47.839Z</time></trkpt><trkpt lat="44.8934779" lon="9.533151"><ele>357.6666666666667</ele><time>2026-04-10T11:56:48.84Z</time></trkpt><trkpt lat="44.8935102" lon="9.5332479"><ele>361.5</ele><time>2026-04-10T11:56:49.839Z</time></trkpt><trkpt lat="44.8935435" lon="9.5333641"><ele>365.3333333333333</ele><time>2026-04-10T11:56:50.84Z</time></trkpt><trkpt lat="44.8935885" lon="9.5334884"><ele>369.16666666666663</ele><time>2026-04-10T11:56:51.843Z</time></trkpt><trkpt lat="44.8936396" lon="9.5336101"><ele>373.0</ele><time>2026-04-10T11:56:52.841Z</time></trkpt><trkpt lat="44.893689" lon="9.5337442"><ele>374.0</ele><time>2026-04-10T11:56:53.84Z</time></trkpt><trkpt lat="44.8937246" lon="9.5339023"><ele>375.0</ele><time>2026-04-10T11:56:54.84Z</time></trkpt><trkpt lat="44.8937483" lon="9.5340704"><ele>376.0</ele><time>2026-04-10T11:56:55.84Z</time></trkpt><trkpt lat="44.8937594" lon="9.5342278"><ele>377.0</ele><time>2026-04-10T11:56:56.839Z</time></trkpt><trkpt lat="44.8937579" lon="9.5343728"><ele>377.0</ele><time>2026-04-10T11:56:57.839Z</time></trkpt><trkpt lat="44.8937469" lon="9.5345013"><ele>377.0</ele><time>2026-04-10T11:56:58.843Z</time></trkpt><trkpt lat="44.8937366" lon="9.5346023"><ele>377.0</ele><time>2026-04-10T11:56:59.84Z</time></trkpt><trkpt lat="44.8937625" lon="9.5347412"><ele>377.0</ele><time>2026-04-10T11:57:01.84Z</time></trkpt><trkpt lat="44.8938618" lon="9.5347999"><ele>377.0</ele><time>2026-04-10T11:57:03.84Z</time></trkpt><trkpt lat="44.8939289" lon="9.5347973"><ele>377.0</ele><time>2026-04-10T11:57:04.842Z</time></trkpt><trkpt lat="44.8939981" lon="9.5347816"><ele>376.1666666666667</ele><time>2026-04-10T11:57:05.84Z</time></trkpt><trkpt lat="44.8940664" lon="9.5347554"><ele>375.33333333333337</ele><time>2026-04-10T11:57:06.841Z</time></trkpt><trkpt lat="44.8941333" lon="9.5347067"><ele>374.5</ele><time>2026-04-10T11:57:07.841Z</time></trkpt><trkpt lat="44.894195" lon="9.5346483"><ele>373.6666666666667</ele><time>2026-04-10T11:57:08.84Z</time></trkpt><trkpt lat="44.8942617" lon="9.5345733"><ele>372.8333333333333</ele><time>2026-04-10T11:57:09.839Z</time></trkpt><trkpt lat="44.89433" lon="9.5345"><ele>372.0</ele><time>2026-04-10T11:57:10.839Z</time></trkpt><trkpt lat="44.8944117" lon="9.5344333"><ele>376.6</ele><time>2026-04-10T11:57:11.84Z</time></trkpt><trkpt lat="44.8945033" lon="9.5343733"><ele>381.20000000000005</ele><time>2026-04-10T11:57:12.839Z</time></trkpt><trkpt lat="44.8946017" lon="9.5343317"><ele>385.8</ele><time>2026-04-10T11:57:13.84Z</time></trkpt><trkpt lat="44.894705" lon="9.5343183"><ele>390.4</ele><time>2026-04-10T11:57:14.845Z</time></trkpt><trkpt lat="44.894805" lon="9.5343433"><ele>395.0</ele><time>2026-04-10T11:57:15.839Z</time></trkpt><trkpt lat="44.8948867" lon="9.5344017"><ele>395.0</ele><time>2026-04-10T11:57:16.84Z</time></trkpt><trkpt lat="44.8949483" lon="9.5344983"><ele>395.0</ele><time>2026-04-10T11:57:17.839Z</time></trkpt><trkpt lat="44.8949917" lon="9.5346017"><ele>395.0</ele><time>2026-04-10T11:57:18.84Z</time></trkpt><trkpt lat="44.8950267" lon="9.5347183"><ele>395.0</ele><time>2026-04-10T11:57:19.842Z</time></trkpt><trkpt lat="44.8950533" lon="9.5348483"><ele>395.0</ele><time>2026-04-10T11:57:20.841Z</time></trkpt><trkpt lat="44.89507" lon="9.5349967"><ele>393.25</ele><time>2026-04-10T11:57:21.84Z</time></trkpt><trkpt lat="44.8950717" lon="9.5351517"><ele>391.5</ele><time>2026-04-10T11:57:22.841Z</time></trkpt><trkpt lat="44.895075" lon="9.535305"><ele>389.75</ele><time>2026-04-10T11:57:23.84Z</time></trkpt><trkpt lat="44.8950833" lon="9.5354683"><ele>388.0</ele><time>2026-04-10T11:57:24.842Z</time></trkpt><trkpt lat="44.8950983" lon="9.53563"><ele>392.25</ele><time>2026-04-10T11:57:25.839Z</time></trkpt><trkpt lat="44.8951217" lon="9.5357983"><ele>396.5</ele><time>2026-04-10T11:57:26.841Z</time></trkpt><trkpt lat="44.8951533" lon="9.5359767"><ele>400.75</ele><time>2026-04-10T11:57:27.84Z</time></trkpt><trkpt lat="44.8951883" lon="9.536165"><ele>405.0</ele><time>2026-04-10T11:57:28.84Z</time></trkpt><trkpt lat="44.8952233" lon="9.5363483"><ele>405.0</ele><time>2026-04-10T11:57:29.84Z</time></trkpt><trkpt lat="44.8952483" lon="9.5365317"><ele>405.0</ele><time>2026-04-10T11:57:30.839Z</time></trkpt><trkpt lat="44.8952683" lon="9.5367067"><ele>405.0</ele><time>2026-04-10T11:57:31.839Z</time></trkpt><trkpt lat="44.8952933" lon="9.5368533"><ele>405.0</ele><time>2026-04-10T11:57:32.839Z</time></trkpt><trkpt lat="44.8953283" lon="9.53697"><ele>403.0</ele><time>2026-04-10T11:57:33.842Z</time></trkpt><trkpt lat="44.8953683" lon="9.5370683"><ele>401.0</ele><time>2026-04-10T11:57:34.841Z</time></trkpt><trkpt lat="44.895425" lon="9.5371533"><ele>399.0</ele><time>2026-04-10T11:57:35.839Z</time></trkpt><trkpt lat="44.895505" lon="9.5372233"><ele>397.0</ele><time>2026-04-10T11:57:36.84Z</time></trkpt><trkpt lat="44.8956083" lon="9.537265"><ele>395.0</ele><time>2026-04-10T11:57:37.838Z</time></trkpt><trkpt lat="44.8957033" lon="9.537295"><ele>395.0</ele><time>2026-04-10T11:57:38.839Z</time></trkpt><trkpt lat="44.895785" lon="9.537325"><ele>395.0</ele><time>2026-04-10T11:57:39.839Z</time></trkpt><trkpt lat="44.89586" lon="9.53736"><ele>395.0</ele><time>2026-04-10T11:57:40.84Z</time></trkpt><trkpt lat="44.89592" lon="9.5374"><ele>395.0</ele><time>2026-04-10T11:57:41.84Z</time></trkpt><trkpt lat="44.895985" lon="9.5375167"><ele>395.0</ele><time>2026-04-10T11:57:43.845Z</time></trkpt><trkpt lat="44.8959867" lon="9.5376983"><ele>396.4</ele><time>2026-04-10T11:57:45.84Z</time></trkpt><trkpt lat="44.8959667" lon="9.537815"><ele>397.8</ele><time>2026-04-10T11:57:46.84Z</time></trkpt><trkpt lat="44.895935" lon="9.5379417"><ele>399.20000000000005</ele><time>2026-04-10T11:57:47.84Z</time></trkpt><trkpt lat="44.8958883" lon="9.5380733"><ele>400.6</ele><time>2026-04-10T11:57:48.846Z</time></trkpt><trkpt lat="44.8958267" lon="9.5381983"><ele>402.0</ele><time>2026-04-10T11:57:49.841Z</time></trkpt><trkpt lat="44.8957533" lon="9.5383117"><ele>402.0</ele><time>2026-04-10T11:57:50.841Z</time></trkpt><trkpt lat="44.8956783" lon="9.5384183"><ele>402.0</ele><time>2026-04-10T11:57:51.839Z</time></trkpt><trkpt lat="44.8956033" lon="9.5385067"><ele>402.0</ele><time>2026-04-10T11:57:52.84Z</time></trkpt><trkpt lat="44.8955183" lon="9.5385817"><ele>402.0</ele><time>2026-04-10T11:57:53.84Z</time></trkpt><trkpt lat="44.8954383" lon="9.5386733"><ele>402.0</ele><time>2026-04-10T11:57:54.839Z</time></trkpt><trkpt lat="44.8953767" lon="9.5387767"><ele>404.0</ele><time>2026-04-10T11:57:55.838Z</time></trkpt><trkpt lat="44.89534" lon="9.53888"><ele>406.0</ele><time>2026-04-10T11:57:56.84Z</time></trkpt><trkpt lat="44.8953183" lon="9.538985"><ele>408.0</ele><time>2026-04-10T11:57:57.845Z</time></trkpt><trkpt lat="44.8953433" lon="9.5391017"><ele>410.0</ele><time>2026-04-10T11:57:58.84Z</time></trkpt><trkpt lat="44.8953817" lon="9.5392233"><ele>412.0</ele><time>2026-04-10T11:57:59.839Z</time></trkpt><trkpt lat="44.8954367" lon="9.53936"><ele>412.0</ele><time>2026-04-10T11:58:00.839Z</time></trkpt><trkpt lat="44.8954967" lon="9.5395067"><ele>412.0</ele><time>2026-04-10T11:58:01.842Z</time></trkpt><trkpt lat="44.8955633" lon="9.539635"><ele>412.0</ele><time>2026-04-10T11:58:02.839Z</time></trkpt><trkpt lat="44.895635" lon="9.53975"><ele>412.0</ele><time>2026-04-10T11:58:03.84Z</time></trkpt><trkpt lat="44.8957" lon="9.5398617"><ele>412.0</ele><time>2026-04-10T11:58:04.839Z</time></trkpt><trkpt lat="44.8957417" lon="9.539965"><ele>411.6</ele><time>2026-04-10T11:58:05.84Z</time></trkpt><trkpt lat="44.895765" lon="9.54007"><ele>411.20000000000005</ele><time>2026-04-10T11:58:06.841Z</time></trkpt><trkpt lat="44.89577" lon="9.5401883"><ele>410.8</ele><time>2026-04-10T11:58:07.841Z</time></trkpt><trkpt lat="44.89575" lon="9.5403317"><ele>410.4</ele><time>2026-04-10T11:58:08.843Z</time></trkpt><trkpt lat="44.8957017" lon="9.5405333"><ele>410.0</ele><time>2026-04-10T11:58:09.841Z</time></trkpt><trkpt lat="44.8956667" lon="9.540725"><ele>409.75</ele><time>2026-04-10T11:58:10.842Z</time></trkpt><trkpt lat="44.895635" lon="9.540935"><ele>409.5</ele><time>2026-04-10T11:58:11.841Z</time></trkpt><trkpt lat="44.8956067" lon="9.5411317"><ele>409.25</ele><time>2026-04-10T11:58:12.84Z</time></trkpt><trkpt lat="44.8955833" lon="9.5413067"><ele>409.0</ele><time>2026-04-10T11:58:13.839Z</time></trkpt><trkpt lat="44.8955533" lon="9.5414717"><ele>409.6</ele><time>2026-04-10T11:58:14.841Z</time></trkpt><trkpt lat="44.8955167" lon="9.5416267"><ele>410.2</ele><time>2026-04-10T11:58:15.846Z</time></trkpt><trkpt lat="44.8954683" lon="9.5417617"><ele>410.8</ele><time>2026-04-10T11:58:16.84Z</time></trkpt><trkpt lat="44.8954183" lon="9.5418867"><ele>411.40000000000003</ele><time>2026-04-10T11:58:17.841Z</time></trkpt><trkpt lat="44.8953783" lon="9.5419983"><ele>412.0</ele><time>2026-04-10T11:58:18.841Z</time></trkpt><trkpt lat="44.895345" lon="9.5421033"><ele>413.8</ele><time>2026-04-10T11:58:19.839Z</time></trkpt><trkpt lat="44.8953217" lon="9.542205"><ele>415.6</ele><time>2026-04-10T11:58:20.842Z</time></trkpt><trkpt lat="44.8953817" lon="9.5423517"><ele>417.40000000000003</ele><time>2026-04-10T11:58:22.839Z</time></trkpt><trkpt lat="44.8954617" lon="9.5423983"><ele>419.20000000000005</ele><time>2026-04-10T11:58:23.84Z</time></trkpt><trkpt lat="44.8955433" lon="9.542465"><ele>421.0</ele><time>2026-04-10T11:58:24.841Z</time></trkpt><trkpt lat="44.8956283" lon="9.5425367"><ele>421.0</ele><time>2026-04-10T11:58:25.843Z</time></trkpt><trkpt lat="44.895725" lon="9.5426067"><ele>421.0</ele><time>2026-04-10T11:58:26.841Z</time></trkpt><trkpt lat="44.8958267" lon="9.5426717"><ele>421.0</ele><time>2026-04-10T11:58:27.84Z</time></trkpt><trkpt lat="44.89593" lon="9.5427317"><ele>421.0</ele><time>2026-04-10T11:58:28.84Z</time></trkpt><trkpt lat="44.896035" lon="9.5427783"><ele>421.0</ele><time>2026-04-10T11:58:29.84Z</time></trkpt><trkpt lat="44.8961433" lon="9.5427867"><ele>423.20000000000005</ele><time>2026-04-10T11:58:30.839Z</time></trkpt><trkpt lat="44.89626" lon="9.5427817"><ele>425.40000000000003</ele><time>2026-04-10T11:58:31.839Z</time></trkpt><trkpt lat="44.896375" lon="9.5427583"><ele>427.6</ele><time>2026-04-10T11:58:32.839Z</time></trkpt><trkpt lat="44.8964783" lon="9.5427233"><ele>429.8</ele><time>2026-04-10T11:58:33.841Z</time></trkpt><trkpt lat="44.8965783" lon="9.5426917"><ele>432.0</ele><time>2026-04-10T11:58:34.84Z</time></trkpt><trkpt lat="44.8966733" lon="9.5426833"><ele>433.8</ele><time>2026-04-10T11:58:35.84Z</time></trkpt><trkpt lat="44.8967733" lon="9.5426983"><ele>435.6</ele><time>2026-04-10T11:58:36.841Z</time></trkpt><trkpt lat="44.8968833" lon="9.542725"><ele>437.40000000000003</ele><time>2026-04-10T11:58:37.84Z</time></trkpt><trkpt lat="44.8969909" lon="9.5427574"><ele>439.20000000000005</ele><time>2026-04-10T11:58:38.84Z</time></trkpt><trkpt lat="44.8971032" lon="9.5427916"><ele>441.0</ele><time>2026-04-10T11:58:39.84Z</time></trkpt><trkpt lat="44.8972194" lon="9.5428232"><ele>441.0</ele><time>2026-04-10T11:58:40.839Z</time></trkpt><trkpt lat="44.897339" lon="9.5428545"><ele>441.0</ele><time>2026-04-10T11:58:41.927Z</time></trkpt><trkpt lat="44.897449" lon="9.542887"><ele>441.0</ele><time>2026-04-10T11:58:42.84Z</time></trkpt><trkpt lat="44.8975623" lon="9.5429264"><ele>441.0</ele><time>2026-04-10T11:58:43.84Z</time></trkpt><trkpt lat="44.8976744" lon="9.5429585"><ele>444.75</ele><time>2026-04-10T11:58:44.842Z</time></trkpt><trkpt lat="44.8977882" lon="9.5429667"><ele>448.5</ele><time>2026-04-10T11:58:45.839Z</time></trkpt><trkpt lat="44.8979067" lon="9.5429517"><ele>452.25</ele><time>2026-04-10T11:58:46.842Z</time></trkpt><trkpt lat="44.8980202" lon="9.5429214"><ele>456.0</ele><time>2026-04-10T11:58:47.839Z</time></trkpt><trkpt lat="44.8981271" lon="9.5428803"><ele>456.0</ele><time>2026-04-10T11:58:48.84Z</time></trkpt><trkpt lat="44.8982385" lon="9.5428267"><ele>456.0</ele><time>2026-04-10T11:58:49.84Z</time></trkpt><trkpt lat="44.898343" lon="9.5427625"><ele>456.0</ele><time>2026-04-10T11:58:50.841Z</time></trkpt><trkpt lat="44.8984355" lon="9.5426831"><ele>456.0</ele><time>2026-04-10T11:58:51.844Z</time></trkpt><trkpt lat="44.8985076" lon="9.5425908"><ele>456.0</ele><time>2026-04-10T11:58:52.839Z</time></trkpt><trkpt lat="44.898555" lon="9.5424922"><ele>459.0</ele><time>2026-04-10T11:58:53.84Z</time></trkpt><trkpt lat="44.8985919" lon="9.5424006"><ele>462.0</ele><time>2026-04-10T11:58:54.841Z</time></trkpt><trkpt lat="44.8986634" lon="9.5423049"><ele>465.0</ele><time>2026-04-10T11:58:56.841Z</time></trkpt><trkpt lat="44.8987363" lon="9.542338"><ele>468.0</ele><time>2026-04-10T11:58:58.84Z</time></trkpt><trkpt lat="44.8988085" lon="9.5424846"><ele>471.0</ele><time>2026-04-10T11:59:00.839Z</time></trkpt><trkpt lat="44.8988381" lon="9.5425832"><ele>471.00000000000006</ele><time>2026-04-10T11:59:01.839Z</time></trkpt><trkpt lat="44.8988661" lon="9.5426833"><ele>471.0</ele><time>2026-04-10T11:59:02.842Z</time></trkpt><trkpt lat="44.8988938" lon="9.5427858"><ele>471.00000000000006</ele><time>2026-04-10T11:59:03.841Z</time></trkpt><trkpt lat="44.8989149" lon="9.5428884"><ele>471.00000000000006</ele><time>2026-04-10T11:59:04.841Z</time></trkpt><trkpt lat="44.8989275" lon="9.5429896"><ele>471.0</ele><time>2026-04-10T11:59:05.839Z</time></trkpt><trkpt lat="44.8989368" lon="9.5430897"><ele>471.00000000000006</ele><time>2026-04-10T11:59:06.843Z</time></trkpt><trkpt lat="44.8989566" lon="9.5431855"><ele>471.00000000000006</ele><time>2026-04-10T11:59:07.84Z</time></trkpt><trkpt lat="44.8989855" lon="9.5432949"><ele>471.4</ele><time>2026-04-10T11:59:08.841Z</time></trkpt><trkpt lat="44.8990048" lon="9.54343"><ele>471.8</ele><time>2026-04-10T11:59:09.84Z</time></trkpt><trkpt lat="44.8990126" lon="9.5435736"><ele>472.19999999999993</ele><time>2026-04-10T11:59:10.84Z</time></trkpt><trkpt lat="44.899011" lon="9.5437218"><ele>472.59999999999997</ele><time>2026-04-10T11:59:11.841Z</time></trkpt><trkpt lat="44.8990129" lon="9.5438807"><ele>473.0</ele><time>2026-04-10T11:59:12.84Z</time></trkpt><trkpt lat="44.8990269" lon="9.5440386"><ele>473.49999999999994</ele><time>2026-04-10T11:59:13.842Z</time></trkpt><trkpt lat="44.8990477" lon="9.5441931"><ele>474.0</ele><time>2026-04-10T11:59:14.841Z</time></trkpt><trkpt lat="44.8990724" lon="9.5443275"><ele>474.5</ele><time>2026-04-10T11:59:15.839Z</time></trkpt><trkpt lat="44.89911" lon="9.5444336"><ele>475.0</ele><time>2026-04-10T11:59:16.839Z</time></trkpt><trkpt lat="44.8991581" lon="9.5445138"><ele>475.49999999999994</ele><time>2026-04-10T11:59:17.841Z</time></trkpt><trkpt lat="44.8992144" lon="9.544558"><ele>476.0</ele><time>2026-04-10T11:59:18.84Z</time></trkpt><trkpt lat="44.8992726" lon="9.5445926"><ele>476.99999999999994</ele><time>2026-04-10T11:59:19.84Z</time></trkpt><trkpt lat="44.8993371" lon="9.5446229"><ele>478.0</ele><time>2026-04-10T11:59:20.844Z</time></trkpt><trkpt lat="44.8994036" lon="9.5446614"><ele>479.0</ele><time>2026-04-10T11:59:21.84Z</time></trkpt><trkpt lat="44.8994772" lon="9.5447124"><ele>480.0</ele><time>2026-04-10T11:59:22.839Z</time></trkpt><trkpt lat="44.8995604" lon="9.5447761"><ele>480.99999999999994</ele><time>2026-04-10T11:59:23.84Z</time></trkpt><trkpt lat="44.8996556" lon="9.544837"><ele>482.0</ele><time>2026-04-10T11:59:24.84Z</time></trkpt><trkpt lat="44.8997663" lon="9.5448952"><ele>482.0</ele><time>2026-04-10T11:59:25.841Z</time></trkpt><trkpt lat="44.8998786" lon="9.5449524"><ele>482.0</ele><time>2026-04-10T11:59:26.841Z</time></trkpt><trkpt lat="44.8999933" lon="9.545005"><ele>482.0</ele><time>2026-04-10T11:59:27.839Z</time></trkpt><trkpt lat="44.90012" lon="9.5450417"><ele>482.0</ele><time>2026-04-10T11:59:28.841Z</time></trkpt><trkpt lat="44.900255" lon="9.5450567"><ele>483.0</ele><time>2026-04-10T11:59:29.84Z</time></trkpt><trkpt lat="44.90039" lon="9.5450633"><ele>484.0</ele><time>2026-04-10T11:59:30.839Z</time></trkpt><trkpt lat="44.9005267" lon="9.5450683"><ele>485.0</ele><time>2026-04-10T11:59:31.842Z</time></trkpt><trkpt lat="44.9006717" lon="9.545075"><ele>486.0</ele><time>2026-04-10T11:59:32.841Z</time></trkpt><trkpt lat="44.9008033" lon="9.54508"><ele>485.20000000000005</ele><time>2026-04-10T11:59:33.839Z</time></trkpt><trkpt lat="44.900925" lon="9.5450817"><ele>484.40000000000003</ele><time>2026-04-10T11:59:34.839Z</time></trkpt><trkpt lat="44.901025" lon="9.54508"><ele>483.6</ele><time>2026-04-10T11:59:35.841Z</time></trkpt><trkpt lat="44.9011117" lon="9.545085"><ele>482.8</ele><time>2026-04-10T11:59:36.841Z</time></trkpt><trkpt lat="44.9011933" lon="9.54509"><ele>482.0</ele><time>2026-04-10T11:59:37.84Z</time></trkpt><trkpt lat="44.90128" lon="9.5451"><ele>481.99999999999994</ele><time>2026-04-10T11:59:38.84Z</time></trkpt><trkpt lat="44.901365" lon="9.54513"><ele>482.0</ele><time>2026-04-10T11:59:39.845Z</time></trkpt><trkpt lat="44.9014383" lon="9.5451817"><ele>482.0</ele><time>2026-04-10T11:59:40.841Z</time></trkpt><trkpt lat="44.9015117" lon="9.5452567"><ele>482.0</ele><time>2026-04-10T11:59:41.839Z</time></trkpt><trkpt lat="44.90155" lon="9.5453483"><ele>481.99999999999994</ele><time>2026-04-10T11:59:42.842Z</time></trkpt><trkpt lat="44.90157" lon="9.5454617"><ele>482.0</ele><time>2026-04-10T11:59:43.839Z</time></trkpt><trkpt lat="44.9015717" lon="9.5456"><ele>481.75</ele><time>2026-04-10T11:59:44.844Z</time></trkpt><trkpt lat="44.9015617" lon="9.5457533"><ele>481.5</ele><time>2026-04-10T11:59:45.842Z</time></trkpt><trkpt lat="44.9015317" lon="9.5459233"><ele>481.25</ele><time>2026-04-10T11:59:46.841Z</time></trkpt><trkpt lat="44.9014767" lon="9.546115"><ele>481.0</ele><time>2026-04-10T11:59:47.841Z</time></trkpt><trkpt lat="44.9014133" lon="9.5463217"><ele>481.0</ele><time>2026-04-10T11:59:48.844Z</time></trkpt><trkpt lat="44.9013567" lon="9.5465183"><ele>481.0</ele><time>2026-04-10T11:59:49.847Z</time></trkpt><trkpt lat="44.901295" lon="9.5467067"><ele>481.0</ele><time>2026-04-10T11:59:50.842Z</time></trkpt><trkpt lat="44.9012683" lon="9.546885"><ele>481.0</ele><time>2026-04-10T11:59:51.842Z</time></trkpt><trkpt lat="44.90126" lon="9.5470633"><ele>483.0</ele><time>2026-04-10T11:59:52.84Z</time></trkpt><trkpt lat="44.9012617" lon="9.5472533"><ele>485.0</ele><time>2026-04-10T11:59:53.846Z</time></trkpt><trkpt lat="44.90125" lon="9.5474417"><ele>487.0</ele><time>2026-04-10T11:59:54.84Z</time></trkpt><trkpt lat="44.90123" lon="9.547615"><ele>489.0</ele><time>2026-04-10T11:59:55.842Z</time></trkpt><trkpt lat="44.9011767" lon="9.5477417"><ele>489.0</ele><time>2026-04-10T11:59:56.843Z</time></trkpt><trkpt lat="44.9011383" lon="9.5478633"><ele>489.0</ele><time>2026-04-10T11:59:57.84Z</time></trkpt><trkpt lat="44.9011117" lon="9.5480083"><ele>489.0</ele><time>2026-04-10T11:59:58.841Z</time></trkpt><trkpt lat="44.9010967" lon="9.5481683"><ele>489.0</ele><time>2026-04-10T11:59:59.841Z</time></trkpt><trkpt lat="44.9010883" lon="9.5483367"><ele>489.0</ele><time>2026-04-10T12:00:00.84Z</time></trkpt><trkpt lat="44.901075" lon="9.5485067"><ele>490.6</ele><time>2026-04-10T12:00:01.84Z</time></trkpt><trkpt lat="44.901055" lon="9.5486717"><ele>492.2</ele><time>2026-04-10T12:00:02.84Z</time></trkpt><trkpt lat="44.9010367" lon="9.5488183"><ele>493.80000000000007</ele><time>2026-04-10T12:00:03.841Z</time></trkpt><trkpt lat="44.9010317" lon="9.5489433"><ele>495.40000000000003</ele><time>2026-04-10T12:00:04.841Z</time></trkpt><trkpt lat="44.901025" lon="9.5490517"><ele>497.0</ele><time>2026-04-10T12:00:05.839Z</time></trkpt><trkpt lat="44.9010133" lon="9.5491467"><ele>496.99999999999994</ele><time>2026-04-10T12:00:06.842Z</time></trkpt><trkpt lat="44.9009883" lon="9.5493033"><ele>497.0</ele><time>2026-04-10T12:00:08.84Z</time></trkpt><trkpt lat="44.9009667" lon="9.5494017"><ele>497.0</ele><time>2026-04-10T12:00:10.839Z</time></trkpt><trkpt lat="44.900915" lon="9.549465"><ele>497.0</ele><time>2026-04-10T12:00:13.84Z</time></trkpt><trkpt lat="44.9008227" lon="9.5494954"><ele>496.99999999999994</ele><time>2026-04-10T12:00:15.841Z</time></trkpt><trkpt lat="44.900758" lon="9.5495096"><ele>497.0</ele><time>2026-04-10T12:00:16.839Z</time></trkpt><trkpt lat="44.9006799" lon="9.5495323"><ele>495.0</ele><time>2026-04-10T12:00:17.84Z</time></trkpt><trkpt lat="44.9005841" lon="9.5495604"><ele>493.0</ele><time>2026-04-10T12:00:18.84Z</time></trkpt><trkpt lat="44.9004508" lon="9.5496132"><ele>491.0</ele><time>2026-04-10T12:00:19.841Z</time></trkpt><trkpt lat="44.9003173" lon="9.5496599"><ele>489.0</ele><time>2026-04-10T12:00:20.841Z</time></trkpt><trkpt lat="44.9001858" lon="9.5496974"><ele>489.6</ele><time>2026-04-10T12:00:21.84Z</time></trkpt><trkpt lat="44.9000669" lon="9.549716"><ele>490.2</ele><time>2026-04-10T12:00:22.838Z</time></trkpt><trkpt lat="44.899967" lon="9.5497247"><ele>490.80000000000007</ele><time>2026-04-10T12:00:23.839Z</time></trkpt><trkpt lat="44.8998879" lon="9.5497309"><ele>491.40000000000003</ele><time>2026-04-10T12:00:24.838Z</time></trkpt><trkpt lat="44.899783" lon="9.5497686"><ele>492.0</ele><time>2026-04-10T12:00:26.841Z</time></trkpt><trkpt lat="44.8997548" lon="9.5498568"><ele>492.0</ele><time>2026-04-10T12:00:28.842Z</time></trkpt><trkpt lat="44.89978" lon="9.5500073"><ele>492.00000000000006</ele><time>2026-04-10T12:00:30.842Z</time></trkpt><trkpt lat="44.899814" lon="9.5501171"><ele>492.00000000000006</ele><time>2026-04-10T12:00:31.84Z</time></trkpt><trkpt lat="44.8998298" lon="9.5502462"><ele>492.0</ele><time>2026-04-10T12:00:32.841Z</time></trkpt><trkpt lat="44.8998298" lon="9.5503923"><ele>492.0</ele><time>2026-04-10T12:00:33.84Z</time></trkpt><trkpt lat="44.8998264" lon="9.5505492"><ele>492.0</ele><time>2026-04-10T12:00:34.839Z</time></trkpt><trkpt lat="44.8998133" lon="9.5507233"><ele>492.0</ele><time>2026-04-10T12:00:35.843Z</time></trkpt><trkpt lat="44.8998017" lon="9.5508883"><ele>492.0</ele><time>2026-04-10T12:00:36.84Z</time></trkpt><trkpt lat="44.899795" lon="9.5510483"><ele>492.0</ele><time>2026-04-10T12:00:37.84Z</time></trkpt><trkpt lat="44.899795" lon="9.5512117"><ele>492.20000000000005</ele><time>2026-04-10T12:00:38.842Z</time></trkpt><trkpt lat="44.8998183" lon="9.5513667"><ele>492.40000000000003</ele><time>2026-04-10T12:00:39.839Z</time></trkpt><trkpt lat="44.8998517" lon="9.5515117"><ele>492.59999999999997</ele><time>2026-04-10T12:00:40.843Z</time></trkpt><trkpt lat="44.89989" lon="9.5516417"><ele>492.79999999999995</ele><time>2026-04-10T12:00:41.84Z</time></trkpt><trkpt lat="44.899925" lon="9.55177"><ele>493.0</ele><time>2026-04-10T12:00:42.841Z</time></trkpt><trkpt lat="44.89994" lon="9.55191"><ele>492.0</ele><time>2026-04-10T12:00:43.84Z</time></trkpt><trkpt lat="44.8999333" lon="9.552065"><ele>491.0</ele><time>2026-04-10T12:00:44.84Z</time></trkpt><trkpt lat="44.89991" lon="9.5522317"><ele>490.0</ele><time>2026-04-10T12:00:45.841Z</time></trkpt><trkpt lat="44.8998633" lon="9.5524233"><ele>489.0</ele><time>2026-04-10T12:00:46.84Z</time></trkpt><trkpt lat="44.89982" lon="9.5525883"><ele>489.0</ele><time>2026-04-10T12:00:47.843Z</time></trkpt><trkpt lat="44.89977" lon="9.552735"><ele>489.0</ele><time>2026-04-10T12:00:48.842Z</time></trkpt><trkpt lat="44.8997233" lon="9.5528717"><ele>489.0</ele><time>2026-04-10T12:00:49.84Z</time></trkpt><trkpt lat="44.8996983" lon="9.5529817"><ele>489.0</ele><time>2026-04-10T12:00:50.841Z</time></trkpt><trkpt lat="44.8996733" lon="9.553115"><ele>489.0</ele><time>2026-04-10T12:00:51.841Z</time></trkpt><trkpt lat="44.899655" lon="9.5532617"><ele>489.0</ele><time>2026-04-10T12:00:52.843Z</time></trkpt><trkpt lat="44.8996567" lon="9.5534083"><ele>489.0</ele><time>2026-04-10T12:00:53.842Z</time></trkpt><trkpt lat="44.8996683" lon="9.55355"><ele>489.0</ele><time>2026-04-10T12:00:54.842Z</time></trkpt><trkpt lat="44.8996817" lon="9.553685"><ele>489.0</ele><time>2026-04-10T12:00:55.84Z</time></trkpt><trkpt lat="44.8996967" lon="9.553815"><ele>489.0</ele><time>2026-04-10T12:00:56.842Z</time></trkpt><trkpt lat="44.899695" lon="9.553935"><ele>489.0</ele><time>2026-04-10T12:00:57.842Z</time></trkpt><trkpt lat="44.8996833" lon="9.554055"><ele>489.0</ele><time>2026-04-10T12:00:58.84Z</time></trkpt><trkpt lat="44.8996567" lon="9.5541717"><ele>489.0</ele><time>2026-04-10T12:00:59.842Z</time></trkpt><trkpt lat="44.899635" lon="9.5543017"><ele>489.0</ele><time>2026-04-10T12:01:00.841Z</time></trkpt><trkpt lat="44.8996167" lon="9.5544267"><ele>489.0</ele><time>2026-04-10T12:01:01.853Z</time></trkpt><trkpt lat="44.899615" lon="9.5545417"><ele>489.0</ele><time>2026-04-10T12:01:02.845Z</time></trkpt><trkpt lat="44.8996217" lon="9.5546433"><ele>488.4</ele><time>2026-04-10T12:01:03.842Z</time></trkpt><trkpt lat="44.899675" lon="9.5547067"><ele>487.79999999999995</ele><time>2026-04-10T12:01:04.842Z</time></trkpt><trkpt lat="44.8997567" lon="9.5547583"><ele>487.20000000000005</ele><time>2026-04-10T12:01:05.841Z</time></trkpt><trkpt lat="44.8998367" lon="9.5548217"><ele>486.6</ele><time>2026-04-10T12:01:06.842Z</time></trkpt><trkpt lat="44.8999267" lon="9.55493"><ele>486.0</ele><time>2026-04-10T12:01:07.841Z</time></trkpt><trkpt lat="44.8999817" lon="9.5550467"><ele>486.0</ele><time>2026-04-10T12:01:08.841Z</time></trkpt><trkpt lat="44.900005" lon="9.55517"><ele>486.0</ele><time>2026-04-10T12:01:09.839Z</time></trkpt><trkpt lat="44.9000167" lon="9.5553033"><ele>486.0</ele><time>2026-04-10T12:01:10.841Z</time></trkpt><trkpt lat="44.9000033" lon="9.55546"><ele>486.0</ele><time>2026-04-10T12:01:11.84Z</time></trkpt><trkpt lat="44.8999917" lon="9.5556183"><ele>486.0</ele><time>2026-04-10T12:01:12.84Z</time></trkpt><trkpt lat="44.8999883" lon="9.5557817"><ele>484.4</ele><time>2026-04-10T12:01:13.843Z</time></trkpt><trkpt lat="44.8999867" lon="9.555945"><ele>482.8</ele><time>2026-04-10T12:01:14.839Z</time></trkpt><trkpt lat="44.8999767" lon="9.55608"><ele>481.19999999999993</ele><time>2026-04-10T12:01:15.841Z</time></trkpt><trkpt lat="44.8999483" lon="9.5561983"><ele>479.59999999999997</ele><time>2026-04-10T12:01:16.841Z</time></trkpt><trkpt lat="44.8999083" lon="9.5563183"><ele>478.0</ele><time>2026-04-10T12:01:17.841Z</time></trkpt><trkpt lat="44.8998633" lon="9.55643"><ele>476.00000000000006</ele><time>2026-04-10T12:01:18.841Z</time></trkpt><trkpt lat="44.899825" lon="9.5565233"><ele>474.0</ele><time>2026-04-10T12:01:19.842Z</time></trkpt><trkpt lat="44.899785" lon="9.556595"><ele>472.0</ele><time>2026-04-10T12:01:20.84Z</time></trkpt><trkpt lat="44.8997233" lon="9.5566983"><ele>470.0</ele><time>2026-04-10T12:01:22.842Z</time></trkpt><trkpt lat="44.8997367" lon="9.5568183"><ele>468.00000000000006</ele><time>2026-04-10T12:01:25.841Z</time></trkpt><trkpt lat="44.8997133" lon="9.5569583"><ele>466.0</ele><time>2026-04-10T12:01:27.84Z</time></trkpt><trkpt lat="44.8996617" lon="9.5570717"><ele>466.0</ele><time>2026-04-10T12:01:29.84Z</time></trkpt><trkpt lat="44.8995867" lon="9.55715"><ele>466.0</ele><time>2026-04-10T12:01:32.839Z</time></trkpt><trkpt lat="44.8994967" lon="9.5571083"><ele>466.0</ele><time>2026-04-10T12:01:35.839Z</time></trkpt><trkpt lat="44.8994033" lon="9.5570283"><ele>466.0</ele><time>2026-04-10T12:01:37.84Z</time></trkpt><trkpt lat="44.8992933" lon="9.556965"><ele>466.0</ele><time>2026-04-10T12:01:39.84Z</time></trkpt><trkpt lat="44.8992" lon="9.5568567"><ele>465.33333333333337</ele><time>2026-04-10T12:01:41.846Z</time></trkpt><trkpt lat="44.8991583" lon="9.5567867"><ele>464.6666666666667</ele><time>2026-04-10T12:01:42.839Z</time></trkpt><trkpt lat="44.8991217" lon="9.5567017"><ele>464.0</ele><time>2026-04-10T12:01:43.84Z</time></trkpt><trkpt lat="44.8990867" lon="9.5565867"><ele>463.33333333333337</ele><time>2026-04-10T12:01:44.839Z</time></trkpt><trkpt lat="44.89907" lon="9.55645"><ele>462.6666666666667</ele><time>2026-04-10T12:01:45.84Z</time></trkpt><trkpt lat="44.89905" lon="9.5563117"><ele>462.0</ele><time>2026-04-10T12:01:46.841Z</time></trkpt><trkpt lat="44.899025" lon="9.5561733"><ele>462.0</ele><time>2026-04-10T12:01:47.839Z</time></trkpt><trkpt lat="44.8989883" lon="9.5560617"><ele>462.00000000000006</ele><time>2026-04-10T12:01:48.841Z</time></trkpt><trkpt lat="44.89893" lon="9.55597"><ele>462.00000000000006</ele><time>2026-04-10T12:01:49.84Z</time></trkpt><trkpt lat="44.8988483" lon="9.5558883"><ele>462.0</ele><time>2026-04-10T12:01:50.839Z</time></trkpt><trkpt lat="44.898755" lon="9.5558217"><ele>462.0</ele><time>2026-04-10T12:01:51.84Z</time></trkpt><trkpt lat="44.89865" lon="9.5557583"><ele>462.0</ele><time>2026-04-10T12:01:52.84Z</time></trkpt><trkpt lat="44.898555" lon="9.5556817"><ele>462.00000000000006</ele><time>2026-04-10T12:01:53.841Z</time></trkpt><trkpt lat="44.8984617" lon="9.555615"><ele>462.00000000000006</ele><time>2026-04-10T12:01:54.841Z</time></trkpt><trkpt lat="44.8983767" lon="9.55556"><ele>462.0</ele><time>2026-04-10T12:01:55.84Z</time></trkpt><trkpt lat="44.8983" lon="9.5555283"><ele>462.0</ele><time>2026-04-10T12:01:56.841Z</time></trkpt><trkpt lat="44.8982317" lon="9.5555"><ele>460.3333333333333</ele><time>2026-04-10T12:01:57.843Z</time></trkpt><trkpt lat="44.8981667" lon="9.5554683"><ele>458.66666666666663</ele><time>2026-04-10T12:01:58.841Z</time></trkpt><trkpt lat="44.8980733" lon="9.55537"><ele>457.0</ele><time>2026-04-10T12:02:00.84Z</time></trkpt><trkpt lat="44.8980333" lon="9.5553"><ele>455.3333333333333</ele><time>2026-04-10T12:02:01.84Z</time></trkpt><trkpt lat="44.8979917" lon="9.555205"><ele>453.66666666666663</ele><time>2026-04-10T12:02:02.841Z</time></trkpt><trkpt lat="44.8979417" lon="9.5550733"><ele>452.0</ele><time>2026-04-10T12:02:03.841Z</time></trkpt><trkpt lat="44.8978733" lon="9.5549133"><ele>452.0</ele><time>2026-04-10T12:02:04.839Z</time></trkpt><trkpt lat="44.8978" lon="9.5547583"><ele>452.0</ele><time>2026-04-10T12:02:05.84Z</time></trkpt><trkpt lat="44.89772" lon="9.5546183"><ele>452.0</ele><time>2026-04-10T12:02:06.841Z</time></trkpt><trkpt lat="44.8976417" lon="9.554485"><ele>452.0</ele><time>2026-04-10T12:02:07.839Z</time></trkpt><trkpt lat="44.89757" lon="9.5543617"><ele>449.16666666666663</ele><time>2026-04-10T12:02:08.84Z</time></trkpt><trkpt lat="44.897505" lon="9.5542517"><ele>446.3333333333333</ele><time>2026-04-10T12:02:09.841Z</time></trkpt><trkpt lat="44.89744" lon="9.5541717"><ele>443.5</ele><time>2026-04-10T12:02:10.843Z</time></trkpt><trkpt lat="44.8973617" lon="9.55412"><ele>440.66666666666663</ele><time>2026-04-10T12:02:11.841Z</time></trkpt><trkpt lat="44.89728" lon="9.554075"><ele>437.8333333333333</ele><time>2026-04-10T12:02:12.839Z</time></trkpt><trkpt lat="44.8972033" lon="9.554025"><ele>435.0</ele><time>2026-04-10T12:02:13.84Z</time></trkpt><trkpt lat="44.8971433" lon="9.5539783"><ele>435.0</ele><time>2026-04-10T12:02:14.84Z</time></trkpt><trkpt lat="44.8970667" lon="9.5538817"><ele>435.0</ele><time>2026-04-10T12:02:16.84Z</time></trkpt><trkpt lat="44.8970033" lon="9.55379"><ele>435.0</ele><time>2026-04-10T12:02:18.841Z</time></trkpt><trkpt lat="44.896945" lon="9.5537033"><ele>435.0</ele><time>2026-04-10T12:02:20.84Z</time></trkpt><trkpt lat="44.896885" lon="9.5535967"><ele>435.0</ele><time>2026-04-10T12:02:22.843Z</time></trkpt><trkpt lat="44.8968117" lon="9.5534917"><ele>435.8</ele><time>2026-04-10T12:02:24.839Z</time></trkpt><trkpt lat="44.8967533" lon="9.5533967"><ele>436.6</ele><time>2026-04-10T12:02:26.841Z</time></trkpt><trkpt lat="44.89669" lon="9.5532883"><ele>437.4</ele><time>2026-04-10T12:02:28.839Z</time></trkpt><trkpt lat="44.8966217" lon="9.5532133"><ele>438.2</ele><time>2026-04-10T12:02:30.842Z</time></trkpt><trkpt lat="44.8965483" lon="9.5532067"><ele>439.0</ele><time>2026-04-10T12:02:33.839Z</time></trkpt><trkpt lat="44.8964333" lon="9.5532283"><ele>437.33333333333337</ele><time>2026-04-10T12:02:42.84Z</time></trkpt><trkpt lat="44.89633" lon="9.5532883"><ele>435.6666666666667</ele><time>2026-04-10T12:02:44.841Z</time></trkpt><trkpt lat="44.8962633" lon="9.5533433"><ele>434.0</ele><time>2026-04-10T12:02:45.84Z</time></trkpt><trkpt lat="44.896195" lon="9.5534017"><ele>432.33333333333337</ele><time>2026-04-10T12:02:46.84Z</time></trkpt><trkpt lat="44.89612" lon="9.5534533"><ele>430.6666666666667</ele><time>2026-04-10T12:02:47.84Z</time></trkpt><trkpt lat="44.8960483" lon="9.553495"><ele>429.0</ele><time>2026-04-10T12:02:48.839Z</time></trkpt><trkpt lat="44.8959733" lon="9.5535217"><ele>429.5</ele><time>2026-04-10T12:02:49.841Z</time></trkpt><trkpt lat="44.8958933" lon="9.5535333"><ele>430.0</ele><time>2026-04-10T12:02:50.84Z</time></trkpt><trkpt lat="44.8958133" lon="9.5535417"><ele>430.5</ele><time>2026-04-10T12:02:51.841Z</time></trkpt><trkpt lat="44.8957317" lon="9.55355"><ele>431.0</ele><time>2026-04-10T12:02:52.839Z</time></trkpt><trkpt lat="44.89565" lon="9.5535617"><ele>431.5</ele><time>2026-04-10T12:02:53.84Z</time></trkpt><trkpt lat="44.8955667" lon="9.5535867"><ele>432.0</ele><time>2026-04-10T12:02:54.839Z</time></trkpt><trkpt lat="44.8954883" lon="9.5536183"><ele>432.0</ele><time>2026-04-10T12:02:55.84Z</time></trkpt><trkpt lat="44.8954083" lon="9.5536617"><ele>432.0</ele><time>2026-04-10T12:02:56.839Z</time></trkpt><trkpt lat="44.8953317" lon="9.5537183"><ele>432.0</ele><time>2026-04-10T12:02:57.84Z</time></trkpt><trkpt lat="44.895255" lon="9.5537783"><ele>432.0</ele><time>2026-04-10T12:02:58.839Z</time></trkpt><trkpt lat="44.8951761" lon="9.5538443"><ele>432.0</ele><time>2026-04-10T12:02:59.84Z</time></trkpt><trkpt lat="44.8950946" lon="9.5539068"><ele>432.0</ele><time>2026-04-10T12:03:00.84Z</time></trkpt><trkpt lat="44.8950125" lon="9.5539622"><ele>432.0</ele><time>2026-04-10T12:03:01.84Z</time></trkpt><trkpt lat="44.8949308" lon="9.5540186"><ele>432.0</ele><time>2026-04-10T12:03:02.841Z</time></trkpt><trkpt lat="44.8948518" lon="9.5540727"><ele>432.0</ele><time>2026-04-10T12:03:03.841Z</time></trkpt><trkpt lat="44.8947827" lon="9.5541108"><ele>432.0</ele><time>2026-04-10T12:03:04.84Z</time></trkpt><trkpt lat="44.894684" lon="9.5541405"><ele>432.0</ele><time>2026-04-10T12:03:06.84Z</time></trkpt><trkpt lat="44.8946062" lon="9.5540983"><ele>432.0</ele><time>2026-04-10T12:03:09.84Z</time></trkpt><trkpt lat="44.8945402" lon="9.5540642"><ele>432.0</ele><time>2026-04-10T12:03:11.841Z</time></trkpt><trkpt lat="44.8944635" lon="9.5539908"><ele>432.0</ele><time>2026-04-10T12:03:13.839Z</time></trkpt><trkpt lat="44.8943886" lon="9.5539029"><ele>432.0</ele><time>2026-04-10T12:03:15.84Z</time></trkpt><trkpt lat="44.894325" lon="9.5538386"><ele>432.0</ele><time>2026-04-10T12:03:16.839Z</time></trkpt><trkpt lat="44.8942478" lon="9.5537786"><ele>432.0</ele><time>2026-04-10T12:03:17.841Z</time></trkpt><trkpt lat="44.8941759" lon="9.5537277"><ele>432.0</ele><time>2026-04-10T12:03:18.839Z</time></trkpt><trkpt lat="44.8941036" lon="9.5536863"><ele>432.8333333333333</ele><time>2026-04-10T12:03:19.84Z</time></trkpt><trkpt lat="44.894038" lon="9.553656"><ele>433.66666666666663</ele><time>2026-04-10T12:03:20.843Z</time></trkpt><trkpt lat="44.893924" lon="9.5536676"><ele>434.5</ele><time>2026-04-10T12:03:22.839Z</time></trkpt><trkpt lat="44.8938628" lon="9.5537092"><ele>435.3333333333333</ele><time>2026-04-10T12:03:23.839Z</time></trkpt><trkpt lat="44.8937924" lon="9.5537607"><ele>436.16666666666663</ele><time>2026-04-10T12:03:24.84Z</time></trkpt><trkpt lat="44.89371" lon="9.55381"><ele>437.0</ele><time>2026-04-10T12:03:25.84Z</time></trkpt><trkpt lat="44.89363" lon="9.55385"><ele>436.99999999999994</ele><time>2026-04-10T12:03:26.841Z</time></trkpt><trkpt lat="44.8935533" lon="9.55389"><ele>437.0</ele><time>2026-04-10T12:03:27.841Z</time></trkpt><trkpt lat="44.8934783" lon="9.553935"><ele>437.0</ele><time>2026-04-10T12:03:28.839Z</time></trkpt><trkpt lat="44.8934133" lon="9.5539867"><ele>437.0</ele><time>2026-04-10T12:03:29.84Z</time></trkpt><trkpt lat="44.8933333" lon="9.5540867"><ele>436.99999999999994</ele><time>2026-04-10T12:03:31.84Z</time></trkpt><trkpt lat="44.8932667" lon="9.5541417"><ele>437.0</ele><time>2026-04-10T12:03:34.842Z</time></trkpt><trkpt lat="44.8931967" lon="9.5541867"><ele>436.7142857142857</ele><time>2026-04-10T12:03:36.839Z</time></trkpt><trkpt lat="44.8931183" lon="9.554255"><ele>436.42857142857144</ele><time>2026-04-10T12:03:38.839Z</time></trkpt><trkpt lat="44.8930733" lon="9.5543183"><ele>436.14285714285717</ele><time>2026-04-10T12:03:39.84Z</time></trkpt><trkpt lat="44.8930383" lon="9.554405"><ele>435.8571428571429</ele><time>2026-04-10T12:03:40.844Z</time></trkpt><trkpt lat="44.893015" lon="9.5544967"><ele>435.57142857142856</ele><time>2026-04-10T12:03:41.839Z</time></trkpt><trkpt lat="44.8929917" lon="9.554595"><ele>435.28571428571433</ele><time>2026-04-10T12:03:42.84Z</time></trkpt><trkpt lat="44.8929733" lon="9.554685"><ele>435.0</ele><time>2026-04-10T12:03:43.841Z</time></trkpt><trkpt lat="44.89296" lon="9.554785"><ele>433.5</ele><time>2026-04-10T12:03:44.84Z</time></trkpt><trkpt lat="44.892925" lon="9.5548883"><ele>432.0</ele><time>2026-04-10T12:03:45.839Z</time></trkpt><trkpt lat="44.8928867" lon="9.554985"><ele>430.5</ele><time>2026-04-10T12:03:46.839Z</time></trkpt><trkpt lat="44.8928433" lon="9.5550567"><ele>429.0</ele><time>2026-04-10T12:03:47.84Z</time></trkpt><trkpt lat="44.8927783" lon="9.5551467"><ele>427.5</ele><time>2026-04-10T12:03:49.84Z</time></trkpt><trkpt lat="44.8927667" lon="9.5552633"><ele>426.0</ele><time>2026-04-10T12:03:54.841Z</time></trkpt><trkpt lat="44.8927467" lon="9.5553867"><ele>424.8333333333333</ele><time>2026-04-10T12:03:56.84Z</time></trkpt><trkpt lat="44.8927383" lon="9.5555267"><ele>423.66666666666663</ele><time>2026-04-10T12:03:58.842Z</time></trkpt><trkpt lat="44.8927467" lon="9.555615"><ele>422.5</ele><time>2026-04-10T12:03:59.84Z</time></trkpt><trkpt lat="44.8927917" lon="9.5557533"><ele>421.3333333333333</ele><time>2026-04-10T12:04:01.841Z</time></trkpt><trkpt lat="44.8927867" lon="9.5558767"><ele>420.16666666666663</ele><time>2026-04-10T12:04:03.844Z</time></trkpt><trkpt lat="44.8927667" lon="9.555985"><ele>419.0</ele><time>2026-04-10T12:04:05.84Z</time></trkpt><trkpt lat="44.8927567" lon="9.556085"><ele>416.99999999999994</ele><time>2026-04-10T12:04:07.84Z</time></trkpt><trkpt lat="44.8927533" lon="9.556205"><ele>415.0</ele><time>2026-04-10T12:04:10.841Z</time></trkpt><trkpt lat="44.8927567" lon="9.556305"><ele>413.0</ele><time>2026-04-10T12:04:13.841Z</time></trkpt><trkpt lat="44.89273" lon="9.5564167"><ele>411.0</ele><time>2026-04-10T12:04:16.84Z</time></trkpt><trkpt lat="44.8927667" lon="9.5564967"><ele>408.99999999999994</ele><time>2026-04-10T12:04:18.839Z</time></trkpt><trkpt lat="44.8928117" lon="9.55656"><ele>407.0</ele><time>2026-04-10T12:04:20.842Z</time></trkpt><trkpt lat="44.892805" lon="9.556675"><ele>407.00000000000006</ele><time>2026-04-10T12:04:23.84Z</time></trkpt><trkpt lat="44.8927967" lon="9.5567683"><ele>407.0</ele><time>2026-04-10T12:04:26.841Z</time></trkpt><trkpt lat="44.8928633" lon="9.5568467"><ele>407.0</ele><time>2026-04-10T12:04:29.839Z</time></trkpt><trkpt lat="44.8928917" lon="9.55694"><ele>407.0</ele><time>2026-04-10T12:04:32.84Z</time></trkpt><trkpt lat="44.892945" lon="9.5569917"><ele>407.0</ele><time>2026-04-10T12:04:35.845Z</time></trkpt><trkpt lat="44.89301" lon="9.5569183"><ele>407.00000000000006</ele><time>2026-04-10T12:04:38.841Z</time></trkpt><trkpt lat="44.8930767" lon="9.5568767"><ele>407.0</ele><time>2026-04-10T12:04:42.84Z</time></trkpt><trkpt lat="44.8931467" lon="9.5569367"><ele>404.7142857142857</ele><time>2026-04-10T12:04:45.84Z</time></trkpt><trkpt lat="44.893115" lon="9.5570517"><ele>402.42857142857144</ele><time>2026-04-10T12:04:49.84Z</time></trkpt><trkpt lat="44.8930817" lon="9.5571317"><ele>400.1428571428571</ele><time>2026-04-10T12:04:51.841Z</time></trkpt><trkpt lat="44.8931467" lon="9.5571383"><ele>397.8571428571429</ele><time>2026-04-10T12:04:57.84Z</time></trkpt><trkpt lat="44.8932167" lon="9.557095"><ele>395.57142857142856</ele><time>2026-04-10T12:05:01.84Z</time></trkpt><trkpt lat="44.8932667" lon="9.5571583"><ele>393.2857142857143</ele><time>2026-04-10T12:05:04.841Z</time></trkpt><trkpt lat="44.893245" lon="9.5572683"><ele>391.0</ele><time>2026-04-10T12:05:07.842Z</time></trkpt><trkpt lat="44.8932317" lon="9.5573767"><ele>391.00000000000006</ele><time>2026-04-10T12:05:09.84Z</time></trkpt><trkpt lat="44.89319" lon="9.5574983"><ele>391.0</ele><time>2026-04-10T12:05:11.84Z</time></trkpt><trkpt lat="44.893155" lon="9.5576067"><ele>391.0</ele><time>2026-04-10T12:05:14.841Z</time></trkpt><trkpt lat="44.89322" lon="9.5576783"><ele>391.0</ele><time>2026-04-10T12:05:18.841Z</time></trkpt><trkpt lat="44.89328" lon="9.5577433"><ele>391.00000000000006</ele><time>2026-04-10T12:05:21.84Z</time></trkpt><trkpt lat="44.8932633" lon="9.557835"><ele>391.0</ele><time>2026-04-10T12:05:24.841Z</time></trkpt><trkpt lat="44.8932633" lon="9.5579433"><ele>387.83333333333337</ele><time>2026-04-10T12:05:28.841Z</time></trkpt><trkpt lat="44.893195" lon="9.558025"><ele>384.6666666666667</ele><time>2026-04-10T12:05:33.84Z</time></trkpt><trkpt lat="44.8931967" lon="9.55813"><ele>381.5</ele><time>2026-04-10T12:05:37.841Z</time></trkpt><trkpt lat="44.8932233" lon="9.5582133"><ele>378.33333333333337</ele><time>2026-04-10T12:05:41.841Z</time></trkpt><trkpt lat="44.8932133" lon="9.5583333"><ele>375.1666666666667</ele><time>2026-04-10T12:05:44.843Z</time></trkpt><trkpt lat="44.8932083" lon="9.5584483"><ele>372.0</ele><time>2026-04-10T12:05:47.84Z</time></trkpt><trkpt lat="44.8932233" lon="9.5585383"><ele>372.0</ele><time>2026-04-10T12:05:49.841Z</time></trkpt><trkpt lat="44.8932283" lon="9.5586533"><ele>372.0</ele><time>2026-04-10T12:05:52.841Z</time></trkpt><trkpt lat="44.8932017" lon="9.5587467"><ele>372.0</ele><time>2026-04-10T12:05:54.84Z</time></trkpt><trkpt lat="44.89317" lon="9.5588783"><ele>372.0</ele><time>2026-04-10T12:05:56.843Z</time></trkpt><trkpt lat="44.8931517" lon="9.5590067"><ele>372.0</ele><time>2026-04-10T12:05:58.844Z</time></trkpt><trkpt lat="44.89315" lon="9.5591017"><ele>372.0</ele><time>2026-04-10T12:06:00.842Z</time></trkpt><trkpt lat="44.893105" lon="9.5591683"><ele>369.0</ele><time>2026-04-10T12:06:02.841Z</time></trkpt><trkpt lat="44.8930767" lon="9.5593017"><ele>366.0</ele><time>2026-04-10T12:06:05.842Z</time></trkpt><trkpt lat="44.8930633" lon="9.5594267"><ele>363.0</ele><time>2026-04-10T12:06:07.842Z</time></trkpt><trkpt lat="44.893055" lon="9.5595433"><ele>360.0</ele><time>2026-04-10T12:06:09.842Z</time></trkpt><trkpt lat="44.8931017" lon="9.5596533"><ele>357.0</ele><time>2026-04-10T12:06:11.839Z</time></trkpt><trkpt lat="44.8931633" lon="9.5596833"><ele>354.0</ele><time>2026-04-10T12:06:13.842Z</time></trkpt><trkpt lat="44.893265" lon="9.5596367"><ele>350.8333333333333</ele><time>2026-04-10T12:06:15.839Z</time></trkpt><trkpt lat="44.8933267" lon="9.5596117"><ele>347.6666666666667</ele><time>2026-04-10T12:06:16.841Z</time></trkpt><trkpt lat="44.8933917" lon="9.5596033"><ele>344.5</ele><time>2026-04-10T12:06:17.84Z</time></trkpt><trkpt lat="44.89349" lon="9.5595817"><ele>341.33333333333337</ele><time>2026-04-10T12:06:19.84Z</time></trkpt><trkpt lat="44.8935967" lon="9.559615"><ele>338.1666666666667</ele><time>2026-04-10T12:06:22.841Z</time></trkpt><trkpt lat="44.8936583" lon="9.5596617"><ele>335.0</ele><time>2026-04-10T12:06:23.841Z</time></trkpt><trkpt lat="44.8937333" lon="9.5597133"><ele>335.0</ele><time>2026-04-10T12:06:24.841Z</time></trkpt><trkpt lat="44.89381" lon="9.55975"><ele>335.0</ele><time>2026-04-10T12:06:25.839Z</time></trkpt><trkpt lat="44.893885" lon="9.5597567"><ele>335.0</ele><time>2026-04-10T12:06:26.84Z</time></trkpt><trkpt lat="44.8939617" lon="9.559745"><ele>335.0</ele><time>2026-04-10T12:06:27.842Z</time></trkpt><trkpt lat="44.894055" lon="9.5597167"><ele>335.0</ele><time>2026-04-10T12:06:28.841Z</time></trkpt><trkpt lat="44.8941517" lon="9.5596617"><ele>335.0</ele><time>2026-04-10T12:06:29.841Z</time></trkpt><trkpt lat="44.8942417" lon="9.55958"><ele>337.33333333333337</ele><time>2026-04-10T12:06:30.84Z</time></trkpt><trkpt lat="44.894315" lon="9.5594967"><ele>339.6666666666667</ele><time>2026-04-10T12:06:31.843Z</time></trkpt><trkpt lat="44.89438" lon="9.5593983"><ele>342.0</ele><time>2026-04-10T12:06:32.841Z</time></trkpt><trkpt lat="44.8944317" lon="9.55929"><ele>344.3333333333333</ele><time>2026-04-10T12:06:33.841Z</time></trkpt><trkpt lat="44.8944833" lon="9.5592"><ele>346.66666666666663</ele><time>2026-04-10T12:06:34.841Z</time></trkpt><trkpt lat="44.8945383" lon="9.55914"><ele>349.0</ele><time>2026-04-10T12:06:35.84Z</time></trkpt><trkpt lat="44.89462" lon="9.5591217"><ele>349.0</ele><time>2026-04-10T12:06:37.841Z</time></trkpt><trkpt lat="44.8947167" lon="9.55912"><ele>349.0</ele><time>2026-04-10T12:06:39.84Z</time></trkpt><trkpt lat="44.8947917" lon="9.5591383"><ele>349.0</ele><time>2026-04-10T12:06:41.84Z</time></trkpt><trkpt lat="44.8948467" lon="9.5591933"><ele>349.0</ele><time>2026-04-10T12:06:59.843Z</time></trkpt><trkpt lat="44.8948767" lon="9.559305"><ele>349.0</ele><time>2026-04-10T12:07:24.839Z</time></trkpt><trkpt lat="44.8948883" lon="9.5595333"><ele>347.66666666666663</ele><time>2026-04-10T12:07:57.842Z</time></trkpt><trkpt lat="44.8948983" lon="9.5596233"><ele>346.3333333333333</ele><time>2026-04-10T12:08:08.842Z</time></trkpt><trkpt lat="44.8949117" lon="9.55972"><ele>345.0</ele><time>2026-04-10T12:08:12.84Z</time></trkpt><trkpt lat="44.8948833" lon="9.5598867"><ele>343.6666666666667</ele><time>2026-04-10T12:08:28.84Z</time></trkpt><trkpt lat="44.8948483" lon="9.55997"><ele>342.33333333333337</ele><time>2026-04-10T12:08:34.844Z</time></trkpt><trkpt lat="44.8947917" lon="9.5600467"><ele>341.0</ele><time>2026-04-10T12:08:38.842Z</time></trkpt><trkpt lat="44.894725" lon="9.5601483"><ele>341.0</ele><time>2026-04-10T12:09:03.84Z</time></trkpt><trkpt lat="44.8946617" lon="9.5602267"><ele>341.0</ele><time>2026-04-10T12:09:05.841Z</time></trkpt><trkpt lat="44.8945783" lon="9.5603317"><ele>341.0</ele><time>2026-04-10T12:09:07.839Z</time></trkpt><trkpt lat="44.8945033" lon="9.560405"><ele>341.0</ele><time>2026-04-10T12:09:09.839Z</time></trkpt><trkpt lat="44.89452" lon="9.56052"><ele>341.0</ele><time>2026-04-10T12:09:14.842Z</time></trkpt><trkpt lat="44.8945567" lon="9.5605933"><ele>341.0</ele><time>2026-04-10T12:09:17.84Z</time></trkpt><trkpt lat="44.894585" lon="9.5606783"><ele>339.57142857142856</ele><time>2026-04-10T12:09:19.84Z</time></trkpt><trkpt lat="44.89461" lon="9.5607617"><ele>338.14285714285717</ele><time>2026-04-10T12:09:21.84Z</time></trkpt><trkpt lat="44.8946183" lon="9.5608867"><ele>336.7142857142857</ele><time>2026-04-10T12:09:23.84Z</time></trkpt><trkpt lat="44.8946017" lon="9.5609867"><ele>335.2857142857143</ele><time>2026-04-10T12:09:24.84Z</time></trkpt><trkpt lat="44.894585" lon="9.5610783"><ele>333.85714285714283</ele><time>2026-04-10T12:09:25.84Z</time></trkpt><trkpt lat="44.8945833" lon="9.56118"><ele>332.42857142857144</ele><time>2026-04-10T12:09:26.841Z</time></trkpt><trkpt lat="44.8945933" lon="9.5612833"><ele>331.0</ele><time>2026-04-10T12:09:27.84Z</time></trkpt><trkpt lat="44.8946167" lon="9.5613717"><ele>330.0</ele><time>2026-04-10T12:09:28.84Z</time></trkpt><trkpt lat="44.8946367" lon="9.5614667"><ele>329.0</ele><time>2026-04-10T12:09:29.84Z</time></trkpt><trkpt lat="44.8946583" lon="9.5615667"><ele>328.0</ele><time>2026-04-10T12:09:30.84Z</time></trkpt><trkpt lat="44.8946867" lon="9.5616717"><ele>327.0</ele><time>2026-04-10T12:09:31.84Z</time></trkpt><trkpt lat="44.8946867" lon="9.5617917"><ele>326.0</ele><time>2026-04-10T12:09:32.843Z</time></trkpt><trkpt lat="44.8946883" lon="9.561905"><ele>325.0</ele><time>2026-04-10T12:09:33.84Z</time></trkpt><trkpt lat="44.8946717" lon="9.5620067"><ele>324.3333333333333</ele><time>2026-04-10T12:09:34.843Z</time></trkpt><trkpt lat="44.894635" lon="9.5621117"><ele>323.66666666666663</ele><time>2026-04-10T12:09:35.839Z</time></trkpt><trkpt lat="44.894595" lon="9.5622233"><ele>323.0</ele><time>2026-04-10T12:09:36.84Z</time></trkpt><trkpt lat="44.89456" lon="9.5623317"><ele>322.3333333333333</ele><time>2026-04-10T12:09:37.841Z</time></trkpt><trkpt lat="44.89454" lon="9.5624217"><ele>321.6666666666667</ele><time>2026-04-10T12:09:38.841Z</time></trkpt><trkpt lat="44.8945117" lon="9.5625617"><ele>321.0</ele><time>2026-04-10T12:09:40.841Z</time></trkpt><trkpt lat="44.8945533" lon="9.5626483"><ele>321.0</ele><time>2026-04-10T12:09:42.839Z</time></trkpt><trkpt lat="44.89464" lon="9.5627517"><ele>321.0</ele><time>2026-04-10T12:09:44.839Z</time></trkpt><trkpt lat="44.8946933" lon="9.562811"><ele>321.0</ele><time>2026-04-10T12:09:45.842Z</time></trkpt><trkpt lat="44.8947558" lon="9.5628727"><ele>321.0</ele><time>2026-04-10T12:09:46.839Z</time></trkpt><trkpt lat="44.8948356" lon="9.5629412"><ele>321.0</ele><time>2026-04-10T12:09:47.841Z</time></trkpt><trkpt lat="44.8949166" lon="9.562997"><ele>321.0</ele><time>2026-04-10T12:09:48.839Z</time></trkpt><trkpt lat="44.8949967" lon="9.5630472"><ele>322.6666666666667</ele><time>2026-04-10T12:09:49.841Z</time></trkpt><trkpt lat="44.8950734" lon="9.5631077"><ele>324.3333333333333</ele><time>2026-04-10T12:09:50.842Z</time></trkpt><trkpt lat="44.895142" lon="9.5631715"><ele>326.0</ele><time>2026-04-10T12:09:51.84Z</time></trkpt><trkpt lat="44.8951981" lon="9.5632389"><ele>327.66666666666663</ele><time>2026-04-10T12:09:52.84Z</time></trkpt><trkpt lat="44.8952459" lon="9.56332"><ele>329.3333333333333</ele><time>2026-04-10T12:09:53.842Z</time></trkpt><trkpt lat="44.8952985" lon="9.5634032"><ele>331.0</ele><time>2026-04-10T12:09:54.84Z</time></trkpt><trkpt lat="44.8953637" lon="9.56348"><ele>331.0</ele><time>2026-04-10T12:09:55.839Z</time></trkpt><trkpt lat="44.8954337" lon="9.5635444"><ele>331.0</ele><time>2026-04-10T12:09:56.843Z</time></trkpt><trkpt lat="44.8955013" lon="9.5636111"><ele>331.0</ele><time>2026-04-10T12:09:57.84Z</time></trkpt><trkpt lat="44.8955697" lon="9.5636804"><ele>331.0</ele><time>2026-04-10T12:09:58.845Z</time></trkpt><trkpt lat="44.8956716" lon="9.5637654"><ele>331.0</ele><time>2026-04-10T12:09:59.841Z</time></trkpt><trkpt lat="44.8957687" lon="9.5638537"><ele>332.4</ele><time>2026-04-10T12:10:00.841Z</time></trkpt><trkpt lat="44.8958638" lon="9.5639574"><ele>333.8</ele><time>2026-04-10T12:10:01.841Z</time></trkpt><trkpt lat="44.8959543" lon="9.5640587"><ele>335.2</ele><time>2026-04-10T12:10:02.84Z</time></trkpt><trkpt lat="44.8960378" lon="9.5641446"><ele>336.59999999999997</ele><time>2026-04-10T12:10:03.841Z</time></trkpt><trkpt lat="44.8961229" lon="9.5641964"><ele>338.0</ele><time>2026-04-10T12:10:04.841Z</time></trkpt><trkpt lat="44.8962158" lon="9.5642331"><ele>338.0</ele><time>2026-04-10T12:10:05.841Z</time></trkpt><trkpt lat="44.8963066" lon="9.5642669"><ele>338.0</ele><time>2026-04-10T12:10:06.841Z</time></trkpt><trkpt lat="44.8963995" lon="9.5643095"><ele>338.0</ele><time>2026-04-10T12:10:07.84Z</time></trkpt><trkpt lat="44.8964933" lon="9.5643509"><ele>338.0</ele><time>2026-04-10T12:10:08.84Z</time></trkpt><trkpt lat="44.8965941" lon="9.5643943"><ele>338.0</ele><time>2026-04-10T12:10:09.844Z</time></trkpt><trkpt lat="44.8967004" lon="9.564436"><ele>337.2</ele><time>2026-04-10T12:10:10.841Z</time></trkpt><trkpt lat="44.8968169" lon="9.5644687"><ele>336.4</ele><time>2026-04-10T12:10:11.845Z</time></trkpt><trkpt lat="44.8969326" lon="9.5644886"><ele>335.59999999999997</ele><time>2026-04-10T12:10:12.841Z</time></trkpt><trkpt lat="44.8970355" lon="9.5645073"><ele>334.79999999999995</ele><time>2026-04-10T12:10:13.843Z</time></trkpt><trkpt lat="44.8971275" lon="9.5645311"><ele>334.0</ele><time>2026-04-10T12:10:14.84Z</time></trkpt><trkpt lat="44.8972091" lon="9.5645615"><ele>334.0</ele><time>2026-04-10T12:10:15.839Z</time></trkpt><trkpt lat="44.8972746" lon="9.5645886"><ele>334.0</ele><time>2026-04-10T12:10:16.843Z</time></trkpt><trkpt lat="44.8973587" lon="9.5645908"><ele>334.0</ele><time>2026-04-10T12:10:18.84Z</time></trkpt><trkpt lat="44.8974229" lon="9.5645669"><ele>334.0</ele><time>2026-04-10T12:10:24.841Z</time></trkpt><trkpt lat="44.8975042" lon="9.5644707"><ele>334.0</ele><time>2026-04-10T12:10:26.839Z</time></trkpt><trkpt lat="44.897576" lon="9.5643377"><ele>334.0</ele><time>2026-04-10T12:10:28.841Z</time></trkpt><trkpt lat="44.8976115" lon="9.56423"><ele>336.66666666666663</ele><time>2026-04-10T12:10:29.84Z</time></trkpt><trkpt lat="44.8976427" lon="9.5641166"><ele>339.3333333333333</ele><time>2026-04-10T12:10:30.841Z</time></trkpt><trkpt lat="44.8976704" lon="9.5640084"><ele>342.0</ele><time>2026-04-10T12:10:31.84Z</time></trkpt><trkpt lat="44.8977036" lon="9.5639143"><ele>344.6666666666667</ele><time>2026-04-10T12:10:32.84Z</time></trkpt><trkpt lat="44.897746" lon="9.5638433"><ele>347.33333333333337</ele><time>2026-04-10T12:10:33.84Z</time></trkpt><trkpt lat="44.8978599" lon="9.563801"><ele>350.0</ele><time>2026-04-10T12:10:35.845Z</time></trkpt><trkpt lat="44.8979733" lon="9.5639166"><ele>350.0</ele><time>2026-04-10T12:10:37.84Z</time></trkpt><trkpt lat="44.8980424" lon="9.5639873"><ele>350.0</ele><time>2026-04-10T12:10:38.84Z</time></trkpt><trkpt lat="44.8981307" lon="9.5640797"><ele>350.0</ele><time>2026-04-10T12:10:39.84Z</time></trkpt><trkpt lat="44.8981988" lon="9.564167"><ele>350.0</ele><time>2026-04-10T12:10:40.845Z</time></trkpt><trkpt lat="44.8982584" lon="9.5642639"><ele>350.0</ele><time>2026-04-10T12:10:41.841Z</time></trkpt><trkpt lat="44.8983167" lon="9.564349"><ele>350.0</ele><time>2026-04-10T12:10:42.841Z</time></trkpt><trkpt lat="44.8983706" lon="9.5644388"><ele>350.0</ele><time>2026-04-10T12:10:43.841Z</time></trkpt><trkpt lat="44.898419" lon="9.5645458"><ele>350.0</ele><time>2026-04-10T12:10:44.841Z</time></trkpt><trkpt lat="44.8984735" lon="9.5646666"><ele>350.0</ele><time>2026-04-10T12:10:45.841Z</time></trkpt><trkpt lat="44.8985249" lon="9.564775"><ele>350.0</ele><time>2026-04-10T12:10:46.842Z</time></trkpt><trkpt lat="44.8985869" lon="9.5648706"><ele>350.4</ele><time>2026-04-10T12:10:47.84Z</time></trkpt><trkpt lat="44.8986571" lon="9.5649573"><ele>350.8</ele><time>2026-04-10T12:10:48.84Z</time></trkpt><trkpt lat="44.8987373" lon="9.5650409"><ele>351.20000000000005</ele><time>2026-04-10T12:10:49.842Z</time></trkpt><trkpt lat="44.8988189" lon="9.5651198"><ele>351.6</ele><time>2026-04-10T12:10:50.841Z</time></trkpt><trkpt lat="44.8989107" lon="9.5651951"><ele>352.0</ele><time>2026-04-10T12:10:51.84Z</time></trkpt><trkpt lat="44.899006" lon="9.5652724"><ele>352.0</ele><time>2026-04-10T12:10:52.84Z</time></trkpt><trkpt lat="44.8991033" lon="9.5653445"><ele>352.0</ele><time>2026-04-10T12:10:53.844Z</time></trkpt><trkpt lat="44.8991923" lon="9.5654014"><ele>352.0</ele><time>2026-04-10T12:10:54.84Z</time></trkpt><trkpt lat="44.8992676" lon="9.5654454"><ele>352.0</ele><time>2026-04-10T12:10:55.841Z</time></trkpt><trkpt lat="44.8993369" lon="9.5654737"><ele>352.0</ele><time>2026-04-10T12:10:56.841Z</time></trkpt><trkpt lat="44.8994555" lon="9.5654559"><ele>349.3333333333333</ele><time>2026-04-10T12:10:58.841Z</time></trkpt><trkpt lat="44.8995175" lon="9.5654049"><ele>346.66666666666663</ele><time>2026-04-10T12:10:59.84Z</time></trkpt><trkpt lat="44.8995734" lon="9.5653419"><ele>344.0</ele><time>2026-04-10T12:11:00.84Z</time></trkpt><trkpt lat="44.8996435" lon="9.5652562"><ele>341.3333333333333</ele><time>2026-04-10T12:11:01.84Z</time></trkpt><trkpt lat="44.8997117" lon="9.5651736"><ele>338.6666666666667</ele><time>2026-04-10T12:11:02.842Z</time></trkpt><trkpt lat="44.8997898" lon="9.5650933"><ele>336.0</ele><time>2026-04-10T12:11:03.841Z</time></trkpt><trkpt lat="44.8998716" lon="9.5650039"><ele>336.0</ele><time>2026-04-10T12:11:04.84Z</time></trkpt><trkpt lat="44.8999566" lon="9.5648936"><ele>336.0</ele><time>2026-04-10T12:11:05.84Z</time></trkpt><trkpt lat="44.900046" lon="9.5647641"><ele>336.0</ele><time>2026-04-10T12:11:06.84Z</time></trkpt><trkpt lat="44.9001461" lon="9.5646202"><ele>336.0</ele><time>2026-04-10T12:11:07.839Z</time></trkpt><trkpt lat="44.9002313" lon="9.5644856"><ele>333.25</ele><time>2026-04-10T12:11:08.841Z</time></trkpt><trkpt lat="44.900298" lon="9.5643563"><ele>330.5</ele><time>2026-04-10T12:11:09.84Z</time></trkpt><trkpt lat="44.9003527" lon="9.5642106"><ele>327.75</ele><time>2026-04-10T12:11:10.839Z</time></trkpt><trkpt lat="44.9004072" lon="9.5640523"><ele>325.0</ele><time>2026-04-10T12:11:11.841Z</time></trkpt><trkpt lat="44.9004592" lon="9.5639044"><ele>325.0</ele><time>2026-04-10T12:11:12.841Z</time></trkpt><trkpt lat="44.9005127" lon="9.5637624"><ele>325.0</ele><time>2026-04-10T12:11:13.84Z</time></trkpt><trkpt lat="44.9005605" lon="9.5636261"><ele>325.0</ele><time>2026-04-10T12:11:14.84Z</time></trkpt><trkpt lat="44.9006069" lon="9.5634983"><ele>325.0</ele><time>2026-04-10T12:11:15.84Z</time></trkpt><trkpt lat="44.9006454" lon="9.563398"><ele>325.0</ele><time>2026-04-10T12:11:16.848Z</time></trkpt><trkpt lat="44.90072" lon="9.5633033"><ele>327.5</ele><time>2026-04-10T12:11:18.841Z</time></trkpt><trkpt lat="44.9008033" lon="9.5632717"><ele>330.0</ele><time>2026-04-10T12:11:20.841Z</time></trkpt><trkpt lat="44.90091" lon="9.5634267"><ele>332.5</ele><time>2026-04-10T12:11:22.841Z</time></trkpt><trkpt lat="44.900965" lon="9.5635717"><ele>335.0</ele><time>2026-04-10T12:11:23.843Z</time></trkpt><trkpt lat="44.901035" lon="9.5636933"><ele>334.25</ele><time>2026-04-10T12:11:24.839Z</time></trkpt><trkpt lat="44.9010983" lon="9.5638317"><ele>333.5</ele><time>2026-04-10T12:11:25.84Z</time></trkpt><trkpt lat="44.9011583" lon="9.56399"><ele>332.75</ele><time>2026-04-10T12:11:26.84Z</time></trkpt><trkpt lat="44.9012083" lon="9.564165"><ele>332.0</ele><time>2026-04-10T12:11:27.842Z</time></trkpt><trkpt lat="44.9012567" lon="9.5643333"><ele>332.0</ele><time>2026-04-10T12:11:28.841Z</time></trkpt><trkpt lat="44.9013117" lon="9.5644917"><ele>332.0</ele><time>2026-04-10T12:11:29.842Z</time></trkpt><trkpt lat="44.9013667" lon="9.5646517"><ele>332.0</ele><time>2026-04-10T12:11:30.84Z</time></trkpt><trkpt lat="44.9014233" lon="9.56481"><ele>332.0</ele><time>2026-04-10T12:11:31.841Z</time></trkpt><trkpt lat="44.9014917" lon="9.56496"><ele>331.5</ele><time>2026-04-10T12:11:32.842Z</time></trkpt><trkpt lat="44.9015667" lon="9.56511"><ele>331.0</ele><time>2026-04-10T12:11:33.84Z</time></trkpt><trkpt lat="44.9016433" lon="9.5652617"><ele>330.5</ele><time>2026-04-10T12:11:34.843Z</time></trkpt><trkpt lat="44.9017117" lon="9.5654167"><ele>330.0</ele><time>2026-04-10T12:11:35.839Z</time></trkpt><trkpt lat="44.9017667" lon="9.5655633"><ele>330.0</ele><time>2026-04-10T12:11:36.841Z</time></trkpt><trkpt lat="44.9018233" lon="9.5657017"><ele>330.0</ele><time>2026-04-10T12:11:37.841Z</time></trkpt><trkpt lat="44.9018733" lon="9.5658267"><ele>330.0</ele><time>2026-04-10T12:11:38.84Z</time></trkpt><trkpt lat="44.9019183" lon="9.5659467"><ele>330.0</ele><time>2026-04-10T12:11:39.844Z</time></trkpt><trkpt lat="44.9019667" lon="9.56605"><ele>330.0</ele><time>2026-04-10T12:11:40.841Z</time></trkpt><trkpt lat="44.902015" lon="9.5661533"><ele>328.6666666666667</ele><time>2026-04-10T12:11:41.84Z</time></trkpt><trkpt lat="44.9020617" lon="9.56625"><ele>327.3333333333333</ele><time>2026-04-10T12:11:42.84Z</time></trkpt><trkpt lat="44.90211" lon="9.56634"><ele>326.0</ele><time>2026-04-10T12:11:43.842Z</time></trkpt><trkpt lat="44.902165" lon="9.566415"><ele>324.66666666666663</ele><time>2026-04-10T12:11:44.842Z</time></trkpt><trkpt lat="44.902225" lon="9.566465"><ele>323.3333333333333</ele><time>2026-04-10T12:11:45.84Z</time></trkpt><trkpt lat="44.9023367" lon="9.5664983"><ele>322.0</ele><time>2026-04-10T12:11:47.839Z</time></trkpt><trkpt lat="44.90243" lon="9.566435"><ele>322.0</ele><time>2026-04-10T12:11:49.839Z</time></trkpt><trkpt lat="44.902545" lon="9.5663383"><ele>322.0</ele><time>2026-04-10T12:11:51.842Z</time></trkpt><trkpt lat="44.9026067" lon="9.5662817"><ele>322.0</ele><time>2026-04-10T12:11:52.839Z</time></trkpt><trkpt lat="44.9026667" lon="9.5662183"><ele>322.0</ele><time>2026-04-10T12:11:53.84Z</time></trkpt><trkpt lat="44.9027217" lon="9.5661633"><ele>322.0</ele><time>2026-04-10T12:11:54.841Z</time></trkpt><trkpt lat="44.9028017" lon="9.5660883"><ele>322.0</ele><time>2026-04-10T12:11:56.841Z</time></trkpt><trkpt lat="44.9028683" lon="9.5660683"><ele>324.3333333333333</ele><time>2026-04-10T12:12:09.84Z</time></trkpt><trkpt lat="44.9029417" lon="9.5660367"><ele>326.66666666666663</ele><time>2026-04-10T12:12:11.84Z</time></trkpt><trkpt lat="44.9030133" lon="9.5660133"><ele>329.0</ele><time>2026-04-10T12:12:13.841Z</time></trkpt><trkpt lat="44.9031267" lon="9.5659733"><ele>331.3333333333333</ele><time>2026-04-10T12:12:15.842Z</time></trkpt><trkpt lat="44.9032017" lon="9.5659417"><ele>333.6666666666667</ele><time>2026-04-10T12:12:16.839Z</time></trkpt><trkpt lat="44.9032883" lon="9.5659033"><ele>336.0</ele><time>2026-04-10T12:12:17.839Z</time></trkpt><trkpt lat="44.90339" lon="9.565855"><ele>334.0</ele><time>2026-04-10T12:12:18.84Z</time></trkpt><trkpt lat="44.903505" lon="9.5658"><ele>332.0</ele><time>2026-04-10T12:12:19.841Z</time></trkpt><trkpt lat="44.90362" lon="9.5657417"><ele>330.0</ele><time>2026-04-10T12:12:20.844Z</time></trkpt><trkpt lat="44.903725" lon="9.5656917"><ele>328.0</ele><time>2026-04-10T12:12:21.84Z</time></trkpt><trkpt lat="44.90382" lon="9.5656433"><ele>328.0</ele><time>2026-04-10T12:12:22.839Z</time></trkpt><trkpt lat="44.903895" lon="9.5655967"><ele>328.0</ele><time>2026-04-10T12:12:23.84Z</time></trkpt><trkpt lat="44.90399" lon="9.56552"><ele>328.0</ele><time>2026-04-10T12:12:25.841Z</time></trkpt><trkpt lat="44.9040917" lon="9.56544"><ele>328.0</ele><time>2026-04-10T12:12:27.842Z</time></trkpt><trkpt lat="44.904145" lon="9.5653883"><ele>328.0</ele><time>2026-04-10T12:12:28.839Z</time></trkpt><trkpt lat="44.9042" lon="9.5653217"><ele>328.0</ele><time>2026-04-10T12:12:29.839Z</time></trkpt><trkpt lat="44.9042567" lon="9.5652517"><ele>328.16666666666663</ele><time>2026-04-10T12:12:30.839Z</time></trkpt><trkpt lat="44.9043183" lon="9.5651683"><ele>328.3333333333333</ele><time>2026-04-10T12:12:31.843Z</time></trkpt><trkpt lat="44.9043783" lon="9.5650883"><ele>328.5</ele><time>2026-04-10T12:12:32.845Z</time></trkpt><trkpt lat="44.9044433" lon="9.5650233"><ele>328.6666666666667</ele><time>2026-04-10T12:12:33.839Z</time></trkpt><trkpt lat="44.9045117" lon="9.56499"><ele>328.83333333333337</ele><time>2026-04-10T12:12:34.838Z</time></trkpt><trkpt lat="44.9046167" lon="9.564955"><ele>329.0</ele><time>2026-04-10T12:12:36.841Z</time></trkpt><trkpt lat="44.9046883" lon="9.5649383"><ele>329.0</ele><time>2026-04-10T12:12:38.84Z</time></trkpt><trkpt lat="44.90478" lon="9.5649467"><ele>329.0</ele><time>2026-04-10T12:17:03.839Z</time></trkpt><trkpt lat="44.9048467" lon="9.5649583"><ele>329.0</ele><time>2026-04-10T12:17:04.841Z</time></trkpt><trkpt lat="44.90491" lon="9.5649583"><ele>329.0</ele><time>2026-04-10T12:17:05.842Z</time></trkpt><trkpt lat="44.9050033" lon="9.5649833"><ele>329.0</ele><time>2026-04-10T12:17:07.842Z</time></trkpt><trkpt lat="44.90505" lon="9.56505"><ele>329.0</ele><time>2026-04-10T12:17:09.841Z</time></trkpt><trkpt lat="44.9050133" lon="9.5651383"><ele>329.0</ele><time>2026-04-10T12:17:11.841Z</time></trkpt><trkpt lat="44.904915" lon="9.5652583"><ele>329.0</ele><time>2026-04-10T12:17:13.842Z</time></trkpt><trkpt lat="44.9048483" lon="9.5653417"><ele>329.0</ele><time>2026-04-10T12:17:14.843Z</time></trkpt><trkpt lat="44.9047767" lon="9.56545"><ele>329.0</ele><time>2026-04-10T12:17:15.841Z</time></trkpt><trkpt lat="44.9046967" lon="9.5655483"><ele>329.0</ele><time>2026-04-10T12:17:16.841Z</time></trkpt><trkpt lat="44.904615" lon="9.56565"><ele>327.5</ele><time>2026-04-10T12:17:17.84Z</time></trkpt><trkpt lat="44.9045533" lon="9.565725"><ele>326.0</ele><time>2026-04-10T12:17:18.841Z</time></trkpt><trkpt lat="44.9044967" lon="9.5657833"><ele>324.5</ele><time>2026-04-10T12:17:19.84Z</time></trkpt><trkpt lat="44.9044317" lon="9.56584"><ele>323.0</ele><time>2026-04-10T12:17:21.84Z</time></trkpt><trkpt lat="44.9045017" lon="9.5657667"><ele>321.5</ele><time>2026-04-10T12:17:28.846Z</time></trkpt><trkpt lat="44.9045767" lon="9.5657933"><ele>320.0</ele><time>2026-04-10T12:17:31.842Z</time></trkpt><trkpt lat="44.9046167" lon="9.5659167"><ele>320.0</ele><time>2026-04-10T12:17:33.84Z</time></trkpt><trkpt lat="44.9046467" lon="9.56601"><ele>320.0</ele><time>2026-04-10T12:17:34.839Z</time></trkpt><trkpt lat="44.9046733" lon="9.5661117"><ele>320.0</ele><time>2026-04-10T12:17:35.841Z</time></trkpt><trkpt lat="44.9047267" lon="9.5662583"><ele>320.0</ele><time>2026-04-10T12:17:37.841Z</time></trkpt><trkpt lat="44.90483" lon="9.5663617"><ele>320.0</ele><time>2026-04-10T12:17:39.842Z</time></trkpt><trkpt lat="44.9048817" lon="9.5664217"><ele>318.6</ele><time>2026-04-10T12:17:40.84Z</time></trkpt><trkpt lat="44.904915" lon="9.56652"><ele>317.2</ele><time>2026-04-10T12:17:41.842Z</time></trkpt><trkpt lat="44.9049267" lon="9.566625"><ele>315.8</ele><time>2026-04-10T12:17:42.841Z</time></trkpt><trkpt lat="44.904935" lon="9.5667583"><ele>314.4</ele><time>2026-04-10T12:17:43.839Z</time></trkpt><trkpt lat="44.90494" lon="9.5669217"><ele>313.0</ele><time>2026-04-10T12:17:44.842Z</time></trkpt><trkpt lat="44.9049367" lon="9.5671017"><ele>310.8</ele><time>2026-04-10T12:17:45.84Z</time></trkpt><trkpt lat="44.904945" lon="9.5672667"><ele>308.6</ele><time>2026-04-10T12:17:46.842Z</time></trkpt><trkpt lat="44.904945" lon="9.5674233"><ele>306.4</ele><time>2026-04-10T12:17:47.841Z</time></trkpt><trkpt lat="44.9049417" lon="9.5675683"><ele>304.2</ele><time>2026-04-10T12:17:48.842Z</time></trkpt><trkpt lat="44.90494" lon="9.5677217"><ele>302.0</ele><time>2026-04-10T12:17:49.842Z</time></trkpt><trkpt lat="44.9049317" lon="9.567875"><ele>299.4</ele><time>2026-04-10T12:17:50.84Z</time></trkpt><trkpt lat="44.9049217" lon="9.568025"><ele>296.79999999999995</ele><time>2026-04-10T12:17:51.847Z</time></trkpt><trkpt lat="44.9049117" lon="9.5681617"><ele>294.2</ele><time>2026-04-10T12:17:52.838Z</time></trkpt><trkpt lat="44.9049017" lon="9.5682733"><ele>291.59999999999997</ele><time>2026-04-10T12:17:53.839Z</time></trkpt><trkpt lat="44.904885" lon="9.56837"><ele>289.0</ele><time>2026-04-10T12:17:54.839Z</time></trkpt><trkpt lat="44.9048217" lon="9.5684767"><ele>289.0</ele><time>2026-04-10T12:17:56.843Z</time></trkpt><trkpt lat="44.9047617" lon="9.5685117"><ele>289.0</ele><time>2026-04-10T12:17:57.84Z</time></trkpt><trkpt lat="44.9046917" lon="9.5685583"><ele>289.0</ele><time>2026-04-10T12:17:58.841Z</time></trkpt><trkpt lat="44.9046233" lon="9.56862"><ele>289.0</ele><time>2026-04-10T12:17:59.842Z</time></trkpt><trkpt lat="44.9045517" lon="9.5686983"><ele>289.0</ele><time>2026-04-10T12:18:00.84Z</time></trkpt><trkpt lat="44.9044783" lon="9.56878"><ele>289.0</ele><time>2026-04-10T12:18:01.846Z</time></trkpt><trkpt lat="44.9044083" lon="9.5688567"><ele>288.3333333333333</ele><time>2026-04-10T12:18:02.841Z</time></trkpt><trkpt lat="44.9043267" lon="9.568915"><ele>287.66666666666663</ele><time>2026-04-10T12:18:03.84Z</time></trkpt><trkpt lat="44.9042483" lon="9.5689433"><ele>287.0</ele><time>2026-04-10T12:18:04.84Z</time></trkpt><trkpt lat="44.9041833" lon="9.5689717"><ele>286.3333333333333</ele><time>2026-04-10T12:18:05.841Z</time></trkpt><trkpt lat="44.904115" lon="9.5690467"><ele>285.6666666666667</ele><time>2026-04-10T12:18:07.841Z</time></trkpt><trkpt lat="44.9041017" lon="9.569195"><ele>285.0</ele><time>2026-04-10T12:18:09.842Z</time></trkpt><trkpt lat="44.904095" lon="9.5693017"><ele>285.0</ele><time>2026-04-10T12:18:10.84Z</time></trkpt><trkpt lat="44.90409" lon="9.5694217"><ele>285.0</ele><time>2026-04-10T12:18:11.841Z</time></trkpt><trkpt lat="44.9040833" lon="9.5695733"><ele>285.0</ele><time>2026-04-10T12:18:12.84Z</time></trkpt><trkpt lat="44.9040717" lon="9.5697317"><ele>285.0</ele><time>2026-04-10T12:18:13.841Z</time></trkpt><trkpt lat="44.9040667" lon="9.569885"><ele>285.0</ele><time>2026-04-10T12:18:14.84Z</time></trkpt><trkpt lat="44.9040783" lon="9.5700767"><ele>283.2</ele><time>2026-04-10T12:18:15.839Z</time></trkpt><trkpt lat="44.904085" lon="9.5702583"><ele>281.4</ele><time>2026-04-10T12:18:16.84Z</time></trkpt><trkpt lat="44.904085" lon="9.5704083"><ele>279.6</ele><time>2026-04-10T12:18:17.84Z</time></trkpt><trkpt lat="44.904085" lon="9.5705483"><ele>277.8</ele><time>2026-04-10T12:18:18.839Z</time></trkpt><trkpt lat="44.904095" lon="9.5706917"><ele>276.0</ele><time>2026-04-10T12:18:19.839Z</time></trkpt><trkpt lat="44.90411" lon="9.5708333"><ele>274.0</ele><time>2026-04-10T12:18:20.843Z</time></trkpt><trkpt lat="44.9041383" lon="9.5709833"><ele>272.0</ele><time>2026-04-10T12:18:21.838Z</time></trkpt><trkpt lat="44.90418" lon="9.5711283"><ele>270.0</ele><time>2026-04-10T12:18:22.84Z</time></trkpt><trkpt lat="44.90422" lon="9.57127"><ele>268.0</ele><time>2026-04-10T12:18:23.839Z</time></trkpt><trkpt lat="44.9042583" lon="9.5714033"><ele>266.0</ele><time>2026-04-10T12:18:24.845Z</time></trkpt><trkpt lat="44.9043" lon="9.57153"><ele>263.6666666666667</ele><time>2026-04-10T12:18:25.84Z</time></trkpt><trkpt lat="44.9043367" lon="9.57165"><ele>261.33333333333337</ele><time>2026-04-10T12:18:26.843Z</time></trkpt><trkpt lat="44.9043683" lon="9.5717683"><ele>259.0</ele><time>2026-04-10T12:18:27.841Z</time></trkpt><trkpt lat="44.904395" lon="9.5718833"><ele>256.6666666666667</ele><time>2026-04-10T12:18:28.841Z</time></trkpt><trkpt lat="44.90442" lon="9.57199"><ele>254.33333333333334</ele><time>2026-04-10T12:18:29.841Z</time></trkpt><trkpt lat="44.9044383" lon="9.5720917"><ele>252.0</ele><time>2026-04-10T12:18:30.842Z</time></trkpt><trkpt lat="44.9044533" lon="9.5721867"><ele>251.14285714285714</ele><time>2026-04-10T12:18:31.84Z</time></trkpt><trkpt lat="44.9044683" lon="9.5722817"><ele>250.28571428571428</ele><time>2026-04-10T12:18:32.841Z</time></trkpt><trkpt lat="44.9044833" lon="9.5723783"><ele>249.42857142857144</ele><time>2026-04-10T12:18:33.839Z</time></trkpt><trkpt lat="44.9045067" lon="9.572475"><ele>248.57142857142858</ele><time>2026-04-10T12:18:34.841Z</time></trkpt><trkpt lat="44.9045367" lon="9.57257"><ele>247.71428571428572</ele><time>2026-04-10T12:18:35.843Z</time></trkpt><trkpt lat="44.9045717" lon="9.5726617"><ele>246.8571428571429</ele><time>2026-04-10T12:18:36.84Z</time></trkpt><trkpt lat="44.90461" lon="9.5727417"><ele>246.00000000000003</ele><time>2026-04-10T12:18:37.838Z</time></trkpt><trkpt lat="44.9047033" lon="9.5728517"><ele>246.0</ele><time>2026-04-10T12:18:39.84Z</time></trkpt><trkpt lat="44.9047933" lon="9.57286"><ele>246.00000000000003</ele><time>2026-04-10T12:18:40.838Z</time></trkpt><trkpt lat="44.9049" lon="9.5728533"><ele>246.00000000000003</ele><time>2026-04-10T12:18:41.839Z</time></trkpt><trkpt lat="44.90501" lon="9.572845"><ele>246.0</ele><time>2026-04-10T12:18:42.839Z</time></trkpt><trkpt lat="44.9051167" lon="9.5728417"><ele>246.0</ele><time>2026-04-10T12:18:43.842Z</time></trkpt><trkpt lat="44.9052233" lon="9.57284"><ele>245.4</ele><time>2026-04-10T12:18:44.839Z</time></trkpt><trkpt lat="44.9053333" lon="9.5728417"><ele>244.8</ele><time>2026-04-10T12:18:45.84Z</time></trkpt><trkpt lat="44.9054433" lon="9.57285"><ele>244.20000000000002</ele><time>2026-04-10T12:18:46.839Z</time></trkpt><trkpt lat="44.9055517" lon="9.5728683"><ele>243.60000000000002</ele><time>2026-04-10T12:18:47.84Z</time></trkpt><trkpt lat="44.9056617" lon="9.57288"><ele>243.0</ele><time>2026-04-10T12:18:48.84Z</time></trkpt><trkpt lat="44.9057683" lon="9.5728833"><ele>242.60000000000002</ele><time>2026-04-10T12:18:49.84Z</time></trkpt><trkpt lat="44.9058733" lon="9.57288"><ele>242.20000000000002</ele><time>2026-04-10T12:18:50.841Z</time></trkpt><trkpt lat="44.9059733" lon="9.5728817"><ele>241.8</ele><time>2026-04-10T12:18:51.84Z</time></trkpt><trkpt lat="44.906075" lon="9.5728817"><ele>241.4</ele><time>2026-04-10T12:18:52.84Z</time></trkpt><trkpt lat="44.906175" lon="9.572885"><ele>241.0</ele><time>2026-04-10T12:18:53.84Z</time></trkpt><trkpt lat="44.9062817" lon="9.5728867"><ele>239.25</ele><time>2026-04-10T12:18:54.841Z</time></trkpt><trkpt lat="44.9063933" lon="9.5728883"><ele>237.5</ele><time>2026-04-10T12:18:55.841Z</time></trkpt><trkpt lat="44.906505" lon="9.5728883"><ele>235.75</ele><time>2026-04-10T12:18:56.844Z</time></trkpt><trkpt lat="44.9066183" lon="9.5728883"><ele>234.0</ele><time>2026-04-10T12:18:57.84Z</time></trkpt><trkpt lat="44.906735" lon="9.572885"><ele>233.25</ele><time>2026-04-10T12:18:58.84Z</time></trkpt><trkpt lat="44.9068617" lon="9.5728817"><ele>232.5</ele><time>2026-04-10T12:18:59.84Z</time></trkpt><trkpt lat="44.9069983" lon="9.5728783"><ele>231.75</ele><time>2026-04-10T12:19:00.842Z</time></trkpt><trkpt lat="44.9071317" lon="9.5728833"><ele>231.0</ele><time>2026-04-10T12:19:01.84Z</time></trkpt><trkpt lat="44.9072517" lon="9.572895"><ele>231.0</ele><time>2026-04-10T12:19:02.841Z</time></trkpt><trkpt lat="44.9073617" lon="9.5729017"><ele>231.0</ele><time>2026-04-10T12:19:03.84Z</time></trkpt><trkpt lat="44.9074633" lon="9.5729017"><ele>231.0</ele><time>2026-04-10T12:19:04.839Z</time></trkpt><trkpt lat="44.907555" lon="9.5728933"><ele>231.0</ele><time>2026-04-10T12:19:05.84Z</time></trkpt><trkpt lat="44.9076317" lon="9.5728833"><ele>231.0</ele><time>2026-04-10T12:19:06.842Z</time></trkpt><trkpt lat="44.9077" lon="9.5728783"><ele>231.0</ele><time>2026-04-10T12:19:07.841Z</time></trkpt><trkpt lat="44.907795" lon="9.5729033"><ele>231.5</ele><time>2026-04-10T12:19:09.841Z</time></trkpt><trkpt lat="44.90783" lon="9.572985"><ele>232.0</ele><time>2026-04-10T12:19:13.84Z</time></trkpt><trkpt lat="44.9078567" lon="9.5730683"><ele>232.5</ele><time>2026-04-10T12:19:18.839Z</time></trkpt><trkpt lat="44.9078733" lon="9.5731617"><ele>233.0</ele><time>2026-04-10T12:19:19.84Z</time></trkpt><trkpt lat="44.9079067" lon="9.573275"><ele>233.5</ele><time>2026-04-10T12:19:20.84Z</time></trkpt><trkpt lat="44.90795" lon="9.573375"><ele>234.0</ele><time>2026-04-10T12:19:21.84Z</time></trkpt><trkpt lat="44.908" lon="9.5734683"><ele>234.0</ele><time>2026-04-10T12:19:22.842Z</time></trkpt><trkpt lat="44.90805" lon="9.5735583"><ele>233.99999999999997</ele><time>2026-04-10T12:19:23.839Z</time></trkpt><trkpt lat="44.9080967" lon="9.573655"><ele>233.99999999999997</ele><time>2026-04-10T12:19:24.84Z</time></trkpt><trkpt lat="44.90814" lon="9.5737683"><ele>234.0</ele><time>2026-04-10T12:19:25.841Z</time></trkpt><trkpt lat="44.9081817" lon="9.5738983"><ele>234.0</ele><time>2026-04-10T12:19:26.839Z</time></trkpt><trkpt lat="44.908215" lon="9.5740383"><ele>232.5</ele><time>2026-04-10T12:19:27.84Z</time></trkpt><trkpt lat="44.908235" lon="9.5741683"><ele>231.0</ele><time>2026-04-10T12:19:28.841Z</time></trkpt><trkpt lat="44.90825" lon="9.574295"><ele>229.5</ele><time>2026-04-10T12:19:29.842Z</time></trkpt><trkpt lat="44.9082617" lon="9.5744033"><ele>228.0</ele><time>2026-04-10T12:19:30.846Z</time></trkpt><trkpt lat="44.9082717" lon="9.5744917"><ele>226.5</ele><time>2026-04-10T12:19:31.84Z</time></trkpt><trkpt lat="44.9082933" lon="9.57463"><ele>225.0</ele><time>2026-04-10T12:19:33.841Z</time></trkpt><trkpt lat="44.908295" lon="9.5747533"><ele>224.2</ele><time>2026-04-10T12:19:35.845Z</time></trkpt><trkpt lat="44.9083" lon="9.5749317"><ele>223.4</ele><time>2026-04-10T12:19:37.839Z</time></trkpt><trkpt lat="44.9083083" lon="9.5750417"><ele>222.60000000000002</ele><time>2026-04-10T12:19:38.839Z</time></trkpt><trkpt lat="44.90832" lon="9.575165"><ele>221.8</ele><time>2026-04-10T12:19:39.84Z</time></trkpt><trkpt lat="44.908345" lon="9.5753067"><ele>221.0</ele><time>2026-04-10T12:19:40.842Z</time></trkpt><trkpt lat="44.90837" lon="9.5754617"><ele>221.20000000000002</ele><time>2026-04-10T12:19:41.839Z</time></trkpt><trkpt lat="44.9083967" lon="9.5756283"><ele>221.40000000000003</ele><time>2026-04-10T12:19:42.843Z</time></trkpt><trkpt lat="44.9084217" lon="9.5757867"><ele>221.6</ele><time>2026-04-10T12:19:43.839Z</time></trkpt><trkpt lat="44.9084433" lon="9.5759283"><ele>221.8</ele><time>2026-04-10T12:19:44.841Z</time></trkpt><trkpt lat="44.9084633" lon="9.5760617"><ele>222.0</ele><time>2026-04-10T12:19:45.84Z</time></trkpt><trkpt lat="44.9084833" lon="9.57619"><ele>221.0</ele><time>2026-04-10T12:19:46.841Z</time></trkpt><trkpt lat="44.9085067" lon="9.5763233"><ele>220.0</ele><time>2026-04-10T12:19:47.84Z</time></trkpt><trkpt lat="44.9085283" lon="9.57647"><ele>219.0</ele><time>2026-04-10T12:19:48.84Z</time></trkpt><trkpt lat="44.908555" lon="9.57662"><ele>218.0</ele><time>2026-04-10T12:19:49.838Z</time></trkpt><trkpt lat="44.908575" lon="9.57676"><ele>217.0</ele><time>2026-04-10T12:19:50.841Z</time></trkpt><trkpt lat="44.9085933" lon="9.5768883"><ele>217.0</ele><time>2026-04-10T12:19:51.84Z</time></trkpt><trkpt lat="44.908605" lon="9.577005"><ele>217.0</ele><time>2026-04-10T12:19:52.841Z</time></trkpt><trkpt lat="44.9086117" lon="9.5771017"><ele>217.0</ele><time>2026-04-10T12:19:53.842Z</time></trkpt><trkpt lat="44.90864" lon="9.5772217"><ele>217.0</ele><time>2026-04-10T12:19:55.841Z</time></trkpt><trkpt lat="44.908745" lon="9.577225"><ele>217.0</ele><time>2026-04-10T12:19:58.842Z</time></trkpt><trkpt lat="44.90884" lon="9.5771317"><ele>216.99999999999997</ele><time>2026-04-10T12:20:00.841Z</time></trkpt><trkpt lat="44.9088933" lon="9.5770683"><ele>217.0</ele><time>2026-04-10T12:20:01.846Z</time></trkpt><trkpt lat="44.9089517" lon="9.5769817"><ele>217.0</ele><time>2026-04-10T12:20:02.84Z</time></trkpt><trkpt lat="44.909005" lon="9.576875"><ele>217.0</ele><time>2026-04-10T12:20:03.84Z</time></trkpt><trkpt lat="44.9090467" lon="9.5767683"><ele>216.99999999999997</ele><time>2026-04-10T12:20:04.841Z</time></trkpt><trkpt lat="44.909075" lon="9.5766583"><ele>217.0</ele><time>2026-04-10T12:20:05.84Z</time></trkpt><trkpt lat="44.9091017" lon="9.576545"><ele>216.99999999999997</ele><time>2026-04-10T12:20:06.842Z</time></trkpt><trkpt lat="44.90913" lon="9.5764367"><ele>217.0</ele><time>2026-04-10T12:20:07.84Z</time></trkpt><trkpt lat="44.909165" lon="9.5763317"><ele>217.0</ele><time>2026-04-10T12:20:08.84Z</time></trkpt><trkpt lat="44.909205" lon="9.57623"><ele>217.0</ele><time>2026-04-10T12:20:09.84Z</time></trkpt><trkpt lat="44.9092583" lon="9.5761433"><ele>216.99999999999997</ele><time>2026-04-10T12:20:10.84Z</time></trkpt><trkpt lat="44.9093267" lon="9.5760567"><ele>217.0</ele><time>2026-04-10T12:20:11.848Z</time></trkpt><trkpt lat="44.9093833" lon="9.5759683"><ele>218.14285714285714</ele><time>2026-04-10T12:20:12.84Z</time></trkpt><trkpt lat="44.90943" lon="9.575895"><ele>219.28571428571428</ele><time>2026-04-10T12:20:13.841Z</time></trkpt><trkpt lat="44.909465" lon="9.5758133"><ele>220.42857142857144</ele><time>2026-04-10T12:20:14.843Z</time></trkpt><trkpt lat="44.9094917" lon="9.5757183"><ele>221.57142857142858</ele><time>2026-04-10T12:20:15.839Z</time></trkpt><trkpt lat="44.9095067" lon="9.5756117"><ele>222.71428571428572</ele><time>2026-04-10T12:20:16.843Z</time></trkpt><trkpt lat="44.9095167" lon="9.5755083"><ele>223.8571428571429</ele><time>2026-04-10T12:20:17.841Z</time></trkpt><trkpt lat="44.9095277" lon="9.5753989"><ele>225.00000000000003</ele><time>2026-04-10T12:20:18.84Z</time></trkpt><trkpt lat="44.909547" lon="9.5752863"><ele>225.66666666666666</ele><time>2026-04-10T12:20:19.843Z</time></trkpt><trkpt lat="44.9095705" lon="9.5751744"><ele>226.33333333333331</ele><time>2026-04-10T12:20:20.842Z</time></trkpt><trkpt lat="44.9095912" lon="9.5750616"><ele>227.0</ele><time>2026-04-10T12:20:21.84Z</time></trkpt><trkpt lat="44.9096118" lon="9.5749495"><ele>227.66666666666666</ele><time>2026-04-10T12:20:22.84Z</time></trkpt><trkpt lat="44.9096366" lon="9.5748409"><ele>228.33333333333331</ele><time>2026-04-10T12:20:23.839Z</time></trkpt><trkpt lat="44.9096688" lon="9.5747275"><ele>229.0</ele><time>2026-04-10T12:20:24.842Z</time></trkpt><trkpt lat="44.9096992" lon="9.5746042"><ele>230.2</ele><time>2026-04-10T12:20:25.84Z</time></trkpt><trkpt lat="44.9097217" lon="9.5744784"><ele>231.39999999999998</ele><time>2026-04-10T12:20:26.843Z</time></trkpt><trkpt lat="44.9097374" lon="9.5743628"><ele>232.6</ele><time>2026-04-10T12:20:27.842Z</time></trkpt><trkpt lat="44.9097514" lon="9.5742674"><ele>233.8</ele><time>2026-04-10T12:20:28.842Z</time></trkpt><trkpt lat="44.9098062" lon="9.5741653"><ele>235.0</ele><time>2026-04-10T12:20:30.842Z</time></trkpt><trkpt lat="44.9099237" lon="9.5741943"><ele>235.0</ele><time>2026-04-10T12:20:32.841Z</time></trkpt><trkpt lat="44.9100129" lon="9.5742288"><ele>235.0</ele><time>2026-04-10T12:20:33.842Z</time></trkpt><trkpt lat="44.9101165" lon="9.5742596"><ele>235.0</ele><time>2026-04-10T12:20:34.842Z</time></trkpt><trkpt lat="44.9102255" lon="9.5742857"><ele>235.0</ele><time>2026-04-10T12:20:35.843Z</time></trkpt><trkpt lat="44.9103349" lon="9.5743072"><ele>235.0</ele><time>2026-04-10T12:20:36.843Z</time></trkpt><trkpt lat="44.9104458" lon="9.5743276"><ele>235.0</ele><time>2026-04-10T12:20:37.842Z</time></trkpt><trkpt lat="44.9105592" lon="9.5743479"><ele>235.0</ele><time>2026-04-10T12:20:38.842Z</time></trkpt><trkpt lat="44.9106729" lon="9.5743658"><ele>235.0</ele><time>2026-04-10T12:20:39.841Z</time></trkpt><trkpt lat="44.9107863" lon="9.5743863"><ele>235.0</ele><time>2026-04-10T12:20:40.842Z</time></trkpt><trkpt lat="44.910894" lon="9.5744063"><ele>234.33333333333331</ele><time>2026-04-10T12:20:41.84Z</time></trkpt><trkpt lat="44.9109927" lon="9.5744257"><ele>233.66666666666666</ele><time>2026-04-10T12:20:42.841Z</time></trkpt><trkpt lat="44.9110835" lon="9.5744411"><ele>233.0</ele><time>2026-04-10T12:20:43.842Z</time></trkpt><trkpt lat="44.9111699" lon="9.5744548"><ele>232.33333333333331</ele><time>2026-04-10T12:20:44.842Z</time></trkpt><trkpt lat="44.9112486" lon="9.5744644"><ele>231.66666666666666</ele><time>2026-04-10T12:20:45.841Z</time></trkpt><trkpt lat="44.911315" lon="9.5744711"><ele>231.0</ele><time>2026-04-10T12:20:46.839Z</time></trkpt><trkpt lat="44.9114124" lon="9.5744369"><ele>231.0</ele><time>2026-04-10T12:20:48.841Z</time></trkpt><trkpt lat="44.9114735" lon="9.5743072"><ele>231.00000000000003</ele><time>2026-04-10T12:20:50.842Z</time></trkpt><trkpt lat="44.911503" lon="9.5741979"><ele>231.00000000000003</ele><time>2026-04-10T12:20:51.841Z</time></trkpt><trkpt lat="44.9115316" lon="9.5740701"><ele>231.0</ele><time>2026-04-10T12:20:52.841Z</time></trkpt><trkpt lat="44.9115599" lon="9.5739564"><ele>231.0</ele><time>2026-04-10T12:20:53.839Z</time></trkpt><trkpt lat="44.9115958" lon="9.5738344"><ele>231.0</ele><time>2026-04-10T12:20:55.844Z</time></trkpt><trkpt lat="44.9116836" lon="9.5737998"><ele>231.00000000000003</ele><time>2026-04-10T12:21:02.841Z</time></trkpt><trkpt lat="44.9117541" lon="9.5738182"><ele>231.00000000000003</ele><time>2026-04-10T12:21:04.841Z</time></trkpt><trkpt lat="44.9118833" lon="9.5738783"><ele>231.0</ele><time>2026-04-10T12:21:06.84Z</time></trkpt><trkpt lat="44.9119667" lon="9.5739067"><ele>231.0</ele><time>2026-04-10T12:21:07.841Z</time></trkpt><trkpt lat="44.912065" lon="9.5739283"><ele>232.0</ele><time>2026-04-10T12:21:08.841Z</time></trkpt><trkpt lat="44.9121783" lon="9.573945"><ele>233.0</ele><time>2026-04-10T12:21:09.841Z</time></trkpt><trkpt lat="44.9122917" lon="9.5739617"><ele>234.0</ele><time>2026-04-10T12:21:10.841Z</time></trkpt><trkpt lat="44.9124067" lon="9.57398"><ele>235.0</ele><time>2026-04-10T12:21:11.839Z</time></trkpt><trkpt lat="44.9125233" lon="9.5739967"><ele>236.4</ele><time>2026-04-10T12:21:12.839Z</time></trkpt><trkpt lat="44.912635" lon="9.57401"><ele>237.8</ele><time>2026-04-10T12:21:13.842Z</time></trkpt><trkpt lat="44.9127467" lon="9.5740317"><ele>239.2</ele><time>2026-04-10T12:21:14.841Z</time></trkpt><trkpt lat="44.9128533" lon="9.5740683"><ele>240.6</ele><time>2026-04-10T12:21:15.841Z</time></trkpt><trkpt lat="44.9129567" lon="9.5741133"><ele>242.0</ele><time>2026-04-10T12:21:16.842Z</time></trkpt><trkpt lat="44.913045" lon="9.574145"><ele>242.00000000000003</ele><time>2026-04-10T12:21:17.843Z</time></trkpt><trkpt lat="44.9131333" lon="9.5741617"><ele>242.0</ele><time>2026-04-10T12:21:18.84Z</time></trkpt><trkpt lat="44.9132217" lon="9.5741717"><ele>242.0</ele><time>2026-04-10T12:21:19.842Z</time></trkpt><trkpt lat="44.9133117" lon="9.5741817"><ele>242.0</ele><time>2026-04-10T12:21:20.842Z</time></trkpt><trkpt lat="44.9134" lon="9.5741967"><ele>242.00000000000003</ele><time>2026-04-10T12:21:21.84Z</time></trkpt><trkpt lat="44.9134817" lon="9.5742167"><ele>242.0</ele><time>2026-04-10T12:21:22.843Z</time></trkpt><trkpt lat="44.91356" lon="9.5742367"><ele>242.66666666666669</ele><time>2026-04-10T12:21:23.84Z</time></trkpt><trkpt lat="44.9136367" lon="9.5742533"><ele>243.33333333333334</ele><time>2026-04-10T12:21:24.84Z</time></trkpt><trkpt lat="44.9137183" lon="9.574275"><ele>244.0</ele><time>2026-04-10T12:21:25.84Z</time></trkpt><trkpt lat="44.9138033" lon="9.5742933"><ele>244.66666666666669</ele><time>2026-04-10T12:21:26.84Z</time></trkpt><trkpt lat="44.91389" lon="9.5743183"><ele>245.33333333333334</ele><time>2026-04-10T12:21:27.84Z</time></trkpt><trkpt lat="44.9139733" lon="9.57435"><ele>246.0</ele><time>2026-04-10T12:21:28.84Z</time></trkpt><trkpt lat="44.9140533" lon="9.5743783"><ele>246.00000000000003</ele><time>2026-04-10T12:21:29.84Z</time></trkpt><trkpt lat="44.914125" lon="9.5744017"><ele>246.0</ele><time>2026-04-10T12:21:30.841Z</time></trkpt><trkpt lat="44.9141983" lon="9.5743967"><ele>246.00000000000003</ele><time>2026-04-10T12:21:32.841Z</time></trkpt><trkpt lat="44.9142317" lon="9.5744733"><ele>246.00000000000003</ele><time>2026-04-10T12:21:46.841Z</time></trkpt><trkpt lat="44.914195" lon="9.5745517"><ele>246.0</ele><time>2026-04-10T12:21:47.841Z</time></trkpt><trkpt lat="44.914155" lon="9.5746433"><ele>246.00000000000003</ele><time>2026-04-10T12:21:48.84Z</time></trkpt><trkpt lat="44.91411" lon="9.5747383"><ele>246.00000000000003</ele><time>2026-04-10T12:21:49.84Z</time></trkpt><trkpt lat="44.9140767" lon="9.5748417"><ele>243.25</ele><time>2026-04-10T12:21:50.841Z</time></trkpt><trkpt lat="44.9140467" lon="9.574975"><ele>240.5</ele><time>2026-04-10T12:21:51.846Z</time></trkpt><trkpt lat="44.9140283" lon="9.5751533"><ele>237.75</ele><time>2026-04-10T12:21:52.839Z</time></trkpt><trkpt lat="44.91401" lon="9.5753317"><ele>235.0</ele><time>2026-04-10T12:21:53.842Z</time></trkpt><trkpt lat="44.9139883" lon="9.5755217"><ele>231.0</ele><time>2026-04-10T12:21:54.839Z</time></trkpt><trkpt lat="44.91396" lon="9.5757283"><ele>227.0</ele><time>2026-04-10T12:21:55.84Z</time></trkpt><trkpt lat="44.9139333" lon="9.5759383"><ele>223.0</ele><time>2026-04-10T12:21:56.84Z</time></trkpt><trkpt lat="44.913905" lon="9.5761433"><ele>219.0</ele><time>2026-04-10T12:21:57.846Z</time></trkpt><trkpt lat="44.9138733" lon="9.5763333"><ele>216.5</ele><time>2026-04-10T12:21:58.839Z</time></trkpt><trkpt lat="44.9138367" lon="9.5765233"><ele>214.0</ele><time>2026-04-10T12:21:59.84Z</time></trkpt><trkpt lat="44.9137967" lon="9.5767133"><ele>211.5</ele><time>2026-04-10T12:22:00.84Z</time></trkpt><trkpt lat="44.9137583" lon="9.5769033"><ele>209.0</ele><time>2026-04-10T12:22:01.84Z</time></trkpt><trkpt lat="44.91372" lon="9.5770883"><ele>207.0</ele><time>2026-04-10T12:22:02.84Z</time></trkpt><trkpt lat="44.91368" lon="9.5772767"><ele>205.0</ele><time>2026-04-10T12:22:03.84Z</time></trkpt><trkpt lat="44.9136467" lon="9.577465"><ele>203.0</ele><time>2026-04-10T12:22:04.842Z</time></trkpt><trkpt lat="44.9136167" lon="9.5776317"><ele>201.0</ele><time>2026-04-10T12:22:05.842Z</time></trkpt><trkpt lat="44.9135883" lon="9.57778"><ele>199.66666666666666</ele><time>2026-04-10T12:22:06.841Z</time></trkpt><trkpt lat="44.91356" lon="9.5779083"><ele>198.33333333333331</ele><time>2026-04-10T12:22:07.842Z</time></trkpt><trkpt lat="44.91354" lon="9.5780083"><ele>197.0</ele><time>2026-04-10T12:22:08.842Z</time></trkpt><trkpt lat="44.9135267" lon="9.5781117"><ele>195.66666666666666</ele><time>2026-04-10T12:22:10.84Z</time></trkpt><trkpt lat="44.913585" lon="9.57817"><ele>194.33333333333331</ele><time>2026-04-10T12:22:13.842Z</time></trkpt><trkpt lat="44.9136783" lon="9.5782"><ele>193.0</ele><time>2026-04-10T12:22:15.84Z</time></trkpt><trkpt lat="44.9137867" lon="9.5782433"><ele>192.99999999999997</ele><time>2026-04-10T12:22:17.84Z</time></trkpt><trkpt lat="44.9138517" lon="9.5782767"><ele>193.0</ele><time>2026-04-10T12:22:18.839Z</time></trkpt><trkpt lat="44.9139233" lon="9.578315"><ele>193.0</ele><time>2026-04-10T12:22:19.84Z</time></trkpt><trkpt lat="44.9140033" lon="9.5783533"><ele>193.0</ele><time>2026-04-10T12:22:20.843Z</time></trkpt><trkpt lat="44.9140867" lon="9.578395"><ele>192.99999999999997</ele><time>2026-04-10T12:22:21.84Z</time></trkpt><trkpt lat="44.9141783" lon="9.578445"><ele>193.0</ele><time>2026-04-10T12:22:22.84Z</time></trkpt><trkpt lat="44.9142667" lon="9.5784933"><ele>193.60000000000002</ele><time>2026-04-10T12:22:23.844Z</time></trkpt><trkpt lat="44.9143417" lon="9.57852"><ele>194.20000000000002</ele><time>2026-04-10T12:22:24.84Z</time></trkpt><trkpt lat="44.91446" lon="9.5784833"><ele>194.8</ele><time>2026-04-10T12:22:26.843Z</time></trkpt><trkpt lat="44.9145117" lon="9.5784217"><ele>195.4</ele><time>2026-04-10T12:22:27.841Z</time></trkpt><trkpt lat="44.9145533" lon="9.57833"><ele>196.0</ele><time>2026-04-10T12:22:28.84Z</time></trkpt><trkpt lat="44.9146067" lon="9.5781933"><ele>196.0</ele><time>2026-04-10T12:22:29.841Z</time></trkpt><trkpt lat="44.9146733" lon="9.57805"><ele>196.0</ele><time>2026-04-10T12:22:30.848Z</time></trkpt><trkpt lat="44.91474" lon="9.577905"><ele>196.0</ele><time>2026-04-10T12:22:31.841Z</time></trkpt><trkpt lat="44.9148067" lon="9.5777683"><ele>196.0</ele><time>2026-04-10T12:22:32.842Z</time></trkpt><trkpt lat="44.91487" lon="9.5776417"><ele>198.25</ele><time>2026-04-10T12:22:33.842Z</time></trkpt><trkpt lat="44.914935" lon="9.5775117"><ele>200.5</ele><time>2026-04-10T12:22:34.841Z</time></trkpt><trkpt lat="44.915005" lon="9.5773883"><ele>202.75</ele><time>2026-04-10T12:22:35.842Z</time></trkpt><trkpt lat="44.91509" lon="9.5772767"><ele>205.0</ele><time>2026-04-10T12:22:36.842Z</time></trkpt><trkpt lat="44.9151917" lon="9.5771867"><ele>206.0</ele><time>2026-04-10T12:22:37.846Z</time></trkpt><trkpt lat="44.9152967" lon="9.577135"><ele>207.0</ele><time>2026-04-10T12:22:38.842Z</time></trkpt><trkpt lat="44.9154" lon="9.5771283"><ele>208.0</ele><time>2026-04-10T12:22:39.84Z</time></trkpt><trkpt lat="44.9155" lon="9.5771567"><ele>209.0</ele><time>2026-04-10T12:22:40.842Z</time></trkpt><trkpt lat="44.9156033" lon="9.5771933"><ele>210.0</ele><time>2026-04-10T12:22:41.841Z</time></trkpt><trkpt lat="44.915705" lon="9.5772133"><ele>210.0</ele><time>2026-04-10T12:22:42.84Z</time></trkpt><trkpt lat="44.9158017" lon="9.5772083"><ele>210.0</ele><time>2026-04-10T12:22:43.84Z</time></trkpt><trkpt lat="44.9158917" lon="9.5771733"><ele>210.0</ele><time>2026-04-10T12:22:44.844Z</time></trkpt><trkpt lat="44.9159683" lon="9.5771233"><ele>210.0</ele><time>2026-04-10T12:22:45.84Z</time></trkpt><trkpt lat="44.9160367" lon="9.5770383"><ele>210.0</ele><time>2026-04-10T12:22:47.842Z</time></trkpt><trkpt lat="44.91604" lon="9.5769017"><ele>209.8</ele><time>2026-04-10T12:22:50.841Z</time></trkpt><trkpt lat="44.9160167" lon="9.5767733"><ele>209.6</ele><time>2026-04-10T12:22:52.841Z</time></trkpt><trkpt lat="44.9160017" lon="9.576675"><ele>209.39999999999998</ele><time>2026-04-10T12:22:54.842Z</time></trkpt><trkpt lat="44.91597" lon="9.5765533"><ele>209.2</ele><time>2026-04-10T12:22:57.842Z</time></trkpt><trkpt lat="44.915925" lon="9.5764383"><ele>209.0</ele><time>2026-04-10T12:22:59.842Z</time></trkpt><trkpt lat="44.9158383" lon="9.5763033"><ele>211.16666666666669</ele><time>2026-04-10T12:23:01.841Z</time></trkpt><trkpt lat="44.9158017" lon="9.5762217"><ele>213.33333333333334</ele><time>2026-04-10T12:23:02.841Z</time></trkpt><trkpt lat="44.9157767" lon="9.5761367"><ele>215.5</ele><time>2026-04-10T12:23:03.843Z</time></trkpt><trkpt lat="44.9157667" lon="9.5760433"><ele>217.66666666666669</ele><time>2026-04-10T12:23:04.842Z</time></trkpt><trkpt lat="44.9157717" lon="9.575925"><ele>219.83333333333334</ele><time>2026-04-10T12:23:05.841Z</time></trkpt><trkpt lat="44.9157767" lon="9.5757917"><ele>222.0</ele><time>2026-04-10T12:23:06.842Z</time></trkpt><trkpt lat="44.9157717" lon="9.57565"><ele>222.33333333333334</ele><time>2026-04-10T12:23:07.841Z</time></trkpt><trkpt lat="44.9157517" lon="9.5755133"><ele>222.66666666666669</ele><time>2026-04-10T12:23:08.842Z</time></trkpt><trkpt lat="44.9157333" lon="9.5753983"><ele>223.0</ele><time>2026-04-10T12:23:09.843Z</time></trkpt><trkpt lat="44.915735" lon="9.5753033"><ele>223.33333333333334</ele><time>2026-04-10T12:23:10.841Z</time></trkpt><trkpt lat="44.915765" lon="9.5752167"><ele>223.66666666666669</ele><time>2026-04-10T12:23:11.84Z</time></trkpt><trkpt lat="44.9158083" lon="9.5751433"><ele>224.0</ele><time>2026-04-10T12:23:12.84Z</time></trkpt><trkpt lat="44.915875" lon="9.5750783"><ele>224.6</ele><time>2026-04-10T12:23:13.843Z</time></trkpt><trkpt lat="44.91596" lon="9.5750317"><ele>225.2</ele><time>2026-04-10T12:23:14.84Z</time></trkpt><trkpt lat="44.9160567" lon="9.5749733"><ele>225.79999999999998</ele><time>2026-04-10T12:23:15.838Z</time></trkpt><trkpt lat="44.9161633" lon="9.574915"><ele>226.39999999999998</ele><time>2026-04-10T12:23:16.839Z</time></trkpt><trkpt lat="44.916265" lon="9.5748467"><ele>227.0</ele><time>2026-04-10T12:23:17.841Z</time></trkpt><trkpt lat="44.9163717" lon="9.57477"><ele>227.0</ele><time>2026-04-10T12:23:18.847Z</time></trkpt><trkpt lat="44.916475" lon="9.5747"><ele>227.0</ele><time>2026-04-10T12:23:19.84Z</time></trkpt><trkpt lat="44.91658" lon="9.5746383"><ele>227.0</ele><time>2026-04-10T12:23:20.842Z</time></trkpt><trkpt lat="44.9166833" lon="9.5745683"><ele>227.0</ele><time>2026-04-10T12:23:21.841Z</time></trkpt><trkpt lat="44.9167833" lon="9.5744883"><ele>230.0</ele><time>2026-04-10T12:23:22.841Z</time></trkpt><trkpt lat="44.9168733" lon="9.574405"><ele>233.0</ele><time>2026-04-10T12:23:23.84Z</time></trkpt><trkpt lat="44.9169683" lon="9.5743167"><ele>236.0</ele><time>2026-04-10T12:23:24.84Z</time></trkpt><trkpt lat="44.91706" lon="9.5742367"><ele>239.0</ele><time>2026-04-10T12:23:25.841Z</time></trkpt><trkpt lat="44.91715" lon="9.57416"><ele>242.0</ele><time>2026-04-10T12:23:26.841Z</time></trkpt><trkpt lat="44.9172333" lon="9.5740917"><ele>242.0</ele><time>2026-04-10T12:23:27.84Z</time></trkpt><trkpt lat="44.9173183" lon="9.574025"><ele>242.0</ele><time>2026-04-10T12:23:28.841Z</time></trkpt><trkpt lat="44.9173983" lon="9.5739633"><ele>242.0</ele><time>2026-04-10T12:23:29.838Z</time></trkpt><trkpt lat="44.9174817" lon="9.57389"><ele>242.0</ele><time>2026-04-10T12:23:30.843Z</time></trkpt><trkpt lat="44.9175617" lon="9.5738117"><ele>242.0</ele><time>2026-04-10T12:23:31.841Z</time></trkpt><trkpt lat="44.9176383" lon="9.5737233"><ele>242.75</ele><time>2026-04-10T12:23:32.84Z</time></trkpt><trkpt lat="44.9177217" lon="9.5736283"><ele>243.5</ele><time>2026-04-10T12:23:33.842Z</time></trkpt><trkpt lat="44.91781" lon="9.57353"><ele>244.25</ele><time>2026-04-10T12:23:34.84Z</time></trkpt><trkpt lat="44.9179067" lon="9.5734267"><ele>245.0</ele><time>2026-04-10T12:23:35.843Z</time></trkpt><trkpt lat="44.91802" lon="9.5733067"><ele>245.0</ele><time>2026-04-10T12:23:36.842Z</time></trkpt><trkpt lat="44.9181433" lon="9.57318"><ele>245.0</ele><time>2026-04-10T12:23:37.842Z</time></trkpt><trkpt lat="44.9182717" lon="9.573045"><ele>245.0</ele><time>2026-04-10T12:23:38.842Z</time></trkpt><trkpt lat="44.9183917" lon="9.5729117"><ele>245.25</ele><time>2026-04-10T12:23:39.842Z</time></trkpt><trkpt lat="44.9184967" lon="9.5727817"><ele>245.5</ele><time>2026-04-10T12:23:40.842Z</time></trkpt><trkpt lat="44.918595" lon="9.572645"><ele>245.75</ele><time>2026-04-10T12:23:41.846Z</time></trkpt><trkpt lat="44.918685" lon="9.5724967"><ele>246.0</ele><time>2026-04-10T12:23:42.84Z</time></trkpt><trkpt lat="44.9187633" lon="9.5723567"><ele>246.0</ele><time>2026-04-10T12:23:43.841Z</time></trkpt><trkpt lat="44.91884" lon="9.572225"><ele>246.0</ele><time>2026-04-10T12:23:44.84Z</time></trkpt><trkpt lat="44.91892" lon="9.5721067"><ele>246.0</ele><time>2026-04-10T12:23:45.84Z</time></trkpt><trkpt lat="44.9189983" lon="9.5719967"><ele>246.0</ele><time>2026-04-10T12:23:46.84Z</time></trkpt><trkpt lat="44.9190917" lon="9.57189"><ele>246.0</ele><time>2026-04-10T12:23:47.841Z</time></trkpt><trkpt lat="44.9191967" lon="9.5717717"><ele>246.0</ele><time>2026-04-10T12:23:48.844Z</time></trkpt><trkpt lat="44.9193" lon="9.5716617"><ele>246.0</ele><time>2026-04-10T12:23:49.841Z</time></trkpt><trkpt lat="44.9194033" lon="9.571555"><ele>246.0</ele><time>2026-04-10T12:23:50.84Z</time></trkpt><trkpt lat="44.9195033" lon="9.5714617"><ele>246.0</ele><time>2026-04-10T12:23:51.84Z</time></trkpt><trkpt lat="44.9196017" lon="9.5713617"><ele>246.0</ele><time>2026-04-10T12:23:52.839Z</time></trkpt><trkpt lat="44.9196967" lon="9.57125"><ele>246.0</ele><time>2026-04-10T12:23:53.844Z</time></trkpt><trkpt lat="44.9197933" lon="9.5711183"><ele>246.0</ele><time>2026-04-10T12:23:54.839Z</time></trkpt><trkpt lat="44.9198883" lon="9.5709867"><ele>245.25</ele><time>2026-04-10T12:23:55.839Z</time></trkpt><trkpt lat="44.9199833" lon="9.5708517"><ele>244.5</ele><time>2026-04-10T12:23:56.84Z</time></trkpt><trkpt lat="44.9200733" lon="9.570725"><ele>243.75</ele><time>2026-04-10T12:23:57.842Z</time></trkpt><trkpt lat="44.9201683" lon="9.5705983"><ele>243.0</ele><time>2026-04-10T12:23:58.841Z</time></trkpt><trkpt lat="44.9202733" lon="9.570475"><ele>242.75</ele><time>2026-04-10T12:23:59.844Z</time></trkpt><trkpt lat="44.920385" lon="9.5703533"><ele>242.5</ele><time>2026-04-10T12:24:00.839Z</time></trkpt><trkpt lat="44.9204967" lon="9.570225"><ele>242.25</ele><time>2026-04-10T12:24:01.839Z</time></trkpt><trkpt lat="44.9206017" lon="9.5700983"><ele>242.0</ele><time>2026-04-10T12:24:02.84Z</time></trkpt><trkpt lat="44.9207133" lon="9.5699783"><ele>242.0</ele><time>2026-04-10T12:24:03.84Z</time></trkpt><trkpt lat="44.9208276" lon="9.5698584"><ele>242.0</ele><time>2026-04-10T12:24:04.84Z</time></trkpt><trkpt lat="44.9209438" lon="9.5697462"><ele>242.0</ele><time>2026-04-10T12:24:05.838Z</time></trkpt><trkpt lat="44.9210593" lon="9.5696513"><ele>242.0</ele><time>2026-04-10T12:24:06.843Z</time></trkpt><trkpt lat="44.9211707" lon="9.5695753"><ele>242.0</ele><time>2026-04-10T12:24:07.84Z</time></trkpt><trkpt lat="44.9212903" lon="9.5695178"><ele>242.0</ele><time>2026-04-10T12:24:08.841Z</time></trkpt><trkpt lat="44.9214248" lon="9.569471"><ele>242.0</ele><time>2026-04-10T12:24:09.84Z</time></trkpt><trkpt lat="44.9215675" lon="9.5694286"><ele>242.0</ele><time>2026-04-10T12:24:10.842Z</time></trkpt><trkpt lat="44.9217188" lon="9.5693846"><ele>241.66666666666669</ele><time>2026-04-10T12:24:11.841Z</time></trkpt><trkpt lat="44.9218747" lon="9.5693375"><ele>241.33333333333331</ele><time>2026-04-10T12:24:12.843Z</time></trkpt><trkpt lat="44.9220346" lon="9.5692946"><ele>241.0</ele><time>2026-04-10T12:24:13.841Z</time></trkpt><trkpt lat="44.9221923" lon="9.5692443"><ele>241.0</ele><time>2026-04-10T12:24:14.84Z</time></trkpt><trkpt lat="44.9223405" lon="9.5691624"><ele>241.0</ele><time>2026-04-10T12:24:15.84Z</time></trkpt><trkpt lat="44.9224702" lon="9.5690374"><ele>241.0</ele><time>2026-04-10T12:24:16.84Z</time></trkpt><trkpt lat="44.9225843" lon="9.5688794"><ele>240.0</ele><time>2026-04-10T12:24:17.843Z</time></trkpt><trkpt lat="44.9226912" lon="9.5687117"><ele>239.0</ele><time>2026-04-10T12:24:18.84Z</time></trkpt><trkpt lat="44.9227999" lon="9.5685546"><ele>238.0</ele><time>2026-04-10T12:24:19.841Z</time></trkpt><trkpt lat="44.9229107" lon="9.5684029"><ele>238.0</ele><time>2026-04-10T12:24:20.843Z</time></trkpt><trkpt lat="44.9230199" lon="9.5682607"><ele>238.0</ele><time>2026-04-10T12:24:21.84Z</time></trkpt><trkpt lat="44.9231281" lon="9.5681182"><ele>238.0</ele><time>2026-04-10T12:24:22.841Z</time></trkpt><trkpt lat="44.9232324" lon="9.5679796"><ele>238.0</ele><time>2026-04-10T12:24:23.84Z</time></trkpt><trkpt lat="44.9233354" lon="9.5678438"><ele>237.75</ele><time>2026-04-10T12:24:24.844Z</time></trkpt><trkpt lat="44.923434" lon="9.5677137"><ele>237.5</ele><time>2026-04-10T12:24:25.84Z</time></trkpt><trkpt lat="44.9235303" lon="9.5675928"><ele>237.25</ele><time>2026-04-10T12:24:26.842Z</time></trkpt><trkpt lat="44.9236205" lon="9.5674766"><ele>237.0</ele><time>2026-04-10T12:24:27.841Z</time></trkpt><trkpt lat="44.9237111" lon="9.5673726"><ele>237.0</ele><time>2026-04-10T12:24:28.84Z</time></trkpt><trkpt lat="44.923811" lon="9.5672905"><ele>237.0</ele><time>2026-04-10T12:24:29.841Z</time></trkpt><trkpt lat="44.9239282" lon="9.5672228"><ele>237.0</ele><time>2026-04-10T12:24:30.84Z</time></trkpt><trkpt lat="44.9240625" lon="9.567164"><ele>237.0</ele><time>2026-04-10T12:24:31.839Z</time></trkpt><trkpt lat="44.924207" lon="9.5671111"><ele>235.66666666666669</ele><time>2026-04-10T12:24:32.84Z</time></trkpt><trkpt lat="44.9243597" lon="9.5670571"><ele>234.33333333333334</ele><time>2026-04-10T12:24:33.84Z</time></trkpt><trkpt lat="44.9245195" lon="9.5670019"><ele>233.0</ele><time>2026-04-10T12:24:34.841Z</time></trkpt><trkpt lat="44.9246848" lon="9.5669484"><ele>233.0</ele><time>2026-04-10T12:24:35.842Z</time></trkpt><trkpt lat="44.9248532" lon="9.5668961"><ele>233.0</ele><time>2026-04-10T12:24:36.839Z</time></trkpt><trkpt lat="44.9250235" lon="9.5668499"><ele>233.0</ele><time>2026-04-10T12:24:37.844Z</time></trkpt><trkpt lat="44.9251962" lon="9.5668056"><ele>232.66666666666669</ele><time>2026-04-10T12:24:38.841Z</time></trkpt><trkpt lat="44.9253728" lon="9.5667592"><ele>232.33333333333331</ele><time>2026-04-10T12:24:39.841Z</time></trkpt><trkpt lat="44.9255485" lon="9.5667078"><ele>232.0</ele><time>2026-04-10T12:24:40.839Z</time></trkpt><trkpt lat="44.9257229" lon="9.5666505"><ele>232.0</ele><time>2026-04-10T12:24:41.84Z</time></trkpt><trkpt lat="44.9258887" lon="9.5665935"><ele>232.0</ele><time>2026-04-10T12:24:42.84Z</time></trkpt><trkpt lat="44.9260423" lon="9.566544"><ele>232.0</ele><time>2026-04-10T12:24:43.84Z</time></trkpt><trkpt lat="44.9261806" lon="9.566502"><ele>231.39999999999998</ele><time>2026-04-10T12:24:44.842Z</time></trkpt><trkpt lat="44.9263016" lon="9.5664604"><ele>230.79999999999998</ele><time>2026-04-10T12:24:45.841Z</time></trkpt><trkpt lat="44.926406" lon="9.5664082"><ele>230.2</ele><time>2026-04-10T12:24:46.841Z</time></trkpt><trkpt lat="44.9264812" lon="9.5663386"><ele>229.6</ele><time>2026-04-10T12:24:47.841Z</time></trkpt><trkpt lat="44.9265349" lon="9.5662773"><ele>229.0</ele><time>2026-04-10T12:24:48.84Z</time></trkpt><trkpt lat="44.9266181" lon="9.566251"><ele>229.0</ele><time>2026-04-10T12:24:50.841Z</time></trkpt><trkpt lat="44.926642" lon="9.5664009"><ele>229.0</ele><time>2026-04-10T12:24:52.84Z</time></trkpt><trkpt lat="44.9266267" lon="9.5665767"><ele>229.0</ele><time>2026-04-10T12:24:53.842Z</time></trkpt><trkpt lat="44.9266217" lon="9.5667583"><ele>229.0</ele><time>2026-04-10T12:24:54.84Z</time></trkpt><trkpt lat="44.9266233" lon="9.5669617"><ele>228.0</ele><time>2026-04-10T12:24:55.847Z</time></trkpt><trkpt lat="44.9266283" lon="9.5671783"><ele>227.0</ele><time>2026-04-10T12:24:56.84Z</time></trkpt><trkpt lat="44.9266333" lon="9.56741"><ele>226.0</ele><time>2026-04-10T12:24:57.84Z</time></trkpt><trkpt lat="44.92664" lon="9.5676483"><ele>225.0</ele><time>2026-04-10T12:24:58.84Z</time></trkpt><trkpt lat="44.9266467" lon="9.56789"><ele>224.0</ele><time>2026-04-10T12:24:59.84Z</time></trkpt><trkpt lat="44.9266583" lon="9.5681233"><ele>223.0</ele><time>2026-04-10T12:25:00.839Z</time></trkpt><trkpt lat="44.9266683" lon="9.56835"><ele>223.0</ele><time>2026-04-10T12:25:01.841Z</time></trkpt><trkpt lat="44.926675" lon="9.5685683"><ele>223.0</ele><time>2026-04-10T12:25:02.843Z</time></trkpt><trkpt lat="44.926685" lon="9.5687833"><ele>223.0</ele><time>2026-04-10T12:25:03.848Z</time></trkpt><trkpt lat="44.9267267" lon="9.5689917"><ele>222.66666666666666</ele><time>2026-04-10T12:25:04.84Z</time></trkpt><trkpt lat="44.9268033" lon="9.56919"><ele>222.33333333333331</ele><time>2026-04-10T12:25:05.84Z</time></trkpt><trkpt lat="44.9269067" lon="9.5693817"><ele>222.0</ele><time>2026-04-10T12:25:06.841Z</time></trkpt><trkpt lat="44.92702" lon="9.5695733"><ele>221.66666666666669</ele><time>2026-04-10T12:25:07.839Z</time></trkpt><trkpt lat="44.9271283" lon="9.5697667"><ele>221.33333333333334</ele><time>2026-04-10T12:25:08.839Z</time></trkpt><trkpt lat="44.9272367" lon="9.5699617"><ele>221.0</ele><time>2026-04-10T12:25:09.841Z</time></trkpt><trkpt lat="44.9273383" lon="9.5701583"><ele>221.0</ele><time>2026-04-10T12:25:10.841Z</time></trkpt><trkpt lat="44.92744" lon="9.5703567"><ele>221.0</ele><time>2026-04-10T12:25:11.84Z</time></trkpt><trkpt lat="44.9275383" lon="9.5705383"><ele>221.0</ele><time>2026-04-10T12:25:12.84Z</time></trkpt><trkpt lat="44.9276333" lon="9.570705"><ele>220.25</ele><time>2026-04-10T12:25:13.839Z</time></trkpt><trkpt lat="44.92774" lon="9.5708333"><ele>219.5</ele><time>2026-04-10T12:25:14.84Z</time></trkpt><trkpt lat="44.9278383" lon="9.5709483"><ele>218.75</ele><time>2026-04-10T12:25:15.84Z</time></trkpt><trkpt lat="44.9279117" lon="9.57106"><ele>218.0</ele><time>2026-04-10T12:25:16.838Z</time></trkpt><trkpt lat="44.9279533" lon="9.5711917"><ele>218.0</ele><time>2026-04-10T12:25:17.84Z</time></trkpt><trkpt lat="44.9279767" lon="9.57135"><ele>218.0</ele><time>2026-04-10T12:25:18.84Z</time></trkpt><trkpt lat="44.927965" lon="9.5715367"><ele>218.0</ele><time>2026-04-10T12:25:19.839Z</time></trkpt><trkpt lat="44.9279483" lon="9.5717417"><ele>218.0</ele><time>2026-04-10T12:25:20.844Z</time></trkpt><trkpt lat="44.927925" lon="9.571965"><ele>217.33333333333334</ele><time>2026-04-10T12:25:21.84Z</time></trkpt><trkpt lat="44.9278967" lon="9.5721917"><ele>216.66666666666669</ele><time>2026-04-10T12:25:22.846Z</time></trkpt><trkpt lat="44.927875" lon="9.5724267"><ele>216.0</ele><time>2026-04-10T12:25:23.841Z</time></trkpt><trkpt lat="44.9278467" lon="9.5726683"><ele>215.5</ele><time>2026-04-10T12:25:24.84Z</time></trkpt><trkpt lat="44.927815" lon="9.5728983"><ele>215.0</ele><time>2026-04-10T12:25:25.84Z</time></trkpt><trkpt lat="44.9277817" lon="9.5731033"><ele>214.5</ele><time>2026-04-10T12:25:26.841Z</time></trkpt><trkpt lat="44.92775" lon="9.5732783"><ele>214.0</ele><time>2026-04-10T12:25:27.839Z</time></trkpt><trkpt lat="44.92774" lon="9.5734333"><ele>214.0</ele><time>2026-04-10T12:25:28.841Z</time></trkpt><trkpt lat="44.9277683" lon="9.57356"><ele>214.0</ele><time>2026-04-10T12:25:29.848Z</time></trkpt><trkpt lat="44.92783" lon="9.57366"><ele>214.0</ele><time>2026-04-10T12:25:30.841Z</time></trkpt><trkpt lat="44.9279283" lon="9.5737383"><ele>214.0</ele><time>2026-04-10T12:25:31.841Z</time></trkpt><trkpt lat="44.928075" lon="9.5738117"><ele>213.66666666666666</ele><time>2026-04-10T12:25:32.841Z</time></trkpt><trkpt lat="44.9282383" lon="9.57389"><ele>213.33333333333331</ele><time>2026-04-10T12:25:33.842Z</time></trkpt><trkpt lat="44.928405" lon="9.5739767"><ele>213.0</ele><time>2026-04-10T12:25:34.842Z</time></trkpt><trkpt lat="44.928575" lon="9.57407"><ele>213.0</ele><time>2026-04-10T12:25:35.84Z</time></trkpt><trkpt lat="44.9287517" lon="9.5741717"><ele>213.0</ele><time>2026-04-10T12:25:36.839Z</time></trkpt><trkpt lat="44.9289317" lon="9.5742717"><ele>213.0</ele><time>2026-04-10T12:25:37.839Z</time></trkpt><trkpt lat="44.9291133" lon="9.5743733"><ele>212.0</ele><time>2026-04-10T12:25:38.84Z</time></trkpt><trkpt lat="44.9292933" lon="9.5744717"><ele>211.0</ele><time>2026-04-10T12:25:39.842Z</time></trkpt><trkpt lat="44.9294733" lon="9.574575"><ele>210.0</ele><time>2026-04-10T12:25:40.841Z</time></trkpt><trkpt lat="44.92966" lon="9.5746817"><ele>210.0</ele><time>2026-04-10T12:25:41.841Z</time></trkpt><trkpt lat="44.92985" lon="9.5747833"><ele>210.0</ele><time>2026-04-10T12:25:42.841Z</time></trkpt><trkpt lat="44.9300267" lon="9.574895"><ele>210.0</ele><time>2026-04-10T12:25:43.838Z</time></trkpt><trkpt lat="44.9302033" lon="9.574995"><ele>209.0</ele><time>2026-04-10T12:25:44.841Z</time></trkpt><trkpt lat="44.9303667" lon="9.5750883"><ele>208.0</ele><time>2026-04-10T12:25:45.84Z</time></trkpt><trkpt lat="44.9305233" lon="9.5751733"><ele>207.0</ele><time>2026-04-10T12:25:46.84Z</time></trkpt><trkpt lat="44.93068" lon="9.57524"><ele>207.0</ele><time>2026-04-10T12:25:47.839Z</time></trkpt><trkpt lat="44.930845" lon="9.5752817"><ele>207.0</ele><time>2026-04-10T12:25:48.84Z</time></trkpt><trkpt lat="44.9310133" lon="9.57532"><ele>207.0</ele><time>2026-04-10T12:25:49.84Z</time></trkpt><trkpt lat="44.931185" lon="9.57535"><ele>205.66666666666669</ele><time>2026-04-10T12:25:50.84Z</time></trkpt><trkpt lat="44.93136" lon="9.5753733"><ele>204.33333333333334</ele><time>2026-04-10T12:25:51.839Z</time></trkpt><trkpt lat="44.9315317" lon="9.5754067"><ele>203.0</ele><time>2026-04-10T12:25:52.84Z</time></trkpt><trkpt lat="44.9317017" lon="9.575445"><ele>202.33333333333334</ele><time>2026-04-10T12:25:53.843Z</time></trkpt><trkpt lat="44.9318733" lon="9.5754833"><ele>201.66666666666669</ele><time>2026-04-10T12:25:54.839Z</time></trkpt><trkpt lat="44.9320417" lon="9.575515"><ele>201.0</ele><time>2026-04-10T12:25:55.84Z</time></trkpt><trkpt lat="44.9322133" lon="9.575545"><ele>201.0</ele><time>2026-04-10T12:25:56.84Z</time></trkpt><trkpt lat="44.9323917" lon="9.5755767"><ele>201.0</ele><time>2026-04-10T12:25:57.84Z</time></trkpt><trkpt lat="44.9325683" lon="9.5756117"><ele>201.0</ele><time>2026-04-10T12:25:58.84Z</time></trkpt><trkpt lat="44.9327467" lon="9.575645"><ele>200.0</ele><time>2026-04-10T12:25:59.839Z</time></trkpt><trkpt lat="44.9329267" lon="9.575685"><ele>199.0</ele><time>2026-04-10T12:26:00.839Z</time></trkpt><trkpt lat="44.9331117" lon="9.57573"><ele>198.0</ele><time>2026-04-10T12:26:01.841Z</time></trkpt><trkpt lat="44.9332967" lon="9.57577"><ele>197.66666666666669</ele><time>2026-04-10T12:26:02.841Z</time></trkpt><trkpt lat="44.9334833" lon="9.5758067"><ele>197.33333333333334</ele><time>2026-04-10T12:26:03.84Z</time></trkpt><trkpt lat="44.93367" lon="9.5758433"><ele>197.0</ele><time>2026-04-10T12:26:04.84Z</time></trkpt><trkpt lat="44.93386" lon="9.5758817"><ele>197.0</ele><time>2026-04-10T12:26:05.842Z</time></trkpt><trkpt lat="44.9340517" lon="9.5759217"><ele>197.0</ele><time>2026-04-10T12:26:06.842Z</time></trkpt><trkpt lat="44.9342383" lon="9.5759467"><ele>197.0</ele><time>2026-04-10T12:26:07.841Z</time></trkpt><trkpt lat="44.93442" lon="9.5759733"><ele>196.33333333333334</ele><time>2026-04-10T12:26:08.845Z</time></trkpt><trkpt lat="44.9345983" lon="9.5759967"><ele>195.66666666666669</ele><time>2026-04-10T12:26:09.841Z</time></trkpt><trkpt lat="44.9347767" lon="9.576015"><ele>195.0</ele><time>2026-04-10T12:26:10.843Z</time></trkpt><trkpt lat="44.9349533" lon="9.5760317"><ele>194.66666666666669</ele><time>2026-04-10T12:26:11.839Z</time></trkpt><trkpt lat="44.9351217" lon="9.5760533"><ele>194.33333333333334</ele><time>2026-04-10T12:26:12.842Z</time></trkpt><trkpt lat="44.935275" lon="9.5760767"><ele>194.0</ele><time>2026-04-10T12:26:13.84Z</time></trkpt><trkpt lat="44.9354217" lon="9.576105"><ele>194.0</ele><time>2026-04-10T12:26:14.84Z</time></trkpt><trkpt lat="44.9355617" lon="9.57613"><ele>194.0</ele><time>2026-04-10T12:26:15.846Z</time></trkpt><trkpt lat="44.9356967" lon="9.5761517"><ele>194.0</ele><time>2026-04-10T12:26:16.839Z</time></trkpt><trkpt lat="44.9358283" lon="9.5761683"><ele>194.0</ele><time>2026-04-10T12:26:17.841Z</time></trkpt><trkpt lat="44.935955" lon="9.57618"><ele>193.0</ele><time>2026-04-10T12:26:18.84Z</time></trkpt><trkpt lat="44.936085" lon="9.5761917"><ele>192.0</ele><time>2026-04-10T12:26:19.84Z</time></trkpt><trkpt lat="44.936205" lon="9.576205"><ele>191.0</ele><time>2026-04-10T12:26:20.841Z</time></trkpt><trkpt lat="44.9363333" lon="9.576195"><ele>190.0</ele><time>2026-04-10T12:26:21.839Z</time></trkpt><trkpt lat="44.9364583" lon="9.576215"><ele>190.0</ele><time>2026-04-10T12:26:22.841Z</time></trkpt><trkpt lat="44.9365933" lon="9.5762433"><ele>190.0</ele><time>2026-04-10T12:26:23.839Z</time></trkpt><trkpt lat="44.9367533" lon="9.5762717"><ele>190.0</ele><time>2026-04-10T12:26:24.844Z</time></trkpt><trkpt lat="44.9369233" lon="9.5763"><ele>190.0</ele><time>2026-04-10T12:26:25.841Z</time></trkpt><trkpt lat="44.9371083" lon="9.5763333"><ele>190.0</ele><time>2026-04-10T12:26:26.841Z</time></trkpt><trkpt lat="44.9372967" lon="9.5763867"><ele>190.0</ele><time>2026-04-10T12:26:27.84Z</time></trkpt><trkpt lat="44.9374833" lon="9.57646"><ele>189.33333333333334</ele><time>2026-04-10T12:26:28.842Z</time></trkpt><trkpt lat="44.9376667" lon="9.576535"><ele>188.66666666666666</ele><time>2026-04-10T12:26:29.84Z</time></trkpt><trkpt lat="44.93785" lon="9.5766117"><ele>188.0</ele><time>2026-04-10T12:26:30.839Z</time></trkpt><trkpt lat="44.9380283" lon="9.576685"><ele>188.0</ele><time>2026-04-10T12:26:31.847Z</time></trkpt><trkpt lat="44.9381983" lon="9.57674"><ele>188.0</ele><time>2026-04-10T12:26:32.841Z</time></trkpt><trkpt lat="44.93837" lon="9.576765"><ele>188.0</ele><time>2026-04-10T12:26:33.84Z</time></trkpt><trkpt lat="44.9385483" lon="9.5767567"><ele>186.66666666666666</ele><time>2026-04-10T12:26:34.844Z</time></trkpt><trkpt lat="44.9387283" lon="9.57672"><ele>185.33333333333334</ele><time>2026-04-10T12:26:35.839Z</time></trkpt><trkpt lat="44.93891" lon="9.5766833"><ele>184.0</ele><time>2026-04-10T12:26:36.84Z</time></trkpt><trkpt lat="44.9390933" lon="9.5766567"><ele>183.0</ele><time>2026-04-10T12:26:37.841Z</time></trkpt><trkpt lat="44.93928" lon="9.5766217"><ele>182.0</ele><time>2026-04-10T12:26:38.841Z</time></trkpt><trkpt lat="44.93947" lon="9.5765867"><ele>181.0</ele><time>2026-04-10T12:26:39.844Z</time></trkpt><trkpt lat="44.9396617" lon="9.5765517"><ele>181.0</ele><time>2026-04-10T12:26:40.839Z</time></trkpt><trkpt lat="44.9398533" lon="9.5765183"><ele>181.0</ele><time>2026-04-10T12:26:41.841Z</time></trkpt><trkpt lat="44.9400433" lon="9.5764867"><ele>181.0</ele><time>2026-04-10T12:26:42.84Z</time></trkpt><trkpt lat="44.940235" lon="9.576455"><ele>180.0</ele><time>2026-04-10T12:26:43.842Z</time></trkpt><trkpt lat="44.9404283" lon="9.576425"><ele>179.0</ele><time>2026-04-10T12:26:44.842Z</time></trkpt><trkpt lat="44.9406217" lon="9.5763983"><ele>178.0</ele><time>2026-04-10T12:26:45.84Z</time></trkpt><trkpt lat="44.9408117" lon="9.5763717"><ele>177.66666666666669</ele><time>2026-04-10T12:26:46.842Z</time></trkpt><trkpt lat="44.9409983" lon="9.576345"><ele>177.33333333333334</ele><time>2026-04-10T12:26:47.839Z</time></trkpt><trkpt lat="44.941175" lon="9.5763217"><ele>177.0</ele><time>2026-04-10T12:26:48.84Z</time></trkpt><trkpt lat="44.9413283" lon="9.5763033"><ele>177.0</ele><time>2026-04-10T12:26:49.841Z</time></trkpt><trkpt lat="44.9414683" lon="9.576295"><ele>177.0</ele><time>2026-04-10T12:26:50.841Z</time></trkpt><trkpt lat="44.9416117" lon="9.5763"><ele>177.0</ele><time>2026-04-10T12:26:51.84Z</time></trkpt><trkpt lat="44.9417583" lon="9.5763233"><ele>177.0</ele><time>2026-04-10T12:26:52.841Z</time></trkpt><trkpt lat="44.9419033" lon="9.5763717"><ele>176.33333333333334</ele><time>2026-04-10T12:26:53.841Z</time></trkpt><trkpt lat="44.9420533" lon="9.5764317"><ele>175.66666666666669</ele><time>2026-04-10T12:26:54.84Z</time></trkpt><trkpt lat="44.9422033" lon="9.576495"><ele>175.0</ele><time>2026-04-10T12:26:55.84Z</time></trkpt><trkpt lat="44.9423633" lon="9.5765567"><ele>175.0</ele><time>2026-04-10T12:26:56.84Z</time></trkpt><trkpt lat="44.942525" lon="9.5766217"><ele>175.0</ele><time>2026-04-10T12:26:57.84Z</time></trkpt><trkpt lat="44.9426917" lon="9.5766883"><ele>175.0</ele><time>2026-04-10T12:26:58.84Z</time></trkpt><trkpt lat="44.9428633" lon="9.5767533"><ele>174.66666666666669</ele><time>2026-04-10T12:26:59.84Z</time></trkpt><trkpt lat="44.94304" lon="9.576815"><ele>174.33333333333334</ele><time>2026-04-10T12:27:00.839Z</time></trkpt><trkpt lat="44.9432183" lon="9.5768683"><ele>174.0</ele><time>2026-04-10T12:27:01.839Z</time></trkpt><trkpt lat="44.9433967" lon="9.5769217"><ele>173.0</ele><time>2026-04-10T12:27:02.84Z</time></trkpt><trkpt lat="44.9435783" lon="9.5769733"><ele>172.0</ele><time>2026-04-10T12:27:03.84Z</time></trkpt><trkpt lat="44.9437567" lon="9.5770267"><ele>171.0</ele><time>2026-04-10T12:27:04.841Z</time></trkpt><trkpt lat="44.943935" lon="9.5770817"><ele>171.0</ele><time>2026-04-10T12:27:05.844Z</time></trkpt><trkpt lat="44.9441117" lon="9.5771367"><ele>171.0</ele><time>2026-04-10T12:27:06.84Z</time></trkpt><trkpt lat="44.9442867" lon="9.57719"><ele>171.0</ele><time>2026-04-10T12:27:07.842Z</time></trkpt><trkpt lat="44.9444633" lon="9.5772417"><ele>171.0</ele><time>2026-04-10T12:27:08.84Z</time></trkpt><trkpt lat="44.94464" lon="9.577295"><ele>171.0</ele><time>2026-04-10T12:27:09.839Z</time></trkpt><trkpt lat="44.944815" lon="9.5773483"><ele>171.0</ele><time>2026-04-10T12:27:10.839Z</time></trkpt><trkpt lat="44.9449917" lon="9.577405"><ele>170.0</ele><time>2026-04-10T12:27:11.841Z</time></trkpt><trkpt lat="44.9451717" lon="9.5774667"><ele>169.0</ele><time>2026-04-10T12:27:12.84Z</time></trkpt><trkpt lat="44.94535" lon="9.5775333"><ele>168.0</ele><time>2026-04-10T12:27:13.84Z</time></trkpt><trkpt lat="44.9455283" lon="9.5776"><ele>168.0</ele><time>2026-04-10T12:27:14.839Z</time></trkpt><trkpt lat="44.9457083" lon="9.57767"><ele>168.0</ele><time>2026-04-10T12:27:15.841Z</time></trkpt><trkpt lat="44.9458883" lon="9.5777417"><ele>168.0</ele><time>2026-04-10T12:27:16.84Z</time></trkpt><trkpt lat="44.94607" lon="9.5778083"><ele>165.66666666666666</ele><time>2026-04-10T12:27:17.839Z</time></trkpt><trkpt lat="44.946255" lon="9.577875"><ele>163.33333333333331</ele><time>2026-04-10T12:27:18.84Z</time></trkpt><trkpt lat="44.9464383" lon="9.5779467"><ele>161.0</ele><time>2026-04-10T12:27:19.841Z</time></trkpt><trkpt lat="44.9466183" lon="9.578025"><ele>160.33333333333331</ele><time>2026-04-10T12:27:20.844Z</time></trkpt><trkpt lat="44.9468" lon="9.578115"><ele>159.66666666666666</ele><time>2026-04-10T12:27:21.84Z</time></trkpt><trkpt lat="44.94698" lon="9.5782167"><ele>159.0</ele><time>2026-04-10T12:27:22.842Z</time></trkpt><trkpt lat="44.9471583" lon="9.5783233"><ele>159.0</ele><time>2026-04-10T12:27:23.84Z</time></trkpt><trkpt lat="44.947335" lon="9.5784417"><ele>159.0</ele><time>2026-04-10T12:27:24.842Z</time></trkpt><trkpt lat="44.9475083" lon="9.578565"><ele>159.0</ele><time>2026-04-10T12:27:25.842Z</time></trkpt><trkpt lat="44.94768" lon="9.5786867"><ele>157.33333333333334</ele><time>2026-04-10T12:27:26.842Z</time></trkpt><trkpt lat="44.947855" lon="9.5788017"><ele>155.66666666666669</ele><time>2026-04-10T12:27:27.841Z</time></trkpt><trkpt lat="44.94803" lon="9.5788967"><ele>154.0</ele><time>2026-04-10T12:27:28.843Z</time></trkpt><trkpt lat="44.9482017" lon="9.57895"><ele>155.0</ele><time>2026-04-10T12:27:29.84Z</time></trkpt><trkpt lat="44.9483833" lon="9.5789717"><ele>156.0</ele><time>2026-04-10T12:27:30.839Z</time></trkpt><trkpt lat="44.9485683" lon="9.5789767"><ele>157.0</ele><time>2026-04-10T12:27:31.842Z</time></trkpt><trkpt lat="44.948755" lon="9.578975"><ele>157.0</ele><time>2026-04-10T12:27:32.842Z</time></trkpt><trkpt lat="44.9489433" lon="9.5789717"><ele>157.0</ele><time>2026-04-10T12:27:33.84Z</time></trkpt><trkpt lat="44.949135" lon="9.5789733"><ele>157.0</ele><time>2026-04-10T12:27:34.84Z</time></trkpt><trkpt lat="44.94933" lon="9.5789783"><ele>155.66666666666669</ele><time>2026-04-10T12:27:35.842Z</time></trkpt><trkpt lat="44.949525" lon="9.57899"><ele>154.33333333333334</ele><time>2026-04-10T12:27:36.839Z</time></trkpt><trkpt lat="44.9497183" lon="9.579"><ele>153.0</ele><time>2026-04-10T12:27:37.839Z</time></trkpt><trkpt lat="44.9499017" lon="9.5790083"><ele>152.0</ele><time>2026-04-10T12:27:38.843Z</time></trkpt><trkpt lat="44.9500717" lon="9.57901"><ele>151.0</ele><time>2026-04-10T12:27:39.84Z</time></trkpt><trkpt lat="44.95024" lon="9.5789917"><ele>150.0</ele><time>2026-04-10T12:27:40.84Z</time></trkpt><trkpt lat="44.9504117" lon="9.5789467"><ele>150.0</ele><time>2026-04-10T12:27:41.84Z</time></trkpt><trkpt lat="44.950585" lon="9.5788767"><ele>150.0</ele><time>2026-04-10T12:27:42.846Z</time></trkpt><trkpt lat="44.950755" lon="9.578785"><ele>150.0</ele><time>2026-04-10T12:27:43.841Z</time></trkpt><trkpt lat="44.9509267" lon="9.5786867"><ele>149.0</ele><time>2026-04-10T12:27:44.84Z</time></trkpt><trkpt lat="44.9510983" lon="9.5785817"><ele>148.0</ele><time>2026-04-10T12:27:45.841Z</time></trkpt><trkpt lat="44.951265" lon="9.5784767"><ele>147.0</ele><time>2026-04-10T12:27:46.841Z</time></trkpt><trkpt lat="44.9514217" lon="9.578385"><ele>147.0</ele><time>2026-04-10T12:27:47.839Z</time></trkpt><trkpt lat="44.951575" lon="9.5783033"><ele>147.0</ele><time>2026-04-10T12:27:48.841Z</time></trkpt><trkpt lat="44.9517267" lon="9.5782367"><ele>147.0</ele><time>2026-04-10T12:27:49.839Z</time></trkpt><trkpt lat="44.95189" lon="9.5781933"><ele>145.33333333333334</ele><time>2026-04-10T12:27:50.842Z</time></trkpt><trkpt lat="44.9520617" lon="9.578185"><ele>143.66666666666669</ele><time>2026-04-10T12:27:51.92Z</time></trkpt><trkpt lat="44.952245" lon="9.5781967"><ele>142.0</ele><time>2026-04-10T12:27:52.84Z</time></trkpt><trkpt lat="44.9524267" lon="9.578215"><ele>141.0</ele><time>2026-04-10T12:27:53.843Z</time></trkpt><trkpt lat="44.9525983" lon="9.5782317"><ele>140.0</ele><time>2026-04-10T12:27:54.84Z</time></trkpt><trkpt lat="44.9527533" lon="9.5782467"><ele>139.0</ele><time>2026-04-10T12:27:55.842Z</time></trkpt><trkpt lat="44.952895" lon="9.57826"><ele>139.0</ele><time>2026-04-10T12:27:56.84Z</time></trkpt><trkpt lat="44.95301" lon="9.5782717"><ele>139.0</ele><time>2026-04-10T12:27:57.841Z</time></trkpt><trkpt lat="44.95309" lon="9.5782883"><ele>139.0</ele><time>2026-04-10T12:27:58.84Z</time></trkpt><trkpt lat="44.9531867" lon="9.57837"><ele>139.0</ele><time>2026-04-10T12:28:00.841Z</time></trkpt><trkpt lat="44.9531967" lon="9.578465"><ele>139.0</ele><time>2026-04-10T12:28:01.84Z</time></trkpt><trkpt lat="44.95318" lon="9.5785917"><ele>139.25</ele><time>2026-04-10T12:28:02.845Z</time></trkpt><trkpt lat="44.95314" lon="9.5787617"><ele>139.5</ele><time>2026-04-10T12:28:03.84Z</time></trkpt><trkpt lat="44.9531017" lon="9.5789533"><ele>139.75</ele><time>2026-04-10T12:28:04.839Z</time></trkpt><trkpt lat="44.9530683" lon="9.5791467"><ele>140.0</ele><time>2026-04-10T12:28:05.841Z</time></trkpt><trkpt lat="44.9530333" lon="9.5793467"><ele>139.66666666666666</ele><time>2026-04-10T12:28:06.84Z</time></trkpt><trkpt lat="44.952995" lon="9.5795533"><ele>139.33333333333334</ele><time>2026-04-10T12:28:07.845Z</time></trkpt><trkpt lat="44.9529583" lon="9.5797617"><ele>139.0</ele><time>2026-04-10T12:28:08.841Z</time></trkpt><trkpt lat="44.9529217" lon="9.5799783"><ele>139.0</ele><time>2026-04-10T12:28:09.84Z</time></trkpt><trkpt lat="44.952895" lon="9.5801967"><ele>139.0</ele><time>2026-04-10T12:28:10.839Z</time></trkpt><trkpt lat="44.952865" lon="9.5804217"><ele>139.0</ele><time>2026-04-10T12:28:11.841Z</time></trkpt><trkpt lat="44.9528433" lon="9.5806567"><ele>137.66666666666669</ele><time>2026-04-10T12:28:12.842Z</time></trkpt><trkpt lat="44.95283" lon="9.5808933"><ele>136.33333333333334</ele><time>2026-04-10T12:28:13.841Z</time></trkpt><trkpt lat="44.9528183" lon="9.58113"><ele>135.0</ele><time>2026-04-10T12:28:14.841Z</time></trkpt><trkpt lat="44.952805" lon="9.5813667"><ele>135.0</ele><time>2026-04-10T12:28:15.84Z</time></trkpt><trkpt lat="44.9527883" lon="9.5816033"><ele>135.0</ele><time>2026-04-10T12:28:16.847Z</time></trkpt><trkpt lat="44.9527767" lon="9.58184"><ele>135.0</ele><time>2026-04-10T12:28:17.841Z</time></trkpt><trkpt lat="44.9527633" lon="9.58207"><ele>136.33333333333334</ele><time>2026-04-10T12:28:18.841Z</time></trkpt><trkpt lat="44.9527517" lon="9.5822983"><ele>137.66666666666669</ele><time>2026-04-10T12:28:19.84Z</time></trkpt><trkpt lat="44.9527367" lon="9.5825167"><ele>139.0</ele><time>2026-04-10T12:28:20.841Z</time></trkpt><trkpt lat="44.9527217" lon="9.58273"><ele>139.25</ele><time>2026-04-10T12:28:21.841Z</time></trkpt><trkpt lat="44.9527067" lon="9.5829383"><ele>139.5</ele><time>2026-04-10T12:28:22.841Z</time></trkpt><trkpt lat="44.952685" lon="9.5831433"><ele>139.75</ele><time>2026-04-10T12:28:23.84Z</time></trkpt><trkpt lat="44.9526483" lon="9.5833467"><ele>140.0</ele><time>2026-04-10T12:28:24.842Z</time></trkpt><trkpt lat="44.9526067" lon="9.5835483"><ele>139.5</ele><time>2026-04-10T12:28:25.841Z</time></trkpt><trkpt lat="44.95256" lon="9.5837467"><ele>139.0</ele><time>2026-04-10T12:28:26.84Z</time></trkpt><trkpt lat="44.9525133" lon="9.5839433"><ele>138.5</ele><time>2026-04-10T12:28:27.842Z</time></trkpt><trkpt lat="44.9524683" lon="9.5841367"><ele>138.0</ele><time>2026-04-10T12:28:28.841Z</time></trkpt><trkpt lat="44.952425" lon="9.5843233"><ele>138.25</ele><time>2026-04-10T12:28:29.841Z</time></trkpt><trkpt lat="44.9523817" lon="9.5845067"><ele>138.5</ele><time>2026-04-10T12:28:30.841Z</time></trkpt><trkpt lat="44.9523433" lon="9.5846817"><ele>138.75</ele><time>2026-04-10T12:28:31.841Z</time></trkpt><trkpt lat="44.952315" lon="9.58486"><ele>139.0</ele><time>2026-04-10T12:28:32.841Z</time></trkpt><trkpt lat="44.9522983" lon="9.5850417"><ele>139.0</ele><time>2026-04-10T12:28:33.84Z</time></trkpt><trkpt lat="44.9522883" lon="9.5852333"><ele>139.0</ele><time>2026-04-10T12:28:34.841Z</time></trkpt><trkpt lat="44.952285" lon="9.58543"><ele>139.0</ele><time>2026-04-10T12:28:35.842Z</time></trkpt><trkpt lat="44.9522783" lon="9.5856317"><ele>139.0</ele><time>2026-04-10T12:28:36.842Z</time></trkpt><trkpt lat="44.9522717" lon="9.5858333"><ele>138.5</ele><time>2026-04-10T12:28:37.841Z</time></trkpt><trkpt lat="44.952265" lon="9.5860367"><ele>138.0</ele><time>2026-04-10T12:28:38.84Z</time></trkpt><trkpt lat="44.9522617" lon="9.5862367"><ele>137.5</ele><time>2026-04-10T12:28:39.841Z</time></trkpt><trkpt lat="44.9522567" lon="9.5864333"><ele>137.0</ele><time>2026-04-10T12:28:40.839Z</time></trkpt><trkpt lat="44.95225" lon="9.5866267"><ele>136.79999999999998</ele><time>2026-04-10T12:28:41.84Z</time></trkpt><trkpt lat="44.95224" lon="9.586805"><ele>136.6</ele><time>2026-04-10T12:28:42.841Z</time></trkpt><trkpt lat="44.9522267" lon="9.5869667"><ele>136.39999999999998</ele><time>2026-04-10T12:28:43.839Z</time></trkpt><trkpt lat="44.9522133" lon="9.5871067"><ele>136.2</ele><time>2026-04-10T12:28:44.842Z</time></trkpt><trkpt lat="44.95221" lon="9.5872217"><ele>136.0</ele><time>2026-04-10T12:28:45.841Z</time></trkpt><trkpt lat="44.952235" lon="9.5873683"><ele>135.6</ele><time>2026-04-10T12:28:47.842Z</time></trkpt><trkpt lat="44.95231" lon="9.58742"><ele>135.2</ele><time>2026-04-10T12:28:49.84Z</time></trkpt><trkpt lat="44.9523833" lon="9.58741"><ele>134.8</ele><time>2026-04-10T12:28:50.841Z</time></trkpt><trkpt lat="44.9524683" lon="9.5873767"><ele>134.4</ele><time>2026-04-10T12:28:51.841Z</time></trkpt><trkpt lat="44.9525767" lon="9.58731"><ele>134.0</ele><time>2026-04-10T12:28:52.84Z</time></trkpt><trkpt lat="44.95271" lon="9.5872283"><ele>132.66666666666666</ele><time>2026-04-10T12:28:53.841Z</time></trkpt><trkpt lat="44.9528567" lon="9.5871433"><ele>131.33333333333334</ele><time>2026-04-10T12:28:54.842Z</time></trkpt><trkpt lat="44.9530217" lon="9.587075"><ele>130.0</ele><time>2026-04-10T12:28:55.84Z</time></trkpt><trkpt lat="44.953195" lon="9.5870467"><ele>130.0</ele><time>2026-04-10T12:28:56.841Z</time></trkpt><trkpt lat="44.9533733" lon="9.5870617"><ele>130.0</ele><time>2026-04-10T12:28:57.841Z</time></trkpt><trkpt lat="44.9535517" lon="9.587105"><ele>130.0</ele><time>2026-04-10T12:28:58.84Z</time></trkpt><trkpt lat="44.9537267" lon="9.587165"><ele>130.0</ele><time>2026-04-10T12:28:59.843Z</time></trkpt><trkpt lat="44.9538967" lon="9.58724"><ele>130.0</ele><time>2026-04-10T12:29:00.842Z</time></trkpt><trkpt lat="44.9540633" lon="9.5873167"><ele>130.0</ele><time>2026-04-10T12:29:01.841Z</time></trkpt><trkpt lat="44.9542283" lon="9.5873917"><ele>130.0</ele><time>2026-04-10T12:29:02.841Z</time></trkpt><trkpt lat="44.9543917" lon="9.5874617"><ele>130.0</ele><time>2026-04-10T12:29:03.843Z</time></trkpt><trkpt lat="44.954555" lon="9.5875317"><ele>130.0</ele><time>2026-04-10T12:29:04.84Z</time></trkpt><trkpt lat="44.9547183" lon="9.5876017"><ele>130.0</ele><time>2026-04-10T12:29:05.84Z</time></trkpt><trkpt lat="44.9548833" lon="9.587665"><ele>130.0</ele><time>2026-04-10T12:29:06.844Z</time></trkpt><trkpt lat="44.9550517" lon="9.5877167"><ele>130.0</ele><time>2026-04-10T12:29:07.84Z</time></trkpt><trkpt lat="44.95522" lon="9.587745"><ele>129.33333333333334</ele><time>2026-04-10T12:29:08.841Z</time></trkpt><trkpt lat="44.9553917" lon="9.5877517"><ele>128.66666666666666</ele><time>2026-04-10T12:29:09.842Z</time></trkpt><trkpt lat="44.95556" lon="9.5877417"><ele>128.0</ele><time>2026-04-10T12:29:10.842Z</time></trkpt><trkpt lat="44.9557267" lon="9.5877133"><ele>128.0</ele><time>2026-04-10T12:29:11.841Z</time></trkpt><trkpt lat="44.955895" lon="9.5876717"><ele>128.0</ele><time>2026-04-10T12:29:12.842Z</time></trkpt><trkpt lat="44.9560633" lon="9.5876233"><ele>128.0</ele><time>2026-04-10T12:29:13.842Z</time></trkpt><trkpt lat="44.956235" lon="9.5875733"><ele>128.0</ele><time>2026-04-10T12:29:14.84Z</time></trkpt><trkpt lat="44.9564067" lon="9.5875267"><ele>128.0</ele><time>2026-04-10T12:29:15.84Z</time></trkpt><trkpt lat="44.956575" lon="9.587495"><ele>128.0</ele><time>2026-04-10T12:29:16.842Z</time></trkpt><trkpt lat="44.9567417" lon="9.5874867"><ele>127.33333333333333</ele><time>2026-04-10T12:29:17.843Z</time></trkpt><trkpt lat="44.9569083" lon="9.5875017"><ele>126.66666666666666</ele><time>2026-04-10T12:29:18.845Z</time></trkpt><trkpt lat="44.9570783" lon="9.5875383"><ele>126.0</ele><time>2026-04-10T12:29:19.842Z</time></trkpt><trkpt lat="44.9572517" lon="9.5875783"><ele>126.0</ele><time>2026-04-10T12:29:20.844Z</time></trkpt><trkpt lat="44.95743" lon="9.5876183"><ele>126.0</ele><time>2026-04-10T12:29:21.842Z</time></trkpt><trkpt lat="44.9576033" lon="9.58766"><ele>126.0</ele><time>2026-04-10T12:29:22.841Z</time></trkpt><trkpt lat="44.9577767" lon="9.587705"><ele>126.0</ele><time>2026-04-10T12:29:23.842Z</time></trkpt><trkpt lat="44.95795" lon="9.5877433"><ele>126.0</ele><time>2026-04-10T12:29:24.841Z</time></trkpt><trkpt lat="44.95812" lon="9.5877633"><ele>126.0</ele><time>2026-04-10T12:29:25.843Z</time></trkpt><trkpt lat="44.9582967" lon="9.5877433"><ele>125.33333333333334</ele><time>2026-04-10T12:29:26.842Z</time></trkpt><trkpt lat="44.95847" lon="9.587695"><ele>124.66666666666667</ele><time>2026-04-10T12:29:27.842Z</time></trkpt><trkpt lat="44.9586433" lon="9.58763"><ele>124.0</ele><time>2026-04-10T12:29:28.842Z</time></trkpt><trkpt lat="44.958815" lon="9.58756"><ele>124.0</ele><time>2026-04-10T12:29:29.842Z</time></trkpt><trkpt lat="44.9589867" lon="9.58749"><ele>124.0</ele><time>2026-04-10T12:29:30.841Z</time></trkpt><trkpt lat="44.9591583" lon="9.58742"><ele>124.0</ele><time>2026-04-10T12:29:31.842Z</time></trkpt><trkpt lat="44.9593267" lon="9.5873533"><ele>123.66666666666667</ele><time>2026-04-10T12:29:32.842Z</time></trkpt><trkpt lat="44.959495" lon="9.587285"><ele>123.33333333333334</ele><time>2026-04-10T12:29:33.841Z</time></trkpt><trkpt lat="44.9596633" lon="9.5872167"><ele>123.0</ele><time>2026-04-10T12:29:34.842Z</time></trkpt><trkpt lat="44.9598317" lon="9.5871517"><ele>123.0</ele><time>2026-04-10T12:29:35.84Z</time></trkpt><trkpt lat="44.9600017" lon="9.5870933"><ele>123.0</ele><time>2026-04-10T12:29:36.843Z</time></trkpt><trkpt lat="44.960175" lon="9.58704"><ele>123.0</ele><time>2026-04-10T12:29:37.84Z</time></trkpt><trkpt lat="44.960345" lon="9.58699"><ele>122.33333333333334</ele><time>2026-04-10T12:29:38.841Z</time></trkpt><trkpt lat="44.960515" lon="9.5869367"><ele>121.66666666666667</ele><time>2026-04-10T12:29:39.84Z</time></trkpt><trkpt lat="44.9606867" lon="9.5868817"><ele>121.0</ele><time>2026-04-10T12:29:40.84Z</time></trkpt><trkpt lat="44.9608583" lon="9.5868267"><ele>121.33333333333334</ele><time>2026-04-10T12:29:41.845Z</time></trkpt><trkpt lat="44.96103" lon="9.5867767"><ele>121.66666666666666</ele><time>2026-04-10T12:29:42.842Z</time></trkpt><trkpt lat="44.9612" lon="9.58673"><ele>122.0</ele><time>2026-04-10T12:29:43.84Z</time></trkpt><trkpt lat="44.9613733" lon="9.5866817"><ele>122.0</ele><time>2026-04-10T12:29:44.841Z</time></trkpt><trkpt lat="44.9615467" lon="9.5866317"><ele>122.0</ele><time>2026-04-10T12:29:45.84Z</time></trkpt><trkpt lat="44.96172" lon="9.5865817"><ele>122.0</ele><time>2026-04-10T12:29:46.842Z</time></trkpt><trkpt lat="44.9618967" lon="9.5865333"><ele>121.33333333333333</ele><time>2026-04-10T12:29:47.841Z</time></trkpt><trkpt lat="44.9620733" lon="9.586485"><ele>120.66666666666666</ele><time>2026-04-10T12:29:48.842Z</time></trkpt><trkpt lat="44.9622483" lon="9.586435"><ele>120.0</ele><time>2026-04-10T12:29:49.84Z</time></trkpt><trkpt lat="44.962425" lon="9.5863817"><ele>118.66666666666666</ele><time>2026-04-10T12:29:50.842Z</time></trkpt><trkpt lat="44.9626017" lon="9.58633"><ele>117.33333333333333</ele><time>2026-04-10T12:29:51.84Z</time></trkpt><trkpt lat="44.96278" lon="9.5862767"><ele>116.0</ele><time>2026-04-10T12:29:52.841Z</time></trkpt><trkpt lat="44.9629583" lon="9.5862233"><ele>115.66666666666666</ele><time>2026-04-10T12:29:53.841Z</time></trkpt><trkpt lat="44.9631367" lon="9.58617"><ele>115.33333333333334</ele><time>2026-04-10T12:29:54.842Z</time></trkpt><trkpt lat="44.963315" lon="9.5861133"><ele>115.0</ele><time>2026-04-10T12:29:55.841Z</time></trkpt><trkpt lat="44.96349" lon="9.58606"><ele>115.0</ele><time>2026-04-10T12:29:56.842Z</time></trkpt><trkpt lat="44.9636533" lon="9.5860133"><ele>115.0</ele><time>2026-04-10T12:29:57.842Z</time></trkpt><trkpt lat="44.9638017" lon="9.5859733"><ele>115.0</ele><time>2026-04-10T12:29:58.841Z</time></trkpt><trkpt lat="44.9639417" lon="9.5859317"><ele>115.0</ele><time>2026-04-10T12:29:59.842Z</time></trkpt><trkpt lat="44.9640667" lon="9.5858883"><ele>115.0</ele><time>2026-04-10T12:30:00.842Z</time></trkpt><trkpt lat="44.9641783" lon="9.5858533"><ele>115.0</ele><time>2026-04-10T12:30:01.841Z</time></trkpt><trkpt lat="44.9642817" lon="9.5858383"><ele>115.0</ele><time>2026-04-10T12:30:02.842Z</time></trkpt><trkpt lat="44.9643733" lon="9.5858583"><ele>115.0</ele><time>2026-04-10T12:30:03.841Z</time></trkpt><trkpt lat="44.9644883" lon="9.58604"><ele>114.25</ele><time>2026-04-10T12:30:05.841Z</time></trkpt><trkpt lat="44.9644883" lon="9.5862117"><ele>113.5</ele><time>2026-04-10T12:30:06.84Z</time></trkpt><trkpt lat="44.9644817" lon="9.5864067"><ele>112.75</ele><time>2026-04-10T12:30:07.841Z</time></trkpt><trkpt lat="44.9644683" lon="9.5866167"><ele>112.0</ele><time>2026-04-10T12:30:08.84Z</time></trkpt><trkpt lat="44.9644517" lon="9.586845"><ele>110.66666666666667</ele><time>2026-04-10T12:30:09.843Z</time></trkpt><trkpt lat="44.9644317" lon="9.5870833"><ele>109.33333333333334</ele><time>2026-04-10T12:30:10.84Z</time></trkpt><trkpt lat="44.9644117" lon="9.5873367"><ele>108.0</ele><time>2026-04-10T12:30:11.838Z</time></trkpt><trkpt lat="44.9643917" lon="9.5875983"><ele>107.33333333333334</ele><time>2026-04-10T12:30:12.84Z</time></trkpt><trkpt lat="44.9643767" lon="9.5878617"><ele>106.66666666666667</ele><time>2026-04-10T12:30:13.838Z</time></trkpt><trkpt lat="44.9643583" lon="9.5881217"><ele>106.0</ele><time>2026-04-10T12:30:14.84Z</time></trkpt><trkpt lat="44.9643433" lon="9.5883817"><ele>106.0</ele><time>2026-04-10T12:30:15.839Z</time></trkpt><trkpt lat="44.9643267" lon="9.5886383"><ele>106.0</ele><time>2026-04-10T12:30:16.838Z</time></trkpt><trkpt lat="44.9643133" lon="9.5888933"><ele>106.0</ele><time>2026-04-10T12:30:17.839Z</time></trkpt><trkpt lat="44.9643017" lon="9.5891483"><ele>105.33333333333334</ele><time>2026-04-10T12:30:18.84Z</time></trkpt><trkpt lat="44.9642883" lon="9.5894017"><ele>104.66666666666666</ele><time>2026-04-10T12:30:19.839Z</time></trkpt><trkpt lat="44.9642733" lon="9.589655"><ele>104.0</ele><time>2026-04-10T12:30:20.84Z</time></trkpt><trkpt lat="44.9642533" lon="9.5899083"><ele>103.33333333333333</ele><time>2026-04-10T12:30:21.84Z</time></trkpt><trkpt lat="44.9642367" lon="9.5901617"><ele>102.66666666666666</ele><time>2026-04-10T12:30:22.84Z</time></trkpt><trkpt lat="44.96422" lon="9.5904133"><ele>102.0</ele><time>2026-04-10T12:30:23.839Z</time></trkpt><trkpt lat="44.9642017" lon="9.590665"><ele>102.0</ele><time>2026-04-10T12:30:24.841Z</time></trkpt><trkpt lat="44.9641867" lon="9.59092"><ele>102.0</ele><time>2026-04-10T12:30:25.841Z</time></trkpt><trkpt lat="44.96417" lon="9.5911767"><ele>102.0</ele><time>2026-04-10T12:30:26.84Z</time></trkpt><trkpt lat="44.9641533" lon="9.5914333"><ele>101.66666666666666</ele><time>2026-04-10T12:30:27.84Z</time></trkpt><trkpt lat="44.9641367" lon="9.59169"><ele>101.33333333333333</ele><time>2026-04-10T12:30:28.839Z</time></trkpt><trkpt lat="44.9641233" lon="9.5919483"><ele>101.0</ele><time>2026-04-10T12:30:29.84Z</time></trkpt><trkpt lat="44.9641083" lon="9.5922067"><ele>101.0</ele><time>2026-04-10T12:30:30.84Z</time></trkpt><trkpt lat="44.9640933" lon="9.5924617"><ele>101.0</ele><time>2026-04-10T12:30:31.84Z</time></trkpt><trkpt lat="44.964075" lon="9.5927133"><ele>101.0</ele><time>2026-04-10T12:30:32.844Z</time></trkpt><trkpt lat="44.964055" lon="9.5929633"><ele>101.0</ele><time>2026-04-10T12:30:33.84Z</time></trkpt><trkpt lat="44.9640367" lon="9.5932133"><ele>101.0</ele><time>2026-04-10T12:30:34.84Z</time></trkpt><trkpt lat="44.96402" lon="9.5934633"><ele>101.0</ele><time>2026-04-10T12:30:35.841Z</time></trkpt><trkpt lat="44.964005" lon="9.593715"><ele>100.66666666666666</ele><time>2026-04-10T12:30:36.841Z</time></trkpt><trkpt lat="44.96399" lon="9.5939633"><ele>100.33333333333334</ele><time>2026-04-10T12:30:37.84Z</time></trkpt><trkpt lat="44.9639767" lon="9.5942133"><ele>100.0</ele><time>2026-04-10T12:30:38.841Z</time></trkpt><trkpt lat="44.9639617" lon="9.5944633"><ele>100.0</ele><time>2026-04-10T12:30:39.841Z</time></trkpt><trkpt lat="44.9639483" lon="9.594715"><ele>100.0</ele><time>2026-04-10T12:30:40.84Z</time></trkpt><trkpt lat="44.9639333" lon="9.5949683"><ele>100.0</ele><time>2026-04-10T12:30:41.841Z</time></trkpt><trkpt lat="44.963915" lon="9.5952217"><ele>100.0</ele><time>2026-04-10T12:30:42.84Z</time></trkpt><trkpt lat="44.9638967" lon="9.5954767"><ele>100.0</ele><time>2026-04-10T12:30:43.839Z</time></trkpt><trkpt lat="44.9638783" lon="9.5957333"><ele>100.0</ele><time>2026-04-10T12:30:44.84Z</time></trkpt><trkpt lat="44.96386" lon="9.5959867"><ele>100.33333333333334</ele><time>2026-04-10T12:30:45.844Z</time></trkpt><trkpt lat="44.9638417" lon="9.5962417"><ele>100.66666666666666</ele><time>2026-04-10T12:30:46.839Z</time></trkpt><trkpt lat="44.963825" lon="9.5964967"><ele>101.0</ele><time>2026-04-10T12:30:47.842Z</time></trkpt><trkpt lat="44.9638083" lon="9.5967517"><ele>101.0</ele><time>2026-04-10T12:30:48.839Z</time></trkpt><trkpt lat="44.96379" lon="9.5970083"><ele>101.0</ele><time>2026-04-10T12:30:49.84Z</time></trkpt><trkpt lat="44.9637717" lon="9.5972683"><ele>101.0</ele><time>2026-04-10T12:30:50.841Z</time></trkpt><trkpt lat="44.963755" lon="9.597525"><ele>101.0</ele><time>2026-04-10T12:30:51.841Z</time></trkpt><trkpt lat="44.96374" lon="9.5977833"><ele>101.0</ele><time>2026-04-10T12:30:52.84Z</time></trkpt><trkpt lat="44.9637233" lon="9.5980383"><ele>101.0</ele><time>2026-04-10T12:30:53.839Z</time></trkpt><trkpt lat="44.9637067" lon="9.598295"><ele>101.66666666666666</ele><time>2026-04-10T12:30:54.839Z</time></trkpt><trkpt lat="44.9636917" lon="9.5985467"><ele>102.33333333333334</ele><time>2026-04-10T12:30:55.839Z</time></trkpt><trkpt lat="44.963675" lon="9.5988"><ele>103.0</ele><time>2026-04-10T12:30:56.839Z</time></trkpt><trkpt lat="44.9636583" lon="9.5990483"><ele>103.33333333333334</ele><time>2026-04-10T12:30:57.841Z</time></trkpt><trkpt lat="44.963645" lon="9.5992967"><ele>103.66666666666666</ele><time>2026-04-10T12:30:58.841Z</time></trkpt><trkpt lat="44.9636283" lon="9.5995467"><ele>104.0</ele><time>2026-04-10T12:30:59.839Z</time></trkpt><trkpt lat="44.9636133" lon="9.5997967"><ele>104.0</ele><time>2026-04-10T12:31:00.841Z</time></trkpt><trkpt lat="44.9635967" lon="9.60005"><ele>104.0</ele><time>2026-04-10T12:31:01.842Z</time></trkpt><trkpt lat="44.9635817" lon="9.6003067"><ele>104.0</ele><time>2026-04-10T12:31:02.842Z</time></trkpt><trkpt lat="44.9635717" lon="9.60057"><ele>104.0</ele><time>2026-04-10T12:31:03.845Z</time></trkpt><trkpt lat="44.9635667" lon="9.6008333"><ele>104.0</ele><time>2026-04-10T12:31:04.842Z</time></trkpt><trkpt lat="44.9635683" lon="9.6010967"><ele>104.0</ele><time>2026-04-10T12:31:05.842Z</time></trkpt><trkpt lat="44.96358" lon="9.6013617"><ele>103.66666666666666</ele><time>2026-04-10T12:31:06.84Z</time></trkpt><trkpt lat="44.9636017" lon="9.6016233"><ele>103.33333333333334</ele><time>2026-04-10T12:31:07.839Z</time></trkpt><trkpt lat="44.9636417" lon="9.601875"><ele>103.0</ele><time>2026-04-10T12:31:08.841Z</time></trkpt><trkpt lat="44.9636983" lon="9.6021167"><ele>103.66666666666667</ele><time>2026-04-10T12:31:09.84Z</time></trkpt><trkpt lat="44.963775" lon="9.6023517"><ele>104.33333333333334</ele><time>2026-04-10T12:31:10.839Z</time></trkpt><trkpt lat="44.9638683" lon="9.602575"><ele>105.0</ele><time>2026-04-10T12:31:11.838Z</time></trkpt><trkpt lat="44.9639733" lon="9.6027867"><ele>105.0</ele><time>2026-04-10T12:31:12.839Z</time></trkpt><trkpt lat="44.9640933" lon="9.6029833"><ele>105.0</ele><time>2026-04-10T12:31:13.84Z</time></trkpt><trkpt lat="44.96423" lon="9.6031617"><ele>105.0</ele><time>2026-04-10T12:31:14.84Z</time></trkpt><trkpt lat="44.9643817" lon="9.603315"><ele>105.0</ele><time>2026-04-10T12:31:15.839Z</time></trkpt><trkpt lat="44.9645433" lon="9.603445"><ele>105.0</ele><time>2026-04-10T12:31:16.839Z</time></trkpt><trkpt lat="44.9647133" lon="9.6035533"><ele>105.0</ele><time>2026-04-10T12:31:17.839Z</time></trkpt><trkpt lat="44.9648883" lon="9.6036417"><ele>105.0</ele><time>2026-04-10T12:31:18.843Z</time></trkpt><trkpt lat="44.9650733" lon="9.6037"><ele>105.0</ele><time>2026-04-10T12:31:19.839Z</time></trkpt><trkpt lat="44.96526" lon="9.6037367"><ele>105.0</ele><time>2026-04-10T12:31:20.841Z</time></trkpt><trkpt lat="44.9654433" lon="9.6037517"><ele>105.0</ele><time>2026-04-10T12:31:21.839Z</time></trkpt><trkpt lat="44.96563" lon="9.6037517"><ele>105.0</ele><time>2026-04-10T12:31:22.84Z</time></trkpt><trkpt lat="44.96582" lon="9.6037367"><ele>105.0</ele><time>2026-04-10T12:31:23.84Z</time></trkpt><trkpt lat="44.9660083" lon="9.603715"><ele>104.66666666666666</ele><time>2026-04-10T12:31:24.839Z</time></trkpt><trkpt lat="44.966195" lon="9.60369"><ele>104.33333333333333</ele><time>2026-04-10T12:31:25.842Z</time></trkpt><trkpt lat="44.96638" lon="9.6036617"><ele>104.0</ele><time>2026-04-10T12:31:26.84Z</time></trkpt><trkpt lat="44.96657" lon="9.60363"><ele>104.33333333333333</ele><time>2026-04-10T12:31:27.841Z</time></trkpt><trkpt lat="44.9667617" lon="9.6036033"><ele>104.66666666666666</ele><time>2026-04-10T12:31:28.84Z</time></trkpt><trkpt lat="44.96695" lon="9.603585"><ele>105.0</ele><time>2026-04-10T12:31:29.841Z</time></trkpt><trkpt lat="44.9671367" lon="9.6035783"><ele>105.0</ele><time>2026-04-10T12:31:30.84Z</time></trkpt><trkpt lat="44.9673217" lon="9.603585"><ele>105.0</ele><time>2026-04-10T12:31:31.84Z</time></trkpt><trkpt lat="44.9675067" lon="9.6036"><ele>105.0</ele><time>2026-04-10T12:31:32.842Z</time></trkpt><trkpt lat="44.9676917" lon="9.6036317"><ele>104.66666666666666</ele><time>2026-04-10T12:31:33.841Z</time></trkpt><trkpt lat="44.967875" lon="9.6036767"><ele>104.33333333333333</ele><time>2026-04-10T12:31:34.841Z</time></trkpt><trkpt lat="44.968055" lon="9.6037283"><ele>104.0</ele><time>2026-04-10T12:31:35.839Z</time></trkpt><trkpt lat="44.9682333" lon="9.603795"><ele>104.66666666666666</ele><time>2026-04-10T12:31:36.84Z</time></trkpt><trkpt lat="44.968405" lon="9.603875"><ele>105.33333333333334</ele><time>2026-04-10T12:31:37.839Z</time></trkpt><trkpt lat="44.9685767" lon="9.6039717"><ele>106.0</ele><time>2026-04-10T12:31:38.842Z</time></trkpt><trkpt lat="44.968745" lon="9.6040767"><ele>106.0</ele><time>2026-04-10T12:31:39.839Z</time></trkpt><trkpt lat="44.96891" lon="9.6041883"><ele>106.0</ele><time>2026-04-10T12:31:40.841Z</time></trkpt><trkpt lat="44.96907" lon="9.6043117"><ele>106.0</ele><time>2026-04-10T12:31:41.84Z</time></trkpt><trkpt lat="44.9692267" lon="9.6044483"><ele>105.33333333333334</ele><time>2026-04-10T12:31:42.84Z</time></trkpt><trkpt lat="44.9693767" lon="9.604595"><ele>104.66666666666666</ele><time>2026-04-10T12:31:43.84Z</time></trkpt><trkpt lat="44.9695217" lon="9.6047517"><ele>104.0</ele><time>2026-04-10T12:31:44.841Z</time></trkpt><trkpt lat="44.9696617" lon="9.6049133"><ele>104.0</ele><time>2026-04-10T12:31:45.84Z</time></trkpt><trkpt lat="44.9697883" lon="9.605085"><ele>104.0</ele><time>2026-04-10T12:31:46.839Z</time></trkpt><trkpt lat="44.9699" lon="9.6052517"><ele>104.0</ele><time>2026-04-10T12:31:47.841Z</time></trkpt><trkpt lat="44.9699917" lon="9.605405"><ele>103.4</ele><time>2026-04-10T12:31:48.841Z</time></trkpt><trkpt lat="44.9700617" lon="9.6055383"><ele>102.80000000000001</ele><time>2026-04-10T12:31:49.839Z</time></trkpt><trkpt lat="44.97012" lon="9.6056483"><ele>102.19999999999999</ele><time>2026-04-10T12:31:50.844Z</time></trkpt><trkpt lat="44.9701683" lon="9.6057317"><ele>101.6</ele><time>2026-04-10T12:31:51.841Z</time></trkpt><trkpt lat="44.97022" lon="9.6058333"><ele>101.0</ele><time>2026-04-10T12:31:53.84Z</time></trkpt><trkpt lat="44.9702817" lon="9.6058883"><ele>101.0</ele><time>2026-04-10T12:32:01.842Z</time></trkpt><trkpt lat="44.9703733" lon="9.6058717"><ele>101.0</ele><time>2026-04-10T12:32:03.841Z</time></trkpt><trkpt lat="44.970435" lon="9.6058267"><ele>101.0</ele><time>2026-04-10T12:32:04.839Z</time></trkpt><trkpt lat="44.9705133" lon="9.60575"><ele>101.0</ele><time>2026-04-10T12:32:05.843Z</time></trkpt><trkpt lat="44.9705967" lon="9.6056717"><ele>101.0</ele><time>2026-04-10T12:32:06.839Z</time></trkpt><trkpt lat="44.9706933" lon="9.6055967"><ele>101.0</ele><time>2026-04-10T12:32:07.841Z</time></trkpt><trkpt lat="44.9708033" lon="9.6055267"><ele>101.0</ele><time>2026-04-10T12:32:08.84Z</time></trkpt><trkpt lat="44.9709267" lon="9.6054717"><ele>101.0</ele><time>2026-04-10T12:32:09.84Z</time></trkpt><trkpt lat="44.971065" lon="9.6054317"><ele>101.0</ele><time>2026-04-10T12:32:10.844Z</time></trkpt><trkpt lat="44.97121" lon="9.6054167"><ele>101.33333333333333</ele><time>2026-04-10T12:32:11.839Z</time></trkpt><trkpt lat="44.97136" lon="9.6054283"><ele>101.66666666666666</ele><time>2026-04-10T12:32:12.84Z</time></trkpt><trkpt lat="44.971515" lon="9.6054583"><ele>102.0</ele><time>2026-04-10T12:32:13.839Z</time></trkpt><trkpt lat="44.9716733" lon="9.605495"><ele>101.0</ele><time>2026-04-10T12:32:14.84Z</time></trkpt><trkpt lat="44.971835" lon="9.605535"><ele>100.0</ele><time>2026-04-10T12:32:15.839Z</time></trkpt><trkpt lat="44.972" lon="9.6055683"><ele>99.0</ele><time>2026-04-10T12:32:16.839Z</time></trkpt><trkpt lat="44.9721633" lon="9.6055983"><ele>99.0</ele><time>2026-04-10T12:32:17.84Z</time></trkpt><trkpt lat="44.97233" lon="9.6056267"><ele>99.0</ele><time>2026-04-10T12:32:18.841Z</time></trkpt><trkpt lat="44.9724967" lon="9.605655"><ele>99.0</ele><time>2026-04-10T12:32:19.84Z</time></trkpt><trkpt lat="44.9726683" lon="9.6056783"><ele>99.33333333333334</ele><time>2026-04-10T12:32:20.841Z</time></trkpt><trkpt lat="44.97284" lon="9.6056967"><ele>99.66666666666667</ele><time>2026-04-10T12:32:21.84Z</time></trkpt><trkpt lat="44.9730133" lon="9.605705"><ele>100.0</ele><time>2026-04-10T12:32:22.839Z</time></trkpt><trkpt lat="44.9731917" lon="9.6057117"><ele>100.33333333333334</ele><time>2026-04-10T12:32:23.841Z</time></trkpt><trkpt lat="44.9733733" lon="9.6057183"><ele>100.66666666666666</ele><time>2026-04-10T12:32:24.84Z</time></trkpt><trkpt lat="44.9735567" lon="9.605725"><ele>101.0</ele><time>2026-04-10T12:32:25.841Z</time></trkpt><trkpt lat="44.9737417" lon="9.6057333"><ele>101.0</ele><time>2026-04-10T12:32:26.842Z</time></trkpt><trkpt lat="44.9739283" lon="9.605745"><ele>101.0</ele><time>2026-04-10T12:32:27.839Z</time></trkpt><trkpt lat="44.9741167" lon="9.6057517"><ele>101.0</ele><time>2026-04-10T12:32:28.844Z</time></trkpt><trkpt lat="44.974305" lon="9.6057583"><ele>101.0</ele><time>2026-04-10T12:32:29.841Z</time></trkpt><trkpt lat="44.974495" lon="9.6057633"><ele>101.0</ele><time>2026-04-10T12:32:30.841Z</time></trkpt><trkpt lat="44.9746867" lon="9.605775"><ele>101.0</ele><time>2026-04-10T12:32:31.842Z</time></trkpt><trkpt lat="44.9748767" lon="9.6057917"><ele>99.66666666666666</ele><time>2026-04-10T12:32:32.841Z</time></trkpt><trkpt lat="44.9750667" lon="9.6058183"><ele>98.33333333333334</ele><time>2026-04-10T12:32:33.84Z</time></trkpt><trkpt lat="44.9752583" lon="9.6058567"><ele>97.0</ele><time>2026-04-10T12:32:34.84Z</time></trkpt><trkpt lat="44.975445" lon="9.605905"><ele>97.0</ele><time>2026-04-10T12:32:35.842Z</time></trkpt><trkpt lat="44.9756267" lon="9.6059567"><ele>97.0</ele><time>2026-04-10T12:32:36.842Z</time></trkpt><trkpt lat="44.9758033" lon="9.6059967"><ele>97.0</ele><time>2026-04-10T12:32:37.841Z</time></trkpt><trkpt lat="44.9759783" lon="9.6060367"><ele>97.0</ele><time>2026-04-10T12:32:38.841Z</time></trkpt><trkpt lat="44.9761517" lon="9.6060783"><ele>97.0</ele><time>2026-04-10T12:32:39.84Z</time></trkpt><trkpt lat="44.9763267" lon="9.60612"><ele>97.0</ele><time>2026-04-10T12:32:40.841Z</time></trkpt><trkpt lat="44.9764983" lon="9.6061633"><ele>97.0</ele><time>2026-04-10T12:32:41.842Z</time></trkpt><trkpt lat="44.9766717" lon="9.606205"><ele>97.0</ele><time>2026-04-10T12:32:42.843Z</time></trkpt><trkpt lat="44.9768433" lon="9.6062467"><ele>97.0</ele><time>2026-04-10T12:32:43.842Z</time></trkpt><trkpt lat="44.977015" lon="9.6062917"><ele>97.33333333333334</ele><time>2026-04-10T12:32:44.84Z</time></trkpt><trkpt lat="44.97719" lon="9.6063317"><ele>97.66666666666666</ele><time>2026-04-10T12:32:45.843Z</time></trkpt><trkpt lat="44.9773617" lon="9.6063733"><ele>98.0</ele><time>2026-04-10T12:32:46.84Z</time></trkpt><trkpt lat="44.9775333" lon="9.6064133"><ele>98.33333333333333</ele><time>2026-04-10T12:32:47.84Z</time></trkpt><trkpt lat="44.9777033" lon="9.60646"><ele>98.66666666666666</ele><time>2026-04-10T12:32:48.839Z</time></trkpt><trkpt lat="44.9778733" lon="9.6065017"><ele>99.0</ele><time>2026-04-10T12:32:49.84Z</time></trkpt><trkpt lat="44.9780483" lon="9.606545"><ele>99.0</ele><time>2026-04-10T12:32:50.84Z</time></trkpt><trkpt lat="44.978225" lon="9.6065867"><ele>99.0</ele><time>2026-04-10T12:32:51.842Z</time></trkpt><trkpt lat="44.9784033" lon="9.6066267"><ele>99.0</ele><time>2026-04-10T12:32:52.84Z</time></trkpt><trkpt lat="44.978585" lon="9.6066667"><ele>97.66666666666667</ele><time>2026-04-10T12:32:53.839Z</time></trkpt><trkpt lat="44.978765" lon="9.6067117"><ele>96.33333333333334</ele><time>2026-04-10T12:32:54.84Z</time></trkpt><trkpt lat="44.9789467" lon="9.6067567"><ele>95.0</ele><time>2026-04-10T12:32:55.839Z</time></trkpt><trkpt lat="44.9791267" lon="9.6068033"><ele>95.66666666666667</ele><time>2026-04-10T12:32:56.841Z</time></trkpt><trkpt lat="44.9793067" lon="9.6068467"><ele>96.33333333333334</ele><time>2026-04-10T12:32:57.843Z</time></trkpt><trkpt lat="44.9794867" lon="9.6068883"><ele>97.0</ele><time>2026-04-10T12:32:58.84Z</time></trkpt><trkpt lat="44.979665" lon="9.6069283"><ele>97.0</ele><time>2026-04-10T12:32:59.846Z</time></trkpt><trkpt lat="44.9798433" lon="9.6069667"><ele>97.0</ele><time>2026-04-10T12:33:00.842Z</time></trkpt><trkpt lat="44.9800217" lon="9.6070017"><ele>97.0</ele><time>2026-04-10T12:33:01.841Z</time></trkpt><trkpt lat="44.9801983" lon="9.6070267"><ele>96.0</ele><time>2026-04-10T12:33:02.84Z</time></trkpt><trkpt lat="44.9803783" lon="9.6070433"><ele>95.0</ele><time>2026-04-10T12:33:03.841Z</time></trkpt><trkpt lat="44.9805567" lon="9.6070517"><ele>94.0</ele><time>2026-04-10T12:33:04.84Z</time></trkpt><trkpt lat="44.9807367" lon="9.607055"><ele>94.0</ele><time>2026-04-10T12:33:05.842Z</time></trkpt><trkpt lat="44.9809133" lon="9.607055"><ele>94.0</ele><time>2026-04-10T12:33:06.84Z</time></trkpt><trkpt lat="44.98109" lon="9.6070517"><ele>94.0</ele><time>2026-04-10T12:33:07.84Z</time></trkpt><trkpt lat="44.9812683" lon="9.60705"><ele>94.0</ele><time>2026-04-10T12:33:08.839Z</time></trkpt><trkpt lat="44.9814467" lon="9.607045"><ele>94.0</ele><time>2026-04-10T12:33:09.839Z</time></trkpt><trkpt lat="44.981625" lon="9.6070417"><ele>94.0</ele><time>2026-04-10T12:33:10.839Z</time></trkpt><trkpt lat="44.9818033" lon="9.6070383"><ele>94.33333333333333</ele><time>2026-04-10T12:33:11.84Z</time></trkpt><trkpt lat="44.9819833" lon="9.60703"><ele>94.66666666666667</ele><time>2026-04-10T12:33:12.839Z</time></trkpt><trkpt lat="44.9821617" lon="9.60702"><ele>95.0</ele><time>2026-04-10T12:33:13.839Z</time></trkpt><trkpt lat="44.98234" lon="9.6070117"><ele>94.66666666666667</ele><time>2026-04-10T12:33:14.841Z</time></trkpt><trkpt lat="44.9825217" lon="9.6070067"><ele>94.33333333333333</ele><time>2026-04-10T12:33:15.84Z</time></trkpt><trkpt lat="44.9827033" lon="9.6070017"><ele>94.0</ele><time>2026-04-10T12:33:16.84Z</time></trkpt><trkpt lat="44.9828833" lon="9.6069967"><ele>94.33333333333333</ele><time>2026-04-10T12:33:17.84Z</time></trkpt><trkpt lat="44.9830633" lon="9.6069933"><ele>94.66666666666667</ele><time>2026-04-10T12:33:18.84Z</time></trkpt><trkpt lat="44.9832433" lon="9.6069933"><ele>95.0</ele><time>2026-04-10T12:33:19.841Z</time></trkpt><trkpt lat="44.9834283" lon="9.60699"><ele>95.0</ele><time>2026-04-10T12:33:20.839Z</time></trkpt><trkpt lat="44.9836083" lon="9.6069867"><ele>95.0</ele><time>2026-04-10T12:33:21.844Z</time></trkpt><trkpt lat="44.98379" lon="9.60698"><ele>95.0</ele><time>2026-04-10T12:33:22.84Z</time></trkpt><trkpt lat="44.9839717" lon="9.6069767"><ele>95.0</ele><time>2026-04-10T12:33:23.839Z</time></trkpt><trkpt lat="44.98415" lon="9.6069733"><ele>95.0</ele><time>2026-04-10T12:33:24.84Z</time></trkpt><trkpt lat="44.98433" lon="9.6069717"><ele>95.0</ele><time>2026-04-10T12:33:25.839Z</time></trkpt><trkpt lat="44.9845117" lon="9.60697"><ele>94.66666666666667</ele><time>2026-04-10T12:33:26.845Z</time></trkpt><trkpt lat="44.9846933" lon="9.6069683"><ele>94.33333333333333</ele><time>2026-04-10T12:33:27.841Z</time></trkpt><trkpt lat="44.9848767" lon="9.6069717"><ele>94.0</ele><time>2026-04-10T12:33:28.839Z</time></trkpt><trkpt lat="44.98506" lon="9.606985"><ele>93.66666666666666</ele><time>2026-04-10T12:33:29.839Z</time></trkpt><trkpt lat="44.9852467" lon="9.6070083"><ele>93.33333333333333</ele><time>2026-04-10T12:33:30.839Z</time></trkpt><trkpt lat="44.9854333" lon="9.6070383"><ele>93.0</ele><time>2026-04-10T12:33:31.843Z</time></trkpt><trkpt lat="44.98562" lon="9.6070783"><ele>93.0</ele><time>2026-04-10T12:33:32.84Z</time></trkpt><trkpt lat="44.9858067" lon="9.6071383"><ele>93.0</ele><time>2026-04-10T12:33:33.84Z</time></trkpt><trkpt lat="44.9859917" lon="9.6072067"><ele>93.0</ele><time>2026-04-10T12:33:34.841Z</time></trkpt><trkpt lat="44.9861767" lon="9.6072783"><ele>93.0</ele><time>2026-04-10T12:33:35.842Z</time></trkpt><trkpt lat="44.98636" lon="9.6073533"><ele>93.0</ele><time>2026-04-10T12:33:36.841Z</time></trkpt><trkpt lat="44.9865433" lon="9.60743"><ele>93.0</ele><time>2026-04-10T12:33:37.843Z</time></trkpt><trkpt lat="44.9867217" lon="9.60751"><ele>93.0</ele><time>2026-04-10T12:33:38.841Z</time></trkpt><trkpt lat="44.9868983" lon="9.6075967"><ele>93.0</ele><time>2026-04-10T12:33:39.841Z</time></trkpt><trkpt lat="44.9870717" lon="9.6076967"><ele>93.0</ele><time>2026-04-10T12:33:40.84Z</time></trkpt><trkpt lat="44.98724" lon="9.6078083"><ele>92.66666666666667</ele><time>2026-04-10T12:33:41.84Z</time></trkpt><trkpt lat="44.9874033" lon="9.60793"><ele>92.33333333333334</ele><time>2026-04-10T12:33:42.848Z</time></trkpt><trkpt lat="44.9875667" lon="9.6080567"><ele>92.0</ele><time>2026-04-10T12:33:43.84Z</time></trkpt><trkpt lat="44.9877267" lon="9.6081867"><ele>92.66666666666667</ele><time>2026-04-10T12:33:44.84Z</time></trkpt><trkpt lat="44.9878867" lon="9.6083183"><ele>93.33333333333333</ele><time>2026-04-10T12:33:45.84Z</time></trkpt><trkpt lat="44.9880467" lon="9.6084583"><ele>94.0</ele><time>2026-04-10T12:33:46.843Z</time></trkpt><trkpt lat="44.9882033" lon="9.6086017"><ele>93.0</ele><time>2026-04-10T12:33:47.841Z</time></trkpt><trkpt lat="44.9883583" lon="9.608745"><ele>92.0</ele><time>2026-04-10T12:33:48.84Z</time></trkpt><trkpt lat="44.9885133" lon="9.6088867"><ele>91.0</ele><time>2026-04-10T12:33:49.84Z</time></trkpt><trkpt lat="44.9886633" lon="9.6090233"><ele>91.0</ele><time>2026-04-10T12:33:50.84Z</time></trkpt><trkpt lat="44.9888133" lon="9.60916"><ele>91.0</ele><time>2026-04-10T12:33:51.84Z</time></trkpt><trkpt lat="44.98896" lon="9.609295"><ele>91.0</ele><time>2026-04-10T12:33:52.842Z</time></trkpt><trkpt lat="44.9891067" lon="9.6094317"><ele>91.0</ele><time>2026-04-10T12:33:53.839Z</time></trkpt><trkpt lat="44.9892567" lon="9.609565"><ele>91.0</ele><time>2026-04-10T12:33:54.84Z</time></trkpt><trkpt lat="44.9894067" lon="9.6097"><ele>91.0</ele><time>2026-04-10T12:33:55.84Z</time></trkpt><trkpt lat="44.9895567" lon="9.609835"><ele>91.0</ele><time>2026-04-10T12:33:56.84Z</time></trkpt><trkpt lat="44.989705" lon="9.6099717"><ele>91.0</ele><time>2026-04-10T12:33:57.841Z</time></trkpt><trkpt lat="44.989855" lon="9.6101067"><ele>91.0</ele><time>2026-04-10T12:33:58.843Z</time></trkpt><trkpt lat="44.9900017" lon="9.6102383"><ele>91.33333333333333</ele><time>2026-04-10T12:33:59.841Z</time></trkpt><trkpt lat="44.9901517" lon="9.61037"><ele>91.66666666666667</ele><time>2026-04-10T12:34:00.839Z</time></trkpt><trkpt lat="44.9903" lon="9.6105"><ele>92.0</ele><time>2026-04-10T12:34:01.843Z</time></trkpt><trkpt lat="44.9904467" lon="9.6106317"><ele>92.0</ele><time>2026-04-10T12:34:02.842Z</time></trkpt><trkpt lat="44.9905933" lon="9.6107633"><ele>92.0</ele><time>2026-04-10T12:34:03.851Z</time></trkpt><trkpt lat="44.9907417" lon="9.6108967"><ele>92.0</ele><time>2026-04-10T12:34:04.842Z</time></trkpt><trkpt lat="44.9908917" lon="9.6110267"><ele>91.66666666666667</ele><time>2026-04-10T12:34:05.843Z</time></trkpt><trkpt lat="44.9910417" lon="9.6111567"><ele>91.33333333333333</ele><time>2026-04-10T12:34:06.842Z</time></trkpt><trkpt lat="44.99119" lon="9.6112867"><ele>91.0</ele><time>2026-04-10T12:34:07.842Z</time></trkpt><trkpt lat="44.9913383" lon="9.6114183"><ele>90.66666666666666</ele><time>2026-04-10T12:34:08.846Z</time></trkpt><trkpt lat="44.9914867" lon="9.6115517"><ele>90.33333333333333</ele><time>2026-04-10T12:34:09.845Z</time></trkpt><trkpt lat="44.9916333" lon="9.6116833"><ele>90.0</ele><time>2026-04-10T12:34:10.841Z</time></trkpt><trkpt lat="44.9917817" lon="9.6118167"><ele>90.0</ele><time>2026-04-10T12:34:11.841Z</time></trkpt><trkpt lat="44.9919317" lon="9.6119467"><ele>90.0</ele><time>2026-04-10T12:34:12.842Z</time></trkpt><trkpt lat="44.9920817" lon="9.612075"><ele>90.0</ele><time>2026-04-10T12:34:13.84Z</time></trkpt><trkpt lat="44.9922283" lon="9.6122033"><ele>90.0</ele><time>2026-04-10T12:34:14.841Z</time></trkpt><trkpt lat="44.9923783" lon="9.61233"><ele>90.0</ele><time>2026-04-10T12:34:15.842Z</time></trkpt><trkpt lat="44.9925283" lon="9.61246"><ele>90.0</ele><time>2026-04-10T12:34:16.842Z</time></trkpt><trkpt lat="44.9926783" lon="9.61259"><ele>90.33333333333333</ele><time>2026-04-10T12:34:17.843Z</time></trkpt><trkpt lat="44.9928267" lon="9.6127183"><ele>90.66666666666666</ele><time>2026-04-10T12:34:18.839Z</time></trkpt><trkpt lat="44.9929733" lon="9.6128467"><ele>91.0</ele><time>2026-04-10T12:34:19.844Z</time></trkpt><trkpt lat="44.9931183" lon="9.612975"><ele>91.33333333333333</ele><time>2026-04-10T12:34:20.84Z</time></trkpt><trkpt lat="44.9932633" lon="9.6131033"><ele>91.66666666666667</ele><time>2026-04-10T12:34:21.84Z</time></trkpt><trkpt lat="44.9934083" lon="9.61323"><ele>92.0</ele><time>2026-04-10T12:34:22.841Z</time></trkpt><trkpt lat="44.9935517" lon="9.6133567"><ele>91.33333333333334</ele><time>2026-04-10T12:34:23.841Z</time></trkpt><trkpt lat="44.9936933" lon="9.613485"><ele>90.66666666666667</ele><time>2026-04-10T12:34:24.841Z</time></trkpt><trkpt lat="44.9938333" lon="9.6136183"><ele>90.0</ele><time>2026-04-10T12:34:25.839Z</time></trkpt><trkpt lat="44.9939767" lon="9.6137567"><ele>90.0</ele><time>2026-04-10T12:34:26.841Z</time></trkpt><trkpt lat="44.9941217" lon="9.6139017"><ele>90.0</ele><time>2026-04-10T12:34:27.841Z</time></trkpt><trkpt lat="44.9942667" lon="9.6140483"><ele>90.0</ele><time>2026-04-10T12:34:28.84Z</time></trkpt><trkpt lat="44.9944133" lon="9.6141967"><ele>89.0</ele><time>2026-04-10T12:34:29.841Z</time></trkpt><trkpt lat="44.9945633" lon="9.6143433"><ele>88.0</ele><time>2026-04-10T12:34:30.842Z</time></trkpt><trkpt lat="44.99471" lon="9.6144933"><ele>87.0</ele><time>2026-04-10T12:34:31.843Z</time></trkpt><trkpt lat="44.9948533" lon="9.6146417"><ele>86.66666666666667</ele><time>2026-04-10T12:34:32.842Z</time></trkpt><trkpt lat="44.994995" lon="9.61479"><ele>86.33333333333334</ele><time>2026-04-10T12:34:33.84Z</time></trkpt><trkpt lat="44.9951367" lon="9.614935"><ele>86.0</ele><time>2026-04-10T12:34:34.843Z</time></trkpt><trkpt lat="44.9952717" lon="9.615075"><ele>86.5</ele><time>2026-04-10T12:34:35.84Z</time></trkpt><trkpt lat="44.995395" lon="9.6152"><ele>87.0</ele><time>2026-04-10T12:34:36.84Z</time></trkpt><trkpt lat="44.9955033" lon="9.6153083"><ele>87.5</ele><time>2026-04-10T12:34:37.84Z</time></trkpt><trkpt lat="44.9955983" lon="9.6154033"><ele>88.0</ele><time>2026-04-10T12:34:38.841Z</time></trkpt><trkpt lat="44.995685" lon="9.6154767"><ele>88.2</ele><time>2026-04-10T12:34:39.842Z</time></trkpt><trkpt lat="44.995765" lon="9.6155233"><ele>88.4</ele><time>2026-04-10T12:34:40.841Z</time></trkpt><trkpt lat="44.9958383" lon="9.6155433"><ele>88.60000000000001</ele><time>2026-04-10T12:34:41.841Z</time></trkpt><trkpt lat="44.9959517" lon="9.6154617"><ele>88.80000000000001</ele><time>2026-04-10T12:34:43.84Z</time></trkpt><trkpt lat="44.9960067" lon="9.6153567"><ele>89.0</ele><time>2026-04-10T12:34:44.84Z</time></trkpt><trkpt lat="44.9960733" lon="9.6152433"><ele>89.0</ele><time>2026-04-10T12:34:45.842Z</time></trkpt><trkpt lat="44.99615" lon="9.61512"><ele>89.0</ele><time>2026-04-10T12:34:46.846Z</time></trkpt><trkpt lat="44.9962317" lon="9.6149967"><ele>89.0</ele><time>2026-04-10T12:34:47.841Z</time></trkpt><trkpt lat="44.9963217" lon="9.61487"><ele>89.0</ele><time>2026-04-10T12:34:48.843Z</time></trkpt><trkpt lat="44.99642" lon="9.6147283"><ele>89.0</ele><time>2026-04-10T12:34:49.842Z</time></trkpt><trkpt lat="44.9965183" lon="9.6145833"><ele>89.0</ele><time>2026-04-10T12:34:50.843Z</time></trkpt><trkpt lat="44.9966217" lon="9.6144367"><ele>89.0</ele><time>2026-04-10T12:34:51.843Z</time></trkpt><trkpt lat="44.9967233" lon="9.61429"><ele>89.0</ele><time>2026-04-10T12:34:52.843Z</time></trkpt><trkpt lat="44.99682" lon="9.6141483"><ele>89.0</ele><time>2026-04-10T12:34:53.846Z</time></trkpt><trkpt lat="44.9969117" lon="9.614005"><ele>89.0</ele><time>2026-04-10T12:34:54.841Z</time></trkpt><trkpt lat="44.9970033" lon="9.6138667"><ele>89.0</ele><time>2026-04-10T12:34:55.84Z</time></trkpt><trkpt lat="44.9971017" lon="9.61374"><ele>89.0</ele><time>2026-04-10T12:34:56.84Z</time></trkpt><trkpt lat="44.9972033" lon="9.6136183"><ele>89.0</ele><time>2026-04-10T12:34:57.842Z</time></trkpt><trkpt lat="44.997295" lon="9.6134933"><ele>89.0</ele><time>2026-04-10T12:34:58.84Z</time></trkpt><trkpt lat="44.9973883" lon="9.6133667"><ele>89.0</ele><time>2026-04-10T12:34:59.841Z</time></trkpt><trkpt lat="44.9974867" lon="9.6132483"><ele>89.0</ele><time>2026-04-10T12:35:00.842Z</time></trkpt><trkpt lat="44.9975883" lon="9.6131417"><ele>88.75</ele><time>2026-04-10T12:35:01.841Z</time></trkpt><trkpt lat="44.9976983" lon="9.6130567"><ele>88.5</ele><time>2026-04-10T12:35:02.841Z</time></trkpt><trkpt lat="44.997815" lon="9.6129967"><ele>88.25</ele><time>2026-04-10T12:35:03.841Z</time></trkpt><trkpt lat="44.997935" lon="9.6129667"><ele>88.0</ele><time>2026-04-10T12:35:04.84Z</time></trkpt><trkpt lat="44.9980583" lon="9.6129633"><ele>88.0</ele><time>2026-04-10T12:35:05.841Z</time></trkpt><trkpt lat="44.9981833" lon="9.6129767"><ele>88.0</ele><time>2026-04-10T12:35:06.841Z</time></trkpt><trkpt lat="44.9983017" lon="9.6130133"><ele>88.0</ele><time>2026-04-10T12:35:07.841Z</time></trkpt><trkpt lat="44.99842" lon="9.61307"><ele>88.0</ele><time>2026-04-10T12:35:08.844Z</time></trkpt><trkpt lat="44.998535" lon="9.6131367"><ele>88.0</ele><time>2026-04-10T12:35:09.84Z</time></trkpt><trkpt lat="44.9986467" lon="9.6131967"><ele>88.0</ele><time>2026-04-10T12:35:10.842Z</time></trkpt><trkpt lat="44.9987467" lon="9.6132483"><ele>88.0</ele><time>2026-04-10T12:35:11.84Z</time></trkpt><trkpt lat="44.998835" lon="9.6133083"><ele>88.0</ele><time>2026-04-10T12:35:12.839Z</time></trkpt><trkpt lat="44.9989233" lon="9.6133583"><ele>88.0</ele><time>2026-04-10T12:35:13.84Z</time></trkpt><trkpt lat="44.999005" lon="9.613405"><ele>88.0</ele><time>2026-04-10T12:35:14.841Z</time></trkpt><trkpt lat="44.99909" lon="9.6134533"><ele>88.0</ele><time>2026-04-10T12:35:15.839Z</time></trkpt><trkpt lat="44.9991767" lon="9.6135"><ele>88.0</ele><time>2026-04-10T12:35:16.841Z</time></trkpt><trkpt lat="44.99927" lon="9.6135467"><ele>88.0</ele><time>2026-04-10T12:35:17.84Z</time></trkpt><trkpt lat="44.9993733" lon="9.6135933"><ele>88.0</ele><time>2026-04-10T12:35:18.842Z</time></trkpt><trkpt lat="44.9994767" lon="9.61364"><ele>88.0</ele><time>2026-04-10T12:35:19.84Z</time></trkpt><trkpt lat="44.9995817" lon="9.6136833"><ele>88.0</ele><time>2026-04-10T12:35:20.841Z</time></trkpt><trkpt lat="44.999685" lon="9.6137217"><ele>88.0</ele><time>2026-04-10T12:35:21.846Z</time></trkpt><trkpt lat="44.99978" lon="9.6137567"><ele>88.0</ele><time>2026-04-10T12:35:22.841Z</time></trkpt><trkpt lat="44.999865" lon="9.6137833"><ele>88.0</ele><time>2026-04-10T12:35:23.84Z</time></trkpt><trkpt lat="44.9999433" lon="9.6137883"><ele>88.0</ele><time>2026-04-10T12:35:24.842Z</time></trkpt><trkpt lat="45.00004" lon="9.6137483"><ele>88.0</ele><time>2026-04-10T12:35:26.846Z</time></trkpt><trkpt lat="45.000115" lon="9.6137083"><ele>88.0</ele><time>2026-04-10T12:35:28.84Z</time></trkpt><trkpt lat="45.0001933" lon="9.6136633"><ele>88.0</ele><time>2026-04-10T12:35:30.839Z</time></trkpt><trkpt lat="45.0003" lon="9.613605"><ele>88.0</ele><time>2026-04-10T12:35:32.842Z</time></trkpt><trkpt lat="45.0003683" lon="9.6135817"><ele>87.80000000000001</ele><time>2026-04-10T12:35:33.839Z</time></trkpt><trkpt lat="45.00044" lon="9.6135617"><ele>87.6</ele><time>2026-04-10T12:35:34.84Z</time></trkpt><trkpt lat="45.0005183" lon="9.6135617"><ele>87.4</ele><time>2026-04-10T12:35:35.84Z</time></trkpt><trkpt lat="45.00063" lon="9.6135567"><ele>87.19999999999999</ele><time>2026-04-10T12:35:36.843Z</time></trkpt><trkpt lat="45.00075" lon="9.6135583"><ele>87.0</ele><time>2026-04-10T12:35:37.84Z</time></trkpt><trkpt lat="45.0008633" lon="9.6135533"><ele>86.75</ele><time>2026-04-10T12:35:38.84Z</time></trkpt><trkpt lat="45.0009833" lon="9.6135367"><ele>86.5</ele><time>2026-04-10T12:35:39.84Z</time></trkpt><trkpt lat="45.0010967" lon="9.613545"><ele>86.25</ele><time>2026-04-10T12:35:40.84Z</time></trkpt><trkpt lat="45.001215" lon="9.6135633"><ele>86.0</ele><time>2026-04-10T12:35:41.839Z</time></trkpt><trkpt lat="45.00133" lon="9.6135867"><ele>86.0</ele><time>2026-04-10T12:35:42.843Z</time></trkpt><trkpt lat="45.0014433" lon="9.6136067"><ele>86.0</ele><time>2026-04-10T12:35:43.84Z</time></trkpt><trkpt lat="45.0015617" lon="9.6136283"><ele>86.0</ele><time>2026-04-10T12:35:44.839Z</time></trkpt><trkpt lat="45.0016817" lon="9.613645"><ele>86.0</ele><time>2026-04-10T12:35:45.838Z</time></trkpt><trkpt lat="45.0018033" lon="9.61367"><ele>86.0</ele><time>2026-04-10T12:35:46.84Z</time></trkpt><trkpt lat="45.001925" lon="9.61371"><ele>86.0</ele><time>2026-04-10T12:35:47.84Z</time></trkpt><trkpt lat="45.002045" lon="9.6137617"><ele>86.0</ele><time>2026-04-10T12:35:48.839Z</time></trkpt><trkpt lat="45.00216" lon="9.61381"><ele>86.0</ele><time>2026-04-10T12:35:49.843Z</time></trkpt><trkpt lat="45.0022733" lon="9.6138617"><ele>86.0</ele><time>2026-04-10T12:35:50.843Z</time></trkpt><trkpt lat="45.0023883" lon="9.61391"><ele>86.0</ele><time>2026-04-10T12:35:51.839Z</time></trkpt><trkpt lat="45.002505" lon="9.613955"><ele>86.0</ele><time>2026-04-10T12:35:52.84Z</time></trkpt><trkpt lat="45.0026183" lon="9.6139933"><ele>86.0</ele><time>2026-04-10T12:35:53.84Z</time></trkpt><trkpt lat="45.00273" lon="9.6140217"><ele>85.75</ele><time>2026-04-10T12:35:54.839Z</time></trkpt><trkpt lat="45.0028417" lon="9.61405"><ele>85.5</ele><time>2026-04-10T12:35:55.838Z</time></trkpt><trkpt lat="45.0029533" lon="9.6140767"><ele>85.25</ele><time>2026-04-10T12:35:56.843Z</time></trkpt><trkpt lat="45.003075" lon="9.6140983"><ele>85.0</ele><time>2026-04-10T12:35:57.84Z</time></trkpt><trkpt lat="45.0032033" lon="9.6141133"><ele>85.0</ele><time>2026-04-10T12:35:58.84Z</time></trkpt><trkpt lat="45.0033317" lon="9.614115"><ele>85.0</ele><time>2026-04-10T12:35:59.84Z</time></trkpt><trkpt lat="45.003465" lon="9.61411"><ele>85.0</ele><time>2026-04-10T12:36:00.839Z</time></trkpt><trkpt lat="45.003595" lon="9.6141067"><ele>85.0</ele><time>2026-04-10T12:36:01.848Z</time></trkpt><trkpt lat="45.003725" lon="9.6141083"><ele>85.0</ele><time>2026-04-10T12:36:02.842Z</time></trkpt><trkpt lat="45.0038533" lon="9.6141183"><ele>85.0</ele><time>2026-04-10T12:36:03.843Z</time></trkpt><trkpt lat="45.0039817" lon="9.6141367"><ele>85.0</ele><time>2026-04-10T12:36:04.843Z</time></trkpt><trkpt lat="45.0041017" lon="9.6141767"><ele>85.0</ele><time>2026-04-10T12:36:05.84Z</time></trkpt><trkpt lat="45.0042217" lon="9.6142283"><ele>85.25</ele><time>2026-04-10T12:36:06.841Z</time></trkpt><trkpt lat="45.0043467" lon="9.61428"><ele>85.5</ele><time>2026-04-10T12:36:07.84Z</time></trkpt><trkpt lat="45.00447" lon="9.6143317"><ele>85.75</ele><time>2026-04-10T12:36:08.84Z</time></trkpt><trkpt lat="45.0045917" lon="9.6143833"><ele>86.0</ele><time>2026-04-10T12:36:09.841Z</time></trkpt><trkpt lat="45.004715" lon="9.6144333"><ele>86.0</ele><time>2026-04-10T12:36:10.842Z</time></trkpt><trkpt lat="45.0048383" lon="9.61448"><ele>86.0</ele><time>2026-04-10T12:36:11.84Z</time></trkpt><trkpt lat="45.0049633" lon="9.614525"><ele>86.0</ele><time>2026-04-10T12:36:12.84Z</time></trkpt><trkpt lat="45.0050917" lon="9.6145767"><ele>86.0</ele><time>2026-04-10T12:36:13.839Z</time></trkpt><trkpt lat="45.005225" lon="9.6146333"><ele>85.5</ele><time>2026-04-10T12:36:14.84Z</time></trkpt><trkpt lat="45.005355" lon="9.6147"><ele>85.0</ele><time>2026-04-10T12:36:15.842Z</time></trkpt><trkpt lat="45.0054767" lon="9.61478"><ele>84.5</ele><time>2026-04-10T12:36:16.84Z</time></trkpt><trkpt lat="45.0055917" lon="9.61486"><ele>84.0</ele><time>2026-04-10T12:36:17.84Z</time></trkpt><trkpt lat="45.0057017" lon="9.6149117"><ele>84.0</ele><time>2026-04-10T12:36:18.84Z</time></trkpt><trkpt lat="45.0058133" lon="9.6149333"><ele>84.0</ele><time>2026-04-10T12:36:19.841Z</time></trkpt><trkpt lat="45.0059217" lon="9.6149317"><ele>84.0</ele><time>2026-04-10T12:36:20.841Z</time></trkpt><trkpt lat="45.0060383" lon="9.6149217"><ele>84.0</ele><time>2026-04-10T12:36:21.841Z</time></trkpt><trkpt lat="45.0061517" lon="9.6149033"><ele>83.80000000000001</ele><time>2026-04-10T12:36:22.84Z</time></trkpt><trkpt lat="45.0062617" lon="9.6148833"><ele>83.60000000000001</ele><time>2026-04-10T12:36:23.84Z</time></trkpt><trkpt lat="45.00636" lon="9.61489"><ele>83.4</ele><time>2026-04-10T12:36:24.839Z</time></trkpt><trkpt lat="45.0064467" lon="9.6149267"><ele>83.2</ele><time>2026-04-10T12:36:25.84Z</time></trkpt><trkpt lat="45.0065283" lon="9.614955"><ele>83.0</ele><time>2026-04-10T12:36:26.841Z</time></trkpt><trkpt lat="45.006615" lon="9.61494"><ele>82.0</ele><time>2026-04-10T12:36:27.84Z</time></trkpt><trkpt lat="45.00672" lon="9.61492"><ele>81.0</ele><time>2026-04-10T12:36:28.846Z</time></trkpt><trkpt lat="45.006845" lon="9.6149183"><ele>80.0</ele><time>2026-04-10T12:36:29.84Z</time></trkpt><trkpt lat="45.00698" lon="9.6149333"><ele>79.0</ele><time>2026-04-10T12:36:30.839Z</time></trkpt><trkpt lat="45.0071217" lon="9.6149517"><ele>79.0</ele><time>2026-04-10T12:36:31.838Z</time></trkpt><trkpt lat="45.007265" lon="9.614975"><ele>79.0</ele><time>2026-04-10T12:36:32.839Z</time></trkpt><trkpt lat="45.007405" lon="9.6150083"><ele>79.0</ele><time>2026-04-10T12:36:33.839Z</time></trkpt><trkpt lat="45.0075433" lon="9.61505"><ele>79.0</ele><time>2026-04-10T12:36:34.841Z</time></trkpt><trkpt lat="45.00768" lon="9.615095"><ele>80.0</ele><time>2026-04-10T12:36:35.84Z</time></trkpt><trkpt lat="45.0078083" lon="9.61514"><ele>81.0</ele><time>2026-04-10T12:36:36.838Z</time></trkpt><trkpt lat="45.007925" lon="9.6151883"><ele>82.0</ele><time>2026-04-10T12:36:37.843Z</time></trkpt><trkpt lat="45.0080283" lon="9.6152367"><ele>83.0</ele><time>2026-04-10T12:36:38.84Z</time></trkpt><trkpt lat="45.0081267" lon="9.6152867"><ele>82.80000000000001</ele><time>2026-04-10T12:36:39.839Z</time></trkpt><trkpt lat="45.0082117" lon="9.6153333"><ele>82.6</ele><time>2026-04-10T12:36:40.84Z</time></trkpt><trkpt lat="45.0082783" lon="9.615365"><ele>82.4</ele><time>2026-04-10T12:36:41.841Z</time></trkpt><trkpt lat="45.0083633" lon="9.6153533"><ele>82.19999999999999</ele><time>2026-04-10T12:36:43.839Z</time></trkpt><trkpt lat="45.008405" lon="9.615195"><ele>82.0</ele><time>2026-04-10T12:36:45.839Z</time></trkpt><trkpt lat="45.008415" lon="9.615055"><ele>82.0</ele><time>2026-04-10T12:36:46.84Z</time></trkpt><trkpt lat="45.0084217" lon="9.614885"><ele>82.0</ele><time>2026-04-10T12:36:47.841Z</time></trkpt><trkpt lat="45.008425" lon="9.6147"><ele>82.0</ele><time>2026-04-10T12:36:48.84Z</time></trkpt><trkpt lat="45.00843" lon="9.6145"><ele>82.0</ele><time>2026-04-10T12:36:49.842Z</time></trkpt><trkpt lat="45.008445" lon="9.614305"><ele>82.0</ele><time>2026-04-10T12:36:50.841Z</time></trkpt><trkpt lat="45.0084667" lon="9.61414"><ele>82.0</ele><time>2026-04-10T12:36:51.839Z</time></trkpt><trkpt lat="45.0085033" lon="9.6140183"><ele>82.0</ele><time>2026-04-10T12:36:52.84Z</time></trkpt><trkpt lat="45.0085567" lon="9.6139567"><ele>82.0</ele><time>2026-04-10T12:36:53.84Z</time></trkpt><trkpt lat="45.0086367" lon="9.6139583"><ele>82.0</ele><time>2026-04-10T12:36:54.84Z</time></trkpt><trkpt lat="45.008735" lon="9.6139983"><ele>82.0</ele><time>2026-04-10T12:36:55.838Z</time></trkpt><trkpt lat="45.0088667" lon="9.61406"><ele>82.0</ele><time>2026-04-10T12:36:56.841Z</time></trkpt><trkpt lat="45.009005" lon="9.61412"><ele>82.0</ele><time>2026-04-10T12:36:57.84Z</time></trkpt><trkpt lat="45.0091517" lon="9.6141833"><ele>82.0</ele><time>2026-04-10T12:36:58.839Z</time></trkpt><trkpt lat="45.0093083" lon="9.61425"><ele>81.66666666666666</ele><time>2026-04-10T12:36:59.844Z</time></trkpt><trkpt lat="45.0094733" lon="9.6143167"><ele>81.33333333333333</ele><time>2026-04-10T12:37:00.841Z</time></trkpt><trkpt lat="45.00964" lon="9.614385"><ele>81.0</ele><time>2026-04-10T12:37:01.839Z</time></trkpt><trkpt lat="45.0098067" lon="9.6144517"><ele>80.33333333333333</ele><time>2026-04-10T12:37:02.84Z</time></trkpt><trkpt lat="45.0099733" lon="9.6145167"><ele>79.66666666666666</ele><time>2026-04-10T12:37:03.84Z</time></trkpt><trkpt lat="45.01014" lon="9.614585"><ele>79.0</ele><time>2026-04-10T12:37:04.84Z</time></trkpt><trkpt lat="45.0103083" lon="9.614655"><ele>78.66666666666666</ele><time>2026-04-10T12:37:05.839Z</time></trkpt><trkpt lat="45.0104767" lon="9.6147267"><ele>78.33333333333333</ele><time>2026-04-10T12:37:06.84Z</time></trkpt><trkpt lat="45.010645" lon="9.6147967"><ele>78.0</ele><time>2026-04-10T12:37:07.841Z</time></trkpt><trkpt lat="45.0108133" lon="9.6148667"><ele>78.0</ele><time>2026-04-10T12:37:08.84Z</time></trkpt><trkpt lat="45.0109783" lon="9.614935"><ele>78.0</ele><time>2026-04-10T12:37:09.842Z</time></trkpt><trkpt lat="45.0111483" lon="9.6150017"><ele>78.0</ele><time>2026-04-10T12:37:10.84Z</time></trkpt><trkpt lat="45.0113167" lon="9.6150667"><ele>78.0</ele><time>2026-04-10T12:37:11.842Z</time></trkpt><trkpt lat="45.011485" lon="9.6151367"><ele>78.0</ele><time>2026-04-10T12:37:12.842Z</time></trkpt><trkpt lat="45.011655" lon="9.6152067"><ele>78.0</ele><time>2026-04-10T12:37:13.842Z</time></trkpt><trkpt lat="45.0118233" lon="9.615275"><ele>77.33333333333333</ele><time>2026-04-10T12:37:14.841Z</time></trkpt><trkpt lat="45.0119917" lon="9.6153433"><ele>76.66666666666666</ele><time>2026-04-10T12:37:15.84Z</time></trkpt><trkpt lat="45.01216" lon="9.6154117"><ele>76.0</ele><time>2026-04-10T12:37:16.84Z</time></trkpt><trkpt lat="45.012325" lon="9.6154783"><ele>75.66666666666666</ele><time>2026-04-10T12:37:17.84Z</time></trkpt><trkpt lat="45.0124933" lon="9.6155467"><ele>75.33333333333333</ele><time>2026-04-10T12:37:18.842Z</time></trkpt><trkpt lat="45.01266" lon="9.6156133"><ele>75.0</ele><time>2026-04-10T12:37:19.841Z</time></trkpt><trkpt lat="45.0128267" lon="9.6156833"><ele>75.0</ele><time>2026-04-10T12:37:20.84Z</time></trkpt><trkpt lat="45.0129933" lon="9.6157517"><ele>75.0</ele><time>2026-04-10T12:37:21.841Z</time></trkpt><trkpt lat="45.01316" lon="9.6158217"><ele>75.0</ele><time>2026-04-10T12:37:22.841Z</time></trkpt><trkpt lat="45.013325" lon="9.61589"><ele>75.0</ele><time>2026-04-10T12:37:23.841Z</time></trkpt><trkpt lat="45.01349" lon="9.6159583"><ele>75.0</ele><time>2026-04-10T12:37:24.85Z</time></trkpt><trkpt lat="45.01366" lon="9.616025"><ele>75.0</ele><time>2026-04-10T12:37:25.842Z</time></trkpt><trkpt lat="45.01383" lon="9.61609"><ele>75.33333333333333</ele><time>2026-04-10T12:37:26.841Z</time></trkpt><trkpt lat="45.0139983" lon="9.6161567"><ele>75.66666666666666</ele><time>2026-04-10T12:37:27.841Z</time></trkpt><trkpt lat="45.0141667" lon="9.6162233"><ele>76.0</ele><time>2026-04-10T12:37:28.841Z</time></trkpt><trkpt lat="45.014335" lon="9.61629"><ele>76.0</ele><time>2026-04-10T12:37:29.843Z</time></trkpt><trkpt lat="45.0145017" lon="9.6163583"><ele>76.0</ele><time>2026-04-10T12:37:30.84Z</time></trkpt><trkpt lat="45.0146683" lon="9.6164283"><ele>76.0</ele><time>2026-04-10T12:37:31.84Z</time></trkpt><trkpt lat="45.0148367" lon="9.6164983"><ele>75.66666666666666</ele><time>2026-04-10T12:37:32.841Z</time></trkpt><trkpt lat="45.015005" lon="9.61657"><ele>75.33333333333333</ele><time>2026-04-10T12:37:33.843Z</time></trkpt><trkpt lat="45.0151733" lon="9.61664"><ele>75.0</ele><time>2026-04-10T12:37:34.841Z</time></trkpt><trkpt lat="45.01534" lon="9.6167067"><ele>75.0</ele><time>2026-04-10T12:37:35.843Z</time></trkpt><trkpt lat="45.0155067" lon="9.6167717"><ele>75.0</ele><time>2026-04-10T12:37:36.839Z</time></trkpt><trkpt lat="45.0156683" lon="9.616835"><ele>75.0</ele><time>2026-04-10T12:37:37.84Z</time></trkpt><trkpt lat="45.0158283" lon="9.6169"><ele>74.66666666666667</ele><time>2026-04-10T12:37:38.841Z</time></trkpt><trkpt lat="45.0159867" lon="9.616965"><ele>74.33333333333334</ele><time>2026-04-10T12:37:39.839Z</time></trkpt><trkpt lat="45.0161433" lon="9.61703"><ele>74.0</ele><time>2026-04-10T12:37:40.841Z</time></trkpt><trkpt lat="45.0163" lon="9.6170983"><ele>74.33333333333334</ele><time>2026-04-10T12:37:41.84Z</time></trkpt><trkpt lat="45.0164567" lon="9.6171667"><ele>74.66666666666667</ele><time>2026-04-10T12:37:42.842Z</time></trkpt><trkpt lat="45.016615" lon="9.617235"><ele>75.0</ele><time>2026-04-10T12:37:43.842Z</time></trkpt><trkpt lat="45.0167783" lon="9.6172983"><ele>75.0</ele><time>2026-04-10T12:37:44.841Z</time></trkpt><trkpt lat="45.01694" lon="9.6173583"><ele>75.0</ele><time>2026-04-10T12:37:45.841Z</time></trkpt><trkpt lat="45.017105" lon="9.6174217"><ele>75.0</ele><time>2026-04-10T12:37:46.841Z</time></trkpt><trkpt lat="45.01727" lon="9.6174883"><ele>75.0</ele><time>2026-04-10T12:37:47.84Z</time></trkpt><trkpt lat="45.017435" lon="9.617555"><ele>75.0</ele><time>2026-04-10T12:37:48.841Z</time></trkpt><trkpt lat="45.0176" lon="9.6176217"><ele>75.0</ele><time>2026-04-10T12:37:49.84Z</time></trkpt><trkpt lat="45.0177617" lon="9.6176867"><ele>74.5</ele><time>2026-04-10T12:37:50.841Z</time></trkpt><trkpt lat="45.01791" lon="9.6177467"><ele>74.0</ele><time>2026-04-10T12:37:51.84Z</time></trkpt><trkpt lat="45.0180467" lon="9.6178"><ele>73.5</ele><time>2026-04-10T12:37:52.841Z</time></trkpt><trkpt lat="45.0181817" lon="9.6178483"><ele>73.0</ele><time>2026-04-10T12:37:53.841Z</time></trkpt><trkpt lat="45.01832" lon="9.6179"><ele>73.0</ele><time>2026-04-10T12:37:54.839Z</time></trkpt><trkpt lat="45.0184633" lon="9.6179567"><ele>73.0</ele><time>2026-04-10T12:37:55.842Z</time></trkpt><trkpt lat="45.0186067" lon="9.6180117"><ele>73.0</ele><time>2026-04-10T12:37:56.841Z</time></trkpt><trkpt lat="45.01875" lon="9.6180633"><ele>73.0</ele><time>2026-04-10T12:37:57.842Z</time></trkpt><trkpt lat="45.0188967" lon="9.6181133"><ele>73.0</ele><time>2026-04-10T12:37:58.841Z</time></trkpt><trkpt lat="45.0190433" lon="9.618165"><ele>73.0</ele><time>2026-04-10T12:37:59.84Z</time></trkpt><trkpt lat="45.0191917" lon="9.6182217"><ele>73.0</ele><time>2026-04-10T12:38:00.841Z</time></trkpt><trkpt lat="45.0193417" lon="9.6182783"><ele>73.33333333333333</ele><time>2026-04-10T12:38:01.839Z</time></trkpt><trkpt lat="45.019495" lon="9.6183333"><ele>73.66666666666667</ele><time>2026-04-10T12:38:02.846Z</time></trkpt><trkpt lat="45.0196483" lon="9.6183917"><ele>74.0</ele><time>2026-04-10T12:38:03.841Z</time></trkpt><trkpt lat="45.0198017" lon="9.618435"><ele>74.0</ele><time>2026-04-10T12:38:04.841Z</time></trkpt><trkpt lat="45.0199517" lon="9.618445"><ele>74.0</ele><time>2026-04-10T12:38:05.84Z</time></trkpt><trkpt lat="45.0200933" lon="9.6184167"><ele>74.0</ele><time>2026-04-10T12:38:06.84Z</time></trkpt><trkpt lat="45.0202533" lon="9.6183883"><ele>74.66666666666667</ele><time>2026-04-10T12:38:07.841Z</time></trkpt><trkpt lat="45.0204217" lon="9.6183767"><ele>75.33333333333333</ele><time>2026-04-10T12:38:08.84Z</time></trkpt><trkpt lat="45.0205917" lon="9.61837"><ele>76.0</ele><time>2026-04-10T12:38:09.845Z</time></trkpt><trkpt lat="45.0207633" lon="9.618375"><ele>74.66666666666666</ele><time>2026-04-10T12:38:10.839Z</time></trkpt><trkpt lat="45.020935" lon="9.618385"><ele>73.33333333333333</ele><time>2026-04-10T12:38:11.84Z</time></trkpt><trkpt lat="45.0211067" lon="9.6183983"><ele>72.0</ele><time>2026-04-10T12:38:12.838Z</time></trkpt><trkpt lat="45.0212767" lon="9.61841"><ele>72.0</ele><time>2026-04-10T12:38:13.839Z</time></trkpt><trkpt lat="45.02145" lon="9.61842"><ele>72.0</ele><time>2026-04-10T12:38:14.841Z</time></trkpt><trkpt lat="45.021625" lon="9.6184267"><ele>72.0</ele><time>2026-04-10T12:38:15.84Z</time></trkpt><trkpt lat="45.0218" lon="9.6184333"><ele>72.66666666666667</ele><time>2026-04-10T12:38:16.84Z</time></trkpt><trkpt lat="45.0219717" lon="9.6184417"><ele>73.33333333333334</ele><time>2026-04-10T12:38:17.84Z</time></trkpt><trkpt lat="45.0221433" lon="9.6184517"><ele>74.0</ele><time>2026-04-10T12:38:18.841Z</time></trkpt><trkpt lat="45.0223167" lon="9.6184617"><ele>74.0</ele><time>2026-04-10T12:38:19.84Z</time></trkpt><trkpt lat="45.0224867" lon="9.6184717"><ele>74.0</ele><time>2026-04-10T12:38:20.846Z</time></trkpt><trkpt lat="45.022655" lon="9.6184967"><ele>74.0</ele><time>2026-04-10T12:38:21.84Z</time></trkpt><trkpt lat="45.0228133" lon="9.61856"><ele>74.0</ele><time>2026-04-10T12:38:22.839Z</time></trkpt><trkpt lat="45.02297" lon="9.618655"><ele>74.0</ele><time>2026-04-10T12:38:23.841Z</time></trkpt><trkpt lat="45.0231233" lon="9.6187533"><ele>74.0</ele><time>2026-04-10T12:38:24.841Z</time></trkpt><trkpt lat="45.0232767" lon="9.618855"><ele>73.0</ele><time>2026-04-10T12:38:25.841Z</time></trkpt><trkpt lat="45.0234333" lon="9.6189517"><ele>72.0</ele><time>2026-04-10T12:38:26.841Z</time></trkpt><trkpt lat="45.0235883" lon="9.619045"><ele>71.0</ele><time>2026-04-10T12:38:27.84Z</time></trkpt><trkpt lat="45.02374" lon="9.61914"><ele>71.0</ele><time>2026-04-10T12:38:28.84Z</time></trkpt><trkpt lat="45.0238917" lon="9.619235"><ele>71.0</ele><time>2026-04-10T12:38:29.84Z</time></trkpt><trkpt lat="45.0240433" lon="9.6193333"><ele>71.0</ele><time>2026-04-10T12:38:30.842Z</time></trkpt><trkpt lat="45.0241933" lon="9.6194283"><ele>71.66666666666667</ele><time>2026-04-10T12:38:31.841Z</time></trkpt><trkpt lat="45.0243467" lon="9.61953"><ele>72.33333333333333</ele><time>2026-04-10T12:38:32.842Z</time></trkpt><trkpt lat="45.0245017" lon="9.61963"><ele>73.0</ele><time>2026-04-10T12:38:33.842Z</time></trkpt><trkpt lat="45.0246583" lon="9.61973"><ele>73.0</ele><time>2026-04-10T12:38:34.839Z</time></trkpt><trkpt lat="45.0248167" lon="9.6198267"><ele>73.0</ele><time>2026-04-10T12:38:35.84Z</time></trkpt><trkpt lat="45.0249733" lon="9.61992"><ele>73.0</ele><time>2026-04-10T12:38:36.841Z</time></trkpt><trkpt lat="45.0251233" lon="9.620015"><ele>72.5</ele><time>2026-04-10T12:38:37.839Z</time></trkpt><trkpt lat="45.0252633" lon="9.6201083"><ele>72.0</ele><time>2026-04-10T12:38:38.842Z</time></trkpt><trkpt lat="45.0253883" lon="9.6201983"><ele>71.5</ele><time>2026-04-10T12:38:39.843Z</time></trkpt><trkpt lat="45.025505" lon="9.6202867"><ele>71.0</ele><time>2026-04-10T12:38:40.841Z</time></trkpt><trkpt lat="45.02562" lon="9.620355"><ele>71.0</ele><time>2026-04-10T12:38:41.841Z</time></trkpt><trkpt lat="45.02574" lon="9.6203783"><ele>71.0</ele><time>2026-04-10T12:38:42.841Z</time></trkpt><trkpt lat="45.02587" lon="9.6203667"><ele>71.0</ele><time>2026-04-10T12:38:43.843Z</time></trkpt><trkpt lat="45.0260117" lon="9.620355"><ele>71.0</ele><time>2026-04-10T12:38:44.841Z</time></trkpt><trkpt lat="45.02616" lon="9.6203483"><ele>70.66666666666667</ele><time>2026-04-10T12:38:45.846Z</time></trkpt><trkpt lat="45.0263117" lon="9.6203417"><ele>70.33333333333333</ele><time>2026-04-10T12:38:46.841Z</time></trkpt><trkpt lat="45.0264683" lon="9.6203367"><ele>70.0</ele><time>2026-04-10T12:38:47.841Z</time></trkpt><trkpt lat="45.02663" lon="9.62033"><ele>70.0</ele><time>2026-04-10T12:38:48.843Z</time></trkpt><trkpt lat="45.0267917" lon="9.6203283"><ele>70.0</ele><time>2026-04-10T12:38:49.842Z</time></trkpt><trkpt lat="45.0269533" lon="9.6203283"><ele>70.0</ele><time>2026-04-10T12:38:50.843Z</time></trkpt><trkpt lat="45.0271167" lon="9.620335"><ele>70.0</ele><time>2026-04-10T12:38:51.844Z</time></trkpt><trkpt lat="45.0272867" lon="9.6203483"><ele>70.0</ele><time>2026-04-10T12:38:52.84Z</time></trkpt><trkpt lat="45.02746" lon="9.62038"><ele>70.0</ele><time>2026-04-10T12:38:53.842Z</time></trkpt><trkpt lat="45.02763" lon="9.62042"><ele>71.0</ele><time>2026-04-10T12:38:54.84Z</time></trkpt><trkpt lat="45.027795" lon="9.6204567"><ele>72.0</ele><time>2026-04-10T12:38:55.84Z</time></trkpt><trkpt lat="45.02796" lon="9.6204883"><ele>73.0</ele><time>2026-04-10T12:38:56.842Z</time></trkpt><trkpt lat="45.0281217" lon="9.6205183"><ele>73.0</ele><time>2026-04-10T12:38:57.84Z</time></trkpt><trkpt lat="45.0282833" lon="9.62055"><ele>73.0</ele><time>2026-04-10T12:38:58.84Z</time></trkpt><trkpt lat="45.028445" lon="9.620585"><ele>73.0</ele><time>2026-04-10T12:38:59.842Z</time></trkpt><trkpt lat="45.0286033" lon="9.6206283"><ele>72.0</ele><time>2026-04-10T12:39:00.842Z</time></trkpt><trkpt lat="45.02876" lon="9.6206817"><ele>71.0</ele><time>2026-04-10T12:39:01.841Z</time></trkpt><trkpt lat="45.0289133" lon="9.6207417"><ele>70.0</ele><time>2026-04-10T12:39:02.842Z</time></trkpt><trkpt lat="45.029065" lon="9.6208117"><ele>70.0</ele><time>2026-04-10T12:39:03.842Z</time></trkpt><trkpt lat="45.0292083" lon="9.62089"><ele>70.0</ele><time>2026-04-10T12:39:04.844Z</time></trkpt><trkpt lat="45.0293483" lon="9.6209733"><ele>70.0</ele><time>2026-04-10T12:39:05.84Z</time></trkpt><trkpt lat="45.029475" lon="9.6210633"><ele>70.0</ele><time>2026-04-10T12:39:06.841Z</time></trkpt><trkpt lat="45.029585" lon="9.62115"><ele>70.0</ele><time>2026-04-10T12:39:07.84Z</time></trkpt><trkpt lat="45.0296733" lon="9.6212383"><ele>70.0</ele><time>2026-04-10T12:39:08.84Z</time></trkpt><trkpt lat="45.02974" lon="9.6213467"><ele>70.0</ele><time>2026-04-10T12:39:09.841Z</time></trkpt><trkpt lat="45.0297967" lon="9.621485"><ele>70.0</ele><time>2026-04-10T12:39:10.84Z</time></trkpt><trkpt lat="45.0298517" lon="9.621645"><ele>70.0</ele><time>2026-04-10T12:39:11.841Z</time></trkpt><trkpt lat="45.02991" lon="9.6218217"><ele>70.0</ele><time>2026-04-10T12:39:12.841Z</time></trkpt><trkpt lat="45.0299567" lon="9.6220167"><ele>70.0</ele><time>2026-04-10T12:39:13.842Z</time></trkpt><trkpt lat="45.03" lon="9.62222"><ele>70.0</ele><time>2026-04-10T12:39:14.841Z</time></trkpt><trkpt lat="45.0300533" lon="9.6224233"><ele>70.0</ele><time>2026-04-10T12:39:15.84Z</time></trkpt><trkpt lat="45.0301167" lon="9.6226117"><ele>70.0</ele><time>2026-04-10T12:39:16.84Z</time></trkpt><trkpt lat="45.0301817" lon="9.6227933"><ele>70.0</ele><time>2026-04-10T12:39:17.84Z</time></trkpt><trkpt lat="45.0302467" lon="9.622965"><ele>70.0</ele><time>2026-04-10T12:39:18.84Z</time></trkpt><trkpt lat="45.0303133" lon="9.6231167"><ele>70.0</ele><time>2026-04-10T12:39:19.84Z</time></trkpt><trkpt lat="45.0303917" lon="9.6232433"><ele>69.5</ele><time>2026-04-10T12:39:20.841Z</time></trkpt><trkpt lat="45.0304833" lon="9.6233583"><ele>69.0</ele><time>2026-04-10T12:39:21.84Z</time></trkpt><trkpt lat="45.030565" lon="9.6235"><ele>68.5</ele><time>2026-04-10T12:39:22.841Z</time></trkpt><trkpt lat="45.0306317" lon="9.6236767"><ele>68.0</ele><time>2026-04-10T12:39:23.842Z</time></trkpt><trkpt lat="45.0306983" lon="9.6238683"><ele>68.0</ele><time>2026-04-10T12:39:24.843Z</time></trkpt><trkpt lat="45.03077" lon="9.624065"><ele>68.0</ele><time>2026-04-10T12:39:25.841Z</time></trkpt><trkpt lat="45.030845" lon="9.6242633"><ele>68.0</ele><time>2026-04-10T12:39:26.842Z</time></trkpt><trkpt lat="45.0309167" lon="9.6244683"><ele>68.0</ele><time>2026-04-10T12:39:27.842Z</time></trkpt><trkpt lat="45.030985" lon="9.624675"><ele>68.0</ele><time>2026-04-10T12:39:28.841Z</time></trkpt><trkpt lat="45.031055" lon="9.6248833"><ele>68.0</ele><time>2026-04-10T12:39:29.84Z</time></trkpt><trkpt lat="45.0311267" lon="9.6250917"><ele>68.0</ele><time>2026-04-10T12:39:30.843Z</time></trkpt><trkpt lat="45.031195" lon="9.6252883"><ele>68.0</ele><time>2026-04-10T12:39:31.841Z</time></trkpt><trkpt lat="45.0312567" lon="9.6254667"><ele>68.0</ele><time>2026-04-10T12:39:32.843Z</time></trkpt><trkpt lat="45.031315" lon="9.6256267"><ele>68.0</ele><time>2026-04-10T12:39:33.839Z</time></trkpt><trkpt lat="45.0313817" lon="9.6257617"><ele>68.0</ele><time>2026-04-10T12:39:34.842Z</time></trkpt><trkpt lat="45.0314633" lon="9.6258667"><ele>68.0</ele><time>2026-04-10T12:39:35.84Z</time></trkpt><trkpt lat="45.0315667" lon="9.6259633"><ele>68.0</ele><time>2026-04-10T12:39:36.84Z</time></trkpt><trkpt lat="45.03167" lon="9.6260633"><ele>68.0</ele><time>2026-04-10T12:39:37.842Z</time></trkpt><trkpt lat="45.0317667" lon="9.6261633"><ele>67.5</ele><time>2026-04-10T12:39:38.842Z</time></trkpt><trkpt lat="45.03185" lon="9.6262733"><ele>67.0</ele><time>2026-04-10T12:39:39.845Z</time></trkpt><trkpt lat="45.0318983" lon="9.62642"><ele>66.5</ele><time>2026-04-10T12:39:40.839Z</time></trkpt><trkpt lat="45.03192" lon="9.6266"><ele>66.0</ele><time>2026-04-10T12:39:41.841Z</time></trkpt><trkpt lat="45.0319317" lon="9.6268067"><ele>66.25</ele><time>2026-04-10T12:39:42.84Z</time></trkpt><trkpt lat="45.0319467" lon="9.6270183"><ele>66.5</ele><time>2026-04-10T12:39:43.841Z</time></trkpt><trkpt lat="45.0319683" lon="9.62722"><ele>66.75</ele><time>2026-04-10T12:39:44.839Z</time></trkpt><trkpt lat="45.0319983" lon="9.6274167"><ele>67.0</ele><time>2026-04-10T12:39:45.843Z</time></trkpt><trkpt lat="45.0320417" lon="9.6276217"><ele>67.0</ele><time>2026-04-10T12:39:46.841Z</time></trkpt><trkpt lat="45.0321017" lon="9.62783"><ele>67.0</ele><time>2026-04-10T12:39:47.842Z</time></trkpt><trkpt lat="45.0321683" lon="9.6280417"><ele>67.0</ele><time>2026-04-10T12:39:48.84Z</time></trkpt><trkpt lat="45.03224" lon="9.6282533"><ele>67.0</ele><time>2026-04-10T12:39:49.842Z</time></trkpt><trkpt lat="45.0323167" lon="9.6284667"><ele>67.0</ele><time>2026-04-10T12:39:50.842Z</time></trkpt><trkpt lat="45.0323917" lon="9.6286817"><ele>67.0</ele><time>2026-04-10T12:39:51.842Z</time></trkpt><trkpt lat="45.0324683" lon="9.6289017"><ele>67.0</ele><time>2026-04-10T12:39:52.842Z</time></trkpt><trkpt lat="45.032545" lon="9.6291217"><ele>67.0</ele><time>2026-04-10T12:39:53.843Z</time></trkpt><trkpt lat="45.0326233" lon="9.6293467"><ele>67.0</ele><time>2026-04-10T12:39:54.842Z</time></trkpt><trkpt lat="45.0327017" lon="9.62957"><ele>67.0</ele><time>2026-04-10T12:39:55.842Z</time></trkpt><trkpt lat="45.03278" lon="9.629795"><ele>67.0</ele><time>2026-04-10T12:39:56.849Z</time></trkpt><trkpt lat="45.032855" lon="9.6300167"><ele>67.0</ele><time>2026-04-10T12:39:57.842Z</time></trkpt><trkpt lat="45.0329333" lon="9.63024"><ele>66.66666666666666</ele><time>2026-04-10T12:39:58.842Z</time></trkpt><trkpt lat="45.03301" lon="9.6304583"><ele>66.33333333333333</ele><time>2026-04-10T12:39:59.842Z</time></trkpt><trkpt lat="45.0330833" lon="9.6306717"><ele>66.0</ele><time>2026-04-10T12:40:00.839Z</time></trkpt><trkpt lat="45.0331567" lon="9.630885"><ele>66.0</ele><time>2026-04-10T12:40:01.84Z</time></trkpt><trkpt lat="45.0332283" lon="9.6310983"><ele>66.0</ele><time>2026-04-10T12:40:02.845Z</time></trkpt><trkpt lat="45.0333017" lon="9.6313133"><ele>66.0</ele><time>2026-04-10T12:40:03.84Z</time></trkpt><trkpt lat="45.033375" lon="9.6315283"><ele>66.0</ele><time>2026-04-10T12:40:04.839Z</time></trkpt><trkpt lat="45.03345" lon="9.631745"><ele>66.0</ele><time>2026-04-10T12:40:05.84Z</time></trkpt><trkpt lat="45.0335267" lon="9.6319583"><ele>66.0</ele><time>2026-04-10T12:40:06.839Z</time></trkpt><trkpt lat="45.033605" lon="9.6321733"><ele>66.0</ele><time>2026-04-10T12:40:07.843Z</time></trkpt><trkpt lat="45.03368" lon="9.6323833"><ele>66.0</ele><time>2026-04-10T12:40:08.842Z</time></trkpt><trkpt lat="45.033755" lon="9.6325933"><ele>66.0</ele><time>2026-04-10T12:40:09.841Z</time></trkpt><trkpt lat="45.033825" lon="9.6327967"><ele>65.66666666666667</ele><time>2026-04-10T12:40:10.839Z</time></trkpt><trkpt lat="45.0338917" lon="9.6329883"><ele>65.33333333333334</ele><time>2026-04-10T12:40:11.841Z</time></trkpt><trkpt lat="45.0339583" lon="9.6331783"><ele>65.0</ele><time>2026-04-10T12:40:12.841Z</time></trkpt><trkpt lat="45.0340267" lon="9.63337"><ele>65.0</ele><time>2026-04-10T12:40:13.839Z</time></trkpt><trkpt lat="45.0340933" lon="9.6335567"><ele>65.0</ele><time>2026-04-10T12:40:14.84Z</time></trkpt><trkpt lat="45.0341567" lon="9.633735"><ele>65.0</ele><time>2026-04-10T12:40:15.839Z</time></trkpt><trkpt lat="45.0342167" lon="9.6338967"><ele>65.0</ele><time>2026-04-10T12:40:16.841Z</time></trkpt><trkpt lat="45.0342717" lon="9.6340517"><ele>65.2</ele><time>2026-04-10T12:40:17.842Z</time></trkpt><trkpt lat="45.0343233" lon="9.6341967"><ele>65.4</ele><time>2026-04-10T12:40:18.841Z</time></trkpt><trkpt lat="45.0343733" lon="9.6343333"><ele>65.6</ele><time>2026-04-10T12:40:19.841Z</time></trkpt><trkpt lat="45.0344167" lon="9.6344583"><ele>65.8</ele><time>2026-04-10T12:40:20.842Z</time></trkpt><trkpt lat="45.0344567" lon="9.63457"><ele>66.0</ele><time>2026-04-10T12:40:21.842Z</time></trkpt><trkpt lat="45.0345" lon="9.634665"><ele>66.2</ele><time>2026-04-10T12:40:22.842Z</time></trkpt><trkpt lat="45.0345517" lon="9.6347317"><ele>66.39999999999999</ele><time>2026-04-10T12:40:23.841Z</time></trkpt><trkpt lat="45.0346167" lon="9.6347533"><ele>66.6</ele><time>2026-04-10T12:40:24.842Z</time></trkpt><trkpt lat="45.0347233" lon="9.6347283"><ele>66.8</ele><time>2026-04-10T12:40:25.841Z</time></trkpt><trkpt lat="45.03486" lon="9.6347"><ele>67.0</ele><time>2026-04-10T12:40:26.842Z</time></trkpt><trkpt lat="45.03501" lon="9.6346817"><ele>66.0</ele><time>2026-04-10T12:40:27.842Z</time></trkpt><trkpt lat="45.0351717" lon="9.6346667"><ele>65.0</ele><time>2026-04-10T12:40:28.841Z</time></trkpt><trkpt lat="45.0353417" lon="9.6346483"><ele>64.0</ele><time>2026-04-10T12:40:29.842Z</time></trkpt><trkpt lat="45.0355117" lon="9.6346233"><ele>64.0</ele><time>2026-04-10T12:40:30.841Z</time></trkpt><trkpt lat="45.03569" lon="9.6346017"><ele>64.0</ele><time>2026-04-10T12:40:31.842Z</time></trkpt><trkpt lat="45.0358683" lon="9.6345783"><ele>64.0</ele><time>2026-04-10T12:40:32.842Z</time></trkpt><trkpt lat="45.036045" lon="9.634555"><ele>64.66666666666666</ele><time>2026-04-10T12:40:33.841Z</time></trkpt><trkpt lat="45.03622" lon="9.6345333"><ele>65.33333333333333</ele><time>2026-04-10T12:40:34.842Z</time></trkpt><trkpt lat="45.0363917" lon="9.6345117"><ele>66.0</ele><time>2026-04-10T12:40:35.842Z</time></trkpt><trkpt lat="45.0365617" lon="9.63449"><ele>65.0</ele><time>2026-04-10T12:40:36.845Z</time></trkpt><trkpt lat="45.0367267" lon="9.6344667"><ele>64.0</ele><time>2026-04-10T12:40:37.842Z</time></trkpt><trkpt lat="45.03689" lon="9.634445"><ele>63.0</ele><time>2026-04-10T12:40:38.84Z</time></trkpt><trkpt lat="45.0370533" lon="9.6344217"><ele>63.0</ele><time>2026-04-10T12:40:39.841Z</time></trkpt><trkpt lat="45.03721" lon="9.6343967"><ele>63.0</ele><time>2026-04-10T12:40:40.84Z</time></trkpt><trkpt lat="45.037355" lon="9.63437"><ele>63.0</ele><time>2026-04-10T12:40:41.839Z</time></trkpt><trkpt lat="45.0374867" lon="9.6343533"><ele>63.0</ele><time>2026-04-10T12:40:42.841Z</time></trkpt><trkpt lat="45.0375967" lon="9.6343567"><ele>62.833333333333336</ele><time>2026-04-10T12:40:43.844Z</time></trkpt><trkpt lat="45.03768" lon="9.634405"><ele>62.66666666666667</ele><time>2026-04-10T12:40:44.841Z</time></trkpt><trkpt lat="45.0377417" lon="9.634485"><ele>62.5</ele><time>2026-04-10T12:40:45.841Z</time></trkpt><trkpt lat="45.0377783" lon="9.6345933"><ele>62.333333333333336</ele><time>2026-04-10T12:40:46.84Z</time></trkpt><trkpt lat="45.0378017" lon="9.6347083"><ele>62.16666666666667</ele><time>2026-04-10T12:40:47.841Z</time></trkpt><trkpt lat="45.0378233" lon="9.63485"><ele>62.0</ele><time>2026-04-10T12:40:48.843Z</time></trkpt><trkpt lat="45.03788" lon="9.6349967"><ele>62.0</ele><time>2026-04-10T12:40:49.842Z</time></trkpt><trkpt lat="45.0379883" lon="9.6351067"><ele>62.0</ele><time>2026-04-10T12:40:50.846Z</time></trkpt><trkpt lat="45.0381333" lon="9.6351867"><ele>62.0</ele><time>2026-04-10T12:40:51.842Z</time></trkpt><trkpt lat="45.0382933" lon="9.635265"><ele>62.66666666666667</ele><time>2026-04-10T12:40:52.841Z</time></trkpt><trkpt lat="45.0384617" lon="9.6353483"><ele>63.33333333333333</ele><time>2026-04-10T12:40:53.842Z</time></trkpt><trkpt lat="45.0386333" lon="9.6354317"><ele>64.0</ele><time>2026-04-10T12:40:54.841Z</time></trkpt><trkpt lat="45.0388033" lon="9.63551"><ele>64.0</ele><time>2026-04-10T12:40:55.841Z</time></trkpt><trkpt lat="45.0389733" lon="9.6355867"><ele>64.0</ele><time>2026-04-10T12:40:56.843Z</time></trkpt><trkpt lat="45.0391417" lon="9.6356633"><ele>64.0</ele><time>2026-04-10T12:40:57.842Z</time></trkpt><trkpt lat="45.0393083" lon="9.63574"><ele>63.33333333333333</ele><time>2026-04-10T12:40:58.841Z</time></trkpt><trkpt lat="45.0394767" lon="9.6358167"><ele>62.66666666666667</ele><time>2026-04-10T12:40:59.842Z</time></trkpt><trkpt lat="45.0396417" lon="9.6358917"><ele>62.0</ele><time>2026-04-10T12:41:00.841Z</time></trkpt><trkpt lat="45.0398067" lon="9.6359633"><ele>62.0</ele><time>2026-04-10T12:41:01.842Z</time></trkpt><trkpt lat="45.0399717" lon="9.6360383"><ele>62.0</ele><time>2026-04-10T12:41:02.842Z</time></trkpt><trkpt lat="45.0401383" lon="9.636115"><ele>62.0</ele><time>2026-04-10T12:41:03.841Z</time></trkpt><trkpt lat="45.0403017" lon="9.6361917"><ele>62.0</ele><time>2026-04-10T12:41:04.84Z</time></trkpt><trkpt lat="45.040465" lon="9.6362667"><ele>62.0</ele><time>2026-04-10T12:41:05.841Z</time></trkpt><trkpt lat="45.04063" lon="9.6363367"><ele>62.0</ele><time>2026-04-10T12:41:06.842Z</time></trkpt><trkpt lat="45.0407917" lon="9.6364033"><ele>62.0</ele><time>2026-04-10T12:41:07.843Z</time></trkpt><trkpt lat="45.040955" lon="9.6364733"><ele>62.0</ele><time>2026-04-10T12:41:08.841Z</time></trkpt><trkpt lat="45.0411167" lon="9.6365483"><ele>62.0</ele><time>2026-04-10T12:41:09.847Z</time></trkpt><trkpt lat="45.04128" lon="9.6366233"><ele>62.0</ele><time>2026-04-10T12:41:10.842Z</time></trkpt><trkpt lat="45.0414367" lon="9.6366983"><ele>62.0</ele><time>2026-04-10T12:41:11.841Z</time></trkpt><trkpt lat="45.041595" lon="9.63677"><ele>62.0</ele><time>2026-04-10T12:41:12.841Z</time></trkpt><trkpt lat="45.0417567" lon="9.6368467"><ele>61.66666666666667</ele><time>2026-04-10T12:41:13.84Z</time></trkpt><trkpt lat="45.0419233" lon="9.6369267"><ele>61.33333333333333</ele><time>2026-04-10T12:41:14.847Z</time></trkpt><trkpt lat="45.0420883" lon="9.6370033"><ele>61.0</ele><time>2026-04-10T12:41:15.843Z</time></trkpt><trkpt lat="45.04225" lon="9.63708"><ele>61.0</ele><time>2026-04-10T12:41:16.841Z</time></trkpt><trkpt lat="45.0424133" lon="9.6371683"><ele>61.0</ele><time>2026-04-10T12:41:17.843Z</time></trkpt><trkpt lat="45.04257" lon="9.63727"><ele>61.0</ele><time>2026-04-10T12:41:18.842Z</time></trkpt><trkpt lat="45.042725" lon="9.6373783"><ele>61.0</ele><time>2026-04-10T12:41:19.842Z</time></trkpt><trkpt lat="45.0428833" lon="9.6374883"><ele>61.0</ele><time>2026-04-10T12:41:20.842Z</time></trkpt><trkpt lat="45.0430433" lon="9.6375917"><ele>61.0</ele><time>2026-04-10T12:41:21.842Z</time></trkpt><trkpt lat="45.043205" lon="9.6376767"><ele>61.0</ele><time>2026-04-10T12:41:22.842Z</time></trkpt><trkpt lat="45.0433683" lon="9.6377483"><ele>61.0</ele><time>2026-04-10T12:41:23.842Z</time></trkpt><trkpt lat="45.0435383" lon="9.637815"><ele>61.0</ele><time>2026-04-10T12:41:24.841Z</time></trkpt><trkpt lat="45.0437133" lon="9.6378717"><ele>61.0</ele><time>2026-04-10T12:41:25.842Z</time></trkpt><trkpt lat="45.0438933" lon="9.6379133"><ele>61.0</ele><time>2026-04-10T12:41:26.842Z</time></trkpt><trkpt lat="45.0440733" lon="9.637945"><ele>61.0</ele><time>2026-04-10T12:41:27.841Z</time></trkpt><trkpt lat="45.0442517" lon="9.6379733"><ele>60.33333333333333</ele><time>2026-04-10T12:41:28.845Z</time></trkpt><trkpt lat="45.04443" lon="9.6380067"><ele>59.66666666666667</ele><time>2026-04-10T12:41:29.84Z</time></trkpt><trkpt lat="45.04461" lon="9.6380417"><ele>59.0</ele><time>2026-04-10T12:41:30.84Z</time></trkpt><trkpt lat="45.0447867" lon="9.6380817"><ele>59.66666666666667</ele><time>2026-04-10T12:41:31.84Z</time></trkpt><trkpt lat="45.0449633" lon="9.6381217"><ele>60.33333333333333</ele><time>2026-04-10T12:41:32.841Z</time></trkpt><trkpt lat="45.0451367" lon="9.6381617"><ele>61.0</ele><time>2026-04-10T12:41:33.841Z</time></trkpt><trkpt lat="45.0453083" lon="9.6382017"><ele>61.0</ele><time>2026-04-10T12:41:34.841Z</time></trkpt><trkpt lat="45.045485" lon="9.6382383"><ele>61.0</ele><time>2026-04-10T12:41:35.842Z</time></trkpt><trkpt lat="45.0456583" lon="9.6382717"><ele>61.0</ele><time>2026-04-10T12:41:36.839Z</time></trkpt><trkpt lat="45.0458317" lon="9.6382983"><ele>60.666666666666664</ele><time>2026-04-10T12:41:37.841Z</time></trkpt><trkpt lat="45.046005" lon="9.6383183"><ele>60.33333333333333</ele><time>2026-04-10T12:41:38.841Z</time></trkpt><trkpt lat="45.0461767" lon="9.63834"><ele>60.0</ele><time>2026-04-10T12:41:39.845Z</time></trkpt><trkpt lat="45.04635" lon="9.6383717"><ele>60.0</ele><time>2026-04-10T12:41:40.839Z</time></trkpt><trkpt lat="45.0465233" lon="9.6384117"><ele>60.0</ele><time>2026-04-10T12:41:41.841Z</time></trkpt><trkpt lat="45.0466983" lon="9.6384483"><ele>60.0</ele><time>2026-04-10T12:41:42.84Z</time></trkpt><trkpt lat="45.046875" lon="9.6384833"><ele>59.66666666666667</ele><time>2026-04-10T12:41:43.84Z</time></trkpt><trkpt lat="45.0470483" lon="9.63852"><ele>59.333333333333336</ele><time>2026-04-10T12:41:44.841Z</time></trkpt><trkpt lat="45.04722" lon="9.638565"><ele>59.0</ele><time>2026-04-10T12:41:45.84Z</time></trkpt><trkpt lat="45.0473933" lon="9.6386217"><ele>59.0</ele><time>2026-04-10T12:41:46.84Z</time></trkpt><trkpt lat="45.047565" lon="9.6386833"><ele>59.0</ele><time>2026-04-10T12:41:47.841Z</time></trkpt><trkpt lat="45.0477383" lon="9.6387433"><ele>59.0</ele><time>2026-04-10T12:41:48.841Z</time></trkpt><trkpt lat="45.0479117" lon="9.6388017"><ele>59.0</ele><time>2026-04-10T12:41:49.841Z</time></trkpt><trkpt lat="45.048085" lon="9.6388533"><ele>59.0</ele><time>2026-04-10T12:41:50.84Z</time></trkpt><trkpt lat="45.0482617" lon="9.6388917"><ele>59.0</ele><time>2026-04-10T12:41:51.84Z</time></trkpt><trkpt lat="45.04844" lon="9.6389083"><ele>58.0</ele><time>2026-04-10T12:41:52.841Z</time></trkpt><trkpt lat="45.048615" lon="9.6388933"><ele>57.0</ele><time>2026-04-10T12:41:53.841Z</time></trkpt><trkpt lat="45.0487917" lon="9.6388567"><ele>56.0</ele><time>2026-04-10T12:41:54.842Z</time></trkpt><trkpt lat="45.0489617" lon="9.6387967"><ele>56.0</ele><time>2026-04-10T12:41:55.84Z</time></trkpt><trkpt lat="45.0491283" lon="9.6387217"><ele>56.0</ele><time>2026-04-10T12:41:56.841Z</time></trkpt><trkpt lat="45.0492933" lon="9.63865"><ele>56.0</ele><time>2026-04-10T12:41:57.841Z</time></trkpt><trkpt lat="45.0494617" lon="9.638595"><ele>56.0</ele><time>2026-04-10T12:41:58.841Z</time></trkpt><trkpt lat="45.049635" lon="9.638565"><ele>56.0</ele><time>2026-04-10T12:41:59.846Z</time></trkpt><trkpt lat="45.0498083" lon="9.6385583"><ele>56.0</ele><time>2026-04-10T12:42:00.842Z</time></trkpt><trkpt lat="45.0499817" lon="9.6385617"><ele>56.0</ele><time>2026-04-10T12:42:01.841Z</time></trkpt><trkpt lat="45.0501567" lon="9.638575"><ele>56.0</ele><time>2026-04-10T12:42:02.842Z</time></trkpt><trkpt lat="45.050325" lon="9.6386117"><ele>56.0</ele><time>2026-04-10T12:42:03.842Z</time></trkpt><trkpt lat="45.050485" lon="9.6386833"><ele>56.66666666666667</ele><time>2026-04-10T12:42:04.84Z</time></trkpt><trkpt lat="45.050635" lon="9.6387833"><ele>57.33333333333333</ele><time>2026-04-10T12:42:05.841Z</time></trkpt><trkpt lat="45.0507867" lon="9.6388767"><ele>58.0</ele><time>2026-04-10T12:42:06.842Z</time></trkpt><trkpt lat="45.0509467" lon="9.6389433"><ele>58.0</ele><time>2026-04-10T12:42:07.841Z</time></trkpt><trkpt lat="45.05111" lon="9.6389833"><ele>58.0</ele><time>2026-04-10T12:42:08.841Z</time></trkpt><trkpt lat="45.0512767" lon="9.639"><ele>58.0</ele><time>2026-04-10T12:42:09.841Z</time></trkpt><trkpt lat="45.051445" lon="9.639005"><ele>58.0</ele><time>2026-04-10T12:42:10.841Z</time></trkpt><trkpt lat="45.0516133" lon="9.639005"><ele>58.0</ele><time>2026-04-10T12:42:11.84Z</time></trkpt><trkpt lat="45.051785" lon="9.6390083"><ele>58.0</ele><time>2026-04-10T12:42:12.841Z</time></trkpt><trkpt lat="45.0519533" lon="9.6390333"><ele>59.0</ele><time>2026-04-10T12:42:13.84Z</time></trkpt><trkpt lat="45.05212" lon="9.639075"><ele>60.0</ele><time>2026-04-10T12:42:14.841Z</time></trkpt><trkpt lat="45.0522817" lon="9.6391283"><ele>61.0</ele><time>2026-04-10T12:42:15.842Z</time></trkpt><trkpt lat="45.0524283" lon="9.6391783"><ele>60.599999999999994</ele><time>2026-04-10T12:42:16.84Z</time></trkpt><trkpt lat="45.0525567" lon="9.6392267"><ele>60.199999999999996</ele><time>2026-04-10T12:42:17.841Z</time></trkpt><trkpt lat="45.0526667" lon="9.6392667"><ele>59.800000000000004</ele><time>2026-04-10T12:42:18.841Z</time></trkpt><trkpt lat="45.0527583" lon="9.6393083"><ele>59.400000000000006</ele><time>2026-04-10T12:42:19.839Z</time></trkpt><trkpt lat="45.0528233" lon="9.6393567"><ele>59.0</ele><time>2026-04-10T12:42:20.844Z</time></trkpt><trkpt lat="45.0528733" lon="9.63947"><ele>59.0</ele><time>2026-04-10T12:42:22.84Z</time></trkpt><trkpt lat="45.0528017" lon="9.6396017"><ele>59.00000000000001</ele><time>2026-04-10T12:42:24.84Z</time></trkpt><trkpt lat="45.0527483" lon="9.6396833"><ele>59.00000000000001</ele><time>2026-04-10T12:42:25.838Z</time></trkpt><trkpt lat="45.0526817" lon="9.6397733"><ele>59.0</ele><time>2026-04-10T12:42:26.84Z</time></trkpt><trkpt lat="45.0526083" lon="9.639875"><ele>59.0</ele><time>2026-04-10T12:42:27.839Z</time></trkpt><trkpt lat="45.05253" lon="9.639995"><ele>58.75</ele><time>2026-04-10T12:42:28.84Z</time></trkpt><trkpt lat="45.0524483" lon="9.6401317"><ele>58.5</ele><time>2026-04-10T12:42:29.843Z</time></trkpt><trkpt lat="45.0523683" lon="9.6402917"><ele>58.25</ele><time>2026-04-10T12:42:30.84Z</time></trkpt><trkpt lat="45.0522933" lon="9.640475"><ele>58.0</ele><time>2026-04-10T12:42:31.84Z</time></trkpt><trkpt lat="45.05223" lon="9.640675"><ele>58.0</ele><time>2026-04-10T12:42:32.842Z</time></trkpt><trkpt lat="45.052175" lon="9.6408883"><ele>58.0</ele><time>2026-04-10T12:42:33.84Z</time></trkpt><trkpt lat="45.0521283" lon="9.6411167"><ele>58.0</ele><time>2026-04-10T12:42:34.845Z</time></trkpt><trkpt lat="45.0520917" lon="9.6413533"><ele>58.0</ele><time>2026-04-10T12:42:35.843Z</time></trkpt><trkpt lat="45.0520667" lon="9.641595"><ele>58.0</ele><time>2026-04-10T12:42:36.841Z</time></trkpt><trkpt lat="45.0520433" lon="9.64184"><ele>58.0</ele><time>2026-04-10T12:42:37.839Z</time></trkpt><trkpt lat="45.0520233" lon="9.6420867"><ele>57.666666666666664</ele><time>2026-04-10T12:42:38.84Z</time></trkpt><trkpt lat="45.052005" lon="9.6423317"><ele>57.33333333333333</ele><time>2026-04-10T12:42:39.839Z</time></trkpt><trkpt lat="45.051985" lon="9.6425783"><ele>57.0</ele><time>2026-04-10T12:42:40.84Z</time></trkpt><trkpt lat="45.051965" lon="9.6428217"><ele>56.66666666666667</ele><time>2026-04-10T12:42:41.843Z</time></trkpt><trkpt lat="45.0519417" lon="9.6430683"><ele>56.333333333333336</ele><time>2026-04-10T12:42:42.839Z</time></trkpt><trkpt lat="45.05192" lon="9.6433133"><ele>56.0</ele><time>2026-04-10T12:42:43.84Z</time></trkpt><trkpt lat="45.0518967" lon="9.6435567"><ele>56.333333333333336</ele><time>2026-04-10T12:42:44.842Z</time></trkpt><trkpt lat="45.0518767" lon="9.6437967"><ele>56.66666666666667</ele><time>2026-04-10T12:42:45.842Z</time></trkpt><trkpt lat="45.0518583" lon="9.644035"><ele>57.0</ele><time>2026-04-10T12:42:46.842Z</time></trkpt><trkpt lat="45.0518417" lon="9.644275"><ele>56.66666666666667</ele><time>2026-04-10T12:42:47.839Z</time></trkpt><trkpt lat="45.0518267" lon="9.6445133"><ele>56.333333333333336</ele><time>2026-04-10T12:42:48.841Z</time></trkpt><trkpt lat="45.05181" lon="9.64475"><ele>56.0</ele><time>2026-04-10T12:42:49.84Z</time></trkpt><trkpt lat="45.05179" lon="9.6449833"><ele>56.0</ele><time>2026-04-10T12:42:50.839Z</time></trkpt><trkpt lat="45.0517717" lon="9.64522"><ele>56.0</ele><time>2026-04-10T12:42:51.841Z</time></trkpt><trkpt lat="45.0517517" lon="9.645455"><ele>56.0</ele><time>2026-04-10T12:42:52.84Z</time></trkpt><trkpt lat="45.0517333" lon="9.6456917"><ele>57.333333333333336</ele><time>2026-04-10T12:42:53.844Z</time></trkpt><trkpt lat="45.0517167" lon="9.6459317"><ele>58.66666666666667</ele><time>2026-04-10T12:42:54.841Z</time></trkpt><trkpt lat="45.0516983" lon="9.64617"><ele>60.0</ele><time>2026-04-10T12:42:55.84Z</time></trkpt><trkpt lat="45.05168" lon="9.64641"><ele>59.66666666666667</ele><time>2026-04-10T12:42:56.841Z</time></trkpt><trkpt lat="45.0516583" lon="9.6466483"><ele>59.333333333333336</ele><time>2026-04-10T12:42:57.84Z</time></trkpt><trkpt lat="45.05164" lon="9.6468917"><ele>59.0</ele><time>2026-04-10T12:42:58.842Z</time></trkpt><trkpt lat="45.0516233" lon="9.647135"><ele>59.0</ele><time>2026-04-10T12:42:59.84Z</time></trkpt><trkpt lat="45.0516067" lon="9.647375"><ele>59.0</ele><time>2026-04-10T12:43:00.842Z</time></trkpt><trkpt lat="45.05159" lon="9.6476167"><ele>59.0</ele><time>2026-04-10T12:43:01.84Z</time></trkpt><trkpt lat="45.05157" lon="9.6478567"><ele>58.66666666666667</ele><time>2026-04-10T12:43:02.84Z</time></trkpt><trkpt lat="45.0515483" lon="9.648095"><ele>58.33333333333333</ele><time>2026-04-10T12:43:03.841Z</time></trkpt><trkpt lat="45.05153" lon="9.64833"><ele>58.0</ele><time>2026-04-10T12:43:04.839Z</time></trkpt><trkpt lat="45.0515083" lon="9.6485667"><ele>58.666666666666664</ele><time>2026-04-10T12:43:05.839Z</time></trkpt><trkpt lat="45.0514867" lon="9.6488033"><ele>59.33333333333333</ele><time>2026-04-10T12:43:06.841Z</time></trkpt><trkpt lat="45.051465" lon="9.6490417"><ele>60.0</ele><time>2026-04-10T12:43:07.841Z</time></trkpt><trkpt lat="45.0514467" lon="9.64928"><ele>59.66666666666667</ele><time>2026-04-10T12:43:08.841Z</time></trkpt><trkpt lat="45.0514267" lon="9.6495167"><ele>59.333333333333336</ele><time>2026-04-10T12:43:09.84Z</time></trkpt><trkpt lat="45.0514083" lon="9.6497533"><ele>59.0</ele><time>2026-04-10T12:43:10.84Z</time></trkpt><trkpt lat="45.05139" lon="9.649985"><ele>59.0</ele><time>2026-04-10T12:43:11.84Z</time></trkpt><trkpt lat="45.0513733" lon="9.65022"><ele>59.0</ele><time>2026-04-10T12:43:12.84Z</time></trkpt><trkpt lat="45.05136" lon="9.6504583"><ele>59.0</ele><time>2026-04-10T12:43:13.847Z</time></trkpt><trkpt lat="45.0513517" lon="9.6506967"><ele>59.0</ele><time>2026-04-10T12:43:14.842Z</time></trkpt><trkpt lat="45.0513383" lon="9.65094"><ele>59.0</ele><time>2026-04-10T12:43:15.839Z</time></trkpt><trkpt lat="45.0513217" lon="9.651185"><ele>59.0</ele><time>2026-04-10T12:43:16.84Z</time></trkpt><trkpt lat="45.0513033" lon="9.6514317"><ele>59.0</ele><time>2026-04-10T12:43:17.84Z</time></trkpt><trkpt lat="45.0512833" lon="9.65168"><ele>59.0</ele><time>2026-04-10T12:43:18.842Z</time></trkpt><trkpt lat="45.051265" lon="9.6519267"><ele>59.0</ele><time>2026-04-10T12:43:19.84Z</time></trkpt><trkpt lat="45.0512467" lon="9.6521717"><ele>59.0</ele><time>2026-04-10T12:43:20.843Z</time></trkpt><trkpt lat="45.05123" lon="9.6524167"><ele>59.0</ele><time>2026-04-10T12:43:21.844Z</time></trkpt><trkpt lat="45.051215" lon="9.652655"><ele>59.0</ele><time>2026-04-10T12:43:22.839Z</time></trkpt><trkpt lat="45.0511983" lon="9.6528833"><ele>58.75</ele><time>2026-04-10T12:43:23.839Z</time></trkpt><trkpt lat="45.0511767" lon="9.6530933"><ele>58.5</ele><time>2026-04-10T12:43:24.84Z</time></trkpt><trkpt lat="45.0511517" lon="9.65328"><ele>58.25</ele><time>2026-04-10T12:43:25.841Z</time></trkpt><trkpt lat="45.0511133" lon="9.6534433"><ele>58.0</ele><time>2026-04-10T12:43:26.84Z</time></trkpt><trkpt lat="45.051065" lon="9.6535867"><ele>57.83333333333333</ele><time>2026-04-10T12:43:27.839Z</time></trkpt><trkpt lat="45.05103" lon="9.6537183"><ele>57.666666666666664</ele><time>2026-04-10T12:43:28.839Z</time></trkpt><trkpt lat="45.0510233" lon="9.653835"><ele>57.5</ele><time>2026-04-10T12:43:29.84Z</time></trkpt><trkpt lat="45.0510433" lon="9.65394"><ele>57.33333333333333</ele><time>2026-04-10T12:43:30.842Z</time></trkpt><trkpt lat="45.0511067" lon="9.6539783"><ele>57.166666666666664</ele><time>2026-04-10T12:43:31.839Z</time></trkpt><trkpt lat="45.0511767" lon="9.6539733"><ele>57.0</ele><time>2026-04-10T12:43:32.841Z</time></trkpt><trkpt lat="45.0512433" lon="9.653905"><ele>57.0</ele><time>2026-04-10T12:43:33.839Z</time></trkpt><trkpt lat="45.0512867" lon="9.6538067"><ele>57.0</ele><time>2026-04-10T12:43:34.841Z</time></trkpt><trkpt lat="45.05128" lon="9.65364"><ele>57.0</ele><time>2026-04-10T12:43:35.841Z</time></trkpt><trkpt lat="45.051265" lon="9.653445"><ele>57.0</ele><time>2026-04-10T12:43:36.841Z</time></trkpt><trkpt lat="45.0512567" lon="9.6532317"><ele>57.33333333333333</ele><time>2026-04-10T12:43:37.842Z</time></trkpt><trkpt lat="45.0512617" lon="9.6530017"><ele>57.666666666666664</ele><time>2026-04-10T12:43:38.84Z</time></trkpt><trkpt lat="45.0512767" lon="9.6527567"><ele>58.0</ele><time>2026-04-10T12:43:39.842Z</time></trkpt><trkpt lat="45.0512967" lon="9.6525033"><ele>58.33333333333333</ele><time>2026-04-10T12:43:40.839Z</time></trkpt><trkpt lat="45.0513217" lon="9.6522467"><ele>58.66666666666667</ele><time>2026-04-10T12:43:41.845Z</time></trkpt><trkpt lat="45.0513433" lon="9.6519917"><ele>59.0</ele><time>2026-04-10T12:43:42.841Z</time></trkpt><trkpt lat="45.0513633" lon="9.6517517"><ele>59.0</ele><time>2026-04-10T12:43:43.841Z</time></trkpt><trkpt lat="45.0513833" lon="9.6515283"><ele>59.0</ele><time>2026-04-10T12:43:44.841Z</time></trkpt><trkpt lat="45.0514017" lon="9.65132"><ele>59.0</ele><time>2026-04-10T12:43:45.841Z</time></trkpt><trkpt lat="45.0514217" lon="9.6511217"><ele>59.0</ele><time>2026-04-10T12:43:46.842Z</time></trkpt><trkpt lat="45.0514467" lon="9.6509267"><ele>59.0</ele><time>2026-04-10T12:43:47.839Z</time></trkpt><trkpt lat="45.0514833" lon="9.6507383"><ele>59.0</ele><time>2026-04-10T12:43:48.841Z</time></trkpt><trkpt lat="45.051525" lon="9.650555"><ele>59.0</ele><time>2026-04-10T12:43:49.84Z</time></trkpt><trkpt lat="45.0515617" lon="9.6503767"><ele>59.0</ele><time>2026-04-10T12:43:50.84Z</time></trkpt><trkpt lat="45.05158" lon="9.65021"><ele>59.00000000000001</ele><time>2026-04-10T12:43:51.84Z</time></trkpt><trkpt lat="45.0515933" lon="9.6500583"><ele>59.0</ele><time>2026-04-10T12:43:52.841Z</time></trkpt><trkpt lat="45.0516067" lon="9.6499283"><ele>59.0</ele><time>2026-04-10T12:43:53.839Z</time></trkpt><trkpt lat="45.0516283" lon="9.6498217"><ele>59.0</ele><time>2026-04-10T12:43:54.839Z</time></trkpt><trkpt lat="45.0516783" lon="9.6497567"><ele>59.00000000000001</ele><time>2026-04-10T12:43:55.845Z</time></trkpt><trkpt lat="45.0517417" lon="9.649745"><ele>59.0</ele><time>2026-04-10T12:43:56.841Z</time></trkpt><trkpt lat="45.051815" lon="9.6497683"><ele>59.0</ele><time>2026-04-10T12:43:57.841Z</time></trkpt><trkpt lat="45.0519067" lon="9.6498033"><ele>59.0</ele><time>2026-04-10T12:43:58.84Z</time></trkpt><trkpt lat="45.0520267" lon="9.649835"><ele>59.0</ele><time>2026-04-10T12:43:59.839Z</time></trkpt><trkpt lat="45.0521583" lon="9.6498733"><ele>59.0</ele><time>2026-04-10T12:44:00.841Z</time></trkpt><trkpt lat="45.0523017" lon="9.64991"><ele>59.0</ele><time>2026-04-10T12:44:01.84Z</time></trkpt><trkpt lat="45.05245" lon="9.64995"><ele>59.0</ele><time>2026-04-10T12:44:02.845Z</time></trkpt><trkpt lat="45.052605" lon="9.6499883"><ele>59.0</ele><time>2026-04-10T12:44:03.842Z</time></trkpt><trkpt lat="45.052755" lon="9.6500267"><ele>59.0</ele><time>2026-04-10T12:44:04.841Z</time></trkpt><trkpt lat="45.0528917" lon="9.6500617"><ele>59.0</ele><time>2026-04-10T12:44:05.841Z</time></trkpt><trkpt lat="45.0530183" lon="9.6500967"><ele>59.0</ele><time>2026-04-10T12:44:06.841Z</time></trkpt><trkpt lat="45.0531317" lon="9.65012"><ele>59.0</ele><time>2026-04-10T12:44:07.845Z</time></trkpt><trkpt lat="45.05323" lon="9.650145"><ele>59.50000000000001</ele><time>2026-04-10T12:44:08.84Z</time></trkpt><trkpt lat="45.05332" lon="9.6501683"><ele>60.0</ele><time>2026-04-10T12:44:09.839Z</time></trkpt><trkpt lat="45.0534033" lon="9.6501917"><ele>60.5</ele><time>2026-04-10T12:44:10.841Z</time></trkpt><trkpt lat="45.0534817" lon="9.6502117"><ele>61.0</ele><time>2026-04-10T12:44:11.842Z</time></trkpt><trkpt lat="45.053555" lon="9.6502267"><ele>61.50000000000001</ele><time>2026-04-10T12:44:12.842Z</time></trkpt><trkpt lat="45.0536167" lon="9.650245"><ele>62.0</ele><time>2026-04-10T12:44:13.839Z</time></trkpt><trkpt lat="45.0537183" lon="9.6502783"><ele>62.0</ele><time>2026-04-10T12:44:15.841Z</time></trkpt><trkpt lat="45.0537867" lon="9.6502317"><ele>62.0</ele><time>2026-04-10T12:44:18.841Z</time></trkpt></trkseg></trk></gpx>